Files
intotheeast-com-content/pages/01.trips/denmark-2026/stranden-shelter-to-the-north.gpx
T

38590 lines
1.2 MiB
Plaintext

<?xml version='1.0' encoding='UTF-8'?>
<gpx version="1.1" creator="https://www.komoot.de" xmlns="http://www.topografix.com/GPX/1/1" xmlns:xsi="http://www.w3.org/2001/XMLSchema-instance" xsi:schemaLocation="http://www.topografix.com/GPX/1/1 http://www.topografix.com/GPX/1/1/gpx.xsd">
<metadata>
<name>Stranden shelter to THE NORTH</name>
<author>
<link href="https://www.komoot.de">
<text>komoot</text>
<type>text/html</type>
</link>
</author>
</metadata>
<trk>
<name>Stranden shelter to THE NORTH</name>
<type>racebike</type>
<trkseg>
<trkpt lat="57.584404" lon="10.078520">
<ele>6.525907</ele>
<time>2026-07-17T08:48:18.000Z</time>
</trkpt>
<trkpt lat="57.584385" lon="10.078535">
<ele>6.525907</ele>
<time>2026-07-17T08:48:20.000Z</time>
</trkpt>
<trkpt lat="57.584379" lon="10.078545">
<ele>6.525907</ele>
<time>2026-07-17T08:48:21.000Z</time>
</trkpt>
<trkpt lat="57.584356" lon="10.078559">
<ele>6.525907</ele>
<time>2026-07-17T08:48:22.000Z</time>
</trkpt>
<trkpt lat="57.584341" lon="10.078566">
<ele>6.525907</ele>
<time>2026-07-17T08:48:23.000Z</time>
</trkpt>
<trkpt lat="57.584311" lon="10.078577">
<ele>6.525907</ele>
<time>2026-07-17T08:48:24.000Z</time>
</trkpt>
<trkpt lat="57.584296" lon="10.078582">
<ele>6.525907</ele>
<time>2026-07-17T08:48:25.000Z</time>
</trkpt>
<trkpt lat="57.584253" lon="10.078587">
<ele>6.525907</ele>
<time>2026-07-17T08:48:26.000Z</time>
</trkpt>
<trkpt lat="57.584236" lon="10.078588">
<ele>6.525907</ele>
<time>2026-07-17T08:48:27.000Z</time>
</trkpt>
<trkpt lat="57.584204" lon="10.078592">
<ele>6.525907</ele>
<time>2026-07-17T08:48:28.000Z</time>
</trkpt>
<trkpt lat="57.584188" lon="10.078594">
<ele>6.525907</ele>
<time>2026-07-17T08:48:29.000Z</time>
</trkpt>
<trkpt lat="57.584158" lon="10.078597">
<ele>6.525907</ele>
<time>2026-07-17T08:48:30.000Z</time>
</trkpt>
<trkpt lat="57.584140" lon="10.078598">
<ele>6.525907</ele>
<time>2026-07-17T08:48:31.000Z</time>
</trkpt>
<trkpt lat="57.584118" lon="10.078607">
<ele>6.525907</ele>
<time>2026-07-17T08:48:32.000Z</time>
</trkpt>
<trkpt lat="57.584088" lon="10.078617">
<ele>6.525907</ele>
<time>2026-07-17T08:48:33.000Z</time>
</trkpt>
<trkpt lat="57.584053" lon="10.078622">
<ele>6.525907</ele>
<time>2026-07-17T08:48:34.000Z</time>
</trkpt>
<trkpt lat="57.584019" lon="10.078626">
<ele>6.525907</ele>
<time>2026-07-17T08:48:35.000Z</time>
</trkpt>
<trkpt lat="57.583982" lon="10.078630">
<ele>6.525907</ele>
<time>2026-07-17T08:48:36.000Z</time>
</trkpt>
<trkpt lat="57.583948" lon="10.078631">
<ele>6.525907</ele>
<time>2026-07-17T08:48:37.000Z</time>
</trkpt>
<trkpt lat="57.583923" lon="10.078631">
<ele>6.525907</ele>
<time>2026-07-17T08:48:38.000Z</time>
</trkpt>
<trkpt lat="57.583901" lon="10.078630">
<ele>6.525907</ele>
<time>2026-07-17T08:48:39.000Z</time>
</trkpt>
<trkpt lat="57.583857" lon="10.078627">
<ele>6.525907</ele>
<time>2026-07-17T08:48:40.000Z</time>
</trkpt>
<trkpt lat="57.583841" lon="10.078628">
<ele>6.525907</ele>
<time>2026-07-17T08:48:41.000Z</time>
</trkpt>
<trkpt lat="57.583807" lon="10.078631">
<ele>6.525907</ele>
<time>2026-07-17T08:48:42.000Z</time>
</trkpt>
<trkpt lat="57.583793" lon="10.078631">
<ele>6.525907</ele>
<time>2026-07-17T08:48:43.000Z</time>
</trkpt>
<trkpt lat="57.583768" lon="10.078635">
<ele>6.525907</ele>
<time>2026-07-17T08:48:44.000Z</time>
</trkpt>
<trkpt lat="57.583749" lon="10.078637">
<ele>6.525907</ele>
<time>2026-07-17T08:48:45.000Z</time>
</trkpt>
<trkpt lat="57.583726" lon="10.078641">
<ele>6.525907</ele>
<time>2026-07-17T08:48:46.000Z</time>
</trkpt>
<trkpt lat="57.583703" lon="10.078643">
<ele>6.525907</ele>
<time>2026-07-17T08:48:47.000Z</time>
</trkpt>
<trkpt lat="57.583679" lon="10.078641">
<ele>6.525907</ele>
<time>2026-07-17T08:48:48.000Z</time>
</trkpt>
<trkpt lat="57.583636" lon="10.078637">
<ele>6.525907</ele>
<time>2026-07-17T08:48:49.000Z</time>
</trkpt>
<trkpt lat="57.583626" lon="10.078637">
<ele>6.525907</ele>
<time>2026-07-17T08:48:50.000Z</time>
</trkpt>
<trkpt lat="57.583606" lon="10.078638">
<ele>6.525907</ele>
<time>2026-07-17T08:48:51.000Z</time>
</trkpt>
<trkpt lat="57.583598" lon="10.078635">
<ele>6.525907</ele>
<time>2026-07-17T08:48:52.000Z</time>
</trkpt>
<trkpt lat="57.583586" lon="10.078632">
<ele>6.525907</ele>
<time>2026-07-17T08:48:53.000Z</time>
</trkpt>
<trkpt lat="57.583552" lon="10.078623">
<ele>6.525907</ele>
<time>2026-07-17T08:48:54.000Z</time>
</trkpt>
<trkpt lat="57.583541" lon="10.078622">
<ele>6.525907</ele>
<time>2026-07-17T08:48:55.000Z</time>
</trkpt>
<trkpt lat="57.583538" lon="10.078620">
<ele>6.525907</ele>
<time>2026-07-17T08:48:56.000Z</time>
</trkpt>
<trkpt lat="57.583533" lon="10.078621">
<ele>6.525907</ele>
<time>2026-07-17T08:48:57.000Z</time>
</trkpt>
<trkpt lat="57.583523" lon="10.078613">
<ele>6.525907</ele>
<time>2026-07-17T08:48:58.000Z</time>
</trkpt>
<trkpt lat="57.583523" lon="10.078613">
<ele>6.525907</ele>
<time>2026-07-17T08:49:01.000Z</time>
</trkpt>
<trkpt lat="57.583457" lon="10.078594">
<ele>6.571756</ele>
<time>2026-07-17T08:49:29.000Z</time>
</trkpt>
<trkpt lat="57.583446" lon="10.078605">
<ele>6.581585</ele>
<time>2026-07-17T08:49:30.000Z</time>
</trkpt>
<trkpt lat="57.583430" lon="10.078614">
<ele>6.594746</ele>
<time>2026-07-17T08:49:31.000Z</time>
</trkpt>
<trkpt lat="57.583419" lon="10.078626">
<ele>6.604781</ele>
<time>2026-07-17T08:49:32.000Z</time>
</trkpt>
<trkpt lat="57.583416" lon="10.078648">
<ele>6.614365</ele>
<time>2026-07-17T08:49:33.000Z</time>
</trkpt>
<trkpt lat="57.583416" lon="10.078687">
<ele>6.630830</ele>
<time>2026-07-17T08:49:34.000Z</time>
</trkpt>
<trkpt lat="57.583412" lon="10.078725">
<ele>6.647178</ele>
<time>2026-07-17T08:49:35.000Z</time>
</trkpt>
<trkpt lat="57.583412" lon="10.078778">
<ele>6.669553</ele>
<time>2026-07-17T08:49:36.000Z</time>
</trkpt>
<trkpt lat="57.583412" lon="10.078829">
<ele>6.691084</ele>
<time>2026-07-17T08:49:37.000Z</time>
</trkpt>
<trkpt lat="57.583408" lon="10.078883">
<ele>6.714098</ele>
<time>2026-07-17T08:49:38.000Z</time>
</trkpt>
<trkpt lat="57.583408" lon="10.078941">
<ele>6.738584</ele>
<time>2026-07-17T08:49:39.000Z</time>
</trkpt>
<trkpt lat="57.583408" lon="10.079000">
<ele>6.763492</ele>
<time>2026-07-17T08:49:40.000Z</time>
</trkpt>
<trkpt lat="57.583408" lon="10.079056">
<ele>6.787134</ele>
<time>2026-07-17T08:49:41.000Z</time>
</trkpt>
<trkpt lat="57.583408" lon="10.079108">
<ele>6.809087</ele>
<time>2026-07-17T08:49:42.000Z</time>
</trkpt>
<trkpt lat="57.583405" lon="10.079173">
<ele>6.836629</ele>
<time>2026-07-17T08:49:43.000Z</time>
</trkpt>
<trkpt lat="57.583405" lon="10.079218">
<ele>6.855627</ele>
<time>2026-07-17T08:49:44.000Z</time>
</trkpt>
<trkpt lat="57.583405" lon="10.079276">
<ele>6.880113</ele>
<time>2026-07-17T08:49:45.000Z</time>
</trkpt>
<trkpt lat="57.583405" lon="10.079333">
<ele>6.904177</ele>
<time>2026-07-17T08:49:46.000Z</time>
</trkpt>
<trkpt lat="57.583401" lon="10.079394">
<ele>6.930121</ele>
<time>2026-07-17T08:49:47.000Z</time>
</trkpt>
<trkpt lat="57.583395" lon="10.079455">
<ele>6.956303</ele>
<time>2026-07-17T08:49:48.000Z</time>
</trkpt>
<trkpt lat="57.583390" lon="10.079528">
<ele>6.987372</ele>
<time>2026-07-17T08:49:49.000Z</time>
</trkpt>
<trkpt lat="57.583385" lon="10.079606">
<ele>7.020536</ele>
<time>2026-07-17T08:49:50.000Z</time>
</trkpt>
<trkpt lat="57.583381" lon="10.079674">
<ele>7.049416</ele>
<time>2026-07-17T08:49:51.000Z</time>
</trkpt>
<trkpt lat="57.583377" lon="10.079748">
<ele>7.080815</ele>
<time>2026-07-17T08:49:52.000Z</time>
</trkpt>
<trkpt lat="57.583370" lon="10.079821">
<ele>7.112123</ele>
<time>2026-07-17T08:49:53.000Z</time>
</trkpt>
<trkpt lat="57.583366" lon="10.079895">
<ele>7.143522</ele>
<time>2026-07-17T08:49:54.000Z</time>
</trkpt>
<trkpt lat="57.583363" lon="10.079965">
<ele>7.173168</ele>
<time>2026-07-17T08:49:55.000Z</time>
</trkpt>
<trkpt lat="57.583362" lon="10.080032">
<ele>7.201465</ele>
<time>2026-07-17T08:49:56.000Z</time>
</trkpt>
<trkpt lat="57.583359" lon="10.080097">
<ele>7.229008</ele>
<time>2026-07-17T08:49:57.000Z</time>
</trkpt>
<trkpt lat="57.583358" lon="10.080161">
<ele>7.256038</ele>
<time>2026-07-17T08:49:58.000Z</time>
</trkpt>
<trkpt lat="57.583354" lon="10.080224">
<ele>7.282821</ele>
<time>2026-07-17T08:49:59.000Z</time>
</trkpt>
<trkpt lat="57.583347" lon="10.080288">
<ele>7.310396</ele>
<time>2026-07-17T08:50:00.000Z</time>
</trkpt>
<trkpt lat="57.583348" lon="10.080347">
<ele>7.335317</ele>
<time>2026-07-17T08:50:01.000Z</time>
</trkpt>
<trkpt lat="57.583351" lon="10.080408">
<ele>7.361178</ele>
<time>2026-07-17T08:50:02.000Z</time>
</trkpt>
<trkpt lat="57.583352" lon="10.080471">
<ele>7.387786</ele>
<time>2026-07-17T08:50:03.000Z</time>
</trkpt>
<trkpt lat="57.583355" lon="10.080539">
<ele>7.416591</ele>
<time>2026-07-17T08:50:04.000Z</time>
</trkpt>
<trkpt lat="57.583355" lon="10.080612">
<ele>7.447409</ele>
<time>2026-07-17T08:50:05.000Z</time>
</trkpt>
<trkpt lat="57.583355" lon="10.080683">
<ele>7.477384</ele>
<time>2026-07-17T08:50:06.000Z</time>
</trkpt>
<trkpt lat="57.583355" lon="10.080750">
<ele>7.505669</ele>
<time>2026-07-17T08:50:07.000Z</time>
</trkpt>
<trkpt lat="57.583358" lon="10.080823">
<ele>7.536578</ele>
<time>2026-07-17T08:50:08.000Z</time>
</trkpt>
<trkpt lat="57.583355" lon="10.080894">
<ele>7.566645</ele>
<time>2026-07-17T08:50:09.000Z</time>
</trkpt>
<trkpt lat="57.583355" lon="10.080962">
<ele>7.595353</ele>
<time>2026-07-17T08:50:10.000Z</time>
</trkpt>
<trkpt lat="57.583358" lon="10.081023">
<ele>7.621214</ele>
<time>2026-07-17T08:50:11.000Z</time>
</trkpt>
<trkpt lat="57.583355" lon="10.081080">
<ele>7.645393</ele>
<time>2026-07-17T08:50:12.000Z</time>
</trkpt>
<trkpt lat="57.583355" lon="10.081152">
<ele>7.675789</ele>
<time>2026-07-17T08:50:13.000Z</time>
</trkpt>
<trkpt lat="57.583351" lon="10.081220">
<ele>7.704669</ele>
<time>2026-07-17T08:50:14.000Z</time>
</trkpt>
<trkpt lat="57.583347" lon="10.081293">
<ele>7.735649</ele>
<time>2026-07-17T08:50:15.000Z</time>
</trkpt>
<trkpt lat="57.583343" lon="10.081370">
<ele>7.768308</ele>
<time>2026-07-17T08:50:16.000Z</time>
</trkpt>
<trkpt lat="57.583335" lon="10.081455">
<ele>7.804742</ele>
<time>2026-07-17T08:50:17.000Z</time>
</trkpt>
<trkpt lat="57.583327" lon="10.081539">
<ele>7.840759</ele>
<time>2026-07-17T08:50:18.000Z</time>
</trkpt>
<trkpt lat="57.583320" lon="10.081626">
<ele>7.877900</ele>
<time>2026-07-17T08:50:19.000Z</time>
</trkpt>
<trkpt lat="57.583315" lon="10.081713">
<ele>7.914839</ele>
<time>2026-07-17T08:50:20.000Z</time>
</trkpt>
<trkpt lat="57.583305" lon="10.081795">
<ele>7.940440</ele>
<time>2026-07-17T08:50:21.000Z</time>
</trkpt>
<trkpt lat="57.583301" lon="10.081883">
<ele>7.931307</ele>
<time>2026-07-17T08:50:22.000Z</time>
</trkpt>
<trkpt lat="57.583297" lon="10.081971">
<ele>7.922174</ele>
<time>2026-07-17T08:50:23.000Z</time>
</trkpt>
<trkpt lat="57.583290" lon="10.082058">
<ele>7.913076</ele>
<time>2026-07-17T08:50:24.000Z</time>
</trkpt>
<trkpt lat="57.583291" lon="10.082147">
<ele>7.903870</ele>
<time>2026-07-17T08:50:25.000Z</time>
</trkpt>
<trkpt lat="57.583294" lon="10.082228">
<ele>7.895474</ele>
<time>2026-07-17T08:50:26.000Z</time>
</trkpt>
<trkpt lat="57.583295" lon="10.082307">
<ele>7.887302</ele>
<time>2026-07-17T08:50:27.000Z</time>
</trkpt>
<trkpt lat="57.583302" lon="10.082384">
<ele>7.879225</ele>
<time>2026-07-17T08:50:28.000Z</time>
</trkpt>
<trkpt lat="57.583302" lon="10.082463">
<ele>7.871055</ele>
<time>2026-07-17T08:50:29.000Z</time>
</trkpt>
<trkpt lat="57.583302" lon="10.082547">
<ele>7.862369</ele>
<time>2026-07-17T08:50:30.000Z</time>
</trkpt>
<trkpt lat="57.583302" lon="10.082641">
<ele>7.852648</ele>
<time>2026-07-17T08:50:31.000Z</time>
</trkpt>
<trkpt lat="57.583302" lon="10.082737">
<ele>7.842720</ele>
<time>2026-07-17T08:50:32.000Z</time>
</trkpt>
<trkpt lat="57.583302" lon="10.082828">
<ele>7.833309</ele>
<time>2026-07-17T08:50:33.000Z</time>
</trkpt>
<trkpt lat="57.583310" lon="10.082926">
<ele>7.823058</ele>
<time>2026-07-17T08:50:34.000Z</time>
</trkpt>
<trkpt lat="57.583316" lon="10.083021">
<ele>7.813165</ele>
<time>2026-07-17T08:50:35.000Z</time>
</trkpt>
<trkpt lat="57.583313" lon="10.083126">
<ele>7.802291</ele>
<time>2026-07-17T08:50:36.000Z</time>
</trkpt>
<trkpt lat="57.583317" lon="10.083220">
<ele>7.792540</ele>
<time>2026-07-17T08:50:37.000Z</time>
</trkpt>
<trkpt lat="57.583322" lon="10.083312">
<ele>7.782977</ele>
<time>2026-07-17T08:50:38.000Z</time>
</trkpt>
<trkpt lat="57.583329" lon="10.083399">
<ele>7.773879</ele>
<time>2026-07-17T08:50:39.000Z</time>
</trkpt>
<trkpt lat="57.583333" lon="10.083486">
<ele>7.764849</ele>
<time>2026-07-17T08:50:40.000Z</time>
</trkpt>
<trkpt lat="57.583340" lon="10.083578">
<ele>7.755240</ele>
<time>2026-07-17T08:50:41.000Z</time>
</trkpt>
<trkpt lat="57.583344" lon="10.083674">
<ele>7.745282</ele>
<time>2026-07-17T08:50:42.000Z</time>
</trkpt>
<trkpt lat="57.583347" lon="10.083766">
<ele>7.735750</ele>
<time>2026-07-17T08:50:43.000Z</time>
</trkpt>
<trkpt lat="57.583344" lon="10.083854">
<ele>7.726632</ele>
<time>2026-07-17T08:50:44.000Z</time>
</trkpt>
<trkpt lat="57.583352" lon="10.083950">
<ele>7.716585</ele>
<time>2026-07-17T08:50:45.000Z</time>
</trkpt>
<trkpt lat="57.583359" lon="10.084044">
<ele>7.706770</ele>
<time>2026-07-17T08:50:46.000Z</time>
</trkpt>
<trkpt lat="57.583364" lon="10.084140">
<ele>7.696796</ele>
<time>2026-07-17T08:50:47.000Z</time>
</trkpt>
<trkpt lat="57.583371" lon="10.084229">
<ele>7.687493</ele>
<time>2026-07-17T08:50:48.000Z</time>
</trkpt>
<trkpt lat="57.583378" lon="10.084320">
<ele>7.677986</ele>
<time>2026-07-17T08:50:49.000Z</time>
</trkpt>
<trkpt lat="57.583382" lon="10.084414">
<ele>7.668235</ele>
<time>2026-07-17T08:50:50.000Z</time>
</trkpt>
<trkpt lat="57.583386" lon="10.084507">
<ele>7.658586</ele>
<time>2026-07-17T08:50:51.000Z</time>
</trkpt>
<trkpt lat="57.583394" lon="10.084596">
<ele>7.649254</ele>
<time>2026-07-17T08:50:52.000Z</time>
</trkpt>
<trkpt lat="57.583402" lon="10.084693">
<ele>7.639105</ele>
<time>2026-07-17T08:50:53.000Z</time>
</trkpt>
<trkpt lat="57.583408" lon="10.084783">
<ele>7.629726</ele>
<time>2026-07-17T08:50:54.000Z</time>
</trkpt>
<trkpt lat="57.583404" lon="10.084886">
<ele>7.619046</ele>
<time>2026-07-17T08:50:55.000Z</time>
</trkpt>
<trkpt lat="57.583401" lon="10.084991">
<ele>7.608172</ele>
<time>2026-07-17T08:50:56.000Z</time>
</trkpt>
<trkpt lat="57.583402" lon="10.085092">
<ele>7.597726</ele>
<time>2026-07-17T08:50:57.000Z</time>
</trkpt>
<trkpt lat="57.583410" lon="10.085186">
<ele>7.591491</ele>
<time>2026-07-17T08:50:58.000Z</time>
</trkpt>
<trkpt lat="57.583421" lon="10.085280">
<ele>7.586311</ele>
<time>2026-07-17T08:50:59.000Z</time>
</trkpt>
<trkpt lat="57.583427" lon="10.085357">
<ele>7.582122</ele>
<time>2026-07-17T08:51:00.000Z</time>
</trkpt>
<trkpt lat="57.583428" lon="10.085443">
<ele>7.577490</ele>
<time>2026-07-17T08:51:01.000Z</time>
</trkpt>
<trkpt lat="57.583436" lon="10.085529">
<ele>7.572791</ele>
<time>2026-07-17T08:51:02.000Z</time>
</trkpt>
<trkpt lat="57.583443" lon="10.085619">
<ele>7.567894</ele>
<time>2026-07-17T08:51:03.000Z</time>
</trkpt>
<trkpt lat="57.583446" lon="10.085708">
<ele>7.563093</ele>
<time>2026-07-17T08:51:04.000Z</time>
</trkpt>
<trkpt lat="57.583446" lon="10.085800">
<ele>7.558139</ele>
<time>2026-07-17T08:51:05.000Z</time>
</trkpt>
<trkpt lat="57.583446" lon="10.085897">
<ele>7.552916</ele>
<time>2026-07-17T08:51:06.000Z</time>
</trkpt>
<trkpt lat="57.583446" lon="10.085993">
<ele>7.547748</ele>
<time>2026-07-17T08:51:07.000Z</time>
</trkpt>
<trkpt lat="57.583438" lon="10.086099">
<ele>7.541984</ele>
<time>2026-07-17T08:51:08.000Z</time>
</trkpt>
<trkpt lat="57.583435" lon="10.086207">
<ele>7.536161</ele>
<time>2026-07-17T08:51:09.000Z</time>
</trkpt>
<trkpt lat="57.583435" lon="10.086309">
<ele>7.530669</ele>
<time>2026-07-17T08:51:10.000Z</time>
</trkpt>
<trkpt lat="57.583431" lon="10.086412">
<ele>7.525109</ele>
<time>2026-07-17T08:51:11.000Z</time>
</trkpt>
<trkpt lat="57.583431" lon="10.086512">
<ele>7.519725</ele>
<time>2026-07-17T08:51:12.000Z</time>
</trkpt>
<trkpt lat="57.583431" lon="10.086608">
<ele>7.514556</ele>
<time>2026-07-17T08:51:13.000Z</time>
</trkpt>
<trkpt lat="57.583432" lon="10.086707">
<ele>7.509225</ele>
<time>2026-07-17T08:51:14.000Z</time>
</trkpt>
<trkpt lat="57.583435" lon="10.086803">
<ele>7.504047</ele>
<time>2026-07-17T08:51:15.000Z</time>
</trkpt>
<trkpt lat="57.583436" lon="10.086897">
<ele>7.498985</ele>
<time>2026-07-17T08:51:16.000Z</time>
</trkpt>
<trkpt lat="57.583443" lon="10.086992">
<ele>7.493822</ele>
<time>2026-07-17T08:51:17.000Z</time>
</trkpt>
<trkpt lat="57.583447" lon="10.087088">
<ele>7.488638</ele>
<time>2026-07-17T08:51:18.000Z</time>
</trkpt>
<trkpt lat="57.583455" lon="10.087185">
<ele>7.483353</ele>
<time>2026-07-17T08:51:19.000Z</time>
</trkpt>
<trkpt lat="57.583458" lon="10.087279">
<ele>7.478283</ele>
<time>2026-07-17T08:51:20.000Z</time>
</trkpt>
<trkpt lat="57.583463" lon="10.087376">
<ele>7.473037</ele>
<time>2026-07-17T08:51:21.000Z</time>
</trkpt>
<trkpt lat="57.583470" lon="10.087471">
<ele>7.467874</ele>
<time>2026-07-17T08:51:22.000Z</time>
</trkpt>
<trkpt lat="57.583474" lon="10.087565">
<ele>7.462796</ele>
<time>2026-07-17T08:51:23.000Z</time>
</trkpt>
<trkpt lat="57.583481" lon="10.087656">
<ele>7.457847</ele>
<time>2026-07-17T08:51:24.000Z</time>
</trkpt>
<trkpt lat="57.583486" lon="10.087748">
<ele>7.452868</ele>
<time>2026-07-17T08:51:25.000Z</time>
</trkpt>
<trkpt lat="57.583498" lon="10.087837">
<ele>7.447927</ele>
<time>2026-07-17T08:51:26.000Z</time>
</trkpt>
<trkpt lat="57.583509" lon="10.087921">
<ele>7.443271</ele>
<time>2026-07-17T08:51:27.000Z</time>
</trkpt>
<trkpt lat="57.583520" lon="10.088004">
<ele>7.438667</ele>
<time>2026-07-17T08:51:28.000Z</time>
</trkpt>
<trkpt lat="57.583532" lon="10.088083">
<ele>7.434247</ele>
<time>2026-07-17T08:51:29.000Z</time>
</trkpt>
<trkpt lat="57.583548" lon="10.088154">
<ele>7.430100</ele>
<time>2026-07-17T08:51:30.000Z</time>
</trkpt>
<trkpt lat="57.583571" lon="10.088224">
<ele>7.425679</ele>
<time>2026-07-17T08:51:31.000Z</time>
</trkpt>
<trkpt lat="57.583594" lon="10.088292">
<ele>7.421350</ele>
<time>2026-07-17T08:51:32.000Z</time>
</trkpt>
<trkpt lat="57.583616" lon="10.088358">
<ele>7.417166</ele>
<time>2026-07-17T08:51:33.000Z</time>
</trkpt>
<trkpt lat="57.583636" lon="10.088424">
<ele>7.385922</ele>
<time>2026-07-17T08:51:34.000Z</time>
</trkpt>
<trkpt lat="57.583663" lon="10.088498">
<ele>7.302920</ele>
<time>2026-07-17T08:51:35.000Z</time>
</trkpt>
<trkpt lat="57.583690" lon="10.088570">
<ele>7.221444</ele>
<time>2026-07-17T08:51:36.000Z</time>
</trkpt>
<trkpt lat="57.583712" lon="10.088637">
<ele>7.148590</ele>
<time>2026-07-17T08:51:37.000Z</time>
</trkpt>
<trkpt lat="57.583735" lon="10.088705">
<ele>7.074035</ele>
<time>2026-07-17T08:51:38.000Z</time>
</trkpt>
<trkpt lat="57.583754" lon="10.088776">
<ele>7.000453</ele>
<time>2026-07-17T08:51:39.000Z</time>
</trkpt>
<trkpt lat="57.583781" lon="10.088854">
<ele>6.914359</ele>
<time>2026-07-17T08:51:40.000Z</time>
</trkpt>
<trkpt lat="57.583804" lon="10.088928">
<ele>6.835044</ele>
<time>2026-07-17T08:51:41.000Z</time>
</trkpt>
<trkpt lat="57.583827" lon="10.089009">
<ele>6.750051</ele>
<time>2026-07-17T08:51:42.000Z</time>
</trkpt>
<trkpt lat="57.583854" lon="10.089086">
<ele>6.664735</ele>
<time>2026-07-17T08:51:43.000Z</time>
</trkpt>
<trkpt lat="57.583876" lon="10.089159">
<ele>6.587082</ele>
<time>2026-07-17T08:51:44.000Z</time>
</trkpt>
<trkpt lat="57.583899" lon="10.089234">
<ele>6.506963</ele>
<time>2026-07-17T08:51:45.000Z</time>
</trkpt>
<trkpt lat="57.583918" lon="10.089312">
<ele>6.427521</ele>
<time>2026-07-17T08:51:46.000Z</time>
</trkpt>
<trkpt lat="57.583942" lon="10.089391">
<ele>6.343324</ele>
<time>2026-07-17T08:51:47.000Z</time>
</trkpt>
<trkpt lat="57.583973" lon="10.089470">
<ele>6.252543</ele>
<time>2026-07-17T08:51:48.000Z</time>
</trkpt>
<trkpt lat="57.584007" lon="10.089548">
<ele>6.159324</ele>
<time>2026-07-17T08:51:49.000Z</time>
</trkpt>
<trkpt lat="57.584038" lon="10.089625">
<ele>6.070033</ele>
<time>2026-07-17T08:51:50.000Z</time>
</trkpt>
<trkpt lat="57.584068" lon="10.089709">
<ele>5.976442</ele>
<time>2026-07-17T08:51:51.000Z</time>
</trkpt>
<trkpt lat="57.584102" lon="10.089799">
<ele>5.874349</ele>
<time>2026-07-17T08:51:52.000Z</time>
</trkpt>
<trkpt lat="57.584132" lon="10.089883">
<ele>5.780758</ele>
<time>2026-07-17T08:51:53.000Z</time>
</trkpt>
<trkpt lat="57.584159" lon="10.089975">
<ele>5.683504</ele>
<time>2026-07-17T08:51:54.000Z</time>
</trkpt>
<trkpt lat="57.584186" lon="10.090060">
<ele>5.591891</ele>
<time>2026-07-17T08:51:55.000Z</time>
</trkpt>
<trkpt lat="57.584211" lon="10.090147">
<ele>5.500362</ele>
<time>2026-07-17T08:51:56.000Z</time>
</trkpt>
<trkpt lat="57.584223" lon="10.090251">
<ele>5.401721</ele>
<time>2026-07-17T08:51:57.000Z</time>
</trkpt>
<trkpt lat="57.584242" lon="10.090336">
<ele>5.316328</ele>
<time>2026-07-17T08:51:58.000Z</time>
</trkpt>
<trkpt lat="57.584256" lon="10.090421">
<ele>5.233876</ele>
<time>2026-07-17T08:51:59.000Z</time>
</trkpt>
<trkpt lat="57.584264" lon="10.090515">
<ele>5.145624</ele>
<time>2026-07-17T08:52:00.000Z</time>
</trkpt>
<trkpt lat="57.584280" lon="10.090611">
<ele>5.052407</ele>
<time>2026-07-17T08:52:01.000Z</time>
</trkpt>
<trkpt lat="57.584300" lon="10.090707">
<ele>4.956906</ele>
<time>2026-07-17T08:52:02.000Z</time>
</trkpt>
<trkpt lat="57.584321" lon="10.090803">
<ele>4.860765</ele>
<time>2026-07-17T08:52:03.000Z</time>
</trkpt>
<trkpt lat="57.584332" lon="10.090902">
<ele>4.767018</ele>
<time>2026-07-17T08:52:04.000Z</time>
</trkpt>
<trkpt lat="57.584335" lon="10.091001">
<ele>4.675075</ele>
<time>2026-07-17T08:52:05.000Z</time>
</trkpt>
<trkpt lat="57.584332" lon="10.091112">
<ele>4.572021</ele>
<time>2026-07-17T08:52:06.000Z</time>
</trkpt>
<trkpt lat="57.584331" lon="10.091221">
<ele>4.470938</ele>
<time>2026-07-17T08:52:07.000Z</time>
</trkpt>
<trkpt lat="57.584330" lon="10.091326">
<ele>4.373563</ele>
<time>2026-07-17T08:52:08.000Z</time>
</trkpt>
<trkpt lat="57.584346" lon="10.091427">
<ele>4.302628</ele>
<time>2026-07-17T08:52:09.000Z</time>
</trkpt>
<trkpt lat="57.584343" lon="10.091526">
<ele>4.299429</ele>
<time>2026-07-17T08:52:10.000Z</time>
</trkpt>
<trkpt lat="57.584347" lon="10.091630">
<ele>4.296065</ele>
<time>2026-07-17T08:52:11.000Z</time>
</trkpt>
<trkpt lat="57.584347" lon="10.091740">
<ele>4.292517</ele>
<time>2026-07-17T08:52:12.000Z</time>
</trkpt>
<trkpt lat="57.584345" lon="10.091845">
<ele>4.289127</ele>
<time>2026-07-17T08:52:13.000Z</time>
</trkpt>
<trkpt lat="57.584331" lon="10.091951">
<ele>4.285605</ele>
<time>2026-07-17T08:52:14.000Z</time>
</trkpt>
<trkpt lat="57.584323" lon="10.092065">
<ele>4.281896</ele>
<time>2026-07-17T08:52:15.000Z</time>
</trkpt>
<trkpt lat="57.584321" lon="10.092171">
<ele>4.278474</ele>
<time>2026-07-17T08:52:16.000Z</time>
</trkpt>
<trkpt lat="57.584337" lon="10.092276">
<ele>4.274953</ele>
<time>2026-07-17T08:52:17.000Z</time>
</trkpt>
<trkpt lat="57.584374" lon="10.092379">
<ele>4.270953</ele>
<time>2026-07-17T08:52:18.000Z</time>
</trkpt>
<trkpt lat="57.584382" lon="10.092476">
<ele>4.267786</ele>
<time>2026-07-17T08:52:19.000Z</time>
</trkpt>
<trkpt lat="57.584385" lon="10.092571">
<ele>4.264716</ele>
<time>2026-07-17T08:52:20.000Z</time>
</trkpt>
<trkpt lat="57.584385" lon="10.092673">
<ele>4.261426</ele>
<time>2026-07-17T08:52:21.000Z</time>
</trkpt>
<trkpt lat="57.584388" lon="10.092772">
<ele>4.258227</ele>
<time>2026-07-17T08:52:22.000Z</time>
</trkpt>
<trkpt lat="57.584409" lon="10.092868">
<ele>4.254882</ele>
<time>2026-07-17T08:52:23.000Z</time>
</trkpt>
<trkpt lat="57.584421" lon="10.092968">
<ele>4.251576</ele>
<time>2026-07-17T08:52:24.000Z</time>
</trkpt>
<trkpt lat="57.584436" lon="10.093066">
<ele>4.248288</ele>
<time>2026-07-17T08:52:25.000Z</time>
</trkpt>
<trkpt lat="57.584455" lon="10.093164">
<ele>4.244926</ele>
<time>2026-07-17T08:52:26.000Z</time>
</trkpt>
<trkpt lat="57.584465" lon="10.093254">
<ele>4.241961</ele>
<time>2026-07-17T08:52:27.000Z</time>
</trkpt>
<trkpt lat="57.584470" lon="10.093357">
<ele>4.238624</ele>
<time>2026-07-17T08:52:28.000Z</time>
</trkpt>
<trkpt lat="57.584482" lon="10.093463">
<ele>4.235129</ele>
<time>2026-07-17T08:52:29.000Z</time>
</trkpt>
<trkpt lat="57.584493" lon="10.093570">
<ele>4.231614</ele>
<time>2026-07-17T08:52:30.000Z</time>
</trkpt>
<trkpt lat="57.584500" lon="10.093680">
<ele>4.228041</ele>
<time>2026-07-17T08:52:31.000Z</time>
</trkpt>
<trkpt lat="57.584508" lon="10.093792">
<ele>4.224395</ele>
<time>2026-07-17T08:52:32.000Z</time>
</trkpt>
<trkpt lat="57.584519" lon="10.093905">
<ele>4.220690</ele>
<time>2026-07-17T08:52:33.000Z</time>
</trkpt>
<trkpt lat="57.584524" lon="10.094013">
<ele>4.217193</ele>
<time>2026-07-17T08:52:34.000Z</time>
</trkpt>
<trkpt lat="57.584535" lon="10.094122">
<ele>4.213615</ele>
<time>2026-07-17T08:52:35.000Z</time>
</trkpt>
<trkpt lat="57.584542" lon="10.094233">
<ele>4.210009</ele>
<time>2026-07-17T08:52:36.000Z</time>
</trkpt>
<trkpt lat="57.584550" lon="10.094343">
<ele>4.206428</ele>
<time>2026-07-17T08:52:37.000Z</time>
</trkpt>
<trkpt lat="57.584557" lon="10.094446">
<ele>4.203079</ele>
<time>2026-07-17T08:52:38.000Z</time>
</trkpt>
<trkpt lat="57.584561" lon="10.094540">
<ele>4.200036</ele>
<time>2026-07-17T08:52:39.000Z</time>
</trkpt>
<trkpt lat="57.584565" lon="10.094643">
<ele>4.196705</ele>
<time>2026-07-17T08:52:40.000Z</time>
</trkpt>
<trkpt lat="57.584573" lon="10.094741">
<ele>4.222899</ele>
<time>2026-07-17T08:52:41.000Z</time>
</trkpt>
<trkpt lat="57.584580" lon="10.094834">
<ele>4.268319</ele>
<time>2026-07-17T08:52:42.000Z</time>
</trkpt>
<trkpt lat="57.584587" lon="10.094929">
<ele>4.314696</ele>
<time>2026-07-17T08:52:43.000Z</time>
</trkpt>
<trkpt lat="57.584591" lon="10.095031">
<ele>4.364158</ele>
<time>2026-07-17T08:52:44.000Z</time>
</trkpt>
<trkpt lat="57.584591" lon="10.095125">
<ele>4.409620</ele>
<time>2026-07-17T08:52:45.000Z</time>
</trkpt>
<trkpt lat="57.584595" lon="10.095221">
<ele>4.456188</ele>
<time>2026-07-17T08:52:46.000Z</time>
</trkpt>
<trkpt lat="57.584599" lon="10.095313">
<ele>4.500829</ele>
<time>2026-07-17T08:52:47.000Z</time>
</trkpt>
<trkpt lat="57.584599" lon="10.095408">
<ele>4.546774</ele>
<time>2026-07-17T08:52:48.000Z</time>
</trkpt>
<trkpt lat="57.584607" lon="10.095499">
<ele>4.591372</ele>
<time>2026-07-17T08:52:49.000Z</time>
</trkpt>
<trkpt lat="57.584615" lon="10.095585">
<ele>4.633586</ele>
<time>2026-07-17T08:52:50.000Z</time>
</trkpt>
<trkpt lat="57.584630" lon="10.095673">
<ele>4.678246</ele>
<time>2026-07-17T08:52:51.000Z</time>
</trkpt>
<trkpt lat="57.584637" lon="10.095766">
<ele>4.723665</ele>
<time>2026-07-17T08:52:52.000Z</time>
</trkpt>
<trkpt lat="57.584641" lon="10.095864">
<ele>4.771198</ele>
<time>2026-07-17T08:52:53.000Z</time>
</trkpt>
<trkpt lat="57.584644" lon="10.095965">
<ele>4.820120</ele>
<time>2026-07-17T08:52:54.000Z</time>
</trkpt>
<trkpt lat="57.584640" lon="10.096068">
<ele>4.870065</ele>
<time>2026-07-17T08:52:55.000Z</time>
</trkpt>
<trkpt lat="57.584637" lon="10.096159">
<ele>4.914158</ele>
<time>2026-07-17T08:52:56.000Z</time>
</trkpt>
<trkpt lat="57.584641" lon="10.096263">
<ele>4.964585</ele>
<time>2026-07-17T08:52:57.000Z</time>
</trkpt>
<trkpt lat="57.584649" lon="10.096358">
<ele>5.011094</ele>
<time>2026-07-17T08:52:58.000Z</time>
</trkpt>
<trkpt lat="57.584652" lon="10.096449">
<ele>5.055188</ele>
<time>2026-07-17T08:52:59.000Z</time>
</trkpt>
<trkpt lat="57.584656" lon="10.096546">
<ele>5.102239</ele>
<time>2026-07-17T08:53:00.000Z</time>
</trkpt>
<trkpt lat="57.584656" lon="10.096644">
<ele>5.149635</ele>
<time>2026-07-17T08:53:01.000Z</time>
</trkpt>
<trkpt lat="57.584660" lon="10.096730">
<ele>5.191383</ele>
<time>2026-07-17T08:53:02.000Z</time>
</trkpt>
<trkpt lat="57.584660" lon="10.096821">
<ele>5.235394</ele>
<time>2026-07-17T08:53:03.000Z</time>
</trkpt>
<trkpt lat="57.584660" lon="10.096909">
<ele>5.277953</ele>
<time>2026-07-17T08:53:04.000Z</time>
</trkpt>
<trkpt lat="57.584664" lon="10.097000">
<ele>5.322112</ele>
<time>2026-07-17T08:53:05.000Z</time>
</trkpt>
<trkpt lat="57.584668" lon="10.097084">
<ele>5.362897</ele>
<time>2026-07-17T08:53:06.000Z</time>
</trkpt>
<trkpt lat="57.584671" lon="10.097171">
<ele>5.405060</ele>
<time>2026-07-17T08:53:07.000Z</time>
</trkpt>
<trkpt lat="57.584671" lon="10.097252">
<ele>5.444234</ele>
<time>2026-07-17T08:53:08.000Z</time>
</trkpt>
<trkpt lat="57.584671" lon="10.097344">
<ele>5.488728</ele>
<time>2026-07-17T08:53:09.000Z</time>
</trkpt>
<trkpt lat="57.584667" lon="10.097432">
<ele>5.531440</ele>
<time>2026-07-17T08:53:10.000Z</time>
</trkpt>
<trkpt lat="57.584663" lon="10.097521">
<ele>5.574635</ele>
<time>2026-07-17T08:53:11.000Z</time>
</trkpt>
<trkpt lat="57.584654" lon="10.097608">
<ele>5.617487</ele>
<time>2026-07-17T08:53:12.000Z</time>
</trkpt>
<trkpt lat="57.584644" lon="10.097693">
<ele>5.659574</ele>
<time>2026-07-17T08:53:13.000Z</time>
</trkpt>
<trkpt lat="57.584636" lon="10.097784">
<ele>5.704173</ele>
<time>2026-07-17T08:53:14.000Z</time>
</trkpt>
<trkpt lat="57.584628" lon="10.097877">
<ele>5.749726</ele>
<time>2026-07-17T08:53:15.000Z</time>
</trkpt>
<trkpt lat="57.584621" lon="10.097970">
<ele>5.795145</ele>
<time>2026-07-17T08:53:16.000Z</time>
</trkpt>
<trkpt lat="57.584613" lon="10.098059">
<ele>5.840585</ele>
<time>2026-07-17T08:53:17.000Z</time>
</trkpt>
<trkpt lat="57.584605" lon="10.098144">
<ele>5.885945</ele>
<time>2026-07-17T08:53:18.000Z</time>
</trkpt>
<trkpt lat="57.584598" lon="10.098228">
<ele>5.930626</ele>
<time>2026-07-17T08:53:19.000Z</time>
</trkpt>
<trkpt lat="57.584590" lon="10.098313">
<ele>5.975987</ele>
<time>2026-07-17T08:53:20.000Z</time>
</trkpt>
<trkpt lat="57.584586" lon="10.098399">
<ele>6.021359</ele>
<time>2026-07-17T08:53:21.000Z</time>
</trkpt>
<trkpt lat="57.584579" lon="10.098480">
<ele>6.064483</ele>
<time>2026-07-17T08:53:22.000Z</time>
</trkpt>
<trkpt lat="57.584571" lon="10.098560">
<ele>6.107257</ele>
<time>2026-07-17T08:53:23.000Z</time>
</trkpt>
<trkpt lat="57.584567" lon="10.098636">
<ele>6.147395</ele>
<time>2026-07-17T08:53:24.000Z</time>
</trkpt>
<trkpt lat="57.584556" lon="10.098716">
<ele>6.190805</ele>
<time>2026-07-17T08:53:25.000Z</time>
</trkpt>
<trkpt lat="57.584548" lon="10.098796">
<ele>6.233579</ele>
<time>2026-07-17T08:53:26.000Z</time>
</trkpt>
<trkpt lat="57.584540" lon="10.098879">
<ele>6.277905</ele>
<time>2026-07-17T08:53:27.000Z</time>
</trkpt>
<trkpt lat="57.584532" lon="10.098958">
<ele>6.320162</ele>
<time>2026-07-17T08:53:28.000Z</time>
</trkpt>
<trkpt lat="57.584522" lon="10.099040">
<ele>6.364363</ele>
<time>2026-07-17T08:53:29.000Z</time>
</trkpt>
<trkpt lat="57.584517" lon="10.099125">
<ele>6.409308</ele>
<time>2026-07-17T08:53:30.000Z</time>
</trkpt>
<trkpt lat="57.584502" lon="10.099211">
<ele>6.456843</ele>
<time>2026-07-17T08:53:31.000Z</time>
</trkpt>
<trkpt lat="57.584494" lon="10.099297">
<ele>6.502721</ele>
<time>2026-07-17T08:53:32.000Z</time>
</trkpt>
<trkpt lat="57.584483" lon="10.099386">
<ele>6.550728</ele>
<time>2026-07-17T08:53:33.000Z</time>
</trkpt>
<trkpt lat="57.584475" lon="10.099477">
<ele>6.599197</ele>
<time>2026-07-17T08:53:34.000Z</time>
</trkpt>
<trkpt lat="57.584463" lon="10.099566">
<ele>6.647434</ele>
<time>2026-07-17T08:53:35.000Z</time>
</trkpt>
<trkpt lat="57.584448" lon="10.099652">
<ele>6.694969</ele>
<time>2026-07-17T08:53:36.000Z</time>
</trkpt>
<trkpt lat="57.584433" lon="10.099739">
<ele>6.743004</ele>
<time>2026-07-17T08:53:37.000Z</time>
</trkpt>
<trkpt lat="57.584422" lon="10.099825">
<ele>6.789476</ele>
<time>2026-07-17T08:53:38.000Z</time>
</trkpt>
<trkpt lat="57.584410" lon="10.099911">
<ele>6.836184</ele>
<time>2026-07-17T08:53:39.000Z</time>
</trkpt>
<trkpt lat="57.584398" lon="10.100002">
<ele>6.885441</ele>
<time>2026-07-17T08:53:40.000Z</time>
</trkpt>
<trkpt lat="57.584384" lon="10.100092">
<ele>6.934698</ele>
<time>2026-07-17T08:53:41.000Z</time>
</trkpt>
<trkpt lat="57.584372" lon="10.100181">
<ele>6.982934</ele>
<time>2026-07-17T08:53:42.000Z</time>
</trkpt>
<trkpt lat="57.584356" lon="10.100272">
<ele>7.033272</ele>
<time>2026-07-17T08:53:43.000Z</time>
</trkpt>
<trkpt lat="57.584341" lon="10.100355">
<ele>7.079310</ele>
<time>2026-07-17T08:53:44.000Z</time>
</trkpt>
<trkpt lat="57.584322" lon="10.100438">
<ele>7.126747</ele>
<time>2026-07-17T08:53:45.000Z</time>
</trkpt>
<trkpt lat="57.584307" lon="10.100516">
<ele>7.170304</ele>
<time>2026-07-17T08:53:46.000Z</time>
</trkpt>
<trkpt lat="57.584291" lon="10.100592">
<ele>7.213220</ele>
<time>2026-07-17T08:53:47.000Z</time>
</trkpt>
<trkpt lat="57.584277" lon="10.100673">
<ele>7.257953</ele>
<time>2026-07-17T08:53:48.000Z</time>
</trkpt>
<trkpt lat="57.584265" lon="10.100758">
<ele>7.304154</ele>
<time>2026-07-17T08:53:49.000Z</time>
</trkpt>
<trkpt lat="57.584254" lon="10.100841">
<ele>7.349093</ele>
<time>2026-07-17T08:53:50.000Z</time>
</trkpt>
<trkpt lat="57.584246" lon="10.100927">
<ele>7.394972</ele>
<time>2026-07-17T08:53:51.000Z</time>
</trkpt>
<trkpt lat="57.584235" lon="10.101014">
<ele>7.441955</ele>
<time>2026-07-17T08:53:52.000Z</time>
</trkpt>
<trkpt lat="57.584223" lon="10.101100">
<ele>7.488664</ele>
<time>2026-07-17T08:53:53.000Z</time>
</trkpt>
<trkpt lat="57.584212" lon="10.101180">
<ele>7.532074</ele>
<time>2026-07-17T08:53:54.000Z</time>
</trkpt>
<trkpt lat="57.584201" lon="10.101251">
<ele>7.570920</ele>
<time>2026-07-17T08:53:55.000Z</time>
</trkpt>
<trkpt lat="57.584197" lon="10.101326">
<ele>7.587766</ele>
<time>2026-07-17T08:53:56.000Z</time>
</trkpt>
<trkpt lat="57.584186" lon="10.101406">
<ele>7.596905</ele>
<time>2026-07-17T08:53:57.000Z</time>
</trkpt>
<trkpt lat="57.584178" lon="10.101481">
<ele>7.605366</ele>
<time>2026-07-17T08:53:58.000Z</time>
</trkpt>
<trkpt lat="57.584174" lon="10.101550">
<ele>7.613045</ele>
<time>2026-07-17T08:53:59.000Z</time>
</trkpt>
<trkpt lat="57.584167" lon="10.101622">
<ele>7.621142</ele>
<time>2026-07-17T08:54:00.000Z</time>
</trkpt>
<trkpt lat="57.584163" lon="10.101698">
<ele>7.629592</ele>
<time>2026-07-17T08:54:01.000Z</time>
</trkpt>
<trkpt lat="57.584159" lon="10.101773">
<ele>7.637932</ele>
<time>2026-07-17T08:54:02.000Z</time>
</trkpt>
<trkpt lat="57.584156" lon="10.101848">
<ele>7.646253</ele>
<time>2026-07-17T08:54:03.000Z</time>
</trkpt>
<trkpt lat="57.584152" lon="10.101925">
<ele>7.654813</ele>
<time>2026-07-17T08:54:04.000Z</time>
</trkpt>
<trkpt lat="57.584152" lon="10.102001">
<ele>7.663223</ele>
<time>2026-07-17T08:54:05.000Z</time>
</trkpt>
<trkpt lat="57.584147" lon="10.102079">
<ele>7.671915</ele>
<time>2026-07-17T08:54:06.000Z</time>
</trkpt>
<trkpt lat="57.584136" lon="10.102163">
<ele>7.681483</ele>
<time>2026-07-17T08:54:07.000Z</time>
</trkpt>
<trkpt lat="57.584127" lon="10.102242">
<ele>7.690419</ele>
<time>2026-07-17T08:54:08.000Z</time>
</trkpt>
<trkpt lat="57.584108" lon="10.102321">
<ele>7.700000</ele>
<time>2026-07-17T08:54:09.000Z</time>
</trkpt>
<trkpt lat="57.584089" lon="10.102397">
<ele>7.709279</ele>
<time>2026-07-17T08:54:10.000Z</time>
</trkpt>
<trkpt lat="57.584070" lon="10.102462">
<ele>7.717471</ele>
<time>2026-07-17T08:54:11.000Z</time>
</trkpt>
<trkpt lat="57.584051" lon="10.102517">
<ele>7.724711</ele>
<time>2026-07-17T08:54:12.000Z</time>
</trkpt>
<trkpt lat="57.584037" lon="10.102565">
<ele>7.730757</ele>
<time>2026-07-17T08:54:13.000Z</time>
</trkpt>
<trkpt lat="57.584030" lon="10.102605">
<ele>7.735413</ele>
<time>2026-07-17T08:54:14.000Z</time>
</trkpt>
<trkpt lat="57.584027" lon="10.102643">
<ele>7.739663</ele>
<time>2026-07-17T08:54:15.000Z</time>
</trkpt>
<trkpt lat="57.584030" lon="10.102688">
<ele>7.744681</ele>
<time>2026-07-17T08:54:16.000Z</time>
</trkpt>
<trkpt lat="57.584030" lon="10.102733">
<ele>7.749660</ele>
<time>2026-07-17T08:54:17.000Z</time>
</trkpt>
<trkpt lat="57.584030" lon="10.102779">
<ele>7.754750</ele>
<time>2026-07-17T08:54:18.000Z</time>
</trkpt>
<trkpt lat="57.584026" lon="10.102824">
<ele>7.759797</ele>
<time>2026-07-17T08:54:19.000Z</time>
</trkpt>
<trkpt lat="57.584022" lon="10.102864">
<ele>7.764300</ele>
<time>2026-07-17T08:54:20.000Z</time>
</trkpt>
<trkpt lat="57.584019" lon="10.102898">
<ele>7.768112</ele>
<time>2026-07-17T08:54:21.000Z</time>
</trkpt>
<trkpt lat="57.584019" lon="10.102921">
<ele>7.770657</ele>
<time>2026-07-17T08:54:22.000Z</time>
</trkpt>
<trkpt lat="57.584019" lon="10.102966">
<ele>7.775637</ele>
<time>2026-07-17T08:54:25.000Z</time>
</trkpt>
<trkpt lat="57.584019" lon="10.102992">
<ele>7.778513</ele>
<time>2026-07-17T08:54:26.000Z</time>
</trkpt>
<trkpt lat="57.584027" lon="10.103038">
<ele>7.783864</ele>
<time>2026-07-17T08:54:27.000Z</time>
</trkpt>
<trkpt lat="57.584036" lon="10.103077">
<ele>7.788563</ele>
<time>2026-07-17T08:54:28.000Z</time>
</trkpt>
<trkpt lat="57.584050" lon="10.103112">
<ele>7.793395</ele>
<time>2026-07-17T08:54:29.000Z</time>
</trkpt>
<trkpt lat="57.584058" lon="10.103155">
<ele>7.798431</ele>
<time>2026-07-17T08:54:30.000Z</time>
</trkpt>
<trkpt lat="57.584070" lon="10.103198">
<ele>7.803795</ele>
<time>2026-07-17T08:54:31.000Z</time>
</trkpt>
<trkpt lat="57.584080" lon="10.103247">
<ele>7.809597</ele>
<time>2026-07-17T08:54:32.000Z</time>
</trkpt>
<trkpt lat="57.584085" lon="10.103302">
<ele>7.815769</ele>
<time>2026-07-17T08:54:33.000Z</time>
</trkpt>
<trkpt lat="57.584096" lon="10.103358">
<ele>7.822369</ele>
<time>2026-07-17T08:54:34.000Z</time>
</trkpt>
<trkpt lat="57.584103" lon="10.103416">
<ele>7.828947</ele>
<time>2026-07-17T08:54:35.000Z</time>
</trkpt>
<trkpt lat="57.584107" lon="10.103481">
<ele>7.836186</ele>
<time>2026-07-17T08:54:36.000Z</time>
</trkpt>
<trkpt lat="57.584111" lon="10.103544">
<ele>7.843206</ele>
<time>2026-07-17T08:54:37.000Z</time>
</trkpt>
<trkpt lat="57.584115" lon="10.103608">
<ele>7.850336</ele>
<time>2026-07-17T08:54:38.000Z</time>
</trkpt>
<trkpt lat="57.584122" lon="10.103659">
<ele>7.856161</ele>
<time>2026-07-17T08:54:39.000Z</time>
</trkpt>
<trkpt lat="57.584126" lon="10.103696">
<ele>7.860337</ele>
<time>2026-07-17T08:54:40.000Z</time>
</trkpt>
<trkpt lat="57.584135" lon="10.103721">
<ele>7.863669</ele>
<time>2026-07-17T08:54:41.000Z</time>
</trkpt>
<trkpt lat="57.584150" lon="10.103753">
<ele>7.868373</ele>
<time>2026-07-17T08:54:42.000Z</time>
</trkpt>
<trkpt lat="57.584162" lon="10.103796">
<ele>7.873737</ele>
<time>2026-07-17T08:54:43.000Z</time>
</trkpt>
<trkpt lat="57.584177" lon="10.103844">
<ele>7.879885</ele>
<time>2026-07-17T08:54:44.000Z</time>
</trkpt>
<trkpt lat="57.584193" lon="10.103898">
<ele>7.886712</ele>
<time>2026-07-17T08:54:45.000Z</time>
</trkpt>
<trkpt lat="57.584212" lon="10.103957">
<ele>7.894327</ele>
<time>2026-07-17T08:54:46.000Z</time>
</trkpt>
<trkpt lat="57.584230" lon="10.104017">
<ele>7.901935</ele>
<time>2026-07-17T08:54:47.000Z</time>
</trkpt>
<trkpt lat="57.584246" lon="10.104079">
<ele>7.909549</ele>
<time>2026-07-17T08:54:48.000Z</time>
</trkpt>
<trkpt lat="57.584261" lon="10.104140">
<ele>7.916975</ele>
<time>2026-07-17T08:54:49.000Z</time>
</trkpt>
<trkpt lat="57.584280" lon="10.104201">
<ele>7.924781</ele>
<time>2026-07-17T08:54:50.000Z</time>
</trkpt>
<trkpt lat="57.584299" lon="10.104265">
<ele>7.932876</ele>
<time>2026-07-17T08:54:51.000Z</time>
</trkpt>
<trkpt lat="57.584314" lon="10.104333">
<ele>7.941013</ele>
<time>2026-07-17T08:54:52.000Z</time>
</trkpt>
<trkpt lat="57.584329" lon="10.104408">
<ele>7.949870</ele>
<time>2026-07-17T08:54:53.000Z</time>
</trkpt>
<trkpt lat="57.584340" lon="10.104490">
<ele>7.942623</ele>
<time>2026-07-17T08:54:54.000Z</time>
</trkpt>
<trkpt lat="57.584349" lon="10.104575">
<ele>7.926812</ele>
<time>2026-07-17T08:54:55.000Z</time>
</trkpt>
<trkpt lat="57.584365" lon="10.104659">
<ele>7.910544</ele>
<time>2026-07-17T08:54:56.000Z</time>
</trkpt>
<trkpt lat="57.584387" lon="10.104743">
<ele>7.893483</ele>
<time>2026-07-17T08:54:57.000Z</time>
</trkpt>
<trkpt lat="57.584401" lon="10.104828">
<ele>7.877256</ele>
<time>2026-07-17T08:54:58.000Z</time>
</trkpt>
<trkpt lat="57.584413" lon="10.104914">
<ele>7.861039</ele>
<time>2026-07-17T08:54:59.000Z</time>
</trkpt>
<trkpt lat="57.584425" lon="10.105006">
<ele>7.843760</ele>
<time>2026-07-17T08:55:00.000Z</time>
</trkpt>
<trkpt lat="57.584440" lon="10.105100">
<ele>7.825863</ele>
<time>2026-07-17T08:55:01.000Z</time>
</trkpt>
<trkpt lat="57.584460" lon="10.105187">
<ele>7.808588</ele>
<time>2026-07-17T08:55:02.000Z</time>
</trkpt>
<trkpt lat="57.584486" lon="10.105274">
<ele>7.790411</ele>
<time>2026-07-17T08:55:03.000Z</time>
</trkpt>
<trkpt lat="57.584506" lon="10.105365">
<ele>7.772463</ele>
<time>2026-07-17T08:55:04.000Z</time>
</trkpt>
<trkpt lat="57.584528" lon="10.105457">
<ele>7.754080</ele>
<time>2026-07-17T08:55:05.000Z</time>
</trkpt>
<trkpt lat="57.584547" lon="10.105559">
<ele>7.734374</ele>
<time>2026-07-17T08:55:06.000Z</time>
</trkpt>
<trkpt lat="57.584563" lon="10.105658">
<ele>7.715505</ele>
<time>2026-07-17T08:55:07.000Z</time>
</trkpt>
<trkpt lat="57.584585" lon="10.105749">
<ele>7.697288</ele>
<time>2026-07-17T08:55:08.000Z</time>
</trkpt>
<trkpt lat="57.584600" lon="10.105850">
<ele>7.678163</ele>
<time>2026-07-17T08:55:09.000Z</time>
</trkpt>
<trkpt lat="57.584616" lon="10.105944">
<ele>7.660165</ele>
<time>2026-07-17T08:55:10.000Z</time>
</trkpt>
<trkpt lat="57.584630" lon="10.106033">
<ele>7.643239</ele>
<time>2026-07-17T08:55:11.000Z</time>
</trkpt>
<trkpt lat="57.584647" lon="10.106125">
<ele>7.625481</ele>
<time>2026-07-17T08:55:12.000Z</time>
</trkpt>
<trkpt lat="57.584670" lon="10.106219">
<ele>7.606624</ele>
<time>2026-07-17T08:55:13.000Z</time>
</trkpt>
<trkpt lat="57.584689" lon="10.106316">
<ele>7.587779</ele>
<time>2026-07-17T08:55:14.000Z</time>
</trkpt>
<trkpt lat="57.584712" lon="10.106410">
<ele>7.568922</ele>
<time>2026-07-17T08:55:15.000Z</time>
</trkpt>
<trkpt lat="57.584738" lon="10.106504">
<ele>7.549620</ele>
<time>2026-07-17T08:55:16.000Z</time>
</trkpt>
<trkpt lat="57.584757" lon="10.106600">
<ele>7.530945</ele>
<time>2026-07-17T08:55:17.000Z</time>
</trkpt>
<trkpt lat="57.584773" lon="10.106691">
<ele>7.513469</ele>
<time>2026-07-17T08:55:18.000Z</time>
</trkpt>
<trkpt lat="57.584795" lon="10.106774">
<ele>7.496572</ele>
<time>2026-07-17T08:55:19.000Z</time>
</trkpt>
<trkpt lat="57.584812" lon="10.106869">
<ele>7.478295</ele>
<time>2026-07-17T08:55:20.000Z</time>
</trkpt>
<trkpt lat="57.584841" lon="10.106960">
<ele>7.458976</ele>
<time>2026-07-17T08:55:21.000Z</time>
</trkpt>
<trkpt lat="57.584860" lon="10.107067">
<ele>7.438407</ele>
<time>2026-07-17T08:55:22.000Z</time>
</trkpt>
<trkpt lat="57.584880" lon="10.107169">
<ele>7.418587</ele>
<time>2026-07-17T08:55:23.000Z</time>
</trkpt>
<trkpt lat="57.584902" lon="10.107260">
<ele>7.400371</ele>
<time>2026-07-17T08:55:24.000Z</time>
</trkpt>
<trkpt lat="57.584916" lon="10.107356">
<ele>7.382215</ele>
<time>2026-07-17T08:55:25.000Z</time>
</trkpt>
<trkpt lat="57.584928" lon="10.107461">
<ele>7.362624</ele>
<time>2026-07-17T08:55:26.000Z</time>
</trkpt>
<trkpt lat="57.584948" lon="10.107559">
<ele>7.343488</ele>
<time>2026-07-17T08:55:27.000Z</time>
</trkpt>
<trkpt lat="57.584971" lon="10.107650">
<ele>7.324666</ele>
<time>2026-07-17T08:55:28.000Z</time>
</trkpt>
<trkpt lat="57.584993" lon="10.107746">
<ele>7.305045</ele>
<time>2026-07-17T08:55:29.000Z</time>
</trkpt>
<trkpt lat="57.585008" lon="10.107856">
<ele>7.283715</ele>
<time>2026-07-17T08:55:30.000Z</time>
</trkpt>
<trkpt lat="57.585021" lon="10.107959">
<ele>7.263829</ele>
<time>2026-07-17T08:55:31.000Z</time>
</trkpt>
<trkpt lat="57.585043" lon="10.108063">
<ele>7.242818</ele>
<time>2026-07-17T08:55:32.000Z</time>
</trkpt>
<trkpt lat="57.585061" lon="10.108165">
<ele>7.222637</ele>
<time>2026-07-17T08:55:33.000Z</time>
</trkpt>
<trkpt lat="57.585072" lon="10.108269">
<ele>7.202716</ele>
<time>2026-07-17T08:55:34.000Z</time>
</trkpt>
<trkpt lat="57.585071" lon="10.108384">
<ele>7.181101</ele>
<time>2026-07-17T08:55:35.000Z</time>
</trkpt>
<trkpt lat="57.585069" lon="10.108507">
<ele>7.157976</ele>
<time>2026-07-17T08:55:36.000Z</time>
</trkpt>
<trkpt lat="57.585078" lon="10.108604">
<ele>7.139476</ele>
<time>2026-07-17T08:55:37.000Z</time>
</trkpt>
<trkpt lat="57.585097" lon="10.108700">
<ele>7.120244</ele>
<time>2026-07-17T08:55:38.000Z</time>
</trkpt>
<trkpt lat="57.585114" lon="10.108792">
<ele>7.101957</ele>
<time>2026-07-17T08:55:39.000Z</time>
</trkpt>
<trkpt lat="57.585113" lon="10.108893">
<ele>7.082973</ele>
<time>2026-07-17T08:55:40.000Z</time>
</trkpt>
<trkpt lat="57.585107" lon="10.109002">
<ele>7.062381</ele>
<time>2026-07-17T08:55:41.000Z</time>
</trkpt>
<trkpt lat="57.585115" lon="10.109119">
<ele>7.040215</ele>
<time>2026-07-17T08:55:42.000Z</time>
</trkpt>
<trkpt lat="57.585127" lon="10.109230">
<ele>7.018935</ele>
<time>2026-07-17T08:55:43.000Z</time>
</trkpt>
<trkpt lat="57.585141" lon="10.109335">
<ele>6.998602</ele>
<time>2026-07-17T08:55:44.000Z</time>
</trkpt>
<trkpt lat="57.585149" lon="10.109442">
<ele>6.978299</ele>
<time>2026-07-17T08:55:45.000Z</time>
</trkpt>
<trkpt lat="57.585160" lon="10.109544">
<ele>6.958746</ele>
<time>2026-07-17T08:55:46.000Z</time>
</trkpt>
<trkpt lat="57.585164" lon="10.109655">
<ele>6.937839</ele>
<time>2026-07-17T08:55:47.000Z</time>
</trkpt>
<trkpt lat="57.585172" lon="10.109767">
<ele>6.916606</ele>
<time>2026-07-17T08:55:48.000Z</time>
</trkpt>
<trkpt lat="57.585184" lon="10.109872">
<ele>6.896430</ele>
<time>2026-07-17T08:55:49.000Z</time>
</trkpt>
<trkpt lat="57.585196" lon="10.109966">
<ele>6.878271</ele>
<time>2026-07-17T08:55:50.000Z</time>
</trkpt>
<trkpt lat="57.585215" lon="10.110056">
<ele>6.860093</ele>
<time>2026-07-17T08:55:51.000Z</time>
</trkpt>
<trkpt lat="57.585234" lon="10.110144">
<ele>6.842264</ele>
<time>2026-07-17T08:55:52.000Z</time>
</trkpt>
<trkpt lat="57.585253" lon="10.110236">
<ele>6.823736</ele>
<time>2026-07-17T08:55:53.000Z</time>
</trkpt>
<trkpt lat="57.585268" lon="10.110329">
<ele>6.805485</ele>
<time>2026-07-17T08:55:54.000Z</time>
</trkpt>
<trkpt lat="57.585284" lon="10.110424">
<ele>6.786772</ele>
<time>2026-07-17T08:55:55.000Z</time>
</trkpt>
<trkpt lat="57.585303" lon="10.110522">
<ele>6.767187</ele>
<time>2026-07-17T08:55:56.000Z</time>
</trkpt>
<trkpt lat="57.585322" lon="10.110617">
<ele>6.748132</ele>
<time>2026-07-17T08:55:57.000Z</time>
</trkpt>
<trkpt lat="57.585341" lon="10.110711">
<ele>6.729253</ele>
<time>2026-07-17T08:55:58.000Z</time>
</trkpt>
<trkpt lat="57.585364" lon="10.110802">
<ele>6.710346</ele>
<time>2026-07-17T08:55:59.000Z</time>
</trkpt>
<trkpt lat="57.585383" lon="10.110897">
<ele>6.653937</ele>
<time>2026-07-17T08:56:00.000Z</time>
</trkpt>
<trkpt lat="57.585401" lon="10.110989">
<ele>6.598951</ele>
<time>2026-07-17T08:56:01.000Z</time>
</trkpt>
<trkpt lat="57.585416" lon="10.111091">
<ele>6.539568</ele>
<time>2026-07-17T08:56:02.000Z</time>
</trkpt>
<trkpt lat="57.585439" lon="10.111189">
<ele>6.479505</ele>
<time>2026-07-17T08:56:03.000Z</time>
</trkpt>
<trkpt lat="57.585459" lon="10.111291">
<ele>6.418527</ele>
<time>2026-07-17T08:56:04.000Z</time>
</trkpt>
<trkpt lat="57.585482" lon="10.111380">
<ele>6.363055</ele>
<time>2026-07-17T08:56:05.000Z</time>
</trkpt>
<trkpt lat="57.585501" lon="10.111469">
<ele>6.309270</ele>
<time>2026-07-17T08:56:06.000Z</time>
</trkpt>
<trkpt lat="57.585523" lon="10.111546">
<ele>6.260282</ele>
<time>2026-07-17T08:56:07.000Z</time>
</trkpt>
<trkpt lat="57.585536" lon="10.111611">
<ele>6.221331</ele>
<time>2026-07-17T08:56:08.000Z</time>
</trkpt>
<trkpt lat="57.585551" lon="10.111675">
<ele>6.182114</ele>
<time>2026-07-17T08:56:09.000Z</time>
</trkpt>
<trkpt lat="57.585575" lon="10.111733">
<ele>6.140977</ele>
<time>2026-07-17T08:56:10.000Z</time>
</trkpt>
<trkpt lat="57.585604" lon="10.111800">
<ele>6.092629</ele>
<time>2026-07-17T08:56:11.000Z</time>
</trkpt>
<trkpt lat="57.585627" lon="10.111856">
<ele>6.053021</ele>
<time>2026-07-17T08:56:12.000Z</time>
</trkpt>
<trkpt lat="57.585647" lon="10.111920">
<ele>6.011429</ele>
<time>2026-07-17T08:56:13.000Z</time>
</trkpt>
<trkpt lat="57.585669" lon="10.111970">
<ele>5.975111</ele>
<time>2026-07-17T08:56:14.000Z</time>
</trkpt>
<trkpt lat="57.585691" lon="10.112028">
<ele>5.935219</ele>
<time>2026-07-17T08:56:15.000Z</time>
</trkpt>
<trkpt lat="57.585707" lon="10.112077">
<ele>5.903007</ele>
<time>2026-07-17T08:56:16.000Z</time>
</trkpt>
<trkpt lat="57.585728" lon="10.112123">
<ele>5.869084</ele>
<time>2026-07-17T08:56:17.000Z</time>
</trkpt>
<trkpt lat="57.585749" lon="10.112170">
<ele>5.834732</ele>
<time>2026-07-17T08:56:18.000Z</time>
</trkpt>
<trkpt lat="57.585769" lon="10.112220">
<ele>5.799706</ele>
<time>2026-07-17T08:56:19.000Z</time>
</trkpt>
<trkpt lat="57.585796" lon="10.112265">
<ele>5.761784</ele>
<time>2026-07-17T08:56:20.000Z</time>
</trkpt>
<trkpt lat="57.585823" lon="10.112309">
<ele>5.724235</ele>
<time>2026-07-17T08:56:21.000Z</time>
</trkpt>
<trkpt lat="57.585855" lon="10.112353">
<ele>5.682599</ele>
<time>2026-07-17T08:56:22.000Z</time>
</trkpt>
<trkpt lat="57.585909" lon="10.112410">
<ele>5.617614</ele>
<time>2026-07-17T08:56:23.000Z</time>
</trkpt>
<trkpt lat="57.585953" lon="10.112456">
<ele>5.564786</ele>
<time>2026-07-17T08:56:24.000Z</time>
</trkpt>
<trkpt lat="57.585992" lon="10.112517">
<ele>5.511481</ele>
<time>2026-07-17T08:56:25.000Z</time>
</trkpt>
<trkpt lat="57.586038" lon="10.112593">
<ele>5.447124</ele>
<time>2026-07-17T08:56:26.000Z</time>
</trkpt>
<trkpt lat="57.586085" lon="10.112664">
<ele>5.383782</ele>
<time>2026-07-17T08:56:27.000Z</time>
</trkpt>
<trkpt lat="57.586135" lon="10.112746">
<ele>5.314054</ele>
<time>2026-07-17T08:56:28.000Z</time>
</trkpt>
<trkpt lat="57.586183" lon="10.112822">
<ele>5.248114</ele>
<time>2026-07-17T08:56:29.000Z</time>
</trkpt>
<trkpt lat="57.586221" lon="10.112901">
<ele>5.188522</ele>
<time>2026-07-17T08:56:30.000Z</time>
</trkpt>
<trkpt lat="57.586259" lon="10.112979">
<ele>5.129346</ele>
<time>2026-07-17T08:56:31.000Z</time>
</trkpt>
<trkpt lat="57.586303" lon="10.113067">
<ele>5.061783</ele>
<time>2026-07-17T08:56:32.000Z</time>
</trkpt>
<trkpt lat="57.586357" lon="10.113225">
<ele>4.956581</ele>
<time>2026-07-17T08:56:33.000Z</time>
</trkpt>
<trkpt lat="57.586386" lon="10.113374">
<ele>4.867585</ele>
<time>2026-07-17T08:56:34.000Z</time>
</trkpt>
<trkpt lat="57.586437" lon="10.113535">
<ele>4.744082</ele>
<time>2026-07-17T08:56:35.000Z</time>
</trkpt>
<trkpt lat="57.586468" lon="10.113663">
<ele>4.642284</ele>
<time>2026-07-17T08:56:36.000Z</time>
</trkpt>
<trkpt lat="57.586502" lon="10.113798">
<ele>4.534181</ele>
<time>2026-07-17T08:56:37.000Z</time>
</trkpt>
<trkpt lat="57.586528" lon="10.113939">
<ele>4.426114</ele>
<time>2026-07-17T08:56:38.000Z</time>
</trkpt>
<trkpt lat="57.586555" lon="10.114066">
<ele>4.327096</ele>
<time>2026-07-17T08:56:39.000Z</time>
</trkpt>
<trkpt lat="57.586580" lon="10.114178">
<ele>4.239167</ele>
<time>2026-07-17T08:56:40.000Z</time>
</trkpt>
<trkpt lat="57.586597" lon="10.114279">
<ele>4.162444</ele>
<time>2026-07-17T08:56:41.000Z</time>
</trkpt>
<trkpt lat="57.586622" lon="10.114389">
<ele>4.075852</ele>
<time>2026-07-17T08:56:42.000Z</time>
</trkpt>
<trkpt lat="57.586641" lon="10.114487">
<ele>4.000323</ele>
<time>2026-07-17T08:56:43.000Z</time>
</trkpt>
<trkpt lat="57.586660" lon="10.114588">
<ele>3.922747</ele>
<time>2026-07-17T08:56:44.000Z</time>
</trkpt>
<trkpt lat="57.586675" lon="10.114696">
<ele>3.841890</ele>
<time>2026-07-17T08:56:45.000Z</time>
</trkpt>
<trkpt lat="57.586691" lon="10.114824">
<ele>3.746633</ele>
<time>2026-07-17T08:56:46.000Z</time>
</trkpt>
<trkpt lat="57.586706" lon="10.114929">
<ele>3.667879</ele>
<time>2026-07-17T08:56:47.000Z</time>
</trkpt>
<trkpt lat="57.586717" lon="10.115029">
<ele>3.593894</ele>
<time>2026-07-17T08:56:48.000Z</time>
</trkpt>
<trkpt lat="57.586725" lon="10.115130">
<ele>3.519900</ele>
<time>2026-07-17T08:56:49.000Z</time>
</trkpt>
<trkpt lat="57.586740" lon="10.115232">
<ele>3.443244</ele>
<time>2026-07-17T08:56:50.000Z</time>
</trkpt>
<trkpt lat="57.586747" lon="10.115327">
<ele>3.373746</ele>
<time>2026-07-17T08:56:51.000Z</time>
</trkpt>
<trkpt lat="57.586755" lon="10.115423">
<ele>3.303335</ele>
<time>2026-07-17T08:56:52.000Z</time>
</trkpt>
<trkpt lat="57.586762" lon="10.115529">
<ele>3.225931</ele>
<time>2026-07-17T08:56:53.000Z</time>
</trkpt>
<trkpt lat="57.586770" lon="10.115649">
<ele>3.138292</ele>
<time>2026-07-17T08:56:54.000Z</time>
</trkpt>
<trkpt lat="57.586782" lon="10.115757">
<ele>3.058356</ele>
<time>2026-07-17T08:56:55.000Z</time>
</trkpt>
<trkpt lat="57.586798" lon="10.115856">
<ele>2.983416</ele>
<time>2026-07-17T08:56:56.000Z</time>
</trkpt>
<trkpt lat="57.586817" lon="10.115960">
<ele>2.903785</ele>
<time>2026-07-17T08:56:57.000Z</time>
</trkpt>
<trkpt lat="57.586831" lon="10.116073">
<ele>2.819730</ele>
<time>2026-07-17T08:56:58.000Z</time>
</trkpt>
<trkpt lat="57.586843" lon="10.116191">
<ele>2.732685</ele>
<time>2026-07-17T08:56:59.000Z</time>
</trkpt>
<trkpt lat="57.586854" lon="10.116303">
<ele>2.650162</ele>
<time>2026-07-17T08:57:00.000Z</time>
</trkpt>
<trkpt lat="57.586867" lon="10.116409">
<ele>2.571354</ele>
<time>2026-07-17T08:57:01.000Z</time>
</trkpt>
<trkpt lat="57.586885" lon="10.116517">
<ele>2.489386</ele>
<time>2026-07-17T08:57:02.000Z</time>
</trkpt>
<trkpt lat="57.586896" lon="10.116630">
<ele>2.406151</ele>
<time>2026-07-17T08:57:03.000Z</time>
</trkpt>
<trkpt lat="57.586909" lon="10.116761">
<ele>2.379739</ele>
<time>2026-07-17T08:57:04.000Z</time>
</trkpt>
<trkpt lat="57.586928" lon="10.116873">
<ele>2.365092</ele>
<time>2026-07-17T08:57:05.000Z</time>
</trkpt>
<trkpt lat="57.586952" lon="10.116977">
<ele>2.350975</ele>
<time>2026-07-17T08:57:06.000Z</time>
</trkpt>
<trkpt lat="57.586978" lon="10.117071">
<ele>2.337787</ele>
<time>2026-07-17T08:57:07.000Z</time>
</trkpt>
<trkpt lat="57.587006" lon="10.117169">
<ele>2.323942</ele>
<time>2026-07-17T08:57:08.000Z</time>
</trkpt>
<trkpt lat="57.587040" lon="10.117269">
<ele>2.309177</ele>
<time>2026-07-17T08:57:09.000Z</time>
</trkpt>
<trkpt lat="57.587074" lon="10.117363">
<ele>2.295039</ele>
<time>2026-07-17T08:57:10.000Z</time>
</trkpt>
<trkpt lat="57.587104" lon="10.117459">
<ele>2.281184</ele>
<time>2026-07-17T08:57:11.000Z</time>
</trkpt>
<trkpt lat="57.587127" lon="10.117558">
<ele>2.267732</ele>
<time>2026-07-17T08:57:12.000Z</time>
</trkpt>
<trkpt lat="57.587150" lon="10.117663">
<ele>2.253590</ele>
<time>2026-07-17T08:57:13.000Z</time>
</trkpt>
<trkpt lat="57.587172" lon="10.117760">
<ele>2.240458</ele>
<time>2026-07-17T08:57:14.000Z</time>
</trkpt>
<trkpt lat="57.587195" lon="10.117856">
<ele>2.227348</ele>
<time>2026-07-17T08:57:15.000Z</time>
</trkpt>
<trkpt lat="57.587214" lon="10.117953">
<ele>2.214472</ele>
<time>2026-07-17T08:57:16.000Z</time>
</trkpt>
<trkpt lat="57.587231" lon="10.118052">
<ele>2.201511</ele>
<time>2026-07-17T08:57:17.000Z</time>
</trkpt>
<trkpt lat="57.587235" lon="10.118166">
<ele>2.187268</ele>
<time>2026-07-17T08:57:18.000Z</time>
</trkpt>
<trkpt lat="57.587244" lon="10.118279">
<ele>2.173025</ele>
<time>2026-07-17T08:57:19.000Z</time>
</trkpt>
<trkpt lat="57.587259" lon="10.118370">
<ele>2.161155</ele>
<time>2026-07-17T08:57:20.000Z</time>
</trkpt>
<trkpt lat="57.587275" lon="10.118473">
<ele>2.147785</ele>
<time>2026-07-17T08:57:21.000Z</time>
</trkpt>
<trkpt lat="57.587290" lon="10.118577">
<ele>2.134357</ele>
<time>2026-07-17T08:57:22.000Z</time>
</trkpt>
<trkpt lat="57.587305" lon="10.118683">
<ele>2.120689</ele>
<time>2026-07-17T08:57:23.000Z</time>
</trkpt>
<trkpt lat="57.587321" lon="10.118782">
<ele>2.107797</ele>
<time>2026-07-17T08:57:24.000Z</time>
</trkpt>
<trkpt lat="57.587339" lon="10.118894">
<ele>2.093219</ele>
<time>2026-07-17T08:57:25.000Z</time>
</trkpt>
<trkpt lat="57.587349" lon="10.119003">
<ele>2.079432</ele>
<time>2026-07-17T08:57:26.000Z</time>
</trkpt>
<trkpt lat="57.587351" lon="10.119137">
<ele>2.062719</ele>
<time>2026-07-17T08:57:27.000Z</time>
</trkpt>
<trkpt lat="57.587336" lon="10.119299">
<ele>2.042222</ele>
<time>2026-07-17T08:57:28.000Z</time>
</trkpt>
<trkpt lat="57.587322" lon="10.119458">
<ele>2.022133</ele>
<time>2026-07-17T08:57:29.000Z</time>
</trkpt>
<trkpt lat="57.587318" lon="10.119588">
<ele>2.005898</ele>
<time>2026-07-17T08:57:30.000Z</time>
</trkpt>
<trkpt lat="57.587315" lon="10.119713">
<ele>1.990298</ele>
<time>2026-07-17T08:57:31.000Z</time>
</trkpt>
<trkpt lat="57.587319" lon="10.119829">
<ele>1.976056</ele>
<time>2026-07-17T08:57:32.000Z</time>
</trkpt>
<trkpt lat="57.587327" lon="10.119944">
<ele>1.986604</ele>
<time>2026-07-17T08:57:33.000Z</time>
</trkpt>
<trkpt lat="57.587331" lon="10.120051">
<ele>1.996360</ele>
<time>2026-07-17T08:57:34.000Z</time>
</trkpt>
<trkpt lat="57.587338" lon="10.120149">
<ele>2.005353</ele>
<time>2026-07-17T08:57:35.000Z</time>
</trkpt>
<trkpt lat="57.587346" lon="10.120240">
<ele>2.013741</ele>
<time>2026-07-17T08:57:36.000Z</time>
</trkpt>
<trkpt lat="57.587357" lon="10.120348">
<ele>2.023740</ele>
<time>2026-07-17T08:57:37.000Z</time>
</trkpt>
<trkpt lat="57.587361" lon="10.120451">
<ele>2.033133</ele>
<time>2026-07-17T08:57:38.000Z</time>
</trkpt>
<trkpt lat="57.587368" lon="10.120551">
<ele>2.042306</ele>
<time>2026-07-17T08:57:39.000Z</time>
</trkpt>
<trkpt lat="57.587369" lon="10.120651">
<ele>2.051404</ele>
<time>2026-07-17T08:57:40.000Z</time>
</trkpt>
<trkpt lat="57.587376" lon="10.120748">
<ele>2.060306</ele>
<time>2026-07-17T08:57:41.000Z</time>
</trkpt>
<trkpt lat="57.587385" lon="10.120841">
<ele>2.068902</ele>
<time>2026-07-17T08:57:42.000Z</time>
</trkpt>
<trkpt lat="57.587395" lon="10.120943">
<ele>2.078334</ele>
<time>2026-07-17T08:57:43.000Z</time>
</trkpt>
<trkpt lat="57.587399" lon="10.121046">
<ele>2.087727</ele>
<time>2026-07-17T08:57:44.000Z</time>
</trkpt>
<trkpt lat="57.587406" lon="10.121137">
<ele>2.096089</ele>
<time>2026-07-17T08:57:45.000Z</time>
</trkpt>
<trkpt lat="57.587407" lon="10.121217">
<ele>2.103367</ele>
<time>2026-07-17T08:57:46.000Z</time>
</trkpt>
<trkpt lat="57.587411" lon="10.121305">
<ele>2.111400</ele>
<time>2026-07-17T08:57:47.000Z</time>
</trkpt>
<trkpt lat="57.587418" lon="10.121393">
<ele>2.119492</ele>
<time>2026-07-17T08:57:48.000Z</time>
</trkpt>
<trkpt lat="57.587418" lon="10.121488">
<ele>2.128133</ele>
<time>2026-07-17T08:57:49.000Z</time>
</trkpt>
<trkpt lat="57.587418" lon="10.121589">
<ele>2.137320</ele>
<time>2026-07-17T08:57:50.000Z</time>
</trkpt>
<trkpt lat="57.587422" lon="10.121690">
<ele>2.146532</ele>
<time>2026-07-17T08:57:51.000Z</time>
</trkpt>
<trkpt lat="57.587426" lon="10.121785">
<ele>2.155199</ele>
<time>2026-07-17T08:57:52.000Z</time>
</trkpt>
<trkpt lat="57.587432" lon="10.121891">
<ele>2.164894</ele>
<time>2026-07-17T08:57:53.000Z</time>
</trkpt>
<trkpt lat="57.587429" lon="10.122017">
<ele>2.176366</ele>
<time>2026-07-17T08:57:54.000Z</time>
</trkpt>
<trkpt lat="57.587425" lon="10.122143">
<ele>2.187847</ele>
<time>2026-07-17T08:57:55.000Z</time>
</trkpt>
<trkpt lat="57.587420" lon="10.122254">
<ele>2.197979</ele>
<time>2026-07-17T08:57:56.000Z</time>
</trkpt>
<trkpt lat="57.587413" lon="10.122371">
<ele>2.208687</ele>
<time>2026-07-17T08:57:57.000Z</time>
</trkpt>
<trkpt lat="57.587410" lon="10.122489">
<ele>2.219432</ele>
<time>2026-07-17T08:57:58.000Z</time>
</trkpt>
<trkpt lat="57.587410" lon="10.122606">
<ele>2.230074</ele>
<time>2026-07-17T08:57:59.000Z</time>
</trkpt>
<trkpt lat="57.587410" lon="10.122718">
<ele>2.240262</ele>
<time>2026-07-17T08:58:00.000Z</time>
</trkpt>
<trkpt lat="57.587414" lon="10.122825">
<ele>2.250018</ele>
<time>2026-07-17T08:58:01.000Z</time>
</trkpt>
<trkpt lat="57.587414" lon="10.122938">
<ele>2.260296</ele>
<time>2026-07-17T08:58:02.000Z</time>
</trkpt>
<trkpt lat="57.587414" lon="10.123048">
<ele>2.270301</ele>
<time>2026-07-17T08:58:03.000Z</time>
</trkpt>
<trkpt lat="57.587418" lon="10.123152">
<ele>2.279785</ele>
<time>2026-07-17T08:58:04.000Z</time>
</trkpt>
<trkpt lat="57.587421" lon="10.123245">
<ele>2.267076</ele>
<time>2026-07-17T08:58:05.000Z</time>
</trkpt>
<trkpt lat="57.587418" lon="10.123342">
<ele>2.249512</ele>
<time>2026-07-17T08:58:06.000Z</time>
</trkpt>
<trkpt lat="57.587418" lon="10.123437">
<ele>2.232339</ele>
<time>2026-07-17T08:58:07.000Z</time>
</trkpt>
<trkpt lat="57.587418" lon="10.123535">
<ele>2.214623</ele>
<time>2026-07-17T08:58:08.000Z</time>
</trkpt>
<trkpt lat="57.587418" lon="10.123632">
<ele>2.197089</ele>
<time>2026-07-17T08:58:09.000Z</time>
</trkpt>
<trkpt lat="57.587418" lon="10.123739">
<ele>2.177746</ele>
<time>2026-07-17T08:58:10.000Z</time>
</trkpt>
<trkpt lat="57.587421" lon="10.123847">
<ele>2.158197</ele>
<time>2026-07-17T08:58:11.000Z</time>
</trkpt>
<trkpt lat="57.587421" lon="10.123954">
<ele>2.138855</ele>
<time>2026-07-17T08:58:12.000Z</time>
</trkpt>
<trkpt lat="57.587417" lon="10.124067">
<ele>2.118383</ele>
<time>2026-07-17T08:58:13.000Z</time>
</trkpt>
<trkpt lat="57.587414" lon="10.124172">
<ele>2.099376</ele>
<time>2026-07-17T08:58:14.000Z</time>
</trkpt>
<trkpt lat="57.587414" lon="10.124272">
<ele>2.081299</ele>
<time>2026-07-17T08:58:15.000Z</time>
</trkpt>
<trkpt lat="57.587414" lon="10.124368">
<ele>2.063945</ele>
<time>2026-07-17T08:58:16.000Z</time>
</trkpt>
<trkpt lat="57.587418" lon="10.124468">
<ele>2.045818</ele>
<time>2026-07-17T08:58:17.000Z</time>
</trkpt>
<trkpt lat="57.587422" lon="10.124572">
<ele>2.026969</ele>
<time>2026-07-17T08:58:18.000Z</time>
</trkpt>
<trkpt lat="57.587426" lon="10.124681">
<ele>2.007219</ele>
<time>2026-07-17T08:58:19.000Z</time>
</trkpt>
<trkpt lat="57.587434" lon="10.124787">
<ele>1.987869</ele>
<time>2026-07-17T08:58:20.000Z</time>
</trkpt>
<trkpt lat="57.587442" lon="10.124898">
<ele>1.967623</ele>
<time>2026-07-17T08:58:21.000Z</time>
</trkpt>
<trkpt lat="57.587453" lon="10.125007">
<ele>1.947573</ele>
<time>2026-07-17T08:58:22.000Z</time>
</trkpt>
<trkpt lat="57.587461" lon="10.125113">
<ele>1.928222</ele>
<time>2026-07-17T08:58:23.000Z</time>
</trkpt>
<trkpt lat="57.587472" lon="10.125221">
<ele>1.908350</ele>
<time>2026-07-17T08:58:24.000Z</time>
</trkpt>
<trkpt lat="57.587480" lon="10.125327">
<ele>1.888999</ele>
<time>2026-07-17T08:58:25.000Z</time>
</trkpt>
<trkpt lat="57.587491" lon="10.125431">
<ele>1.869837</ele>
<time>2026-07-17T08:58:26.000Z</time>
</trkpt>
<trkpt lat="57.587503" lon="10.125532">
<ele>1.851136</ele>
<time>2026-07-17T08:58:27.000Z</time>
</trkpt>
<trkpt lat="57.587515" lon="10.125633">
<ele>1.832435</ele>
<time>2026-07-17T08:58:28.000Z</time>
</trkpt>
<trkpt lat="57.587530" lon="10.125737">
<ele>1.812966</ele>
<time>2026-07-17T08:58:29.000Z</time>
</trkpt>
<trkpt lat="57.587541" lon="10.125841">
<ele>1.793804</ele>
<time>2026-07-17T08:58:30.000Z</time>
</trkpt>
<trkpt lat="57.587553" lon="10.125946">
<ele>1.774396</ele>
<time>2026-07-17T08:58:31.000Z</time>
</trkpt>
<trkpt lat="57.587564" lon="10.126046">
<ele>1.755943</ele>
<time>2026-07-17T08:58:32.000Z</time>
</trkpt>
<trkpt lat="57.587579" lon="10.126147">
<ele>1.736997</ele>
<time>2026-07-17T08:58:33.000Z</time>
</trkpt>
<trkpt lat="57.587590" lon="10.126245">
<ele>1.718898</ele>
<time>2026-07-17T08:58:34.000Z</time>
</trkpt>
<trkpt lat="57.587598" lon="10.126343">
<ele>1.700978</ele>
<time>2026-07-17T08:58:35.000Z</time>
</trkpt>
<trkpt lat="57.587610" lon="10.126440">
<ele>1.682983</ele>
<time>2026-07-17T08:58:36.000Z</time>
</trkpt>
<trkpt lat="57.587620" lon="10.126535">
<ele>1.651495</ele>
<time>2026-07-17T08:58:37.000Z</time>
</trkpt>
<trkpt lat="57.587625" lon="10.126631">
<ele>1.607252</ele>
<time>2026-07-17T08:58:38.000Z</time>
</trkpt>
<trkpt lat="57.587633" lon="10.126728">
<ele>1.562234</ele>
<time>2026-07-17T08:58:39.000Z</time>
</trkpt>
<trkpt lat="57.587644" lon="10.126826">
<ele>1.516305</ele>
<time>2026-07-17T08:58:40.000Z</time>
</trkpt>
<trkpt lat="57.587653" lon="10.126931">
<ele>1.467529</ele>
<time>2026-07-17T08:58:41.000Z</time>
</trkpt>
<trkpt lat="57.587663" lon="10.127037">
<ele>1.418159</ele>
<time>2026-07-17T08:58:42.000Z</time>
</trkpt>
<trkpt lat="57.587674" lon="10.127147">
<ele>1.366831</ele>
<time>2026-07-17T08:58:43.000Z</time>
</trkpt>
<trkpt lat="57.587682" lon="10.127261">
<ele>1.314092</ele>
<time>2026-07-17T08:58:44.000Z</time>
</trkpt>
<trkpt lat="57.587694" lon="10.127375">
<ele>1.260801</ele>
<time>2026-07-17T08:58:45.000Z</time>
</trkpt>
<trkpt lat="57.587706" lon="10.127495">
<ele>1.204806</ele>
<time>2026-07-17T08:58:46.000Z</time>
</trkpt>
<trkpt lat="57.587720" lon="10.127609">
<ele>1.151159</ele>
<time>2026-07-17T08:58:47.000Z</time>
</trkpt>
<trkpt lat="57.587732" lon="10.127722">
<ele>1.098318</ele>
<time>2026-07-17T08:58:48.000Z</time>
</trkpt>
<trkpt lat="57.587743" lon="10.127831">
<ele>1.047440</ele>
<time>2026-07-17T08:58:49.000Z</time>
</trkpt>
<trkpt lat="57.587750" lon="10.127942">
<ele>0.996173</ele>
<time>2026-07-17T08:58:50.000Z</time>
</trkpt>
<trkpt lat="57.587758" lon="10.128047">
<ele>0.947525</ele>
<time>2026-07-17T08:58:51.000Z</time>
</trkpt>
<trkpt lat="57.587770" lon="10.128154">
<ele>0.897380</ele>
<time>2026-07-17T08:58:52.000Z</time>
</trkpt>
<trkpt lat="57.587781" lon="10.128260">
<ele>0.847855</ele>
<time>2026-07-17T08:58:53.000Z</time>
</trkpt>
<trkpt lat="57.587792" lon="10.128368">
<ele>0.797428</ele>
<time>2026-07-17T08:58:54.000Z</time>
</trkpt>
<trkpt lat="57.587800" lon="10.128472">
<ele>0.749234</ele>
<time>2026-07-17T08:58:55.000Z</time>
</trkpt>
<trkpt lat="57.587811" lon="10.128578">
<ele>0.699709</ele>
<time>2026-07-17T08:58:56.000Z</time>
</trkpt>
<trkpt lat="57.587820" lon="10.128688">
<ele>0.648667</ele>
<time>2026-07-17T08:58:57.000Z</time>
</trkpt>
<trkpt lat="57.587834" lon="10.128795">
<ele>0.598144</ele>
<time>2026-07-17T08:58:58.000Z</time>
</trkpt>
<trkpt lat="57.587842" lon="10.128900">
<ele>0.549496</ele>
<time>2026-07-17T08:58:59.000Z</time>
</trkpt>
<trkpt lat="57.587854" lon="10.129005">
<ele>0.500250</ele>
<time>2026-07-17T08:59:00.000Z</time>
</trkpt>
<trkpt lat="57.587865" lon="10.129109">
<ele>0.451625</ele>
<time>2026-07-17T08:59:01.000Z</time>
</trkpt>
<trkpt lat="57.587873" lon="10.129220">
<ele>0.400250</ele>
<time>2026-07-17T08:59:02.000Z</time>
</trkpt>
<trkpt lat="57.587888" lon="10.129329">
<ele>0.348630</ele>
<time>2026-07-17T08:59:03.000Z</time>
</trkpt>
<trkpt lat="57.587896" lon="10.129441">
<ele>0.296801</ele>
<time>2026-07-17T08:59:04.000Z</time>
</trkpt>
<trkpt lat="57.587911" lon="10.129559">
<ele>0.241173</ele>
<time>2026-07-17T08:59:05.000Z</time>
</trkpt>
<trkpt lat="57.587923" lon="10.129673">
<ele>0.187882</ele>
<time>2026-07-17T08:59:06.000Z</time>
</trkpt>
<trkpt lat="57.587937" lon="10.129785">
<ele>0.135355</ele>
<time>2026-07-17T08:59:07.000Z</time>
</trkpt>
<trkpt lat="57.587949" lon="10.129901">
<ele>0.141189</ele>
<time>2026-07-17T08:59:08.000Z</time>
</trkpt>
<trkpt lat="57.587960" lon="10.130014">
<ele>0.146861</ele>
<time>2026-07-17T08:59:09.000Z</time>
</trkpt>
<trkpt lat="57.587968" lon="10.130122">
<ele>0.152245</ele>
<time>2026-07-17T08:59:10.000Z</time>
</trkpt>
<trkpt lat="57.587980" lon="10.130233">
<ele>0.157837</ele>
<time>2026-07-17T08:59:11.000Z</time>
</trkpt>
<trkpt lat="57.587991" lon="10.130342">
<ele>0.163315</ele>
<time>2026-07-17T08:59:12.000Z</time>
</trkpt>
<trkpt lat="57.587999" lon="10.130453">
<ele>0.168846</ele>
<time>2026-07-17T08:59:13.000Z</time>
</trkpt>
<trkpt lat="57.588011" lon="10.130561">
<ele>0.174293</ele>
<time>2026-07-17T08:59:14.000Z</time>
</trkpt>
<trkpt lat="57.588025" lon="10.130667">
<ele>0.179684</ele>
<time>2026-07-17T08:59:15.000Z</time>
</trkpt>
<trkpt lat="57.588037" lon="10.130775">
<ele>0.185131</ele>
<time>2026-07-17T08:59:16.000Z</time>
</trkpt>
<trkpt lat="57.588048" lon="10.130881">
<ele>0.190463</ele>
<time>2026-07-17T08:59:17.000Z</time>
</trkpt>
<trkpt lat="57.588060" lon="10.130985">
<ele>0.195717</ele>
<time>2026-07-17T08:59:18.000Z</time>
</trkpt>
<trkpt lat="57.588075" lon="10.131092">
<ele>0.201178</ele>
<time>2026-07-17T08:59:19.000Z</time>
</trkpt>
<trkpt lat="57.588087" lon="10.131197">
<ele>0.206480</ele>
<time>2026-07-17T08:59:20.000Z</time>
</trkpt>
<trkpt lat="57.588097" lon="10.131302">
<ele>0.211747</ele>
<time>2026-07-17T08:59:21.000Z</time>
</trkpt>
<trkpt lat="57.588105" lon="10.131405">
<ele>0.216887</ele>
<time>2026-07-17T08:59:22.000Z</time>
</trkpt>
<trkpt lat="57.588113" lon="10.131507">
<ele>0.221978</ele>
<time>2026-07-17T08:59:23.000Z</time>
</trkpt>
<trkpt lat="57.588124" lon="10.131614">
<ele>0.227358</ele>
<time>2026-07-17T08:59:24.000Z</time>
</trkpt>
<trkpt lat="57.588132" lon="10.131718">
<ele>0.232547</ele>
<time>2026-07-17T08:59:25.000Z</time>
</trkpt>
<trkpt lat="57.588140" lon="10.131821">
<ele>0.237686</ele>
<time>2026-07-17T08:59:26.000Z</time>
</trkpt>
<trkpt lat="57.588151" lon="10.131923">
<ele>0.242825</ele>
<time>2026-07-17T08:59:27.000Z</time>
</trkpt>
<trkpt lat="57.588163" lon="10.132027">
<ele>0.248078</ele>
<time>2026-07-17T08:59:28.000Z</time>
</trkpt>
<trkpt lat="57.588174" lon="10.132132">
<ele>0.253362</ele>
<time>2026-07-17T08:59:29.000Z</time>
</trkpt>
<trkpt lat="57.588185" lon="10.132236">
<ele>0.258597</ele>
<time>2026-07-17T08:59:30.000Z</time>
</trkpt>
<trkpt lat="57.588193" lon="10.132344">
<ele>0.263981</ele>
<time>2026-07-17T08:59:31.000Z</time>
</trkpt>
<trkpt lat="57.588204" lon="10.132450">
<ele>0.269313</ele>
<time>2026-07-17T08:59:32.000Z</time>
</trkpt>
<trkpt lat="57.588212" lon="10.132558">
<ele>0.274697</ele>
<time>2026-07-17T08:59:33.000Z</time>
</trkpt>
<trkpt lat="57.588223" lon="10.132660">
<ele>0.279835</ele>
<time>2026-07-17T08:59:34.000Z</time>
</trkpt>
<trkpt lat="57.588231" lon="10.132765">
<ele>0.285073</ele>
<time>2026-07-17T08:59:35.000Z</time>
</trkpt>
<trkpt lat="57.588242" lon="10.132863">
<ele>0.290017</ele>
<time>2026-07-17T08:59:36.000Z</time>
</trkpt>
<trkpt lat="57.588254" lon="10.132973">
<ele>0.295561</ele>
<time>2026-07-17T08:59:37.000Z</time>
</trkpt>
<trkpt lat="57.588262" lon="10.133076">
<ele>0.300701</ele>
<time>2026-07-17T08:59:38.000Z</time>
</trkpt>
<trkpt lat="57.588273" lon="10.133186">
<ele>0.274097</ele>
<time>2026-07-17T08:59:39.000Z</time>
</trkpt>
<trkpt lat="57.588285" lon="10.133295">
<ele>0.245481</ele>
<time>2026-07-17T08:59:40.000Z</time>
</trkpt>
<trkpt lat="57.588296" lon="10.133407">
<ele>0.216199</ele>
<time>2026-07-17T08:59:41.000Z</time>
</trkpt>
<trkpt lat="57.588308" lon="10.133515">
<ele>0.187835</ele>
<time>2026-07-17T08:59:42.000Z</time>
</trkpt>
<trkpt lat="57.588323" lon="10.133624">
<ele>0.158895</ele>
<time>2026-07-17T08:59:43.000Z</time>
</trkpt>
<trkpt lat="57.588330" lon="10.133734">
<ele>0.130409</ele>
<time>2026-07-17T08:59:44.000Z</time>
</trkpt>
<trkpt lat="57.588334" lon="10.133843">
<ele>0.102312</ele>
<time>2026-07-17T08:59:45.000Z</time>
</trkpt>
<trkpt lat="57.588336" lon="10.133959">
<ele>0.072466</ele>
<time>2026-07-17T08:59:46.000Z</time>
</trkpt>
<trkpt lat="57.588332" lon="10.134070">
<ele>0.043856</ele>
<time>2026-07-17T08:59:47.000Z</time>
</trkpt>
<trkpt lat="57.588324" lon="10.134183">
<ele>0.014545</ele>
<time>2026-07-17T08:59:48.000Z</time>
</trkpt>
<trkpt lat="57.588313" lon="10.134299">
<ele>-0.015750</ele>
<time>2026-07-17T08:59:49.000Z</time>
</trkpt>
<trkpt lat="57.588301" lon="10.134411">
<ele>-0.045122</ele>
<time>2026-07-17T08:59:50.000Z</time>
</trkpt>
<trkpt lat="57.588286" lon="10.134523">
<ele>-0.074809</ele>
<time>2026-07-17T08:59:51.000Z</time>
</trkpt>
<trkpt lat="57.588278" lon="10.134631">
<ele>-0.102847</ele>
<time>2026-07-17T08:59:52.000Z</time>
</trkpt>
<trkpt lat="57.588268" lon="10.134736">
<ele>-0.130272</ele>
<time>2026-07-17T08:59:53.000Z</time>
</trkpt>
<trkpt lat="57.588256" lon="10.134850">
<ele>-0.160149</ele>
<time>2026-07-17T08:59:54.000Z</time>
</trkpt>
<trkpt lat="57.588245" lon="10.134957">
<ele>-0.188167</ele>
<time>2026-07-17T08:59:55.000Z</time>
</trkpt>
<trkpt lat="57.588234" lon="10.135069">
<ele>-0.217449</ele>
<time>2026-07-17T08:59:56.000Z</time>
</trkpt>
<trkpt lat="57.588229" lon="10.135180">
<ele>-0.246095</ele>
<time>2026-07-17T08:59:57.000Z</time>
</trkpt>
<trkpt lat="57.588218" lon="10.135289">
<ele>-0.274618</ele>
<time>2026-07-17T08:59:58.000Z</time>
</trkpt>
<trkpt lat="57.588214" lon="10.135400">
<ele>-0.303228</ele>
<time>2026-07-17T08:59:59.000Z</time>
</trkpt>
<trkpt lat="57.588207" lon="10.135513">
<ele>-0.332481</ele>
<time>2026-07-17T09:00:00.000Z</time>
</trkpt>
<trkpt lat="57.588203" lon="10.135624">
<ele>-0.361090</ele>
<time>2026-07-17T09:00:01.000Z</time>
</trkpt>
<trkpt lat="57.588199" lon="10.135734">
<ele>-0.389443</ele>
<time>2026-07-17T09:00:02.000Z</time>
</trkpt>
<trkpt lat="57.588195" lon="10.135842">
<ele>-0.417283</ele>
<time>2026-07-17T09:00:03.000Z</time>
</trkpt>
<trkpt lat="57.588192" lon="10.135954">
<ele>-0.446122</ele>
<time>2026-07-17T09:00:04.000Z</time>
</trkpt>
<trkpt lat="57.588188" lon="10.136063">
<ele>-0.474218</ele>
<time>2026-07-17T09:00:05.000Z</time>
</trkpt>
<trkpt lat="57.588184" lon="10.136173">
<ele>-0.502571</ele>
<time>2026-07-17T09:00:06.000Z</time>
</trkpt>
<trkpt lat="57.588184" lon="10.136282">
<ele>-0.530602</ele>
<time>2026-07-17T09:00:07.000Z</time>
</trkpt>
<trkpt lat="57.588185" lon="10.136386">
<ele>-0.557352</ele>
<time>2026-07-17T09:00:08.000Z</time>
</trkpt>
<trkpt lat="57.588193" lon="10.136485">
<ele>-0.574325</ele>
<time>2026-07-17T09:00:09.000Z</time>
</trkpt>
<trkpt lat="57.588205" lon="10.136583">
<ele>-0.589474</ele>
<time>2026-07-17T09:00:10.000Z</time>
</trkpt>
<trkpt lat="57.588217" lon="10.136677">
<ele>-0.604036</ele>
<time>2026-07-17T09:00:11.000Z</time>
</trkpt>
<trkpt lat="57.588236" lon="10.136771">
<ele>-0.619175</ele>
<time>2026-07-17T09:00:12.000Z</time>
</trkpt>
<trkpt lat="57.588256" lon="10.136863">
<ele>-0.634136</ele>
<time>2026-07-17T09:00:13.000Z</time>
</trkpt>
<trkpt lat="57.588282" lon="10.136956">
<ele>-0.649942</ele>
<time>2026-07-17T09:00:14.000Z</time>
</trkpt>
<trkpt lat="57.588305" lon="10.137048">
<ele>-0.665240</ele>
<time>2026-07-17T09:00:15.000Z</time>
</trkpt>
<trkpt lat="57.588332" lon="10.137142">
<ele>-0.681311</ele>
<time>2026-07-17T09:00:16.000Z</time>
</trkpt>
<trkpt lat="57.588360" lon="10.137235">
<ele>-0.697385</ele>
<time>2026-07-17T09:00:17.000Z</time>
</trkpt>
<trkpt lat="57.588390" lon="10.137325">
<ele>-0.713356</ele>
<time>2026-07-17T09:00:18.000Z</time>
</trkpt>
<trkpt lat="57.588415" lon="10.137412">
<ele>-0.728232</ele>
<time>2026-07-17T09:00:19.000Z</time>
</trkpt>
<trkpt lat="57.588443" lon="10.137506">
<ele>-0.744438</ele>
<time>2026-07-17T09:00:20.000Z</time>
</trkpt>
<trkpt lat="57.588469" lon="10.137595">
<ele>-0.759712</ele>
<time>2026-07-17T09:00:21.000Z</time>
</trkpt>
<trkpt lat="57.588493" lon="10.137686">
<ele>-0.774996</ele>
<time>2026-07-17T09:00:22.000Z</time>
</trkpt>
<trkpt lat="57.588519" lon="10.137777">
<ele>-0.790535</ele>
<time>2026-07-17T09:00:23.000Z</time>
</trkpt>
<trkpt lat="57.588542" lon="10.137873">
<ele>-0.806382</ele>
<time>2026-07-17T09:00:24.000Z</time>
</trkpt>
<trkpt lat="57.588568" lon="10.137971">
<ele>-0.822860</ele>
<time>2026-07-17T09:00:25.000Z</time>
</trkpt>
<trkpt lat="57.588596" lon="10.138078">
<ele>-0.840803</ele>
<time>2026-07-17T09:00:26.000Z</time>
</trkpt>
<trkpt lat="57.588623" lon="10.138177">
<ele>-0.857542</ele>
<time>2026-07-17T09:00:27.000Z</time>
</trkpt>
<trkpt lat="57.588649" lon="10.138272">
<ele>-0.873616</ele>
<time>2026-07-17T09:00:28.000Z</time>
</trkpt>
<trkpt lat="57.588675" lon="10.138364">
<ele>-0.889289</ele>
<time>2026-07-17T09:00:29.000Z</time>
</trkpt>
<trkpt lat="57.588699" lon="10.138453">
<ele>-0.904302</ele>
<time>2026-07-17T09:00:30.000Z</time>
</trkpt>
<trkpt lat="57.588725" lon="10.138540">
<ele>-0.919313</ele>
<time>2026-07-17T09:00:31.000Z</time>
</trkpt>
<trkpt lat="57.588748" lon="10.138629">
<ele>-0.934202</ele>
<time>2026-07-17T09:00:32.000Z</time>
</trkpt>
<trkpt lat="57.588774" lon="10.138717">
<ele>-0.949344</ele>
<time>2026-07-17T09:00:33.000Z</time>
</trkpt>
<trkpt lat="57.588797" lon="10.138806">
<ele>-0.964233</ele>
<time>2026-07-17T09:00:34.000Z</time>
</trkpt>
<trkpt lat="57.588820" lon="10.138894">
<ele>-0.978987</ele>
<time>2026-07-17T09:00:35.000Z</time>
</trkpt>
<trkpt lat="57.588848" lon="10.138981">
<ele>-0.994279</ele>
<time>2026-07-17T09:00:36.000Z</time>
</trkpt>
<trkpt lat="57.588877" lon="10.139065">
<ele>-1.009336</ele>
<time>2026-07-17T09:00:37.000Z</time>
</trkpt>
<trkpt lat="57.588900" lon="10.139147">
<ele>-1.023282</ele>
<time>2026-07-17T09:00:38.000Z</time>
</trkpt>
<trkpt lat="57.588923" lon="10.139230">
<ele>-1.037362</ele>
<time>2026-07-17T09:00:39.000Z</time>
</trkpt>
<trkpt lat="57.588941" lon="10.139316">
<ele>-1.051275</ele>
<time>2026-07-17T09:00:40.000Z</time>
</trkpt>
<trkpt lat="57.588956" lon="10.139410">
<ele>-1.066055</ele>
<time>2026-07-17T09:00:41.000Z</time>
</trkpt>
<trkpt lat="57.588967" lon="10.139512">
<ele>-1.082325</ele>
<time>2026-07-17T09:00:42.000Z</time>
</trkpt>
<trkpt lat="57.588970" lon="10.139617">
<ele>-1.098833</ele>
<time>2026-07-17T09:00:43.000Z</time>
</trkpt>
<trkpt lat="57.588970" lon="10.139727">
<ele>-1.116103</ele>
<time>2026-07-17T09:00:44.000Z</time>
</trkpt>
<trkpt lat="57.588966" lon="10.139834">
<ele>-1.132943</ele>
<time>2026-07-17T09:00:45.000Z</time>
</trkpt>
<trkpt lat="57.588962" lon="10.139939">
<ele>-1.149469</ele>
<time>2026-07-17T09:00:46.000Z</time>
</trkpt>
<trkpt lat="57.588954" lon="10.140046">
<ele>-1.166431</ele>
<time>2026-07-17T09:00:47.000Z</time>
</trkpt>
<trkpt lat="57.588943" lon="10.140154">
<ele>-1.183690</ele>
<time>2026-07-17T09:00:48.000Z</time>
</trkpt>
<trkpt lat="57.588935" lon="10.140258">
<ele>-1.200186</ele>
<time>2026-07-17T09:00:49.000Z</time>
</trkpt>
<trkpt lat="57.588927" lon="10.140359">
<ele>-1.216215</ele>
<time>2026-07-17T09:00:50.000Z</time>
</trkpt>
<trkpt lat="57.588920" lon="10.140455">
<ele>-1.231425</ele>
<time>2026-07-17T09:00:51.000Z</time>
</trkpt>
<trkpt lat="57.588915" lon="10.140550">
<ele>-1.246412</ele>
<time>2026-07-17T09:00:52.000Z</time>
</trkpt>
<trkpt lat="57.588904" lon="10.140640">
<ele>-1.260905</ele>
<time>2026-07-17T09:00:53.000Z</time>
</trkpt>
<trkpt lat="57.588893" lon="10.140728">
<ele>-1.275091</ele>
<time>2026-07-17T09:00:54.000Z</time>
</trkpt>
<trkpt lat="57.588886" lon="10.140813">
<ele>-1.288593</ele>
<time>2026-07-17T09:00:55.000Z</time>
</trkpt>
<trkpt lat="57.588874" lon="10.140900">
<ele>-1.302697</ele>
<time>2026-07-17T09:00:56.000Z</time>
</trkpt>
<trkpt lat="57.588862" lon="10.140993">
<ele>-1.317715</ele>
<time>2026-07-17T09:00:57.000Z</time>
</trkpt>
<trkpt lat="57.588847" lon="10.141078">
<ele>-1.331765</ele>
<time>2026-07-17T09:00:58.000Z</time>
</trkpt>
<trkpt lat="57.588835" lon="10.141161">
<ele>-1.345261</ele>
<time>2026-07-17T09:00:59.000Z</time>
</trkpt>
<trkpt lat="57.588820" lon="10.141239">
<ele>-1.358272</ele>
<time>2026-07-17T09:01:00.000Z</time>
</trkpt>
<trkpt lat="57.588804" lon="10.141319">
<ele>-1.371678</ele>
<time>2026-07-17T09:01:01.000Z</time>
</trkpt>
<trkpt lat="57.588790" lon="10.141392">
<ele>-1.383850</ele>
<time>2026-07-17T09:01:02.000Z</time>
</trkpt>
<trkpt lat="57.588778" lon="10.141460">
<ele>-1.395090</ele>
<time>2026-07-17T09:01:03.000Z</time>
</trkpt>
<trkpt lat="57.588767" lon="10.141515">
<ele>-1.404306</ele>
<time>2026-07-17T09:01:04.000Z</time>
</trkpt>
<trkpt lat="57.588760" lon="10.141564">
<ele>-1.412268</ele>
<time>2026-07-17T09:01:05.000Z</time>
</trkpt>
<trkpt lat="57.588752" lon="10.141610">
<ele>-1.419861</ele>
<time>2026-07-17T09:01:06.000Z</time>
</trkpt>
<trkpt lat="57.588740" lon="10.141655">
<ele>-1.427752</ele>
<time>2026-07-17T09:01:07.000Z</time>
</trkpt>
<trkpt lat="57.588733" lon="10.141696">
<ele>-1.434507</ele>
<time>2026-07-17T09:01:08.000Z</time>
</trkpt>
<trkpt lat="57.588725" lon="10.141742">
<ele>-1.442100</ele>
<time>2026-07-17T09:01:09.000Z</time>
</trkpt>
<trkpt lat="57.588713" lon="10.141786">
<ele>-1.449851</ele>
<time>2026-07-17T09:01:10.000Z</time>
</trkpt>
<trkpt lat="57.588702" lon="10.141824">
<ele>-1.456631</ele>
<time>2026-07-17T09:01:11.000Z</time>
</trkpt>
<trkpt lat="57.588690" lon="10.141854">
<ele>-1.462508</ele>
<time>2026-07-17T09:01:12.000Z</time>
</trkpt>
<trkpt lat="57.588675" lon="10.141878">
<ele>-1.468296</ele>
<time>2026-07-17T09:01:13.000Z</time>
</trkpt>
<trkpt lat="57.588664" lon="10.141900">
<ele>-1.473020</ele>
<time>2026-07-17T09:01:14.000Z</time>
</trkpt>
<trkpt lat="57.588652" lon="10.141930">
<ele>-1.478897</ele>
<time>2026-07-17T09:01:15.000Z</time>
</trkpt>
<trkpt lat="57.588636" lon="10.141966">
<ele>-1.486239</ele>
<time>2026-07-17T09:01:16.000Z</time>
</trkpt>
<trkpt lat="57.588617" lon="10.141999">
<ele>-1.493843</ele>
<time>2026-07-17T09:01:17.000Z</time>
</trkpt>
<trkpt lat="57.588602" lon="10.142027">
<ele>-1.500058</ele>
<time>2026-07-17T09:01:18.000Z</time>
</trkpt>
<trkpt lat="57.588583" lon="10.142058">
<ele>-1.507452</ele>
<time>2026-07-17T09:01:19.000Z</time>
</trkpt>
<trkpt lat="57.588569" lon="10.142086">
<ele>-1.513463</ele>
<time>2026-07-17T09:01:20.000Z</time>
</trkpt>
<trkpt lat="57.588556" lon="10.142115">
<ele>-1.519399</ele>
<time>2026-07-17T09:01:21.000Z</time>
</trkpt>
<trkpt lat="57.588541" lon="10.142143">
<ele>-1.525614</ele>
<time>2026-07-17T09:01:22.000Z</time>
</trkpt>
<trkpt lat="57.588527" lon="10.142167">
<ele>-1.531183</ele>
<time>2026-07-17T09:01:23.000Z</time>
</trkpt>
<trkpt lat="57.588515" lon="10.142190">
<ele>-1.536223</ele>
<time>2026-07-17T09:01:24.000Z</time>
</trkpt>
<trkpt lat="57.588504" lon="10.142210">
<ele>-1.540722</ele>
<time>2026-07-17T09:01:25.000Z</time>
</trkpt>
<trkpt lat="57.588497" lon="10.142226">
<ele>-1.543964</ele>
<time>2026-07-17T09:01:26.000Z</time>
</trkpt>
<trkpt lat="57.588497" lon="10.142252">
<ele>-1.548046</ele>
<time>2026-07-17T09:01:32.000Z</time>
</trkpt>
<trkpt lat="57.588527" lon="10.142289">
<ele>-1.558580</ele>
<time>2026-07-17T09:01:33.000Z</time>
</trkpt>
<trkpt lat="57.588550" lon="10.142331">
<ele>-1.568007</ele>
<time>2026-07-17T09:01:34.000Z</time>
</trkpt>
<trkpt lat="57.588576" lon="10.142381">
<ele>-1.578944</ele>
<time>2026-07-17T09:01:35.000Z</time>
</trkpt>
<trkpt lat="57.588599" lon="10.142427">
<ele>-1.588821</ele>
<time>2026-07-17T09:01:36.000Z</time>
</trkpt>
<trkpt lat="57.588622" lon="10.142468">
<ele>-1.595186</ele>
<time>2026-07-17T09:01:37.000Z</time>
</trkpt>
<trkpt lat="57.588640" lon="10.142506">
<ele>-1.596790</ele>
<time>2026-07-17T09:01:38.000Z</time>
</trkpt>
<trkpt lat="57.588655" lon="10.142540">
<ele>-1.598183</ele>
<time>2026-07-17T09:01:39.000Z</time>
</trkpt>
<trkpt lat="57.588670" lon="10.142567">
<ele>-1.599413</ele>
<time>2026-07-17T09:01:40.000Z</time>
</trkpt>
<trkpt lat="57.588676" lon="10.142586">
<ele>-1.600110</ele>
<time>2026-07-17T09:01:41.000Z</time>
</trkpt>
<trkpt lat="57.588676" lon="10.142594">
<ele>-1.600364</ele>
<time>2026-07-17T09:01:42.000Z</time>
</trkpt>
<trkpt lat="57.588676" lon="10.142595">
<ele>-1.600395</ele>
<time>2026-07-17T09:01:43.000Z</time>
</trkpt>
<trkpt lat="57.588709" lon="10.142628">
<ele>-1.602605</ele>
<time>2026-07-17T09:01:53.000Z</time>
</trkpt>
<trkpt lat="57.588729" lon="10.142658">
<ele>-1.604119</ele>
<time>2026-07-17T09:01:54.000Z</time>
</trkpt>
<trkpt lat="57.588752" lon="10.142696">
<ele>-1.605932</ele>
<time>2026-07-17T09:01:55.000Z</time>
</trkpt>
<trkpt lat="57.588774" lon="10.142738">
<ele>-1.607789</ele>
<time>2026-07-17T09:01:56.000Z</time>
</trkpt>
<trkpt lat="57.588802" lon="10.142787">
<ele>-1.610055</ele>
<time>2026-07-17T09:01:57.000Z</time>
</trkpt>
<trkpt lat="57.588828" lon="10.142840">
<ele>-1.612327</ele>
<time>2026-07-17T09:01:58.000Z</time>
</trkpt>
<trkpt lat="57.588855" lon="10.142895">
<ele>-1.614686</ele>
<time>2026-07-17T09:01:59.000Z</time>
</trkpt>
<trkpt lat="57.588882" lon="10.142953">
<ele>-1.617116</ele>
<time>2026-07-17T09:02:00.000Z</time>
</trkpt>
<trkpt lat="57.588907" lon="10.143008">
<ele>-1.619397</ele>
<time>2026-07-17T09:02:01.000Z</time>
</trkpt>
<trkpt lat="57.588930" lon="10.143057">
<ele>-1.621457</ele>
<time>2026-07-17T09:02:02.000Z</time>
</trkpt>
<trkpt lat="57.588945" lon="10.143093">
<ele>-1.622899</ele>
<time>2026-07-17T09:02:03.000Z</time>
</trkpt>
<trkpt lat="57.588955" lon="10.143119">
<ele>-1.623911</ele>
<time>2026-07-17T09:02:04.000Z</time>
</trkpt>
<trkpt lat="57.588958" lon="10.143134">
<ele>-1.624418</ele>
<time>2026-07-17T09:02:05.000Z</time>
</trkpt>
<trkpt lat="57.588955" lon="10.143138">
<ele>-1.624635</ele>
<time>2026-07-17T09:02:06.000Z</time>
</trkpt>
<trkpt lat="57.588955" lon="10.143142">
<ele>-1.624762</ele>
<time>2026-07-17T09:02:07.000Z</time>
</trkpt>
<trkpt lat="57.588956" lon="10.143145">
<ele>-1.624874</ele>
<time>2026-07-17T09:02:50.000Z</time>
</trkpt>
<trkpt lat="57.588964" lon="10.143174">
<ele>-1.625905</ele>
<time>2026-07-17T09:02:51.000Z</time>
</trkpt>
<trkpt lat="57.588976" lon="10.143202">
<ele>-1.627039</ele>
<time>2026-07-17T09:02:52.000Z</time>
</trkpt>
<trkpt lat="57.588991" lon="10.143232">
<ele>-1.628337</ele>
<time>2026-07-17T09:02:53.000Z</time>
</trkpt>
<trkpt lat="57.589010" lon="10.143267">
<ele>-1.629912</ele>
<time>2026-07-17T09:02:54.000Z</time>
</trkpt>
<trkpt lat="57.589030" lon="10.143309">
<ele>-1.631689</ele>
<time>2026-07-17T09:02:55.000Z</time>
</trkpt>
<trkpt lat="57.589049" lon="10.143357">
<ele>-1.633577</ele>
<time>2026-07-17T09:02:56.000Z</time>
</trkpt>
<trkpt lat="57.589068" lon="10.143405">
<ele>-1.635464</ele>
<time>2026-07-17T09:02:57.000Z</time>
</trkpt>
<trkpt lat="57.589086" lon="10.143449">
<ele>-1.637215</ele>
<time>2026-07-17T09:02:58.000Z</time>
</trkpt>
<trkpt lat="57.589102" lon="10.143495">
<ele>-1.638949</ele>
<time>2026-07-17T09:02:59.000Z</time>
</trkpt>
<trkpt lat="57.589121" lon="10.143542">
<ele>-1.640811</ele>
<time>2026-07-17T09:03:00.000Z</time>
</trkpt>
<trkpt lat="57.589145" lon="10.143595">
<ele>-1.643006</ele>
<time>2026-07-17T09:03:01.000Z</time>
</trkpt>
<trkpt lat="57.589167" lon="10.143648">
<ele>-1.645126</ele>
<time>2026-07-17T09:03:02.000Z</time>
</trkpt>
<trkpt lat="57.589191" lon="10.143701">
<ele>-1.647320</ele>
<time>2026-07-17T09:03:03.000Z</time>
</trkpt>
<trkpt lat="57.589216" lon="10.143751">
<ele>-1.649483</ele>
<time>2026-07-17T09:03:04.000Z</time>
</trkpt>
<trkpt lat="57.589241" lon="10.143805">
<ele>-1.651740</ele>
<time>2026-07-17T09:03:05.000Z</time>
</trkpt>
<trkpt lat="57.589271" lon="10.143860">
<ele>-1.654222</ele>
<time>2026-07-17T09:03:06.000Z</time>
</trkpt>
<trkpt lat="57.589297" lon="10.143915">
<ele>-1.656541</ele>
<time>2026-07-17T09:03:07.000Z</time>
</trkpt>
<trkpt lat="57.589324" lon="10.143968">
<ele>-1.658854</ele>
<time>2026-07-17T09:03:08.000Z</time>
</trkpt>
<trkpt lat="57.589355" lon="10.144023">
<ele>-1.661378</ele>
<time>2026-07-17T09:03:09.000Z</time>
</trkpt>
<trkpt lat="57.589381" lon="10.144079">
<ele>-1.663722</ele>
<time>2026-07-17T09:03:10.000Z</time>
</trkpt>
<trkpt lat="57.589413" lon="10.144141">
<ele>-1.666444</ele>
<time>2026-07-17T09:03:11.000Z</time>
</trkpt>
<trkpt lat="57.589443" lon="10.144199">
<ele>-1.668993</ele>
<time>2026-07-17T09:03:12.000Z</time>
</trkpt>
<trkpt lat="57.589477" lon="10.144261">
<ele>-1.671799</ele>
<time>2026-07-17T09:03:13.000Z</time>
</trkpt>
<trkpt lat="57.589508" lon="10.144322">
<ele>-1.674458</ele>
<time>2026-07-17T09:03:14.000Z</time>
</trkpt>
<trkpt lat="57.589538" lon="10.144381">
<ele>-1.677030</ele>
<time>2026-07-17T09:03:15.000Z</time>
</trkpt>
<trkpt lat="57.589569" lon="10.144439">
<ele>-1.679621</ele>
<time>2026-07-17T09:03:16.000Z</time>
</trkpt>
<trkpt lat="57.589599" lon="10.144497">
<ele>-1.682170</ele>
<time>2026-07-17T09:03:17.000Z</time>
</trkpt>
<trkpt lat="57.589630" lon="10.144558">
<ele>-1.684829</ele>
<time>2026-07-17T09:03:18.000Z</time>
</trkpt>
<trkpt lat="57.589660" lon="10.144618">
<ele>-1.687424</ele>
<time>2026-07-17T09:03:19.000Z</time>
</trkpt>
<trkpt lat="57.589690" lon="10.144678">
<ele>-1.690019</ele>
<time>2026-07-17T09:03:20.000Z</time>
</trkpt>
<trkpt lat="57.589716" lon="10.144731">
<ele>-1.692292</ele>
<time>2026-07-17T09:03:21.000Z</time>
</trkpt>
<trkpt lat="57.589747" lon="10.144788">
<ele>-1.694860</ele>
<time>2026-07-17T09:03:22.000Z</time>
</trkpt>
<trkpt lat="57.589774" lon="10.144844">
<ele>-1.697242</ele>
<time>2026-07-17T09:03:23.000Z</time>
</trkpt>
<trkpt lat="57.589797" lon="10.144902">
<ele>-1.699524</ele>
<time>2026-07-17T09:03:24.000Z</time>
</trkpt>
<trkpt lat="57.589820" lon="10.144964">
<ele>-1.694009</ele>
<time>2026-07-17T09:03:25.000Z</time>
</trkpt>
<trkpt lat="57.589847" lon="10.145026">
<ele>-1.681517</ele>
<time>2026-07-17T09:03:26.000Z</time>
</trkpt>
<trkpt lat="57.589873" lon="10.145088">
<ele>-1.669207</ele>
<time>2026-07-17T09:03:27.000Z</time>
</trkpt>
<trkpt lat="57.589896" lon="10.145152">
<ele>-1.657158</ele>
<time>2026-07-17T09:03:28.000Z</time>
</trkpt>
<trkpt lat="57.589918" lon="10.145219">
<ele>-1.644871</ele>
<time>2026-07-17T09:03:29.000Z</time>
</trkpt>
<trkpt lat="57.589933" lon="10.145289">
<ele>-1.633083</ele>
<time>2026-07-17T09:03:30.000Z</time>
</trkpt>
<trkpt lat="57.589944" lon="10.145366">
<ele>-1.620622</ele>
<time>2026-07-17T09:03:31.000Z</time>
</trkpt>
<trkpt lat="57.589951" lon="10.145438">
<ele>-1.609179</ele>
<time>2026-07-17T09:03:32.000Z</time>
</trkpt>
<trkpt lat="57.589959" lon="10.145521">
<ele>-1.595992</ele>
<time>2026-07-17T09:03:33.000Z</time>
</trkpt>
<trkpt lat="57.589967" lon="10.145603">
<ele>-1.582959</ele>
<time>2026-07-17T09:03:34.000Z</time>
</trkpt>
<trkpt lat="57.589975" lon="10.145686">
<ele>-1.569772</ele>
<time>2026-07-17T09:03:35.000Z</time>
</trkpt>
<trkpt lat="57.589985" lon="10.145766">
<ele>-1.556927</ele>
<time>2026-07-17T09:03:36.000Z</time>
</trkpt>
<trkpt lat="57.589994" lon="10.145852">
<ele>-1.543225</ele>
<time>2026-07-17T09:03:37.000Z</time>
</trkpt>
<trkpt lat="57.590005" lon="10.145933">
<ele>-1.530159</ele>
<time>2026-07-17T09:03:38.000Z</time>
</trkpt>
<trkpt lat="57.590017" lon="10.146013">
<ele>-1.517168</ele>
<time>2026-07-17T09:03:39.000Z</time>
</trkpt>
<trkpt lat="57.590029" lon="10.146091">
<ele>-1.504479</ele>
<time>2026-07-17T09:03:40.000Z</time>
</trkpt>
<trkpt lat="57.590043" lon="10.146163">
<ele>-1.492502</ele>
<time>2026-07-17T09:03:41.000Z</time>
</trkpt>
<trkpt lat="57.590055" lon="10.146247">
<ele>-1.478908</ele>
<time>2026-07-17T09:03:42.000Z</time>
</trkpt>
<trkpt lat="57.590066" lon="10.146327">
<ele>-1.465994</ele>
<time>2026-07-17T09:03:43.000Z</time>
</trkpt>
<trkpt lat="57.590078" lon="10.146406">
<ele>-1.453154</ele>
<time>2026-07-17T09:03:44.000Z</time>
</trkpt>
<trkpt lat="57.590089" lon="10.146485">
<ele>-1.440390</ele>
<time>2026-07-17T09:03:45.000Z</time>
</trkpt>
<trkpt lat="57.590101" lon="10.146561">
<ele>-1.428001</ele>
<time>2026-07-17T09:03:46.000Z</time>
</trkpt>
<trkpt lat="57.590112" lon="10.146639">
<ele>-1.415389</ele>
<time>2026-07-17T09:03:47.000Z</time>
</trkpt>
<trkpt lat="57.590124" lon="10.146713">
<ele>-1.403300</ele>
<time>2026-07-17T09:03:48.000Z</time>
</trkpt>
<trkpt lat="57.590139" lon="10.146788">
<ele>-1.390782</ele>
<time>2026-07-17T09:03:49.000Z</time>
</trkpt>
<trkpt lat="57.590150" lon="10.146860">
<ele>-1.379075</ele>
<time>2026-07-17T09:03:50.000Z</time>
</trkpt>
<trkpt lat="57.590157" lon="10.146928">
<ele>-1.368247</ele>
<time>2026-07-17T09:03:51.000Z</time>
</trkpt>
<trkpt lat="57.590168" lon="10.147002">
<ele>-1.356239</ele>
<time>2026-07-17T09:03:52.000Z</time>
</trkpt>
<trkpt lat="57.590171" lon="10.147071">
<ele>-1.345414</ele>
<time>2026-07-17T09:03:53.000Z</time>
</trkpt>
<trkpt lat="57.590167" lon="10.147136">
<ele>-1.335183</ele>
<time>2026-07-17T09:03:54.000Z</time>
</trkpt>
<trkpt lat="57.590160" lon="10.147191">
<ele>-1.326344</ele>
<time>2026-07-17T09:03:55.000Z</time>
</trkpt>
<trkpt lat="57.590156" lon="10.147241">
<ele>-1.318439</ele>
<time>2026-07-17T09:03:56.000Z</time>
</trkpt>
<trkpt lat="57.590152" lon="10.147281">
<ele>-1.312076</ele>
<time>2026-07-17T09:03:57.000Z</time>
</trkpt>
<trkpt lat="57.590148" lon="10.147314">
<ele>-1.306785</ele>
<time>2026-07-17T09:03:58.000Z</time>
</trkpt>
<trkpt lat="57.590145" lon="10.147346">
<ele>-1.301706</ele>
<time>2026-07-17T09:03:59.000Z</time>
</trkpt>
<trkpt lat="57.590141" lon="10.147380">
<ele>-1.296262</ele>
<time>2026-07-17T09:04:00.000Z</time>
</trkpt>
<trkpt lat="57.590137" lon="10.147411">
<ele>-1.291276</ele>
<time>2026-07-17T09:04:01.000Z</time>
</trkpt>
<trkpt lat="57.590133" lon="10.147438">
<ele>-1.286896</ele>
<time>2026-07-17T09:04:46.000Z</time>
</trkpt>
<trkpt lat="57.590124" lon="10.147478">
<ele>-1.280113</ele>
<time>2026-07-17T09:04:47.000Z</time>
</trkpt>
<trkpt lat="57.590108" lon="10.147504">
<ele>-1.273922</ele>
<time>2026-07-17T09:04:48.000Z</time>
</trkpt>
<trkpt lat="57.590085" lon="10.147517">
<ele>-1.266911</ele>
<time>2026-07-17T09:04:49.000Z</time>
</trkpt>
<trkpt lat="57.590062" lon="10.147526">
<ele>-1.260055</ele>
<time>2026-07-17T09:04:50.000Z</time>
</trkpt>
<trkpt lat="57.590039" lon="10.147535">
<ele>-1.253198</ele>
<time>2026-07-17T09:04:51.000Z</time>
</trkpt>
<trkpt lat="57.590009" lon="10.147546">
<ele>-1.244278</ele>
<time>2026-07-17T09:04:52.000Z</time>
</trkpt>
<trkpt lat="57.589982" lon="10.147558">
<ele>-1.236181</ele>
<time>2026-07-17T09:04:53.000Z</time>
</trkpt>
<trkpt lat="57.589954" lon="10.147569">
<ele>-1.227832</ele>
<time>2026-07-17T09:04:54.000Z</time>
</trkpt>
<trkpt lat="57.589916" lon="10.147575">
<ele>-1.216706</ele>
<time>2026-07-17T09:04:55.000Z</time>
</trkpt>
<trkpt lat="57.589882" lon="10.147577">
<ele>-1.206782</ele>
<time>2026-07-17T09:04:56.000Z</time>
</trkpt>
<trkpt lat="57.589847" lon="10.147581">
<ele>-1.196551</ele>
<time>2026-07-17T09:04:57.000Z</time>
</trkpt>
<trkpt lat="57.589810" lon="10.147591">
<ele>-1.185644</ele>
<time>2026-07-17T09:04:58.000Z</time>
</trkpt>
<trkpt lat="57.589770" lon="10.147601">
<ele>-1.170709</ele>
<time>2026-07-17T09:04:59.000Z</time>
</trkpt>
<trkpt lat="57.589732" lon="10.147607">
<ele>-1.141590</ele>
<time>2026-07-17T09:05:00.000Z</time>
</trkpt>
<trkpt lat="57.589690" lon="10.147610">
<ele>-1.109497</ele>
<time>2026-07-17T09:05:01.000Z</time>
</trkpt>
<trkpt lat="57.589652" lon="10.147610">
<ele>-1.080481</ele>
<time>2026-07-17T09:05:02.000Z</time>
</trkpt>
<trkpt lat="57.589606" lon="10.147610">
<ele>-1.045357</ele>
<time>2026-07-17T09:05:03.000Z</time>
</trkpt>
<trkpt lat="57.589565" lon="10.147609">
<ele>-1.014049</ele>
<time>2026-07-17T09:05:04.000Z</time>
</trkpt>
<trkpt lat="57.589523" lon="10.147609">
<ele>-0.981979</ele>
<time>2026-07-17T09:05:05.000Z</time>
</trkpt>
<trkpt lat="57.589484" lon="10.147610">
<ele>-0.952197</ele>
<time>2026-07-17T09:05:06.000Z</time>
</trkpt>
<trkpt lat="57.589442" lon="10.147612">
<ele>-0.920117</ele>
<time>2026-07-17T09:05:07.000Z</time>
</trkpt>
<trkpt lat="57.589401" lon="10.147611">
<ele>-0.888808</ele>
<time>2026-07-17T09:05:08.000Z</time>
</trkpt>
<trkpt lat="57.589355" lon="10.147608">
<ele>-0.853663</ele>
<time>2026-07-17T09:05:09.000Z</time>
</trkpt>
<trkpt lat="57.589313" lon="10.147602">
<ele>-0.821499</ele>
<time>2026-07-17T09:05:10.000Z</time>
</trkpt>
<trkpt lat="57.589270" lon="10.147596">
<ele>-0.788574</ele>
<time>2026-07-17T09:05:11.000Z</time>
</trkpt>
<trkpt lat="57.589228" lon="10.147589">
<ele>-0.756377</ele>
<time>2026-07-17T09:05:12.000Z</time>
</trkpt>
<trkpt lat="57.589187" lon="10.147578">
<ele>-0.724748</ele>
<time>2026-07-17T09:05:13.000Z</time>
</trkpt>
<trkpt lat="57.589146" lon="10.147561">
<ele>-0.692679</ele>
<time>2026-07-17T09:05:14.000Z</time>
</trkpt>
<trkpt lat="57.589102" lon="10.147539">
<ele>-0.657896</ele>
<time>2026-07-17T09:05:15.000Z</time>
</trkpt>
<trkpt lat="57.589057" lon="10.147515">
<ele>-0.622159</ele>
<time>2026-07-17T09:05:16.000Z</time>
</trkpt>
<trkpt lat="57.589015" lon="10.147487">
<ele>-0.588104</ele>
<time>2026-07-17T09:05:17.000Z</time>
</trkpt>
<trkpt lat="57.588974" lon="10.147462">
<ele>-0.555168</ele>
<time>2026-07-17T09:05:18.000Z</time>
</trkpt>
<trkpt lat="57.588925" lon="10.147435">
<ele>-0.516156</ele>
<time>2026-07-17T09:05:19.000Z</time>
</trkpt>
<trkpt lat="57.588882" lon="10.147414">
<ele>-0.482216</ele>
<time>2026-07-17T09:05:20.000Z</time>
</trkpt>
<trkpt lat="57.588836" lon="10.147399">
<ele>-0.446560</ele>
<time>2026-07-17T09:05:21.000Z</time>
</trkpt>
<trkpt lat="57.588794" lon="10.147393">
<ele>-0.414396</ele>
<time>2026-07-17T09:05:22.000Z</time>
</trkpt>
<trkpt lat="57.588756" lon="10.147395">
<ele>-0.385369</ele>
<time>2026-07-17T09:05:23.000Z</time>
</trkpt>
<trkpt lat="57.588717" lon="10.147409">
<ele>-0.355044</ele>
<time>2026-07-17T09:05:24.000Z</time>
</trkpt>
<trkpt lat="57.588677" lon="10.147433">
<ele>-0.322961</ele>
<time>2026-07-17T09:05:25.000Z</time>
</trkpt>
<trkpt lat="57.588642" lon="10.147463">
<ele>-0.293551</ele>
<time>2026-07-17T09:05:26.000Z</time>
</trkpt>
<trkpt lat="57.588608" lon="10.147493">
<ele>-0.264833</ele>
<time>2026-07-17T09:05:27.000Z</time>
</trkpt>
<trkpt lat="57.588569" lon="10.147521">
<ele>-0.232925</ele>
<time>2026-07-17T09:05:28.000Z</time>
</trkpt>
<trkpt lat="57.588531" lon="10.147545">
<ele>-0.202292</ele>
<time>2026-07-17T09:05:29.000Z</time>
</trkpt>
<trkpt lat="57.588489" lon="10.147567">
<ele>-0.168982</ele>
<time>2026-07-17T09:05:30.000Z</time>
</trkpt>
<trkpt lat="57.588450" lon="10.147585">
<ele>-0.138305</ele>
<time>2026-07-17T09:05:31.000Z</time>
</trkpt>
<trkpt lat="57.588408" lon="10.147608">
<ele>-0.104883</ele>
<time>2026-07-17T09:05:32.000Z</time>
</trkpt>
<trkpt lat="57.588367" lon="10.147635">
<ele>-0.071684</ele>
<time>2026-07-17T09:05:33.000Z</time>
</trkpt>
<trkpt lat="57.588329" lon="10.147663">
<ele>-0.040487</ele>
<time>2026-07-17T09:05:34.000Z</time>
</trkpt>
<trkpt lat="57.588292" lon="10.147684">
<ele>-0.010957</ele>
<time>2026-07-17T09:05:35.000Z</time>
</trkpt>
<trkpt lat="57.588248" lon="10.147697">
<ele>0.023059</ele>
<time>2026-07-17T09:05:36.000Z</time>
</trkpt>
<trkpt lat="57.588211" lon="10.147697">
<ele>0.051310</ele>
<time>2026-07-17T09:05:37.000Z</time>
</trkpt>
<trkpt lat="57.588176" lon="10.147687">
<ele>0.078347</ele>
<time>2026-07-17T09:05:38.000Z</time>
</trkpt>
<trkpt lat="57.588143" lon="10.147664">
<ele>0.105245</ele>
<time>2026-07-17T09:05:39.000Z</time>
</trkpt>
<trkpt lat="57.588113" lon="10.147638">
<ele>0.130503</ele>
<time>2026-07-17T09:05:40.000Z</time>
</trkpt>
<trkpt lat="57.588086" lon="10.147614">
<ele>0.153340</ele>
<time>2026-07-17T09:05:41.000Z</time>
</trkpt>
<trkpt lat="57.588060" lon="10.147594">
<ele>0.174814</ele>
<time>2026-07-17T09:05:42.000Z</time>
</trkpt>
<trkpt lat="57.588037" lon="10.147577">
<ele>0.193704</ele>
<time>2026-07-17T09:05:43.000Z</time>
</trkpt>
<trkpt lat="57.588018" lon="10.147561">
<ele>0.225362</ele>
<time>2026-07-17T09:05:44.000Z</time>
</trkpt>
<trkpt lat="57.588002" lon="10.147545">
<ele>0.257310</ele>
<time>2026-07-17T09:05:45.000Z</time>
</trkpt>
<trkpt lat="57.587980" lon="10.147529">
<ele>0.298864</ele>
<time>2026-07-17T09:05:46.000Z</time>
</trkpt>
<trkpt lat="57.587961" lon="10.147506">
<ele>0.338723</ele>
<time>2026-07-17T09:05:47.000Z</time>
</trkpt>
<trkpt lat="57.587946" lon="10.147479">
<ele>0.375403</ele>
<time>2026-07-17T09:05:48.000Z</time>
</trkpt>
<trkpt lat="57.587927" lon="10.147439">
<ele>0.425818</ele>
<time>2026-07-17T09:05:49.000Z</time>
</trkpt>
<trkpt lat="57.587908" lon="10.147400">
<ele>0.475532</ele>
<time>2026-07-17T09:05:50.000Z</time>
</trkpt>
<trkpt lat="57.587889" lon="10.147357">
<ele>0.528098</ele>
<time>2026-07-17T09:05:51.000Z</time>
</trkpt>
<trkpt lat="57.587878" lon="10.147315">
<ele>0.572192</ele>
<time>2026-07-17T09:05:52.000Z</time>
</trkpt>
<trkpt lat="57.587867" lon="10.147273">
<ele>0.616287</ele>
<time>2026-07-17T09:05:53.000Z</time>
</trkpt>
<trkpt lat="57.587859" lon="10.147221">
<ele>0.667318</ele>
<time>2026-07-17T09:05:54.000Z</time>
</trkpt>
<trkpt lat="57.587848" lon="10.147174">
<ele>0.715695</ele>
<time>2026-07-17T09:05:55.000Z</time>
</trkpt>
<trkpt lat="57.587844" lon="10.147132">
<ele>0.755933</ele>
<time>2026-07-17T09:05:56.000Z</time>
</trkpt>
<trkpt lat="57.587836" lon="10.147109">
<ele>0.781796</ele>
<time>2026-07-17T09:05:57.000Z</time>
</trkpt>
<trkpt lat="57.587829" lon="10.147102">
<ele>0.795773</ele>
<time>2026-07-17T09:05:58.000Z</time>
</trkpt>
<trkpt lat="57.587861" lon="10.147211">
<ele>0.913003</ele>
<time>2026-07-17T09:06:07.000Z</time>
</trkpt>
<trkpt lat="57.587869" lon="10.147259">
<ele>0.960419</ele>
<time>2026-07-17T09:06:08.000Z</time>
</trkpt>
<trkpt lat="57.587881" lon="10.147311">
<ele>1.013823</ele>
<time>2026-07-17T09:06:09.000Z</time>
</trkpt>
<trkpt lat="57.587901" lon="10.147363">
<ele>1.074195</ele>
<time>2026-07-17T09:06:10.000Z</time>
</trkpt>
<trkpt lat="57.587925" lon="10.147412">
<ele>1.136807</ele>
<time>2026-07-17T09:06:11.000Z</time>
</trkpt>
<trkpt lat="57.587955" lon="10.147457">
<ele>1.204550</ele>
<time>2026-07-17T09:06:12.000Z</time>
</trkpt>
<trkpt lat="57.587982" lon="10.147500">
<ele>1.267024</ele>
<time>2026-07-17T09:06:13.000Z</time>
</trkpt>
<trkpt lat="57.588009" lon="10.147543">
<ele>1.329497</ele>
<time>2026-07-17T09:06:14.000Z</time>
</trkpt>
<trkpt lat="57.588044" lon="10.147580">
<ele>1.400292</ele>
<time>2026-07-17T09:06:15.000Z</time>
</trkpt>
<trkpt lat="57.588082" lon="10.147613">
<ele>1.474056</ele>
<time>2026-07-17T09:06:16.000Z</time>
</trkpt>
<trkpt lat="57.588114" lon="10.147639">
<ele>1.535480</ele>
<time>2026-07-17T09:06:17.000Z</time>
</trkpt>
<trkpt lat="57.588137" lon="10.147661">
<ele>1.580966</ele>
<time>2026-07-17T09:06:18.000Z</time>
</trkpt>
<trkpt lat="57.588158" lon="10.147683">
<ele>1.623350</ele>
<time>2026-07-17T09:06:19.000Z</time>
</trkpt>
<trkpt lat="57.588166" lon="10.147708">
<ele>1.650815</ele>
<time>2026-07-17T09:06:20.000Z</time>
</trkpt>
<trkpt lat="57.588168" lon="10.147732">
<ele>1.673726</ele>
<time>2026-07-17T09:06:21.000Z</time>
</trkpt>
<trkpt lat="57.588160" lon="10.147751">
<ele>1.696516</ele>
<time>2026-07-17T09:06:22.000Z</time>
</trkpt>
<trkpt lat="57.588144" lon="10.147763">
<ele>1.726864</ele>
<time>2026-07-17T09:06:23.000Z</time>
</trkpt>
<trkpt lat="57.588125" lon="10.147774">
<ele>1.761874</ele>
<time>2026-07-17T09:06:24.000Z</time>
</trkpt>
<trkpt lat="57.588105" lon="10.147790">
<ele>1.800170</ele>
<time>2026-07-17T09:06:25.000Z</time>
</trkpt>
<trkpt lat="57.588083" lon="10.147810">
<ele>1.843238</ele>
<time>2026-07-17T09:06:26.000Z</time>
</trkpt>
<trkpt lat="57.588064" lon="10.147830">
<ele>1.881630</ele>
<time>2026-07-17T09:06:27.000Z</time>
</trkpt>
<trkpt lat="57.588041" lon="10.147847">
<ele>1.925167</ele>
<time>2026-07-17T09:06:28.000Z</time>
</trkpt>
<trkpt lat="57.588017" lon="10.147859">
<ele>1.968894</ele>
<time>2026-07-17T09:06:29.000Z</time>
</trkpt>
<trkpt lat="57.587990" lon="10.147864">
<ele>2.016643</ele>
<time>2026-07-17T09:06:30.000Z</time>
</trkpt>
<trkpt lat="57.587961" lon="10.147868">
<ele>2.067818</ele>
<time>2026-07-17T09:06:31.000Z</time>
</trkpt>
<trkpt lat="57.587933" lon="10.147868">
<ele>2.117093</ele>
<time>2026-07-17T09:06:32.000Z</time>
</trkpt>
<trkpt lat="57.587907" lon="10.147864">
<ele>2.163004</ele>
<time>2026-07-17T09:06:33.000Z</time>
</trkpt>
<trkpt lat="57.587884" lon="10.147856">
<ele>2.204178</ele>
<time>2026-07-17T09:06:34.000Z</time>
</trkpt>
<trkpt lat="57.587862" lon="10.147847">
<ele>2.243814</ele>
<time>2026-07-17T09:06:35.000Z</time>
</trkpt>
<trkpt lat="57.587849" lon="10.147840">
<ele>2.267626</ele>
<time>2026-07-17T09:06:36.000Z</time>
</trkpt>
<trkpt lat="57.587849" lon="10.147841">
<ele>2.268569</ele>
<time>2026-07-17T09:06:37.000Z</time>
</trkpt>
<trkpt lat="57.587847" lon="10.147841">
<ele>2.272089</ele>
<time>2026-07-17T09:07:02.000Z</time>
</trkpt>
<trkpt lat="57.587832" lon="10.147836">
<ele>2.298905</ele>
<time>2026-07-17T09:07:03.000Z</time>
</trkpt>
<trkpt lat="57.587816" lon="10.147828">
<ele>2.328056</ele>
<time>2026-07-17T09:07:04.000Z</time>
</trkpt>
<trkpt lat="57.587797" lon="10.147828">
<ele>2.361493</ele>
<time>2026-07-17T09:07:05.000Z</time>
</trkpt>
<trkpt lat="57.587777" lon="10.147825">
<ele>2.396803</ele>
<time>2026-07-17T09:07:06.000Z</time>
</trkpt>
<trkpt lat="57.587751" lon="10.147823">
<ele>2.442598</ele>
<time>2026-07-17T09:07:07.000Z</time>
</trkpt>
<trkpt lat="57.587729" lon="10.147817">
<ele>2.481726</ele>
<time>2026-07-17T09:07:08.000Z</time>
</trkpt>
<trkpt lat="57.587700" lon="10.147801">
<ele>2.534946</ele>
<time>2026-07-17T09:07:09.000Z</time>
</trkpt>
<trkpt lat="57.587671" lon="10.147787">
<ele>2.587662</ele>
<time>2026-07-17T09:07:10.000Z</time>
</trkpt>
<trkpt lat="57.587643" lon="10.147772">
<ele>2.638929</ele>
<time>2026-07-17T09:07:11.000Z</time>
</trkpt>
<trkpt lat="57.587613" lon="10.147759">
<ele>2.693130</ele>
<time>2026-07-17T09:07:12.000Z</time>
</trkpt>
<trkpt lat="57.587582" lon="10.147746">
<ele>2.749046</ele>
<time>2026-07-17T09:07:13.000Z</time>
</trkpt>
<trkpt lat="57.587557" lon="10.147734">
<ele>2.794475</ele>
<time>2026-07-17T09:07:14.000Z</time>
</trkpt>
<trkpt lat="57.587533" lon="10.147726">
<ele>2.837380</ele>
<time>2026-07-17T09:07:15.000Z</time>
</trkpt>
<trkpt lat="57.587515" lon="10.147714">
<ele>2.871018</ele>
<time>2026-07-17T09:07:16.000Z</time>
</trkpt>
<trkpt lat="57.587499" lon="10.147704">
<ele>2.900714</ele>
<time>2026-07-17T09:07:17.000Z</time>
</trkpt>
<trkpt lat="57.587480" lon="10.147692">
<ele>2.936015</ele>
<time>2026-07-17T09:07:18.000Z</time>
</trkpt>
<trkpt lat="57.587459" lon="10.147680">
<ele>2.974666</ele>
<time>2026-07-17T09:07:19.000Z</time>
</trkpt>
<trkpt lat="57.587430" lon="10.147671">
<ele>3.026403</ele>
<time>2026-07-17T09:07:20.000Z</time>
</trkpt>
<trkpt lat="57.587405" lon="10.147659">
<ele>3.071832</ele>
<time>2026-07-17T09:07:21.000Z</time>
</trkpt>
<trkpt lat="57.587376" lon="10.147636">
<ele>3.127287</ele>
<time>2026-07-17T09:07:22.000Z</time>
</trkpt>
<trkpt lat="57.587351" lon="10.147617">
<ele>3.174794</ele>
<time>2026-07-17T09:07:23.000Z</time>
</trkpt>
<trkpt lat="57.587327" lon="10.147601">
<ele>3.219646</ele>
<time>2026-07-17T09:07:24.000Z</time>
</trkpt>
<trkpt lat="57.587302" lon="10.147586">
<ele>3.265861</ele>
<time>2026-07-17T09:07:25.000Z</time>
</trkpt>
<trkpt lat="57.587282" lon="10.147567">
<ele>3.305358</ele>
<time>2026-07-17T09:07:26.000Z</time>
</trkpt>
<trkpt lat="57.587263" lon="10.147550">
<ele>3.342442</ele>
<time>2026-07-17T09:07:27.000Z</time>
</trkpt>
<trkpt lat="57.587248" lon="10.147540">
<ele>3.370049</ele>
<time>2026-07-17T09:07:28.000Z</time>
</trkpt>
<trkpt lat="57.587229" lon="10.147536">
<ele>3.401816</ele>
<time>2026-07-17T09:07:29.000Z</time>
</trkpt>
<trkpt lat="57.587214" lon="10.147533">
<ele>3.426880</ele>
<time>2026-07-17T09:07:30.000Z</time>
</trkpt>
<trkpt lat="57.587198" lon="10.147534">
<ele>3.453478</ele>
<time>2026-07-17T09:07:31.000Z</time>
</trkpt>
<trkpt lat="57.587179" lon="10.147537">
<ele>3.485158</ele>
<time>2026-07-17T09:07:32.000Z</time>
</trkpt>
<trkpt lat="57.587161" lon="10.147545">
<ele>3.515900</ele>
<time>2026-07-17T09:07:33.000Z</time>
</trkpt>
<trkpt lat="57.587142" lon="10.147542">
<ele>3.547579</ele>
<time>2026-07-17T09:07:34.000Z</time>
</trkpt>
<trkpt lat="57.587130" lon="10.147540">
<ele>3.567596</ele>
<time>2026-07-17T09:07:35.000Z</time>
</trkpt>
<trkpt lat="57.587120" lon="10.147542">
<ele>3.584305</ele>
<time>2026-07-17T09:07:36.000Z</time>
</trkpt>
<trkpt lat="57.587120" lon="10.147539">
<ele>3.586977</ele>
<time>2026-07-17T09:07:37.000Z</time>
</trkpt>
<trkpt lat="57.587120" lon="10.147536">
<ele>3.589648</ele>
<time>2026-07-17T09:07:38.000Z</time>
</trkpt>
<trkpt lat="57.587120" lon="10.147536">
<ele>3.589648</ele>
<time>2026-07-17T09:07:39.000Z</time>
</trkpt>
<trkpt lat="57.587112" lon="10.147543">
<ele>3.604329</ele>
<time>2026-07-17T09:08:32.000Z</time>
</trkpt>
<trkpt lat="57.587039" lon="10.147605">
<ele>3.737588</ele>
<time>2026-07-17T09:08:33.000Z</time>
</trkpt>
<trkpt lat="57.587027" lon="10.147600">
<ele>3.758017</ele>
<time>2026-07-17T09:08:34.000Z</time>
</trkpt>
<trkpt lat="57.587017" lon="10.147599">
<ele>3.774654</ele>
<time>2026-07-17T09:08:35.000Z</time>
</trkpt>
<trkpt lat="57.587013" lon="10.147600">
<ele>3.781360</ele>
<time>2026-07-17T09:08:36.000Z</time>
</trkpt>
<trkpt lat="57.587013" lon="10.147595">
<ele>3.785812</ele>
<time>2026-07-17T09:08:37.000Z</time>
</trkpt>
<trkpt lat="57.586985" lon="10.147598">
<ele>3.832408</ele>
<time>2026-07-17T09:08:42.000Z</time>
</trkpt>
<trkpt lat="57.586969" lon="10.147592">
<ele>3.859523</ele>
<time>2026-07-17T09:08:43.000Z</time>
</trkpt>
<trkpt lat="57.586945" lon="10.147584">
<ele>3.900028</ele>
<time>2026-07-17T09:08:44.000Z</time>
</trkpt>
<trkpt lat="57.586918" lon="10.147575">
<ele>3.945596</ele>
<time>2026-07-17T09:08:45.000Z</time>
</trkpt>
<trkpt lat="57.586888" lon="10.147565">
<ele>3.996228</ele>
<time>2026-07-17T09:08:46.000Z</time>
</trkpt>
<trkpt lat="57.586862" lon="10.147554">
<ele>4.040522</ele>
<time>2026-07-17T09:08:47.000Z</time>
</trkpt>
<trkpt lat="57.586831" lon="10.147541">
<ele>4.093310</ele>
<time>2026-07-17T09:08:48.000Z</time>
</trkpt>
<trkpt lat="57.586802" lon="10.147528">
<ele>4.142863</ele>
<time>2026-07-17T09:08:49.000Z</time>
</trkpt>
<trkpt lat="57.586774" lon="10.147515">
<ele>4.190801</ele>
<time>2026-07-17T09:08:50.000Z</time>
</trkpt>
<trkpt lat="57.586750" lon="10.147507">
<ele>4.231306</ele>
<time>2026-07-17T09:08:51.000Z</time>
</trkpt>
<trkpt lat="57.586720" lon="10.147494">
<ele>4.282476</ele>
<time>2026-07-17T09:08:52.000Z</time>
</trkpt>
<trkpt lat="57.586694" lon="10.147484">
<ele>4.326581</ele>
<time>2026-07-17T09:08:53.000Z</time>
</trkpt>
<trkpt lat="57.586668" lon="10.147476">
<ele>4.370361</ele>
<time>2026-07-17T09:08:54.000Z</time>
</trkpt>
<trkpt lat="57.586653" lon="10.147474">
<ele>4.395346</ele>
<time>2026-07-17T09:08:55.000Z</time>
</trkpt>
<trkpt lat="57.586625" lon="10.147465">
<ele>4.442551</ele>
<time>2026-07-17T09:08:56.000Z</time>
</trkpt>
<trkpt lat="57.586602" lon="10.147452">
<ele>4.482478</ele>
<time>2026-07-17T09:08:57.000Z</time>
</trkpt>
<trkpt lat="57.586579" lon="10.147442">
<ele>4.521715</ele>
<time>2026-07-17T09:08:58.000Z</time>
</trkpt>
<trkpt lat="57.586549" lon="10.147429">
<ele>4.572884</ele>
<time>2026-07-17T09:08:59.000Z</time>
</trkpt>
<trkpt lat="57.586523" lon="10.147419">
<ele>4.616989</ele>
<time>2026-07-17T09:09:00.000Z</time>
</trkpt>
<trkpt lat="57.586495" lon="10.147409">
<ele>4.664353</ele>
<time>2026-07-17T09:09:01.000Z</time>
</trkpt>
<trkpt lat="57.586465" lon="10.147396">
<ele>4.715522</ele>
<time>2026-07-17T09:09:02.000Z</time>
</trkpt>
<trkpt lat="57.586439" lon="10.147383">
<ele>4.760244</ele>
<time>2026-07-17T09:09:03.000Z</time>
</trkpt>
<trkpt lat="57.586416" lon="10.147375">
<ele>4.799115</ele>
<time>2026-07-17T09:09:04.000Z</time>
</trkpt>
<trkpt lat="57.586393" lon="10.147372">
<ele>4.837420</ele>
<time>2026-07-17T09:09:05.000Z</time>
</trkpt>
<trkpt lat="57.586374" lon="10.147377">
<ele>4.869300</ele>
<time>2026-07-17T09:09:06.000Z</time>
</trkpt>
<trkpt lat="57.586355" lon="10.147394">
<ele>4.904309</ele>
<time>2026-07-17T09:09:07.000Z</time>
</trkpt>
<trkpt lat="57.586341" lon="10.147434">
<ele>4.946853</ele>
<time>2026-07-17T09:09:08.000Z</time>
</trkpt>
<trkpt lat="57.586330" lon="10.147488">
<ele>4.998299</ele>
<time>2026-07-17T09:09:09.000Z</time>
</trkpt>
<trkpt lat="57.586326" lon="10.147549">
<ele>5.053028</ele>
<time>2026-07-17T09:09:10.000Z</time>
</trkpt>
<trkpt lat="57.586319" lon="10.147616">
<ele>5.113819</ele>
<time>2026-07-17T09:09:11.000Z</time>
</trkpt>
<trkpt lat="57.586315" lon="10.147688">
<ele>5.178283</ele>
<time>2026-07-17T09:09:12.000Z</time>
</trkpt>
<trkpt lat="57.586315" lon="10.147759">
<ele>5.241513</ele>
<time>2026-07-17T09:09:13.000Z</time>
</trkpt>
<trkpt lat="57.586310" lon="10.147837">
<ele>5.311471</ele>
<time>2026-07-17T09:09:14.000Z</time>
</trkpt>
<trkpt lat="57.586303" lon="10.147917">
<ele>5.383659</ele>
<time>2026-07-17T09:09:15.000Z</time>
</trkpt>
<trkpt lat="57.586299" lon="10.148005">
<ele>5.462310</ele>
<time>2026-07-17T09:09:16.000Z</time>
</trkpt>
<trkpt lat="57.586296" lon="10.148092">
<ele>5.539950</ele>
<time>2026-07-17T09:09:17.000Z</time>
</trkpt>
<trkpt lat="57.586288" lon="10.148190">
<ele>5.628231</ele>
<time>2026-07-17T09:09:18.000Z</time>
</trkpt>
<trkpt lat="57.586280" lon="10.148282">
<ele>5.711234</ele>
<time>2026-07-17T09:09:19.000Z</time>
</trkpt>
<trkpt lat="57.586272" lon="10.148385">
<ele>5.803920</ele>
<time>2026-07-17T09:09:20.000Z</time>
</trkpt>
<trkpt lat="57.586265" lon="10.148484">
<ele>5.892850</ele>
<time>2026-07-17T09:09:21.000Z</time>
</trkpt>
<trkpt lat="57.586261" lon="10.148590">
<ele>5.987483</ele>
<time>2026-07-17T09:09:22.000Z</time>
</trkpt>
<trkpt lat="57.586253" lon="10.148697">
<ele>6.083696</ele>
<time>2026-07-17T09:09:23.000Z</time>
</trkpt>
<trkpt lat="57.586246" lon="10.148798">
<ele>6.174392</ele>
<time>2026-07-17T09:09:24.000Z</time>
</trkpt>
<trkpt lat="57.586242" lon="10.148897">
<ele>6.262808</ele>
<time>2026-07-17T09:09:25.000Z</time>
</trkpt>
<trkpt lat="57.586235" lon="10.149002">
<ele>6.350004</ele>
<time>2026-07-17T09:09:26.000Z</time>
</trkpt>
<trkpt lat="57.586231" lon="10.149102">
<ele>6.332368</ele>
<time>2026-07-17T09:09:27.000Z</time>
</trkpt>
<trkpt lat="57.586227" lon="10.149200">
<ele>6.315083</ele>
<time>2026-07-17T09:09:28.000Z</time>
</trkpt>
<trkpt lat="57.586224" lon="10.149295">
<ele>6.298347</ele>
<time>2026-07-17T09:09:29.000Z</time>
</trkpt>
<trkpt lat="57.586228" lon="10.149389">
<ele>6.281764</ele>
<time>2026-07-17T09:09:30.000Z</time>
</trkpt>
<trkpt lat="57.586231" lon="10.149480">
<ele>6.265730</ele>
<time>2026-07-17T09:09:31.000Z</time>
</trkpt>
<trkpt lat="57.586228" lon="10.149576">
<ele>6.248818</ele>
<time>2026-07-17T09:09:32.000Z</time>
</trkpt>
<trkpt lat="57.586231" lon="10.149662">
<ele>6.233662</ele>
<time>2026-07-17T09:09:33.000Z</time>
</trkpt>
<trkpt lat="57.586231" lon="10.149751">
<ele>6.218010</ele>
<time>2026-07-17T09:09:34.000Z</time>
</trkpt>
<trkpt lat="57.586231" lon="10.149846">
<ele>6.201302</ele>
<time>2026-07-17T09:09:35.000Z</time>
</trkpt>
<trkpt lat="57.586227" lon="10.149942">
<ele>6.184368</ele>
<time>2026-07-17T09:09:36.000Z</time>
</trkpt>
<trkpt lat="57.586223" lon="10.150044">
<ele>6.166382</ele>
<time>2026-07-17T09:09:37.000Z</time>
</trkpt>
<trkpt lat="57.586219" lon="10.150148">
<ele>6.148045</ele>
<time>2026-07-17T09:09:38.000Z</time>
</trkpt>
<trkpt lat="57.586216" lon="10.150255">
<ele>6.129202</ele>
<time>2026-07-17T09:09:39.000Z</time>
</trkpt>
<trkpt lat="57.586216" lon="10.150360">
<ele>6.110736</ele>
<time>2026-07-17T09:09:40.000Z</time>
</trkpt>
<trkpt lat="57.586212" lon="10.150466">
<ele>6.092048</ele>
<time>2026-07-17T09:09:41.000Z</time>
</trkpt>
<trkpt lat="57.586212" lon="10.150568">
<ele>6.074110</ele>
<time>2026-07-17T09:09:42.000Z</time>
</trkpt>
<trkpt lat="57.586208" lon="10.150662">
<ele>6.057526</ele>
<time>2026-07-17T09:09:43.000Z</time>
</trkpt>
<trkpt lat="57.586207" lon="10.150771">
<ele>6.038354</ele>
<time>2026-07-17T09:09:44.000Z</time>
</trkpt>
<trkpt lat="57.586200" lon="10.150879">
<ele>6.019222</ele>
<time>2026-07-17T09:09:45.000Z</time>
</trkpt>
<trkpt lat="57.586192" lon="10.150990">
<ele>5.999526</ele>
<time>2026-07-17T09:09:46.000Z</time>
</trkpt>
<trkpt lat="57.586184" lon="10.151106">
<ele>5.978957</ele>
<time>2026-07-17T09:09:47.000Z</time>
</trkpt>
<trkpt lat="57.586169" lon="10.151229">
<ele>5.956773</ele>
<time>2026-07-17T09:09:48.000Z</time>
</trkpt>
<trkpt lat="57.586154" lon="10.151352">
<ele>5.934589</ele>
<time>2026-07-17T09:09:49.000Z</time>
</trkpt>
<trkpt lat="57.586142" lon="10.151476">
<ele>5.912429</ele>
<time>2026-07-17T09:09:50.000Z</time>
</trkpt>
<trkpt lat="57.586127" lon="10.151603">
<ele>5.889558</ele>
<time>2026-07-17T09:09:51.000Z</time>
</trkpt>
<trkpt lat="57.586120" lon="10.151724">
<ele>5.868155</ele>
<time>2026-07-17T09:09:52.000Z</time>
</trkpt>
<trkpt lat="57.586112" lon="10.151847">
<ele>5.846364</ele>
<time>2026-07-17T09:09:53.000Z</time>
</trkpt>
<trkpt lat="57.586101" lon="10.151974">
<ele>5.823740</ele>
<time>2026-07-17T09:09:54.000Z</time>
</trkpt>
<trkpt lat="57.586093" lon="10.152095">
<ele>5.802299</ele>
<time>2026-07-17T09:09:55.000Z</time>
</trkpt>
<trkpt lat="57.586082" lon="10.152213">
<ele>5.781235</ele>
<time>2026-07-17T09:09:56.000Z</time>
</trkpt>
<trkpt lat="57.586071" lon="10.152331">
<ele>5.760071</ele>
<time>2026-07-17T09:09:57.000Z</time>
</trkpt>
<trkpt lat="57.586067" lon="10.152444">
<ele>5.737878</ele>
<time>2026-07-17T09:09:58.000Z</time>
</trkpt>
<trkpt lat="57.586063" lon="10.152553">
<ele>5.716467</ele>
<time>2026-07-17T09:09:59.000Z</time>
</trkpt>
<trkpt lat="57.586058" lon="10.152667">
<ele>5.694052</ele>
<time>2026-07-17T09:10:00.000Z</time>
</trkpt>
<trkpt lat="57.586047" lon="10.152785">
<ele>5.670581</ele>
<time>2026-07-17T09:10:01.000Z</time>
</trkpt>
<trkpt lat="57.586040" lon="10.152900">
<ele>5.647899</ele>
<time>2026-07-17T09:10:02.000Z</time>
</trkpt>
<trkpt lat="57.586032" lon="10.153009">
<ele>5.626339</ele>
<time>2026-07-17T09:10:03.000Z</time>
</trkpt>
<trkpt lat="57.586025" lon="10.153123">
<ele>5.603852</ele>
<time>2026-07-17T09:10:04.000Z</time>
</trkpt>
<trkpt lat="57.586021" lon="10.153241">
<ele>5.580682</ele>
<time>2026-07-17T09:10:05.000Z</time>
</trkpt>
<trkpt lat="57.586013" lon="10.153353">
<ele>5.558539</ele>
<time>2026-07-17T09:10:06.000Z</time>
</trkpt>
<trkpt lat="57.586009" lon="10.153462">
<ele>5.537128</ele>
<time>2026-07-17T09:10:07.000Z</time>
</trkpt>
<trkpt lat="57.586002" lon="10.153570">
<ele>5.515809</ele>
<time>2026-07-17T09:10:08.000Z</time>
</trkpt>
<trkpt lat="57.585998" lon="10.153675">
<ele>5.495180</ele>
<time>2026-07-17T09:10:09.000Z</time>
</trkpt>
<trkpt lat="57.585994" lon="10.153787">
<ele>5.473183</ele>
<time>2026-07-17T09:10:10.000Z</time>
</trkpt>
<trkpt lat="57.585987" lon="10.153907">
<ele>5.449528</ele>
<time>2026-07-17T09:10:11.000Z</time>
</trkpt>
<trkpt lat="57.585983" lon="10.154026">
<ele>5.426161</ele>
<time>2026-07-17T09:10:12.000Z</time>
</trkpt>
<trkpt lat="57.585975" lon="10.154141">
<ele>5.403436</ele>
<time>2026-07-17T09:10:13.000Z</time>
</trkpt>
<trkpt lat="57.585968" lon="10.154259">
<ele>5.380170</ele>
<time>2026-07-17T09:10:14.000Z</time>
</trkpt>
<trkpt lat="57.585964" lon="10.154376">
<ele>5.357195</ele>
<time>2026-07-17T09:10:15.000Z</time>
</trkpt>
<trkpt lat="57.585960" lon="10.154491">
<ele>5.334611</ele>
<time>2026-07-17T09:10:16.000Z</time>
</trkpt>
<trkpt lat="57.585952" lon="10.154604">
<ele>5.312274</ele>
<time>2026-07-17T09:10:17.000Z</time>
</trkpt>
<trkpt lat="57.585945" lon="10.154712">
<ele>5.290955</ele>
<time>2026-07-17T09:10:18.000Z</time>
</trkpt>
<trkpt lat="57.585941" lon="10.154832">
<ele>5.267393</ele>
<time>2026-07-17T09:10:19.000Z</time>
</trkpt>
<trkpt lat="57.585941" lon="10.154938">
<ele>5.246620</ele>
<time>2026-07-17T09:10:20.000Z</time>
</trkpt>
<trkpt lat="57.585937" lon="10.155043">
<ele>5.225991</ele>
<time>2026-07-17T09:10:21.000Z</time>
</trkpt>
<trkpt lat="57.585937" lon="10.155144">
<ele>5.206198</ele>
<time>2026-07-17T09:10:22.000Z</time>
</trkpt>
<trkpt lat="57.585930" lon="10.155244">
<ele>5.186434</ele>
<time>2026-07-17T09:10:23.000Z</time>
</trkpt>
<trkpt lat="57.585926" lon="10.155356">
<ele>5.164437</ele>
<time>2026-07-17T09:10:24.000Z</time>
</trkpt>
<trkpt lat="57.585922" lon="10.155451">
<ele>5.145762</ele>
<time>2026-07-17T09:10:25.000Z</time>
</trkpt>
<trkpt lat="57.585926" lon="10.155564">
<ele>5.123569</ele>
<time>2026-07-17T09:10:26.000Z</time>
</trkpt>
<trkpt lat="57.585926" lon="10.155675">
<ele>5.103763</ele>
<time>2026-07-17T09:10:27.000Z</time>
</trkpt>
<trkpt lat="57.585929" lon="10.155789">
<ele>5.107647</ele>
<time>2026-07-17T09:10:28.000Z</time>
</trkpt>
<trkpt lat="57.585922" lon="10.155908">
<ele>5.111722</ele>
<time>2026-07-17T09:10:29.000Z</time>
</trkpt>
<trkpt lat="57.585914" lon="10.156029">
<ele>5.115871</ele>
<time>2026-07-17T09:10:30.000Z</time>
</trkpt>
<trkpt lat="57.585903" lon="10.156155">
<ele>5.120216</ele>
<time>2026-07-17T09:10:31.000Z</time>
</trkpt>
<trkpt lat="57.585899" lon="10.156277">
<ele>5.124376</ele>
<time>2026-07-17T09:10:32.000Z</time>
</trkpt>
<trkpt lat="57.585896" lon="10.156398">
<ele>5.128499</ele>
<time>2026-07-17T09:10:33.000Z</time>
</trkpt>
<trkpt lat="57.585899" lon="10.156515">
<ele>5.132485</ele>
<time>2026-07-17T09:10:34.000Z</time>
</trkpt>
<trkpt lat="57.585895" lon="10.156628">
<ele>5.136340</ele>
<time>2026-07-17T09:10:35.000Z</time>
</trkpt>
<trkpt lat="57.585888" lon="10.156747">
<ele>5.140414</ele>
<time>2026-07-17T09:10:36.000Z</time>
</trkpt>
<trkpt lat="57.585883" lon="10.156873">
<ele>5.144714</ele>
<time>2026-07-17T09:10:37.000Z</time>
</trkpt>
<trkpt lat="57.585876" lon="10.156993">
<ele>5.148823</ele>
<time>2026-07-17T09:10:38.000Z</time>
</trkpt>
<trkpt lat="57.585872" lon="10.157111">
<ele>5.152847</ele>
<time>2026-07-17T09:10:39.000Z</time>
</trkpt>
<trkpt lat="57.585864" lon="10.157229">
<ele>5.156895</ele>
<time>2026-07-17T09:10:40.000Z</time>
</trkpt>
<trkpt lat="57.585857" lon="10.157346">
<ele>5.160902</ele>
<time>2026-07-17T09:10:41.000Z</time>
</trkpt>
<trkpt lat="57.585853" lon="10.157463">
<ele>5.164892</ele>
<time>2026-07-17T09:10:42.000Z</time>
</trkpt>
<trkpt lat="57.585849" lon="10.157579">
<ele>5.168848</ele>
<time>2026-07-17T09:10:43.000Z</time>
</trkpt>
<trkpt lat="57.585841" lon="10.157700">
<ele>5.172998</ele>
<time>2026-07-17T09:10:44.000Z</time>
</trkpt>
<trkpt lat="57.585834" lon="10.157819">
<ele>5.177072</ele>
<time>2026-07-17T09:10:45.000Z</time>
</trkpt>
<trkpt lat="57.585830" lon="10.157936">
<ele>5.181062</ele>
<time>2026-07-17T09:10:46.000Z</time>
</trkpt>
<trkpt lat="57.585826" lon="10.158053">
<ele>5.185052</ele>
<time>2026-07-17T09:10:47.000Z</time>
</trkpt>
<trkpt lat="57.585819" lon="10.158172">
<ele>5.189127</ele>
<time>2026-07-17T09:10:48.000Z</time>
</trkpt>
<trkpt lat="57.585815" lon="10.158291">
<ele>5.193185</ele>
<time>2026-07-17T09:10:49.000Z</time>
</trkpt>
<trkpt lat="57.585811" lon="10.158411">
<ele>5.197277</ele>
<time>2026-07-17T09:10:50.000Z</time>
</trkpt>
<trkpt lat="57.585803" lon="10.158531">
<ele>5.201393</ele>
<time>2026-07-17T09:10:51.000Z</time>
</trkpt>
<trkpt lat="57.585796" lon="10.158648">
<ele>5.205400</ele>
<time>2026-07-17T09:10:52.000Z</time>
</trkpt>
<trkpt lat="57.585788" lon="10.158766">
<ele>5.209448</ele>
<time>2026-07-17T09:10:53.000Z</time>
</trkpt>
<trkpt lat="57.585785" lon="10.158887">
<ele>5.213570</ele>
<time>2026-07-17T09:10:54.000Z</time>
</trkpt>
<trkpt lat="57.585781" lon="10.159003">
<ele>5.217527</ele>
<time>2026-07-17T09:10:55.000Z</time>
</trkpt>
<trkpt lat="57.585773" lon="10.159122">
<ele>5.222929</ele>
<time>2026-07-17T09:10:56.000Z</time>
</trkpt>
<trkpt lat="57.585773" lon="10.159238">
<ele>5.228203</ele>
<time>2026-07-17T09:10:57.000Z</time>
</trkpt>
<trkpt lat="57.585765" lon="10.159353">
<ele>5.233475</ele>
<time>2026-07-17T09:10:58.000Z</time>
</trkpt>
<trkpt lat="57.585758" lon="10.159469">
<ele>5.238782</ele>
<time>2026-07-17T09:10:59.000Z</time>
</trkpt>
<trkpt lat="57.585754" lon="10.159586">
<ele>5.244112</ele>
<time>2026-07-17T09:11:00.000Z</time>
</trkpt>
<trkpt lat="57.585750" lon="10.159694">
<ele>5.249034</ele>
<time>2026-07-17T09:11:01.000Z</time>
</trkpt>
<trkpt lat="57.585746" lon="10.159818">
<ele>5.254682</ele>
<time>2026-07-17T09:11:02.000Z</time>
</trkpt>
<trkpt lat="57.585739" lon="10.159934">
<ele>5.259989</ele>
<time>2026-07-17T09:11:03.000Z</time>
</trkpt>
<trkpt lat="57.585735" lon="10.160056">
<ele>5.265547</ele>
<time>2026-07-17T09:11:04.000Z</time>
</trkpt>
<trkpt lat="57.585731" lon="10.160172">
<ele>5.270831</ele>
<time>2026-07-17T09:11:05.000Z</time>
</trkpt>
<trkpt lat="57.585727" lon="10.160284">
<ele>5.275935</ele>
<time>2026-07-17T09:11:06.000Z</time>
</trkpt>
<trkpt lat="57.585720" lon="10.160408">
<ele>5.281604</ele>
<time>2026-07-17T09:11:07.000Z</time>
</trkpt>
<trkpt lat="57.585716" lon="10.160520">
<ele>5.286707</ele>
<time>2026-07-17T09:11:08.000Z</time>
</trkpt>
<trkpt lat="57.585708" lon="10.160630">
<ele>5.291754</ele>
<time>2026-07-17T09:11:09.000Z</time>
</trkpt>
<trkpt lat="57.585704" lon="10.160743">
<ele>5.296903</ele>
<time>2026-07-17T09:11:10.000Z</time>
</trkpt>
<trkpt lat="57.585701" lon="10.160857">
<ele>5.302092</ele>
<time>2026-07-17T09:11:11.000Z</time>
</trkpt>
<trkpt lat="57.585697" lon="10.160971">
<ele>5.307286</ele>
<time>2026-07-17T09:11:12.000Z</time>
</trkpt>
<trkpt lat="57.585693" lon="10.161080">
<ele>5.312253</ele>
<time>2026-07-17T09:11:13.000Z</time>
</trkpt>
<trkpt lat="57.585689" lon="10.161186">
<ele>5.317085</ele>
<time>2026-07-17T09:11:14.000Z</time>
</trkpt>
<trkpt lat="57.585681" lon="10.161297">
<ele>5.322177</ele>
<time>2026-07-17T09:11:15.000Z</time>
</trkpt>
<trkpt lat="57.585678" lon="10.161409">
<ele>5.327275</ele>
<time>2026-07-17T09:11:16.000Z</time>
</trkpt>
<trkpt lat="57.585677" lon="10.161520">
<ele>5.332322</ele>
<time>2026-07-17T09:11:17.000Z</time>
</trkpt>
<trkpt lat="57.585670" lon="10.161629">
<ele>5.337314</ele>
<time>2026-07-17T09:11:18.000Z</time>
</trkpt>
<trkpt lat="57.585666" lon="10.161734">
<ele>5.342099</ele>
<time>2026-07-17T09:11:19.000Z</time>
</trkpt>
<trkpt lat="57.585659" lon="10.161845">
<ele>5.347181</ele>
<time>2026-07-17T09:11:20.000Z</time>
</trkpt>
<trkpt lat="57.585655" lon="10.161951">
<ele>5.352012</ele>
<time>2026-07-17T09:11:21.000Z</time>
</trkpt>
<trkpt lat="57.585647" lon="10.162054">
<ele>5.356744</ele>
<time>2026-07-17T09:11:22.000Z</time>
</trkpt>
<trkpt lat="57.585643" lon="10.162154">
<ele>5.361303</ele>
<time>2026-07-17T09:11:23.000Z</time>
</trkpt>
<trkpt lat="57.585635" lon="10.162258">
<ele>5.366080</ele>
<time>2026-07-17T09:11:24.000Z</time>
</trkpt>
<trkpt lat="57.585629" lon="10.162369">
<ele>5.374449</ele>
<time>2026-07-17T09:11:25.000Z</time>
</trkpt>
<trkpt lat="57.585628" lon="10.162478">
<ele>5.397187</ele>
<time>2026-07-17T09:11:26.000Z</time>
</trkpt>
<trkpt lat="57.585624" lon="10.162591">
<ele>5.420808</ele>
<time>2026-07-17T09:11:27.000Z</time>
</trkpt>
<trkpt lat="57.585621" lon="10.162697">
<ele>5.442948</ele>
<time>2026-07-17T09:11:28.000Z</time>
</trkpt>
<trkpt lat="57.585617" lon="10.162815">
<ele>5.467609</ele>
<time>2026-07-17T09:11:29.000Z</time>
</trkpt>
<trkpt lat="57.585613" lon="10.162931">
<ele>5.491854</ele>
<time>2026-07-17T09:11:30.000Z</time>
</trkpt>
<trkpt lat="57.585613" lon="10.163052">
<ele>5.517092</ele>
<time>2026-07-17T09:11:31.000Z</time>
</trkpt>
<trkpt lat="57.585605" lon="10.163159">
<ele>5.539626</ele>
<time>2026-07-17T09:11:32.000Z</time>
</trkpt>
<trkpt lat="57.585601" lon="10.163277">
<ele>5.564288</ele>
<time>2026-07-17T09:11:33.000Z</time>
</trkpt>
<trkpt lat="57.585598" lon="10.163389">
<ele>5.587677</ele>
<time>2026-07-17T09:11:34.000Z</time>
</trkpt>
<trkpt lat="57.585598" lon="10.163507">
<ele>5.612290</ele>
<time>2026-07-17T09:11:35.000Z</time>
</trkpt>
<trkpt lat="57.585598" lon="10.163623">
<ele>5.636485</ele>
<time>2026-07-17T09:11:36.000Z</time>
</trkpt>
<trkpt lat="57.585602" lon="10.163735">
<ele>5.659897</ele>
<time>2026-07-17T09:11:37.000Z</time>
</trkpt>
<trkpt lat="57.585602" lon="10.163852">
<ele>5.684301</ele>
<time>2026-07-17T09:11:38.000Z</time>
</trkpt>
<trkpt lat="57.585602" lon="10.163969">
<ele>5.708704</ele>
<time>2026-07-17T09:11:39.000Z</time>
</trkpt>
<trkpt lat="57.585602" lon="10.164089">
<ele>5.733734</ele>
<time>2026-07-17T09:11:40.000Z</time>
</trkpt>
<trkpt lat="57.585602" lon="10.164214">
<ele>5.759806</ele>
<time>2026-07-17T09:11:41.000Z</time>
</trkpt>
<trkpt lat="57.585602" lon="10.164334">
<ele>5.784835</ele>
<time>2026-07-17T09:11:42.000Z</time>
</trkpt>
<trkpt lat="57.585602" lon="10.164451">
<ele>5.809239</ele>
<time>2026-07-17T09:11:43.000Z</time>
</trkpt>
<trkpt lat="57.585602" lon="10.164558">
<ele>5.831557</ele>
<time>2026-07-17T09:11:44.000Z</time>
</trkpt>
<trkpt lat="57.585602" lon="10.164674">
<ele>5.855752</ele>
<time>2026-07-17T09:11:45.000Z</time>
</trkpt>
<trkpt lat="57.585606" lon="10.164792">
<ele>5.880413</ele>
<time>2026-07-17T09:11:46.000Z</time>
</trkpt>
<trkpt lat="57.585606" lon="10.164898">
<ele>5.902522</ele>
<time>2026-07-17T09:11:47.000Z</time>
</trkpt>
<trkpt lat="57.585605" lon="10.164999">
<ele>5.923592</ele>
<time>2026-07-17T09:11:48.000Z</time>
</trkpt>
<trkpt lat="57.585603" lon="10.165104">
<ele>5.945507</ele>
<time>2026-07-17T09:11:49.000Z</time>
</trkpt>
<trkpt lat="57.585610" lon="10.165200">
<ele>5.965715</ele>
<time>2026-07-17T09:11:50.000Z</time>
</trkpt>
<trkpt lat="57.585614" lon="10.165298">
<ele>5.986215</ele>
<time>2026-07-17T09:11:51.000Z</time>
</trkpt>
<trkpt lat="57.585625" lon="10.165394">
<ele>6.006690</ele>
<time>2026-07-17T09:11:52.000Z</time>
</trkpt>
<trkpt lat="57.585625" lon="10.165490">
<ele>6.026714</ele>
<time>2026-07-17T09:11:53.000Z</time>
</trkpt>
<trkpt lat="57.585629" lon="10.165590">
<ele>6.047630</ele>
<time>2026-07-17T09:11:54.000Z</time>
</trkpt>
<trkpt lat="57.585633" lon="10.165678">
<ele>6.066050</ele>
<time>2026-07-17T09:11:55.000Z</time>
</trkpt>
<trkpt lat="57.585636" lon="10.165763">
<ele>6.068318</ele>
<time>2026-07-17T09:11:56.000Z</time>
</trkpt>
<trkpt lat="57.585640" lon="10.165843">
<ele>6.066137</ele>
<time>2026-07-17T09:11:57.000Z</time>
</trkpt>
<trkpt lat="57.585640" lon="10.165917">
<ele>6.064128</ele>
<time>2026-07-17T09:11:58.000Z</time>
</trkpt>
<trkpt lat="57.585640" lon="10.166006">
<ele>6.061713</ele>
<time>2026-07-17T09:11:59.000Z</time>
</trkpt>
<trkpt lat="57.585640" lon="10.166085">
<ele>6.059569</ele>
<time>2026-07-17T09:12:00.000Z</time>
</trkpt>
<trkpt lat="57.585640" lon="10.166164">
<ele>6.057425</ele>
<time>2026-07-17T09:12:01.000Z</time>
</trkpt>
<trkpt lat="57.585640" lon="10.166236">
<ele>6.055470</ele>
<time>2026-07-17T09:12:02.000Z</time>
</trkpt>
<trkpt lat="57.585644" lon="10.166309">
<ele>6.053479</ele>
<time>2026-07-17T09:12:03.000Z</time>
</trkpt>
<trkpt lat="57.585643" lon="10.166374">
<ele>6.051714</ele>
<time>2026-07-17T09:12:04.000Z</time>
</trkpt>
<trkpt lat="57.585640" lon="10.166431">
<ele>6.050159</ele>
<time>2026-07-17T09:12:05.000Z</time>
</trkpt>
<trkpt lat="57.585645" lon="10.166485">
<ele>6.048672</ele>
<time>2026-07-17T09:12:06.000Z</time>
</trkpt>
<trkpt lat="57.585652" lon="10.166551">
<ele>6.046846</ele>
<time>2026-07-17T09:12:07.000Z</time>
</trkpt>
<trkpt lat="57.585655" lon="10.166619">
<ele>6.044994</ele>
<time>2026-07-17T09:12:08.000Z</time>
</trkpt>
<trkpt lat="57.585656" lon="10.166687">
<ele>6.043148</ele>
<time>2026-07-17T09:12:09.000Z</time>
</trkpt>
<trkpt lat="57.585659" lon="10.166746">
<ele>6.041540</ele>
<time>2026-07-17T09:12:10.000Z</time>
</trkpt>
<trkpt lat="57.585663" lon="10.166821">
<ele>6.039494</ele>
<time>2026-07-17T09:12:11.000Z</time>
</trkpt>
<trkpt lat="57.585663" lon="10.166896">
<ele>6.037458</ele>
<time>2026-07-17T09:12:12.000Z</time>
</trkpt>
<trkpt lat="57.585668" lon="10.166984">
<ele>6.035057</ele>
<time>2026-07-17T09:12:13.000Z</time>
</trkpt>
<trkpt lat="57.585675" lon="10.167065">
<ele>6.032830</ele>
<time>2026-07-17T09:12:14.000Z</time>
</trkpt>
<trkpt lat="57.585678" lon="10.167153">
<ele>6.030436</ele>
<time>2026-07-17T09:12:15.000Z</time>
</trkpt>
<trkpt lat="57.585678" lon="10.167246">
<ele>6.027912</ele>
<time>2026-07-17T09:12:16.000Z</time>
</trkpt>
<trkpt lat="57.585679" lon="10.167345">
<ele>6.025225</ele>
<time>2026-07-17T09:12:17.000Z</time>
</trkpt>
<trkpt lat="57.585686" lon="10.167440">
<ele>6.022622</ele>
<time>2026-07-17T09:12:18.000Z</time>
</trkpt>
<trkpt lat="57.585689" lon="10.167536">
<ele>6.020012</ele>
<time>2026-07-17T09:12:19.000Z</time>
</trkpt>
<trkpt lat="57.585685" lon="10.167639">
<ele>6.017209</ele>
<time>2026-07-17T09:12:20.000Z</time>
</trkpt>
<trkpt lat="57.585681" lon="10.167757">
<ele>6.014000</ele>
<time>2026-07-17T09:12:21.000Z</time>
</trkpt>
<trkpt lat="57.585678" lon="10.167876">
<ele>6.010767</ele>
<time>2026-07-17T09:12:22.000Z</time>
</trkpt>
<trkpt lat="57.585678" lon="10.167993">
<ele>6.007592</ele>
<time>2026-07-17T09:12:23.000Z</time>
</trkpt>
<trkpt lat="57.585679" lon="10.168108">
<ele>6.004470</ele>
<time>2026-07-17T09:12:24.000Z</time>
</trkpt>
<trkpt lat="57.585682" lon="10.168218">
<ele>6.001481</ele>
<time>2026-07-17T09:12:25.000Z</time>
</trkpt>
<trkpt lat="57.585683" lon="10.168324">
<ele>5.998603</ele>
<time>2026-07-17T09:12:26.000Z</time>
</trkpt>
<trkpt lat="57.585690" lon="10.168432">
<ele>5.995651</ele>
<time>2026-07-17T09:12:27.000Z</time>
</trkpt>
<trkpt lat="57.585694" lon="10.168542">
<ele>5.992658</ele>
<time>2026-07-17T09:12:28.000Z</time>
</trkpt>
<trkpt lat="57.585701" lon="10.168654">
<ele>5.989598</ele>
<time>2026-07-17T09:12:29.000Z</time>
</trkpt>
<trkpt lat="57.585705" lon="10.168756">
<ele>5.986822</ele>
<time>2026-07-17T09:12:30.000Z</time>
</trkpt>
<trkpt lat="57.585709" lon="10.168859">
<ele>5.984019</ele>
<time>2026-07-17T09:12:31.000Z</time>
</trkpt>
<trkpt lat="57.585716" lon="10.168956">
<ele>5.981363</ele>
<time>2026-07-17T09:12:32.000Z</time>
</trkpt>
<trkpt lat="57.585717" lon="10.169057">
<ele>5.981397</ele>
<time>2026-07-17T09:12:33.000Z</time>
</trkpt>
<trkpt lat="57.585720" lon="10.169164">
<ele>5.998118</ele>
<time>2026-07-17T09:12:34.000Z</time>
</trkpt>
<trkpt lat="57.585720" lon="10.169270">
<ele>6.014661</ele>
<time>2026-07-17T09:12:35.000Z</time>
</trkpt>
<trkpt lat="57.585724" lon="10.169383">
<ele>6.032335</ele>
<time>2026-07-17T09:12:36.000Z</time>
</trkpt>
<trkpt lat="57.585724" lon="10.169501">
<ele>6.050750</ele>
<time>2026-07-17T09:12:37.000Z</time>
</trkpt>
<trkpt lat="57.585728" lon="10.169617">
<ele>6.068891</ele>
<time>2026-07-17T09:12:38.000Z</time>
</trkpt>
<trkpt lat="57.585732" lon="10.169730">
<ele>6.086565</ele>
<time>2026-07-17T09:12:39.000Z</time>
</trkpt>
<trkpt lat="57.585732" lon="10.169847">
<ele>6.104824</ele>
<time>2026-07-17T09:12:40.000Z</time>
</trkpt>
<trkpt lat="57.585740" lon="10.169956">
<ele>6.121994</ele>
<time>2026-07-17T09:12:41.000Z</time>
</trkpt>
<trkpt lat="57.585747" lon="10.170065">
<ele>6.139126</ele>
<time>2026-07-17T09:12:42.000Z</time>
</trkpt>
<trkpt lat="57.585755" lon="10.170179">
<ele>6.157070</ele>
<time>2026-07-17T09:12:43.000Z</time>
</trkpt>
<trkpt lat="57.585759" lon="10.170293">
<ele>6.174899</ele>
<time>2026-07-17T09:12:44.000Z</time>
</trkpt>
<trkpt lat="57.585766" lon="10.170411">
<ele>6.193427</ele>
<time>2026-07-17T09:12:45.000Z</time>
</trkpt>
<trkpt lat="57.585770" lon="10.170519">
<ele>6.210322</ele>
<time>2026-07-17T09:12:46.000Z</time>
</trkpt>
<trkpt lat="57.585774" lon="10.170660">
<ele>6.232358</ele>
<time>2026-07-17T09:12:47.000Z</time>
</trkpt>
<trkpt lat="57.585778" lon="10.170773">
<ele>6.250031</ele>
<time>2026-07-17T09:12:48.000Z</time>
</trkpt>
<trkpt lat="57.585781" lon="10.170887">
<ele>6.267844</ele>
<time>2026-07-17T09:12:49.000Z</time>
</trkpt>
<trkpt lat="57.585776" lon="10.170985">
<ele>6.283207</ele>
<time>2026-07-17T09:12:50.000Z</time>
</trkpt>
<trkpt lat="57.585761" lon="10.171061">
<ele>6.295847</ele>
<time>2026-07-17T09:12:51.000Z</time>
</trkpt>
<trkpt lat="57.585742" lon="10.171132">
<ele>6.308231</ele>
<time>2026-07-17T09:12:52.000Z</time>
</trkpt>
<trkpt lat="57.585695" lon="10.171159">
<ele>6.322549</ele>
<time>2026-07-17T09:12:53.000Z</time>
</trkpt>
<trkpt lat="57.585650" lon="10.171160">
<ele>6.335651</ele>
<time>2026-07-17T09:12:54.000Z</time>
</trkpt>
<trkpt lat="57.585603" lon="10.171144">
<ele>6.349561</ele>
<time>2026-07-17T09:12:55.000Z</time>
</trkpt>
<trkpt lat="57.585555" lon="10.171117">
<ele>6.364158</ele>
<time>2026-07-17T09:12:56.000Z</time>
</trkpt>
<trkpt lat="57.585506" lon="10.171098">
<ele>6.378728</ele>
<time>2026-07-17T09:12:57.000Z</time>
</trkpt>
<trkpt lat="57.585463" lon="10.171085">
<ele>6.391411</ele>
<time>2026-07-17T09:12:58.000Z</time>
</trkpt>
<trkpt lat="57.585418" lon="10.171084">
<ele>6.404513</ele>
<time>2026-07-17T09:12:59.000Z</time>
</trkpt>
<trkpt lat="57.585373" lon="10.171092">
<ele>6.417674</ele>
<time>2026-07-17T09:13:00.000Z</time>
</trkpt>
<trkpt lat="57.585338" lon="10.171111">
<ele>6.428287</ele>
<time>2026-07-17T09:13:01.000Z</time>
</trkpt>
<trkpt lat="57.585306" lon="10.171135">
<ele>6.438328</ele>
<time>2026-07-17T09:13:02.000Z</time>
</trkpt>
<trkpt lat="57.585284" lon="10.171159">
<ele>6.445748</ele>
<time>2026-07-17T09:13:03.000Z</time>
</trkpt>
<trkpt lat="57.585274" lon="10.171179">
<ele>6.450017</ele>
<time>2026-07-17T09:13:04.000Z</time>
</trkpt>
<trkpt lat="57.585269" lon="10.171217">
<ele>6.456123</ele>
<time>2026-07-17T09:13:05.000Z</time>
</trkpt>
<trkpt lat="57.585266" lon="10.171267">
<ele>6.463975</ele>
<time>2026-07-17T09:13:06.000Z</time>
</trkpt>
<trkpt lat="57.585267" lon="10.171327">
<ele>6.473344</ele>
<time>2026-07-17T09:13:07.000Z</time>
</trkpt>
<trkpt lat="57.585271" lon="10.171390">
<ele>6.483245</ele>
<time>2026-07-17T09:13:08.000Z</time>
</trkpt>
<trkpt lat="57.585282" lon="10.171449">
<ele>6.492993</ele>
<time>2026-07-17T09:13:09.000Z</time>
</trkpt>
<trkpt lat="57.585285" lon="10.171508">
<ele>6.502243</ele>
<time>2026-07-17T09:13:10.000Z</time>
</trkpt>
<trkpt lat="57.585285" lon="10.171556">
<ele>6.497191</ele>
<time>2026-07-17T09:13:11.000Z</time>
</trkpt>
<trkpt lat="57.585285" lon="10.171627">
<ele>6.488523</ele>
<time>2026-07-17T09:13:12.000Z</time>
</trkpt>
<trkpt lat="57.585285" lon="10.171683">
<ele>6.481687</ele>
<time>2026-07-17T09:13:13.000Z</time>
</trkpt>
<trkpt lat="57.585281" lon="10.171738">
<ele>6.474911</ele>
<time>2026-07-17T09:13:14.000Z</time>
</trkpt>
<trkpt lat="57.585277" lon="10.171767">
<ele>6.471256</ele>
<time>2026-07-17T09:13:15.000Z</time>
</trkpt>
<trkpt lat="57.585262" lon="10.171788">
<ele>6.466984</ele>
<time>2026-07-17T09:13:34.000Z</time>
</trkpt>
<trkpt lat="57.585259" lon="10.171773">
<ele>6.465030</ele>
<time>2026-07-17T09:13:35.000Z</time>
</trkpt>
<trkpt lat="57.585262" lon="10.171750">
<ele>6.462140</ele>
<time>2026-07-17T09:13:36.000Z</time>
</trkpt>
<trkpt lat="57.585262" lon="10.171728">
<ele>6.459454</ele>
<time>2026-07-17T09:13:37.000Z</time>
</trkpt>
<trkpt lat="57.585262" lon="10.171698">
<ele>6.455792</ele>
<time>2026-07-17T09:13:38.000Z</time>
</trkpt>
<trkpt lat="57.585266" lon="10.171668">
<ele>6.452018</ele>
<time>2026-07-17T09:13:39.000Z</time>
</trkpt>
<trkpt lat="57.585262" lon="10.171628">
<ele>6.447051</ele>
<time>2026-07-17T09:13:40.000Z</time>
</trkpt>
<trkpt lat="57.585258" lon="10.171579">
<ele>6.441000</ele>
<time>2026-07-17T09:13:41.000Z</time>
</trkpt>
<trkpt lat="57.585254" lon="10.171531">
<ele>6.435070</ele>
<time>2026-07-17T09:13:42.000Z</time>
</trkpt>
<trkpt lat="57.585250" lon="10.171484">
<ele>6.429260</ele>
<time>2026-07-17T09:13:43.000Z</time>
</trkpt>
<trkpt lat="57.585242" lon="10.171445">
<ele>6.424162</ele>
<time>2026-07-17T09:13:44.000Z</time>
</trkpt>
<trkpt lat="57.585230" lon="10.171409">
<ele>6.418987</ele>
<time>2026-07-17T09:13:45.000Z</time>
</trkpt>
<trkpt lat="57.585215" lon="10.171387">
<ele>6.414642</ele>
<time>2026-07-17T09:13:46.000Z</time>
</trkpt>
<trkpt lat="57.585192" lon="10.171368">
<ele>6.408913</ele>
<time>2026-07-17T09:13:47.000Z</time>
</trkpt>
<trkpt lat="57.585161" lon="10.171342">
<ele>6.401172</ele>
<time>2026-07-17T09:13:48.000Z</time>
</trkpt>
<trkpt lat="57.585129" lon="10.171314">
<ele>6.393123</ele>
<time>2026-07-17T09:13:49.000Z</time>
</trkpt>
<trkpt lat="57.585094" lon="10.171283">
<ele>6.384299</ele>
<time>2026-07-17T09:13:50.000Z</time>
</trkpt>
<trkpt lat="57.585057" lon="10.171253">
<ele>6.375111</ele>
<time>2026-07-17T09:13:51.000Z</time>
</trkpt>
<trkpt lat="57.585014" lon="10.171224">
<ele>6.364698</ele>
<time>2026-07-17T09:13:52.000Z</time>
</trkpt>
<trkpt lat="57.584971" lon="10.171199">
<ele>6.354440</ele>
<time>2026-07-17T09:13:53.000Z</time>
</trkpt>
<trkpt lat="57.584926" lon="10.171172">
<ele>6.343675</ele>
<time>2026-07-17T09:13:54.000Z</time>
</trkpt>
<trkpt lat="57.584883" lon="10.171146">
<ele>6.333381</ele>
<time>2026-07-17T09:13:55.000Z</time>
</trkpt>
<trkpt lat="57.584834" lon="10.171119">
<ele>6.321745</ele>
<time>2026-07-17T09:13:56.000Z</time>
</trkpt>
<trkpt lat="57.584788" lon="10.171094">
<ele>6.310833</ele>
<time>2026-07-17T09:13:57.000Z</time>
</trkpt>
<trkpt lat="57.584742" lon="10.171069">
<ele>6.299922</ele>
<time>2026-07-17T09:13:58.000Z</time>
</trkpt>
<trkpt lat="57.584692" lon="10.171040">
<ele>6.287997</ele>
<time>2026-07-17T09:13:59.000Z</time>
</trkpt>
<trkpt lat="57.584643" lon="10.171010">
<ele>6.276252</ele>
<time>2026-07-17T09:14:00.000Z</time>
</trkpt>
<trkpt lat="57.584594" lon="10.170982">
<ele>6.264581</ele>
<time>2026-07-17T09:14:01.000Z</time>
</trkpt>
<trkpt lat="57.584548" lon="10.170956">
<ele>6.253634</ele>
<time>2026-07-17T09:14:02.000Z</time>
</trkpt>
<trkpt lat="57.584498" lon="10.170929">
<ele>6.241780</ele>
<time>2026-07-17T09:14:03.000Z</time>
</trkpt>
<trkpt lat="57.584448" lon="10.170902">
<ele>6.229925</ele>
<time>2026-07-17T09:14:04.000Z</time>
</trkpt>
<trkpt lat="57.584397" lon="10.170875">
<ele>6.217852</ele>
<time>2026-07-17T09:14:05.000Z</time>
</trkpt>
<trkpt lat="57.584344" lon="10.170844">
<ele>6.205202</ele>
<time>2026-07-17T09:14:06.000Z</time>
</trkpt>
<trkpt lat="57.584292" lon="10.170815">
<ele>6.192842</ele>
<time>2026-07-17T09:14:07.000Z</time>
</trkpt>
<trkpt lat="57.584238" lon="10.170787">
<ele>6.180078</ele>
<time>2026-07-17T09:14:08.000Z</time>
</trkpt>
<trkpt lat="57.584185" lon="10.170759">
<ele>6.167533</ele>
<time>2026-07-17T09:14:09.000Z</time>
</trkpt>
<trkpt lat="57.584132" lon="10.170733">
<ele>6.155052</ele>
<time>2026-07-17T09:14:10.000Z</time>
</trkpt>
<trkpt lat="57.584078" lon="10.170706">
<ele>6.142320</ele>
<time>2026-07-17T09:14:11.000Z</time>
</trkpt>
<trkpt lat="57.584024" lon="10.170677">
<ele>6.129522</ele>
<time>2026-07-17T09:14:12.000Z</time>
</trkpt>
<trkpt lat="57.583967" lon="10.170648">
<ele>6.116067</ele>
<time>2026-07-17T09:14:13.000Z</time>
</trkpt>
<trkpt lat="57.583916" lon="10.170622">
<ele>6.104026</ele>
<time>2026-07-17T09:14:14.000Z</time>
</trkpt>
<trkpt lat="57.583860" lon="10.170594">
<ele>6.093421</ele>
<time>2026-07-17T09:14:15.000Z</time>
</trkpt>
<trkpt lat="57.583807" lon="10.170569">
<ele>6.095356</ele>
<time>2026-07-17T09:14:16.000Z</time>
</trkpt>
<trkpt lat="57.583749" lon="10.170546">
<ele>6.097455</ele>
<time>2026-07-17T09:14:17.000Z</time>
</trkpt>
<trkpt lat="57.583697" lon="10.170521">
<ele>6.099355</ele>
<time>2026-07-17T09:14:18.000Z</time>
</trkpt>
<trkpt lat="57.583645" lon="10.170496">
<ele>6.101256</ele>
<time>2026-07-17T09:14:19.000Z</time>
</trkpt>
<trkpt lat="57.583592" lon="10.170470">
<ele>6.103196</ele>
<time>2026-07-17T09:14:20.000Z</time>
</trkpt>
<trkpt lat="57.583536" lon="10.170443">
<ele>6.105243</ele>
<time>2026-07-17T09:14:21.000Z</time>
</trkpt>
<trkpt lat="57.583483" lon="10.170416">
<ele>6.107188</ele>
<time>2026-07-17T09:14:22.000Z</time>
</trkpt>
<trkpt lat="57.583427" lon="10.170390">
<ele>6.109230</ele>
<time>2026-07-17T09:14:23.000Z</time>
</trkpt>
<trkpt lat="57.583373" lon="10.170364">
<ele>6.111204</ele>
<time>2026-07-17T09:14:24.000Z</time>
</trkpt>
<trkpt lat="57.583319" lon="10.170337">
<ele>6.113183</ele>
<time>2026-07-17T09:14:25.000Z</time>
</trkpt>
<trkpt lat="57.583265" lon="10.170310">
<ele>6.115162</ele>
<time>2026-07-17T09:14:26.000Z</time>
</trkpt>
<trkpt lat="57.583212" lon="10.170284">
<ele>6.117102</ele>
<time>2026-07-17T09:14:27.000Z</time>
</trkpt>
<trkpt lat="57.583159" lon="10.170259">
<ele>6.119037</ele>
<time>2026-07-17T09:14:28.000Z</time>
</trkpt>
<trkpt lat="57.583106" lon="10.170231">
<ele>6.120986</ele>
<time>2026-07-17T09:14:29.000Z</time>
</trkpt>
<trkpt lat="57.583053" lon="10.170206">
<ele>6.122921</ele>
<time>2026-07-17T09:14:30.000Z</time>
</trkpt>
<trkpt lat="57.583010" lon="10.170186">
<ele>6.124490</ele>
<time>2026-07-17T09:14:31.000Z</time>
</trkpt>
<trkpt lat="57.582946" lon="10.170154">
<ele>6.126835</ele>
<time>2026-07-17T09:14:32.000Z</time>
</trkpt>
<trkpt lat="57.582909" lon="10.170136">
<ele>6.128189</ele>
<time>2026-07-17T09:14:33.000Z</time>
</trkpt>
<trkpt lat="57.582839" lon="10.170102">
<ele>6.130749</ele>
<time>2026-07-17T09:14:34.000Z</time>
</trkpt>
<trkpt lat="57.582788" lon="10.170076">
<ele>6.132620</ele>
<time>2026-07-17T09:14:35.000Z</time>
</trkpt>
<trkpt lat="57.582735" lon="10.170051">
<ele>6.134555</ele>
<time>2026-07-17T09:14:36.000Z</time>
</trkpt>
<trkpt lat="57.582682" lon="10.170027">
<ele>6.136486</ele>
<time>2026-07-17T09:14:37.000Z</time>
</trkpt>
<trkpt lat="57.582629" lon="10.170004">
<ele>6.138412</ele>
<time>2026-07-17T09:14:38.000Z</time>
</trkpt>
<trkpt lat="57.582580" lon="10.169980">
<ele>6.140205</ele>
<time>2026-07-17T09:14:39.000Z</time>
</trkpt>
<trkpt lat="57.582528" lon="10.169954">
<ele>6.142110</ele>
<time>2026-07-17T09:14:40.000Z</time>
</trkpt>
<trkpt lat="57.582472" lon="10.169926">
<ele>6.144163</ele>
<time>2026-07-17T09:14:41.000Z</time>
</trkpt>
<trkpt lat="57.582423" lon="10.169901">
<ele>6.145961</ele>
<time>2026-07-17T09:14:42.000Z</time>
</trkpt>
<trkpt lat="57.582369" lon="10.169876">
<ele>6.147930</ele>
<time>2026-07-17T09:14:43.000Z</time>
</trkpt>
<trkpt lat="57.582317" lon="10.169853">
<ele>6.149821</ele>
<time>2026-07-17T09:14:44.000Z</time>
</trkpt>
<trkpt lat="57.582263" lon="10.169828">
<ele>6.151791</ele>
<time>2026-07-17T09:14:45.000Z</time>
</trkpt>
<trkpt lat="57.582212" lon="10.169802">
<ele>6.153662</ele>
<time>2026-07-17T09:14:46.000Z</time>
</trkpt>
<trkpt lat="57.582160" lon="10.169777">
<ele>6.155563</ele>
<time>2026-07-17T09:14:47.000Z</time>
</trkpt>
<trkpt lat="57.582112" lon="10.169752">
<ele>6.166253</ele>
<time>2026-07-17T09:14:48.000Z</time>
</trkpt>
<trkpt lat="57.582061" lon="10.169728">
<ele>6.196181</ele>
<time>2026-07-17T09:14:49.000Z</time>
</trkpt>
<trkpt lat="57.582011" lon="10.169706">
<ele>6.225412</ele>
<time>2026-07-17T09:14:50.000Z</time>
</trkpt>
<trkpt lat="57.581965" lon="10.169683">
<ele>6.252510</ele>
<time>2026-07-17T09:14:51.000Z</time>
</trkpt>
<trkpt lat="57.581911" lon="10.169656">
<ele>6.284320</ele>
<time>2026-07-17T09:14:52.000Z</time>
</trkpt>
<trkpt lat="57.581859" lon="10.169630">
<ele>6.314953</ele>
<time>2026-07-17T09:14:53.000Z</time>
</trkpt>
<trkpt lat="57.581808" lon="10.169604">
<ele>6.345036</ele>
<time>2026-07-17T09:14:54.000Z</time>
</trkpt>
<trkpt lat="57.581755" lon="10.169579">
<ele>6.376142</ele>
<time>2026-07-17T09:14:55.000Z</time>
</trkpt>
<trkpt lat="57.581705" lon="10.169556">
<ele>6.405445</ele>
<time>2026-07-17T09:14:56.000Z</time>
</trkpt>
<trkpt lat="57.581653" lon="10.169532">
<ele>6.435925</ele>
<time>2026-07-17T09:14:57.000Z</time>
</trkpt>
<trkpt lat="57.581603" lon="10.169507">
<ele>6.465379</ele>
<time>2026-07-17T09:14:58.000Z</time>
</trkpt>
<trkpt lat="57.581553" lon="10.169483">
<ele>6.494756</ele>
<time>2026-07-17T09:14:59.000Z</time>
</trkpt>
<trkpt lat="57.581501" lon="10.169459">
<ele>6.525236</ele>
<time>2026-07-17T09:15:00.000Z</time>
</trkpt>
<trkpt lat="57.581451" lon="10.169437">
<ele>6.554467</ele>
<time>2026-07-17T09:15:01.000Z</time>
</trkpt>
<trkpt lat="57.581397" lon="10.169411">
<ele>6.586200</ele>
<time>2026-07-17T09:15:02.000Z</time>
</trkpt>
<trkpt lat="57.581347" lon="10.169386">
<ele>6.615654</ele>
<time>2026-07-17T09:15:03.000Z</time>
</trkpt>
<trkpt lat="57.581297" lon="10.169361">
<ele>6.645109</ele>
<time>2026-07-17T09:15:04.000Z</time>
</trkpt>
<trkpt lat="57.581244" lon="10.169338">
<ele>6.676071</ele>
<time>2026-07-17T09:15:05.000Z</time>
</trkpt>
<trkpt lat="57.581194" lon="10.169314">
<ele>6.705448</ele>
<time>2026-07-17T09:15:06.000Z</time>
</trkpt>
<trkpt lat="57.581145" lon="10.169289">
<ele>6.734353</ele>
<time>2026-07-17T09:15:07.000Z</time>
</trkpt>
<trkpt lat="57.581095" lon="10.169264">
<ele>6.763807</ele>
<time>2026-07-17T09:15:08.000Z</time>
</trkpt>
<trkpt lat="57.581046" lon="10.169238">
<ele>6.792795</ele>
<time>2026-07-17T09:15:09.000Z</time>
</trkpt>
<trkpt lat="57.580997" lon="10.169215">
<ele>6.821545</ele>
<time>2026-07-17T09:15:10.000Z</time>
</trkpt>
<trkpt lat="57.580948" lon="10.169192">
<ele>6.850295</ele>
<time>2026-07-17T09:15:11.000Z</time>
</trkpt>
<trkpt lat="57.580899" lon="10.169169">
<ele>6.879045</ele>
<time>2026-07-17T09:15:12.000Z</time>
</trkpt>
<trkpt lat="57.580852" lon="10.169144">
<ele>6.906854</ele>
<time>2026-07-17T09:15:13.000Z</time>
</trkpt>
<trkpt lat="57.580802" lon="10.169121">
<ele>6.936157</ele>
<time>2026-07-17T09:15:14.000Z</time>
</trkpt>
<trkpt lat="57.580753" lon="10.169098">
<ele>6.964907</ele>
<time>2026-07-17T09:15:15.000Z</time>
</trkpt>
<trkpt lat="57.580708" lon="10.169077">
<ele>6.991301</ele>
<time>2026-07-17T09:15:16.000Z</time>
</trkpt>
<trkpt lat="57.580653" lon="10.169051">
<ele>7.023585</ele>
<time>2026-07-17T09:15:17.000Z</time>
</trkpt>
<trkpt lat="57.580604" lon="10.169030">
<ele>7.052193</ele>
<time>2026-07-17T09:15:18.000Z</time>
</trkpt>
<trkpt lat="57.580555" lon="10.169006">
<ele>7.081019</ele>
<time>2026-07-17T09:15:19.000Z</time>
</trkpt>
<trkpt lat="57.580505" lon="10.168981">
<ele>7.110473</ele>
<time>2026-07-17T09:15:20.000Z</time>
</trkpt>
<trkpt lat="57.580457" lon="10.168956">
<ele>7.138830</ele>
<time>2026-07-17T09:15:21.000Z</time>
</trkpt>
<trkpt lat="57.580406" lon="10.168933">
<ele>7.168685</ele>
<time>2026-07-17T09:15:22.000Z</time>
</trkpt>
<trkpt lat="57.580359" lon="10.168911">
<ele>7.190657</ele>
<time>2026-07-17T09:15:23.000Z</time>
</trkpt>
<trkpt lat="57.580310" lon="10.168891">
<ele>7.209267</ele>
<time>2026-07-17T09:15:24.000Z</time>
</trkpt>
<trkpt lat="57.580260" lon="10.168870">
<ele>7.228282</ele>
<time>2026-07-17T09:15:25.000Z</time>
</trkpt>
<trkpt lat="57.580208" lon="10.168852">
<ele>7.247905</ele>
<time>2026-07-17T09:15:26.000Z</time>
</trkpt>
<trkpt lat="57.580157" lon="10.168829">
<ele>7.267372</ele>
<time>2026-07-17T09:15:27.000Z</time>
</trkpt>
<trkpt lat="57.580112" lon="10.168804">
<ele>7.284792</ele>
<time>2026-07-17T09:15:28.000Z</time>
</trkpt>
<trkpt lat="57.580063" lon="10.168776">
<ele>7.303806</ele>
<time>2026-07-17T09:15:29.000Z</time>
</trkpt>
<trkpt lat="57.580016" lon="10.168751">
<ele>7.321939</ele>
<time>2026-07-17T09:15:30.000Z</time>
</trkpt>
<trkpt lat="57.579968" lon="10.168726">
<ele>7.340429</ele>
<time>2026-07-17T09:15:31.000Z</time>
</trkpt>
<trkpt lat="57.579917" lon="10.168701">
<ele>7.359993</ele>
<time>2026-07-17T09:15:32.000Z</time>
</trkpt>
<trkpt lat="57.579871" lon="10.168680">
<ele>7.377564</ele>
<time>2026-07-17T09:15:33.000Z</time>
</trkpt>
<trkpt lat="57.579825" lon="10.168658">
<ele>7.395183</ele>
<time>2026-07-17T09:15:34.000Z</time>
</trkpt>
<trkpt lat="57.579776" lon="10.168634">
<ele>7.413979</ele>
<time>2026-07-17T09:15:35.000Z</time>
</trkpt>
<trkpt lat="57.579727" lon="10.168609">
<ele>7.432826</ele>
<time>2026-07-17T09:15:36.000Z</time>
</trkpt>
<trkpt lat="57.579681" lon="10.168582">
<ele>7.450718</ele>
<time>2026-07-17T09:15:37.000Z</time>
</trkpt>
<trkpt lat="57.579632" lon="10.168554">
<ele>7.469732</ele>
<time>2026-07-17T09:15:38.000Z</time>
</trkpt>
<trkpt lat="57.579588" lon="10.168524">
<ele>7.487113</ele>
<time>2026-07-17T09:15:39.000Z</time>
</trkpt>
<trkpt lat="57.579545" lon="10.168502">
<ele>7.503656</ele>
<time>2026-07-17T09:15:40.000Z</time>
</trkpt>
<trkpt lat="57.579508" lon="10.168511">
<ele>7.517500</ele>
<time>2026-07-17T09:15:41.000Z</time>
</trkpt>
<trkpt lat="57.579482" lon="10.168562">
<ele>7.531499</ele>
<time>2026-07-17T09:15:42.000Z</time>
</trkpt>
<trkpt lat="57.579467" lon="10.168629">
<ele>7.545941</ele>
<time>2026-07-17T09:15:43.000Z</time>
</trkpt>
<trkpt lat="57.579460" lon="10.168708">
<ele>7.561869</ele>
<time>2026-07-17T09:15:44.000Z</time>
</trkpt>
<trkpt lat="57.579460" lon="10.168779">
<ele>7.575992</ele>
<time>2026-07-17T09:15:45.000Z</time>
</trkpt>
<trkpt lat="57.579460" lon="10.168869">
<ele>7.593894</ele>
<time>2026-07-17T09:15:46.000Z</time>
</trkpt>
<trkpt lat="57.579464" lon="10.168946">
<ele>7.609282</ele>
<time>2026-07-17T09:15:47.000Z</time>
</trkpt>
<trkpt lat="57.579468" lon="10.169037">
<ele>7.627444</ele>
<time>2026-07-17T09:15:48.000Z</time>
</trkpt>
<trkpt lat="57.579472" lon="10.169122">
<ele>7.644416</ele>
<time>2026-07-17T09:15:49.000Z</time>
</trkpt>
<trkpt lat="57.579480" lon="10.169202">
<ele>7.660604</ele>
<time>2026-07-17T09:15:50.000Z</time>
</trkpt>
<trkpt lat="57.579483" lon="10.169285">
<ele>7.677151</ele>
<time>2026-07-17T09:15:51.000Z</time>
</trkpt>
<trkpt lat="57.579487" lon="10.169367">
<ele>7.693529</ele>
<time>2026-07-17T09:15:52.000Z</time>
</trkpt>
<trkpt lat="57.579495" lon="10.169459">
<ele>7.712068</ele>
<time>2026-07-17T09:15:53.000Z</time>
</trkpt>
<trkpt lat="57.579499" lon="10.169554">
<ele>7.731023</ele>
<time>2026-07-17T09:15:54.000Z</time>
</trkpt>
<trkpt lat="57.579502" lon="10.169646">
<ele>7.749357</ele>
<time>2026-07-17T09:15:55.000Z</time>
</trkpt>
<trkpt lat="57.579506" lon="10.169739">
<ele>7.767915</ele>
<time>2026-07-17T09:15:56.000Z</time>
</trkpt>
<trkpt lat="57.579510" lon="10.169832">
<ele>7.786473</ele>
<time>2026-07-17T09:15:57.000Z</time>
</trkpt>
<trkpt lat="57.579518" lon="10.169923">
<ele>7.804816</ele>
<time>2026-07-17T09:15:58.000Z</time>
</trkpt>
<trkpt lat="57.579525" lon="10.170009">
<ele>7.822119</ele>
<time>2026-07-17T09:15:59.000Z</time>
</trkpt>
<trkpt lat="57.579529" lon="10.170104">
<ele>7.841074</ele>
<time>2026-07-17T09:16:00.000Z</time>
</trkpt>
<trkpt lat="57.579533" lon="10.170197">
<ele>7.849051</ele>
<time>2026-07-17T09:16:01.000Z</time>
</trkpt>
<trkpt lat="57.579536" lon="10.170289">
<ele>7.851410</ele>
<time>2026-07-17T09:16:02.000Z</time>
</trkpt>
<trkpt lat="57.579537" lon="10.170380">
<ele>7.853739</ele>
<time>2026-07-17T09:16:03.000Z</time>
</trkpt>
<trkpt lat="57.579540" lon="10.170469">
<ele>7.856021</ele>
<time>2026-07-17T09:16:04.000Z</time>
</trkpt>
<trkpt lat="57.579544" lon="10.170563">
<ele>7.858434</ele>
<time>2026-07-17T09:16:05.000Z</time>
</trkpt>
<trkpt lat="57.579548" lon="10.170653">
<ele>7.860745</ele>
<time>2026-07-17T09:16:06.000Z</time>
</trkpt>
<trkpt lat="57.579552" lon="10.170743">
<ele>7.863056</ele>
<time>2026-07-17T09:16:07.000Z</time>
</trkpt>
<trkpt lat="57.579556" lon="10.170834">
<ele>7.865393</ele>
<time>2026-07-17T09:16:08.000Z</time>
</trkpt>
<trkpt lat="57.579559" lon="10.170903">
<ele>7.867164</ele>
<time>2026-07-17T09:16:09.000Z</time>
</trkpt>
<trkpt lat="57.579560" lon="10.171015">
<ele>7.870031</ele>
<time>2026-07-17T09:16:10.000Z</time>
</trkpt>
<trkpt lat="57.579563" lon="10.171106">
<ele>7.872364</ele>
<time>2026-07-17T09:16:11.000Z</time>
</trkpt>
<trkpt lat="57.579564" lon="10.171197">
<ele>7.874693</ele>
<time>2026-07-17T09:16:12.000Z</time>
</trkpt>
<trkpt lat="57.579571" lon="10.171288">
<ele>7.877046</ele>
<time>2026-07-17T09:16:13.000Z</time>
</trkpt>
<trkpt lat="57.579579" lon="10.171378">
<ele>7.879381</ele>
<time>2026-07-17T09:16:14.000Z</time>
</trkpt>
<trkpt lat="57.579583" lon="10.171471">
<ele>7.881768</ele>
<time>2026-07-17T09:16:15.000Z</time>
</trkpt>
<trkpt lat="57.579590" lon="10.171562">
<ele>7.884121</ele>
<time>2026-07-17T09:16:16.000Z</time>
</trkpt>
<trkpt lat="57.579594" lon="10.171655">
<ele>7.886508</ele>
<time>2026-07-17T09:16:17.000Z</time>
</trkpt>
<trkpt lat="57.579598" lon="10.171744">
<ele>7.888794</ele>
<time>2026-07-17T09:16:18.000Z</time>
</trkpt>
<trkpt lat="57.579602" lon="10.171834">
<ele>7.891105</ele>
<time>2026-07-17T09:16:19.000Z</time>
</trkpt>
<trkpt lat="57.579610" lon="10.171923">
<ele>7.893414</ele>
<time>2026-07-17T09:16:20.000Z</time>
</trkpt>
<trkpt lat="57.579616" lon="10.172011">
<ele>7.895685</ele>
<time>2026-07-17T09:16:21.000Z</time>
</trkpt>
<trkpt lat="57.579613" lon="10.172100">
<ele>7.897967</ele>
<time>2026-07-17T09:16:22.000Z</time>
</trkpt>
<trkpt lat="57.579612" lon="10.172185">
<ele>7.900142</ele>
<time>2026-07-17T09:16:23.000Z</time>
</trkpt>
<trkpt lat="57.579604" lon="10.172271">
<ele>7.902376</ele>
<time>2026-07-17T09:16:24.000Z</time>
</trkpt>
<trkpt lat="57.579584" lon="10.172345">
<ele>7.904497</ele>
<time>2026-07-17T09:16:25.000Z</time>
</trkpt>
<trkpt lat="57.579564" lon="10.172404">
<ele>7.906283</ele>
<time>2026-07-17T09:16:26.000Z</time>
</trkpt>
<trkpt lat="57.579540" lon="10.172440">
<ele>7.907753</ele>
<time>2026-07-17T09:16:27.000Z</time>
</trkpt>
<trkpt lat="57.579519" lon="10.172473">
<ele>7.909064</ele>
<time>2026-07-17T09:16:28.000Z</time>
</trkpt>
<trkpt lat="57.579501" lon="10.172497">
<ele>7.910120</ele>
<time>2026-07-17T09:16:29.000Z</time>
</trkpt>
<trkpt lat="57.579486" lon="10.172522">
<ele>7.911080</ele>
<time>2026-07-17T09:16:30.000Z</time>
</trkpt>
<trkpt lat="57.579475" lon="10.172553">
<ele>7.912032</ele>
<time>2026-07-17T09:16:31.000Z</time>
</trkpt>
<trkpt lat="57.579472" lon="10.172598">
<ele>7.913192</ele>
<time>2026-07-17T09:16:32.000Z</time>
</trkpt>
<trkpt lat="57.579472" lon="10.172656">
<ele>7.914676</ele>
<time>2026-07-17T09:16:33.000Z</time>
</trkpt>
<trkpt lat="57.579480" lon="10.172715">
<ele>7.916234</ele>
<time>2026-07-17T09:16:34.000Z</time>
</trkpt>
<trkpt lat="57.579500" lon="10.172787">
<ele>7.918309</ele>
<time>2026-07-17T09:16:35.000Z</time>
</trkpt>
<trkpt lat="57.579517" lon="10.172853">
<ele>7.920183</ele>
<time>2026-07-17T09:16:36.000Z</time>
</trkpt>
<trkpt lat="57.579539" lon="10.172940">
<ele>7.922644</ele>
<time>2026-07-17T09:16:37.000Z</time>
</trkpt>
<trkpt lat="57.579564" lon="10.173019">
<ele>7.924992</ele>
<time>2026-07-17T09:16:38.000Z</time>
</trkpt>
<trkpt lat="57.579584" lon="10.173103">
<ele>7.927344</ele>
<time>2026-07-17T09:16:39.000Z</time>
</trkpt>
<trkpt lat="57.579606" lon="10.173188">
<ele>7.929760</ele>
<time>2026-07-17T09:16:40.000Z</time>
</trkpt>
<trkpt lat="57.579630" lon="10.173283">
<ele>7.932447</ele>
<time>2026-07-17T09:16:41.000Z</time>
</trkpt>
<trkpt lat="57.579653" lon="10.173376">
<ele>7.927554</ele>
<time>2026-07-17T09:16:42.000Z</time>
</trkpt>
<trkpt lat="57.579673" lon="10.173469">
<ele>7.918949</ele>
<time>2026-07-17T09:16:43.000Z</time>
</trkpt>
<trkpt lat="57.579699" lon="10.173561">
<ele>7.910018</ele>
<time>2026-07-17T09:16:44.000Z</time>
</trkpt>
<trkpt lat="57.579721" lon="10.173656">
<ele>7.901132</ele>
<time>2026-07-17T09:16:45.000Z</time>
</trkpt>
<trkpt lat="57.579741" lon="10.173750">
<ele>7.892447</ele>
<time>2026-07-17T09:16:46.000Z</time>
</trkpt>
<trkpt lat="57.579763" lon="10.173841">
<ele>7.883875</ele>
<time>2026-07-17T09:16:47.000Z</time>
</trkpt>
<trkpt lat="57.579787" lon="10.173941">
<ele>7.874466</ele>
<time>2026-07-17T09:16:48.000Z</time>
</trkpt>
<trkpt lat="57.579809" lon="10.174038">
<ele>7.865422</ele>
<time>2026-07-17T09:16:49.000Z</time>
</trkpt>
<trkpt lat="57.579833" lon="10.174138">
<ele>7.856013</ele>
<time>2026-07-17T09:16:50.000Z</time>
</trkpt>
<trkpt lat="57.579859" lon="10.174236">
<ele>7.846624</ele>
<time>2026-07-17T09:16:51.000Z</time>
</trkpt>
<trkpt lat="57.579878" lon="10.174338">
<ele>7.837351</ele>
<time>2026-07-17T09:16:52.000Z</time>
</trkpt>
<trkpt lat="57.579901" lon="10.174436">
<ele>7.828164</ele>
<time>2026-07-17T09:16:53.000Z</time>
</trkpt>
<trkpt lat="57.579924" lon="10.174542">
<ele>7.818345</ele>
<time>2026-07-17T09:16:54.000Z</time>
</trkpt>
<trkpt lat="57.579946" lon="10.174642">
<ele>7.809062</ele>
<time>2026-07-17T09:16:55.000Z</time>
</trkpt>
<trkpt lat="57.579965" lon="10.174750">
<ele>7.799301</ele>
<time>2026-07-17T09:16:56.000Z</time>
</trkpt>
<trkpt lat="57.579984" lon="10.174854">
<ele>7.789866</ele>
<time>2026-07-17T09:16:57.000Z</time>
</trkpt>
<trkpt lat="57.580004" lon="10.174960">
<ele>7.780217</ele>
<time>2026-07-17T09:16:58.000Z</time>
</trkpt>
<trkpt lat="57.580023" lon="10.175063">
<ele>7.770863</ele>
<time>2026-07-17T09:16:59.000Z</time>
</trkpt>
<trkpt lat="57.580042" lon="10.175169">
<ele>7.761265</ele>
<time>2026-07-17T09:17:00.000Z</time>
</trkpt>
<trkpt lat="57.580061" lon="10.175271">
<ele>7.751992</ele>
<time>2026-07-17T09:17:01.000Z</time>
</trkpt>
<trkpt lat="57.580080" lon="10.175375">
<ele>7.742557</ele>
<time>2026-07-17T09:17:02.000Z</time>
</trkpt>
<trkpt lat="57.580098" lon="10.175474">
<ele>7.733580</ele>
<time>2026-07-17T09:17:03.000Z</time>
</trkpt>
<trkpt lat="57.580117" lon="10.175573">
<ele>7.724550</ele>
<time>2026-07-17T09:17:04.000Z</time>
</trkpt>
<trkpt lat="57.580137" lon="10.175679">
<ele>7.714901</ele>
<time>2026-07-17T09:17:05.000Z</time>
</trkpt>
<trkpt lat="57.580154" lon="10.175771">
<ele>7.706544</ele>
<time>2026-07-17T09:17:06.000Z</time>
</trkpt>
<trkpt lat="57.580171" lon="10.175879">
<ele>7.696879</ele>
<time>2026-07-17T09:17:07.000Z</time>
</trkpt>
<trkpt lat="57.580186" lon="10.175980">
<ele>7.687879</ele>
<time>2026-07-17T09:17:08.000Z</time>
</trkpt>
<trkpt lat="57.580205" lon="10.176080">
<ele>7.678768</ele>
<time>2026-07-17T09:17:09.000Z</time>
</trkpt>
<trkpt lat="57.580224" lon="10.176179">
<ele>7.669739</ele>
<time>2026-07-17T09:17:10.000Z</time>
</trkpt>
<trkpt lat="57.580240" lon="10.176280">
<ele>7.660695</ele>
<time>2026-07-17T09:17:11.000Z</time>
</trkpt>
<trkpt lat="57.580259" lon="10.176381">
<ele>7.651503</ele>
<time>2026-07-17T09:17:12.000Z</time>
</trkpt>
<trkpt lat="57.580274" lon="10.176479">
<ele>7.648255</ele>
<time>2026-07-17T09:17:13.000Z</time>
</trkpt>
<trkpt lat="57.580293" lon="10.176578">
<ele>7.659146</ele>
<time>2026-07-17T09:17:14.000Z</time>
</trkpt>
<trkpt lat="57.580308" lon="10.176676">
<ele>7.669701</ele>
<time>2026-07-17T09:17:15.000Z</time>
</trkpt>
<trkpt lat="57.580327" lon="10.176778">
<ele>7.680885</ele>
<time>2026-07-17T09:17:16.000Z</time>
</trkpt>
<trkpt lat="57.580342" lon="10.176877">
<ele>7.691540</ele>
<time>2026-07-17T09:17:17.000Z</time>
</trkpt>
<trkpt lat="57.580358" lon="10.176980">
<ele>7.702647</ele>
<time>2026-07-17T09:17:18.000Z</time>
</trkpt>
<trkpt lat="57.580377" lon="10.177082">
<ele>7.713831</ele>
<time>2026-07-17T09:17:19.000Z</time>
</trkpt>
<trkpt lat="57.580392" lon="10.177183">
<ele>7.724686</ele>
<time>2026-07-17T09:17:20.000Z</time>
</trkpt>
<trkpt lat="57.580411" lon="10.177285">
<ele>7.735869</ele>
<time>2026-07-17T09:17:21.000Z</time>
</trkpt>
<trkpt lat="57.580430" lon="10.177388">
<ele>7.747151</ele>
<time>2026-07-17T09:17:22.000Z</time>
</trkpt>
<trkpt lat="57.580445" lon="10.177487">
<ele>7.757806</ele>
<time>2026-07-17T09:17:23.000Z</time>
</trkpt>
<trkpt lat="57.580460" lon="10.177585">
<ele>7.768362</ele>
<time>2026-07-17T09:17:24.000Z</time>
</trkpt>
<trkpt lat="57.580474" lon="10.177674">
<ele>7.777968</ele>
<time>2026-07-17T09:17:25.000Z</time>
</trkpt>
<trkpt lat="57.580495" lon="10.177788">
<ele>7.790453</ele>
<time>2026-07-17T09:17:26.000Z</time>
</trkpt>
<trkpt lat="57.580510" lon="10.177884">
<ele>7.800810</ele>
<time>2026-07-17T09:17:27.000Z</time>
</trkpt>
<trkpt lat="57.580530" lon="10.177983">
<ele>7.811767</ele>
<time>2026-07-17T09:17:28.000Z</time>
</trkpt>
<trkpt lat="57.580547" lon="10.178073">
<ele>7.821650</ele>
<time>2026-07-17T09:17:29.000Z</time>
</trkpt>
<trkpt lat="57.580563" lon="10.178178">
<ele>7.832956</ele>
<time>2026-07-17T09:17:30.000Z</time>
</trkpt>
<trkpt lat="57.580579" lon="10.178278">
<ele>7.843764</ele>
<time>2026-07-17T09:17:31.000Z</time>
</trkpt>
<trkpt lat="57.580594" lon="10.178381">
<ele>7.854819</ele>
<time>2026-07-17T09:17:32.000Z</time>
</trkpt>
<trkpt lat="57.580610" lon="10.178480">
<ele>7.865528</ele>
<time>2026-07-17T09:17:33.000Z</time>
</trkpt>
<trkpt lat="57.580629" lon="10.178574">
<ele>7.875933</ele>
<time>2026-07-17T09:17:34.000Z</time>
</trkpt>
<trkpt lat="57.580648" lon="10.178675">
<ele>7.887019</ele>
<time>2026-07-17T09:17:35.000Z</time>
</trkpt>
<trkpt lat="57.580664" lon="10.178777">
<ele>7.898026</ele>
<time>2026-07-17T09:17:36.000Z</time>
</trkpt>
<trkpt lat="57.580683" lon="10.178877">
<ele>7.909014</ele>
<time>2026-07-17T09:17:37.000Z</time>
</trkpt>
<trkpt lat="57.580701" lon="10.178976">
<ele>7.919841</ele>
<time>2026-07-17T09:17:38.000Z</time>
</trkpt>
<trkpt lat="57.580717" lon="10.179080">
<ele>7.931048</ele>
<time>2026-07-17T09:17:39.000Z</time>
</trkpt>
<trkpt lat="57.580737" lon="10.179181">
<ele>7.942199</ele>
<time>2026-07-17T09:17:40.000Z</time>
</trkpt>
<trkpt lat="57.580755" lon="10.179283">
<ele>7.953321</ele>
<time>2026-07-17T09:17:41.000Z</time>
</trkpt>
<trkpt lat="57.580770" lon="10.179382">
<ele>7.963976</ele>
<time>2026-07-17T09:17:42.000Z</time>
</trkpt>
<trkpt lat="57.580786" lon="10.179481">
<ele>7.974685</ele>
<time>2026-07-17T09:17:43.000Z</time>
</trkpt>
<trkpt lat="57.580805" lon="10.179577">
<ele>7.985284</ele>
<time>2026-07-17T09:17:44.000Z</time>
</trkpt>
<trkpt lat="57.580820" lon="10.179675">
<ele>7.998097</ele>
<time>2026-07-17T09:17:45.000Z</time>
</trkpt>
<trkpt lat="57.580836" lon="10.179776">
<ele>8.016912</ele>
<time>2026-07-17T09:17:46.000Z</time>
</trkpt>
<trkpt lat="57.580855" lon="10.179877">
<ele>8.036034</ele>
<time>2026-07-17T09:17:47.000Z</time>
</trkpt>
<trkpt lat="57.580873" lon="10.179983">
<ele>8.055899</ele>
<time>2026-07-17T09:17:48.000Z</time>
</trkpt>
<trkpt lat="57.580889" lon="10.180086">
<ele>8.075056</ele>
<time>2026-07-17T09:17:49.000Z</time>
</trkpt>
<trkpt lat="57.580908" lon="10.180186">
<ele>8.094010</ele>
<time>2026-07-17T09:17:50.000Z</time>
</trkpt>
<trkpt lat="57.580927" lon="10.180284">
<ele>8.112628</ele>
<time>2026-07-17T09:17:51.000Z</time>
</trkpt>
<trkpt lat="57.580942" lon="10.180384">
<ele>8.131179</ele>
<time>2026-07-17T09:17:52.000Z</time>
</trkpt>
<trkpt lat="57.580957" lon="10.180485">
<ele>8.149902</ele>
<time>2026-07-17T09:17:53.000Z</time>
</trkpt>
<trkpt lat="57.580973" lon="10.180585">
<ele>8.168545</ele>
<time>2026-07-17T09:17:54.000Z</time>
</trkpt>
<trkpt lat="57.580992" lon="10.180685">
<ele>8.187499</ele>
<time>2026-07-17T09:17:55.000Z</time>
</trkpt>
<trkpt lat="57.581011" lon="10.180783">
<ele>8.206116</ele>
<time>2026-07-17T09:17:56.000Z</time>
</trkpt>
<trkpt lat="57.581030" lon="10.180880">
<ele>8.224566</ele>
<time>2026-07-17T09:17:57.000Z</time>
</trkpt>
<trkpt lat="57.581046" lon="10.180982">
<ele>8.243552</ele>
<time>2026-07-17T09:17:58.000Z</time>
</trkpt>
<trkpt lat="57.581064" lon="10.181079">
<ele>8.261890</ele>
<time>2026-07-17T09:17:59.000Z</time>
</trkpt>
<trkpt lat="57.581079" lon="10.181176">
<ele>8.279925</ele>
<time>2026-07-17T09:18:00.000Z</time>
</trkpt>
<trkpt lat="57.581095" lon="10.181271">
<ele>8.297715</ele>
<time>2026-07-17T09:18:01.000Z</time>
</trkpt>
<trkpt lat="57.581110" lon="10.181364">
<ele>8.315064</ele>
<time>2026-07-17T09:18:02.000Z</time>
</trkpt>
<trkpt lat="57.581125" lon="10.181453">
<ele>8.331731</ele>
<time>2026-07-17T09:18:03.000Z</time>
</trkpt>
<trkpt lat="57.581140" lon="10.181543">
<ele>8.348569</ele>
<time>2026-07-17T09:18:04.000Z</time>
</trkpt>
<trkpt lat="57.581155" lon="10.181631">
<ele>8.365065</ele>
<time>2026-07-17T09:18:05.000Z</time>
</trkpt>
<trkpt lat="57.581162" lon="10.181714">
<ele>8.380076</ele>
<time>2026-07-17T09:18:06.000Z</time>
</trkpt>
<trkpt lat="57.581165" lon="10.181787">
<ele>8.393155</ele>
<time>2026-07-17T09:18:07.000Z</time>
</trkpt>
<trkpt lat="57.581164" lon="10.181851">
<ele>8.404594</ele>
<time>2026-07-17T09:18:08.000Z</time>
</trkpt>
<trkpt lat="57.581157" lon="10.181909">
<ele>8.415214</ele>
<time>2026-07-17T09:18:09.000Z</time>
</trkpt>
<trkpt lat="57.581154" lon="10.181963">
<ele>8.424913</ele>
<time>2026-07-17T09:18:10.000Z</time>
</trkpt>
<trkpt lat="57.581154" lon="10.182027">
<ele>8.436347</ele>
<time>2026-07-17T09:18:11.000Z</time>
</trkpt>
<trkpt lat="57.581155" lon="10.182086">
<ele>8.446892</ele>
<time>2026-07-17T09:18:12.000Z</time>
</trkpt>
<trkpt lat="57.581161" lon="10.182140">
<ele>8.456744</ele>
<time>2026-07-17T09:18:13.000Z</time>
</trkpt>
<trkpt lat="57.581170" lon="10.182215">
<ele>8.470474</ele>
<time>2026-07-17T09:18:14.000Z</time>
</trkpt>
<trkpt lat="57.581177" lon="10.182280">
<ele>8.482319</ele>
<time>2026-07-17T09:18:15.000Z</time>
</trkpt>
<trkpt lat="57.581181" lon="10.182343">
<ele>8.493652</ele>
<time>2026-07-17T09:18:16.000Z</time>
</trkpt>
<trkpt lat="57.581189" lon="10.182412">
<ele>8.506264</ele>
<time>2026-07-17T09:18:17.000Z</time>
</trkpt>
<trkpt lat="57.581192" lon="10.182482">
<ele>8.518809</ele>
<time>2026-07-17T09:18:18.000Z</time>
</trkpt>
<trkpt lat="57.581197" lon="10.182559">
<ele>8.532665</ele>
<time>2026-07-17T09:18:19.000Z</time>
</trkpt>
<trkpt lat="57.581204" lon="10.182634">
<ele>8.546266</ele>
<time>2026-07-17T09:18:20.000Z</time>
</trkpt>
<trkpt lat="57.581212" lon="10.182709">
<ele>8.559927</ele>
<time>2026-07-17T09:18:21.000Z</time>
</trkpt>
<trkpt lat="57.581215" lon="10.182783">
<ele>8.573185</ele>
<time>2026-07-17T09:18:22.000Z</time>
</trkpt>
<trkpt lat="57.581220" lon="10.182857">
<ele>8.586509</ele>
<time>2026-07-17T09:18:23.000Z</time>
</trkpt>
<trkpt lat="57.581227" lon="10.182929">
<ele>8.547191</ele>
<time>2026-07-17T09:18:24.000Z</time>
</trkpt>
<trkpt lat="57.581235" lon="10.182998">
<ele>8.471554</ele>
<time>2026-07-17T09:18:25.000Z</time>
</trkpt>
<trkpt lat="57.581242" lon="10.183068">
<ele>8.395260</ele>
<time>2026-07-17T09:18:26.000Z</time>
</trkpt>
<trkpt lat="57.581246" lon="10.183139">
<ele>8.318771</ele>
<time>2026-07-17T09:18:27.000Z</time>
</trkpt>
<trkpt lat="57.581254" lon="10.183207">
<ele>8.244180</ele>
<time>2026-07-17T09:18:28.000Z</time>
</trkpt>
<trkpt lat="57.581262" lon="10.183272">
<ele>8.172726</ele>
<time>2026-07-17T09:18:29.000Z</time>
</trkpt>
<trkpt lat="57.581269" lon="10.183334">
<ele>8.104841</ele>
<time>2026-07-17T09:18:30.000Z</time>
</trkpt>
<trkpt lat="57.581273" lon="10.183391">
<ele>8.043249</ele>
<time>2026-07-17T09:18:31.000Z</time>
</trkpt>
<trkpt lat="57.581281" lon="10.183442">
<ele>7.986315</ele>
<time>2026-07-17T09:18:32.000Z</time>
</trkpt>
<trkpt lat="57.581292" lon="10.183488">
<ele>7.932349</ele>
<time>2026-07-17T09:18:33.000Z</time>
</trkpt>
<trkpt lat="57.581300" lon="10.183540">
<ele>7.874387</ele>
<time>2026-07-17T09:18:34.000Z</time>
</trkpt>
<trkpt lat="57.581308" lon="10.183591">
<ele>7.817453</ele>
<time>2026-07-17T09:18:35.000Z</time>
</trkpt>
<trkpt lat="57.581320" lon="10.183639">
<ele>7.760708</ele>
<time>2026-07-17T09:18:36.000Z</time>
</trkpt>
<trkpt lat="57.581335" lon="10.183679">
<ele>7.708407</ele>
<time>2026-07-17T09:18:37.000Z</time>
</trkpt>
<trkpt lat="57.581355" lon="10.183714">
<ele>7.653600</ele>
<time>2026-07-17T09:18:38.000Z</time>
</trkpt>
<trkpt lat="57.581378" lon="10.183741">
<ele>7.599288</ele>
<time>2026-07-17T09:18:39.000Z</time>
</trkpt>
<trkpt lat="57.581405" lon="10.183764">
<ele>7.539967</ele>
<time>2026-07-17T09:18:40.000Z</time>
</trkpt>
<trkpt lat="57.581436" lon="10.183788">
<ele>7.472888</ele>
<time>2026-07-17T09:18:41.000Z</time>
</trkpt>
<trkpt lat="57.581467" lon="10.183809">
<ele>7.406974</ele>
<time>2026-07-17T09:18:42.000Z</time>
</trkpt>
<trkpt lat="57.581498" lon="10.183829">
<ele>7.341419</ele>
<time>2026-07-17T09:18:43.000Z</time>
</trkpt>
<trkpt lat="57.581531" lon="10.183848">
<ele>7.272397</ele>
<time>2026-07-17T09:18:44.000Z</time>
</trkpt>
<trkpt lat="57.581558" lon="10.183861">
<ele>7.216668</ele>
<time>2026-07-17T09:18:45.000Z</time>
</trkpt>
<trkpt lat="57.581588" lon="10.183867">
<ele>7.156368</ele>
<time>2026-07-17T09:18:46.000Z</time>
</trkpt>
<trkpt lat="57.581610" lon="10.183871">
<ele>7.112192</ele>
<time>2026-07-17T09:18:47.000Z</time>
</trkpt>
<trkpt lat="57.581629" lon="10.183880">
<ele>7.073014</ele>
<time>2026-07-17T09:18:48.000Z</time>
</trkpt>
<trkpt lat="57.581644" lon="10.183898">
<ele>7.037369</ele>
<time>2026-07-17T09:18:49.000Z</time>
</trkpt>
<trkpt lat="57.581655" lon="10.183920">
<ele>7.005137</ele>
<time>2026-07-17T09:18:50.000Z</time>
</trkpt>
<trkpt lat="57.581668" lon="10.183948">
<ele>6.965451</ele>
<time>2026-07-17T09:18:51.000Z</time>
</trkpt>
<trkpt lat="57.581692" lon="10.183985">
<ele>6.903225</ele>
<time>2026-07-17T09:18:52.000Z</time>
</trkpt>
<trkpt lat="57.581723" lon="10.184022">
<ele>6.829673</ele>
<time>2026-07-17T09:18:53.000Z</time>
</trkpt>
<trkpt lat="57.581762" lon="10.184052">
<ele>6.745362</ele>
<time>2026-07-17T09:18:54.000Z</time>
</trkpt>
<trkpt lat="57.581808" lon="10.184080">
<ele>6.648659</ele>
<time>2026-07-17T09:18:55.000Z</time>
</trkpt>
<trkpt lat="57.581859" lon="10.184109">
<ele>6.542103</ele>
<time>2026-07-17T09:18:56.000Z</time>
</trkpt>
<trkpt lat="57.581916" lon="10.184143">
<ele>6.422504</ele>
<time>2026-07-17T09:18:57.000Z</time>
</trkpt>
<trkpt lat="57.581978" lon="10.184171">
<ele>6.295015</ele>
<time>2026-07-17T09:18:58.000Z</time>
</trkpt>
<trkpt lat="57.582043" lon="10.184195">
<ele>6.162589</ele>
<time>2026-07-17T09:18:59.000Z</time>
</trkpt>
<trkpt lat="57.582112" lon="10.184224">
<ele>6.021233</ele>
<time>2026-07-17T09:19:00.000Z</time>
</trkpt>
<trkpt lat="57.582181" lon="10.184259">
<ele>5.878327</ele>
<time>2026-07-17T09:19:01.000Z</time>
</trkpt>
<trkpt lat="57.582250" lon="10.184306">
<ele>5.731522</ele>
<time>2026-07-17T09:19:02.000Z</time>
</trkpt>
<trkpt lat="57.582321" lon="10.184354">
<ele>5.580594</ele>
<time>2026-07-17T09:19:03.000Z</time>
</trkpt>
<trkpt lat="57.582387" lon="10.184411">
<ele>5.435239</ele>
<time>2026-07-17T09:19:04.000Z</time>
</trkpt>
<trkpt lat="57.582453" lon="10.184467">
<ele>5.290331</ele>
<time>2026-07-17T09:19:05.000Z</time>
</trkpt>
<trkpt lat="57.582515" lon="10.184530">
<ele>5.149231</ele>
<time>2026-07-17T09:19:06.000Z</time>
</trkpt>
<trkpt lat="57.582568" lon="10.184600">
<ele>5.019446</ele>
<time>2026-07-17T09:19:07.000Z</time>
</trkpt>
<trkpt lat="57.582621" lon="10.184676">
<ele>5.072638</ele>
<time>2026-07-17T09:19:08.000Z</time>
</trkpt>
<trkpt lat="57.582673" lon="10.184757">
<ele>5.163871</ele>
<time>2026-07-17T09:19:09.000Z</time>
</trkpt>
<trkpt lat="57.582719" lon="10.184845">
<ele>5.252603</ele>
<time>2026-07-17T09:19:10.000Z</time>
</trkpt>
<trkpt lat="57.582765" lon="10.184938">
<ele>5.343955</ele>
<time>2026-07-17T09:19:11.000Z</time>
</trkpt>
<trkpt lat="57.582811" lon="10.185033">
<ele>5.436374</ele>
<time>2026-07-17T09:19:12.000Z</time>
</trkpt>
<trkpt lat="57.582857" lon="10.185128">
<ele>5.528792</ele>
<time>2026-07-17T09:19:13.000Z</time>
</trkpt>
<trkpt lat="57.582902" lon="10.185217">
<ele>5.617113</ele>
<time>2026-07-17T09:19:14.000Z</time>
</trkpt>
<trkpt lat="57.582948" lon="10.185307">
<ele>5.706885</ele>
<time>2026-07-17T09:19:15.000Z</time>
</trkpt>
<trkpt lat="57.582997" lon="10.185391">
<ele>5.796505</ele>
<time>2026-07-17T09:19:16.000Z</time>
</trkpt>
<trkpt lat="57.583064" lon="10.185469">
<ele>5.902863</ele>
<time>2026-07-17T09:19:17.000Z</time>
</trkpt>
<trkpt lat="57.583117" lon="10.185545">
<ele>5.992888</ele>
<time>2026-07-17T09:19:18.000Z</time>
</trkpt>
<trkpt lat="57.583167" lon="10.185618">
<ele>6.078393</ele>
<time>2026-07-17T09:19:19.000Z</time>
</trkpt>
<trkpt lat="57.583219" lon="10.185686">
<ele>6.163914</ele>
<time>2026-07-17T09:19:20.000Z</time>
</trkpt>
<trkpt lat="57.583264" lon="10.185751">
<ele>6.240558</ele>
<time>2026-07-17T09:19:21.000Z</time>
</trkpt>
<trkpt lat="57.583314" lon="10.185819">
<ele>6.323887</ele>
<time>2026-07-17T09:19:22.000Z</time>
</trkpt>
<trkpt lat="57.583356" lon="10.185879">
<ele>6.395128</ele>
<time>2026-07-17T09:19:23.000Z</time>
</trkpt>
<trkpt lat="57.583397" lon="10.185937">
<ele>6.464423</ele>
<time>2026-07-17T09:19:24.000Z</time>
</trkpt>
<trkpt lat="57.583432" lon="10.185990">
<ele>6.525132</ele>
<time>2026-07-17T09:19:25.000Z</time>
</trkpt>
<trkpt lat="57.583466" lon="10.186039">
<ele>6.582992</ele>
<time>2026-07-17T09:19:26.000Z</time>
</trkpt>
<trkpt lat="57.583501" lon="10.186091">
<ele>6.643248</ele>
<time>2026-07-17T09:19:27.000Z</time>
</trkpt>
<trkpt lat="57.583539" lon="10.186147">
<ele>6.708464</ele>
<time>2026-07-17T09:19:28.000Z</time>
</trkpt>
<trkpt lat="57.583582" lon="10.186205">
<ele>6.779923</ele>
<time>2026-07-17T09:19:29.000Z</time>
</trkpt>
<trkpt lat="57.583627" lon="10.186260">
<ele>6.852373</ele>
<time>2026-07-17T09:19:30.000Z</time>
</trkpt>
<trkpt lat="57.583673" lon="10.186317">
<ele>6.926742</ele>
<time>2026-07-17T09:19:31.000Z</time>
</trkpt>
<trkpt lat="57.583718" lon="10.186375">
<ele>7.000400</ele>
<time>2026-07-17T09:19:32.000Z</time>
</trkpt>
<trkpt lat="57.583761" lon="10.186432">
<ele>7.071439</ele>
<time>2026-07-17T09:19:33.000Z</time>
</trkpt>
<trkpt lat="57.583806" lon="10.186490">
<ele>7.145098</ele>
<time>2026-07-17T09:19:34.000Z</time>
</trkpt>
<trkpt lat="57.583849" lon="10.186547">
<ele>7.216136</ele>
<time>2026-07-17T09:19:35.000Z</time>
</trkpt>
<trkpt lat="57.583894" lon="10.186607">
<ele>7.290625</ele>
<time>2026-07-17T09:19:36.000Z</time>
</trkpt>
<trkpt lat="57.583940" lon="10.186672">
<ele>7.368338</ele>
<time>2026-07-17T09:19:37.000Z</time>
</trkpt>
<trkpt lat="57.583986" lon="10.186736">
<ele>7.402773</ele>
<time>2026-07-17T09:19:38.000Z</time>
</trkpt>
<trkpt lat="57.584035" lon="10.186798">
<ele>7.351011</ele>
<time>2026-07-17T09:19:39.000Z</time>
</trkpt>
<trkpt lat="57.584081" lon="10.186863">
<ele>7.300561</ele>
<time>2026-07-17T09:19:40.000Z</time>
</trkpt>
<trkpt lat="57.584127" lon="10.186928">
<ele>7.250112</ele>
<time>2026-07-17T09:19:41.000Z</time>
</trkpt>
<trkpt lat="57.584173" lon="10.186993">
<ele>7.199662</ele>
<time>2026-07-17T09:19:42.000Z</time>
</trkpt>
<trkpt lat="57.584218" lon="10.187057">
<ele>7.150192</ele>
<time>2026-07-17T09:19:43.000Z</time>
</trkpt>
<trkpt lat="57.584260" lon="10.187119">
<ele>7.103368</ele>
<time>2026-07-17T09:19:44.000Z</time>
</trkpt>
<trkpt lat="57.584302" lon="10.187180">
<ele>7.056834</ele>
<time>2026-07-17T09:19:45.000Z</time>
</trkpt>
<trkpt lat="57.584344" lon="10.187242">
<ele>7.010010</ele>
<time>2026-07-17T09:19:46.000Z</time>
</trkpt>
<trkpt lat="57.584387" lon="10.187301">
<ele>6.963345</ele>
<time>2026-07-17T09:19:47.000Z</time>
</trkpt>
<trkpt lat="57.584432" lon="10.187362">
<ele>6.914714</ele>
<time>2026-07-17T09:19:48.000Z</time>
</trkpt>
<trkpt lat="57.584474" lon="10.187420">
<ele>6.869030</ele>
<time>2026-07-17T09:19:49.000Z</time>
</trkpt>
<trkpt lat="57.584516" lon="10.187473">
<ele>6.824700</ele>
<time>2026-07-17T09:19:50.000Z</time>
</trkpt>
<trkpt lat="57.584561" lon="10.187523">
<ele>6.778910</ele>
<time>2026-07-17T09:19:51.000Z</time>
</trkpt>
<trkpt lat="57.584600" lon="10.187568">
<ele>6.738820</ele>
<time>2026-07-17T09:19:52.000Z</time>
</trkpt>
<trkpt lat="57.584641" lon="10.187612">
<ele>6.697468</ele>
<time>2026-07-17T09:19:53.000Z</time>
</trkpt>
<trkpt lat="57.584679" lon="10.187659">
<ele>6.657608</ele>
<time>2026-07-17T09:19:54.000Z</time>
</trkpt>
<trkpt lat="57.584713" lon="10.187709">
<ele>6.619759</ele>
<time>2026-07-17T09:19:55.000Z</time>
</trkpt>
<trkpt lat="57.584747" lon="10.187754">
<ele>6.583314</ele>
<time>2026-07-17T09:19:56.000Z</time>
</trkpt>
<trkpt lat="57.584778" lon="10.187792">
<ele>6.550885</ele>
<time>2026-07-17T09:19:57.000Z</time>
</trkpt>
<trkpt lat="57.584811" lon="10.187821">
<ele>6.518995</ele>
<time>2026-07-17T09:19:58.000Z</time>
</trkpt>
<trkpt lat="57.584838" lon="10.187846">
<ele>6.492642</ele>
<time>2026-07-17T09:19:59.000Z</time>
</trkpt>
<trkpt lat="57.584865" lon="10.187868">
<ele>6.466885</ele>
<time>2026-07-17T09:20:00.000Z</time>
</trkpt>
<trkpt lat="57.584890" lon="10.187889">
<ele>6.442915</ele>
<time>2026-07-17T09:20:01.000Z</time>
</trkpt>
<trkpt lat="57.584900" lon="10.187917">
<ele>6.427148</ele>
<time>2026-07-17T09:20:02.000Z</time>
</trkpt>
<trkpt lat="57.584903" lon="10.187941">
<ele>6.415599</ele>
<time>2026-07-17T09:20:03.000Z</time>
</trkpt>
<trkpt lat="57.584888" lon="10.187984">
<ele>6.391556</ele>
<time>2026-07-17T09:20:06.000Z</time>
</trkpt>
<trkpt lat="57.584821" lon="10.188140">
<ele>6.297878</ele>
<time>2026-07-17T09:29:57.000Z</time>
</trkpt>
<trkpt lat="57.584829" lon="10.188122">
<ele>6.286921</ele>
<time>2026-07-17T09:29:58.000Z</time>
</trkpt>
<trkpt lat="57.584839" lon="10.188103">
<ele>6.274442</ele>
<time>2026-07-17T09:29:59.000Z</time>
</trkpt>
<trkpt lat="57.584839" lon="10.188113">
<ele>6.269756</ele>
<time>2026-07-17T09:30:00.000Z</time>
</trkpt>
<trkpt lat="57.584839" lon="10.188113">
<ele>6.269756</ele>
<time>2026-07-17T09:30:01.000Z</time>
</trkpt>
<trkpt lat="57.584842" lon="10.188018">
<ele>6.225158</ele>
<time>2026-07-17T09:31:29.000Z</time>
</trkpt>
<trkpt lat="57.584830" lon="10.188013">
<ele>6.214409</ele>
<time>2026-07-17T09:31:30.000Z</time>
</trkpt>
<trkpt lat="57.584819" lon="10.188008">
<ele>6.204511</ele>
<time>2026-07-17T09:31:31.000Z</time>
</trkpt>
<trkpt lat="57.584815" lon="10.188003">
<ele>6.200301</ele>
<time>2026-07-17T09:31:32.000Z</time>
</trkpt>
<trkpt lat="57.584805" lon="10.187996">
<ele>6.190964</ele>
<time>2026-07-17T09:31:33.000Z</time>
</trkpt>
<trkpt lat="57.584796" lon="10.187984">
<ele>6.181293</ele>
<time>2026-07-17T09:31:34.000Z</time>
</trkpt>
<trkpt lat="57.584785" lon="10.187972">
<ele>6.170152</ele>
<time>2026-07-17T09:31:35.000Z</time>
</trkpt>
<trkpt lat="57.584777" lon="10.187968">
<ele>6.162912</ele>
<time>2026-07-17T09:31:36.000Z</time>
</trkpt>
<trkpt lat="57.584769" lon="10.187963">
<ele>6.155536</ele>
<time>2026-07-17T09:31:37.000Z</time>
</trkpt>
<trkpt lat="57.584762" lon="10.187959">
<ele>6.149135</ele>
<time>2026-07-17T09:31:38.000Z</time>
</trkpt>
<trkpt lat="57.584755" lon="10.187953">
<ele>6.142401</ele>
<time>2026-07-17T09:31:39.000Z</time>
</trkpt>
<trkpt lat="57.584747" lon="10.187957">
<ele>6.135160</ele>
<time>2026-07-17T10:00:20.000Z</time>
</trkpt>
<trkpt lat="57.584754" lon="10.187949">
<ele>6.127983</ele>
<time>2026-07-17T10:00:21.000Z</time>
</trkpt>
<trkpt lat="57.584763" lon="10.187941">
<ele>6.119267</ele>
<time>2026-07-17T10:00:22.000Z</time>
</trkpt>
<trkpt lat="57.584763" lon="10.187940">
<ele>6.118799</ele>
<time>2026-07-17T10:00:23.000Z</time>
</trkpt>
<trkpt lat="57.584767" lon="10.187939">
<ele>6.115270</ele>
<time>2026-07-17T10:00:24.000Z</time>
</trkpt>
<trkpt lat="57.584770" lon="10.187940">
<ele>6.112606</ele>
<time>2026-07-17T10:00:25.000Z</time>
</trkpt>
<trkpt lat="57.584798" lon="10.187967">
<ele>6.085051</ele>
<time>2026-07-17T10:00:30.000Z</time>
</trkpt>
<trkpt lat="57.584805" lon="10.187972">
<ele>6.078498</ele>
<time>2026-07-17T10:00:31.000Z</time>
</trkpt>
<trkpt lat="57.584822" lon="10.187978">
<ele>6.063372</ele>
<time>2026-07-17T10:00:32.000Z</time>
</trkpt>
<trkpt lat="57.584836" lon="10.187975">
<ele>6.051052</ele>
<time>2026-07-17T10:00:33.000Z</time>
</trkpt>
<trkpt lat="57.584843" lon="10.187972">
<ele>6.044773</ele>
<time>2026-07-17T10:00:34.000Z</time>
</trkpt>
<trkpt lat="57.584847" lon="10.187972">
<ele>6.041276</ele>
<time>2026-07-17T10:00:35.000Z</time>
</trkpt>
<trkpt lat="57.584850" lon="10.187972">
<ele>6.038653</ele>
<time>2026-07-17T10:00:36.000Z</time>
</trkpt>
<trkpt lat="57.584850" lon="10.187973">
<ele>6.038185</ele>
<time>2026-07-17T10:00:37.000Z</time>
</trkpt>
<trkpt lat="57.584872" lon="10.187956">
<ele>6.017367</ele>
<time>2026-07-17T10:00:42.000Z</time>
</trkpt>
<trkpt lat="57.584890" lon="10.187949">
<ele>6.001292</ele>
<time>2026-07-17T10:00:43.000Z</time>
</trkpt>
<trkpt lat="57.584918" lon="10.187947">
<ele>5.976796</ele>
<time>2026-07-17T10:00:44.000Z</time>
</trkpt>
<trkpt lat="57.584944" lon="10.187952">
<ele>5.953945</ele>
<time>2026-07-17T10:00:45.000Z</time>
</trkpt>
<trkpt lat="57.584976" lon="10.187957">
<ele>5.925871</ele>
<time>2026-07-17T10:00:46.000Z</time>
</trkpt>
<trkpt lat="57.585011" lon="10.187960">
<ele>5.895241</ele>
<time>2026-07-17T10:00:47.000Z</time>
</trkpt>
<trkpt lat="57.585051" lon="10.187963">
<ele>5.860243</ele>
<time>2026-07-17T10:00:48.000Z</time>
</trkpt>
<trkpt lat="57.585095" lon="10.187958">
<ele>5.840805</ele>
<time>2026-07-17T10:00:49.000Z</time>
</trkpt>
<trkpt lat="57.585142" lon="10.187952">
<ele>5.830481</ele>
<time>2026-07-17T10:00:50.000Z</time>
</trkpt>
<trkpt lat="57.585189" lon="10.187945">
<ele>5.820147</ele>
<time>2026-07-17T10:00:51.000Z</time>
</trkpt>
<trkpt lat="57.585237" lon="10.187939">
<ele>5.809604</ele>
<time>2026-07-17T10:00:52.000Z</time>
</trkpt>
<trkpt lat="57.585294" lon="10.187936">
<ele>5.797107</ele>
<time>2026-07-17T10:00:53.000Z</time>
</trkpt>
<trkpt lat="57.585343" lon="10.187927">
<ele>5.786316</ele>
<time>2026-07-17T10:00:54.000Z</time>
</trkpt>
<trkpt lat="57.585393" lon="10.187919">
<ele>5.775318</ele>
<time>2026-07-17T10:00:55.000Z</time>
</trkpt>
<trkpt lat="57.585461" lon="10.187900">
<ele>5.760249</ele>
<time>2026-07-17T10:00:56.000Z</time>
</trkpt>
<trkpt lat="57.585515" lon="10.187885">
<ele>5.748284</ele>
<time>2026-07-17T10:00:57.000Z</time>
</trkpt>
<trkpt lat="57.585573" lon="10.187865">
<ele>5.735358</ele>
<time>2026-07-17T10:00:58.000Z</time>
</trkpt>
<trkpt lat="57.585631" lon="10.187849">
<ele>5.722508</ele>
<time>2026-07-17T10:00:59.000Z</time>
</trkpt>
<trkpt lat="57.585691" lon="10.187843">
<ele>5.709340</ele>
<time>2026-07-17T10:01:00.000Z</time>
</trkpt>
<trkpt lat="57.585749" lon="10.187840">
<ele>5.696624</ele>
<time>2026-07-17T10:01:01.000Z</time>
</trkpt>
<trkpt lat="57.585811" lon="10.187835">
<ele>5.683023</ele>
<time>2026-07-17T10:01:02.000Z</time>
</trkpt>
<trkpt lat="57.585876" lon="10.187827">
<ele>5.668747</ele>
<time>2026-07-17T10:01:03.000Z</time>
</trkpt>
<trkpt lat="57.585938" lon="10.187821">
<ele>5.655141</ele>
<time>2026-07-17T10:01:04.000Z</time>
</trkpt>
<trkpt lat="57.586003" lon="10.187811">
<ele>5.640847</ele>
<time>2026-07-17T10:01:05.000Z</time>
</trkpt>
<trkpt lat="57.586068" lon="10.187801">
<ele>5.626553</ele>
<time>2026-07-17T10:01:06.000Z</time>
</trkpt>
<trkpt lat="57.586127" lon="10.187791">
<ele>5.613570</ele>
<time>2026-07-17T10:01:07.000Z</time>
</trkpt>
<trkpt lat="57.586188" lon="10.187781">
<ele>5.600149</ele>
<time>2026-07-17T10:01:08.000Z</time>
</trkpt>
<trkpt lat="57.586243" lon="10.187774">
<ele>5.588068</ele>
<time>2026-07-17T10:01:09.000Z</time>
</trkpt>
<trkpt lat="57.586305" lon="10.187767">
<ele>5.574455</ele>
<time>2026-07-17T10:01:10.000Z</time>
</trkpt>
<trkpt lat="57.586356" lon="10.187758">
<ele>5.563228</ele>
<time>2026-07-17T10:01:11.000Z</time>
</trkpt>
<trkpt lat="57.586404" lon="10.187747">
<ele>5.552629</ele>
<time>2026-07-17T10:01:12.000Z</time>
</trkpt>
<trkpt lat="57.586450" lon="10.187742">
<ele>5.542531</ele>
<time>2026-07-17T10:01:13.000Z</time>
</trkpt>
<trkpt lat="57.586499" lon="10.187753">
<ele>5.531715</ele>
<time>2026-07-17T10:01:14.000Z</time>
</trkpt>
<trkpt lat="57.586538" lon="10.187789">
<ele>5.522178</ele>
<time>2026-07-17T10:01:15.000Z</time>
</trkpt>
<trkpt lat="57.586557" lon="10.187848">
<ele>5.514093</ele>
<time>2026-07-17T10:01:16.000Z</time>
</trkpt>
<trkpt lat="57.586568" lon="10.187922">
<ele>5.505072</ele>
<time>2026-07-17T10:01:17.000Z</time>
</trkpt>
<trkpt lat="57.586579" lon="10.188007">
<ele>5.494799</ele>
<time>2026-07-17T10:01:18.000Z</time>
</trkpt>
<trkpt lat="57.586591" lon="10.188092">
<ele>5.484473</ele>
<time>2026-07-17T10:01:19.000Z</time>
</trkpt>
<trkpt lat="57.586606" lon="10.188175">
<ele>5.474184</ele>
<time>2026-07-17T10:01:20.000Z</time>
</trkpt>
<trkpt lat="57.586618" lon="10.188264">
<ele>5.463403</ele>
<time>2026-07-17T10:01:21.000Z</time>
</trkpt>
<trkpt lat="57.586636" lon="10.188353">
<ele>5.457475</ele>
<time>2026-07-17T10:01:22.000Z</time>
</trkpt>
<trkpt lat="57.586649" lon="10.188443">
<ele>5.520349</ele>
<time>2026-07-17T10:01:23.000Z</time>
</trkpt>
<trkpt lat="57.586664" lon="10.188533">
<ele>5.583925</ele>
<time>2026-07-17T10:01:24.000Z</time>
</trkpt>
<trkpt lat="57.586679" lon="10.188627">
<ele>5.650082</ele>
<time>2026-07-17T10:01:25.000Z</time>
</trkpt>
<trkpt lat="57.586694" lon="10.188720">
<ele>5.715593</ele>
<time>2026-07-17T10:01:26.000Z</time>
</trkpt>
<trkpt lat="57.586709" lon="10.188808">
<ele>5.777881</ele>
<time>2026-07-17T10:01:27.000Z</time>
</trkpt>
<trkpt lat="57.586725" lon="10.188905">
<ele>5.846340</ele>
<time>2026-07-17T10:01:28.000Z</time>
</trkpt>
<trkpt lat="57.586740" lon="10.188997">
<ele>5.911204</ele>
<time>2026-07-17T10:01:29.000Z</time>
</trkpt>
<trkpt lat="57.586755" lon="10.189089">
<ele>5.976069</ele>
<time>2026-07-17T10:01:30.000Z</time>
</trkpt>
<trkpt lat="57.586767" lon="10.189176">
<ele>6.036666</ele>
<time>2026-07-17T10:01:31.000Z</time>
</trkpt>
<trkpt lat="57.586781" lon="10.189260">
<ele>6.096003</ele>
<time>2026-07-17T10:01:32.000Z</time>
</trkpt>
<trkpt lat="57.586793" lon="10.189350">
<ele>6.158562</ele>
<time>2026-07-17T10:01:33.000Z</time>
</trkpt>
<trkpt lat="57.586809" lon="10.189445">
<ele>6.225732</ele>
<time>2026-07-17T10:01:34.000Z</time>
</trkpt>
<trkpt lat="57.586828" lon="10.189533">
<ele>6.289725</ele>
<time>2026-07-17T10:01:35.000Z</time>
</trkpt>
<trkpt lat="57.586843" lon="10.189626">
<ele>6.355236</ele>
<time>2026-07-17T10:01:36.000Z</time>
</trkpt>
<trkpt lat="57.586859" lon="10.189715">
<ele>6.418556</ele>
<time>2026-07-17T10:01:37.000Z</time>
</trkpt>
<trkpt lat="57.586878" lon="10.189802">
<ele>6.481925</ele>
<time>2026-07-17T10:01:38.000Z</time>
</trkpt>
<trkpt lat="57.586892" lon="10.189888">
<ele>6.542551</ele>
<time>2026-07-17T10:01:39.000Z</time>
</trkpt>
<trkpt lat="57.586904" lon="10.189975">
<ele>6.603148</ele>
<time>2026-07-17T10:01:40.000Z</time>
</trkpt>
<trkpt lat="57.586920" lon="10.190062">
<ele>6.665191</ele>
<time>2026-07-17T10:01:41.000Z</time>
</trkpt>
<trkpt lat="57.586939" lon="10.190147">
<ele>6.727312</ele>
<time>2026-07-17T10:01:42.000Z</time>
</trkpt>
<trkpt lat="57.586961" lon="10.190231">
<ele>6.790375</ele>
<time>2026-07-17T10:01:43.000Z</time>
</trkpt>
<trkpt lat="57.586977" lon="10.190321">
<ele>6.854335</ele>
<time>2026-07-17T10:01:44.000Z</time>
</trkpt>
<trkpt lat="57.586996" lon="10.190404">
<ele>6.915213</ele>
<time>2026-07-17T10:01:45.000Z</time>
</trkpt>
<trkpt lat="57.587015" lon="10.190495">
<ele>6.981088</ele>
<time>2026-07-17T10:01:46.000Z</time>
</trkpt>
<trkpt lat="57.587030" lon="10.190589">
<ele>7.047244</ele>
<time>2026-07-17T10:01:47.000Z</time>
</trkpt>
<trkpt lat="57.587041" lon="10.190679">
<ele>7.109511</ele>
<time>2026-07-17T10:01:48.000Z</time>
</trkpt>
<trkpt lat="57.587056" lon="10.190770">
<ele>7.173730</ele>
<time>2026-07-17T10:01:49.000Z</time>
</trkpt>
<trkpt lat="57.587069" lon="10.190861">
<ele>7.237255</ele>
<time>2026-07-17T10:01:50.000Z</time>
</trkpt>
<trkpt lat="57.587087" lon="10.190951">
<ele>7.302052</ele>
<time>2026-07-17T10:01:51.000Z</time>
</trkpt>
<trkpt lat="57.587106" lon="10.191043">
<ele>7.368555</ele>
<time>2026-07-17T10:01:52.000Z</time>
</trkpt>
<trkpt lat="57.587122" lon="10.191137">
<ele>7.435082</ele>
<time>2026-07-17T10:01:53.000Z</time>
</trkpt>
<trkpt lat="57.587141" lon="10.191229">
<ele>7.501585</ele>
<time>2026-07-17T10:01:54.000Z</time>
</trkpt>
<trkpt lat="57.587156" lon="10.191328">
<ele>7.570981</ele>
<time>2026-07-17T10:01:55.000Z</time>
</trkpt>
<trkpt lat="57.587171" lon="10.191427">
<ele>7.640376</ele>
<time>2026-07-17T10:01:56.000Z</time>
</trkpt>
<trkpt lat="57.587187" lon="10.191526">
<ele>7.710124</ele>
<time>2026-07-17T10:01:57.000Z</time>
</trkpt>
<trkpt lat="57.587201" lon="10.191621">
<ele>7.746516</ele>
<time>2026-07-17T10:01:58.000Z</time>
</trkpt>
<trkpt lat="57.587213" lon="10.191713">
<ele>7.778449</ele>
<time>2026-07-17T10:01:59.000Z</time>
</trkpt>
<trkpt lat="57.587228" lon="10.191810">
<ele>7.812497</ele>
<time>2026-07-17T10:02:00.000Z</time>
</trkpt>
<trkpt lat="57.587243" lon="10.191905">
<ele>7.845898</ele>
<time>2026-07-17T10:02:01.000Z</time>
</trkpt>
<trkpt lat="57.587255" lon="10.192002">
<ele>7.879472</ele>
<time>2026-07-17T10:02:02.000Z</time>
</trkpt>
<trkpt lat="57.587270" lon="10.192101">
<ele>7.914169</ele>
<time>2026-07-17T10:02:03.000Z</time>
</trkpt>
<trkpt lat="57.587285" lon="10.192196">
<ele>7.947570</ele>
<time>2026-07-17T10:02:04.000Z</time>
</trkpt>
<trkpt lat="57.587297" lon="10.192295">
<ele>7.981801</ele>
<time>2026-07-17T10:02:05.000Z</time>
</trkpt>
<trkpt lat="57.587312" lon="10.192395">
<ele>8.016823</ele>
<time>2026-07-17T10:02:06.000Z</time>
</trkpt>
<trkpt lat="57.587328" lon="10.192494">
<ele>8.051696</ele>
<time>2026-07-17T10:02:07.000Z</time>
</trkpt>
<trkpt lat="57.587343" lon="10.192590">
<ele>8.085420</ele>
<time>2026-07-17T10:02:08.000Z</time>
</trkpt>
<trkpt lat="57.587358" lon="10.192691">
<ele>8.120767</ele>
<time>2026-07-17T10:02:09.000Z</time>
</trkpt>
<trkpt lat="57.587373" lon="10.192791">
<ele>8.155788</ele>
<time>2026-07-17T10:02:10.000Z</time>
</trkpt>
<trkpt lat="57.587386" lon="10.192888">
<ele>8.189509</ele>
<time>2026-07-17T10:02:11.000Z</time>
</trkpt>
<trkpt lat="57.587408" lon="10.192982">
<ele>8.224102</ele>
<time>2026-07-17T10:02:12.000Z</time>
</trkpt>
<trkpt lat="57.587423" lon="10.193079">
<ele>8.258150</ele>
<time>2026-07-17T10:02:13.000Z</time>
</trkpt>
<trkpt lat="57.587438" lon="10.193179">
<ele>8.293171</ele>
<time>2026-07-17T10:02:14.000Z</time>
</trkpt>
<trkpt lat="57.587454" lon="10.193281">
<ele>8.329014</ele>
<time>2026-07-17T10:02:15.000Z</time>
</trkpt>
<trkpt lat="57.587473" lon="10.193380">
<ele>8.364479</ele>
<time>2026-07-17T10:02:16.000Z</time>
</trkpt>
<trkpt lat="57.587491" lon="10.193477">
<ele>8.399097</ele>
<time>2026-07-17T10:02:17.000Z</time>
</trkpt>
<trkpt lat="57.587503" lon="10.193575">
<ele>8.433000</ele>
<time>2026-07-17T10:02:18.000Z</time>
</trkpt>
<trkpt lat="57.587518" lon="10.193676">
<ele>8.468346</ele>
<time>2026-07-17T10:02:19.000Z</time>
</trkpt>
<trkpt lat="57.587530" lon="10.193778">
<ele>8.503565</ele>
<time>2026-07-17T10:02:20.000Z</time>
</trkpt>
<trkpt lat="57.587545" lon="10.193879">
<ele>8.538911</ele>
<time>2026-07-17T10:02:21.000Z</time>
</trkpt>
<trkpt lat="57.587557" lon="10.193978">
<ele>8.573143</ele>
<time>2026-07-17T10:02:22.000Z</time>
</trkpt>
<trkpt lat="57.587574" lon="10.194076">
<ele>8.607882</ele>
<time>2026-07-17T10:02:23.000Z</time>
</trkpt>
<trkpt lat="57.587591" lon="10.194175">
<ele>8.642941</ele>
<time>2026-07-17T10:02:24.000Z</time>
</trkpt>
<trkpt lat="57.587606" lon="10.194276">
<ele>8.678288</ele>
<time>2026-07-17T10:02:25.000Z</time>
</trkpt>
<trkpt lat="57.587622" lon="10.194379">
<ele>8.714454</ele>
<time>2026-07-17T10:02:26.000Z</time>
</trkpt>
<trkpt lat="57.587637" lon="10.194478">
<ele>8.749151</ele>
<time>2026-07-17T10:02:27.000Z</time>
</trkpt>
<trkpt lat="57.587652" lon="10.194576">
<ele>8.783523</ele>
<time>2026-07-17T10:02:28.000Z</time>
</trkpt>
<trkpt lat="57.587667" lon="10.194677">
<ele>8.818869</ele>
<time>2026-07-17T10:02:29.000Z</time>
</trkpt>
<trkpt lat="57.587683" lon="10.194779">
<ele>8.850280</ele>
<time>2026-07-17T10:02:30.000Z</time>
</trkpt>
<trkpt lat="57.587698" lon="10.194882">
<ele>8.861963</ele>
<time>2026-07-17T10:02:31.000Z</time>
</trkpt>
<trkpt lat="57.587713" lon="10.194980">
<ele>8.873119</ele>
<time>2026-07-17T10:02:32.000Z</time>
</trkpt>
<trkpt lat="57.587729" lon="10.195082">
<ele>8.884752</ele>
<time>2026-07-17T10:02:33.000Z</time>
</trkpt>
<trkpt lat="57.587748" lon="10.195184">
<ele>8.896572</ele>
<time>2026-07-17T10:02:34.000Z</time>
</trkpt>
<trkpt lat="57.587767" lon="10.195291">
<ele>8.908910</ele>
<time>2026-07-17T10:02:35.000Z</time>
</trkpt>
<trkpt lat="57.587786" lon="10.195402">
<ele>8.921665</ele>
<time>2026-07-17T10:02:36.000Z</time>
</trkpt>
<trkpt lat="57.587801" lon="10.195513">
<ele>8.934195</ele>
<time>2026-07-17T10:02:37.000Z</time>
</trkpt>
<trkpt lat="57.587817" lon="10.195625">
<ele>8.946882</ele>
<time>2026-07-17T10:02:38.000Z</time>
</trkpt>
<trkpt lat="57.587835" lon="10.195739">
<ele>8.959891</ele>
<time>2026-07-17T10:02:39.000Z</time>
</trkpt>
<trkpt lat="57.587851" lon="10.195848">
<ele>8.972261</ele>
<time>2026-07-17T10:02:40.000Z</time>
</trkpt>
<trkpt lat="57.587870" lon="10.195957">
<ele>8.984807</ele>
<time>2026-07-17T10:02:41.000Z</time>
</trkpt>
<trkpt lat="57.587889" lon="10.196068">
<ele>8.997562</ele>
<time>2026-07-17T10:02:42.000Z</time>
</trkpt>
<trkpt lat="57.587908" lon="10.196176">
<ele>9.010004</ele>
<time>2026-07-17T10:02:43.000Z</time>
</trkpt>
<trkpt lat="57.587927" lon="10.196287">
<ele>9.022758</ele>
<time>2026-07-17T10:02:44.000Z</time>
</trkpt>
<trkpt lat="57.587947" lon="10.196394">
<ele>9.035162</ele>
<time>2026-07-17T10:02:45.000Z</time>
</trkpt>
<trkpt lat="57.587969" lon="10.196507">
<ele>9.048321</ele>
<time>2026-07-17T10:02:46.000Z</time>
</trkpt>
<trkpt lat="57.587984" lon="10.196617">
<ele>9.060745</ele>
<time>2026-07-17T10:02:47.000Z</time>
</trkpt>
<trkpt lat="57.587999" lon="10.196724">
<ele>9.072851</ele>
<time>2026-07-17T10:02:48.000Z</time>
</trkpt>
<trkpt lat="57.588015" lon="10.196834">
<ele>9.085327</ele>
<time>2026-07-17T10:02:49.000Z</time>
</trkpt>
<trkpt lat="57.588034" lon="10.196942">
<ele>9.097769</ele>
<time>2026-07-17T10:02:50.000Z</time>
</trkpt>
<trkpt lat="57.588052" lon="10.197052">
<ele>9.110358</ele>
<time>2026-07-17T10:02:51.000Z</time>
</trkpt>
<trkpt lat="57.588068" lon="10.197166">
<ele>9.123257</ele>
<time>2026-07-17T10:02:52.000Z</time>
</trkpt>
<trkpt lat="57.588083" lon="10.197281">
<ele>9.136212</ele>
<time>2026-07-17T10:02:53.000Z</time>
</trkpt>
<trkpt lat="57.588098" lon="10.197392">
<ele>9.148742</ele>
<time>2026-07-17T10:02:54.000Z</time>
</trkpt>
<trkpt lat="57.588114" lon="10.197500">
<ele>9.161007</ele>
<time>2026-07-17T10:02:55.000Z</time>
</trkpt>
<trkpt lat="57.588129" lon="10.197601">
<ele>9.172479</ele>
<time>2026-07-17T10:02:56.000Z</time>
</trkpt>
<trkpt lat="57.588140" lon="10.197698">
<ele>9.183331</ele>
<time>2026-07-17T10:02:57.000Z</time>
</trkpt>
<trkpt lat="57.588151" lon="10.197801">
<ele>9.194827</ele>
<time>2026-07-17T10:02:58.000Z</time>
</trkpt>
<trkpt lat="57.588164" lon="10.197909">
<ele>9.206943</ele>
<time>2026-07-17T10:02:59.000Z</time>
</trkpt>
<trkpt lat="57.588182" lon="10.198015">
<ele>9.217643</ele>
<time>2026-07-17T10:03:00.000Z</time>
</trkpt>
<trkpt lat="57.588198" lon="10.198119">
<ele>9.224727</ele>
<time>2026-07-17T10:03:01.000Z</time>
</trkpt>
<trkpt lat="57.588216" lon="10.198220">
<ele>9.231694</ele>
<time>2026-07-17T10:03:02.000Z</time>
</trkpt>
<trkpt lat="57.588229" lon="10.198332">
<ele>9.239196</ele>
<time>2026-07-17T10:03:03.000Z</time>
</trkpt>
<trkpt lat="57.588248" lon="10.198446">
<ele>9.247012</ele>
<time>2026-07-17T10:03:04.000Z</time>
</trkpt>
<trkpt lat="57.588270" lon="10.198556">
<ele>9.254698</ele>
<time>2026-07-17T10:03:05.000Z</time>
</trkpt>
<trkpt lat="57.588285" lon="10.198670">
<ele>9.262383</ele>
<time>2026-07-17T10:03:06.000Z</time>
</trkpt>
<trkpt lat="57.588301" lon="10.198780">
<ele>9.269844</ele>
<time>2026-07-17T10:03:07.000Z</time>
</trkpt>
<trkpt lat="57.588316" lon="10.198894">
<ele>9.277529</ele>
<time>2026-07-17T10:03:08.000Z</time>
</trkpt>
<trkpt lat="57.588335" lon="10.199008">
<ele>9.285344</ele>
<time>2026-07-17T10:03:09.000Z</time>
</trkpt>
<trkpt lat="57.588351" lon="10.199122">
<ele>9.293059</ele>
<time>2026-07-17T10:03:10.000Z</time>
</trkpt>
<trkpt lat="57.588373" lon="10.199240">
<ele>9.301237</ele>
<time>2026-07-17T10:03:11.000Z</time>
</trkpt>
<trkpt lat="57.588388" lon="10.199353">
<ele>9.308858</ele>
<time>2026-07-17T10:03:12.000Z</time>
</trkpt>
<trkpt lat="57.588404" lon="10.199468">
<ele>9.316636</ele>
<time>2026-07-17T10:03:13.000Z</time>
</trkpt>
<trkpt lat="57.588423" lon="10.199582">
<ele>9.324452</ele>
<time>2026-07-17T10:03:14.000Z</time>
</trkpt>
<trkpt lat="57.588437" lon="10.199696">
<ele>9.332108</ele>
<time>2026-07-17T10:03:15.000Z</time>
</trkpt>
<trkpt lat="57.588449" lon="10.199806">
<ele>9.339457</ele>
<time>2026-07-17T10:03:16.000Z</time>
</trkpt>
<trkpt lat="57.588465" lon="10.199918">
<ele>9.347045</ele>
<time>2026-07-17T10:03:17.000Z</time>
</trkpt>
<trkpt lat="57.588480" lon="10.200027">
<ele>9.354412</ele>
<time>2026-07-17T10:03:18.000Z</time>
</trkpt>
<trkpt lat="57.588495" lon="10.200140">
<ele>9.362033</ele>
<time>2026-07-17T10:03:19.000Z</time>
</trkpt>
<trkpt lat="57.588506" lon="10.200250">
<ele>9.369358</ele>
<time>2026-07-17T10:03:20.000Z</time>
</trkpt>
<trkpt lat="57.588521" lon="10.200355">
<ele>9.376472</ele>
<time>2026-07-17T10:03:21.000Z</time>
</trkpt>
<trkpt lat="57.588533" lon="10.200467">
<ele>9.383949</ele>
<time>2026-07-17T10:03:22.000Z</time>
</trkpt>
<trkpt lat="57.588545" lon="10.200579">
<ele>9.391426</ele>
<time>2026-07-17T10:03:23.000Z</time>
</trkpt>
<trkpt lat="57.588560" lon="10.200686">
<ele>9.398666</ele>
<time>2026-07-17T10:03:24.000Z</time>
</trkpt>
<trkpt lat="57.588571" lon="10.200794">
<ele>9.405863</ele>
<time>2026-07-17T10:03:25.000Z</time>
</trkpt>
<trkpt lat="57.588582" lon="10.200901">
<ele>9.412995</ele>
<time>2026-07-17T10:03:26.000Z</time>
</trkpt>
<trkpt lat="57.588590" lon="10.201009">
<ele>9.420132</ele>
<time>2026-07-17T10:03:27.000Z</time>
</trkpt>
<trkpt lat="57.588601" lon="10.201118">
<ele>9.427393</ele>
<time>2026-07-17T10:03:28.000Z</time>
</trkpt>
<trkpt lat="57.588609" lon="10.201228">
<ele>9.434660</ele>
<time>2026-07-17T10:03:29.000Z</time>
</trkpt>
<trkpt lat="57.588617" lon="10.201339">
<ele>9.392591</ele>
<time>2026-07-17T10:03:30.000Z</time>
</trkpt>
<trkpt lat="57.588628" lon="10.201452">
<ele>9.345951</ele>
<time>2026-07-17T10:03:31.000Z</time>
</trkpt>
<trkpt lat="57.588635" lon="10.201562">
<ele>9.300967</ele>
<time>2026-07-17T10:03:32.000Z</time>
</trkpt>
<trkpt lat="57.588643" lon="10.201674">
<ele>9.255082</ele>
<time>2026-07-17T10:03:33.000Z</time>
</trkpt>
<trkpt lat="57.588646" lon="10.201779">
<ele>9.212381</ele>
<time>2026-07-17T10:03:34.000Z</time>
</trkpt>
<trkpt lat="57.588650" lon="10.201883">
<ele>9.170038</ele>
<time>2026-07-17T10:03:35.000Z</time>
</trkpt>
<trkpt lat="57.588654" lon="10.201992">
<ele>9.125670</ele>
<time>2026-07-17T10:03:36.000Z</time>
</trkpt>
<trkpt lat="57.588662" lon="10.202108">
<ele>9.078174</ele>
<time>2026-07-17T10:03:37.000Z</time>
</trkpt>
<trkpt lat="57.588666" lon="10.202227">
<ele>9.029754</ele>
<time>2026-07-17T10:03:38.000Z</time>
</trkpt>
<trkpt lat="57.588677" lon="10.202349">
<ele>8.979514</ele>
<time>2026-07-17T10:03:39.000Z</time>
</trkpt>
<trkpt lat="57.588685" lon="10.202472">
<ele>8.929197</ele>
<time>2026-07-17T10:03:40.000Z</time>
</trkpt>
<trkpt lat="57.588692" lon="10.202594">
<ele>8.879371</ele>
<time>2026-07-17T10:03:41.000Z</time>
</trkpt>
<trkpt lat="57.588696" lon="10.202713">
<ele>8.830950</ele>
<time>2026-07-17T10:03:42.000Z</time>
</trkpt>
<trkpt lat="57.588699" lon="10.202830">
<ele>8.783382</ele>
<time>2026-07-17T10:03:43.000Z</time>
</trkpt>
<trkpt lat="57.588699" lon="10.202939">
<ele>8.739118</ele>
<time>2026-07-17T10:03:44.000Z</time>
</trkpt>
<trkpt lat="57.588703" lon="10.203067">
<ele>8.687049</ele>
<time>2026-07-17T10:03:45.000Z</time>
</trkpt>
<trkpt lat="57.588704" lon="10.203178">
<ele>8.641966</ele>
<time>2026-07-17T10:03:46.000Z</time>
</trkpt>
<trkpt lat="57.588712" lon="10.203288">
<ele>8.596886</ele>
<time>2026-07-17T10:03:47.000Z</time>
</trkpt>
<trkpt lat="57.588719" lon="10.203394">
<ele>8.553514</ele>
<time>2026-07-17T10:03:48.000Z</time>
</trkpt>
<trkpt lat="57.588723" lon="10.203503">
<ele>8.509146</ele>
<time>2026-07-17T10:03:49.000Z</time>
</trkpt>
<trkpt lat="57.588726" lon="10.203613">
<ele>8.464418</ele>
<time>2026-07-17T10:03:50.000Z</time>
</trkpt>
<trkpt lat="57.588730" lon="10.203733">
<ele>8.415592</ele>
<time>2026-07-17T10:03:51.000Z</time>
</trkpt>
<trkpt lat="57.588730" lon="10.203854">
<ele>8.366454</ele>
<time>2026-07-17T10:03:52.000Z</time>
</trkpt>
<trkpt lat="57.588730" lon="10.203971">
<ele>8.318941</ele>
<time>2026-07-17T10:03:53.000Z</time>
</trkpt>
<trkpt lat="57.588730" lon="10.204091">
<ele>8.270209</ele>
<time>2026-07-17T10:03:54.000Z</time>
</trkpt>
<trkpt lat="57.588730" lon="10.204214">
<ele>8.220260</ele>
<time>2026-07-17T10:03:55.000Z</time>
</trkpt>
<trkpt lat="57.588730" lon="10.204339">
<ele>8.169497</ele>
<time>2026-07-17T10:03:56.000Z</time>
</trkpt>
<trkpt lat="57.588729" lon="10.204465">
<ele>8.118324</ele>
<time>2026-07-17T10:03:57.000Z</time>
</trkpt>
<trkpt lat="57.588726" lon="10.204592">
<ele>8.072502</ele>
<time>2026-07-17T10:03:58.000Z</time>
</trkpt>
<trkpt lat="57.588726" lon="10.204713">
<ele>8.073500</ele>
<time>2026-07-17T10:03:59.000Z</time>
</trkpt>
<trkpt lat="57.588722" lon="10.204834">
<ele>8.074500</ele>
<time>2026-07-17T10:04:00.000Z</time>
</trkpt>
<trkpt lat="57.588718" lon="10.204965">
<ele>8.075583</ele>
<time>2026-07-17T10:04:01.000Z</time>
</trkpt>
<trkpt lat="57.588718" lon="10.205088">
<ele>8.076597</ele>
<time>2026-07-17T10:04:02.000Z</time>
</trkpt>
<trkpt lat="57.588718" lon="10.205212">
<ele>8.077620</ele>
<time>2026-07-17T10:04:03.000Z</time>
</trkpt>
<trkpt lat="57.588718" lon="10.205323">
<ele>8.078536</ele>
<time>2026-07-17T10:04:04.000Z</time>
</trkpt>
<trkpt lat="57.588719" lon="10.205443">
<ele>8.079526</ele>
<time>2026-07-17T10:04:05.000Z</time>
</trkpt>
<trkpt lat="57.588723" lon="10.205559">
<ele>8.080485</ele>
<time>2026-07-17T10:04:06.000Z</time>
</trkpt>
<trkpt lat="57.588730" lon="10.205675">
<ele>8.081447</ele>
<time>2026-07-17T10:04:07.000Z</time>
</trkpt>
<trkpt lat="57.588730" lon="10.205788">
<ele>8.082380</ele>
<time>2026-07-17T10:04:08.000Z</time>
</trkpt>
<trkpt lat="57.588730" lon="10.205911">
<ele>8.083394</ele>
<time>2026-07-17T10:04:09.000Z</time>
</trkpt>
<trkpt lat="57.588730" lon="10.206036">
<ele>8.084425</ele>
<time>2026-07-17T10:04:10.000Z</time>
</trkpt>
<trkpt lat="57.588734" lon="10.206159">
<ele>8.085442</ele>
<time>2026-07-17T10:04:11.000Z</time>
</trkpt>
<trkpt lat="57.588734" lon="10.206289">
<ele>8.086514</ele>
<time>2026-07-17T10:04:12.000Z</time>
</trkpt>
<trkpt lat="57.588737" lon="10.206419">
<ele>8.087587</ele>
<time>2026-07-17T10:04:13.000Z</time>
</trkpt>
<trkpt lat="57.588737" lon="10.206549">
<ele>8.088660</ele>
<time>2026-07-17T10:04:14.000Z</time>
</trkpt>
<trkpt lat="57.588738" lon="10.206682">
<ele>8.089757</ele>
<time>2026-07-17T10:04:15.000Z</time>
</trkpt>
<trkpt lat="57.588741" lon="10.206809">
<ele>8.090805</ele>
<time>2026-07-17T10:04:16.000Z</time>
</trkpt>
<trkpt lat="57.588741" lon="10.206934">
<ele>8.091836</ele>
<time>2026-07-17T10:04:17.000Z</time>
</trkpt>
<trkpt lat="57.588741" lon="10.207056">
<ele>8.092843</ele>
<time>2026-07-17T10:04:18.000Z</time>
</trkpt>
<trkpt lat="57.588737" lon="10.207176">
<ele>8.093835</ele>
<time>2026-07-17T10:04:19.000Z</time>
</trkpt>
<trkpt lat="57.588737" lon="10.207294">
<ele>8.094808</ele>
<time>2026-07-17T10:04:20.000Z</time>
</trkpt>
<trkpt lat="57.588734" lon="10.207406">
<ele>8.095733</ele>
<time>2026-07-17T10:04:21.000Z</time>
</trkpt>
<trkpt lat="57.588734" lon="10.207526">
<ele>8.096723</ele>
<time>2026-07-17T10:04:22.000Z</time>
</trkpt>
<trkpt lat="57.588737" lon="10.207640">
<ele>8.097664</ele>
<time>2026-07-17T10:04:23.000Z</time>
</trkpt>
<trkpt lat="57.588737" lon="10.207758">
<ele>8.098638</ele>
<time>2026-07-17T10:04:24.000Z</time>
</trkpt>
<trkpt lat="57.588737" lon="10.207878">
<ele>8.099627</ele>
<time>2026-07-17T10:04:25.000Z</time>
</trkpt>
<trkpt lat="57.588733" lon="10.207994">
<ele>8.126331</ele>
<time>2026-07-17T10:04:26.000Z</time>
</trkpt>
<trkpt lat="57.588730" lon="10.208112">
<ele>8.175624</ele>
<time>2026-07-17T10:04:27.000Z</time>
</trkpt>
<trkpt lat="57.588730" lon="10.208233">
<ele>8.226112</ele>
<time>2026-07-17T10:04:28.000Z</time>
</trkpt>
<trkpt lat="57.588729" lon="10.208356">
<ele>8.277442</ele>
<time>2026-07-17T10:04:29.000Z</time>
</trkpt>
<trkpt lat="57.588726" lon="10.208473">
<ele>8.326317</ele>
<time>2026-07-17T10:04:30.000Z</time>
</trkpt>
<trkpt lat="57.588722" lon="10.208588">
<ele>8.374403</ele>
<time>2026-07-17T10:04:31.000Z</time>
</trkpt>
<trkpt lat="57.588722" lon="10.208704">
<ele>8.422806</ele>
<time>2026-07-17T10:04:32.000Z</time>
</trkpt>
<trkpt lat="57.588718" lon="10.208824">
<ele>8.472974</ele>
<time>2026-07-17T10:04:33.000Z</time>
</trkpt>
<trkpt lat="57.588718" lon="10.208938">
<ele>8.520542</ele>
<time>2026-07-17T10:04:34.000Z</time>
</trkpt>
<trkpt lat="57.588714" lon="10.209048">
<ele>8.566547</ele>
<time>2026-07-17T10:04:35.000Z</time>
</trkpt>
<trkpt lat="57.588710" lon="10.209156">
<ele>8.611718</ele>
<time>2026-07-17T10:04:36.000Z</time>
</trkpt>
<trkpt lat="57.588707" lon="10.209255">
<ele>8.653093</ele>
<time>2026-07-17T10:04:37.000Z</time>
</trkpt>
<trkpt lat="57.588706" lon="10.209369">
<ele>8.700668</ele>
<time>2026-07-17T10:04:38.000Z</time>
</trkpt>
<trkpt lat="57.588699" lon="10.209482">
<ele>8.748132</ele>
<time>2026-07-17T10:04:39.000Z</time>
</trkpt>
<trkpt lat="57.588696" lon="10.209587">
<ele>8.792007</ele>
<time>2026-07-17T10:04:40.000Z</time>
</trkpt>
<trkpt lat="57.588695" lon="10.209691">
<ele>8.835410</ele>
<time>2026-07-17T10:04:41.000Z</time>
</trkpt>
<trkpt lat="57.588692" lon="10.209798">
<ele>8.880118</ele>
<time>2026-07-17T10:04:42.000Z</time>
</trkpt>
<trkpt lat="57.588692" lon="10.209899">
<ele>8.922261</ele>
<time>2026-07-17T10:04:43.000Z</time>
</trkpt>
<trkpt lat="57.588691" lon="10.209995">
<ele>8.962326</ele>
<time>2026-07-17T10:04:44.000Z</time>
</trkpt>
<trkpt lat="57.588688" lon="10.210098">
<ele>9.005368</ele>
<time>2026-07-17T10:04:45.000Z</time>
</trkpt>
<trkpt lat="57.588691" lon="10.210201">
<ele>9.048409</ele>
<time>2026-07-17T10:04:46.000Z</time>
</trkpt>
<trkpt lat="57.588688" lon="10.210306">
<ele>9.092284</ele>
<time>2026-07-17T10:04:47.000Z</time>
</trkpt>
<trkpt lat="57.588688" lon="10.210410">
<ele>9.135680</ele>
<time>2026-07-17T10:04:48.000Z</time>
</trkpt>
<trkpt lat="57.588688" lon="10.210518">
<ele>9.180744</ele>
<time>2026-07-17T10:04:49.000Z</time>
</trkpt>
<trkpt lat="57.588688" lon="10.210636">
<ele>9.229981</ele>
<time>2026-07-17T10:04:50.000Z</time>
</trkpt>
<trkpt lat="57.588688" lon="10.210755">
<ele>9.279635</ele>
<time>2026-07-17T10:04:51.000Z</time>
</trkpt>
<trkpt lat="57.588688" lon="10.210874">
<ele>9.329290</ele>
<time>2026-07-17T10:04:52.000Z</time>
</trkpt>
<trkpt lat="57.588688" lon="10.210995">
<ele>9.379779</ele>
<time>2026-07-17T10:04:53.000Z</time>
</trkpt>
<trkpt lat="57.588688" lon="10.211113">
<ele>9.429016</ele>
<time>2026-07-17T10:04:54.000Z</time>
</trkpt>
<trkpt lat="57.588688" lon="10.211228">
<ele>9.477001</ele>
<time>2026-07-17T10:04:55.000Z</time>
</trkpt>
<trkpt lat="57.588684" lon="10.211344">
<ele>9.503951</ele>
<time>2026-07-17T10:04:56.000Z</time>
</trkpt>
<trkpt lat="57.588680" lon="10.211463">
<ele>9.511183</ele>
<time>2026-07-17T10:04:57.000Z</time>
</trkpt>
<trkpt lat="57.588676" lon="10.211577">
<ele>9.518112</ele>
<time>2026-07-17T10:04:58.000Z</time>
</trkpt>
<trkpt lat="57.588676" lon="10.211699">
<ele>9.525512</ele>
<time>2026-07-17T10:04:59.000Z</time>
</trkpt>
<trkpt lat="57.588673" lon="10.211815">
<ele>9.532556</ele>
<time>2026-07-17T10:05:00.000Z</time>
</trkpt>
<trkpt lat="57.588672" lon="10.211925">
<ele>9.539228</ele>
<time>2026-07-17T10:05:01.000Z</time>
</trkpt>
<trkpt lat="57.588664" lon="10.212028">
<ele>9.545541</ele>
<time>2026-07-17T10:05:02.000Z</time>
</trkpt>
<trkpt lat="57.588657" lon="10.212131">
<ele>9.551838</ele>
<time>2026-07-17T10:05:03.000Z</time>
</trkpt>
<trkpt lat="57.588648" lon="10.212239">
<ele>9.558467</ele>
<time>2026-07-17T10:05:04.000Z</time>
</trkpt>
<trkpt lat="57.588638" lon="10.212342">
<ele>9.564816</ele>
<time>2026-07-17T10:05:05.000Z</time>
</trkpt>
<trkpt lat="57.588630" lon="10.212449">
<ele>9.571369</ele>
<time>2026-07-17T10:05:06.000Z</time>
</trkpt>
<trkpt lat="57.588622" lon="10.212556">
<ele>9.577922</ele>
<time>2026-07-17T10:05:07.000Z</time>
</trkpt>
<trkpt lat="57.588611" lon="10.212655">
<ele>9.584054</ele>
<time>2026-07-17T10:05:08.000Z</time>
</trkpt>
<trkpt lat="57.588599" lon="10.212775">
<ele>9.591458</ele>
<time>2026-07-17T10:05:09.000Z</time>
</trkpt>
<trkpt lat="57.588588" lon="10.212884">
<ele>9.598185</ele>
<time>2026-07-17T10:05:10.000Z</time>
</trkpt>
<trkpt lat="57.588576" lon="10.212996">
<ele>9.605113</ele>
<time>2026-07-17T10:05:11.000Z</time>
</trkpt>
<trkpt lat="57.588561" lon="10.213106">
<ele>9.611997</ele>
<time>2026-07-17T10:05:12.000Z</time>
</trkpt>
<trkpt lat="57.588545" lon="10.213222">
<ele>9.619262</ele>
<time>2026-07-17T10:05:13.000Z</time>
</trkpt>
<trkpt lat="57.588534" lon="10.213338">
<ele>9.626407</ele>
<time>2026-07-17T10:05:14.000Z</time>
</trkpt>
<trkpt lat="57.588519" lon="10.213456">
<ele>9.633763</ele>
<time>2026-07-17T10:05:15.000Z</time>
</trkpt>
<trkpt lat="57.588507" lon="10.213569">
<ele>9.640750</ele>
<time>2026-07-17T10:05:16.000Z</time>
</trkpt>
<trkpt lat="57.588492" lon="10.213685">
<ele>9.647987</ele>
<time>2026-07-17T10:05:17.000Z</time>
</trkpt>
<trkpt lat="57.588480" lon="10.213797">
<ele>9.654915</ele>
<time>2026-07-17T10:05:18.000Z</time>
</trkpt>
<trkpt lat="57.588465" lon="10.213909">
<ele>9.661917</ele>
<time>2026-07-17T10:05:19.000Z</time>
</trkpt>
<trkpt lat="57.588454" lon="10.214024">
<ele>9.669002</ele>
<time>2026-07-17T10:05:20.000Z</time>
</trkpt>
<trkpt lat="57.588442" lon="10.214138">
<ele>9.676049</ele>
<time>2026-07-17T10:05:21.000Z</time>
</trkpt>
<trkpt lat="57.588431" lon="10.214252">
<ele>9.683074</ele>
<time>2026-07-17T10:05:22.000Z</time>
</trkpt>
<trkpt lat="57.588420" lon="10.214365">
<ele>9.690040</ele>
<time>2026-07-17T10:05:23.000Z</time>
</trkpt>
<trkpt lat="57.588408" lon="10.214483">
<ele>9.697325</ele>
<time>2026-07-17T10:05:24.000Z</time>
</trkpt>
<trkpt lat="57.588393" lon="10.214598">
<ele>9.703202</ele>
<time>2026-07-17T10:05:25.000Z</time>
</trkpt>
<trkpt lat="57.588382" lon="10.214713">
<ele>9.696822</ele>
<time>2026-07-17T10:05:26.000Z</time>
</trkpt>
<trkpt lat="57.588370" lon="10.214828">
<ele>9.690422</ele>
<time>2026-07-17T10:05:27.000Z</time>
</trkpt>
<trkpt lat="57.588359" lon="10.214939">
<ele>9.684257</ele>
<time>2026-07-17T10:05:28.000Z</time>
</trkpt>
<trkpt lat="57.588348" lon="10.215051">
<ele>9.678037</ele>
<time>2026-07-17T10:05:29.000Z</time>
</trkpt>
<trkpt lat="57.588340" lon="10.215158">
<ele>9.672136</ele>
<time>2026-07-17T10:05:30.000Z</time>
</trkpt>
<trkpt lat="57.588332" lon="10.215277">
<ele>9.665585</ele>
<time>2026-07-17T10:05:31.000Z</time>
</trkpt>
<trkpt lat="57.588325" lon="10.215388">
<ele>9.659480</ele>
<time>2026-07-17T10:05:32.000Z</time>
</trkpt>
<trkpt lat="57.588321" lon="10.215503">
<ele>9.653185</ele>
<time>2026-07-17T10:05:33.000Z</time>
</trkpt>
<trkpt lat="57.588313" lon="10.215615">
<ele>9.647014</ele>
<time>2026-07-17T10:05:34.000Z</time>
</trkpt>
<trkpt lat="57.588306" lon="10.215728">
<ele>9.640800</ele>
<time>2026-07-17T10:05:35.000Z</time>
</trkpt>
<trkpt lat="57.588306" lon="10.215852">
<ele>9.634027</ele>
<time>2026-07-17T10:05:36.000Z</time>
</trkpt>
<trkpt lat="57.588306" lon="10.215974">
<ele>9.627363</ele>
<time>2026-07-17T10:05:37.000Z</time>
</trkpt>
<trkpt lat="57.588306" lon="10.216096">
<ele>9.620700</ele>
<time>2026-07-17T10:05:38.000Z</time>
</trkpt>
<trkpt lat="57.588306" lon="10.216216">
<ele>9.614145</ele>
<time>2026-07-17T10:05:39.000Z</time>
</trkpt>
<trkpt lat="57.588307" lon="10.216338">
<ele>9.607480</ele>
<time>2026-07-17T10:05:40.000Z</time>
</trkpt>
<trkpt lat="57.588311" lon="10.216465">
<ele>9.600531</ele>
<time>2026-07-17T10:05:41.000Z</time>
</trkpt>
<trkpt lat="57.588315" lon="10.216587">
<ele>9.593855</ele>
<time>2026-07-17T10:05:42.000Z</time>
</trkpt>
<trkpt lat="57.588318" lon="10.216703">
<ele>9.587512</ele>
<time>2026-07-17T10:05:43.000Z</time>
</trkpt>
<trkpt lat="57.588317" lon="10.216816">
<ele>9.581338</ele>
<time>2026-07-17T10:05:44.000Z</time>
</trkpt>
<trkpt lat="57.588314" lon="10.216930">
<ele>9.575104</ele>
<time>2026-07-17T10:05:45.000Z</time>
</trkpt>
<trkpt lat="57.588318" lon="10.217052">
<ele>9.568428</ele>
<time>2026-07-17T10:05:46.000Z</time>
</trkpt>
<trkpt lat="57.588323" lon="10.217173">
<ele>9.561799</ele>
<time>2026-07-17T10:05:47.000Z</time>
</trkpt>
<trkpt lat="57.588334" lon="10.217296">
<ele>9.554987</ele>
<time>2026-07-17T10:05:48.000Z</time>
</trkpt>
<trkpt lat="57.588342" lon="10.217415">
<ele>9.548437</ele>
<time>2026-07-17T10:05:49.000Z</time>
</trkpt>
<trkpt lat="57.588353" lon="10.217533">
<ele>9.541894</ele>
<time>2026-07-17T10:05:50.000Z</time>
</trkpt>
<trkpt lat="57.588365" lon="10.217650">
<ele>9.535388</ele>
<time>2026-07-17T10:05:51.000Z</time>
</trkpt>
<trkpt lat="57.588376" lon="10.217767">
<ele>9.528899</ele>
<time>2026-07-17T10:05:52.000Z</time>
</trkpt>
<trkpt lat="57.588388" lon="10.217889">
<ele>9.522124</ele>
<time>2026-07-17T10:05:53.000Z</time>
</trkpt>
<trkpt lat="57.588403" lon="10.218009">
<ele>9.539842</ele>
<time>2026-07-17T10:05:54.000Z</time>
</trkpt>
<trkpt lat="57.588419" lon="10.218130">
<ele>9.565467</ele>
<time>2026-07-17T10:05:55.000Z</time>
</trkpt>
<trkpt lat="57.588434" lon="10.218245">
<ele>9.589802</ele>
<time>2026-07-17T10:05:56.000Z</time>
</trkpt>
<trkpt lat="57.588450" lon="10.218360">
<ele>9.614230</ele>
<time>2026-07-17T10:05:57.000Z</time>
</trkpt>
<trkpt lat="57.588468" lon="10.218475">
<ele>9.638862</ele>
<time>2026-07-17T10:05:58.000Z</time>
</trkpt>
<trkpt lat="57.588484" lon="10.218593">
<ele>9.663888</ele>
<time>2026-07-17T10:05:59.000Z</time>
</trkpt>
<trkpt lat="57.588506" lon="10.218708">
<ele>9.688994</ele>
<time>2026-07-17T10:06:00.000Z</time>
</trkpt>
<trkpt lat="57.588526" lon="10.218829">
<ele>9.715028</ele>
<time>2026-07-17T10:06:01.000Z</time>
</trkpt>
<trkpt lat="57.588548" lon="10.218939">
<ele>9.739168</ele>
<time>2026-07-17T10:06:02.000Z</time>
</trkpt>
<trkpt lat="57.588568" lon="10.219056">
<ele>9.764418</ele>
<time>2026-07-17T10:06:03.000Z</time>
</trkpt>
<trkpt lat="57.588592" lon="10.219168">
<ele>9.789218</ele>
<time>2026-07-17T10:06:04.000Z</time>
</trkpt>
<trkpt lat="57.588618" lon="10.219279">
<ele>9.814125</ele>
<time>2026-07-17T10:06:05.000Z</time>
</trkpt>
<trkpt lat="57.588641" lon="10.219390">
<ele>9.838593</ele>
<time>2026-07-17T10:06:06.000Z</time>
</trkpt>
<trkpt lat="57.588664" lon="10.219499">
<ele>9.862678</ele>
<time>2026-07-17T10:06:07.000Z</time>
</trkpt>
<trkpt lat="57.588687" lon="10.219609">
<ele>9.886955</ele>
<time>2026-07-17T10:06:08.000Z</time>
</trkpt>
<trkpt lat="57.588709" lon="10.219716">
<ele>9.910518</ele>
<time>2026-07-17T10:06:09.000Z</time>
</trkpt>
<trkpt lat="57.588733" lon="10.219824">
<ele>9.934556</ele>
<time>2026-07-17T10:06:10.000Z</time>
</trkpt>
<trkpt lat="57.588759" lon="10.219925">
<ele>9.957593</ele>
<time>2026-07-17T10:06:11.000Z</time>
</trkpt>
<trkpt lat="57.588786" lon="10.220035">
<ele>9.982468</ele>
<time>2026-07-17T10:06:12.000Z</time>
</trkpt>
<trkpt lat="57.588808" lon="10.220140">
<ele>10.005648</ele>
<time>2026-07-17T10:06:13.000Z</time>
</trkpt>
<trkpt lat="57.588831" lon="10.220249">
<ele>10.029733</ele>
<time>2026-07-17T10:06:14.000Z</time>
</trkpt>
<trkpt lat="57.588851" lon="10.220351">
<ele>10.052064</ele>
<time>2026-07-17T10:06:15.000Z</time>
</trkpt>
<trkpt lat="57.588875" lon="10.220447">
<ele>10.073843</ele>
<time>2026-07-17T10:06:16.000Z</time>
</trkpt>
<trkpt lat="57.588904" lon="10.220543">
<ele>10.096500</ele>
<time>2026-07-17T10:06:17.000Z</time>
</trkpt>
<trkpt lat="57.588927" lon="10.220627">
<ele>10.115894</ele>
<time>2026-07-17T10:06:18.000Z</time>
</trkpt>
<trkpt lat="57.588958" lon="10.220743">
<ele>10.142544</ele>
<time>2026-07-17T10:06:19.000Z</time>
</trkpt>
<trkpt lat="57.588984" lon="10.220838">
<ele>10.164476</ele>
<time>2026-07-17T10:06:20.000Z</time>
</trkpt>
<trkpt lat="57.589007" lon="10.220938">
<ele>10.186849</ele>
<time>2026-07-17T10:06:21.000Z</time>
</trkpt>
<trkpt lat="57.589033" lon="10.221040">
<ele>10.210072</ele>
<time>2026-07-17T10:06:22.000Z</time>
</trkpt>
<trkpt lat="57.589057" lon="10.221144">
<ele>10.220890</ele>
<time>2026-07-17T10:06:23.000Z</time>
</trkpt>
<trkpt lat="57.589083" lon="10.221247">
<ele>10.231544</ele>
<time>2026-07-17T10:06:24.000Z</time>
</trkpt>
<trkpt lat="57.589106" lon="10.221351">
<ele>10.242071</ele>
<time>2026-07-17T10:06:25.000Z</time>
</trkpt>
<trkpt lat="57.589129" lon="10.221460">
<ele>10.253033</ele>
<time>2026-07-17T10:06:26.000Z</time>
</trkpt>
<trkpt lat="57.589148" lon="10.221567">
<ele>10.263580</ele>
<time>2026-07-17T10:06:27.000Z</time>
</trkpt>
<trkpt lat="57.589171" lon="10.221672">
<ele>10.274194</ele>
<time>2026-07-17T10:06:28.000Z</time>
</trkpt>
<trkpt lat="57.589194" lon="10.221781">
<ele>10.285156</ele>
<time>2026-07-17T10:06:29.000Z</time>
</trkpt>
<trkpt lat="57.589217" lon="10.221886">
<ele>10.295770</ele>
<time>2026-07-17T10:06:30.000Z</time>
</trkpt>
<trkpt lat="57.589243" lon="10.221999">
<ele>10.307277</ele>
<time>2026-07-17T10:06:31.000Z</time>
</trkpt>
<trkpt lat="57.589266" lon="10.222111">
<ele>10.318500</ele>
<time>2026-07-17T10:06:32.000Z</time>
</trkpt>
<trkpt lat="57.589286" lon="10.222224">
<ele>10.329635</ele>
<time>2026-07-17T10:06:33.000Z</time>
</trkpt>
<trkpt lat="57.589308" lon="10.222335">
<ele>10.340709</ele>
<time>2026-07-17T10:06:34.000Z</time>
</trkpt>
<trkpt lat="57.589328" lon="10.222446">
<ele>10.351667</ele>
<time>2026-07-17T10:06:35.000Z</time>
</trkpt>
<trkpt lat="57.589355" lon="10.222558">
<ele>10.363159</ele>
<time>2026-07-17T10:06:36.000Z</time>
</trkpt>
<trkpt lat="57.589381" lon="10.222666">
<ele>10.374237</ele>
<time>2026-07-17T10:06:37.000Z</time>
</trkpt>
<trkpt lat="57.589403" lon="10.222769">
<ele>10.384612</ele>
<time>2026-07-17T10:06:38.000Z</time>
</trkpt>
<trkpt lat="57.589423" lon="10.222880">
<ele>10.395570</ele>
<time>2026-07-17T10:06:39.000Z</time>
</trkpt>
<trkpt lat="57.589446" lon="10.222991">
<ele>10.406706</ele>
<time>2026-07-17T10:06:40.000Z</time>
</trkpt>
<trkpt lat="57.589472" lon="10.223103">
<ele>10.418127</ele>
<time>2026-07-17T10:06:41.000Z</time>
</trkpt>
<trkpt lat="57.589495" lon="10.223211">
<ele>10.429001</ele>
<time>2026-07-17T10:06:42.000Z</time>
</trkpt>
<trkpt lat="57.589514" lon="10.223321">
<ele>10.439815</ele>
<time>2026-07-17T10:06:43.000Z</time>
</trkpt>
<trkpt lat="57.589537" lon="10.223429">
<ele>10.450690</ele>
<time>2026-07-17T10:06:44.000Z</time>
</trkpt>
<trkpt lat="57.589564" lon="10.223539">
<ele>10.462011</ele>
<time>2026-07-17T10:06:45.000Z</time>
</trkpt>
<trkpt lat="57.589583" lon="10.223640">
<ele>10.472027</ele>
<time>2026-07-17T10:06:46.000Z</time>
</trkpt>
<trkpt lat="57.589606" lon="10.223738">
<ele>10.482038</ele>
<time>2026-07-17T10:06:47.000Z</time>
</trkpt>
<trkpt lat="57.589627" lon="10.223834">
<ele>10.491740</ele>
<time>2026-07-17T10:06:48.000Z</time>
</trkpt>
<trkpt lat="57.589644" lon="10.223930">
<ele>10.501200</ele>
<time>2026-07-17T10:06:49.000Z</time>
</trkpt>
<trkpt lat="57.589666" lon="10.224024">
<ele>10.510798</ele>
<time>2026-07-17T10:06:50.000Z</time>
</trkpt>
<trkpt lat="57.589681" lon="10.224112">
<ele>10.519439</ele>
<time>2026-07-17T10:06:51.000Z</time>
</trkpt>
<trkpt lat="57.589698" lon="10.224205">
<ele>10.523406</ele>
<time>2026-07-17T10:06:52.000Z</time>
</trkpt>
<trkpt lat="57.589725" lon="10.224312">
<ele>10.520502</ele>
<time>2026-07-17T10:06:53.000Z</time>
</trkpt>
<trkpt lat="57.589752" lon="10.224425">
<ele>10.517465</ele>
<time>2026-07-17T10:06:54.000Z</time>
</trkpt>
<trkpt lat="57.589782" lon="10.224535">
<ele>10.514435</ele>
<time>2026-07-17T10:06:55.000Z</time>
</trkpt>
<trkpt lat="57.589813" lon="10.224645">
<ele>10.511383</ele>
<time>2026-07-17T10:06:56.000Z</time>
</trkpt>
<trkpt lat="57.589843" lon="10.224759">
<ele>10.508265</ele>
<time>2026-07-17T10:06:57.000Z</time>
</trkpt>
<trkpt lat="57.589869" lon="10.224872">
<ele>10.505246</ele>
<time>2026-07-17T10:06:58.000Z</time>
</trkpt>
<trkpt lat="57.589892" lon="10.224984">
<ele>10.502302</ele>
<time>2026-07-17T10:06:59.000Z</time>
</trkpt>
<trkpt lat="57.589918" lon="10.225097">
<ele>10.499283</ele>
<time>2026-07-17T10:07:00.000Z</time>
</trkpt>
<trkpt lat="57.589938" lon="10.225203">
<ele>10.496524</ele>
<time>2026-07-17T10:07:01.000Z</time>
</trkpt>
<trkpt lat="57.589965" lon="10.225316">
<ele>10.493486</ele>
<time>2026-07-17T10:07:02.000Z</time>
</trkpt>
<trkpt lat="57.589990" lon="10.225428">
<ele>10.490507</ele>
<time>2026-07-17T10:07:03.000Z</time>
</trkpt>
<trkpt lat="57.590014" lon="10.225550">
<ele>10.487317</ele>
<time>2026-07-17T10:07:04.000Z</time>
</trkpt>
<trkpt lat="57.590041" lon="10.225664">
<ele>10.484257</ele>
<time>2026-07-17T10:07:05.000Z</time>
</trkpt>
<trkpt lat="57.590064" lon="10.225773">
<ele>10.481381</ele>
<time>2026-07-17T10:07:06.000Z</time>
</trkpt>
<trkpt lat="57.590086" lon="10.225880">
<ele>10.478567</ele>
<time>2026-07-17T10:07:07.000Z</time>
</trkpt>
<trkpt lat="57.590107" lon="10.225983">
<ele>10.475862</ele>
<time>2026-07-17T10:07:08.000Z</time>
</trkpt>
<trkpt lat="57.590136" lon="10.226110">
<ele>10.472473</ele>
<time>2026-07-17T10:07:09.000Z</time>
</trkpt>
<trkpt lat="57.590159" lon="10.226221">
<ele>10.469551</ele>
<time>2026-07-17T10:07:10.000Z</time>
</trkpt>
<trkpt lat="57.590182" lon="10.226336">
<ele>10.466537</ele>
<time>2026-07-17T10:07:11.000Z</time>
</trkpt>
<trkpt lat="57.590205" lon="10.226447">
<ele>10.463616</ele>
<time>2026-07-17T10:07:12.000Z</time>
</trkpt>
<trkpt lat="57.590227" lon="10.226552">
<ele>10.460848</ele>
<time>2026-07-17T10:07:13.000Z</time>
</trkpt>
<trkpt lat="57.590254" lon="10.226668">
<ele>10.457743</ele>
<time>2026-07-17T10:07:14.000Z</time>
</trkpt>
<trkpt lat="57.590281" lon="10.226779">
<ele>10.454750</ele>
<time>2026-07-17T10:07:15.000Z</time>
</trkpt>
<trkpt lat="57.590308" lon="10.226888">
<ele>10.451802</ele>
<time>2026-07-17T10:07:16.000Z</time>
</trkpt>
<trkpt lat="57.590335" lon="10.226995">
<ele>10.448899</ele>
<time>2026-07-17T10:07:17.000Z</time>
</trkpt>
<trkpt lat="57.590361" lon="10.227102">
<ele>10.446015</ele>
<time>2026-07-17T10:07:18.000Z</time>
</trkpt>
<trkpt lat="57.590384" lon="10.227208">
<ele>10.443207</ele>
<time>2026-07-17T10:07:19.000Z</time>
</trkpt>
<trkpt lat="57.590403" lon="10.227303">
<ele>10.450943</ele>
<time>2026-07-17T10:07:20.000Z</time>
</trkpt>
<trkpt lat="57.590422" lon="10.227396">
<ele>10.466536</ele>
<time>2026-07-17T10:07:21.000Z</time>
</trkpt>
<trkpt lat="57.590441" lon="10.227497">
<ele>10.483306</ele>
<time>2026-07-17T10:07:22.000Z</time>
</trkpt>
<trkpt lat="57.590464" lon="10.227595">
<ele>10.500066</ele>
<time>2026-07-17T10:07:23.000Z</time>
</trkpt>
<trkpt lat="57.590487" lon="10.227706">
<ele>10.518711</ele>
<time>2026-07-17T10:07:24.000Z</time>
</trkpt>
<trkpt lat="57.590510" lon="10.227812">
<ele>10.536626</ele>
<time>2026-07-17T10:07:25.000Z</time>
</trkpt>
<trkpt lat="57.590533" lon="10.227917">
<ele>10.554397</ele>
<time>2026-07-17T10:07:26.000Z</time>
</trkpt>
<trkpt lat="57.590560" lon="10.228015">
<ele>10.571660</ele>
<time>2026-07-17T10:07:27.000Z</time>
</trkpt>
<trkpt lat="57.590582" lon="10.228115">
<ele>10.588595</ele>
<time>2026-07-17T10:07:28.000Z</time>
</trkpt>
<trkpt lat="57.590602" lon="10.228220">
<ele>10.606053</ele>
<time>2026-07-17T10:07:29.000Z</time>
</trkpt>
<trkpt lat="57.590624" lon="10.228325">
<ele>10.623715</ele>
<time>2026-07-17T10:07:30.000Z</time>
</trkpt>
<trkpt lat="57.590647" lon="10.228428">
<ele>10.641196</ele>
<time>2026-07-17T10:07:31.000Z</time>
</trkpt>
<trkpt lat="57.590666" lon="10.228527">
<ele>10.657670</ele>
<time>2026-07-17T10:07:32.000Z</time>
</trkpt>
<trkpt lat="57.590684" lon="10.228619">
<ele>10.673013</ele>
<time>2026-07-17T10:07:33.000Z</time>
</trkpt>
<trkpt lat="57.590700" lon="10.228711">
<ele>10.688166</ele>
<time>2026-07-17T10:07:34.000Z</time>
</trkpt>
<trkpt lat="57.590720" lon="10.228805">
<ele>10.704011</ele>
<time>2026-07-17T10:07:35.000Z</time>
</trkpt>
<trkpt lat="57.590742" lon="10.228895">
<ele>10.719508</ele>
<time>2026-07-17T10:07:36.000Z</time>
</trkpt>
<trkpt lat="57.590762" lon="10.228980">
<ele>10.734051</ele>
<time>2026-07-17T10:07:37.000Z</time>
</trkpt>
<trkpt lat="57.590785" lon="10.229073">
<ele>10.750097</ele>
<time>2026-07-17T10:07:38.000Z</time>
</trkpt>
<trkpt lat="57.590807" lon="10.229163">
<ele>10.765594</ele>
<time>2026-07-17T10:07:39.000Z</time>
</trkpt>
<trkpt lat="57.590830" lon="10.229250">
<ele>10.780792</ele>
<time>2026-07-17T10:07:40.000Z</time>
</trkpt>
<trkpt lat="57.590845" lon="10.229332">
<ele>10.794366</ele>
<time>2026-07-17T10:07:41.000Z</time>
</trkpt>
<trkpt lat="57.590856" lon="10.229421">
<ele>10.808675</ele>
<time>2026-07-17T10:07:42.000Z</time>
</trkpt>
<trkpt lat="57.590867" lon="10.229507">
<ele>10.822526</ele>
<time>2026-07-17T10:07:43.000Z</time>
</trkpt>
<trkpt lat="57.590880" lon="10.229599">
<ele>10.837432</ele>
<time>2026-07-17T10:07:44.000Z</time>
</trkpt>
<trkpt lat="57.590899" lon="10.229691">
<ele>10.852878</ele>
<time>2026-07-17T10:07:45.000Z</time>
</trkpt>
<trkpt lat="57.590921" lon="10.229786">
<ele>10.869091</ele>
<time>2026-07-17T10:07:46.000Z</time>
</trkpt>
<trkpt lat="57.590940" lon="10.229885">
<ele>10.885565</ele>
<time>2026-07-17T10:07:47.000Z</time>
</trkpt>
<trkpt lat="57.590955" lon="10.229975">
<ele>10.900331</ele>
<time>2026-07-17T10:07:48.000Z</time>
</trkpt>
<trkpt lat="57.590966" lon="10.230050">
<ele>10.912512</ele>
<time>2026-07-17T10:07:49.000Z</time>
</trkpt>
<trkpt lat="57.590973" lon="10.230121">
<ele>10.923822</ele>
<time>2026-07-17T10:07:50.000Z</time>
</trkpt>
<trkpt lat="57.590976" lon="10.230179">
<ele>10.932951</ele>
<time>2026-07-17T10:07:51.000Z</time>
</trkpt>
<trkpt lat="57.590972" lon="10.230243">
<ele>10.943045</ele>
<time>2026-07-17T10:07:52.000Z</time>
</trkpt>
<trkpt lat="57.590970" lon="10.230297">
<ele>10.951525</ele>
<time>2026-07-17T10:07:53.000Z</time>
</trkpt>
<trkpt lat="57.590983" lon="10.230345">
<ele>10.959951</ele>
<time>2026-07-17T10:07:54.000Z</time>
</trkpt>
<trkpt lat="57.591001" lon="10.230371">
<ele>10.966605</ele>
<time>2026-07-17T10:07:55.000Z</time>
</trkpt>
<trkpt lat="57.591026" lon="10.230383">
<ele>10.968079</ele>
<time>2026-07-17T10:07:56.000Z</time>
</trkpt>
<trkpt lat="57.591052" lon="10.230379">
<ele>10.968351</ele>
<time>2026-07-17T10:07:57.000Z</time>
</trkpt>
<trkpt lat="57.591075" lon="10.230365">
<ele>10.968603</ele>
<time>2026-07-17T10:07:58.000Z</time>
</trkpt>
<trkpt lat="57.591103" lon="10.230355">
<ele>10.968901</ele>
<time>2026-07-17T10:07:59.000Z</time>
</trkpt>
<trkpt lat="57.591147" lon="10.230354">
<ele>10.969359</ele>
<time>2026-07-17T10:08:00.000Z</time>
</trkpt>
<trkpt lat="57.591183" lon="10.230341">
<ele>10.969742</ele>
<time>2026-07-17T10:08:01.000Z</time>
</trkpt>
<trkpt lat="57.591222" lon="10.230327">
<ele>10.970156</ele>
<time>2026-07-17T10:08:02.000Z</time>
</trkpt>
<trkpt lat="57.591265" lon="10.230314">
<ele>10.970610</ele>
<time>2026-07-17T10:08:03.000Z</time>
</trkpt>
<trkpt lat="57.591313" lon="10.230309">
<ele>10.971112</ele>
<time>2026-07-17T10:08:04.000Z</time>
</trkpt>
<trkpt lat="57.591356" lon="10.230309">
<ele>10.971560</ele>
<time>2026-07-17T10:08:05.000Z</time>
</trkpt>
<trkpt lat="57.591410" lon="10.230301">
<ele>10.972125</ele>
<time>2026-07-17T10:08:06.000Z</time>
</trkpt>
<trkpt lat="57.591460" lon="10.230290">
<ele>10.972650</ele>
<time>2026-07-17T10:08:07.000Z</time>
</trkpt>
<trkpt lat="57.591511" lon="10.230275">
<ele>10.973188</ele>
<time>2026-07-17T10:08:08.000Z</time>
</trkpt>
<trkpt lat="57.591557" lon="10.230251">
<ele>10.973687</ele>
<time>2026-07-17T10:08:09.000Z</time>
</trkpt>
<trkpt lat="57.591600" lon="10.230231">
<ele>10.974149</ele>
<time>2026-07-17T10:08:10.000Z</time>
</trkpt>
<trkpt lat="57.591649" lon="10.230211">
<ele>10.974672</ele>
<time>2026-07-17T10:08:11.000Z</time>
</trkpt>
<trkpt lat="57.591694" lon="10.230189">
<ele>10.975157</ele>
<time>2026-07-17T10:08:12.000Z</time>
</trkpt>
<trkpt lat="57.591757" lon="10.230171">
<ele>10.975822</ele>
<time>2026-07-17T10:08:13.000Z</time>
</trkpt>
<trkpt lat="57.591808" lon="10.230149">
<ele>10.976368</ele>
<time>2026-07-17T10:08:14.000Z</time>
</trkpt>
<trkpt lat="57.591867" lon="10.230123">
<ele>10.977000</ele>
<time>2026-07-17T10:08:15.000Z</time>
</trkpt>
<trkpt lat="57.591925" lon="10.230103">
<ele>10.977615</ele>
<time>2026-07-17T10:08:16.000Z</time>
</trkpt>
<trkpt lat="57.591978" lon="10.230076">
<ele>10.978188</ele>
<time>2026-07-17T10:08:17.000Z</time>
</trkpt>
<trkpt lat="57.592029" lon="10.230045">
<ele>10.978747</ele>
<time>2026-07-17T10:08:18.000Z</time>
</trkpt>
<trkpt lat="57.592097" lon="10.230019">
<ele>10.979471</ele>
<time>2026-07-17T10:08:19.000Z</time>
</trkpt>
<trkpt lat="57.592180" lon="10.230010">
<ele>10.980338</ele>
<time>2026-07-17T10:08:20.000Z</time>
</trkpt>
<trkpt lat="57.592240" lon="10.229988">
<ele>10.980976</ele>
<time>2026-07-17T10:08:21.000Z</time>
</trkpt>
<trkpt lat="57.592291" lon="10.229963">
<ele>10.981526</ele>
<time>2026-07-17T10:08:22.000Z</time>
</trkpt>
<trkpt lat="57.592340" lon="10.229939">
<ele>10.982054</ele>
<time>2026-07-17T10:08:23.000Z</time>
</trkpt>
<trkpt lat="57.592386" lon="10.229913">
<ele>10.982555</ele>
<time>2026-07-17T10:08:24.000Z</time>
</trkpt>
<trkpt lat="57.592434" lon="10.229879">
<ele>10.983091</ele>
<time>2026-07-17T10:08:25.000Z</time>
</trkpt>
<trkpt lat="57.592477" lon="10.229852">
<ele>10.983564</ele>
<time>2026-07-17T10:08:26.000Z</time>
</trkpt>
<trkpt lat="57.592522" lon="10.229829">
<ele>10.984050</ele>
<time>2026-07-17T10:08:27.000Z</time>
</trkpt>
<trkpt lat="57.592561" lon="10.229805">
<ele>10.984479</ele>
<time>2026-07-17T10:08:28.000Z</time>
</trkpt>
<trkpt lat="57.592607" lon="10.229770">
<ele>10.984997</ele>
<time>2026-07-17T10:08:29.000Z</time>
</trkpt>
<trkpt lat="57.592650" lon="10.229742">
<ele>10.985472</ele>
<time>2026-07-17T10:08:30.000Z</time>
</trkpt>
<trkpt lat="57.592699" lon="10.229715">
<ele>10.986004</ele>
<time>2026-07-17T10:08:31.000Z</time>
</trkpt>
<trkpt lat="57.592745" lon="10.229690">
<ele>10.986504</ele>
<time>2026-07-17T10:08:32.000Z</time>
</trkpt>
<trkpt lat="57.592799" lon="10.229663">
<ele>10.984444</ele>
<time>2026-07-17T10:08:33.000Z</time>
</trkpt>
<trkpt lat="57.592859" lon="10.229643">
<ele>10.981546</ele>
<time>2026-07-17T10:08:34.000Z</time>
</trkpt>
<trkpt lat="57.592908" lon="10.229629">
<ele>10.979189</ele>
<time>2026-07-17T10:08:35.000Z</time>
</trkpt>
<trkpt lat="57.592962" lon="10.229614">
<ele>10.976593</ele>
<time>2026-07-17T10:08:36.000Z</time>
</trkpt>
<trkpt lat="57.593012" lon="10.229602">
<ele>10.974197</ele>
<time>2026-07-17T10:08:37.000Z</time>
</trkpt>
<trkpt lat="57.593071" lon="10.229583">
<ele>10.971350</ele>
<time>2026-07-17T10:08:38.000Z</time>
</trkpt>
<trkpt lat="57.593133" lon="10.229571">
<ele>10.968387</ele>
<time>2026-07-17T10:08:39.000Z</time>
</trkpt>
<trkpt lat="57.593182" lon="10.229549">
<ele>10.965990</ele>
<time>2026-07-17T10:08:40.000Z</time>
</trkpt>
<trkpt lat="57.593230" lon="10.229531">
<ele>10.963663</ele>
<time>2026-07-17T10:08:41.000Z</time>
</trkpt>
<trkpt lat="57.593284" lon="10.229508">
<ele>10.961029</ele>
<time>2026-07-17T10:08:42.000Z</time>
</trkpt>
<trkpt lat="57.593350" lon="10.229487">
<ele>10.957846</ele>
<time>2026-07-17T10:08:43.000Z</time>
</trkpt>
<trkpt lat="57.593410" lon="10.229461">
<ele>10.954917</ele>
<time>2026-07-17T10:08:44.000Z</time>
</trkpt>
<trkpt lat="57.593473" lon="10.229435">
<ele>10.951850</ele>
<time>2026-07-17T10:08:45.000Z</time>
</trkpt>
<trkpt lat="57.593532" lon="10.229412">
<ele>10.948984</ele>
<time>2026-07-17T10:08:46.000Z</time>
</trkpt>
<trkpt lat="57.593590" lon="10.229389">
<ele>10.946165</ele>
<time>2026-07-17T10:08:47.000Z</time>
</trkpt>
<trkpt lat="57.593636" lon="10.229347">
<ele>10.943730</ele>
<time>2026-07-17T10:08:48.000Z</time>
</trkpt>
<trkpt lat="57.593692" lon="10.229313">
<ele>10.940930</ele>
<time>2026-07-17T10:08:49.000Z</time>
</trkpt>
<trkpt lat="57.593757" lon="10.229289">
<ele>10.937780</ele>
<time>2026-07-17T10:08:50.000Z</time>
</trkpt>
<trkpt lat="57.593818" lon="10.229264">
<ele>10.934811</ele>
<time>2026-07-17T10:08:51.000Z</time>
</trkpt>
<trkpt lat="57.593880" lon="10.229225">
<ele>10.931700</ele>
<time>2026-07-17T10:08:52.000Z</time>
</trkpt>
<trkpt lat="57.593927" lon="10.229194">
<ele>10.929330</ele>
<time>2026-07-17T10:08:53.000Z</time>
</trkpt>
<trkpt lat="57.593980" lon="10.229172">
<ele>10.926748</ele>
<time>2026-07-17T10:08:54.000Z</time>
</trkpt>
<trkpt lat="57.594031" lon="10.229148">
<ele>10.924248</ele>
<time>2026-07-17T10:08:55.000Z</time>
</trkpt>
<trkpt lat="57.594088" lon="10.229121">
<ele>10.921452</ele>
<time>2026-07-17T10:08:56.000Z</time>
</trkpt>
<trkpt lat="57.594143" lon="10.229105">
<ele>10.918805</ele>
<time>2026-07-17T10:08:57.000Z</time>
</trkpt>
<trkpt lat="57.594199" lon="10.229079">
<ele>10.916062</ele>
<time>2026-07-17T10:08:58.000Z</time>
</trkpt>
<trkpt lat="57.594264" lon="10.229052">
<ele>10.912896</ele>
<time>2026-07-17T10:08:59.000Z</time>
</trkpt>
<trkpt lat="57.594326" lon="10.229024">
<ele>10.909863</ele>
<time>2026-07-17T10:09:00.000Z</time>
</trkpt>
<trkpt lat="57.594391" lon="10.229002">
<ele>10.906722</ele>
<time>2026-07-17T10:09:01.000Z</time>
</trkpt>
<trkpt lat="57.594462" lon="10.228976">
<ele>10.903282</ele>
<time>2026-07-17T10:09:02.000Z</time>
</trkpt>
<trkpt lat="57.594557" lon="10.228953">
<ele>10.904353</ele>
<time>2026-07-17T10:09:03.000Z</time>
</trkpt>
<trkpt lat="57.594652" lon="10.228933">
<ele>10.910599</ele>
<time>2026-07-17T10:09:04.000Z</time>
</trkpt>
<trkpt lat="57.594742" lon="10.228933">
<ele>10.916480</ele>
<time>2026-07-17T10:09:05.000Z</time>
</trkpt>
<trkpt lat="57.594822" lon="10.228928">
<ele>10.921710</ele>
<time>2026-07-17T10:09:06.000Z</time>
</trkpt>
<trkpt lat="57.594891" lon="10.228923">
<ele>10.926222</ele>
<time>2026-07-17T10:09:07.000Z</time>
</trkpt>
<trkpt lat="57.594967" lon="10.228919">
<ele>10.931190</ele>
<time>2026-07-17T10:09:08.000Z</time>
</trkpt>
<trkpt lat="57.595042" lon="10.228915">
<ele>10.936093</ele>
<time>2026-07-17T10:09:09.000Z</time>
</trkpt>
<trkpt lat="57.595114" lon="10.228911">
<ele>10.940800</ele>
<time>2026-07-17T10:09:10.000Z</time>
</trkpt>
<trkpt lat="57.595176" lon="10.228910">
<ele>10.944851</ele>
<time>2026-07-17T10:09:11.000Z</time>
</trkpt>
<trkpt lat="57.595241" lon="10.228901">
<ele>10.949110</ele>
<time>2026-07-17T10:09:12.000Z</time>
</trkpt>
<trkpt lat="57.595310" lon="10.228894">
<ele>10.953625</ele>
<time>2026-07-17T10:09:13.000Z</time>
</trkpt>
<trkpt lat="57.595374" lon="10.228884">
<ele>10.957822</ele>
<time>2026-07-17T10:09:14.000Z</time>
</trkpt>
<trkpt lat="57.595436" lon="10.228876">
<ele>10.961883</ele>
<time>2026-07-17T10:09:15.000Z</time>
</trkpt>
<trkpt lat="57.595518" lon="10.228871">
<ele>10.967243</ele>
<time>2026-07-17T10:09:16.000Z</time>
</trkpt>
<trkpt lat="57.595600" lon="10.228869">
<ele>10.972602</ele>
<time>2026-07-17T10:09:17.000Z</time>
</trkpt>
<trkpt lat="57.595664" lon="10.228874">
<ele>10.976787</ele>
<time>2026-07-17T10:09:18.000Z</time>
</trkpt>
<trkpt lat="57.595725" lon="10.228876">
<ele>10.980774</ele>
<time>2026-07-17T10:09:19.000Z</time>
</trkpt>
<trkpt lat="57.595782" lon="10.228867">
<ele>10.984512</ele>
<time>2026-07-17T10:09:20.000Z</time>
</trkpt>
<trkpt lat="57.595834" lon="10.228858">
<ele>10.987924</ele>
<time>2026-07-17T10:09:21.000Z</time>
</trkpt>
<trkpt lat="57.595880" lon="10.228847">
<ele>10.990954</ele>
<time>2026-07-17T10:09:22.000Z</time>
</trkpt>
<trkpt lat="57.595952" lon="10.228852">
<ele>10.995662</ele>
<time>2026-07-17T10:09:23.000Z</time>
</trkpt>
<trkpt lat="57.596023" lon="10.228866">
<ele>11.000327</ele>
<time>2026-07-17T10:09:24.000Z</time>
</trkpt>
<trkpt lat="57.596084" lon="10.228887">
<ele>11.004380</ele>
<time>2026-07-17T10:09:25.000Z</time>
</trkpt>
<trkpt lat="57.596160" lon="10.228906">
<ele>11.009391</ele>
<time>2026-07-17T10:09:26.000Z</time>
</trkpt>
<trkpt lat="57.596229" lon="10.228924">
<ele>11.013943</ele>
<time>2026-07-17T10:09:27.000Z</time>
</trkpt>
<trkpt lat="57.596294" lon="10.228950">
<ele>11.018287</ele>
<time>2026-07-17T10:09:28.000Z</time>
</trkpt>
<trkpt lat="57.596359" lon="10.228984">
<ele>10.991180</ele>
<time>2026-07-17T10:09:29.000Z</time>
</trkpt>
<trkpt lat="57.596423" lon="10.229031">
<ele>10.960914</ele>
<time>2026-07-17T10:09:30.000Z</time>
</trkpt>
<trkpt lat="57.596485" lon="10.229080">
<ele>10.931284</ele>
<time>2026-07-17T10:09:31.000Z</time>
</trkpt>
<trkpt lat="57.596541" lon="10.229132">
<ele>10.903758</ele>
<time>2026-07-17T10:09:32.000Z</time>
</trkpt>
<trkpt lat="57.596594" lon="10.229178">
<ele>10.878035</ele>
<time>2026-07-17T10:09:33.000Z</time>
</trkpt>
<trkpt lat="57.596643" lon="10.229218">
<ele>10.854499</ele>
<time>2026-07-17T10:09:34.000Z</time>
</trkpt>
<trkpt lat="57.596692" lon="10.229259">
<ele>10.830868</ele>
<time>2026-07-17T10:09:35.000Z</time>
</trkpt>
<trkpt lat="57.596734" lon="10.229296">
<ele>10.810429</ele>
<time>2026-07-17T10:09:36.000Z</time>
</trkpt>
<trkpt lat="57.596775" lon="10.229332">
<ele>10.790489</ele>
<time>2026-07-17T10:09:37.000Z</time>
</trkpt>
<trkpt lat="57.596814" lon="10.229371">
<ele>10.771018</ele>
<time>2026-07-17T10:09:38.000Z</time>
</trkpt>
<trkpt lat="57.596855" lon="10.229407">
<ele>10.751077</ele>
<time>2026-07-17T10:09:39.000Z</time>
</trkpt>
<trkpt lat="57.596889" lon="10.229439">
<ele>10.734320</ele>
<time>2026-07-17T10:09:40.000Z</time>
</trkpt>
<trkpt lat="57.596932" lon="10.229473">
<ele>10.713769</ele>
<time>2026-07-17T10:09:41.000Z</time>
</trkpt>
<trkpt lat="57.596982" lon="10.229508">
<ele>10.690269</ele>
<time>2026-07-17T10:09:42.000Z</time>
</trkpt>
<trkpt lat="57.597024" lon="10.229544">
<ele>10.669929</ele>
<time>2026-07-17T10:09:43.000Z</time>
</trkpt>
<trkpt lat="57.597066" lon="10.229581">
<ele>10.649491</ele>
<time>2026-07-17T10:09:44.000Z</time>
</trkpt>
<trkpt lat="57.597108" lon="10.229616">
<ele>10.629249</ele>
<time>2026-07-17T10:09:45.000Z</time>
</trkpt>
<trkpt lat="57.597154" lon="10.229661">
<ele>10.606393</ele>
<time>2026-07-17T10:09:46.000Z</time>
</trkpt>
<trkpt lat="57.597204" lon="10.229708">
<ele>10.581756</ele>
<time>2026-07-17T10:09:47.000Z</time>
</trkpt>
<trkpt lat="57.597249" lon="10.229754">
<ele>10.559177</ele>
<time>2026-07-17T10:09:48.000Z</time>
</trkpt>
<trkpt lat="57.597296" lon="10.229803">
<ele>10.535485</ele>
<time>2026-07-17T10:09:49.000Z</time>
</trkpt>
<trkpt lat="57.597343" lon="10.229856">
<ele>10.511319</ele>
<time>2026-07-17T10:09:50.000Z</time>
</trkpt>
<trkpt lat="57.597377" lon="10.229893">
<ele>10.493999</ele>
<time>2026-07-17T10:09:51.000Z</time>
</trkpt>
<trkpt lat="57.597416" lon="10.229942">
<ele>10.473309</ele>
<time>2026-07-17T10:09:52.000Z</time>
</trkpt>
<trkpt lat="57.597446" lon="10.229989">
<ele>10.456072</ele>
<time>2026-07-17T10:09:53.000Z</time>
</trkpt>
<trkpt lat="57.597489" lon="10.230061">
<ele>10.430649</ele>
<time>2026-07-17T10:09:54.000Z</time>
</trkpt>
<trkpt lat="57.597530" lon="10.230128">
<ele>10.406666</ele>
<time>2026-07-17T10:09:55.000Z</time>
</trkpt>
<trkpt lat="57.597569" lon="10.230195">
<ele>10.383339</ele>
<time>2026-07-17T10:09:56.000Z</time>
</trkpt>
<trkpt lat="57.597607" lon="10.230292">
<ele>10.355004</ele>
<time>2026-07-17T10:09:57.000Z</time>
</trkpt>
<trkpt lat="57.597650" lon="10.230372">
<ele>10.328284</ele>
<time>2026-07-17T10:09:58.000Z</time>
</trkpt>
<trkpt lat="57.597696" lon="10.230464">
<ele>10.298612</ele>
<time>2026-07-17T10:09:59.000Z</time>
</trkpt>
<trkpt lat="57.597757" lon="10.230571">
<ele>10.261771</ele>
<time>2026-07-17T10:10:00.000Z</time>
</trkpt>
<trkpt lat="57.597811" lon="10.230664">
<ele>10.229435</ele>
<time>2026-07-17T10:10:01.000Z</time>
</trkpt>
<trkpt lat="57.597863" lon="10.230742">
<ele>10.193463</ele>
<time>2026-07-17T10:10:02.000Z</time>
</trkpt>
<trkpt lat="57.597909" lon="10.230810">
<ele>10.161322</ele>
<time>2026-07-17T10:10:03.000Z</time>
</trkpt>
<trkpt lat="57.597954" lon="10.230869">
<ele>10.131200</ele>
<time>2026-07-17T10:10:04.000Z</time>
</trkpt>
<trkpt lat="57.597992" lon="10.230918">
<ele>10.105902</ele>
<time>2026-07-17T10:10:05.000Z</time>
</trkpt>
<trkpt lat="57.598031" lon="10.230969">
<ele>10.079819</ele>
<time>2026-07-17T10:10:06.000Z</time>
</trkpt>
<trkpt lat="57.598072" lon="10.231017">
<ele>10.053310</ele>
<time>2026-07-17T10:10:07.000Z</time>
</trkpt>
<trkpt lat="57.598108" lon="10.231066">
<ele>10.028905</ele>
<time>2026-07-17T10:10:08.000Z</time>
</trkpt>
<trkpt lat="57.598156" lon="10.231102">
<ele>10.000571</ele>
<time>2026-07-17T10:10:09.000Z</time>
</trkpt>
<trkpt lat="57.598196" lon="10.231140">
<ele>9.975988</ele>
<time>2026-07-17T10:10:10.000Z</time>
</trkpt>
<trkpt lat="57.598262" lon="10.231230">
<ele>9.931217</ele>
<time>2026-07-17T10:10:11.000Z</time>
</trkpt>
<trkpt lat="57.598317" lon="10.231301">
<ele>9.894588</ele>
<time>2026-07-17T10:10:12.000Z</time>
</trkpt>
<trkpt lat="57.598362" lon="10.231338">
<ele>9.867655</ele>
<time>2026-07-17T10:10:13.000Z</time>
</trkpt>
<trkpt lat="57.598404" lon="10.231377">
<ele>9.841961</ele>
<time>2026-07-17T10:10:14.000Z</time>
</trkpt>
<trkpt lat="57.598470" lon="10.231459">
<ele>9.798534</ele>
<time>2026-07-17T10:10:15.000Z</time>
</trkpt>
<trkpt lat="57.598540" lon="10.231518">
<ele>9.756465</ele>
<time>2026-07-17T10:10:16.000Z</time>
</trkpt>
<trkpt lat="57.598597" lon="10.231566">
<ele>9.722215</ele>
<time>2026-07-17T10:10:17.000Z</time>
</trkpt>
<trkpt lat="57.598654" lon="10.231626">
<ele>9.686372</ele>
<time>2026-07-17T10:10:18.000Z</time>
</trkpt>
<trkpt lat="57.598705" lon="10.231701">
<ele>9.650808</ele>
<time>2026-07-17T10:10:19.000Z</time>
</trkpt>
<trkpt lat="57.598751" lon="10.231733">
<ele>9.623920</ele>
<time>2026-07-17T10:10:20.000Z</time>
</trkpt>
<trkpt lat="57.598814" lon="10.231788">
<ele>9.585825</ele>
<time>2026-07-17T10:10:21.000Z</time>
</trkpt>
<trkpt lat="57.598867" lon="10.231839">
<ele>9.553165</ele>
<time>2026-07-17T10:10:22.000Z</time>
</trkpt>
<trkpt lat="57.598919" lon="10.231891">
<ele>9.520853</ele>
<time>2026-07-17T10:10:23.000Z</time>
</trkpt>
<trkpt lat="57.598982" lon="10.231956">
<ele>9.481425</ele>
<time>2026-07-17T10:10:24.000Z</time>
</trkpt>
<trkpt lat="57.599061" lon="10.232046">
<ele>9.430731</ele>
<time>2026-07-17T10:10:25.000Z</time>
</trkpt>
<trkpt lat="57.599111" lon="10.232093">
<ele>9.400068</ele>
<time>2026-07-17T10:10:26.000Z</time>
</trkpt>
<trkpt lat="57.599161" lon="10.232143">
<ele>9.368999</ele>
<time>2026-07-17T10:10:27.000Z</time>
</trkpt>
<trkpt lat="57.599214" lon="10.232198">
<ele>9.335784</ele>
<time>2026-07-17T10:10:28.000Z</time>
</trkpt>
<trkpt lat="57.599266" lon="10.232244">
<ele>9.304266</ele>
<time>2026-07-17T10:10:29.000Z</time>
</trkpt>
<trkpt lat="57.599346" lon="10.232315">
<ele>9.255747</ele>
<time>2026-07-17T10:10:30.000Z</time>
</trkpt>
<trkpt lat="57.599442" lon="10.232422">
<ele>9.212073</ele>
<time>2026-07-17T10:10:31.000Z</time>
</trkpt>
<trkpt lat="57.599518" lon="10.232480">
<ele>9.183746</ele>
<time>2026-07-17T10:10:32.000Z</time>
</trkpt>
<trkpt lat="57.599581" lon="10.232536">
<ele>9.159672</ele>
<time>2026-07-17T10:10:33.000Z</time>
</trkpt>
<trkpt lat="57.599635" lon="10.232578">
<ele>9.139489</ele>
<time>2026-07-17T10:10:34.000Z</time>
</trkpt>
<trkpt lat="57.599694" lon="10.232623">
<ele>9.117499</ele>
<time>2026-07-17T10:10:35.000Z</time>
</trkpt>
<trkpt lat="57.599753" lon="10.232679">
<ele>9.094663</ele>
<time>2026-07-17T10:10:36.000Z</time>
</trkpt>
<trkpt lat="57.599807" lon="10.232726">
<ele>9.074107</ele>
<time>2026-07-17T10:10:37.000Z</time>
</trkpt>
<trkpt lat="57.599871" lon="10.232780">
<ele>9.049876</ele>
<time>2026-07-17T10:10:38.000Z</time>
</trkpt>
<trkpt lat="57.599929" lon="10.232831">
<ele>9.027756</ele>
<time>2026-07-17T10:10:39.000Z</time>
</trkpt>
<trkpt lat="57.599960" lon="10.232854">
<ele>9.016247</ele>
<time>2026-07-17T10:10:40.000Z</time>
</trkpt>
<trkpt lat="57.600028" lon="10.232931">
<ele>8.988807</ele>
<time>2026-07-17T10:10:41.000Z</time>
</trkpt>
<trkpt lat="57.600079" lon="10.232992">
<ele>8.967909</ele>
<time>2026-07-17T10:10:42.000Z</time>
</trkpt>
<trkpt lat="57.600116" lon="10.233045">
<ele>8.951817</ele>
<time>2026-07-17T10:10:43.000Z</time>
</trkpt>
<trkpt lat="57.600179" lon="10.233133">
<ele>8.924669</ele>
<time>2026-07-17T10:10:44.000Z</time>
</trkpt>
<trkpt lat="57.600253" lon="10.233233">
<ele>8.893149</ele>
<time>2026-07-17T10:10:45.000Z</time>
</trkpt>
<trkpt lat="57.600314" lon="10.233311">
<ele>8.867639</ele>
<time>2026-07-17T10:10:46.000Z</time>
</trkpt>
<trkpt lat="57.600368" lon="10.233396">
<ele>8.843267</ele>
<time>2026-07-17T10:10:47.000Z</time>
</trkpt>
<trkpt lat="57.600437" lon="10.233486">
<ele>8.814225</ele>
<time>2026-07-17T10:10:48.000Z</time>
</trkpt>
<trkpt lat="57.600500" lon="10.233568">
<ele>8.787726</ele>
<time>2026-07-17T10:10:49.000Z</time>
</trkpt>
<trkpt lat="57.600566" lon="10.233647">
<ele>8.760676</ele>
<time>2026-07-17T10:10:50.000Z</time>
</trkpt>
<trkpt lat="57.600621" lon="10.233714">
<ele>8.738017</ele>
<time>2026-07-17T10:10:51.000Z</time>
</trkpt>
<trkpt lat="57.600668" lon="10.233767">
<ele>8.719072</ele>
<time>2026-07-17T10:10:52.000Z</time>
</trkpt>
<trkpt lat="57.600730" lon="10.233822">
<ele>8.695389</ele>
<time>2026-07-17T10:10:53.000Z</time>
</trkpt>
<trkpt lat="57.600795" lon="10.233886">
<ele>8.670034</ele>
<time>2026-07-17T10:10:54.000Z</time>
</trkpt>
<trkpt lat="57.600855" lon="10.233951">
<ele>8.646100</ele>
<time>2026-07-17T10:10:55.000Z</time>
</trkpt>
<trkpt lat="57.600907" lon="10.233992">
<ele>8.626625</ele>
<time>2026-07-17T10:10:56.000Z</time>
</trkpt>
<trkpt lat="57.600963" lon="10.234052">
<ele>8.607053</ele>
<time>2026-07-17T10:10:57.000Z</time>
</trkpt>
<trkpt lat="57.601024" lon="10.234122">
<ele>8.586256</ele>
<time>2026-07-17T10:10:58.000Z</time>
</trkpt>
<trkpt lat="57.601080" lon="10.234180">
<ele>8.567655</ele>
<time>2026-07-17T10:10:59.000Z</time>
</trkpt>
<trkpt lat="57.601135" lon="10.234230">
<ele>8.549887</ele>
<time>2026-07-17T10:11:00.000Z</time>
</trkpt>
<trkpt lat="57.601203" lon="10.234312">
<ele>8.526375</ele>
<time>2026-07-17T10:11:01.000Z</time>
</trkpt>
<trkpt lat="57.601269" lon="10.234388">
<ele>8.503852</ele>
<time>2026-07-17T10:11:02.000Z</time>
</trkpt>
<trkpt lat="57.601338" lon="10.234452">
<ele>8.481474</ele>
<time>2026-07-17T10:11:03.000Z</time>
</trkpt>
<trkpt lat="57.601414" lon="10.234557">
<ele>8.454012</ele>
<time>2026-07-17T10:11:04.000Z</time>
</trkpt>
<trkpt lat="57.601477" lon="10.234624">
<ele>8.432953</ele>
<time>2026-07-17T10:11:05.000Z</time>
</trkpt>
<trkpt lat="57.601562" lon="10.234709">
<ele>8.404946</ele>
<time>2026-07-17T10:11:06.000Z</time>
</trkpt>
<trkpt lat="57.601647" lon="10.234810">
<ele>8.375681</ele>
<time>2026-07-17T10:11:07.000Z</time>
</trkpt>
<trkpt lat="57.601720" lon="10.234894">
<ele>8.350774</ele>
<time>2026-07-17T10:11:08.000Z</time>
</trkpt>
<trkpt lat="57.601797" lon="10.235008">
<ele>8.322230</ele>
<time>2026-07-17T10:11:09.000Z</time>
</trkpt>
<trkpt lat="57.601868" lon="10.235112">
<ele>8.296017</ele>
<time>2026-07-17T10:11:10.000Z</time>
</trkpt>
<trkpt lat="57.601935" lon="10.235198">
<ele>8.272401</ele>
<time>2026-07-17T10:11:11.000Z</time>
</trkpt>
<trkpt lat="57.601992" lon="10.235271">
<ele>8.252324</ele>
<time>2026-07-17T10:11:12.000Z</time>
</trkpt>
<trkpt lat="57.602045" lon="10.235345">
<ele>8.233100</ele>
<time>2026-07-17T10:11:13.000Z</time>
</trkpt>
<trkpt lat="57.602098" lon="10.235423">
<ele>8.213498</ele>
<time>2026-07-17T10:11:14.000Z</time>
</trkpt>
<trkpt lat="57.602139" lon="10.235491">
<ele>8.197568</ele>
<time>2026-07-17T10:11:15.000Z</time>
</trkpt>
<trkpt lat="57.602179" lon="10.235546">
<ele>8.183139</ele>
<time>2026-07-17T10:11:16.000Z</time>
</trkpt>
<trkpt lat="57.602217" lon="10.235595">
<ele>8.169725</ele>
<time>2026-07-17T10:11:17.000Z</time>
</trkpt>
<trkpt lat="57.602248" lon="10.235635">
<ele>8.158779</ele>
<time>2026-07-17T10:11:18.000Z</time>
</trkpt>
<trkpt lat="57.602295" lon="10.235690">
<ele>8.142668</ele>
<time>2026-07-17T10:11:19.000Z</time>
</trkpt>
<trkpt lat="57.602366" lon="10.235775">
<ele>8.118170</ele>
<time>2026-07-17T10:11:20.000Z</time>
</trkpt>
<trkpt lat="57.602428" lon="10.235836">
<ele>8.101301</ele>
<time>2026-07-17T10:11:21.000Z</time>
</trkpt>
<trkpt lat="57.602458" lon="10.235857">
<ele>8.117770</ele>
<time>2026-07-17T10:11:22.000Z</time>
</trkpt>
<trkpt lat="57.602480" lon="10.235854">
<ele>8.129109</ele>
<time>2026-07-17T10:11:23.000Z</time>
</trkpt>
<trkpt lat="57.602496" lon="10.235842">
<ele>8.137972</ele>
<time>2026-07-17T10:11:24.000Z</time>
</trkpt>
<trkpt lat="57.602530" lon="10.235846">
<ele>8.155484</ele>
<time>2026-07-17T10:11:25.000Z</time>
</trkpt>
<trkpt lat="57.602548" lon="10.235823">
<ele>8.166697</ele>
<time>2026-07-17T10:11:26.000Z</time>
</trkpt>
<trkpt lat="57.602564" lon="10.235794">
<ele>8.178161</ele>
<time>2026-07-17T10:11:27.000Z</time>
</trkpt>
<trkpt lat="57.602577" lon="10.235784">
<ele>8.185389</ele>
<time>2026-07-17T10:11:28.000Z</time>
</trkpt>
<trkpt lat="57.602577" lon="10.235788">
<ele>8.186490</ele>
<time>2026-07-17T10:11:29.000Z</time>
</trkpt>
<trkpt lat="57.602574" lon="10.235815">
<ele>8.194084</ele>
<time>2026-07-17T10:11:30.000Z</time>
</trkpt>
<trkpt lat="57.602579" lon="10.235854">
<ele>8.205129</ele>
<time>2026-07-17T10:11:31.000Z</time>
</trkpt>
<trkpt lat="57.602592" lon="10.235902">
<ele>8.219941</ele>
<time>2026-07-17T10:11:32.000Z</time>
</trkpt>
<trkpt lat="57.602593" lon="10.235941">
<ele>8.230694</ele>
<time>2026-07-17T10:11:33.000Z</time>
</trkpt>
<trkpt lat="57.602609" lon="10.235986">
<ele>8.245568</ele>
<time>2026-07-17T10:11:34.000Z</time>
</trkpt>
<trkpt lat="57.602646" lon="10.236053">
<ele>8.272067</ele>
<time>2026-07-17T10:11:35.000Z</time>
</trkpt>
<trkpt lat="57.602650" lon="10.236090">
<ele>8.282463</ele>
<time>2026-07-17T10:11:36.000Z</time>
</trkpt>
<trkpt lat="57.602654" lon="10.236129">
<ele>8.293399</ele>
<time>2026-07-17T10:11:37.000Z</time>
</trkpt>
<trkpt lat="57.602658" lon="10.236168">
<ele>8.304334</ele>
<time>2026-07-17T10:11:38.000Z</time>
</trkpt>
<trkpt lat="57.602694" lon="10.236231">
<ele>8.329701</ele>
<time>2026-07-17T10:11:39.000Z</time>
</trkpt>
<trkpt lat="57.602724" lon="10.236268">
<ele>8.348185</ele>
<time>2026-07-17T10:11:40.000Z</time>
</trkpt>
<trkpt lat="57.602737" lon="10.236274">
<ele>8.355068</ele>
<time>2026-07-17T10:11:41.000Z</time>
</trkpt>
<trkpt lat="57.602756" lon="10.236294">
<ele>8.366281</ele>
<time>2026-07-17T10:11:42.000Z</time>
</trkpt>
<trkpt lat="57.602757" lon="10.236295">
<ele>8.366864</ele>
<time>2026-07-17T10:11:43.000Z</time>
</trkpt>
<trkpt lat="57.602756" lon="10.236300">
<ele>8.368334</ele>
<time>2026-07-17T10:11:48.000Z</time>
</trkpt>
<trkpt lat="57.602752" lon="10.236348">
<ele>8.381712</ele>
<time>2026-07-17T10:11:49.000Z</time>
</trkpt>
<trkpt lat="57.602749" lon="10.236376">
<ele>8.389576</ele>
<time>2026-07-17T10:11:50.000Z</time>
</trkpt>
<trkpt lat="57.602741" lon="10.236412">
<ele>8.400310</ele>
<time>2026-07-17T10:11:51.000Z</time>
</trkpt>
<trkpt lat="57.602736" lon="10.236444">
<ele>8.409490</ele>
<time>2026-07-17T10:11:52.000Z</time>
</trkpt>
<trkpt lat="57.602729" lon="10.236477">
<ele>8.419265</ele>
<time>2026-07-17T10:11:53.000Z</time>
</trkpt>
<trkpt lat="57.602726" lon="10.236510">
<ele>8.428483</ele>
<time>2026-07-17T10:11:54.000Z</time>
</trkpt>
<trkpt lat="57.602726" lon="10.236543">
<ele>8.437571</ele>
<time>2026-07-17T10:11:55.000Z</time>
</trkpt>
<trkpt lat="57.602729" lon="10.236574">
<ele>8.446247</ele>
<time>2026-07-17T10:11:56.000Z</time>
</trkpt>
<trkpt lat="57.602726" lon="10.236603">
<ele>8.454381</ele>
<time>2026-07-17T10:11:57.000Z</time>
</trkpt>
<trkpt lat="57.602730" lon="10.236625">
<ele>8.460780</ele>
<time>2026-07-17T10:11:58.000Z</time>
</trkpt>
<trkpt lat="57.602730" lon="10.236649">
<ele>8.467389</ele>
<time>2026-07-17T10:11:59.000Z</time>
</trkpt>
<trkpt lat="57.602729" lon="10.236669">
<ele>8.472921</ele>
<time>2026-07-17T10:12:00.000Z</time>
</trkpt>
<trkpt lat="57.602726" lon="10.236692">
<ele>8.479441</ele>
<time>2026-07-17T10:12:01.000Z</time>
</trkpt>
<trkpt lat="57.602726" lon="10.236726">
<ele>8.488805</ele>
<time>2026-07-17T10:12:02.000Z</time>
</trkpt>
<trkpt lat="57.602725" lon="10.236757">
<ele>8.497358</ele>
<time>2026-07-17T10:12:03.000Z</time>
</trkpt>
<trkpt lat="57.602718" lon="10.236786">
<ele>8.506118</ele>
<time>2026-07-17T10:12:04.000Z</time>
</trkpt>
<trkpt lat="57.602718" lon="10.236819">
<ele>8.515206</ele>
<time>2026-07-17T10:12:05.000Z</time>
</trkpt>
<trkpt lat="57.602717" lon="10.236847">
<ele>8.522934</ele>
<time>2026-07-17T10:12:06.000Z</time>
</trkpt>
<trkpt lat="57.602710" lon="10.236876">
<ele>8.531694</ele>
<time>2026-07-17T10:12:07.000Z</time>
</trkpt>
<trkpt lat="57.602702" lon="10.236904">
<ele>8.540434</ele>
<time>2026-07-17T10:12:08.000Z</time>
</trkpt>
<trkpt lat="57.602691" lon="10.236927">
<ele>8.548925</ele>
<time>2026-07-17T10:12:09.000Z</time>
</trkpt>
<trkpt lat="57.602680" lon="10.236949">
<ele>8.557212</ele>
<time>2026-07-17T10:12:10.000Z</time>
</trkpt>
<trkpt lat="57.602668" lon="10.236979">
<ele>8.567523</ele>
<time>2026-07-17T10:12:11.000Z</time>
</trkpt>
<trkpt lat="57.602665" lon="10.237010">
<ele>8.576198</ele>
<time>2026-07-17T10:12:12.000Z</time>
</trkpt>
<trkpt lat="57.602665" lon="10.237039">
<ele>8.584185</ele>
<time>2026-07-17T10:12:13.000Z</time>
</trkpt>
<trkpt lat="57.602661" lon="10.237070">
<ele>8.592967</ele>
<time>2026-07-17T10:12:14.000Z</time>
</trkpt>
<trkpt lat="57.602657" lon="10.237103">
<ele>8.602285</ele>
<time>2026-07-17T10:12:15.000Z</time>
</trkpt>
<trkpt lat="57.602658" lon="10.237133">
<ele>8.610563</ele>
<time>2026-07-17T10:12:16.000Z</time>
</trkpt>
<trkpt lat="57.602661" lon="10.237166">
<ele>8.619782</ele>
<time>2026-07-17T10:12:17.000Z</time>
</trkpt>
<trkpt lat="57.602661" lon="10.237198">
<ele>8.628595</ele>
<time>2026-07-17T10:12:18.000Z</time>
</trkpt>
<trkpt lat="57.602657" lon="10.237226">
<ele>8.636575</ele>
<time>2026-07-17T10:12:19.000Z</time>
</trkpt>
<trkpt lat="57.602657" lon="10.237262">
<ele>8.646490</ele>
<time>2026-07-17T10:12:20.000Z</time>
</trkpt>
<trkpt lat="57.602653" lon="10.237294">
<ele>8.655540</ele>
<time>2026-07-17T10:12:21.000Z</time>
</trkpt>
<trkpt lat="57.602650" lon="10.237321">
<ele>8.663134</ele>
<time>2026-07-17T10:12:22.000Z</time>
</trkpt>
<trkpt lat="57.602650" lon="10.237342">
<ele>8.668917</ele>
<time>2026-07-17T10:12:23.000Z</time>
</trkpt>
<trkpt lat="57.602654" lon="10.237347">
<ele>8.671392</ele>
<time>2026-07-17T10:12:24.000Z</time>
</trkpt>
<trkpt lat="57.602654" lon="10.237351">
<ele>8.672494</ele>
<time>2026-07-17T10:12:25.000Z</time>
</trkpt>
<trkpt lat="57.602681" lon="10.237272">
<ele>8.698300</ele>
<time>2026-07-17T10:12:37.000Z</time>
</trkpt>
<trkpt lat="57.602688" lon="10.237242">
<ele>8.707312</ele>
<time>2026-07-17T10:12:38.000Z</time>
</trkpt>
<trkpt lat="57.602693" lon="10.237209">
<ele>8.716757</ele>
<time>2026-07-17T10:12:39.000Z</time>
</trkpt>
<trkpt lat="57.602705" lon="10.237177">
<ele>8.727514</ele>
<time>2026-07-17T10:12:40.000Z</time>
</trkpt>
<trkpt lat="57.602720" lon="10.237148">
<ele>8.738615</ele>
<time>2026-07-17T10:12:41.000Z</time>
</trkpt>
<trkpt lat="57.602736" lon="10.237132">
<ele>8.747946</ele>
<time>2026-07-17T10:12:42.000Z</time>
</trkpt>
<trkpt lat="57.602758" lon="10.237129">
<ele>8.759284</ele>
<time>2026-07-17T10:12:43.000Z</time>
</trkpt>
<trkpt lat="57.602776" lon="10.237135">
<ele>8.768683</ele>
<time>2026-07-17T10:12:44.000Z</time>
</trkpt>
<trkpt lat="57.602796" lon="10.237155">
<ele>8.780346</ele>
<time>2026-07-17T10:12:45.000Z</time>
</trkpt>
<trkpt lat="57.602812" lon="10.237178">
<ele>8.790727</ele>
<time>2026-07-17T10:12:46.000Z</time>
</trkpt>
<trkpt lat="57.602826" lon="10.237205">
<ele>8.801075</ele>
<time>2026-07-17T10:12:47.000Z</time>
</trkpt>
<trkpt lat="57.602838" lon="10.237237">
<ele>8.811832</ele>
<time>2026-07-17T10:12:48.000Z</time>
</trkpt>
<trkpt lat="57.602849" lon="10.237266">
<ele>8.821618</ele>
<time>2026-07-17T10:12:49.000Z</time>
</trkpt>
<trkpt lat="57.602861" lon="10.237294">
<ele>8.831493</ele>
<time>2026-07-17T10:12:50.000Z</time>
</trkpt>
<trkpt lat="57.602871" lon="10.237322">
<ele>8.840760</ele>
<time>2026-07-17T10:12:51.000Z</time>
</trkpt>
<trkpt lat="57.602875" lon="10.237355">
<ele>8.850078</ele>
<time>2026-07-17T10:12:52.000Z</time>
</trkpt>
<trkpt lat="57.602875" lon="10.237395">
<ele>8.861095</ele>
<time>2026-07-17T10:12:53.000Z</time>
</trkpt>
<trkpt lat="57.602875" lon="10.237442">
<ele>8.874039</ele>
<time>2026-07-17T10:12:54.000Z</time>
</trkpt>
<trkpt lat="57.602875" lon="10.237491">
<ele>8.887533</ele>
<time>2026-07-17T10:12:55.000Z</time>
</trkpt>
<trkpt lat="57.602875" lon="10.237558">
<ele>8.905986</ele>
<time>2026-07-17T10:12:56.000Z</time>
</trkpt>
<trkpt lat="57.602875" lon="10.237614">
<ele>8.921408</ele>
<time>2026-07-17T10:12:57.000Z</time>
</trkpt>
<trkpt lat="57.602880" lon="10.237676">
<ele>8.938676</ele>
<time>2026-07-17T10:12:58.000Z</time>
</trkpt>
<trkpt lat="57.602891" lon="10.237728">
<ele>8.954073</ele>
<time>2026-07-17T10:12:59.000Z</time>
</trkpt>
<trkpt lat="57.602899" lon="10.237774">
<ele>8.967392</ele>
<time>2026-07-17T10:13:00.000Z</time>
</trkpt>
<trkpt lat="57.602910" lon="10.237823">
<ele>8.982023</ele>
<time>2026-07-17T10:13:01.000Z</time>
</trkpt>
<trkpt lat="57.602921" lon="10.237875">
<ele>8.997420</ele>
<time>2026-07-17T10:13:02.000Z</time>
</trkpt>
<trkpt lat="57.602929" lon="10.237930">
<ele>9.013116</ele>
<time>2026-07-17T10:13:03.000Z</time>
</trkpt>
<trkpt lat="57.602941" lon="10.237989">
<ele>9.019179</ele>
<time>2026-07-17T10:13:04.000Z</time>
</trkpt>
<trkpt lat="57.602952" lon="10.238047">
<ele>9.008251</ele>
<time>2026-07-17T10:13:05.000Z</time>
</trkpt>
<trkpt lat="57.602960" lon="10.238112">
<ele>8.996405</ele>
<time>2026-07-17T10:13:06.000Z</time>
</trkpt>
<trkpt lat="57.602971" lon="10.238183">
<ele>8.983278</ele>
<time>2026-07-17T10:13:07.000Z</time>
</trkpt>
<trkpt lat="57.602983" lon="10.238255">
<ele>8.969885</ele>
<time>2026-07-17T10:13:08.000Z</time>
</trkpt>
<trkpt lat="57.602998" lon="10.238317">
<ele>8.957803</ele>
<time>2026-07-17T10:13:09.000Z</time>
</trkpt>
<trkpt lat="57.603010" lon="10.238377">
<ele>8.946427</ele>
<time>2026-07-17T10:13:10.000Z</time>
</trkpt>
<trkpt lat="57.603024" lon="10.238435">
<ele>8.935129</ele>
<time>2026-07-17T10:13:11.000Z</time>
</trkpt>
<trkpt lat="57.603037" lon="10.238494">
<ele>8.923798</ele>
<time>2026-07-17T10:13:12.000Z</time>
</trkpt>
<trkpt lat="57.603051" lon="10.238546">
<ele>8.913461</ele>
<time>2026-07-17T10:13:13.000Z</time>
</trkpt>
<trkpt lat="57.603068" lon="10.238610">
<ele>8.900774</ele>
<time>2026-07-17T10:13:14.000Z</time>
</trkpt>
<trkpt lat="57.603086" lon="10.238668">
<ele>8.888868</ele>
<time>2026-07-17T10:13:15.000Z</time>
</trkpt>
<trkpt lat="57.603102" lon="10.238735">
<ele>8.875840</ele>
<time>2026-07-17T10:13:16.000Z</time>
</trkpt>
<trkpt lat="57.603118" lon="10.238804">
<ele>8.862486</ele>
<time>2026-07-17T10:13:17.000Z</time>
</trkpt>
<trkpt lat="57.603144" lon="10.238878">
<ele>8.846768</ele>
<time>2026-07-17T10:13:18.000Z</time>
</trkpt>
<trkpt lat="57.603167" lon="10.238937">
<ele>8.833809</ele>
<time>2026-07-17T10:13:19.000Z</time>
</trkpt>
<trkpt lat="57.603196" lon="10.239007">
<ele>8.818092</ele>
<time>2026-07-17T10:13:20.000Z</time>
</trkpt>
<trkpt lat="57.603209" lon="10.239060">
<ele>8.807739</ele>
<time>2026-07-17T10:13:21.000Z</time>
</trkpt>
<trkpt lat="57.603232" lon="10.239107">
<ele>8.796433</ele>
<time>2026-07-17T10:13:22.000Z</time>
</trkpt>
<trkpt lat="57.603259" lon="10.239147">
<ele>8.785006</ele>
<time>2026-07-17T10:13:23.000Z</time>
</trkpt>
<trkpt lat="57.603282" lon="10.239178">
<ele>8.775601</ele>
<time>2026-07-17T10:13:24.000Z</time>
</trkpt>
<trkpt lat="57.603317" lon="10.239208">
<ele>8.762833</ele>
<time>2026-07-17T10:13:25.000Z</time>
</trkpt>
<trkpt lat="57.603351" lon="10.239233">
<ele>8.750719</ele>
<time>2026-07-17T10:13:26.000Z</time>
</trkpt>
<trkpt lat="57.603390" lon="10.239269">
<ele>8.736296</ele>
<time>2026-07-17T10:13:27.000Z</time>
</trkpt>
<trkpt lat="57.603428" lon="10.239297">
<ele>8.722752</ele>
<time>2026-07-17T10:13:28.000Z</time>
</trkpt>
<trkpt lat="57.603470" lon="10.239319">
<ele>8.708291</ele>
<time>2026-07-17T10:13:29.000Z</time>
</trkpt>
<trkpt lat="57.603505" lon="10.239340">
<ele>8.696103</ele>
<time>2026-07-17T10:13:30.000Z</time>
</trkpt>
<trkpt lat="57.603556" lon="10.239381">
<ele>8.677695</ele>
<time>2026-07-17T10:13:31.000Z</time>
</trkpt>
<trkpt lat="57.603610" lon="10.239421">
<ele>8.658436</ele>
<time>2026-07-17T10:13:32.000Z</time>
</trkpt>
<trkpt lat="57.603661" lon="10.239462">
<ele>8.640027</ele>
<time>2026-07-17T10:13:33.000Z</time>
</trkpt>
<trkpt lat="57.603708" lon="10.239506">
<ele>8.622596</ele>
<time>2026-07-17T10:13:34.000Z</time>
</trkpt>
<trkpt lat="57.603764" lon="10.239553">
<ele>8.602241</ele>
<time>2026-07-17T10:13:35.000Z</time>
</trkpt>
<trkpt lat="57.603807" lon="10.239588">
<ele>8.586690</ele>
<time>2026-07-17T10:13:36.000Z</time>
</trkpt>
<trkpt lat="57.603855" lon="10.239620">
<ele>8.569793</ele>
<time>2026-07-17T10:13:37.000Z</time>
</trkpt>
<trkpt lat="57.603895" lon="10.239639">
<ele>8.556110</ele>
<time>2026-07-17T10:13:38.000Z</time>
</trkpt>
<trkpt lat="57.603946" lon="10.239669">
<ele>8.538384</ele>
<time>2026-07-17T10:13:39.000Z</time>
</trkpt>
<trkpt lat="57.603990" lon="10.239699">
<ele>8.522855</ele>
<time>2026-07-17T10:13:40.000Z</time>
</trkpt>
<trkpt lat="57.604032" lon="10.239737">
<ele>8.507382</ele>
<time>2026-07-17T10:13:41.000Z</time>
</trkpt>
<trkpt lat="57.604075" lon="10.239784">
<ele>8.490863</ele>
<time>2026-07-17T10:13:42.000Z</time>
</trkpt>
<trkpt lat="57.604117" lon="10.239826">
<ele>8.475067</ele>
<time>2026-07-17T10:13:43.000Z</time>
</trkpt>
<trkpt lat="57.604156" lon="10.239861">
<ele>8.460722</ele>
<time>2026-07-17T10:13:44.000Z</time>
</trkpt>
<trkpt lat="57.604187" lon="10.239886">
<ele>8.449527</ele>
<time>2026-07-17T10:13:45.000Z</time>
</trkpt>
<trkpt lat="57.604218" lon="10.239910">
<ele>8.438401</ele>
<time>2026-07-17T10:13:46.000Z</time>
</trkpt>
<trkpt lat="57.604259" lon="10.239948">
<ele>8.427518</ele>
<time>2026-07-17T10:13:47.000Z</time>
</trkpt>
<trkpt lat="57.604293" lon="10.239976">
<ele>8.428002</ele>
<time>2026-07-17T10:13:48.000Z</time>
</trkpt>
<trkpt lat="57.604329" lon="10.240009">
<ele>8.428525</ele>
<time>2026-07-17T10:13:49.000Z</time>
</trkpt>
<trkpt lat="57.604370" lon="10.240057">
<ele>8.429157</ele>
<time>2026-07-17T10:13:50.000Z</time>
</trkpt>
<trkpt lat="57.604413" lon="10.240103">
<ele>8.429803</ele>
<time>2026-07-17T10:13:51.000Z</time>
</trkpt>
<trkpt lat="57.604456" lon="10.240132">
<ele>8.430399</ele>
<time>2026-07-17T10:13:52.000Z</time>
</trkpt>
<trkpt lat="57.604505" lon="10.240161">
<ele>8.431070</ele>
<time>2026-07-17T10:13:53.000Z</time>
</trkpt>
<trkpt lat="57.604551" lon="10.240192">
<ele>8.431708</ele>
<time>2026-07-17T10:13:54.000Z</time>
</trkpt>
<trkpt lat="57.604610" lon="10.240228">
<ele>8.432517</ele>
<time>2026-07-17T10:13:55.000Z</time>
</trkpt>
<trkpt lat="57.604673" lon="10.240285">
<ele>8.433430</ele>
<time>2026-07-17T10:13:56.000Z</time>
</trkpt>
<trkpt lat="57.604753" lon="10.240362">
<ele>8.434604</ele>
<time>2026-07-17T10:13:57.000Z</time>
</trkpt>
<trkpt lat="57.604833" lon="10.240435">
<ele>8.435766</ele>
<time>2026-07-17T10:13:58.000Z</time>
</trkpt>
<trkpt lat="57.604932" lon="10.240520">
<ele>8.437187</ele>
<time>2026-07-17T10:13:59.000Z</time>
</trkpt>
<trkpt lat="57.605008" lon="10.240581">
<ele>8.438266</ele>
<time>2026-07-17T10:14:00.000Z</time>
</trkpt>
<trkpt lat="57.605087" lon="10.240647">
<ele>8.439395</ele>
<time>2026-07-17T10:14:01.000Z</time>
</trkpt>
<trkpt lat="57.605151" lon="10.240699">
<ele>8.440305</ele>
<time>2026-07-17T10:14:02.000Z</time>
</trkpt>
<trkpt lat="57.605215" lon="10.240761">
<ele>8.441246</ele>
<time>2026-07-17T10:14:03.000Z</time>
</trkpt>
<trkpt lat="57.605264" lon="10.240813">
<ele>8.441981</ele>
<time>2026-07-17T10:14:04.000Z</time>
</trkpt>
<trkpt lat="57.605318" lon="10.240881">
<ele>8.442830</ele>
<time>2026-07-17T10:14:05.000Z</time>
</trkpt>
<trkpt lat="57.605371" lon="10.240958">
<ele>8.443706</ele>
<time>2026-07-17T10:14:06.000Z</time>
</trkpt>
<trkpt lat="57.605424" lon="10.241033">
<ele>8.444574</ele>
<time>2026-07-17T10:14:07.000Z</time>
</trkpt>
<trkpt lat="57.605477" lon="10.241107">
<ele>8.445437</ele>
<time>2026-07-17T10:14:08.000Z</time>
</trkpt>
<trkpt lat="57.605519" lon="10.241164">
<ele>8.446114</ele>
<time>2026-07-17T10:14:09.000Z</time>
</trkpt>
<trkpt lat="57.605573" lon="10.241236">
<ele>8.446980</ele>
<time>2026-07-17T10:14:10.000Z</time>
</trkpt>
<trkpt lat="57.605614" lon="10.241303">
<ele>8.447691</ele>
<time>2026-07-17T10:14:11.000Z</time>
</trkpt>
<trkpt lat="57.605651" lon="10.241384">
<ele>8.448434</ele>
<time>2026-07-17T10:14:12.000Z</time>
</trkpt>
<trkpt lat="57.605682" lon="10.241465">
<ele>8.449130</ele>
<time>2026-07-17T10:14:13.000Z</time>
</trkpt>
<trkpt lat="57.605716" lon="10.241554">
<ele>8.449894</ele>
<time>2026-07-17T10:14:14.000Z</time>
</trkpt>
<trkpt lat="57.605742" lon="10.241641">
<ele>8.450590</ele>
<time>2026-07-17T10:14:15.000Z</time>
</trkpt>
<trkpt lat="57.605767" lon="10.241724">
<ele>8.465536</ele>
<time>2026-07-17T10:14:16.000Z</time>
</trkpt>
<trkpt lat="57.605792" lon="10.241824">
<ele>8.491266</ele>
<time>2026-07-17T10:14:17.000Z</time>
</trkpt>
<trkpt lat="57.605814" lon="10.241914">
<ele>8.514332</ele>
<time>2026-07-17T10:14:18.000Z</time>
</trkpt>
<trkpt lat="57.605833" lon="10.241997">
<ele>8.535377</ele>
<time>2026-07-17T10:14:19.000Z</time>
</trkpt>
<trkpt lat="57.605848" lon="10.242082">
<ele>8.556244</ele>
<time>2026-07-17T10:14:20.000Z</time>
</trkpt>
<trkpt lat="57.605863" lon="10.242157">
<ele>8.574910</ele>
<time>2026-07-17T10:14:21.000Z</time>
</trkpt>
<trkpt lat="57.605882" lon="10.242235">
<ele>8.594888</ele>
<time>2026-07-17T10:14:22.000Z</time>
</trkpt>
<trkpt lat="57.605898" lon="10.242313">
<ele>8.614363</ele>
<time>2026-07-17T10:14:23.000Z</time>
</trkpt>
<trkpt lat="57.605921" lon="10.242398">
<ele>8.636566</ele>
<time>2026-07-17T10:14:24.000Z</time>
</trkpt>
<trkpt lat="57.605949" lon="10.242491">
<ele>8.661440</ele>
<time>2026-07-17T10:14:25.000Z</time>
</trkpt>
<trkpt lat="57.605975" lon="10.242581">
<ele>8.685281</ele>
<time>2026-07-17T10:14:26.000Z</time>
</trkpt>
<trkpt lat="57.605997" lon="10.242664">
<ele>8.706872</ele>
<time>2026-07-17T10:14:27.000Z</time>
</trkpt>
<trkpt lat="57.606015" lon="10.242749">
<ele>8.728183</ele>
<time>2026-07-17T10:14:28.000Z</time>
</trkpt>
<trkpt lat="57.606027" lon="10.242832">
<ele>8.748228</ele>
<time>2026-07-17T10:14:29.000Z</time>
</trkpt>
<trkpt lat="57.606042" lon="10.242919">
<ele>8.769538</ele>
<time>2026-07-17T10:14:30.000Z</time>
</trkpt>
<trkpt lat="57.606062" lon="10.243021">
<ele>8.794863</ele>
<time>2026-07-17T10:14:31.000Z</time>
</trkpt>
<trkpt lat="57.606086" lon="10.243108">
<ele>8.817680</ele>
<time>2026-07-17T10:14:32.000Z</time>
</trkpt>
<trkpt lat="57.606103" lon="10.243197">
<ele>8.839711</ele>
<time>2026-07-17T10:14:33.000Z</time>
</trkpt>
<trkpt lat="57.606119" lon="10.243268">
<ele>8.857670</ele>
<time>2026-07-17T10:14:34.000Z</time>
</trkpt>
<trkpt lat="57.606138" lon="10.243350">
<ele>8.878501</ele>
<time>2026-07-17T10:14:35.000Z</time>
</trkpt>
<trkpt lat="57.606153" lon="10.243428">
<ele>8.897824</ele>
<time>2026-07-17T10:14:36.000Z</time>
</trkpt>
<trkpt lat="57.606180" lon="10.243540">
<ele>8.926460</ele>
<time>2026-07-17T10:14:37.000Z</time>
</trkpt>
<trkpt lat="57.606195" lon="10.243634">
<ele>8.949329</ele>
<time>2026-07-17T10:14:38.000Z</time>
</trkpt>
<trkpt lat="57.606205" lon="10.243721">
<ele>8.970076</ele>
<time>2026-07-17T10:14:39.000Z</time>
</trkpt>
<trkpt lat="57.606211" lon="10.243802">
<ele>8.989141</ele>
<time>2026-07-17T10:14:40.000Z</time>
</trkpt>
<trkpt lat="57.606224" lon="10.243896">
<ele>9.011777</ele>
<time>2026-07-17T10:14:41.000Z</time>
</trkpt>
<trkpt lat="57.606227" lon="10.243978">
<ele>9.030941</ele>
<time>2026-07-17T10:14:42.000Z</time>
</trkpt>
<trkpt lat="57.606219" lon="10.244077">
<ele>9.054285</ele>
<time>2026-07-17T10:14:43.000Z</time>
</trkpt>
<trkpt lat="57.606204" lon="10.244185">
<ele>9.080299</ele>
<time>2026-07-17T10:14:44.000Z</time>
</trkpt>
<trkpt lat="57.606192" lon="10.244289">
<ele>9.105104</ele>
<time>2026-07-17T10:14:45.000Z</time>
</trkpt>
<trkpt lat="57.606177" lon="10.244380">
<ele>9.127303</ele>
<time>2026-07-17T10:14:46.000Z</time>
</trkpt>
<trkpt lat="57.606162" lon="10.244472">
<ele>9.149725</ele>
<time>2026-07-17T10:14:47.000Z</time>
</trkpt>
<trkpt lat="57.606154" lon="10.244555">
<ele>9.169388</ele>
<time>2026-07-17T10:14:48.000Z</time>
</trkpt>
<trkpt lat="57.606139" lon="10.244643">
<ele>9.190920</ele>
<time>2026-07-17T10:14:49.000Z</time>
</trkpt>
<trkpt lat="57.606132" lon="10.244734">
<ele>9.212356</ele>
<time>2026-07-17T10:14:50.000Z</time>
</trkpt>
<trkpt lat="57.606128" lon="10.244820">
<ele>9.232483</ele>
<time>2026-07-17T10:14:51.000Z</time>
</trkpt>
<trkpt lat="57.606125" lon="10.244891">
<ele>9.251650</ele>
<time>2026-07-17T10:14:52.000Z</time>
</trkpt>
<trkpt lat="57.606125" lon="10.244972">
<ele>9.273662</ele>
<time>2026-07-17T10:14:53.000Z</time>
</trkpt>
<trkpt lat="57.606125" lon="10.245048">
<ele>9.294315</ele>
<time>2026-07-17T10:14:54.000Z</time>
</trkpt>
<trkpt lat="57.606132" lon="10.245137">
<ele>9.318760</ele>
<time>2026-07-17T10:14:55.000Z</time>
</trkpt>
<trkpt lat="57.606140" lon="10.245230">
<ele>9.344357</ele>
<time>2026-07-17T10:14:56.000Z</time>
</trkpt>
<trkpt lat="57.606157" lon="10.245318">
<ele>9.369778</ele>
<time>2026-07-17T10:14:57.000Z</time>
</trkpt>
<trkpt lat="57.606176" lon="10.245409">
<ele>9.396319</ele>
<time>2026-07-17T10:14:58.000Z</time>
</trkpt>
<trkpt lat="57.606191" lon="10.245510">
<ele>9.424801</ele>
<time>2026-07-17T10:14:59.000Z</time>
</trkpt>
<trkpt lat="57.606202" lon="10.245610">
<ele>9.452543</ele>
<time>2026-07-17T10:15:00.000Z</time>
</trkpt>
<trkpt lat="57.606209" lon="10.245716">
<ele>9.481567</ele>
<time>2026-07-17T10:15:01.000Z</time>
</trkpt>
<trkpt lat="57.606217" lon="10.245830">
<ele>9.512811</ele>
<time>2026-07-17T10:15:02.000Z</time>
</trkpt>
<trkpt lat="57.606221" lon="10.245943">
<ele>9.543586</ele>
<time>2026-07-17T10:15:03.000Z</time>
</trkpt>
<trkpt lat="57.606225" lon="10.246040">
<ele>9.570024</ele>
<time>2026-07-17T10:15:04.000Z</time>
</trkpt>
<trkpt lat="57.606233" lon="10.246139">
<ele>9.597231</ele>
<time>2026-07-17T10:15:05.000Z</time>
</trkpt>
<trkpt lat="57.606243" lon="10.246232">
<ele>9.623008</ele>
<time>2026-07-17T10:15:06.000Z</time>
</trkpt>
<trkpt lat="57.606243" lon="10.246313">
<ele>9.645020</ele>
<time>2026-07-17T10:15:07.000Z</time>
</trkpt>
<trkpt lat="57.606248" lon="10.246390">
<ele>9.666098</ele>
<time>2026-07-17T10:15:08.000Z</time>
</trkpt>
<trkpt lat="57.606259" lon="10.246451">
<ele>9.683589</ele>
<time>2026-07-17T10:15:09.000Z</time>
</trkpt>
<trkpt lat="57.606276" lon="10.246520">
<ele>9.704227</ele>
<time>2026-07-17T10:15:10.000Z</time>
</trkpt>
<trkpt lat="57.606294" lon="10.246576">
<ele>9.721974</ele>
<time>2026-07-17T10:15:11.000Z</time>
</trkpt>
<trkpt lat="57.606305" lon="10.246647">
<ele>9.742059</ele>
<time>2026-07-17T10:15:12.000Z</time>
</trkpt>
<trkpt lat="57.606312" lon="10.246714">
<ele>9.760610</ele>
<time>2026-07-17T10:15:13.000Z</time>
</trkpt>
<trkpt lat="57.606320" lon="10.246791">
<ele>9.781924</ele>
<time>2026-07-17T10:15:14.000Z</time>
</trkpt>
<trkpt lat="57.606329" lon="10.246870">
<ele>9.803873</ele>
<time>2026-07-17T10:15:15.000Z</time>
</trkpt>
<trkpt lat="57.606343" lon="10.246955">
<ele>9.828038</ele>
<time>2026-07-17T10:15:16.000Z</time>
</trkpt>
<trkpt lat="57.606351" lon="10.247034">
<ele>9.849887</ele>
<time>2026-07-17T10:15:17.000Z</time>
</trkpt>
<trkpt lat="57.606366" lon="10.247116">
<ele>9.873433</ele>
<time>2026-07-17T10:15:18.000Z</time>
</trkpt>
<trkpt lat="57.606376" lon="10.247188">
<ele>9.893646</ele>
<time>2026-07-17T10:15:19.000Z</time>
</trkpt>
<trkpt lat="57.606389" lon="10.247284">
<ele>9.920555</ele>
<time>2026-07-17T10:15:20.000Z</time>
</trkpt>
<trkpt lat="57.606400" lon="10.247359">
<ele>9.941686</ele>
<time>2026-07-17T10:15:21.000Z</time>
</trkpt>
<trkpt lat="57.606408" lon="10.247441">
<ele>9.964336</ele>
<time>2026-07-17T10:15:22.000Z</time>
</trkpt>
<trkpt lat="57.606411" lon="10.247509">
<ele>9.982878</ele>
<time>2026-07-17T10:15:23.000Z</time>
</trkpt>
<trkpt lat="57.606415" lon="10.247563">
<ele>9.997692</ele>
<time>2026-07-17T10:15:24.000Z</time>
</trkpt>
<trkpt lat="57.606435" lon="10.247708">
<ele>10.038380</ele>
<time>2026-07-17T10:15:57.000Z</time>
</trkpt>
<trkpt lat="57.606446" lon="10.247767">
<ele>10.055357</ele>
<time>2026-07-17T10:15:58.000Z</time>
</trkpt>
<trkpt lat="57.606458" lon="10.247827">
<ele>10.072761</ele>
<time>2026-07-17T10:15:59.000Z</time>
</trkpt>
<trkpt lat="57.606469" lon="10.247891">
<ele>10.091026</ele>
<time>2026-07-17T10:16:00.000Z</time>
</trkpt>
<trkpt lat="57.606481" lon="10.247964">
<ele>10.111777</ele>
<time>2026-07-17T10:16:01.000Z</time>
</trkpt>
<trkpt lat="57.606492" lon="10.248035">
<ele>10.131861</ele>
<time>2026-07-17T10:16:02.000Z</time>
</trkpt>
<trkpt lat="57.606504" lon="10.248104">
<ele>10.152856</ele>
<time>2026-07-17T10:16:03.000Z</time>
</trkpt>
<trkpt lat="57.606514" lon="10.248171">
<ele>10.176081</ele>
<time>2026-07-17T10:16:04.000Z</time>
</trkpt>
<trkpt lat="57.606523" lon="10.248244">
<ele>10.201094</ele>
<time>2026-07-17T10:16:05.000Z</time>
</trkpt>
<trkpt lat="57.606533" lon="10.248299">
<ele>10.220488</ele>
<time>2026-07-17T10:16:06.000Z</time>
</trkpt>
<trkpt lat="57.606542" lon="10.248365">
<ele>10.243229</ele>
<time>2026-07-17T10:16:07.000Z</time>
</trkpt>
<trkpt lat="57.606552" lon="10.248420">
<ele>10.262623</ele>
<time>2026-07-17T10:16:08.000Z</time>
</trkpt>
<trkpt lat="57.606564" lon="10.248483">
<ele>10.284950</ele>
<time>2026-07-17T10:16:09.000Z</time>
</trkpt>
<trkpt lat="57.606568" lon="10.248541">
<ele>10.304477</ele>
<time>2026-07-17T10:16:10.000Z</time>
</trkpt>
<trkpt lat="57.606575" lon="10.248598">
<ele>10.324003</ele>
<time>2026-07-17T10:16:11.000Z</time>
</trkpt>
<trkpt lat="57.606587" lon="10.248672">
<ele>10.349820</ele>
<time>2026-07-17T10:16:12.000Z</time>
</trkpt>
<trkpt lat="57.606603" lon="10.248742">
<ele>10.375233</ele>
<time>2026-07-17T10:16:13.000Z</time>
</trkpt>
<trkpt lat="57.606612" lon="10.248799">
<ele>10.395075</ele>
<time>2026-07-17T10:16:14.000Z</time>
</trkpt>
<trkpt lat="57.606622" lon="10.248878">
<ele>10.422181</ele>
<time>2026-07-17T10:16:15.000Z</time>
</trkpt>
<trkpt lat="57.606633" lon="10.248952">
<ele>10.447824</ele>
<time>2026-07-17T10:16:16.000Z</time>
</trkpt>
<trkpt lat="57.606645" lon="10.249034">
<ele>10.476208</ele>
<time>2026-07-17T10:16:17.000Z</time>
</trkpt>
<trkpt lat="57.606656" lon="10.249114">
<ele>10.503787</ele>
<time>2026-07-17T10:16:18.000Z</time>
</trkpt>
<trkpt lat="57.606667" lon="10.249189">
<ele>10.529752</ele>
<time>2026-07-17T10:16:19.000Z</time>
</trkpt>
<trkpt lat="57.606675" lon="10.249264">
<ele>10.555287</ele>
<time>2026-07-17T10:16:20.000Z</time>
</trkpt>
<trkpt lat="57.606686" lon="10.249342">
<ele>10.582220</ele>
<time>2026-07-17T10:16:21.000Z</time>
</trkpt>
<trkpt lat="57.606706" lon="10.249428">
<ele>10.613526</ele>
<time>2026-07-17T10:16:22.000Z</time>
</trkpt>
<trkpt lat="57.606721" lon="10.249516">
<ele>10.644361</ele>
<time>2026-07-17T10:16:23.000Z</time>
</trkpt>
<trkpt lat="57.606736" lon="10.249603">
<ele>10.674879</ele>
<time>2026-07-17T10:16:24.000Z</time>
</trkpt>
<trkpt lat="57.606751" lon="10.249696">
<ele>10.707310</ele>
<time>2026-07-17T10:16:25.000Z</time>
</trkpt>
<trkpt lat="57.606758" lon="10.249795">
<ele>10.740654</ele>
<time>2026-07-17T10:16:26.000Z</time>
</trkpt>
<trkpt lat="57.606763" lon="10.249895">
<ele>10.774191</ele>
<time>2026-07-17T10:16:27.000Z</time>
</trkpt>
<trkpt lat="57.606770" lon="10.249989">
<ele>10.805880</ele>
<time>2026-07-17T10:16:28.000Z</time>
</trkpt>
<trkpt lat="57.606778" lon="10.250074">
<ele>10.834697</ele>
<time>2026-07-17T10:16:29.000Z</time>
</trkpt>
<trkpt lat="57.606790" lon="10.250155">
<ele>10.862760</ele>
<time>2026-07-17T10:16:30.000Z</time>
</trkpt>
<trkpt lat="57.606801" lon="10.250234">
<ele>10.890015</ele>
<time>2026-07-17T10:16:31.000Z</time>
</trkpt>
<trkpt lat="57.606814" lon="10.250316">
<ele>10.918570</ele>
<time>2026-07-17T10:16:32.000Z</time>
</trkpt>
<trkpt lat="57.606831" lon="10.250384">
<ele>10.943626</ele>
<time>2026-07-17T10:16:33.000Z</time>
</trkpt>
<trkpt lat="57.606842" lon="10.250450">
<ele>10.966706</ele>
<time>2026-07-17T10:16:34.000Z</time>
</trkpt>
<trkpt lat="57.606850" lon="10.250522">
<ele>10.991260</ele>
<time>2026-07-17T10:16:35.000Z</time>
</trkpt>
<trkpt lat="57.606858" lon="10.250589">
<ele>11.014181</ele>
<time>2026-07-17T10:16:36.000Z</time>
</trkpt>
<trkpt lat="57.606870" lon="10.250675">
<ele>11.043855</ele>
<time>2026-07-17T10:16:37.000Z</time>
</trkpt>
<trkpt lat="57.606881" lon="10.250756">
<ele>11.071758</ele>
<time>2026-07-17T10:16:38.000Z</time>
</trkpt>
<trkpt lat="57.606893" lon="10.250836">
<ele>11.099498</ele>
<time>2026-07-17T10:16:39.000Z</time>
</trkpt>
<trkpt lat="57.606903" lon="10.250923">
<ele>11.129209</ele>
<time>2026-07-17T10:16:40.000Z</time>
</trkpt>
<trkpt lat="57.606907" lon="10.251007">
<ele>11.157369</ele>
<time>2026-07-17T10:16:41.000Z</time>
</trkpt>
<trkpt lat="57.606911" lon="10.251087">
<ele>11.184198</ele>
<time>2026-07-17T10:16:42.000Z</time>
</trkpt>
<trkpt lat="57.606919" lon="10.251177">
<ele>11.214660</ele>
<time>2026-07-17T10:16:43.000Z</time>
</trkpt>
<trkpt lat="57.606931" lon="10.251264">
<ele>11.244658</ele>
<time>2026-07-17T10:16:44.000Z</time>
</trkpt>
<trkpt lat="57.606948" lon="10.251358">
<ele>11.272680</ele>
<time>2026-07-17T10:16:45.000Z</time>
</trkpt>
<trkpt lat="57.606973" lon="10.251454">
<ele>11.291369</ele>
<time>2026-07-17T10:16:46.000Z</time>
</trkpt>
<trkpt lat="57.606989" lon="10.251535">
<ele>11.306485</ele>
<time>2026-07-17T10:16:47.000Z</time>
</trkpt>
<trkpt lat="57.607007" lon="10.251611">
<ele>11.321034</ele>
<time>2026-07-17T10:16:48.000Z</time>
</trkpt>
<trkpt lat="57.607026" lon="10.251688">
<ele>11.335878</ele>
<time>2026-07-17T10:16:49.000Z</time>
</trkpt>
<trkpt lat="57.607041" lon="10.251775">
<ele>11.351880</ele>
<time>2026-07-17T10:16:50.000Z</time>
</trkpt>
<trkpt lat="57.607050" lon="10.251864">
<ele>11.367738</ele>
<time>2026-07-17T10:16:51.000Z</time>
</trkpt>
<trkpt lat="57.607035" lon="10.251989">
<ele>11.390167</ele>
<time>2026-07-17T10:16:52.000Z</time>
</trkpt>
<trkpt lat="57.607025" lon="10.252114">
<ele>11.412296</ele>
<time>2026-07-17T10:16:53.000Z</time>
</trkpt>
<trkpt lat="57.607015" lon="10.252223">
<ele>11.431659</ele>
<time>2026-07-17T10:16:54.000Z</time>
</trkpt>
<trkpt lat="57.607034" lon="10.252317">
<ele>11.449250</ele>
<time>2026-07-17T10:16:55.000Z</time>
</trkpt>
<trkpt lat="57.607052" lon="10.252423">
<ele>11.468719</ele>
<time>2026-07-17T10:16:56.000Z</time>
</trkpt>
<trkpt lat="57.607064" lon="10.252528">
<ele>11.487518</ele>
<time>2026-07-17T10:16:57.000Z</time>
</trkpt>
<trkpt lat="57.607072" lon="10.252605">
<ele>11.501251</ele>
<time>2026-07-17T10:16:58.000Z</time>
</trkpt>
<trkpt lat="57.607087" lon="10.252702">
<ele>11.518928</ele>
<time>2026-07-17T10:16:59.000Z</time>
</trkpt>
<trkpt lat="57.607097" lon="10.252777">
<ele>11.532460</ele>
<time>2026-07-17T10:17:00.000Z</time>
</trkpt>
<trkpt lat="57.607105" lon="10.252856">
<ele>11.546537</ele>
<time>2026-07-17T10:17:01.000Z</time>
</trkpt>
<trkpt lat="57.607106" lon="10.252945">
<ele>11.562124</ele>
<time>2026-07-17T10:17:02.000Z</time>
</trkpt>
<trkpt lat="57.607114" lon="10.253021">
<ele>11.575685</ele>
<time>2026-07-17T10:17:03.000Z</time>
</trkpt>
<trkpt lat="57.607129" lon="10.253101">
<ele>11.590526</ele>
<time>2026-07-17T10:17:04.000Z</time>
</trkpt>
<trkpt lat="57.607140" lon="10.253188">
<ele>11.606177</ele>
<time>2026-07-17T10:17:05.000Z</time>
</trkpt>
<trkpt lat="57.607151" lon="10.253273">
<ele>11.621488</ele>
<time>2026-07-17T10:17:06.000Z</time>
</trkpt>
<trkpt lat="57.607167" lon="10.253373">
<ele>11.639761</ele>
<time>2026-07-17T10:17:07.000Z</time>
</trkpt>
<trkpt lat="57.607182" lon="10.253476">
<ele>11.658450</ele>
<time>2026-07-17T10:17:08.000Z</time>
</trkpt>
<trkpt lat="57.607181" lon="10.253611">
<ele>11.682089</ele>
<time>2026-07-17T10:17:09.000Z</time>
</trkpt>
<trkpt lat="57.607177" lon="10.253733">
<ele>11.703490</ele>
<time>2026-07-17T10:17:10.000Z</time>
</trkpt>
<trkpt lat="57.607170" lon="10.253845">
<ele>11.723233</ele>
<time>2026-07-17T10:17:11.000Z</time>
</trkpt>
<trkpt lat="57.607174" lon="10.253959">
<ele>11.743236</ele>
<time>2026-07-17T10:17:12.000Z</time>
</trkpt>
<trkpt lat="57.607178" lon="10.254062">
<ele>11.761318</ele>
<time>2026-07-17T10:17:13.000Z</time>
</trkpt>
<trkpt lat="57.607182" lon="10.254169">
<ele>11.780098</ele>
<time>2026-07-17T10:17:14.000Z</time>
</trkpt>
<trkpt lat="57.607182" lon="10.254275">
<ele>11.798657</ele>
<time>2026-07-17T10:17:15.000Z</time>
</trkpt>
<trkpt lat="57.607182" lon="10.254394">
<ele>11.819493</ele>
<time>2026-07-17T10:17:16.000Z</time>
</trkpt>
<trkpt lat="57.607190" lon="10.254498">
<ele>11.837889</ele>
<time>2026-07-17T10:17:17.000Z</time>
</trkpt>
<trkpt lat="57.607205" lon="10.254585">
<ele>11.853891</ele>
<time>2026-07-17T10:17:18.000Z</time>
</trkpt>
<trkpt lat="57.607213" lon="10.254680">
<ele>11.859857</ele>
<time>2026-07-17T10:17:19.000Z</time>
</trkpt>
<trkpt lat="57.607224" lon="10.254761">
<ele>11.864438</ele>
<time>2026-07-17T10:17:20.000Z</time>
</trkpt>
<trkpt lat="57.607235" lon="10.254843">
<ele>11.869071</ele>
<time>2026-07-17T10:17:21.000Z</time>
</trkpt>
<trkpt lat="57.607239" lon="10.254922">
<ele>11.873421</ele>
<time>2026-07-17T10:17:22.000Z</time>
</trkpt>
<trkpt lat="57.607243" lon="10.254992">
<ele>11.877280</ele>
<time>2026-07-17T10:17:23.000Z</time>
</trkpt>
<trkpt lat="57.607259" lon="10.255083">
<ele>11.882530</ele>
<time>2026-07-17T10:17:24.000Z</time>
</trkpt>
<trkpt lat="57.607266" lon="10.255185">
<ele>11.888167</ele>
<time>2026-07-17T10:17:25.000Z</time>
</trkpt>
<trkpt lat="57.607273" lon="10.255271">
<ele>11.892935</ele>
<time>2026-07-17T10:17:26.000Z</time>
</trkpt>
<trkpt lat="57.607282" lon="10.255360">
<ele>11.897900</ele>
<time>2026-07-17T10:17:27.000Z</time>
</trkpt>
<trkpt lat="57.607296" lon="10.255441">
<ele>11.902566</ele>
<time>2026-07-17T10:17:28.000Z</time>
</trkpt>
<trkpt lat="57.607305" lon="10.255550">
<ele>11.908611</ele>
<time>2026-07-17T10:17:29.000Z</time>
</trkpt>
<trkpt lat="57.607321" lon="10.255644">
<ele>11.914018</ele>
<time>2026-07-17T10:17:30.000Z</time>
</trkpt>
<trkpt lat="57.607339" lon="10.255739">
<ele>11.919542</ele>
<time>2026-07-17T10:17:31.000Z</time>
</trkpt>
<trkpt lat="57.607358" lon="10.255834">
<ele>11.925100</ele>
<time>2026-07-17T10:17:32.000Z</time>
</trkpt>
<trkpt lat="57.607370" lon="10.255921">
<ele>11.930025</ele>
<time>2026-07-17T10:17:33.000Z</time>
</trkpt>
<trkpt lat="57.607391" lon="10.256017">
<ele>11.935709</ele>
<time>2026-07-17T10:17:34.000Z</time>
</trkpt>
<trkpt lat="57.607392" lon="10.256151">
<ele>11.943055</ele>
<time>2026-07-17T10:17:35.000Z</time>
</trkpt>
<trkpt lat="57.607399" lon="10.256253">
<ele>11.948692</ele>
<time>2026-07-17T10:17:36.000Z</time>
</trkpt>
<trkpt lat="57.607411" lon="10.256358">
<ele>11.954577</ele>
<time>2026-07-17T10:17:37.000Z</time>
</trkpt>
<trkpt lat="57.607422" lon="10.256449">
<ele>11.959691</ele>
<time>2026-07-17T10:17:38.000Z</time>
</trkpt>
<trkpt lat="57.607430" lon="10.256579">
<ele>11.966864</ele>
<time>2026-07-17T10:17:39.000Z</time>
</trkpt>
<trkpt lat="57.607433" lon="10.256689">
<ele>11.972901</ele>
<time>2026-07-17T10:17:40.000Z</time>
</trkpt>
<trkpt lat="57.607433" lon="10.256806">
<ele>11.979315</ele>
<time>2026-07-17T10:17:41.000Z</time>
</trkpt>
<trkpt lat="57.607430" lon="10.256919">
<ele>11.985517</ele>
<time>2026-07-17T10:17:42.000Z</time>
</trkpt>
<trkpt lat="57.607441" lon="10.257024">
<ele>11.991381</ele>
<time>2026-07-17T10:17:43.000Z</time>
</trkpt>
<trkpt lat="57.607449" lon="10.257130">
<ele>11.997249</ele>
<time>2026-07-17T10:17:44.000Z</time>
</trkpt>
<trkpt lat="57.607456" lon="10.257230">
<ele>12.002778</ele>
<time>2026-07-17T10:17:45.000Z</time>
</trkpt>
<trkpt lat="57.607457" lon="10.257330">
<ele>12.008260</ele>
<time>2026-07-17T10:17:46.000Z</time>
</trkpt>
<trkpt lat="57.607463" lon="10.257423">
<ele>12.013395</ele>
<time>2026-07-17T10:17:47.000Z</time>
</trkpt>
<trkpt lat="57.607460" lon="10.257508">
<ele>12.018064</ele>
<time>2026-07-17T10:17:48.000Z</time>
</trkpt>
<trkpt lat="57.607460" lon="10.257588">
<ele>12.022450</ele>
<time>2026-07-17T10:17:49.000Z</time>
</trkpt>
<trkpt lat="57.607448" lon="10.257690">
<ele>12.028174</ele>
<time>2026-07-17T10:17:50.000Z</time>
</trkpt>
<trkpt lat="57.607437" lon="10.257783">
<ele>12.033395</ele>
<time>2026-07-17T10:17:51.000Z</time>
</trkpt>
<trkpt lat="57.607437" lon="10.257916">
<ele>12.039114</ele>
<time>2026-07-17T10:17:52.000Z</time>
</trkpt>
<trkpt lat="57.607437" lon="10.258017">
<ele>12.039651</ele>
<time>2026-07-17T10:17:53.000Z</time>
</trkpt>
<trkpt lat="57.607438" lon="10.258118">
<ele>12.040189</ele>
<time>2026-07-17T10:17:54.000Z</time>
</trkpt>
<trkpt lat="57.607445" lon="10.258220">
<ele>12.040736</ele>
<time>2026-07-17T10:17:55.000Z</time>
</trkpt>
<trkpt lat="57.607453" lon="10.258324">
<ele>12.041296</ele>
<time>2026-07-17T10:17:56.000Z</time>
</trkpt>
<trkpt lat="57.607457" lon="10.258435">
<ele>12.041888</ele>
<time>2026-07-17T10:17:57.000Z</time>
</trkpt>
<trkpt lat="57.607460" lon="10.258543">
<ele>12.042463</ele>
<time>2026-07-17T10:17:58.000Z</time>
</trkpt>
<trkpt lat="57.607466" lon="10.258653">
<ele>12.043052</ele>
<time>2026-07-17T10:17:59.000Z</time>
</trkpt>
<trkpt lat="57.607489" lon="10.258773">
<ele>12.043730</ele>
<time>2026-07-17T10:18:00.000Z</time>
</trkpt>
<trkpt lat="57.607505" lon="10.258864">
<ele>12.044240</ele>
<time>2026-07-17T10:18:01.000Z</time>
</trkpt>
<trkpt lat="57.607529" lon="10.259003">
<ele>12.045018</ele>
<time>2026-07-17T10:18:02.000Z</time>
</trkpt>
<trkpt lat="57.607529" lon="10.259143">
<ele>12.045763</ele>
<time>2026-07-17T10:18:03.000Z</time>
</trkpt>
<trkpt lat="57.607529" lon="10.259290">
<ele>12.046545</ele>
<time>2026-07-17T10:18:04.000Z</time>
</trkpt>
<trkpt lat="57.607533" lon="10.259425">
<ele>12.047265</ele>
<time>2026-07-17T10:18:05.000Z</time>
</trkpt>
<trkpt lat="57.607540" lon="10.259535">
<ele>12.047855</ele>
<time>2026-07-17T10:18:06.000Z</time>
</trkpt>
<trkpt lat="57.607548" lon="10.259691">
<ele>12.048689</ele>
<time>2026-07-17T10:18:07.000Z</time>
</trkpt>
<trkpt lat="57.607557" lon="10.259807">
<ele>12.049313</ele>
<time>2026-07-17T10:18:08.000Z</time>
</trkpt>
<trkpt lat="57.607567" lon="10.259922">
<ele>12.049933</ele>
<time>2026-07-17T10:18:09.000Z</time>
</trkpt>
<trkpt lat="57.607568" lon="10.260038">
<ele>12.050551</ele>
<time>2026-07-17T10:18:10.000Z</time>
</trkpt>
<trkpt lat="57.607574" lon="10.260135">
<ele>12.051070</ele>
<time>2026-07-17T10:18:11.000Z</time>
</trkpt>
<trkpt lat="57.607578" lon="10.260257">
<ele>12.051721</ele>
<time>2026-07-17T10:18:12.000Z</time>
</trkpt>
<trkpt lat="57.607578" lon="10.260395">
<ele>12.052456</ele>
<time>2026-07-17T10:18:13.000Z</time>
</trkpt>
<trkpt lat="57.607580" lon="10.260500">
<ele>12.053015</ele>
<time>2026-07-17T10:18:14.000Z</time>
</trkpt>
<trkpt lat="57.607594" lon="10.260598">
<ele>12.053555</ele>
<time>2026-07-17T10:18:15.000Z</time>
</trkpt>
<trkpt lat="57.607602" lon="10.260704">
<ele>12.054125</ele>
<time>2026-07-17T10:18:16.000Z</time>
</trkpt>
<trkpt lat="57.607613" lon="10.260806">
<ele>12.054679</ele>
<time>2026-07-17T10:18:17.000Z</time>
</trkpt>
<trkpt lat="57.607621" lon="10.260906">
<ele>12.055217</ele>
<time>2026-07-17T10:18:18.000Z</time>
</trkpt>
<trkpt lat="57.607628" lon="10.261013">
<ele>12.055791</ele>
<time>2026-07-17T10:18:19.000Z</time>
</trkpt>
<trkpt lat="57.607636" lon="10.261136">
<ele>12.056450</ele>
<time>2026-07-17T10:18:20.000Z</time>
</trkpt>
<trkpt lat="57.607640" lon="10.261255">
<ele>12.059842</ele>
<time>2026-07-17T10:18:21.000Z</time>
</trkpt>
<trkpt lat="57.607643" lon="10.261377">
<ele>12.067179</ele>
<time>2026-07-17T10:18:22.000Z</time>
</trkpt>
<trkpt lat="57.607647" lon="10.261472">
<ele>12.072904</ele>
<time>2026-07-17T10:18:23.000Z</time>
</trkpt>
<trkpt lat="57.607656" lon="10.261598">
<ele>12.080540</ele>
<time>2026-07-17T10:18:24.000Z</time>
</trkpt>
<trkpt lat="57.607671" lon="10.261687">
<ele>12.086145</ele>
<time>2026-07-17T10:18:25.000Z</time>
</trkpt>
<trkpt lat="57.607682" lon="10.261780">
<ele>12.091866</ele>
<time>2026-07-17T10:18:26.000Z</time>
</trkpt>
<trkpt lat="57.607694" lon="10.261867">
<ele>12.097263</ele>
<time>2026-07-17T10:18:27.000Z</time>
</trkpt>
<trkpt lat="57.607705" lon="10.261972">
<ele>12.103690</ele>
<time>2026-07-17T10:18:28.000Z</time>
</trkpt>
<trkpt lat="57.607712" lon="10.262069">
<ele>12.109570</ele>
<time>2026-07-17T10:18:29.000Z</time>
</trkpt>
<trkpt lat="57.607717" lon="10.262169">
<ele>12.115603</ele>
<time>2026-07-17T10:18:30.000Z</time>
</trkpt>
<trkpt lat="57.607728" lon="10.262269">
<ele>12.121736</ele>
<time>2026-07-17T10:18:31.000Z</time>
</trkpt>
<trkpt lat="57.607739" lon="10.262365">
<ele>12.127633</ele>
<time>2026-07-17T10:18:32.000Z</time>
</trkpt>
<trkpt lat="57.607750" lon="10.262459">
<ele>12.133413</ele>
<time>2026-07-17T10:18:33.000Z</time>
</trkpt>
<trkpt lat="57.607754" lon="10.262556">
<ele>12.139258</ele>
<time>2026-07-17T10:18:34.000Z</time>
</trkpt>
<trkpt lat="57.607758" lon="10.262654">
<ele>12.145162</ele>
<time>2026-07-17T10:18:35.000Z</time>
</trkpt>
<trkpt lat="57.607762" lon="10.262745">
<ele>12.150647</ele>
<time>2026-07-17T10:18:36.000Z</time>
</trkpt>
<trkpt lat="57.607770" lon="10.262846">
<ele>12.156780</ele>
<time>2026-07-17T10:18:37.000Z</time>
</trkpt>
<trkpt lat="57.607777" lon="10.262934">
<ele>12.162125</ele>
<time>2026-07-17T10:18:38.000Z</time>
</trkpt>
<trkpt lat="57.607785" lon="10.263037">
<ele>12.168377</ele>
<time>2026-07-17T10:18:39.000Z</time>
</trkpt>
<trkpt lat="57.607788" lon="10.263132">
<ele>12.174094</ele>
<time>2026-07-17T10:18:40.000Z</time>
</trkpt>
<trkpt lat="57.607793" lon="10.263226">
<ele>12.179768</ele>
<time>2026-07-17T10:18:41.000Z</time>
</trkpt>
<trkpt lat="57.607804" lon="10.263316">
<ele>12.185314</ele>
<time>2026-07-17T10:18:42.000Z</time>
</trkpt>
<trkpt lat="57.607815" lon="10.263423">
<ele>12.191859</ele>
<time>2026-07-17T10:18:43.000Z</time>
</trkpt>
<trkpt lat="57.607815" lon="10.263522">
<ele>12.197806</ele>
<time>2026-07-17T10:18:44.000Z</time>
</trkpt>
<trkpt lat="57.607827" lon="10.263621">
<ele>12.203904</ele>
<time>2026-07-17T10:18:45.000Z</time>
</trkpt>
<trkpt lat="57.607835" lon="10.263708">
<ele>12.209206</ele>
<time>2026-07-17T10:18:46.000Z</time>
</trkpt>
<trkpt lat="57.607850" lon="10.263800">
<ele>12.214983</ele>
<time>2026-07-17T10:18:47.000Z</time>
</trkpt>
<trkpt lat="57.607857" lon="10.263894">
<ele>12.220684</ele>
<time>2026-07-17T10:18:48.000Z</time>
</trkpt>
<trkpt lat="57.607860" lon="10.263958">
<ele>12.224544</ele>
<time>2026-07-17T10:18:49.000Z</time>
</trkpt>
<trkpt lat="57.607861" lon="10.264053">
<ele>12.230252</ele>
<time>2026-07-17T10:18:50.000Z</time>
</trkpt>
<trkpt lat="57.607864" lon="10.264105">
<ele>12.233394</ele>
<time>2026-07-17T10:18:51.000Z</time>
</trkpt>
<trkpt lat="57.607868" lon="10.264168">
<ele>12.237205</ele>
<time>2026-07-17T10:18:52.000Z</time>
</trkpt>
<trkpt lat="57.607872" lon="10.264243">
<ele>12.241732</ele>
<time>2026-07-17T10:18:53.000Z</time>
</trkpt>
<trkpt lat="57.607877" lon="10.264323">
<ele>12.246571</ele>
<time>2026-07-17T10:18:54.000Z</time>
</trkpt>
<trkpt lat="57.607884" lon="10.264394">
<ele>12.250908</ele>
<time>2026-07-17T10:18:55.000Z</time>
</trkpt>
<trkpt lat="57.607887" lon="10.264457">
<ele>12.254707</ele>
<time>2026-07-17T10:18:56.000Z</time>
</trkpt>
<trkpt lat="57.607883" lon="10.264542">
<ele>12.256451</ele>
<time>2026-07-17T10:18:57.000Z</time>
</trkpt>
<trkpt lat="57.607886" lon="10.264627">
<ele>12.248483</ele>
<time>2026-07-17T10:18:58.000Z</time>
</trkpt>
<trkpt lat="57.607907" lon="10.264714">
<ele>12.239557</ele>
<time>2026-07-17T10:18:59.000Z</time>
</trkpt>
<trkpt lat="57.607911" lon="10.264823">
<ele>12.229338</ele>
<time>2026-07-17T10:19:00.000Z</time>
</trkpt>
<trkpt lat="57.607922" lon="10.264906">
<ele>12.221340</ele>
<time>2026-07-17T10:19:01.000Z</time>
</trkpt>
<trkpt lat="57.607927" lon="10.265000">
<ele>12.212504</ele>
<time>2026-07-17T10:19:02.000Z</time>
</trkpt>
<trkpt lat="57.607937" lon="10.265092">
<ele>12.203723</ele>
<time>2026-07-17T10:19:03.000Z</time>
</trkpt>
<trkpt lat="57.607942" lon="10.265177">
<ele>12.195725</ele>
<time>2026-07-17T10:19:04.000Z</time>
</trkpt>
<trkpt lat="57.607957" lon="10.265265">
<ele>12.187087</ele>
<time>2026-07-17T10:19:05.000Z</time>
</trkpt>
<trkpt lat="57.607969" lon="10.265348">
<ele>12.179045</ele>
<time>2026-07-17T10:19:06.000Z</time>
</trkpt>
<trkpt lat="57.607979" lon="10.265430">
<ele>12.171179</ele>
<time>2026-07-17T10:19:07.000Z</time>
</trkpt>
<trkpt lat="57.607979" lon="10.265528">
<ele>12.162012</ele>
<time>2026-07-17T10:19:08.000Z</time>
</trkpt>
<trkpt lat="57.607978" lon="10.265609">
<ele>12.154434</ele>
<time>2026-07-17T10:19:09.000Z</time>
</trkpt>
<trkpt lat="57.607975" lon="10.265673">
<ele>12.148424</ele>
<time>2026-07-17T10:19:10.000Z</time>
</trkpt>
<trkpt lat="57.607978" lon="10.265751">
<ele>12.141110</ele>
<time>2026-07-17T10:19:11.000Z</time>
</trkpt>
<trkpt lat="57.607970" lon="10.265862">
<ele>12.130633</ele>
<time>2026-07-17T10:19:12.000Z</time>
</trkpt>
<trkpt lat="57.607964" lon="10.265964">
<ele>12.121035</ele>
<time>2026-07-17T10:19:13.000Z</time>
</trkpt>
<trkpt lat="57.607989" lon="10.266095">
<ele>12.108027</ele>
<time>2026-07-17T10:19:14.000Z</time>
</trkpt>
<trkpt lat="57.607984" lon="10.266187">
<ele>12.099378</ele>
<time>2026-07-17T10:19:15.000Z</time>
</trkpt>
<trkpt lat="57.607999" lon="10.266296">
<ele>12.088851</ele>
<time>2026-07-17T10:19:16.000Z</time>
</trkpt>
<trkpt lat="57.608046" lon="10.266463">
<ele>12.071206</ele>
<time>2026-07-17T10:19:17.000Z</time>
</trkpt>
<trkpt lat="57.608068" lon="10.266586">
<ele>12.059076</ele>
<time>2026-07-17T10:19:18.000Z</time>
</trkpt>
<trkpt lat="57.608113" lon="10.266715">
<ele>12.044677</ele>
<time>2026-07-17T10:19:19.000Z</time>
</trkpt>
<trkpt lat="57.608152" lon="10.266856">
<ele>12.029834</ele>
<time>2026-07-17T10:19:20.000Z</time>
</trkpt>
<trkpt lat="57.608201" lon="10.266985">
<ele>12.015043</ele>
<time>2026-07-17T10:19:21.000Z</time>
</trkpt>
<trkpt lat="57.608245" lon="10.267119">
<ele>12.000341</ele>
<time>2026-07-17T10:19:22.000Z</time>
</trkpt>
<trkpt lat="57.608275" lon="10.267221">
<ele>11.989457</ele>
<time>2026-07-17T10:19:23.000Z</time>
</trkpt>
<trkpt lat="57.608297" lon="10.267315">
<ele>11.979862</ele>
<time>2026-07-17T10:19:24.000Z</time>
</trkpt>
<trkpt lat="57.608318" lon="10.267409">
<ele>11.970336</ele>
<time>2026-07-17T10:19:25.000Z</time>
</trkpt>
<trkpt lat="57.608347" lon="10.267507">
<ele>11.959864</ele>
<time>2026-07-17T10:19:26.000Z</time>
</trkpt>
<trkpt lat="57.608370" lon="10.267608">
<ele>11.949598</ele>
<time>2026-07-17T10:19:27.000Z</time>
</trkpt>
<trkpt lat="57.608390" lon="10.267710">
<ele>11.959255</ele>
<time>2026-07-17T10:19:28.000Z</time>
</trkpt>
<trkpt lat="57.608411" lon="10.267792">
<ele>11.984324</ele>
<time>2026-07-17T10:19:29.000Z</time>
</trkpt>
<trkpt lat="57.608426" lon="10.267875">
<ele>12.008485</ele>
<time>2026-07-17T10:19:30.000Z</time>
</trkpt>
<trkpt lat="57.608439" lon="10.267955">
<ele>12.031543</ele>
<time>2026-07-17T10:19:31.000Z</time>
</trkpt>
<trkpt lat="57.608456" lon="10.268040">
<ele>12.056568</ele>
<time>2026-07-17T10:19:32.000Z</time>
</trkpt>
<trkpt lat="57.608464" lon="10.268129">
<ele>12.081459</ele>
<time>2026-07-17T10:19:33.000Z</time>
</trkpt>
<trkpt lat="57.608479" lon="10.268223">
<ele>12.108512</ele>
<time>2026-07-17T10:19:34.000Z</time>
</trkpt>
<trkpt lat="57.608488" lon="10.268293">
<ele>12.128368</ele>
<time>2026-07-17T10:19:35.000Z</time>
</trkpt>
<trkpt lat="57.608503" lon="10.268360">
<ele>12.148397</ele>
<time>2026-07-17T10:19:36.000Z</time>
</trkpt>
<trkpt lat="57.608515" lon="10.268418">
<ele>12.165546</ele>
<time>2026-07-17T10:19:37.000Z</time>
</trkpt>
<trkpt lat="57.608538" lon="10.268500">
<ele>12.191076</ele>
<time>2026-07-17T10:19:38.000Z</time>
</trkpt>
<trkpt lat="57.608560" lon="10.268610">
<ele>12.223461</ele>
<time>2026-07-17T10:19:39.000Z</time>
</trkpt>
<trkpt lat="57.608600" lon="10.268737">
<ele>12.264096</ele>
<time>2026-07-17T10:19:40.000Z</time>
</trkpt>
<trkpt lat="57.608625" lon="10.268856">
<ele>12.299352</ele>
<time>2026-07-17T10:19:41.000Z</time>
</trkpt>
<trkpt lat="57.608641" lon="10.268962">
<ele>12.329727</ele>
<time>2026-07-17T10:19:42.000Z</time>
</trkpt>
<trkpt lat="57.608659" lon="10.269069">
<ele>12.360661</ele>
<time>2026-07-17T10:19:43.000Z</time>
</trkpt>
<trkpt lat="57.608674" lon="10.269164">
<ele>12.387978</ele>
<time>2026-07-17T10:19:44.000Z</time>
</trkpt>
<trkpt lat="57.608677" lon="10.269248">
<ele>12.411198</ele>
<time>2026-07-17T10:19:45.000Z</time>
</trkpt>
<trkpt lat="57.608682" lon="10.269341">
<ele>12.436978</ele>
<time>2026-07-17T10:19:46.000Z</time>
</trkpt>
<trkpt lat="57.608698" lon="10.269465">
<ele>12.472158</ele>
<time>2026-07-17T10:19:47.000Z</time>
</trkpt>
<trkpt lat="57.608716" lon="10.269567">
<ele>12.501778</ele>
<time>2026-07-17T10:19:48.000Z</time>
</trkpt>
<trkpt lat="57.608728" lon="10.269651">
<ele>12.525757</ele>
<time>2026-07-17T10:19:49.000Z</time>
</trkpt>
<trkpt lat="57.608744" lon="10.269747">
<ele>12.553487</ele>
<time>2026-07-17T10:19:50.000Z</time>
</trkpt>
<trkpt lat="57.608764" lon="10.269854">
<ele>12.584744</ele>
<time>2026-07-17T10:19:51.000Z</time>
</trkpt>
<trkpt lat="57.608789" lon="10.269959">
<ele>12.616437</ele>
<time>2026-07-17T10:19:52.000Z</time>
</trkpt>
<trkpt lat="57.608804" lon="10.270035">
<ele>12.638776</ele>
<time>2026-07-17T10:19:53.000Z</time>
</trkpt>
<trkpt lat="57.608811" lon="10.270114">
<ele>12.660862</ele>
<time>2026-07-17T10:19:54.000Z</time>
</trkpt>
<trkpt lat="57.608815" lon="10.270186">
<ele>12.680827</ele>
<time>2026-07-17T10:19:55.000Z</time>
</trkpt>
<trkpt lat="57.608823" lon="10.270250">
<ele>12.698954</ele>
<time>2026-07-17T10:19:56.000Z</time>
</trkpt>
<trkpt lat="57.608831" lon="10.270305">
<ele>12.714673</ele>
<time>2026-07-17T10:19:57.000Z</time>
</trkpt>
<trkpt lat="57.608841" lon="10.270369">
<ele>12.733061</ele>
<time>2026-07-17T10:19:58.000Z</time>
</trkpt>
<trkpt lat="57.608839" lon="10.270428">
<ele>12.749367</ele>
<time>2026-07-17T10:19:59.000Z</time>
</trkpt>
<trkpt lat="57.608858" lon="10.270500">
<ele>12.771504</ele>
<time>2026-07-17T10:20:00.000Z</time>
</trkpt>
<trkpt lat="57.608876" lon="10.270567">
<ele>12.792177</ele>
<time>2026-07-17T10:20:01.000Z</time>
</trkpt>
<trkpt lat="57.608917" lon="10.270673">
<ele>12.828239</ele>
<time>2026-07-17T10:20:02.000Z</time>
</trkpt>
<trkpt lat="57.608949" lon="10.270761">
<ele>12.857574</ele>
<time>2026-07-17T10:20:03.000Z</time>
</trkpt>
<trkpt lat="57.608972" lon="10.270852">
<ele>12.863258</ele>
<time>2026-07-17T10:20:04.000Z</time>
</trkpt>
<trkpt lat="57.609016" lon="10.270971">
<ele>12.843646</ele>
<time>2026-07-17T10:20:05.000Z</time>
</trkpt>
<trkpt lat="57.609045" lon="10.271049">
<ele>12.830768</ele>
<time>2026-07-17T10:20:06.000Z</time>
</trkpt>
<trkpt lat="57.609064" lon="10.271125">
<ele>12.819392</ele>
<time>2026-07-17T10:20:07.000Z</time>
</trkpt>
<trkpt lat="57.609079" lon="10.271205">
<ele>12.807896</ele>
<time>2026-07-17T10:20:08.000Z</time>
</trkpt>
<trkpt lat="57.609091" lon="10.271285">
<ele>12.796628</ele>
<time>2026-07-17T10:20:09.000Z</time>
</trkpt>
<trkpt lat="57.609109" lon="10.271371">
<ele>12.784105</ele>
<time>2026-07-17T10:20:10.000Z</time>
</trkpt>
<trkpt lat="57.609121" lon="10.271473">
<ele>12.769940</ele>
<time>2026-07-17T10:20:11.000Z</time>
</trkpt>
<trkpt lat="57.609133" lon="10.271540">
<ele>12.760358</ele>
<time>2026-07-17T10:20:12.000Z</time>
</trkpt>
<trkpt lat="57.609157" lon="10.271648">
<ele>12.744499</ele>
<time>2026-07-17T10:20:13.000Z</time>
</trkpt>
<trkpt lat="57.609214" lon="10.271776">
<ele>12.721923</ele>
<time>2026-07-17T10:20:14.000Z</time>
</trkpt>
<trkpt lat="57.609244" lon="10.271869">
<ele>12.707198</ele>
<time>2026-07-17T10:20:15.000Z</time>
</trkpt>
<trkpt lat="57.609269" lon="10.271949">
<ele>12.694636</ele>
<time>2026-07-17T10:20:16.000Z</time>
</trkpt>
<trkpt lat="57.609284" lon="10.272027">
<ele>12.683395</ele>
<time>2026-07-17T10:20:17.000Z</time>
</trkpt>
<trkpt lat="57.609321" lon="10.272138">
<ele>12.665663</ele>
<time>2026-07-17T10:20:18.000Z</time>
</trkpt>
<trkpt lat="57.609350" lon="10.272231">
<ele>12.651068</ele>
<time>2026-07-17T10:20:19.000Z</time>
</trkpt>
<trkpt lat="57.609365" lon="10.272307">
<ele>12.640082</ele>
<time>2026-07-17T10:20:20.000Z</time>
</trkpt>
<trkpt lat="57.609376" lon="10.272395">
<ele>12.627826</ele>
<time>2026-07-17T10:20:21.000Z</time>
</trkpt>
<trkpt lat="57.609384" lon="10.272491">
<ele>12.614648</ele>
<time>2026-07-17T10:20:22.000Z</time>
</trkpt>
<trkpt lat="57.609391" lon="10.272590">
<ele>12.601104</ele>
<time>2026-07-17T10:20:23.000Z</time>
</trkpt>
<trkpt lat="57.609394" lon="10.272686">
<ele>12.588061</ele>
<time>2026-07-17T10:20:24.000Z</time>
</trkpt>
<trkpt lat="57.609398" lon="10.272787">
<ele>12.574325</ele>
<time>2026-07-17T10:20:25.000Z</time>
</trkpt>
<trkpt lat="57.609403" lon="10.272878">
<ele>12.561917</ele>
<time>2026-07-17T10:20:26.000Z</time>
</trkpt>
<trkpt lat="57.609410" lon="10.272960">
<ele>12.550655</ele>
<time>2026-07-17T10:20:27.000Z</time>
</trkpt>
<trkpt lat="57.609414" lon="10.273039">
<ele>12.539892</ele>
<time>2026-07-17T10:20:28.000Z</time>
</trkpt>
<trkpt lat="57.609421" lon="10.273116">
<ele>12.529299</ele>
<time>2026-07-17T10:20:29.000Z</time>
</trkpt>
<trkpt lat="57.609458" lon="10.273229">
<ele>12.511336</ele>
<time>2026-07-17T10:20:30.000Z</time>
</trkpt>
<trkpt lat="57.609484" lon="10.273337">
<ele>12.495276</ele>
<time>2026-07-17T10:20:31.000Z</time>
</trkpt>
<trkpt lat="57.609506" lon="10.273440">
<ele>12.480237</ele>
<time>2026-07-17T10:20:32.000Z</time>
</trkpt>
<trkpt lat="57.609517" lon="10.273536">
<ele>12.466921</ele>
<time>2026-07-17T10:20:33.000Z</time>
</trkpt>
<trkpt lat="57.609529" lon="10.273635">
<ele>12.453154</ele>
<time>2026-07-17T10:20:34.000Z</time>
</trkpt>
<trkpt lat="57.609545" lon="10.273739">
<ele>12.438478</ele>
<time>2026-07-17T10:20:35.000Z</time>
</trkpt>
<trkpt lat="57.609559" lon="10.273841">
<ele>12.424196</ele>
<time>2026-07-17T10:20:36.000Z</time>
</trkpt>
<trkpt lat="57.609570" lon="10.273930">
<ele>12.421596</ele>
<time>2026-07-17T10:20:37.000Z</time>
</trkpt>
<trkpt lat="57.609574" lon="10.274031">
<ele>12.448402</ele>
<time>2026-07-17T10:20:38.000Z</time>
</trkpt>
<trkpt lat="57.609579" lon="10.274132">
<ele>12.475248</ele>
<time>2026-07-17T10:20:39.000Z</time>
</trkpt>
<trkpt lat="57.609595" lon="10.274249">
<ele>12.507209</ele>
<time>2026-07-17T10:20:40.000Z</time>
</trkpt>
<trkpt lat="57.609589" lon="10.274360">
<ele>12.536737</ele>
<time>2026-07-17T10:20:41.000Z</time>
</trkpt>
<trkpt lat="57.609592" lon="10.274490">
<ele>12.571177</ele>
<time>2026-07-17T10:20:42.000Z</time>
</trkpt>
<trkpt lat="57.609591" lon="10.274648">
<ele>12.612999</ele>
<time>2026-07-17T10:20:43.000Z</time>
</trkpt>
<trkpt lat="57.609614" lon="10.274810">
<ele>12.657357</ele>
<time>2026-07-17T10:20:44.000Z</time>
</trkpt>
<trkpt lat="57.609635" lon="10.274962">
<ele>12.698904</ele>
<time>2026-07-17T10:20:45.000Z</time>
</trkpt>
<trkpt lat="57.609642" lon="10.275110">
<ele>12.738229</ele>
<time>2026-07-17T10:20:46.000Z</time>
</trkpt>
<trkpt lat="57.609637" lon="10.275218">
<ele>12.766921</ele>
<time>2026-07-17T10:20:47.000Z</time>
</trkpt>
<trkpt lat="57.609633" lon="10.275336">
<ele>12.798215</ele>
<time>2026-07-17T10:20:48.000Z</time>
</trkpt>
<trkpt lat="57.609655" lon="10.275416">
<ele>12.822016</ele>
<time>2026-07-17T10:20:49.000Z</time>
</trkpt>
<trkpt lat="57.609699" lon="10.275476">
<ele>12.848939</ele>
<time>2026-07-17T10:20:50.000Z</time>
</trkpt>
<trkpt lat="57.609734" lon="10.275546">
<ele>12.874283</ele>
<time>2026-07-17T10:20:51.000Z</time>
</trkpt>
<trkpt lat="57.609772" lon="10.275613">
<ele>12.900109</ele>
<time>2026-07-17T10:20:52.000Z</time>
</trkpt>
<trkpt lat="57.609806" lon="10.275706">
<ele>12.929910</ele>
<time>2026-07-17T10:20:53.000Z</time>
</trkpt>
<trkpt lat="57.609839" lon="10.275814">
<ele>12.962818</ele>
<time>2026-07-17T10:20:54.000Z</time>
</trkpt>
<trkpt lat="57.609862" lon="10.275897">
<ele>12.987552</ele>
<time>2026-07-17T10:20:55.000Z</time>
</trkpt>
<trkpt lat="57.609880" lon="10.275971">
<ele>13.009062</ele>
<time>2026-07-17T10:20:56.000Z</time>
</trkpt>
<trkpt lat="57.609891" lon="10.276044">
<ele>13.029133</ele>
<time>2026-07-17T10:20:57.000Z</time>
</trkpt>
<trkpt lat="57.609904" lon="10.276115">
<ele>13.048993</ele>
<time>2026-07-17T10:20:58.000Z</time>
</trkpt>
<trkpt lat="57.609937" lon="10.276214">
<ele>13.079854</ele>
<time>2026-07-17T10:20:59.000Z</time>
</trkpt>
<trkpt lat="57.609953" lon="10.276357">
<ele>13.118520</ele>
<time>2026-07-17T10:21:00.000Z</time>
</trkpt>
<trkpt lat="57.609968" lon="10.276489">
<ele>13.154234</ele>
<time>2026-07-17T10:21:01.000Z</time>
</trkpt>
<trkpt lat="57.609989" lon="10.276599">
<ele>13.185142</ele>
<time>2026-07-17T10:21:02.000Z</time>
</trkpt>
<trkpt lat="57.610019" lon="10.276728">
<ele>13.222364</ele>
<time>2026-07-17T10:21:03.000Z</time>
</trkpt>
<trkpt lat="57.610041" lon="10.276854">
<ele>13.257440</ele>
<time>2026-07-17T10:21:04.000Z</time>
</trkpt>
<trkpt lat="57.610060" lon="10.276989">
<ele>13.294383</ele>
<time>2026-07-17T10:21:05.000Z</time>
</trkpt>
<trkpt lat="57.610082" lon="10.277110">
<ele>13.336888</ele>
<time>2026-07-17T10:21:06.000Z</time>
</trkpt>
<trkpt lat="57.610093" lon="10.277192">
<ele>13.367230</ele>
<time>2026-07-17T10:21:07.000Z</time>
</trkpt>
<trkpt lat="57.610101" lon="10.277272">
<ele>13.396441</ele>
<time>2026-07-17T10:21:08.000Z</time>
</trkpt>
<trkpt lat="57.610108" lon="10.277340">
<ele>13.421296</ele>
<time>2026-07-17T10:21:09.000Z</time>
</trkpt>
<trkpt lat="57.610115" lon="10.277399">
<ele>13.442986</ele>
<time>2026-07-17T10:21:10.000Z</time>
</trkpt>
<trkpt lat="57.610115" lon="10.277453">
<ele>13.462369</ele>
<time>2026-07-17T10:21:11.000Z</time>
</trkpt>
<trkpt lat="57.610110" lon="10.277509">
<ele>13.482747</ele>
<time>2026-07-17T10:21:12.000Z</time>
</trkpt>
<trkpt lat="57.610103" lon="10.277569">
<ele>13.504788</ele>
<time>2026-07-17T10:21:13.000Z</time>
</trkpt>
<trkpt lat="57.610096" lon="10.277617">
<ele>13.522644</ele>
<time>2026-07-17T10:21:14.000Z</time>
</trkpt>
<trkpt lat="57.610100" lon="10.277659">
<ele>13.537956</ele>
<time>2026-07-17T10:21:15.000Z</time>
</trkpt>
<trkpt lat="57.610104" lon="10.277697">
<ele>13.551856</ele>
<time>2026-07-17T10:21:16.000Z</time>
</trkpt>
<trkpt lat="57.610103" lon="10.277745">
<ele>13.569098</ele>
<time>2026-07-17T10:21:17.000Z</time>
</trkpt>
<trkpt lat="57.610100" lon="10.277794">
<ele>13.586801</ele>
<time>2026-07-17T10:21:18.000Z</time>
</trkpt>
<trkpt lat="57.610100" lon="10.277846">
<ele>13.605465</ele>
<time>2026-07-17T10:21:19.000Z</time>
</trkpt>
<trkpt lat="57.610100" lon="10.277908">
<ele>13.627720</ele>
<time>2026-07-17T10:21:20.000Z</time>
</trkpt>
<trkpt lat="57.610104" lon="10.277979">
<ele>13.653345</ele>
<time>2026-07-17T10:21:21.000Z</time>
</trkpt>
<trkpt lat="57.610109" lon="10.278047">
<ele>13.677981</ele>
<time>2026-07-17T10:21:22.000Z</time>
</trkpt>
<trkpt lat="57.610120" lon="10.278133">
<ele>13.709718</ele>
<time>2026-07-17T10:21:23.000Z</time>
</trkpt>
<trkpt lat="57.610128" lon="10.278204">
<ele>13.735760</ele>
<time>2026-07-17T10:21:24.000Z</time>
</trkpt>
<trkpt lat="57.610139" lon="10.278268">
<ele>13.759886</ele>
<time>2026-07-17T10:21:25.000Z</time>
</trkpt>
<trkpt lat="57.610146" lon="10.278320">
<ele>13.779131</ele>
<time>2026-07-17T10:21:26.000Z</time>
</trkpt>
<trkpt lat="57.610154" lon="10.278387">
<ele>13.803770</ele>
<time>2026-07-17T10:21:27.000Z</time>
</trkpt>
<trkpt lat="57.610166" lon="10.278461">
<ele>13.831522</ele>
<time>2026-07-17T10:21:28.000Z</time>
</trkpt>
<trkpt lat="57.610177" lon="10.278554">
<ele>13.865707</ele>
<time>2026-07-17T10:21:29.000Z</time>
</trkpt>
<trkpt lat="57.610185" lon="10.278641">
<ele>13.897391</ele>
<time>2026-07-17T10:21:30.000Z</time>
</trkpt>
<trkpt lat="57.610192" lon="10.278729">
<ele>13.929324</ele>
<time>2026-07-17T10:21:31.000Z</time>
</trkpt>
<trkpt lat="57.610200" lon="10.278801">
<ele>13.955717</ele>
<time>2026-07-17T10:21:32.000Z</time>
</trkpt>
<trkpt lat="57.610207" lon="10.278868">
<ele>13.980219</ele>
<time>2026-07-17T10:21:33.000Z</time>
</trkpt>
<trkpt lat="57.610211" lon="10.278948">
<ele>14.009059</ele>
<time>2026-07-17T10:21:34.000Z</time>
</trkpt>
<trkpt lat="57.610215" lon="10.279020">
<ele>14.035041</ele>
<time>2026-07-17T10:21:35.000Z</time>
</trkpt>
<trkpt lat="57.610218" lon="10.279088">
<ele>14.059532</ele>
<time>2026-07-17T10:21:36.000Z</time>
</trkpt>
<trkpt lat="57.610223" lon="10.279147">
<ele>14.080972</ele>
<time>2026-07-17T10:21:37.000Z</time>
</trkpt>
<trkpt lat="57.610230" lon="10.279207">
<ele>14.103013</ele>
<time>2026-07-17T10:21:38.000Z</time>
</trkpt>
<trkpt lat="57.610238" lon="10.279274">
<ele>14.127652</ele>
<time>2026-07-17T10:21:39.000Z</time>
</trkpt>
<trkpt lat="57.610246" lon="10.279339">
<ele>14.151591</ele>
<time>2026-07-17T10:21:40.000Z</time>
</trkpt>
<trkpt lat="57.610253" lon="10.279406">
<ele>14.176093</ele>
<time>2026-07-17T10:21:41.000Z</time>
</trkpt>
<trkpt lat="57.610265" lon="10.279473">
<ele>14.201450</ele>
<time>2026-07-17T10:21:42.000Z</time>
</trkpt>
<trkpt lat="57.610272" lon="10.279539">
<ele>14.225600</ele>
<time>2026-07-17T10:21:43.000Z</time>
</trkpt>
<trkpt lat="57.610275" lon="10.279598">
<ele>14.246873</ele>
<time>2026-07-17T10:21:44.000Z</time>
</trkpt>
<trkpt lat="57.610275" lon="10.279630">
<ele>14.258358</ele>
<time>2026-07-17T10:21:45.000Z</time>
</trkpt>
<trkpt lat="57.610271" lon="10.279644">
<ele>14.264054</ele>
<time>2026-07-17T10:21:46.000Z</time>
</trkpt>
<trkpt lat="57.610271" lon="10.279652">
<ele>14.266925</ele>
<time>2026-07-17T10:21:47.000Z</time>
</trkpt>
<trkpt lat="57.610271" lon="10.279656">
<ele>14.268361</ele>
<time>2026-07-17T10:21:48.000Z</time>
</trkpt>
<trkpt lat="57.610271" lon="10.279656">
<ele>14.268361</ele>
<time>2026-07-17T10:21:51.000Z</time>
</trkpt>
<trkpt lat="57.610296" lon="10.279786">
<ele>14.317938</ele>
<time>2026-07-17T10:22:22.000Z</time>
</trkpt>
<trkpt lat="57.610306" lon="10.279840">
<ele>14.338447</ele>
<time>2026-07-17T10:22:23.000Z</time>
</trkpt>
<trkpt lat="57.610323" lon="10.279913">
<ele>14.367018</ele>
<time>2026-07-17T10:22:24.000Z</time>
</trkpt>
<trkpt lat="57.610338" lon="10.279981">
<ele>14.393414</ele>
<time>2026-07-17T10:22:25.000Z</time>
</trkpt>
<trkpt lat="57.610349" lon="10.280052">
<ele>14.419943</ele>
<time>2026-07-17T10:22:26.000Z</time>
</trkpt>
<trkpt lat="57.610360" lon="10.280136">
<ele>14.450981</ele>
<time>2026-07-17T10:22:27.000Z</time>
</trkpt>
<trkpt lat="57.610368" lon="10.280217">
<ele>14.480545</ele>
<time>2026-07-17T10:22:28.000Z</time>
</trkpt>
<trkpt lat="57.610380" lon="10.280296">
<ele>14.509652</ele>
<time>2026-07-17T10:22:29.000Z</time>
</trkpt>
<trkpt lat="57.610395" lon="10.280372">
<ele>14.528018</ele>
<time>2026-07-17T10:22:30.000Z</time>
</trkpt>
<trkpt lat="57.610410" lon="10.280447">
<ele>14.546172</ele>
<time>2026-07-17T10:22:31.000Z</time>
</trkpt>
<trkpt lat="57.610422" lon="10.280519">
<ele>14.563270</ele>
<time>2026-07-17T10:22:32.000Z</time>
</trkpt>
<trkpt lat="57.610437" lon="10.280596">
<ele>14.581849</ele>
<time>2026-07-17T10:22:33.000Z</time>
</trkpt>
<trkpt lat="57.610453" lon="10.280680">
<ele>14.602065</ele>
<time>2026-07-17T10:22:34.000Z</time>
</trkpt>
<trkpt lat="57.610467" lon="10.280767">
<ele>14.622663</ele>
<time>2026-07-17T10:22:35.000Z</time>
</trkpt>
<trkpt lat="57.610478" lon="10.280850">
<ele>14.642051</ele>
<time>2026-07-17T10:22:36.000Z</time>
</trkpt>
<trkpt lat="57.610486" lon="10.280934">
<ele>14.661398</ele>
<time>2026-07-17T10:22:37.000Z</time>
</trkpt>
<trkpt lat="57.610494" lon="10.281011">
<ele>14.679183</ele>
<time>2026-07-17T10:22:38.000Z</time>
</trkpt>
<trkpt lat="57.610501" lon="10.281097">
<ele>14.698908</ele>
<time>2026-07-17T10:22:39.000Z</time>
</trkpt>
<trkpt lat="57.610510" lon="10.281187">
<ele>14.719668</ele>
<time>2026-07-17T10:22:40.000Z</time>
</trkpt>
<trkpt lat="57.610525" lon="10.281279">
<ele>14.741475</ele>
<time>2026-07-17T10:22:41.000Z</time>
</trkpt>
<trkpt lat="57.610540" lon="10.281358">
<ele>14.760480</ele>
<time>2026-07-17T10:22:42.000Z</time>
</trkpt>
<trkpt lat="57.610552" lon="10.281431">
<ele>14.777795</ele>
<time>2026-07-17T10:22:43.000Z</time>
</trkpt>
<trkpt lat="57.610566" lon="10.281512">
<ele>14.797095</ele>
<time>2026-07-17T10:22:44.000Z</time>
</trkpt>
<trkpt lat="57.610575" lon="10.281604">
<ele>14.818301</ele>
<time>2026-07-17T10:22:45.000Z</time>
</trkpt>
<trkpt lat="57.610589" lon="10.281696">
<ele>14.839988</ele>
<time>2026-07-17T10:22:46.000Z</time>
</trkpt>
<trkpt lat="57.610600" lon="10.281785">
<ele>14.860700</ele>
<time>2026-07-17T10:22:47.000Z</time>
</trkpt>
<trkpt lat="57.610605" lon="10.281866">
<ele>14.879188</ele>
<time>2026-07-17T10:22:48.000Z</time>
</trkpt>
<trkpt lat="57.610616" lon="10.281929">
<ele>14.894214</ele>
<time>2026-07-17T10:22:49.000Z</time>
</trkpt>
<trkpt lat="57.610623" lon="10.282000">
<ele>14.910583</ele>
<time>2026-07-17T10:22:50.000Z</time>
</trkpt>
<trkpt lat="57.610627" lon="10.282072">
<ele>14.926997</ele>
<time>2026-07-17T10:22:51.000Z</time>
</trkpt>
<trkpt lat="57.610632" lon="10.282152">
<ele>14.945261</ele>
<time>2026-07-17T10:22:52.000Z</time>
</trkpt>
<trkpt lat="57.610651" lon="10.282240">
<ele>14.966775</ele>
<time>2026-07-17T10:22:53.000Z</time>
</trkpt>
<trkpt lat="57.610670" lon="10.282332">
<ele>14.989133</ele>
<time>2026-07-17T10:22:54.000Z</time>
</trkpt>
<trkpt lat="57.610685" lon="10.282428">
<ele>15.011809</ele>
<time>2026-07-17T10:22:55.000Z</time>
</trkpt>
<trkpt lat="57.610697" lon="10.282517">
<ele>15.032619</ele>
<time>2026-07-17T10:22:56.000Z</time>
</trkpt>
<trkpt lat="57.610711" lon="10.282612">
<ele>15.054961</ele>
<time>2026-07-17T10:22:57.000Z</time>
</trkpt>
<trkpt lat="57.610723" lon="10.282701">
<ele>15.075772</ele>
<time>2026-07-17T10:22:58.000Z</time>
</trkpt>
<trkpt lat="57.610739" lon="10.282797">
<ele>15.098569</ele>
<time>2026-07-17T10:22:59.000Z</time>
</trkpt>
<trkpt lat="57.610761" lon="10.282901">
<ele>15.123924</ele>
<time>2026-07-17T10:23:00.000Z</time>
</trkpt>
<trkpt lat="57.610777" lon="10.282994">
<ele>15.146073</ele>
<time>2026-07-17T10:23:01.000Z</time>
</trkpt>
<trkpt lat="57.610796" lon="10.283099">
<ele>15.171204</ele>
<time>2026-07-17T10:23:02.000Z</time>
</trkpt>
<trkpt lat="57.610813" lon="10.283176">
<ele>15.190089</ele>
<time>2026-07-17T10:23:03.000Z</time>
</trkpt>
<trkpt lat="57.610826" lon="10.283272">
<ele>15.212542</ele>
<time>2026-07-17T10:23:04.000Z</time>
</trkpt>
<trkpt lat="57.610837" lon="10.283363">
<ele>15.233695</ele>
<time>2026-07-17T10:23:05.000Z</time>
</trkpt>
<trkpt lat="57.610848" lon="10.283449">
<ele>15.253744</ele>
<time>2026-07-17T10:23:06.000Z</time>
</trkpt>
<trkpt lat="57.610868" lon="10.283569">
<ele>15.272825</ele>
<time>2026-07-17T10:23:07.000Z</time>
</trkpt>
<trkpt lat="57.610883" lon="10.283667">
<ele>15.277549</ele>
<time>2026-07-17T10:23:08.000Z</time>
</trkpt>
<trkpt lat="57.610896" lon="10.283768">
<ele>15.282364</ele>
<time>2026-07-17T10:23:09.000Z</time>
</trkpt>
<trkpt lat="57.610926" lon="10.283892">
<ele>15.288671</ele>
<time>2026-07-17T10:23:10.000Z</time>
</trkpt>
<trkpt lat="57.610944" lon="10.284001">
<ele>15.293958</ele>
<time>2026-07-17T10:23:11.000Z</time>
</trkpt>
<trkpt lat="57.610956" lon="10.284097">
<ele>15.298527</ele>
<time>2026-07-17T10:23:12.000Z</time>
</trkpt>
<trkpt lat="57.610967" lon="10.284190">
<ele>15.302942</ele>
<time>2026-07-17T10:23:13.000Z</time>
</trkpt>
<trkpt lat="57.610975" lon="10.284288">
<ele>15.307537</ele>
<time>2026-07-17T10:23:14.000Z</time>
</trkpt>
<trkpt lat="57.610987" lon="10.284390">
<ele>15.312378</ele>
<time>2026-07-17T10:23:15.000Z</time>
</trkpt>
<trkpt lat="57.611009" lon="10.284497">
<ele>15.317690</ele>
<time>2026-07-17T10:23:16.000Z</time>
</trkpt>
<trkpt lat="57.611024" lon="10.284587">
<ele>15.322059</ele>
<time>2026-07-17T10:23:17.000Z</time>
</trkpt>
<trkpt lat="57.611037" lon="10.284665">
<ele>15.325846</ele>
<time>2026-07-17T10:23:18.000Z</time>
</trkpt>
<trkpt lat="57.611056" lon="10.284744">
<ele>15.329860</ele>
<time>2026-07-17T10:23:19.000Z</time>
</trkpt>
<trkpt lat="57.611078" lon="10.284818">
<ele>15.333783</ele>
<time>2026-07-17T10:23:20.000Z</time>
</trkpt>
<trkpt lat="57.611102" lon="10.284903">
<ele>15.338237</ele>
<time>2026-07-17T10:23:21.000Z</time>
</trkpt>
<trkpt lat="57.611129" lon="10.285006">
<ele>15.343552</ele>
<time>2026-07-17T10:23:22.000Z</time>
</trkpt>
<trkpt lat="57.611154" lon="10.285117">
<ele>15.349133</ele>
<time>2026-07-17T10:23:23.000Z</time>
</trkpt>
<trkpt lat="57.611162" lon="10.285219">
<ele>15.353912</ele>
<time>2026-07-17T10:23:24.000Z</time>
</trkpt>
<trkpt lat="57.611173" lon="10.285315">
<ele>15.358462</ele>
<time>2026-07-17T10:23:25.000Z</time>
</trkpt>
<trkpt lat="57.611190" lon="10.285402">
<ele>15.362755</ele>
<time>2026-07-17T10:23:26.000Z</time>
</trkpt>
<trkpt lat="57.611212" lon="10.285496">
<ele>15.367510</ele>
<time>2026-07-17T10:23:27.000Z</time>
</trkpt>
<trkpt lat="57.611231" lon="10.285607">
<ele>15.372911</ele>
<time>2026-07-17T10:23:28.000Z</time>
</trkpt>
<trkpt lat="57.611250" lon="10.285721">
<ele>15.378445</ele>
<time>2026-07-17T10:23:29.000Z</time>
</trkpt>
<trkpt lat="57.611265" lon="10.285825">
<ele>15.383437</ele>
<time>2026-07-17T10:23:30.000Z</time>
</trkpt>
<trkpt lat="57.611285" lon="10.285945">
<ele>15.389263</ele>
<time>2026-07-17T10:23:31.000Z</time>
</trkpt>
<trkpt lat="57.611307" lon="10.286060">
<ele>15.394923</ele>
<time>2026-07-17T10:23:32.000Z</time>
</trkpt>
<trkpt lat="57.611326" lon="10.286162">
<ele>15.399929</ele>
<time>2026-07-17T10:23:33.000Z</time>
</trkpt>
<trkpt lat="57.611345" lon="10.286273">
<ele>15.405330</ele>
<time>2026-07-17T10:23:34.000Z</time>
</trkpt>
<trkpt lat="57.611360" lon="10.286381">
<ele>15.410502</ele>
<time>2026-07-17T10:23:35.000Z</time>
</trkpt>
<trkpt lat="57.611371" lon="10.286479">
<ele>15.415143</ele>
<time>2026-07-17T10:23:36.000Z</time>
</trkpt>
<trkpt lat="57.611387" lon="10.286574">
<ele>15.419759</ele>
<time>2026-07-17T10:23:37.000Z</time>
</trkpt>
<trkpt lat="57.611399" lon="10.286670">
<ele>15.424328</ele>
<time>2026-07-17T10:23:38.000Z</time>
</trkpt>
<trkpt lat="57.611413" lon="10.286770">
<ele>15.427443</ele>
<time>2026-07-17T10:23:39.000Z</time>
</trkpt>
<trkpt lat="57.611426" lon="10.286871">
<ele>15.429630</ele>
<time>2026-07-17T10:23:40.000Z</time>
</trkpt>
<trkpt lat="57.611444" lon="10.286977">
<ele>15.431972</ele>
<time>2026-07-17T10:23:41.000Z</time>
</trkpt>
<trkpt lat="57.611455" lon="10.287079">
<ele>15.434162</ele>
<time>2026-07-17T10:23:42.000Z</time>
</trkpt>
<trkpt lat="57.611471" lon="10.287200">
<ele>15.436787</ele>
<time>2026-07-17T10:23:43.000Z</time>
</trkpt>
<trkpt lat="57.611490" lon="10.287305">
<ele>15.439121</ele>
<time>2026-07-17T10:23:44.000Z</time>
</trkpt>
<trkpt lat="57.611505" lon="10.287419">
<ele>15.441592</ele>
<time>2026-07-17T10:23:45.000Z</time>
</trkpt>
<trkpt lat="57.611520" lon="10.287522">
<ele>15.443840</ele>
<time>2026-07-17T10:23:46.000Z</time>
</trkpt>
<trkpt lat="57.611535" lon="10.287620">
<ele>15.445986</ele>
<time>2026-07-17T10:23:47.000Z</time>
</trkpt>
<trkpt lat="57.611543" lon="10.287731">
<ele>15.448344</ele>
<time>2026-07-17T10:23:48.000Z</time>
</trkpt>
<trkpt lat="57.611554" lon="10.287829">
<ele>15.450453</ele>
<time>2026-07-17T10:23:49.000Z</time>
</trkpt>
<trkpt lat="57.611560" lon="10.287924">
<ele>15.452467</ele>
<time>2026-07-17T10:23:50.000Z</time>
</trkpt>
<trkpt lat="57.611556" lon="10.288016">
<ele>15.454411</ele>
<time>2026-07-17T10:23:51.000Z</time>
</trkpt>
<trkpt lat="57.611544" lon="10.288082">
<ele>15.455878</ele>
<time>2026-07-17T10:23:52.000Z</time>
</trkpt>
<trkpt lat="57.611533" lon="10.288123">
<ele>15.456844</ele>
<time>2026-07-17T10:23:53.000Z</time>
</trkpt>
<trkpt lat="57.611527" lon="10.288110">
<ele>15.457205</ele>
<time>2026-07-17T10:24:17.000Z</time>
</trkpt>
<trkpt lat="57.611527" lon="10.288061">
<ele>15.458237</ele>
<time>2026-07-17T10:24:18.000Z</time>
</trkpt>
<trkpt lat="57.611526" lon="10.288003">
<ele>15.459459</ele>
<time>2026-07-17T10:24:19.000Z</time>
</trkpt>
<trkpt lat="57.611522" lon="10.287949">
<ele>15.460607</ele>
<time>2026-07-17T10:24:20.000Z</time>
</trkpt>
<trkpt lat="57.611514" lon="10.287892">
<ele>15.461848</ele>
<time>2026-07-17T10:24:21.000Z</time>
</trkpt>
<trkpt lat="57.611503" lon="10.287833">
<ele>15.463163</ele>
<time>2026-07-17T10:24:22.000Z</time>
</trkpt>
<trkpt lat="57.611491" lon="10.287768">
<ele>15.464611</ele>
<time>2026-07-17T10:24:23.000Z</time>
</trkpt>
<trkpt lat="57.611480" lon="10.287703">
<ele>15.466046</ele>
<time>2026-07-17T10:24:24.000Z</time>
</trkpt>
<trkpt lat="57.611469" lon="10.287632">
<ele>15.467602</ele>
<time>2026-07-17T10:24:25.000Z</time>
</trkpt>
<trkpt lat="57.611462" lon="10.287571">
<ele>15.468916</ele>
<time>2026-07-17T10:24:26.000Z</time>
</trkpt>
<trkpt lat="57.611445" lon="10.287487">
<ele>15.470807</ele>
<time>2026-07-17T10:24:27.000Z</time>
</trkpt>
<trkpt lat="57.611430" lon="10.287416">
<ele>15.472414</ele>
<time>2026-07-17T10:24:28.000Z</time>
</trkpt>
<trkpt lat="57.611418" lon="10.287339">
<ele>15.474103</ele>
<time>2026-07-17T10:24:29.000Z</time>
</trkpt>
<trkpt lat="57.611400" lon="10.287266">
<ele>15.475795</ele>
<time>2026-07-17T10:24:30.000Z</time>
</trkpt>
<trkpt lat="57.611384" lon="10.287180">
<ele>15.477712</ele>
<time>2026-07-17T10:24:31.000Z</time>
</trkpt>
<trkpt lat="57.611369" lon="10.287103">
<ele>15.479437</ele>
<time>2026-07-17T10:24:32.000Z</time>
</trkpt>
<trkpt lat="57.611358" lon="10.287024">
<ele>15.481156</ele>
<time>2026-07-17T10:24:33.000Z</time>
</trkpt>
<trkpt lat="57.611349" lon="10.286946">
<ele>15.482836</ele>
<time>2026-07-17T10:24:34.000Z</time>
</trkpt>
<trkpt lat="57.611335" lon="10.286871">
<ele>15.484508</ele>
<time>2026-07-17T10:24:35.000Z</time>
</trkpt>
<trkpt lat="57.611320" lon="10.286792">
<ele>15.486273</ele>
<time>2026-07-17T10:24:36.000Z</time>
</trkpt>
<trkpt lat="57.611304" lon="10.286703">
<ele>15.488250</ele>
<time>2026-07-17T10:24:37.000Z</time>
</trkpt>
<trkpt lat="57.611293" lon="10.286614">
<ele>15.490173</ele>
<time>2026-07-17T10:24:38.000Z</time>
</trkpt>
<trkpt lat="57.611281" lon="10.286529">
<ele>15.492024</ele>
<time>2026-07-17T10:24:39.000Z</time>
</trkpt>
<trkpt lat="57.611267" lon="10.286448">
<ele>15.493816</ele>
<time>2026-07-17T10:24:40.000Z</time>
</trkpt>
<trkpt lat="57.611254" lon="10.286357">
<ele>15.495800</ele>
<time>2026-07-17T10:24:41.000Z</time>
</trkpt>
<trkpt lat="57.611237" lon="10.286283">
<ele>15.493583</ele>
<time>2026-07-17T10:24:42.000Z</time>
</trkpt>
<trkpt lat="57.611220" lon="10.286197">
<ele>15.485347</ele>
<time>2026-07-17T10:24:43.000Z</time>
</trkpt>
<trkpt lat="57.611202" lon="10.286120">
<ele>15.477798</ele>
<time>2026-07-17T10:24:44.000Z</time>
</trkpt>
<trkpt lat="57.611198" lon="10.286041">
<ele>15.470668</ele>
<time>2026-07-17T10:24:45.000Z</time>
</trkpt>
<trkpt lat="57.611187" lon="10.285968">
<ele>15.463854</ele>
<time>2026-07-17T10:24:46.000Z</time>
</trkpt>
<trkpt lat="57.611174" lon="10.285874">
<ele>15.455131</ele>
<time>2026-07-17T10:24:47.000Z</time>
</trkpt>
<trkpt lat="57.611159" lon="10.285796">
<ele>15.447685</ele>
<time>2026-07-17T10:24:48.000Z</time>
</trkpt>
<trkpt lat="57.611144" lon="10.285720">
<ele>15.440407</ele>
<time>2026-07-17T10:24:49.000Z</time>
</trkpt>
<trkpt lat="57.611133" lon="10.285650">
<ele>15.433852</ele>
<time>2026-07-17T10:24:50.000Z</time>
</trkpt>
<trkpt lat="57.611117" lon="10.285574">
<ele>15.426515</ele>
<time>2026-07-17T10:24:51.000Z</time>
</trkpt>
<trkpt lat="57.611106" lon="10.285504">
<ele>15.419960</ele>
<time>2026-07-17T10:24:52.000Z</time>
</trkpt>
<trkpt lat="57.611094" lon="10.285436">
<ele>15.413527</ele>
<time>2026-07-17T10:24:53.000Z</time>
</trkpt>
<trkpt lat="57.611079" lon="10.285360">
<ele>15.406250</ele>
<time>2026-07-17T10:24:54.000Z</time>
</trkpt>
<trkpt lat="57.611068" lon="10.285283">
<ele>15.399089</ele>
<time>2026-07-17T10:24:55.000Z</time>
</trkpt>
<trkpt lat="57.611065" lon="10.285210">
<ele>15.392511</ele>
<time>2026-07-17T10:24:56.000Z</time>
</trkpt>
<trkpt lat="57.611057" lon="10.285121">
<ele>15.384402</ele>
<time>2026-07-17T10:24:57.000Z</time>
</trkpt>
<trkpt lat="57.611053" lon="10.285053">
<ele>15.378256</ele>
<time>2026-07-17T10:24:58.000Z</time>
</trkpt>
<trkpt lat="57.611053" lon="10.284970">
<ele>15.370798</ele>
<time>2026-07-17T10:24:59.000Z</time>
</trkpt>
<trkpt lat="57.611054" lon="10.284905">
<ele>15.364955</ele>
<time>2026-07-17T10:25:00.000Z</time>
</trkpt>
<trkpt lat="57.611058" lon="10.284828">
<ele>15.358004</ele>
<time>2026-07-17T10:25:01.000Z</time>
</trkpt>
<trkpt lat="57.611065" lon="10.284770">
<ele>15.352662</ele>
<time>2026-07-17T10:25:02.000Z</time>
</trkpt>
<trkpt lat="57.611070" lon="10.284725">
<ele>15.348532</ele>
<time>2026-07-17T10:25:03.000Z</time>
</trkpt>
<trkpt lat="57.611082" lon="10.284697">
<ele>15.345310</ele>
<time>2026-07-17T10:25:04.000Z</time>
</trkpt>
<trkpt lat="57.611106" lon="10.284673">
<ele>15.340743</ele>
<time>2026-07-17T10:25:05.000Z</time>
</trkpt>
<trkpt lat="57.611129" lon="10.284661">
<ele>15.336738</ele>
<time>2026-07-17T10:25:06.000Z</time>
</trkpt>
<trkpt lat="57.611158" lon="10.284657">
<ele>15.331860</ele>
<time>2026-07-17T10:25:07.000Z</time>
</trkpt>
<trkpt lat="57.611194" lon="10.284658">
<ele>15.325821</ele>
<time>2026-07-17T10:25:08.000Z</time>
</trkpt>
<trkpt lat="57.611227" lon="10.284655">
<ele>15.320279</ele>
<time>2026-07-17T10:25:09.000Z</time>
</trkpt>
<trkpt lat="57.611269" lon="10.284654">
<ele>15.313233</ele>
<time>2026-07-17T10:25:10.000Z</time>
</trkpt>
<trkpt lat="57.611317" lon="10.284661">
<ele>15.305157</ele>
<time>2026-07-17T10:25:11.000Z</time>
</trkpt>
<trkpt lat="57.611367" lon="10.284666">
<ele>15.296758</ele>
<time>2026-07-17T10:25:12.000Z</time>
</trkpt>
<trkpt lat="57.611411" lon="10.284674">
<ele>15.289342</ele>
<time>2026-07-17T10:25:13.000Z</time>
</trkpt>
<trkpt lat="57.611471" lon="10.284678">
<ele>15.279271</ele>
<time>2026-07-17T10:25:14.000Z</time>
</trkpt>
<trkpt lat="57.611520" lon="10.284673">
<ele>15.271040</ele>
<time>2026-07-17T10:25:15.000Z</time>
</trkpt>
<trkpt lat="57.611575" lon="10.284666">
<ele>15.261793</ele>
<time>2026-07-17T10:25:16.000Z</time>
</trkpt>
<trkpt lat="57.611632" lon="10.284652">
<ele>15.252149</ele>
<time>2026-07-17T10:25:17.000Z</time>
</trkpt>
<trkpt lat="57.611692" lon="10.284633">
<ele>15.241941</ele>
<time>2026-07-17T10:25:18.000Z</time>
</trkpt>
<trkpt lat="57.611758" lon="10.284617">
<ele>15.230777</ele>
<time>2026-07-17T10:25:19.000Z</time>
</trkpt>
<trkpt lat="57.611819" lon="10.284598">
<ele>15.220404</ele>
<time>2026-07-17T10:25:20.000Z</time>
</trkpt>
<trkpt lat="57.611875" lon="10.284574">
<ele>15.210766</ele>
<time>2026-07-17T10:25:21.000Z</time>
</trkpt>
<trkpt lat="57.611932" lon="10.284555">
<ele>15.201053</ele>
<time>2026-07-17T10:25:22.000Z</time>
</trkpt>
<trkpt lat="57.611996" lon="10.284542">
<ele>15.187951</ele>
<time>2026-07-17T10:25:23.000Z</time>
</trkpt>
<trkpt lat="57.612062" lon="10.284525">
<ele>15.171403</ele>
<time>2026-07-17T10:25:24.000Z</time>
</trkpt>
<trkpt lat="57.612123" lon="10.284508">
<ele>15.156085</ele>
<time>2026-07-17T10:25:25.000Z</time>
</trkpt>
<trkpt lat="57.612184" lon="10.284490">
<ele>15.140746</ele>
<time>2026-07-17T10:25:26.000Z</time>
</trkpt>
<trkpt lat="57.612247" lon="10.284467">
<ele>15.124803</ele>
<time>2026-07-17T10:25:27.000Z</time>
</trkpt>
<trkpt lat="57.612310" lon="10.284447">
<ele>15.108931</ele>
<time>2026-07-17T10:25:28.000Z</time>
</trkpt>
<trkpt lat="57.612372" lon="10.284427">
<ele>15.093304</ele>
<time>2026-07-17T10:25:29.000Z</time>
</trkpt>
<trkpt lat="57.612435" lon="10.284407">
<ele>15.077432</ele>
<time>2026-07-17T10:25:30.000Z</time>
</trkpt>
<trkpt lat="57.612497" lon="10.284386">
<ele>15.061782</ele>
<time>2026-07-17T10:25:31.000Z</time>
</trkpt>
<trkpt lat="57.612557" lon="10.284365">
<ele>15.046621</ele>
<time>2026-07-17T10:25:32.000Z</time>
</trkpt>
<trkpt lat="57.612616" lon="10.284345">
<ele>15.031727</ele>
<time>2026-07-17T10:25:33.000Z</time>
</trkpt>
<trkpt lat="57.612676" lon="10.284327">
<ele>15.016634</ele>
<time>2026-07-17T10:25:34.000Z</time>
</trkpt>
<trkpt lat="57.612733" lon="10.284307">
<ele>15.002229</ele>
<time>2026-07-17T10:25:35.000Z</time>
</trkpt>
<trkpt lat="57.612796" lon="10.284284">
<ele>14.986286</ele>
<time>2026-07-17T10:25:36.000Z</time>
</trkpt>
<trkpt lat="57.612855" lon="10.284262">
<ele>14.971342</ele>
<time>2026-07-17T10:25:37.000Z</time>
</trkpt>
<trkpt lat="57.612921" lon="10.284239">
<ele>14.954667</ele>
<time>2026-07-17T10:25:38.000Z</time>
</trkpt>
<trkpt lat="57.612978" lon="10.284217">
<ele>14.940211</ele>
<time>2026-07-17T10:25:39.000Z</time>
</trkpt>
<trkpt lat="57.613040" lon="10.284194">
<ele>14.924511</ele>
<time>2026-07-17T10:25:40.000Z</time>
</trkpt>
<trkpt lat="57.613104" lon="10.284171">
<ele>14.908324</ele>
<time>2026-07-17T10:25:41.000Z</time>
</trkpt>
<trkpt lat="57.613166" lon="10.284149">
<ele>14.892649</ele>
<time>2026-07-17T10:25:42.000Z</time>
</trkpt>
<trkpt lat="57.613226" lon="10.284126">
<ele>14.877436</ele>
<time>2026-07-17T10:25:43.000Z</time>
</trkpt>
<trkpt lat="57.613283" lon="10.284103">
<ele>14.862952</ele>
<time>2026-07-17T10:25:44.000Z</time>
</trkpt>
<trkpt lat="57.613344" lon="10.284077">
<ele>14.847412</ele>
<time>2026-07-17T10:25:45.000Z</time>
</trkpt>
<trkpt lat="57.613405" lon="10.284055">
<ele>14.831982</ele>
<time>2026-07-17T10:25:46.000Z</time>
</trkpt>
<trkpt lat="57.613463" lon="10.284031">
<ele>14.817227</ele>
<time>2026-07-17T10:25:47.000Z</time>
</trkpt>
<trkpt lat="57.613527" lon="10.284006">
<ele>14.800987</ele>
<time>2026-07-17T10:25:48.000Z</time>
</trkpt>
<trkpt lat="57.613585" lon="10.283986">
<ele>14.786338</ele>
<time>2026-07-17T10:25:49.000Z</time>
</trkpt>
<trkpt lat="57.613646" lon="10.283966">
<ele>14.770956</ele>
<time>2026-07-17T10:25:50.000Z</time>
</trkpt>
<trkpt lat="57.613703" lon="10.283946">
<ele>14.756551</ele>
<time>2026-07-17T10:25:51.000Z</time>
</trkpt>
<trkpt lat="57.613764" lon="10.283925">
<ele>14.735492</ele>
<time>2026-07-17T10:25:52.000Z</time>
</trkpt>
<trkpt lat="57.613821" lon="10.283903">
<ele>14.709649</ele>
<time>2026-07-17T10:25:53.000Z</time>
</trkpt>
<trkpt lat="57.613882" lon="10.283881">
<ele>14.682065</ele>
<time>2026-07-17T10:25:54.000Z</time>
</trkpt>
<trkpt lat="57.613937" lon="10.283859">
<ele>14.657091</ele>
<time>2026-07-17T10:25:55.000Z</time>
</trkpt>
<trkpt lat="57.613993" lon="10.283836">
<ele>14.631633</ele>
<time>2026-07-17T10:25:56.000Z</time>
</trkpt>
<trkpt lat="57.614054" lon="10.283813">
<ele>14.604003</ele>
<time>2026-07-17T10:25:57.000Z</time>
</trkpt>
<trkpt lat="57.614111" lon="10.283790">
<ele>14.578111</ele>
<time>2026-07-17T10:25:58.000Z</time>
</trkpt>
<trkpt lat="57.614168" lon="10.283768">
<ele>14.552269</ele>
<time>2026-07-17T10:25:59.000Z</time>
</trkpt>
<trkpt lat="57.614228" lon="10.283748">
<ele>14.525208</ele>
<time>2026-07-17T10:26:00.000Z</time>
</trkpt>
<trkpt lat="57.614290" lon="10.283732">
<ele>14.497419</ele>
<time>2026-07-17T10:26:01.000Z</time>
</trkpt>
<trkpt lat="57.614351" lon="10.283719">
<ele>14.470160</ele>
<time>2026-07-17T10:26:02.000Z</time>
</trkpt>
<trkpt lat="57.614414" lon="10.283705">
<ele>14.441991</ele>
<time>2026-07-17T10:26:03.000Z</time>
</trkpt>
<trkpt lat="57.614478" lon="10.283690">
<ele>14.413352</ele>
<time>2026-07-17T10:26:04.000Z</time>
</trkpt>
<trkpt lat="57.614535" lon="10.283677">
<ele>14.387857</ele>
<time>2026-07-17T10:26:05.000Z</time>
</trkpt>
<trkpt lat="57.614600" lon="10.283663">
<ele>14.358806</ele>
<time>2026-07-17T10:26:06.000Z</time>
</trkpt>
<trkpt lat="57.614659" lon="10.283654">
<ele>14.332523</ele>
<time>2026-07-17T10:26:07.000Z</time>
</trkpt>
<trkpt lat="57.614718" lon="10.283646">
<ele>14.306259</ele>
<time>2026-07-17T10:26:08.000Z</time>
</trkpt>
<trkpt lat="57.614777" lon="10.283639">
<ele>14.280011</ele>
<time>2026-07-17T10:26:09.000Z</time>
</trkpt>
<trkpt lat="57.614836" lon="10.283628">
<ele>14.253685</ele>
<time>2026-07-17T10:26:10.000Z</time>
</trkpt>
<trkpt lat="57.614897" lon="10.283621">
<ele>14.226550</ele>
<time>2026-07-17T10:26:11.000Z</time>
</trkpt>
<trkpt lat="57.614959" lon="10.283610">
<ele>14.198899</ele>
<time>2026-07-17T10:26:12.000Z</time>
</trkpt>
<trkpt lat="57.615020" lon="10.283595">
<ele>14.171582</ele>
<time>2026-07-17T10:26:13.000Z</time>
</trkpt>
<trkpt lat="57.615081" lon="10.283568">
<ele>14.143747</ele>
<time>2026-07-17T10:26:14.000Z</time>
</trkpt>
<trkpt lat="57.615137" lon="10.283526">
<ele>14.116953</ele>
<time>2026-07-17T10:26:15.000Z</time>
</trkpt>
<trkpt lat="57.615188" lon="10.283470">
<ele>14.090684</ele>
<time>2026-07-17T10:26:16.000Z</time>
</trkpt>
<trkpt lat="57.615242" lon="10.283400">
<ele>14.061496</ele>
<time>2026-07-17T10:26:17.000Z</time>
</trkpt>
<trkpt lat="57.615297" lon="10.283319">
<ele>14.030394</ele>
<time>2026-07-17T10:26:18.000Z</time>
</trkpt>
<trkpt lat="57.615342" lon="10.283240">
<ele>14.002969</ele>
<time>2026-07-17T10:26:19.000Z</time>
</trkpt>
<trkpt lat="57.615391" lon="10.283158">
<ele>13.973754</ele>
<time>2026-07-17T10:26:20.000Z</time>
</trkpt>
<trkpt lat="57.615443" lon="10.283079">
<ele>13.917844</ele>
<time>2026-07-17T10:26:21.000Z</time>
</trkpt>
<trkpt lat="57.615494" lon="10.282998">
<ele>13.753007</ele>
<time>2026-07-17T10:26:22.000Z</time>
</trkpt>
<trkpt lat="57.615544" lon="10.282924">
<ele>13.595932</ele>
<time>2026-07-17T10:26:23.000Z</time>
</trkpt>
<trkpt lat="57.615603" lon="10.282846">
<ele>13.417956</ele>
<time>2026-07-17T10:26:24.000Z</time>
</trkpt>
<trkpt lat="57.615659" lon="10.282781">
<ele>13.255622</ele>
<time>2026-07-17T10:26:25.000Z</time>
</trkpt>
<trkpt lat="57.615718" lon="10.282721">
<ele>13.090224</ele>
<time>2026-07-17T10:26:26.000Z</time>
</trkpt>
<trkpt lat="57.615784" lon="10.282667">
<ele>12.912825</ele>
<time>2026-07-17T10:26:27.000Z</time>
</trkpt>
<trkpt lat="57.615852" lon="10.282612">
<ele>12.730385</ele>
<time>2026-07-17T10:26:28.000Z</time>
</trkpt>
<trkpt lat="57.615920" lon="10.282552">
<ele>12.545226</ele>
<time>2026-07-17T10:26:29.000Z</time>
</trkpt>
<trkpt lat="57.615980" lon="10.282495">
<ele>12.379493</ele>
<time>2026-07-17T10:26:30.000Z</time>
</trkpt>
<trkpt lat="57.616037" lon="10.282428">
<ele>12.213674</ele>
<time>2026-07-17T10:26:31.000Z</time>
</trkpt>
<trkpt lat="57.616086" lon="10.282373">
<ele>12.072922</ele>
<time>2026-07-17T10:26:32.000Z</time>
</trkpt>
<trkpt lat="57.616128" lon="10.282329">
<ele>11.954359</ele>
<time>2026-07-17T10:26:33.000Z</time>
</trkpt>
<trkpt lat="57.616173" lon="10.282284">
<ele>11.828687</ele>
<time>2026-07-17T10:26:34.000Z</time>
</trkpt>
<trkpt lat="57.616219" lon="10.282235">
<ele>11.698307</ele>
<time>2026-07-17T10:26:35.000Z</time>
</trkpt>
<trkpt lat="57.616262" lon="10.282186">
<ele>11.574288</ele>
<time>2026-07-17T10:26:36.000Z</time>
</trkpt>
<trkpt lat="57.616315" lon="10.282150">
<ele>11.435443</ele>
<time>2026-07-17T10:26:37.000Z</time>
</trkpt>
<trkpt lat="57.616365" lon="10.282139">
<ele>11.311499</ele>
<time>2026-07-17T10:26:38.000Z</time>
</trkpt>
<trkpt lat="57.616418" lon="10.282164">
<ele>11.176920</ele>
<time>2026-07-17T10:26:39.000Z</time>
</trkpt>
<trkpt lat="57.616466" lon="10.282223">
<ele>11.035443</ele>
<time>2026-07-17T10:26:40.000Z</time>
</trkpt>
<trkpt lat="57.616513" lon="10.282301">
<ele>10.880635</ele>
<time>2026-07-17T10:26:41.000Z</time>
</trkpt>
<trkpt lat="57.616556" lon="10.282381">
<ele>10.731193</ele>
<time>2026-07-17T10:26:42.000Z</time>
</trkpt>
<trkpt lat="57.616600" lon="10.282458">
<ele>10.582730</ele>
<time>2026-07-17T10:26:43.000Z</time>
</trkpt>
<trkpt lat="57.616647" lon="10.282538">
<ele>10.426158</ele>
<time>2026-07-17T10:26:44.000Z</time>
</trkpt>
<trkpt lat="57.616695" lon="10.282614">
<ele>10.271220</ele>
<time>2026-07-17T10:26:45.000Z</time>
</trkpt>
<trkpt lat="57.616741" lon="10.282699">
<ele>10.111892</ele>
<time>2026-07-17T10:26:46.000Z</time>
</trkpt>
<trkpt lat="57.616789" lon="10.282786">
<ele>9.947202</ele>
<time>2026-07-17T10:26:47.000Z</time>
</trkpt>
<trkpt lat="57.616843" lon="10.282866">
<ele>9.777498</ele>
<time>2026-07-17T10:26:48.000Z</time>
</trkpt>
<trkpt lat="57.616896" lon="10.282937">
<ele>9.616910</ele>
<time>2026-07-17T10:26:49.000Z</time>
</trkpt>
<trkpt lat="57.616954" lon="10.282988">
<ele>9.550244</ele>
<time>2026-07-17T10:26:50.000Z</time>
</trkpt>
<trkpt lat="57.617019" lon="10.283012">
<ele>9.624497</ele>
<time>2026-07-17T10:26:51.000Z</time>
</trkpt>
<trkpt lat="57.617087" lon="10.283012">
<ele>9.700702</ele>
<time>2026-07-17T10:26:52.000Z</time>
</trkpt>
<trkpt lat="57.617151" lon="10.283000">
<ele>9.772784</ele>
<time>2026-07-17T10:26:53.000Z</time>
</trkpt>
<trkpt lat="57.617212" lon="10.282985">
<ele>9.841734</ele>
<time>2026-07-17T10:26:54.000Z</time>
</trkpt>
<trkpt lat="57.617271" lon="10.282997">
<ele>9.908244</ele>
<time>2026-07-17T10:26:55.000Z</time>
</trkpt>
<trkpt lat="57.617320" lon="10.283071">
<ele>9.978869</ele>
<time>2026-07-17T10:26:56.000Z</time>
</trkpt>
<trkpt lat="57.617350" lon="10.283174">
<ele>10.049239</ele>
<time>2026-07-17T10:26:57.000Z</time>
</trkpt>
<trkpt lat="57.617368" lon="10.283286">
<ele>10.119421</ele>
<time>2026-07-17T10:26:58.000Z</time>
</trkpt>
<trkpt lat="57.617384" lon="10.283397">
<ele>10.188413</ele>
<time>2026-07-17T10:26:59.000Z</time>
</trkpt>
<trkpt lat="57.617399" lon="10.283511">
<ele>10.258869</ele>
<time>2026-07-17T10:27:00.000Z</time>
</trkpt>
<trkpt lat="57.617414" lon="10.283620">
<ele>10.326415</ele>
<time>2026-07-17T10:27:01.000Z</time>
</trkpt>
<trkpt lat="57.617429" lon="10.283737">
<ele>10.398621</ele>
<time>2026-07-17T10:27:02.000Z</time>
</trkpt>
<trkpt lat="57.617444" lon="10.283851">
<ele>10.469077</ele>
<time>2026-07-17T10:27:03.000Z</time>
</trkpt>
<trkpt lat="57.617459" lon="10.283967">
<ele>10.540699</ele>
<time>2026-07-17T10:27:04.000Z</time>
</trkpt>
<trkpt lat="57.617471" lon="10.284082">
<ele>10.611018</ele>
<time>2026-07-17T10:27:05.000Z</time>
</trkpt>
<trkpt lat="57.617482" lon="10.284193">
<ele>10.678770</ele>
<time>2026-07-17T10:27:06.000Z</time>
</trkpt>
<trkpt lat="57.617493" lon="10.284306">
<ele>10.747702</ele>
<time>2026-07-17T10:27:07.000Z</time>
</trkpt>
<trkpt lat="57.617501" lon="10.284419">
<ele>10.816113</ele>
<time>2026-07-17T10:27:08.000Z</time>
</trkpt>
<trkpt lat="57.617508" lon="10.284529">
<ele>10.882598</ele>
<time>2026-07-17T10:27:09.000Z</time>
</trkpt>
<trkpt lat="57.617512" lon="10.284640">
<ele>10.949370</ele>
<time>2026-07-17T10:27:10.000Z</time>
</trkpt>
<trkpt lat="57.617511" lon="10.284752">
<ele>11.016600</ele>
<time>2026-07-17T10:27:11.000Z</time>
</trkpt>
<trkpt lat="57.617508" lon="10.284862">
<ele>11.082706</ele>
<time>2026-07-17T10:27:12.000Z</time>
</trkpt>
<trkpt lat="57.617503" lon="10.284971">
<ele>11.148366</ele>
<time>2026-07-17T10:27:13.000Z</time>
</trkpt>
<trkpt lat="57.617496" lon="10.285078">
<ele>11.213063</ele>
<time>2026-07-17T10:27:14.000Z</time>
</trkpt>
<trkpt lat="57.617492" lon="10.285175">
<ele>11.271454</ele>
<time>2026-07-17T10:27:15.000Z</time>
</trkpt>
<trkpt lat="57.617483" lon="10.285259">
<ele>11.322868</ele>
<time>2026-07-17T10:27:16.000Z</time>
</trkpt>
<trkpt lat="57.617469" lon="10.285384">
<ele>11.399514</ele>
<time>2026-07-17T10:27:17.000Z</time>
</trkpt>
<trkpt lat="57.617458" lon="10.285483">
<ele>11.460198</ele>
<time>2026-07-17T10:27:18.000Z</time>
</trkpt>
<trkpt lat="57.617449" lon="10.285575">
<ele>11.516329</ele>
<time>2026-07-17T10:27:19.000Z</time>
</trkpt>
<trkpt lat="57.617438" lon="10.285667">
<ele>11.586522</ele>
<time>2026-07-17T10:27:20.000Z</time>
</trkpt>
<trkpt lat="57.617427" lon="10.285748">
<ele>11.655899</ele>
<time>2026-07-17T10:27:21.000Z</time>
</trkpt>
<trkpt lat="57.617419" lon="10.285827">
<ele>11.722650</ele>
<time>2026-07-17T10:27:22.000Z</time>
</trkpt>
<trkpt lat="57.617412" lon="10.285901">
<ele>11.785038</ele>
<time>2026-07-17T10:27:23.000Z</time>
</trkpt>
<trkpt lat="57.617405" lon="10.285967">
<ele>11.840898</ele>
<time>2026-07-17T10:27:24.000Z</time>
</trkpt>
<trkpt lat="57.617400" lon="10.286033">
<ele>11.896239</ele>
<time>2026-07-17T10:27:25.000Z</time>
</trkpt>
<trkpt lat="57.617393" lon="10.286100">
<ele>11.952913</ele>
<time>2026-07-17T10:27:26.000Z</time>
</trkpt>
<trkpt lat="57.617389" lon="10.286171">
<ele>12.012185</ele>
<time>2026-07-17T10:27:27.000Z</time>
</trkpt>
<trkpt lat="57.617385" lon="10.286239">
<ele>12.068981</ele>
<time>2026-07-17T10:27:28.000Z</time>
</trkpt>
<trkpt lat="57.617382" lon="10.286307">
<ele>12.125628</ele>
<time>2026-07-17T10:27:29.000Z</time>
</trkpt>
<trkpt lat="57.617378" lon="10.286377">
<ele>12.184075</ele>
<time>2026-07-17T10:27:30.000Z</time>
</trkpt>
<trkpt lat="57.617378" lon="10.286449">
<ele>12.243852</ele>
<time>2026-07-17T10:27:31.000Z</time>
</trkpt>
<trkpt lat="57.617378" lon="10.286524">
<ele>12.306119</ele>
<time>2026-07-17T10:27:32.000Z</time>
</trkpt>
<trkpt lat="57.617378" lon="10.286606">
<ele>12.374199</ele>
<time>2026-07-17T10:27:33.000Z</time>
</trkpt>
<trkpt lat="57.617378" lon="10.286686">
<ele>12.440618</ele>
<time>2026-07-17T10:27:34.000Z</time>
</trkpt>
<trkpt lat="57.617378" lon="10.286770">
<ele>12.510357</ele>
<time>2026-07-17T10:27:35.000Z</time>
</trkpt>
<trkpt lat="57.617379" lon="10.286855">
<ele>12.580944</ele>
<time>2026-07-17T10:27:36.000Z</time>
</trkpt>
<trkpt lat="57.617382" lon="10.286942">
<ele>12.653325</ele>
<time>2026-07-17T10:27:37.000Z</time>
</trkpt>
<trkpt lat="57.617382" lon="10.287029">
<ele>12.725555</ele>
<time>2026-07-17T10:27:38.000Z</time>
</trkpt>
<trkpt lat="57.617386" lon="10.287107">
<ele>12.790610</ele>
<time>2026-07-17T10:27:39.000Z</time>
</trkpt>
<trkpt lat="57.617390" lon="10.287205">
<ele>12.872209</ele>
<time>2026-07-17T10:27:40.000Z</time>
</trkpt>
<trkpt lat="57.617393" lon="10.287288">
<ele>12.941275</ele>
<time>2026-07-17T10:27:41.000Z</time>
</trkpt>
<trkpt lat="57.617394" lon="10.287411">
<ele>13.043406</ele>
<time>2026-07-17T10:27:42.000Z</time>
</trkpt>
<trkpt lat="57.617398" lon="10.287518">
<ele>13.132457</ele>
<time>2026-07-17T10:27:43.000Z</time>
</trkpt>
<trkpt lat="57.617400" lon="10.287629">
<ele>13.224666</ele>
<time>2026-07-17T10:27:44.000Z</time>
</trkpt>
<trkpt lat="57.617394" lon="10.287734">
<ele>13.312335</ele>
<time>2026-07-17T10:27:45.000Z</time>
</trkpt>
<trkpt lat="57.617393" lon="10.287845">
<ele>13.404504</ele>
<time>2026-07-17T10:27:46.000Z</time>
</trkpt>
<trkpt lat="57.617389" lon="10.287955">
<ele>13.496041</ele>
<time>2026-07-17T10:27:47.000Z</time>
</trkpt>
<trkpt lat="57.617385" lon="10.288064">
<ele>13.586748</ele>
<time>2026-07-17T10:27:48.000Z</time>
</trkpt>
<trkpt lat="57.617382" lon="10.288167">
<ele>13.672389</ele>
<time>2026-07-17T10:27:49.000Z</time>
</trkpt>
<trkpt lat="57.617378" lon="10.288270">
<ele>13.758128</ele>
<time>2026-07-17T10:27:50.000Z</time>
</trkpt>
<trkpt lat="57.617378" lon="10.288376">
<ele>13.846133</ele>
<time>2026-07-17T10:27:51.000Z</time>
</trkpt>
<trkpt lat="57.617374" lon="10.288483">
<ele>13.935184</ele>
<time>2026-07-17T10:27:52.000Z</time>
</trkpt>
<trkpt lat="57.617370" lon="10.288588">
<ele>14.022579</ele>
<time>2026-07-17T10:27:53.000Z</time>
</trkpt>
<trkpt lat="57.617367" lon="10.288693">
<ele>14.109878</ele>
<time>2026-07-17T10:27:54.000Z</time>
</trkpt>
<trkpt lat="57.617366" lon="10.288796">
<ele>14.195407</ele>
<time>2026-07-17T10:27:55.000Z</time>
</trkpt>
<trkpt lat="57.617363" lon="10.288901">
<ele>14.282705</ele>
<time>2026-07-17T10:27:56.000Z</time>
</trkpt>
<trkpt lat="57.617359" lon="10.289003">
<ele>14.320388</ele>
<time>2026-07-17T10:27:57.000Z</time>
</trkpt>
<trkpt lat="57.617355" lon="10.289097">
<ele>14.310638</ele>
<time>2026-07-17T10:27:58.000Z</time>
</trkpt>
<trkpt lat="57.617347" lon="10.289183">
<ele>14.301612</ele>
<time>2026-07-17T10:27:59.000Z</time>
</trkpt>
<trkpt lat="57.617340" lon="10.289263">
<ele>14.293230</ele>
<time>2026-07-17T10:28:00.000Z</time>
</trkpt>
<trkpt lat="57.617332" lon="10.289347">
<ele>14.284408</ele>
<time>2026-07-17T10:28:01.000Z</time>
</trkpt>
<trkpt lat="57.617324" lon="10.289430">
<ele>14.275688</ele>
<time>2026-07-17T10:28:02.000Z</time>
</trkpt>
<trkpt lat="57.617318" lon="10.289498">
<ele>14.268561</ele>
<time>2026-07-17T10:28:03.000Z</time>
</trkpt>
<trkpt lat="57.617309" lon="10.289595">
<ele>14.258382</ele>
<time>2026-07-17T10:28:04.000Z</time>
</trkpt>
<trkpt lat="57.617306" lon="10.289683">
<ele>14.249264</ele>
<time>2026-07-17T10:28:05.000Z</time>
</trkpt>
<trkpt lat="57.617306" lon="10.289783">
<ele>14.238924</ele>
<time>2026-07-17T10:28:06.000Z</time>
</trkpt>
<trkpt lat="57.617307" lon="10.289873">
<ele>14.229615</ele>
<time>2026-07-17T10:28:07.000Z</time>
</trkpt>
<trkpt lat="57.617313" lon="10.289952">
<ele>14.221365</ele>
<time>2026-07-17T10:28:08.000Z</time>
</trkpt>
<trkpt lat="57.617314" lon="10.290034">
<ele>14.212884</ele>
<time>2026-07-17T10:28:09.000Z</time>
</trkpt>
<trkpt lat="57.617317" lon="10.290131">
<ele>14.202837</ele>
<time>2026-07-17T10:28:10.000Z</time>
</trkpt>
<trkpt lat="57.617317" lon="10.290244">
<ele>14.191152</ele>
<time>2026-07-17T10:28:11.000Z</time>
</trkpt>
<trkpt lat="57.617317" lon="10.290364">
<ele>14.178744</ele>
<time>2026-07-17T10:28:12.000Z</time>
</trkpt>
<trkpt lat="57.617313" lon="10.290489">
<ele>14.165795</ele>
<time>2026-07-17T10:28:13.000Z</time>
</trkpt>
<trkpt lat="57.617305" lon="10.290614">
<ele>14.152778</ele>
<time>2026-07-17T10:28:14.000Z</time>
</trkpt>
<trkpt lat="57.617297" lon="10.290737">
<ele>14.139966</ele>
<time>2026-07-17T10:28:15.000Z</time>
</trkpt>
<trkpt lat="57.617290" lon="10.290850">
<ele>14.128204</ele>
<time>2026-07-17T10:28:16.000Z</time>
</trkpt>
<trkpt lat="57.617286" lon="10.290965">
<ele>14.116287</ele>
<time>2026-07-17T10:28:17.000Z</time>
</trkpt>
<trkpt lat="57.617282" lon="10.291093">
<ele>14.103029</ele>
<time>2026-07-17T10:28:18.000Z</time>
</trkpt>
<trkpt lat="57.617279" lon="10.291214">
<ele>14.090504</ele>
<time>2026-07-17T10:28:19.000Z</time>
</trkpt>
<trkpt lat="57.617279" lon="10.291340">
<ele>14.077475</ele>
<time>2026-07-17T10:28:20.000Z</time>
</trkpt>
<trkpt lat="57.617279" lon="10.291465">
<ele>14.064550</ele>
<time>2026-07-17T10:28:21.000Z</time>
</trkpt>
<trkpt lat="57.617283" lon="10.291597">
<ele>14.050879</ele>
<time>2026-07-17T10:28:22.000Z</time>
</trkpt>
<trkpt lat="57.617287" lon="10.291725">
<ele>14.037621</ele>
<time>2026-07-17T10:28:23.000Z</time>
</trkpt>
<trkpt lat="57.617287" lon="10.291845">
<ele>14.025212</ele>
<time>2026-07-17T10:28:24.000Z</time>
</trkpt>
<trkpt lat="57.617286" lon="10.291961">
<ele>14.013216</ele>
<time>2026-07-17T10:28:25.000Z</time>
</trkpt>
<trkpt lat="57.617282" lon="10.292074">
<ele>14.001506</ele>
<time>2026-07-17T10:28:26.000Z</time>
</trkpt>
<trkpt lat="57.617276" lon="10.292189">
<ele>13.989558</ele>
<time>2026-07-17T10:28:27.000Z</time>
</trkpt>
<trkpt lat="57.617279" lon="10.292315">
<ele>13.974193</ele>
<time>2026-07-17T10:28:28.000Z</time>
</trkpt>
<trkpt lat="57.617279" lon="10.292432">
<ele>13.946795</ele>
<time>2026-07-17T10:28:29.000Z</time>
</trkpt>
<trkpt lat="57.617274" lon="10.292551">
<ele>13.918843</ele>
<time>2026-07-17T10:28:30.000Z</time>
</trkpt>
<trkpt lat="57.617268" lon="10.292653">
<ele>13.894814</ele>
<time>2026-07-17T10:28:31.000Z</time>
</trkpt>
<trkpt lat="57.617263" lon="10.292790">
<ele>13.862659</ele>
<time>2026-07-17T10:28:32.000Z</time>
</trkpt>
<trkpt lat="57.617259" lon="10.292916">
<ele>13.833102</ele>
<time>2026-07-17T10:28:33.000Z</time>
</trkpt>
<trkpt lat="57.617252" lon="10.293038">
<ele>13.804370</ele>
<time>2026-07-17T10:28:34.000Z</time>
</trkpt>
<trkpt lat="57.617244" lon="10.293165">
<ele>13.774425</ele>
<time>2026-07-17T10:28:35.000Z</time>
</trkpt>
<trkpt lat="57.617233" lon="10.293279">
<ele>13.747300</ele>
<time>2026-07-17T10:28:36.000Z</time>
</trkpt>
<trkpt lat="57.617229" lon="10.293410">
<ele>13.716574</ele>
<time>2026-07-17T10:28:37.000Z</time>
</trkpt>
<trkpt lat="57.617221" lon="10.293532">
<ele>13.687792</ele>
<time>2026-07-17T10:28:38.000Z</time>
</trkpt>
<trkpt lat="57.617213" lon="10.293652">
<ele>13.659475</ele>
<time>2026-07-17T10:28:39.000Z</time>
</trkpt>
<trkpt lat="57.617207" lon="10.293776">
<ele>13.630320</ele>
<time>2026-07-17T10:28:40.000Z</time>
</trkpt>
<trkpt lat="57.617206" lon="10.293899">
<ele>13.601513</ele>
<time>2026-07-17T10:28:41.000Z</time>
</trkpt>
<trkpt lat="57.617203" lon="10.294029">
<ele>13.571043</ele>
<time>2026-07-17T10:28:42.000Z</time>
</trkpt>
<trkpt lat="57.617207" lon="10.294144">
<ele>13.544057</ele>
<time>2026-07-17T10:28:43.000Z</time>
</trkpt>
<trkpt lat="57.617211" lon="10.294284">
<ele>13.511227</ele>
<time>2026-07-17T10:28:44.000Z</time>
</trkpt>
<trkpt lat="57.617219" lon="10.294410">
<ele>13.481515</ele>
<time>2026-07-17T10:28:45.000Z</time>
</trkpt>
<trkpt lat="57.617231" lon="10.294534">
<ele>13.452007</ele>
<time>2026-07-17T10:28:46.000Z</time>
</trkpt>
<trkpt lat="57.617246" lon="10.294651">
<ele>13.423836</ele>
<time>2026-07-17T10:28:47.000Z</time>
</trkpt>
<trkpt lat="57.617262" lon="10.294770">
<ele>13.395105</ele>
<time>2026-07-17T10:28:48.000Z</time>
</trkpt>
<trkpt lat="57.617281" lon="10.294895">
<ele>13.364678</ele>
<time>2026-07-17T10:28:49.000Z</time>
</trkpt>
<trkpt lat="57.617300" lon="10.295018">
<ele>13.334701</ele>
<time>2026-07-17T10:28:50.000Z</time>
</trkpt>
<trkpt lat="57.617315" lon="10.295134">
<ele>13.306757</ele>
<time>2026-07-17T10:28:51.000Z</time>
</trkpt>
<trkpt lat="57.617330" lon="10.295250">
<ele>13.278812</ele>
<time>2026-07-17T10:28:52.000Z</time>
</trkpt>
<trkpt lat="57.617352" lon="10.295362">
<ele>13.250877</ele>
<time>2026-07-17T10:28:53.000Z</time>
</trkpt>
<trkpt lat="57.617373" lon="10.295489">
<ele>13.219753</ele>
<time>2026-07-17T10:28:54.000Z</time>
</trkpt>
<trkpt lat="57.617396" lon="10.295604">
<ele>13.192048</ele>
<time>2026-07-17T10:28:55.000Z</time>
</trkpt>
<trkpt lat="57.617419" lon="10.295717">
<ele>13.195636</ele>
<time>2026-07-17T10:28:56.000Z</time>
</trkpt>
<trkpt lat="57.617440" lon="10.295821">
<ele>13.198935</ele>
<time>2026-07-17T10:28:57.000Z</time>
</trkpt>
<trkpt lat="57.617468" lon="10.295936">
<ele>13.202684</ele>
<time>2026-07-17T10:28:58.000Z</time>
</trkpt>
<trkpt lat="57.617487" lon="10.296043">
<ele>13.206030</ele>
<time>2026-07-17T10:28:59.000Z</time>
</trkpt>
<trkpt lat="57.617506" lon="10.296145">
<ele>13.209235</ele>
<time>2026-07-17T10:29:00.000Z</time>
</trkpt>
<trkpt lat="57.617521" lon="10.296245">
<ele>13.212317</ele>
<time>2026-07-17T10:29:01.000Z</time>
</trkpt>
<trkpt lat="57.617540" lon="10.296354">
<ele>13.215720</ele>
<time>2026-07-17T10:29:02.000Z</time>
</trkpt>
<trkpt lat="57.617560" lon="10.296464">
<ele>13.219168</ele>
<time>2026-07-17T10:29:03.000Z</time>
</trkpt>
<trkpt lat="57.617578" lon="10.296573">
<ele>13.222553</ele>
<time>2026-07-17T10:29:04.000Z</time>
</trkpt>
<trkpt lat="57.617598" lon="10.296683">
<ele>13.226001</ele>
<time>2026-07-17T10:29:05.000Z</time>
</trkpt>
<trkpt lat="57.617621" lon="10.296795">
<ele>13.229561</ele>
<time>2026-07-17T10:29:06.000Z</time>
</trkpt>
<trkpt lat="57.617643" lon="10.296907">
<ele>13.233102</ele>
<time>2026-07-17T10:29:07.000Z</time>
</trkpt>
<trkpt lat="57.617663" lon="10.297026">
<ele>13.236804</ele>
<time>2026-07-17T10:29:08.000Z</time>
</trkpt>
<trkpt lat="57.617681" lon="10.297143">
<ele>13.240417</ele>
<time>2026-07-17T10:29:09.000Z</time>
</trkpt>
<trkpt lat="57.617701" lon="10.297261">
<ele>13.244090</ele>
<time>2026-07-17T10:29:10.000Z</time>
</trkpt>
<trkpt lat="57.617720" lon="10.297373">
<ele>13.247577</ele>
<time>2026-07-17T10:29:11.000Z</time>
</trkpt>
<trkpt lat="57.617739" lon="10.297487">
<ele>13.251121</ele>
<time>2026-07-17T10:29:12.000Z</time>
</trkpt>
<trkpt lat="57.617754" lon="10.297597">
<ele>13.254490</ele>
<time>2026-07-17T10:29:13.000Z</time>
</trkpt>
<trkpt lat="57.617769" lon="10.297709">
<ele>13.257917</ele>
<time>2026-07-17T10:29:14.000Z</time>
</trkpt>
<trkpt lat="57.617780" lon="10.297813">
<ele>13.261063</ele>
<time>2026-07-17T10:29:15.000Z</time>
</trkpt>
<trkpt lat="57.617795" lon="10.297915">
<ele>13.264203</ele>
<time>2026-07-17T10:29:16.000Z</time>
</trkpt>
<trkpt lat="57.617807" lon="10.298015">
<ele>13.267244</ele>
<time>2026-07-17T10:29:17.000Z</time>
</trkpt>
<trkpt lat="57.617823" lon="10.298120">
<ele>13.270484</ele>
<time>2026-07-17T10:29:18.000Z</time>
</trkpt>
<trkpt lat="57.617842" lon="10.298216">
<ele>13.273522</ele>
<time>2026-07-17T10:29:19.000Z</time>
</trkpt>
<trkpt lat="57.617856" lon="10.298303">
<ele>13.276218</ele>
<time>2026-07-17T10:29:20.000Z</time>
</trkpt>
<trkpt lat="57.617868" lon="10.298387">
<ele>13.278799</ele>
<time>2026-07-17T10:29:21.000Z</time>
</trkpt>
<trkpt lat="57.617883" lon="10.298462">
<ele>13.281175</ele>
<time>2026-07-17T10:29:22.000Z</time>
</trkpt>
<trkpt lat="57.617903" lon="10.298563">
<ele>13.284371</ele>
<time>2026-07-17T10:29:23.000Z</time>
</trkpt>
<trkpt lat="57.617926" lon="10.298662">
<ele>13.287574</ele>
<time>2026-07-17T10:29:24.000Z</time>
</trkpt>
<trkpt lat="57.617949" lon="10.298771">
<ele>13.291051</ele>
<time>2026-07-17T10:29:25.000Z</time>
</trkpt>
<trkpt lat="57.617972" lon="10.298869">
<ele>13.298210</ele>
<time>2026-07-17T10:29:26.000Z</time>
</trkpt>
<trkpt lat="57.617999" lon="10.298966">
<ele>13.306394</ele>
<time>2026-07-17T10:29:27.000Z</time>
</trkpt>
<trkpt lat="57.618024" lon="10.299070">
<ele>13.314927</ele>
<time>2026-07-17T10:29:28.000Z</time>
</trkpt>
<trkpt lat="57.618048" lon="10.299193">
<ele>13.324727</ele>
<time>2026-07-17T10:29:29.000Z</time>
</trkpt>
<trkpt lat="57.618067" lon="10.299296">
<ele>13.332882</ele>
<time>2026-07-17T10:29:30.000Z</time>
</trkpt>
<trkpt lat="57.618085" lon="10.299395">
<ele>13.340709</ele>
<time>2026-07-17T10:29:31.000Z</time>
</trkpt>
<trkpt lat="57.618093" lon="10.299501">
<ele>13.348722</ele>
<time>2026-07-17T10:29:32.000Z</time>
</trkpt>
<trkpt lat="57.618103" lon="10.299598">
<ele>13.356117</ele>
<time>2026-07-17T10:29:33.000Z</time>
</trkpt>
<trkpt lat="57.618120" lon="10.299716">
<ele>13.365264</ele>
<time>2026-07-17T10:29:34.000Z</time>
</trkpt>
<trkpt lat="57.618139" lon="10.299822">
<ele>13.373632</ele>
<time>2026-07-17T10:29:35.000Z</time>
</trkpt>
<trkpt lat="57.618154" lon="10.299928">
<ele>13.381839</ele>
<time>2026-07-17T10:29:36.000Z</time>
</trkpt>
<trkpt lat="57.618170" lon="10.300039">
<ele>13.390444</ele>
<time>2026-07-17T10:29:37.000Z</time>
</trkpt>
<trkpt lat="57.618185" lon="10.300144">
<ele>13.398580</ele>
<time>2026-07-17T10:29:38.000Z</time>
</trkpt>
<trkpt lat="57.618205" lon="10.300246">
<ele>13.406711</ele>
<time>2026-07-17T10:29:39.000Z</time>
</trkpt>
<trkpt lat="57.618227" lon="10.300358">
<ele>13.415641</ele>
<time>2026-07-17T10:29:40.000Z</time>
</trkpt>
<trkpt lat="57.618250" lon="10.300468">
<ele>13.424481</ele>
<time>2026-07-17T10:29:41.000Z</time>
</trkpt>
<trkpt lat="57.618269" lon="10.300575">
<ele>13.432920</ele>
<time>2026-07-17T10:29:42.000Z</time>
</trkpt>
<trkpt lat="57.618293" lon="10.300678">
<ele>13.441328</ele>
<time>2026-07-17T10:29:43.000Z</time>
</trkpt>
<trkpt lat="57.618319" lon="10.300772">
<ele>13.449248</ele>
<time>2026-07-17T10:29:44.000Z</time>
</trkpt>
<trkpt lat="57.618346" lon="10.300873">
<ele>13.457698</ele>
<time>2026-07-17T10:29:45.000Z</time>
</trkpt>
<trkpt lat="57.618368" lon="10.300975">
<ele>13.465930</ele>
<time>2026-07-17T10:29:46.000Z</time>
</trkpt>
<trkpt lat="57.618390" lon="10.301087">
<ele>13.474860</ele>
<time>2026-07-17T10:29:47.000Z</time>
</trkpt>
<trkpt lat="57.618414" lon="10.301201">
<ele>13.484030</ele>
<time>2026-07-17T10:29:48.000Z</time>
</trkpt>
<trkpt lat="57.618429" lon="10.301288">
<ele>13.490872</ele>
<time>2026-07-17T10:29:49.000Z</time>
</trkpt>
<trkpt lat="57.618452" lon="10.301392">
<ele>13.499295</ele>
<time>2026-07-17T10:29:50.000Z</time>
</trkpt>
<trkpt lat="57.618479" lon="10.301517">
<ele>13.509385</ele>
<time>2026-07-17T10:29:51.000Z</time>
</trkpt>
<trkpt lat="57.618505" lon="10.301631">
<ele>13.518660</ele>
<time>2026-07-17T10:29:52.000Z</time>
</trkpt>
<trkpt lat="57.618525" lon="10.301753">
<ele>13.528211</ele>
<time>2026-07-17T10:29:53.000Z</time>
</trkpt>
<trkpt lat="57.618543" lon="10.301864">
<ele>13.536893</ele>
<time>2026-07-17T10:29:54.000Z</time>
</trkpt>
<trkpt lat="57.618558" lon="10.301975">
<ele>13.540271</ele>
<time>2026-07-17T10:29:55.000Z</time>
</trkpt>
<trkpt lat="57.618574" lon="10.302080">
<ele>13.531072</ele>
<time>2026-07-17T10:29:56.000Z</time>
</trkpt>
<trkpt lat="57.618596" lon="10.302189">
<ele>13.521256</ele>
<time>2026-07-17T10:29:57.000Z</time>
</trkpt>
<trkpt lat="57.618608" lon="10.302291">
<ele>13.512456</ele>
<time>2026-07-17T10:29:58.000Z</time>
</trkpt>
<trkpt lat="57.618627" lon="10.302391">
<ele>13.503515</ele>
<time>2026-07-17T10:29:59.000Z</time>
</trkpt>
<trkpt lat="57.618643" lon="10.302492">
<ele>13.494640</ele>
<time>2026-07-17T10:30:00.000Z</time>
</trkpt>
<trkpt lat="57.618662" lon="10.302596">
<ele>13.485381</ele>
<time>2026-07-17T10:30:01.000Z</time>
</trkpt>
<trkpt lat="57.618685" lon="10.302704">
<ele>13.475587</ele>
<time>2026-07-17T10:30:02.000Z</time>
</trkpt>
<trkpt lat="57.618704" lon="10.302814">
<ele>13.465848</ele>
<time>2026-07-17T10:30:03.000Z</time>
</trkpt>
<trkpt lat="57.618719" lon="10.302920">
<ele>13.456609</ele>
<time>2026-07-17T10:30:04.000Z</time>
</trkpt>
<trkpt lat="57.618735" lon="10.303027">
<ele>13.447248</ele>
<time>2026-07-17T10:30:05.000Z</time>
</trkpt>
<trkpt lat="57.618753" lon="10.303130">
<ele>13.438118</ele>
<time>2026-07-17T10:30:06.000Z</time>
</trkpt>
<trkpt lat="57.618773" lon="10.303240">
<ele>13.428330</ele>
<time>2026-07-17T10:30:07.000Z</time>
</trkpt>
<trkpt lat="57.618792" lon="10.303345">
<ele>13.418991</ele>
<time>2026-07-17T10:30:08.000Z</time>
</trkpt>
<trkpt lat="57.618811" lon="10.303453">
<ele>13.409412</ele>
<time>2026-07-17T10:30:09.000Z</time>
</trkpt>
<trkpt lat="57.618830" lon="10.303557">
<ele>13.400152</ele>
<time>2026-07-17T10:30:10.000Z</time>
</trkpt>
<trkpt lat="57.618848" lon="10.303658">
<ele>13.391183</ele>
<time>2026-07-17T10:30:11.000Z</time>
</trkpt>
<trkpt lat="57.618867" lon="10.303765">
<ele>13.381684</ele>
<time>2026-07-17T10:30:12.000Z</time>
</trkpt>
<trkpt lat="57.618885" lon="10.303863">
<ele>13.372954</ele>
<time>2026-07-17T10:30:13.000Z</time>
</trkpt>
<trkpt lat="57.618903" lon="10.303984">
<ele>13.362372</ele>
<time>2026-07-17T10:30:14.000Z</time>
</trkpt>
<trkpt lat="57.618922" lon="10.304094">
<ele>13.352633</ele>
<time>2026-07-17T10:30:15.000Z</time>
</trkpt>
<trkpt lat="57.618940" lon="10.304202">
<ele>13.343102</ele>
<time>2026-07-17T10:30:16.000Z</time>
</trkpt>
<trkpt lat="57.618956" lon="10.304309">
<ele>13.333740</ele>
<time>2026-07-17T10:30:17.000Z</time>
</trkpt>
<trkpt lat="57.618979" lon="10.304414">
<ele>13.324181</ele>
<time>2026-07-17T10:30:18.000Z</time>
</trkpt>
<trkpt lat="57.618998" lon="10.304522">
<ele>13.314602</ele>
<time>2026-07-17T10:30:19.000Z</time>
</trkpt>
<trkpt lat="57.619017" lon="10.304630">
<ele>13.305023</ele>
<time>2026-07-17T10:30:20.000Z</time>
</trkpt>
<trkpt lat="57.619035" lon="10.304738">
<ele>13.295492</ele>
<time>2026-07-17T10:30:21.000Z</time>
</trkpt>
<trkpt lat="57.619055" lon="10.304850">
<ele>13.285544</ele>
<time>2026-07-17T10:30:22.000Z</time>
</trkpt>
<trkpt lat="57.619073" lon="10.304952">
<ele>13.276495</ele>
<time>2026-07-17T10:30:23.000Z</time>
</trkpt>
<trkpt lat="57.619097" lon="10.305068">
<ele>13.266016</ele>
<time>2026-07-17T10:30:24.000Z</time>
</trkpt>
<trkpt lat="57.619120" lon="10.305177">
<ele>13.260870</ele>
<time>2026-07-17T10:30:25.000Z</time>
</trkpt>
<trkpt lat="57.619139" lon="10.305277">
<ele>13.262833</ele>
<time>2026-07-17T10:30:26.000Z</time>
</trkpt>
<trkpt lat="57.619158" lon="10.305380">
<ele>13.264849</ele>
<time>2026-07-17T10:30:27.000Z</time>
</trkpt>
<trkpt lat="57.619177" lon="10.305488">
<ele>13.266953</ele>
<time>2026-07-17T10:30:28.000Z</time>
</trkpt>
<trkpt lat="57.619192" lon="10.305597">
<ele>13.269036</ele>
<time>2026-07-17T10:30:29.000Z</time>
</trkpt>
<trkpt lat="57.619211" lon="10.305709">
<ele>13.271210</ele>
<time>2026-07-17T10:30:30.000Z</time>
</trkpt>
<trkpt lat="57.619226" lon="10.305815">
<ele>13.273239</ele>
<time>2026-07-17T10:30:31.000Z</time>
</trkpt>
<trkpt lat="57.619241" lon="10.305925">
<ele>13.275339</ele>
<time>2026-07-17T10:30:32.000Z</time>
</trkpt>
<trkpt lat="57.619255" lon="10.306023">
<ele>13.277216</ele>
<time>2026-07-17T10:30:33.000Z</time>
</trkpt>
<trkpt lat="57.619272" lon="10.306143">
<ele>13.279513</ele>
<time>2026-07-17T10:30:34.000Z</time>
</trkpt>
<trkpt lat="57.619287" lon="10.306248">
<ele>13.281524</ele>
<time>2026-07-17T10:30:35.000Z</time>
</trkpt>
<trkpt lat="57.619303" lon="10.306355">
<ele>13.283580</ele>
<time>2026-07-17T10:30:36.000Z</time>
</trkpt>
<trkpt lat="57.619322" lon="10.306462">
<ele>13.285666</ele>
<time>2026-07-17T10:30:37.000Z</time>
</trkpt>
<trkpt lat="57.619337" lon="10.306572">
<ele>13.287767</ele>
<time>2026-07-17T10:30:38.000Z</time>
</trkpt>
<trkpt lat="57.619352" lon="10.306685">
<ele>13.289921</ele>
<time>2026-07-17T10:30:39.000Z</time>
</trkpt>
<trkpt lat="57.619368" lon="10.306798">
<ele>13.292084</ele>
<time>2026-07-17T10:30:40.000Z</time>
</trkpt>
<trkpt lat="57.619387" lon="10.306905">
<ele>13.294170</ele>
<time>2026-07-17T10:30:41.000Z</time>
</trkpt>
<trkpt lat="57.619406" lon="10.307013">
<ele>13.296274</ele>
<time>2026-07-17T10:30:42.000Z</time>
</trkpt>
<trkpt lat="57.619421" lon="10.307103">
<ele>13.298018</ele>
<time>2026-07-17T10:30:43.000Z</time>
</trkpt>
<trkpt lat="57.619437" lon="10.307220">
<ele>13.300253</ele>
<time>2026-07-17T10:30:44.000Z</time>
</trkpt>
<trkpt lat="57.619455" lon="10.307348">
<ele>13.302702</ele>
<time>2026-07-17T10:30:45.000Z</time>
</trkpt>
<trkpt lat="57.619474" lon="10.307468">
<ele>13.305018</ele>
<time>2026-07-17T10:30:46.000Z</time>
</trkpt>
<trkpt lat="57.619485" lon="10.307582">
<ele>13.307161</ele>
<time>2026-07-17T10:30:47.000Z</time>
</trkpt>
<trkpt lat="57.619492" lon="10.307693">
<ele>13.309229</ele>
<time>2026-07-17T10:30:48.000Z</time>
</trkpt>
<trkpt lat="57.619500" lon="10.307804">
<ele>13.311302</ele>
<time>2026-07-17T10:30:49.000Z</time>
</trkpt>
<trkpt lat="57.619507" lon="10.307913">
<ele>13.313334</ele>
<time>2026-07-17T10:30:50.000Z</time>
</trkpt>
<trkpt lat="57.619507" lon="10.308032">
<ele>13.315536</ele>
<time>2026-07-17T10:30:51.000Z</time>
</trkpt>
<trkpt lat="57.619507" lon="10.308149">
<ele>13.317701</ele>
<time>2026-07-17T10:30:52.000Z</time>
</trkpt>
<trkpt lat="57.619511" lon="10.308268">
<ele>13.319907</ele>
<time>2026-07-17T10:30:53.000Z</time>
</trkpt>
<trkpt lat="57.619514" lon="10.308380">
<ele>13.321983</ele>
<time>2026-07-17T10:30:54.000Z</time>
</trkpt>
<trkpt lat="57.619515" lon="10.308489">
<ele>13.337410</ele>
<time>2026-07-17T10:30:55.000Z</time>
</trkpt>
<trkpt lat="57.619518" lon="10.308606">
<ele>13.355467</ele>
<time>2026-07-17T10:30:56.000Z</time>
</trkpt>
<trkpt lat="57.619518" lon="10.308721">
<ele>13.373195</ele>
<time>2026-07-17T10:30:57.000Z</time>
</trkpt>
<trkpt lat="57.619514" lon="10.308836">
<ele>13.390960</ele>
<time>2026-07-17T10:30:58.000Z</time>
</trkpt>
<trkpt lat="57.619514" lon="10.308948">
<ele>13.408225</ele>
<time>2026-07-17T10:30:59.000Z</time>
</trkpt>
<trkpt lat="57.619514" lon="10.309057">
<ele>13.425028</ele>
<time>2026-07-17T10:31:00.000Z</time>
</trkpt>
<trkpt lat="57.619515" lon="10.309168">
<ele>13.442142</ele>
<time>2026-07-17T10:31:01.000Z</time>
</trkpt>
<trkpt lat="57.619519" lon="10.309277">
<ele>13.458984</ele>
<time>2026-07-17T10:31:02.000Z</time>
</trkpt>
<trkpt lat="57.619530" lon="10.309389">
<ele>13.476537</ele>
<time>2026-07-17T10:31:03.000Z</time>
</trkpt>
<trkpt lat="57.619538" lon="10.309501">
<ele>13.493956</ele>
<time>2026-07-17T10:31:04.000Z</time>
</trkpt>
<trkpt lat="57.619545" lon="10.309594">
<ele>13.508433</ele>
<time>2026-07-17T10:31:05.000Z</time>
</trkpt>
<trkpt lat="57.619554" lon="10.309720">
<ele>13.528029</ele>
<time>2026-07-17T10:31:06.000Z</time>
</trkpt>
<trkpt lat="57.619564" lon="10.309811">
<ele>13.542349</ele>
<time>2026-07-17T10:31:07.000Z</time>
</trkpt>
<trkpt lat="57.619580" lon="10.309930">
<ele>13.561263</ele>
<time>2026-07-17T10:31:08.000Z</time>
</trkpt>
<trkpt lat="57.619589" lon="10.310039">
<ele>13.578264</ele>
<time>2026-07-17T10:31:09.000Z</time>
</trkpt>
<trkpt lat="57.619603" lon="10.310143">
<ele>13.594795</ele>
<time>2026-07-17T10:31:10.000Z</time>
</trkpt>
<trkpt lat="57.619615" lon="10.310248">
<ele>13.611346</ele>
<time>2026-07-17T10:31:11.000Z</time>
</trkpt>
<trkpt lat="57.619627" lon="10.310354">
<ele>13.628047</ele>
<time>2026-07-17T10:31:12.000Z</time>
</trkpt>
<trkpt lat="57.619642" lon="10.310459">
<ele>13.644799</ele>
<time>2026-07-17T10:31:13.000Z</time>
</trkpt>
<trkpt lat="57.619661" lon="10.310564">
<ele>13.661885</ele>
<time>2026-07-17T10:31:14.000Z</time>
</trkpt>
<trkpt lat="57.619676" lon="10.310667">
<ele>13.678339</ele>
<time>2026-07-17T10:31:15.000Z</time>
</trkpt>
<trkpt lat="57.619692" lon="10.310773">
<ele>13.695316</ele>
<time>2026-07-17T10:31:16.000Z</time>
</trkpt>
<trkpt lat="57.619707" lon="10.310878">
<ele>13.712068</ele>
<time>2026-07-17T10:31:17.000Z</time>
</trkpt>
<trkpt lat="57.619726" lon="10.310982">
<ele>13.729008</ele>
<time>2026-07-17T10:31:18.000Z</time>
</trkpt>
<trkpt lat="57.619745" lon="10.311083">
<ele>13.745510</ele>
<time>2026-07-17T10:31:19.000Z</time>
</trkpt>
<trkpt lat="57.619761" lon="10.311187">
<ele>13.762190</ele>
<time>2026-07-17T10:31:20.000Z</time>
</trkpt>
<trkpt lat="57.619784" lon="10.311288">
<ele>13.779109</ele>
<time>2026-07-17T10:31:21.000Z</time>
</trkpt>
<trkpt lat="57.619803" lon="10.311385">
<ele>13.795031</ele>
<time>2026-07-17T10:31:22.000Z</time>
</trkpt>
<trkpt lat="57.619830" lon="10.311482">
<ele>13.811883</ele>
<time>2026-07-17T10:31:23.000Z</time>
</trkpt>
<trkpt lat="57.619856" lon="10.311578">
<ele>13.828466</ele>
<time>2026-07-17T10:31:24.000Z</time>
</trkpt>
<trkpt lat="57.619884" lon="10.311677">
<ele>13.839626</ele>
<time>2026-07-17T10:31:25.000Z</time>
</trkpt>
<trkpt lat="57.619914" lon="10.311772">
<ele>13.838795</ele>
<time>2026-07-17T10:31:26.000Z</time>
</trkpt>
<trkpt lat="57.619945" lon="10.311869">
<ele>13.837944</ele>
<time>2026-07-17T10:31:27.000Z</time>
</trkpt>
<trkpt lat="57.619976" lon="10.311960">
<ele>13.837131</ele>
<time>2026-07-17T10:31:28.000Z</time>
</trkpt>
<trkpt lat="57.620011" lon="10.312052">
<ele>13.836281</ele>
<time>2026-07-17T10:31:29.000Z</time>
</trkpt>
<trkpt lat="57.620049" lon="10.312142">
<ele>13.835417</ele>
<time>2026-07-17T10:31:30.000Z</time>
</trkpt>
<trkpt lat="57.620082" lon="10.312225">
<ele>13.834638</ele>
<time>2026-07-17T10:31:31.000Z</time>
</trkpt>
<trkpt lat="57.620109" lon="10.312294">
<ele>13.833994</ele>
<time>2026-07-17T10:31:32.000Z</time>
</trkpt>
<trkpt lat="57.620151" lon="10.312400">
<ele>13.833000</ele>
<time>2026-07-17T10:31:33.000Z</time>
</trkpt>
<trkpt lat="57.620182" lon="10.312487">
<ele>13.832213</ele>
<time>2026-07-17T10:31:34.000Z</time>
</trkpt>
<trkpt lat="57.620211" lon="10.312568">
<ele>13.831478</ele>
<time>2026-07-17T10:31:35.000Z</time>
</trkpt>
<trkpt lat="57.620239" lon="10.312637">
<ele>13.830826</ele>
<time>2026-07-17T10:31:36.000Z</time>
</trkpt>
<trkpt lat="57.620279" lon="10.312736">
<ele>13.829891</ele>
<time>2026-07-17T10:31:37.000Z</time>
</trkpt>
<trkpt lat="57.620320" lon="10.312826">
<ele>13.829001</ele>
<time>2026-07-17T10:31:38.000Z</time>
</trkpt>
<trkpt lat="57.620354" lon="10.312906">
<ele>13.828231</ele>
<time>2026-07-17T10:31:39.000Z</time>
</trkpt>
<trkpt lat="57.620388" lon="10.312986">
<ele>13.827461</ele>
<time>2026-07-17T10:31:40.000Z</time>
</trkpt>
<trkpt lat="57.620423" lon="10.313067">
<ele>13.826677</ele>
<time>2026-07-17T10:31:41.000Z</time>
</trkpt>
<trkpt lat="57.620457" lon="10.313147">
<ele>13.825907</ele>
<time>2026-07-17T10:31:42.000Z</time>
</trkpt>
<trkpt lat="57.620490" lon="10.313223">
<ele>13.825170</ele>
<time>2026-07-17T10:31:43.000Z</time>
</trkpt>
<trkpt lat="57.620530" lon="10.313309">
<ele>13.824312</ele>
<time>2026-07-17T10:31:44.000Z</time>
</trkpt>
<trkpt lat="57.620568" lon="10.313390">
<ele>13.823500</ele>
<time>2026-07-17T10:31:45.000Z</time>
</trkpt>
<trkpt lat="57.620606" lon="10.313471">
<ele>13.822689</ele>
<time>2026-07-17T10:31:46.000Z</time>
</trkpt>
<trkpt lat="57.620644" lon="10.313549">
<ele>13.821894</ele>
<time>2026-07-17T10:31:47.000Z</time>
</trkpt>
<trkpt lat="57.620679" lon="10.313622">
<ele>13.821156</ele>
<time>2026-07-17T10:31:48.000Z</time>
</trkpt>
<trkpt lat="57.620717" lon="10.313699">
<ele>13.820366</ele>
<time>2026-07-17T10:31:49.000Z</time>
</trkpt>
<trkpt lat="57.620759" lon="10.313773">
<ele>13.819554</ele>
<time>2026-07-17T10:31:50.000Z</time>
</trkpt>
<trkpt lat="57.620800" lon="10.313845">
<ele>13.818762</ele>
<time>2026-07-17T10:31:51.000Z</time>
</trkpt>
<trkpt lat="57.620843" lon="10.313922">
<ele>13.817923</ele>
<time>2026-07-17T10:31:52.000Z</time>
</trkpt>
<trkpt lat="57.620888" lon="10.313991">
<ele>13.817104</ele>
<time>2026-07-17T10:31:53.000Z</time>
</trkpt>
<trkpt lat="57.620931" lon="10.314063">
<ele>13.816291</ele>
<time>2026-07-17T10:31:54.000Z</time>
</trkpt>
<trkpt lat="57.620971" lon="10.314125">
<ele>13.815560</ele>
<time>2026-07-17T10:31:55.000Z</time>
</trkpt>
<trkpt lat="57.621021" lon="10.314199">
<ele>13.814662</ele>
<time>2026-07-17T10:31:56.000Z</time>
</trkpt>
<trkpt lat="57.621058" lon="10.314256">
<ele>13.834684</ele>
<time>2026-07-17T10:31:57.000Z</time>
</trkpt>
<trkpt lat="57.621114" lon="10.314340">
<ele>13.867834</ele>
<time>2026-07-17T10:31:58.000Z</time>
</trkpt>
<trkpt lat="57.621159" lon="10.314406">
<ele>13.894242</ele>
<time>2026-07-17T10:31:59.000Z</time>
</trkpt>
<trkpt lat="57.621201" lon="10.314471">
<ele>13.919417</ele>
<time>2026-07-17T10:32:00.000Z</time>
</trkpt>
<trkpt lat="57.621244" lon="10.314535">
<ele>13.944795</ele>
<time>2026-07-17T10:32:01.000Z</time>
</trkpt>
<trkpt lat="57.621287" lon="10.314598">
<ele>13.970019</ele>
<time>2026-07-17T10:32:02.000Z</time>
</trkpt>
<trkpt lat="57.621331" lon="10.314667">
<ele>13.996536</ele>
<time>2026-07-17T10:32:03.000Z</time>
</trkpt>
<trkpt lat="57.621376" lon="10.314732">
<ele>14.022792</ele>
<time>2026-07-17T10:32:04.000Z</time>
</trkpt>
<trkpt lat="57.621422" lon="10.314798">
<ele>14.049565</ele>
<time>2026-07-17T10:32:05.000Z</time>
</trkpt>
<trkpt lat="57.621465" lon="10.314864">
<ele>14.075253</ele>
<time>2026-07-17T10:32:06.000Z</time>
</trkpt>
<trkpt lat="57.621511" lon="10.314931">
<ele>14.102177</ele>
<time>2026-07-17T10:32:07.000Z</time>
</trkpt>
<trkpt lat="57.621556" lon="10.314997">
<ele>14.128585</ele>
<time>2026-07-17T10:32:08.000Z</time>
</trkpt>
<trkpt lat="57.621596" lon="10.315059">
<ele>14.152576</ele>
<time>2026-07-17T10:32:09.000Z</time>
</trkpt>
<trkpt lat="57.621644" lon="10.315125">
<ele>14.180086</ele>
<time>2026-07-17T10:32:10.000Z</time>
</trkpt>
<trkpt lat="57.621690" lon="10.315186">
<ele>14.206124</ele>
<time>2026-07-17T10:32:11.000Z</time>
</trkpt>
<trkpt lat="57.621732" lon="10.315252">
<ele>14.231458</ele>
<time>2026-07-17T10:32:12.000Z</time>
</trkpt>
<trkpt lat="57.621775" lon="10.315314">
<ele>14.256530</ele>
<time>2026-07-17T10:32:13.000Z</time>
</trkpt>
<trkpt lat="57.621823" lon="10.315379">
<ele>14.283894</ele>
<time>2026-07-17T10:32:14.000Z</time>
</trkpt>
<trkpt lat="57.621871" lon="10.315436">
<ele>14.310146</ele>
<time>2026-07-17T10:32:15.000Z</time>
</trkpt>
<trkpt lat="57.621919" lon="10.315497">
<ele>14.336942</ele>
<time>2026-07-17T10:32:16.000Z</time>
</trkpt>
<trkpt lat="57.621963" lon="10.315559">
<ele>14.362381</ele>
<time>2026-07-17T10:32:17.000Z</time>
</trkpt>
<trkpt lat="57.622007" lon="10.315624">
<ele>14.388274</ele>
<time>2026-07-17T10:32:18.000Z</time>
</trkpt>
<trkpt lat="57.622056" lon="10.315689">
<ele>14.416013</ele>
<time>2026-07-17T10:32:19.000Z</time>
</trkpt>
<trkpt lat="57.622102" lon="10.315752">
<ele>14.442340</ele>
<time>2026-07-17T10:32:20.000Z</time>
</trkpt>
<trkpt lat="57.622147" lon="10.315813">
<ele>14.468003</ele>
<time>2026-07-17T10:32:21.000Z</time>
</trkpt>
<trkpt lat="57.622189" lon="10.315871">
<ele>14.492111</ele>
<time>2026-07-17T10:32:22.000Z</time>
</trkpt>
<trkpt lat="57.622239" lon="10.315942">
<ele>14.521100</ele>
<time>2026-07-17T10:32:23.000Z</time>
</trkpt>
<trkpt lat="57.622278" lon="10.316005">
<ele>14.544899</ele>
<time>2026-07-17T10:32:24.000Z</time>
</trkpt>
<trkpt lat="57.622323" lon="10.316078">
<ele>14.572409</ele>
<time>2026-07-17T10:32:25.000Z</time>
</trkpt>
<trkpt lat="57.622365" lon="10.316150">
<ele>14.598721</ele>
<time>2026-07-17T10:32:26.000Z</time>
</trkpt>
<trkpt lat="57.622411" lon="10.316220">
<ele>14.626107</ele>
<time>2026-07-17T10:32:27.000Z</time>
</trkpt>
<trkpt lat="57.622453" lon="10.316293">
<ele>14.638305</ele>
<time>2026-07-17T10:32:28.000Z</time>
</trkpt>
<trkpt lat="57.622493" lon="10.316365">
<ele>14.617535</ele>
<time>2026-07-17T10:32:29.000Z</time>
</trkpt>
<trkpt lat="57.622532" lon="10.316440">
<ele>14.596606</ele>
<time>2026-07-17T10:32:30.000Z</time>
</trkpt>
<trkpt lat="57.622571" lon="10.316519">
<ele>14.575095</ele>
<time>2026-07-17T10:32:31.000Z</time>
</trkpt>
<trkpt lat="57.622607" lon="10.316595">
<ele>14.554782</ele>
<time>2026-07-17T10:32:32.000Z</time>
</trkpt>
<trkpt lat="57.622645" lon="10.316673">
<ele>14.533671</ele>
<time>2026-07-17T10:32:33.000Z</time>
</trkpt>
<trkpt lat="57.622684" lon="10.316755">
<ele>14.511715</ele>
<time>2026-07-17T10:32:34.000Z</time>
</trkpt>
<trkpt lat="57.622720" lon="10.316836">
<ele>14.490642</ele>
<time>2026-07-17T10:32:35.000Z</time>
</trkpt>
<trkpt lat="57.622757" lon="10.316916">
<ele>14.469480</ele>
<time>2026-07-17T10:32:36.000Z</time>
</trkpt>
<trkpt lat="57.622791" lon="10.316994">
<ele>14.449345</ele>
<time>2026-07-17T10:32:37.000Z</time>
</trkpt>
<trkpt lat="57.622826" lon="10.317074">
<ele>14.428664</ele>
<time>2026-07-17T10:32:38.000Z</time>
</trkpt>
<trkpt lat="57.622863" lon="10.317154">
<ele>14.407502</ele>
<time>2026-07-17T10:32:39.000Z</time>
</trkpt>
<trkpt lat="57.622894" lon="10.317237">
<ele>14.387244</ele>
<time>2026-07-17T10:32:40.000Z</time>
</trkpt>
<trkpt lat="57.622929" lon="10.317316">
<ele>14.366717</ele>
<time>2026-07-17T10:32:41.000Z</time>
</trkpt>
<trkpt lat="57.622967" lon="10.317398">
<ele>14.345008</ele>
<time>2026-07-17T10:32:42.000Z</time>
</trkpt>
<trkpt lat="57.623002" lon="10.317481">
<ele>14.323858</ele>
<time>2026-07-17T10:32:43.000Z</time>
</trkpt>
<trkpt lat="57.623040" lon="10.317565">
<ele>14.301844</ele>
<time>2026-07-17T10:32:44.000Z</time>
</trkpt>
<trkpt lat="57.623089" lon="10.317651">
<ele>14.276705</ele>
<time>2026-07-17T10:32:45.000Z</time>
</trkpt>
<trkpt lat="57.623125" lon="10.317728">
<ele>14.256242</ele>
<time>2026-07-17T10:32:46.000Z</time>
</trkpt>
<trkpt lat="57.623169" lon="10.317818">
<ele>14.231845</ele>
<time>2026-07-17T10:32:47.000Z</time>
</trkpt>
<trkpt lat="57.623202" lon="10.317888">
<ele>14.213175</ele>
<time>2026-07-17T10:32:48.000Z</time>
</trkpt>
<trkpt lat="57.623238" lon="10.317958">
<ele>14.193745</ele>
<time>2026-07-17T10:32:49.000Z</time>
</trkpt>
<trkpt lat="57.623271" lon="10.318019">
<ele>14.176386</ele>
<time>2026-07-17T10:32:50.000Z</time>
</trkpt>
<trkpt lat="57.623303" lon="10.318084">
<ele>14.158710</ele>
<time>2026-07-17T10:32:51.000Z</time>
</trkpt>
<trkpt lat="57.623341" lon="10.318158">
<ele>14.138185</ele>
<time>2026-07-17T10:32:52.000Z</time>
</trkpt>
<trkpt lat="57.623374" lon="10.318229">
<ele>14.119364</ele>
<time>2026-07-17T10:32:53.000Z</time>
</trkpt>
<trkpt lat="57.623405" lon="10.318295">
<ele>14.101789</ele>
<time>2026-07-17T10:32:54.000Z</time>
</trkpt>
<trkpt lat="57.623451" lon="10.318381">
<ele>14.077455</ele>
<time>2026-07-17T10:32:55.000Z</time>
</trkpt>
<trkpt lat="57.623490" lon="10.318467">
<ele>14.054894</ele>
<time>2026-07-17T10:32:56.000Z</time>
</trkpt>
<trkpt lat="57.623541" lon="10.318558">
<ele>14.028524</ele>
<time>2026-07-17T10:32:57.000Z</time>
</trkpt>
<trkpt lat="57.623593" lon="10.318640">
<ele>14.003080</ele>
<time>2026-07-17T10:32:58.000Z</time>
</trkpt>
<trkpt lat="57.623631" lon="10.318707">
<ele>13.983542</ele>
<time>2026-07-17T10:32:59.000Z</time>
</trkpt>
<trkpt lat="57.623664" lon="10.318773">
<ele>13.980622</ele>
<time>2026-07-17T10:33:00.000Z</time>
</trkpt>
<trkpt lat="57.623694" lon="10.318843">
<ele>14.002642</ele>
<time>2026-07-17T10:33:01.000Z</time>
</trkpt>
<trkpt lat="57.623726" lon="10.318923">
<ele>14.027167</ele>
<time>2026-07-17T10:33:02.000Z</time>
</trkpt>
<trkpt lat="57.623760" lon="10.318993">
<ele>14.050378</ele>
<time>2026-07-17T10:33:03.000Z</time>
</trkpt>
<trkpt lat="57.623790" lon="10.319066">
<ele>14.072978</ele>
<time>2026-07-17T10:33:04.000Z</time>
</trkpt>
<trkpt lat="57.623826" lon="10.319150">
<ele>14.099403</ele>
<time>2026-07-17T10:33:05.000Z</time>
</trkpt>
<trkpt lat="57.623862" lon="10.319234">
<ele>14.125827</ele>
<time>2026-07-17T10:33:06.000Z</time>
</trkpt>
<trkpt lat="57.623898" lon="10.319327">
<ele>14.154011</ele>
<time>2026-07-17T10:33:07.000Z</time>
</trkpt>
<trkpt lat="57.623934" lon="10.319414">
<ele>14.181015</ele>
<time>2026-07-17T10:33:08.000Z</time>
</trkpt>
<trkpt lat="57.623966" lon="10.319503">
<ele>14.207343</ele>
<time>2026-07-17T10:33:09.000Z</time>
</trkpt>
<trkpt lat="57.624000" lon="10.319591">
<ele>14.233995</ele>
<time>2026-07-17T10:33:10.000Z</time>
</trkpt>
<trkpt lat="57.624029" lon="10.319676">
<ele>14.258748</ele>
<time>2026-07-17T10:33:11.000Z</time>
</trkpt>
<trkpt lat="57.624073" lon="10.319783">
<ele>14.291882</ele>
<time>2026-07-17T10:33:12.000Z</time>
</trkpt>
<trkpt lat="57.624106" lon="10.319866">
<ele>14.317271</ele>
<time>2026-07-17T10:33:13.000Z</time>
</trkpt>
<trkpt lat="57.624133" lon="10.319944">
<ele>14.340082</ele>
<time>2026-07-17T10:33:14.000Z</time>
</trkpt>
<trkpt lat="57.624163" lon="10.320027">
<ele>14.364676</ele>
<time>2026-07-17T10:33:15.000Z</time>
</trkpt>
<trkpt lat="57.624190" lon="10.320111">
<ele>14.388738</ele>
<time>2026-07-17T10:33:16.000Z</time>
</trkpt>
<trkpt lat="57.624217" lon="10.320202">
<ele>14.414289</ele>
<time>2026-07-17T10:33:17.000Z</time>
</trkpt>
<trkpt lat="57.624248" lon="10.320302">
<ele>14.442667</ele>
<time>2026-07-17T10:33:18.000Z</time>
</trkpt>
<trkpt lat="57.624278" lon="10.320402">
<ele>14.470819</ele>
<time>2026-07-17T10:33:19.000Z</time>
</trkpt>
<trkpt lat="57.624304" lon="10.320493">
<ele>14.496150</ele>
<time>2026-07-17T10:33:20.000Z</time>
</trkpt>
<trkpt lat="57.624331" lon="10.320588">
<ele>14.522565</ele>
<time>2026-07-17T10:33:21.000Z</time>
</trkpt>
<trkpt lat="57.624354" lon="10.320678">
<ele>14.547057</ele>
<time>2026-07-17T10:33:22.000Z</time>
</trkpt>
<trkpt lat="57.624376" lon="10.320766">
<ele>14.570909</ele>
<time>2026-07-17T10:33:23.000Z</time>
</trkpt>
<trkpt lat="57.624396" lon="10.320866">
<ele>14.597126</ele>
<time>2026-07-17T10:33:24.000Z</time>
</trkpt>
<trkpt lat="57.624423" lon="10.320970">
<ele>14.625511</ele>
<time>2026-07-17T10:33:25.000Z</time>
</trkpt>
<trkpt lat="57.624451" lon="10.321068">
<ele>14.652792</ele>
<time>2026-07-17T10:33:26.000Z</time>
</trkpt>
<trkpt lat="57.624476" lon="10.321171">
<ele>14.680566</ele>
<time>2026-07-17T10:33:27.000Z</time>
</trkpt>
<trkpt lat="57.624495" lon="10.321268">
<ele>14.705932</ele>
<time>2026-07-17T10:33:28.000Z</time>
</trkpt>
<trkpt lat="57.624519" lon="10.321376">
<ele>14.734650</ele>
<time>2026-07-17T10:33:29.000Z</time>
</trkpt>
<trkpt lat="57.624545" lon="10.321485">
<ele>14.763956</ele>
<time>2026-07-17T10:33:30.000Z</time>
</trkpt>
<trkpt lat="57.624567" lon="10.321589">
<ele>14.791419</ele>
<time>2026-07-17T10:33:31.000Z</time>
</trkpt>
<trkpt lat="57.624598" lon="10.321702">
<ele>14.823653</ele>
<time>2026-07-17T10:33:32.000Z</time>
</trkpt>
<trkpt lat="57.624621" lon="10.321810">
<ele>14.853381</ele>
<time>2026-07-17T10:33:33.000Z</time>
</trkpt>
<trkpt lat="57.624641" lon="10.321917">
<ele>14.882368</ele>
<time>2026-07-17T10:33:34.000Z</time>
</trkpt>
<trkpt lat="57.624667" lon="10.322024">
<ele>14.912422</ele>
<time>2026-07-17T10:33:35.000Z</time>
</trkpt>
<trkpt lat="57.624693" lon="10.322132">
<ele>14.942709</ele>
<time>2026-07-17T10:33:36.000Z</time>
</trkpt>
<trkpt lat="57.624712" lon="10.322236">
<ele>14.970815</ele>
<time>2026-07-17T10:33:37.000Z</time>
</trkpt>
<trkpt lat="57.624731" lon="10.322345">
<ele>15.000135</ele>
<time>2026-07-17T10:33:38.000Z</time>
</trkpt>
<trkpt lat="57.624751" lon="10.322453">
<ele>15.029364</ele>
<time>2026-07-17T10:33:39.000Z</time>
</trkpt>
<trkpt lat="57.624777" lon="10.322551">
<ele>15.057338</ele>
<time>2026-07-17T10:33:40.000Z</time>
</trkpt>
<trkpt lat="57.624795" lon="10.322648">
<ele>15.083595</ele>
<time>2026-07-17T10:33:41.000Z</time>
</trkpt>
<trkpt lat="57.624815" lon="10.322761">
<ele>15.114036</ele>
<time>2026-07-17T10:33:42.000Z</time>
</trkpt>
<trkpt lat="57.624834" lon="10.322869">
<ele>15.143112</ele>
<time>2026-07-17T10:33:43.000Z</time>
</trkpt>
<trkpt lat="57.624857" lon="10.322982">
<ele>15.174032</ele>
<time>2026-07-17T10:33:44.000Z</time>
</trkpt>
<trkpt lat="57.624875" lon="10.323084">
<ele>15.201501</ele>
<time>2026-07-17T10:33:45.000Z</time>
</trkpt>
<trkpt lat="57.624895" lon="10.323200">
<ele>15.232671</ele>
<time>2026-07-17T10:33:46.000Z</time>
</trkpt>
<trkpt lat="57.624915" lon="10.323300">
<ele>15.259974</ele>
<time>2026-07-17T10:33:47.000Z</time>
</trkpt>
<trkpt lat="57.624937" lon="10.323413">
<ele>15.290727</ele>
<time>2026-07-17T10:33:48.000Z</time>
</trkpt>
<trkpt lat="57.624956" lon="10.323528">
<ele>15.321509</ele>
<time>2026-07-17T10:33:49.000Z</time>
</trkpt>
<trkpt lat="57.624975" lon="10.323641">
<ele>15.351803</ele>
<time>2026-07-17T10:33:50.000Z</time>
</trkpt>
<trkpt lat="57.624990" lon="10.323753">
<ele>15.381332</ele>
<time>2026-07-17T10:33:51.000Z</time>
</trkpt>
<trkpt lat="57.625010" lon="10.323874">
<ele>15.413721</ele>
<time>2026-07-17T10:33:52.000Z</time>
</trkpt>
<trkpt lat="57.625033" lon="10.323989">
<ele>15.445120</ele>
<time>2026-07-17T10:33:53.000Z</time>
</trkpt>
<trkpt lat="57.625052" lon="10.324106">
<ele>15.476391</ele>
<time>2026-07-17T10:33:54.000Z</time>
</trkpt>
<trkpt lat="57.625071" lon="10.324222">
<ele>15.507418</ele>
<time>2026-07-17T10:33:55.000Z</time>
</trkpt>
<trkpt lat="57.625093" lon="10.324331">
<ele>15.537212</ele>
<time>2026-07-17T10:33:56.000Z</time>
</trkpt>
<trkpt lat="57.625112" lon="10.324453">
<ele>15.569709</ele>
<time>2026-07-17T10:33:57.000Z</time>
</trkpt>
<trkpt lat="57.625132" lon="10.324566">
<ele>15.600149</ele>
<time>2026-07-17T10:33:58.000Z</time>
</trkpt>
<trkpt lat="57.625151" lon="10.324676">
<ele>15.629711</ele>
<time>2026-07-17T10:33:59.000Z</time>
</trkpt>
<trkpt lat="57.625170" lon="10.324784">
<ele>15.655648</ele>
<time>2026-07-17T10:34:00.000Z</time>
</trkpt>
<trkpt lat="57.625188" lon="10.324886">
<ele>15.647153</ele>
<time>2026-07-17T10:34:01.000Z</time>
</trkpt>
<trkpt lat="57.625212" lon="10.325002">
<ele>15.637316</ele>
<time>2026-07-17T10:34:02.000Z</time>
</trkpt>
<trkpt lat="57.625235" lon="10.325118">
<ele>15.627531</ele>
<time>2026-07-17T10:34:03.000Z</time>
</trkpt>
<trkpt lat="57.625254" lon="10.325231">
<ele>15.618163</ele>
<time>2026-07-17T10:34:04.000Z</time>
</trkpt>
<trkpt lat="57.625268" lon="10.325334">
<ele>15.609757</ele>
<time>2026-07-17T10:34:05.000Z</time>
</trkpt>
<trkpt lat="57.625291" lon="10.325435">
<ele>15.601075</ele>
<time>2026-07-17T10:34:06.000Z</time>
</trkpt>
<trkpt lat="57.625311" lon="10.325524">
<ele>15.593440</ele>
<time>2026-07-17T10:34:07.000Z</time>
</trkpt>
<trkpt lat="57.625334" lon="10.325643">
<ele>15.583433</ele>
<time>2026-07-17T10:34:08.000Z</time>
</trkpt>
<trkpt lat="57.625353" lon="10.325742">
<ele>15.575114</ele>
<time>2026-07-17T10:34:09.000Z</time>
</trkpt>
<trkpt lat="57.625372" lon="10.325843">
<ele>15.566646</ele>
<time>2026-07-17T10:34:10.000Z</time>
</trkpt>
<trkpt lat="57.625395" lon="10.325949">
<ele>15.557599</ele>
<time>2026-07-17T10:34:11.000Z</time>
</trkpt>
<trkpt lat="57.625417" lon="10.326053">
<ele>15.548754</ele>
<time>2026-07-17T10:34:12.000Z</time>
</trkpt>
<trkpt lat="57.625446" lon="10.326169">
<ele>15.538628</ele>
<time>2026-07-17T10:34:13.000Z</time>
</trkpt>
<trkpt lat="57.625471" lon="10.326287">
<ele>15.528590</ele>
<time>2026-07-17T10:34:14.000Z</time>
</trkpt>
<trkpt lat="57.625491" lon="10.326404">
<ele>15.518875</ele>
<time>2026-07-17T10:34:15.000Z</time>
</trkpt>
<trkpt lat="57.625513" lon="10.326516">
<ele>15.509438</ele>
<time>2026-07-17T10:34:16.000Z</time>
</trkpt>
<trkpt lat="57.625531" lon="10.326619">
<ele>15.500868</ele>
<time>2026-07-17T10:34:17.000Z</time>
</trkpt>
<trkpt lat="57.625551" lon="10.326736">
<ele>15.491153</ele>
<time>2026-07-17T10:34:18.000Z</time>
</trkpt>
<trkpt lat="57.625571" lon="10.326856">
<ele>15.481212</ele>
<time>2026-07-17T10:34:19.000Z</time>
</trkpt>
<trkpt lat="57.625592" lon="10.326963">
<ele>15.472198</ele>
<time>2026-07-17T10:34:20.000Z</time>
</trkpt>
<trkpt lat="57.625616" lon="10.327093">
<ele>15.461321</ele>
<time>2026-07-17T10:34:21.000Z</time>
</trkpt>
<trkpt lat="57.625636" lon="10.327211">
<ele>15.451530</ele>
<time>2026-07-17T10:34:22.000Z</time>
</trkpt>
<trkpt lat="57.625658" lon="10.327323">
<ele>15.442094</ele>
<time>2026-07-17T10:34:23.000Z</time>
</trkpt>
<trkpt lat="57.625673" lon="10.327436">
<ele>15.432885</ele>
<time>2026-07-17T10:34:24.000Z</time>
</trkpt>
<trkpt lat="57.625689" lon="10.327548">
<ele>15.423716</ele>
<time>2026-07-17T10:34:25.000Z</time>
</trkpt>
<trkpt lat="57.625707" lon="10.327664">
<ele>15.414163</ele>
<time>2026-07-17T10:34:26.000Z</time>
</trkpt>
<trkpt lat="57.625720" lon="10.327762">
<ele>15.406177</ele>
<time>2026-07-17T10:34:27.000Z</time>
</trkpt>
<trkpt lat="57.625738" lon="10.327897">
<ele>15.395172</ele>
<time>2026-07-17T10:34:28.000Z</time>
</trkpt>
<trkpt lat="57.625748" lon="10.328006">
<ele>15.374829</ele>
<time>2026-07-17T10:34:29.000Z</time>
</trkpt>
<trkpt lat="57.625756" lon="10.328121">
<ele>15.340675</ele>
<time>2026-07-17T10:34:30.000Z</time>
</trkpt>
<trkpt lat="57.625764" lon="10.328228">
<ele>15.308856</ele>
<time>2026-07-17T10:34:31.000Z</time>
</trkpt>
<trkpt lat="57.625771" lon="10.328341">
<ele>15.275353</ele>
<time>2026-07-17T10:34:32.000Z</time>
</trkpt>
<trkpt lat="57.625775" lon="10.328454">
<ele>15.242000</ele>
<time>2026-07-17T10:34:33.000Z</time>
</trkpt>
<trkpt lat="57.625778" lon="10.328569">
<ele>15.208090</ele>
<time>2026-07-17T10:34:34.000Z</time>
</trkpt>
<trkpt lat="57.625778" lon="10.328693">
<ele>15.171570</ele>
<time>2026-07-17T10:34:35.000Z</time>
</trkpt>
<trkpt lat="57.625778" lon="10.328817">
<ele>15.135050</ele>
<time>2026-07-17T10:34:36.000Z</time>
</trkpt>
<trkpt lat="57.625778" lon="10.328942">
<ele>15.098235</ele>
<time>2026-07-17T10:34:37.000Z</time>
</trkpt>
<trkpt lat="57.625778" lon="10.329065">
<ele>15.062010</ele>
<time>2026-07-17T10:34:38.000Z</time>
</trkpt>
<trkpt lat="57.625778" lon="10.329191">
<ele>15.024900</ele>
<time>2026-07-17T10:34:39.000Z</time>
</trkpt>
<trkpt lat="57.625774" lon="10.329310">
<ele>14.989784</ele>
<time>2026-07-17T10:34:40.000Z</time>
</trkpt>
<trkpt lat="57.625766" lon="10.329427">
<ele>14.955045</ele>
<time>2026-07-17T10:34:41.000Z</time>
</trkpt>
<trkpt lat="57.625762" lon="10.329540">
<ele>14.921692</ele>
<time>2026-07-17T10:34:42.000Z</time>
</trkpt>
<trkpt lat="57.625755" lon="10.329654">
<ele>14.887897</ele>
<time>2026-07-17T10:34:43.000Z</time>
</trkpt>
<trkpt lat="57.625751" lon="10.329779">
<ele>14.851017</ele>
<time>2026-07-17T10:34:44.000Z</time>
</trkpt>
<trkpt lat="57.625743" lon="10.329906">
<ele>14.813355</ele>
<time>2026-07-17T10:34:45.000Z</time>
</trkpt>
<trkpt lat="57.625735" lon="10.330032">
<ele>14.775986</ele>
<time>2026-07-17T10:34:46.000Z</time>
</trkpt>
<trkpt lat="57.625724" lon="10.330158">
<ele>14.738386</ele>
<time>2026-07-17T10:34:47.000Z</time>
</trkpt>
<trkpt lat="57.625717" lon="10.330277">
<ele>14.703128</ele>
<time>2026-07-17T10:34:48.000Z</time>
</trkpt>
<trkpt lat="57.625708" lon="10.330406">
<ele>14.664814</ele>
<time>2026-07-17T10:34:49.000Z</time>
</trkpt>
<trkpt lat="57.625697" lon="10.330534">
<ele>14.626633</ele>
<time>2026-07-17T10:34:50.000Z</time>
</trkpt>
<trkpt lat="57.625685" lon="10.330663">
<ele>14.588071</ele>
<time>2026-07-17T10:34:51.000Z</time>
</trkpt>
<trkpt lat="57.625674" lon="10.330790">
<ele>14.550181</ele>
<time>2026-07-17T10:34:52.000Z</time>
</trkpt>
<trkpt lat="57.625666" lon="10.330909">
<ele>14.514858</ele>
<time>2026-07-17T10:34:53.000Z</time>
</trkpt>
<trkpt lat="57.625655" lon="10.331018">
<ele>14.482190</ele>
<time>2026-07-17T10:34:54.000Z</time>
</trkpt>
<trkpt lat="57.625644" lon="10.331138">
<ele>14.446334</ele>
<time>2026-07-17T10:34:55.000Z</time>
</trkpt>
<trkpt lat="57.625637" lon="10.331250">
<ele>14.413124</ele>
<time>2026-07-17T10:34:56.000Z</time>
</trkpt>
<trkpt lat="57.625629" lon="10.331378">
<ele>14.369299</ele>
<time>2026-07-17T10:34:57.000Z</time>
</trkpt>
<trkpt lat="57.625621" lon="10.331499">
<ele>14.325340</ele>
<time>2026-07-17T10:34:58.000Z</time>
</trkpt>
<trkpt lat="57.625605" lon="10.331619">
<ele>14.280753</ele>
<time>2026-07-17T10:34:59.000Z</time>
</trkpt>
<trkpt lat="57.625594" lon="10.331724">
<ele>14.242177</ele>
<time>2026-07-17T10:35:00.000Z</time>
</trkpt>
<trkpt lat="57.625583" lon="10.331831">
<ele>14.202893</ele>
<time>2026-07-17T10:35:01.000Z</time>
</trkpt>
<trkpt lat="57.625575" lon="10.331944">
<ele>14.161796</ele>
<time>2026-07-17T10:35:02.000Z</time>
</trkpt>
<trkpt lat="57.625567" lon="10.332053">
<ele>14.122128</ele>
<time>2026-07-17T10:35:03.000Z</time>
</trkpt>
<trkpt lat="57.625557" lon="10.332152">
<ele>14.085804</ele>
<time>2026-07-17T10:35:04.000Z</time>
</trkpt>
<trkpt lat="57.625548" lon="10.332273">
<ele>14.041758</ele>
<time>2026-07-17T10:35:05.000Z</time>
</trkpt>
<trkpt lat="57.625537" lon="10.332390">
<ele>13.998927</ele>
<time>2026-07-17T10:35:06.000Z</time>
</trkpt>
<trkpt lat="57.625530" lon="10.332518">
<ele>13.952536</ele>
<time>2026-07-17T10:35:07.000Z</time>
</trkpt>
<trkpt lat="57.625526" lon="10.332641">
<ele>13.908107</ele>
<time>2026-07-17T10:35:08.000Z</time>
</trkpt>
<trkpt lat="57.625518" lon="10.332769">
<ele>13.861642</ele>
<time>2026-07-17T10:35:09.000Z</time>
</trkpt>
<trkpt lat="57.625514" lon="10.332897">
<ele>13.815413</ele>
<time>2026-07-17T10:35:10.000Z</time>
</trkpt>
<trkpt lat="57.625502" lon="10.333021">
<ele>13.769980</ele>
<time>2026-07-17T10:35:11.000Z</time>
</trkpt>
<trkpt lat="57.625488" lon="10.333148">
<ele>13.723229</ele>
<time>2026-07-17T10:35:12.000Z</time>
</trkpt>
<trkpt lat="57.625475" lon="10.333280">
<ele>13.674838</ele>
<time>2026-07-17T10:35:13.000Z</time>
</trkpt>
<trkpt lat="57.625460" lon="10.333411">
<ele>13.626537</ele>
<time>2026-07-17T10:35:14.000Z</time>
</trkpt>
<trkpt lat="57.625449" lon="10.333534">
<ele>13.581574</ele>
<time>2026-07-17T10:35:15.000Z</time>
</trkpt>
<trkpt lat="57.625442" lon="10.333653">
<ele>13.538410</ele>
<time>2026-07-17T10:35:16.000Z</time>
</trkpt>
<trkpt lat="57.625434" lon="10.333775">
<ele>13.494094</ele>
<time>2026-07-17T10:35:17.000Z</time>
</trkpt>
<trkpt lat="57.625422" lon="10.333911">
<ele>13.444397</ele>
<time>2026-07-17T10:35:18.000Z</time>
</trkpt>
<trkpt lat="57.625412" lon="10.334034">
<ele>13.399541</ele>
<time>2026-07-17T10:35:19.000Z</time>
</trkpt>
<trkpt lat="57.625407" lon="10.334160">
<ele>13.353986</ele>
<time>2026-07-17T10:35:20.000Z</time>
</trkpt>
<trkpt lat="57.625397" lon="10.334269">
<ele>13.314113</ele>
<time>2026-07-17T10:35:21.000Z</time>
</trkpt>
<trkpt lat="57.625384" lon="10.334411">
<ele>13.262171</ele>
<time>2026-07-17T10:35:22.000Z</time>
</trkpt>
<trkpt lat="57.625369" lon="10.334534">
<ele>13.216687</ele>
<time>2026-07-17T10:35:23.000Z</time>
</trkpt>
<trkpt lat="57.625357" lon="10.334661">
<ele>13.182389</ele>
<time>2026-07-17T10:35:24.000Z</time>
</trkpt>
<trkpt lat="57.625346" lon="10.334792">
<ele>13.163711</ele>
<time>2026-07-17T10:35:25.000Z</time>
</trkpt>
<trkpt lat="57.625335" lon="10.334919">
<ele>13.145590</ele>
<time>2026-07-17T10:35:26.000Z</time>
</trkpt>
<trkpt lat="57.625323" lon="10.335043">
<ele>13.127841</ele>
<time>2026-07-17T10:35:27.000Z</time>
</trkpt>
<trkpt lat="57.625312" lon="10.335179">
<ele>13.108467</ele>
<time>2026-07-17T10:35:28.000Z</time>
</trkpt>
<trkpt lat="57.625304" lon="10.335300">
<ele>13.091294</ele>
<time>2026-07-17T10:35:29.000Z</time>
</trkpt>
<trkpt lat="57.625289" lon="10.335415">
<ele>13.074622</ele>
<time>2026-07-17T10:35:30.000Z</time>
</trkpt>
<trkpt lat="57.625278" lon="10.335535">
<ele>13.057473</ele>
<time>2026-07-17T10:35:31.000Z</time>
</trkpt>
<trkpt lat="57.625265" lon="10.335666">
<ele>13.038707</ele>
<time>2026-07-17T10:35:32.000Z</time>
</trkpt>
<trkpt lat="57.625251" lon="10.335783">
<ele>13.021820</ele>
<time>2026-07-17T10:35:33.000Z</time>
</trkpt>
<trkpt lat="57.625239" lon="10.335914">
<ele>13.003100</ele>
<time>2026-07-17T10:35:34.000Z</time>
</trkpt>
<trkpt lat="57.625228" lon="10.336041">
<ele>12.984978</ele>
<time>2026-07-17T10:35:35.000Z</time>
</trkpt>
<trkpt lat="57.625216" lon="10.336169">
<ele>12.966675</ele>
<time>2026-07-17T10:35:36.000Z</time>
</trkpt>
<trkpt lat="57.625205" lon="10.336291">
<ele>12.949248</ele>
<time>2026-07-17T10:35:37.000Z</time>
</trkpt>
<trkpt lat="57.625197" lon="10.336412">
<ele>12.932075</ele>
<time>2026-07-17T10:35:38.000Z</time>
</trkpt>
<trkpt lat="57.625186" lon="10.336535">
<ele>12.914510</ele>
<time>2026-07-17T10:35:39.000Z</time>
</trkpt>
<trkpt lat="57.625175" lon="10.336655">
<ele>12.897361</ele>
<time>2026-07-17T10:35:40.000Z</time>
</trkpt>
<trkpt lat="57.625167" lon="10.336775">
<ele>12.880328</ele>
<time>2026-07-17T10:35:41.000Z</time>
</trkpt>
<trkpt lat="57.625155" lon="10.336900">
<ele>12.862440</ele>
<time>2026-07-17T10:35:42.000Z</time>
</trkpt>
<trkpt lat="57.625144" lon="10.337017">
<ele>12.845708</ele>
<time>2026-07-17T10:35:43.000Z</time>
</trkpt>
<trkpt lat="57.625136" lon="10.337139">
<ele>12.828395</ele>
<time>2026-07-17T10:35:44.000Z</time>
</trkpt>
<trkpt lat="57.625125" lon="10.337257">
<ele>12.811524</ele>
<time>2026-07-17T10:35:45.000Z</time>
</trkpt>
<trkpt lat="57.625114" lon="10.337372">
<ele>12.795069</ele>
<time>2026-07-17T10:35:46.000Z</time>
</trkpt>
<trkpt lat="57.625102" lon="10.337497">
<ele>12.777181</ele>
<time>2026-07-17T10:35:47.000Z</time>
</trkpt>
<trkpt lat="57.625095" lon="10.337607">
<ele>12.761577</ele>
<time>2026-07-17T10:35:48.000Z</time>
</trkpt>
<trkpt lat="57.625083" lon="10.337721">
<ele>12.745212</ele>
<time>2026-07-17T10:35:49.000Z</time>
</trkpt>
<trkpt lat="57.625072" lon="10.337834">
<ele>12.729035</ele>
<time>2026-07-17T10:35:50.000Z</time>
</trkpt>
<trkpt lat="57.625064" lon="10.337943">
<ele>12.716923</ele>
<time>2026-07-17T10:35:51.000Z</time>
</trkpt>
<trkpt lat="57.625053" lon="10.338067">
<ele>12.716234</ele>
<time>2026-07-17T10:35:52.000Z</time>
</trkpt>
<trkpt lat="57.625045" lon="10.338179">
<ele>12.715614</ele>
<time>2026-07-17T10:35:53.000Z</time>
</trkpt>
<trkpt lat="57.625034" lon="10.338294">
<ele>12.714973</ele>
<time>2026-07-17T10:35:54.000Z</time>
</trkpt>
<trkpt lat="57.625026" lon="10.338400">
<ele>12.714385</ele>
<time>2026-07-17T10:35:55.000Z</time>
</trkpt>
<trkpt lat="57.625016" lon="10.338506">
<ele>12.713795</ele>
<time>2026-07-17T10:35:56.000Z</time>
</trkpt>
<trkpt lat="57.625006" lon="10.338602">
<ele>12.713258</ele>
<time>2026-07-17T10:35:57.000Z</time>
</trkpt>
<trkpt lat="57.624995" lon="10.338751">
<ele>12.712433</ele>
<time>2026-07-17T10:35:58.000Z</time>
</trkpt>
<trkpt lat="57.624987" lon="10.338862">
<ele>12.711818</ele>
<time>2026-07-17T10:35:59.000Z</time>
</trkpt>
<trkpt lat="57.624976" lon="10.338974">
<ele>12.711194</ele>
<time>2026-07-17T10:36:00.000Z</time>
</trkpt>
<trkpt lat="57.624969" lon="10.339084">
<ele>12.710586</ele>
<time>2026-07-17T10:36:01.000Z</time>
</trkpt>
<trkpt lat="57.624961" lon="10.339193">
<ele>12.709982</ele>
<time>2026-07-17T10:36:02.000Z</time>
</trkpt>
<trkpt lat="57.624950" lon="10.339299">
<ele>12.709390</ele>
<time>2026-07-17T10:36:03.000Z</time>
</trkpt>
<trkpt lat="57.624942" lon="10.339406">
<ele>12.708797</ele>
<time>2026-07-17T10:36:04.000Z</time>
</trkpt>
<trkpt lat="57.624934" lon="10.339513">
<ele>12.708204</ele>
<time>2026-07-17T10:36:05.000Z</time>
</trkpt>
<trkpt lat="57.624923" lon="10.339620">
<ele>12.707606</ele>
<time>2026-07-17T10:36:06.000Z</time>
</trkpt>
<trkpt lat="57.624915" lon="10.339725">
<ele>12.707024</ele>
<time>2026-07-17T10:36:07.000Z</time>
</trkpt>
<trkpt lat="57.624908" lon="10.339833">
<ele>12.706428</ele>
<time>2026-07-17T10:36:08.000Z</time>
</trkpt>
<trkpt lat="57.624900" lon="10.339939">
<ele>12.705840</ele>
<time>2026-07-17T10:36:09.000Z</time>
</trkpt>
<trkpt lat="57.624892" lon="10.340044">
<ele>12.705258</ele>
<time>2026-07-17T10:36:10.000Z</time>
</trkpt>
<trkpt lat="57.624881" lon="10.340152">
<ele>12.704655</ele>
<time>2026-07-17T10:36:11.000Z</time>
</trkpt>
<trkpt lat="57.624873" lon="10.340258">
<ele>12.704068</ele>
<time>2026-07-17T10:36:12.000Z</time>
</trkpt>
<trkpt lat="57.624865" lon="10.340367">
<ele>12.703464</ele>
<time>2026-07-17T10:36:13.000Z</time>
</trkpt>
<trkpt lat="57.624854" lon="10.340477">
<ele>12.702850</ele>
<time>2026-07-17T10:36:14.000Z</time>
</trkpt>
<trkpt lat="57.624847" lon="10.340586">
<ele>12.702248</ele>
<time>2026-07-17T10:36:15.000Z</time>
</trkpt>
<trkpt lat="57.624838" lon="10.340696">
<ele>12.701637</ele>
<time>2026-07-17T10:36:16.000Z</time>
</trkpt>
<trkpt lat="57.624827" lon="10.340808">
<ele>12.701012</ele>
<time>2026-07-17T10:36:17.000Z</time>
</trkpt>
<trkpt lat="57.624816" lon="10.340920">
<ele>12.700388</ele>
<time>2026-07-17T10:36:18.000Z</time>
</trkpt>
<trkpt lat="57.624808" lon="10.341032">
<ele>12.699768</ele>
<time>2026-07-17T10:36:19.000Z</time>
</trkpt>
<trkpt lat="57.624796" lon="10.341144">
<ele>12.699141</ele>
<time>2026-07-17T10:36:20.000Z</time>
</trkpt>
<trkpt lat="57.624785" lon="10.341256">
<ele>12.701292</ele>
<time>2026-07-17T10:36:21.000Z</time>
</trkpt>
<trkpt lat="57.624774" lon="10.341373">
<ele>12.716544</ele>
<time>2026-07-17T10:36:22.000Z</time>
</trkpt>
<trkpt lat="57.624766" lon="10.341488">
<ele>12.731433</ele>
<time>2026-07-17T10:36:23.000Z</time>
</trkpt>
<trkpt lat="57.624755" lon="10.341605">
<ele>12.746684</ele>
<time>2026-07-17T10:36:24.000Z</time>
</trkpt>
<trkpt lat="57.624744" lon="10.341718">
<ele>12.761430</ele>
<time>2026-07-17T10:36:25.000Z</time>
</trkpt>
<trkpt lat="57.624735" lon="10.341835">
<ele>12.776607</ele>
<time>2026-07-17T10:36:26.000Z</time>
</trkpt>
<trkpt lat="57.624724" lon="10.341948">
<ele>12.791353</ele>
<time>2026-07-17T10:36:27.000Z</time>
</trkpt>
<trkpt lat="57.624713" lon="10.342058">
<ele>12.805720</ele>
<time>2026-07-17T10:36:28.000Z</time>
</trkpt>
<trkpt lat="57.624705" lon="10.342171">
<ele>12.820355</ele>
<time>2026-07-17T10:36:29.000Z</time>
</trkpt>
<trkpt lat="57.624694" lon="10.342281">
<ele>12.834722</ele>
<time>2026-07-17T10:36:30.000Z</time>
</trkpt>
<trkpt lat="57.624686" lon="10.342391">
<ele>12.848975</ele>
<time>2026-07-17T10:36:31.000Z</time>
</trkpt>
<trkpt lat="57.624675" lon="10.342503">
<ele>12.863595</ele>
<time>2026-07-17T10:36:32.000Z</time>
</trkpt>
<trkpt lat="57.624667" lon="10.342615">
<ele>12.878102</ele>
<time>2026-07-17T10:36:33.000Z</time>
</trkpt>
<trkpt lat="57.624656" lon="10.342729">
<ele>12.892974</ele>
<time>2026-07-17T10:36:34.000Z</time>
</trkpt>
<trkpt lat="57.624648" lon="10.342839">
<ele>12.907227</ele>
<time>2026-07-17T10:36:35.000Z</time>
</trkpt>
<trkpt lat="57.624640" lon="10.342954">
<ele>12.922116</ele>
<time>2026-07-17T10:36:36.000Z</time>
</trkpt>
<trkpt lat="57.624629" lon="10.343065">
<ele>12.936610</ele>
<time>2026-07-17T10:36:37.000Z</time>
</trkpt>
<trkpt lat="57.624621" lon="10.343186">
<ele>12.952263</ele>
<time>2026-07-17T10:36:38.000Z</time>
</trkpt>
<trkpt lat="57.624614" lon="10.343303">
<ele>12.967379</ele>
<time>2026-07-17T10:36:39.000Z</time>
</trkpt>
<trkpt lat="57.624607" lon="10.343417">
<ele>12.982112</ele>
<time>2026-07-17T10:36:40.000Z</time>
</trkpt>
<trkpt lat="57.624607" lon="10.343529">
<ele>12.996492</ele>
<time>2026-07-17T10:36:41.000Z</time>
</trkpt>
<trkpt lat="57.624607" lon="10.343642">
<ele>13.011000</ele>
<time>2026-07-17T10:36:42.000Z</time>
</trkpt>
<trkpt lat="57.624612" lon="10.343754">
<ele>13.025430</ele>
<time>2026-07-17T10:36:43.000Z</time>
</trkpt>
<trkpt lat="57.624619" lon="10.343866">
<ele>13.039907</ele>
<time>2026-07-17T10:36:44.000Z</time>
</trkpt>
<trkpt lat="57.624627" lon="10.343976">
<ele>13.054160</ele>
<time>2026-07-17T10:36:45.000Z</time>
</trkpt>
<trkpt lat="57.624635" lon="10.344087">
<ele>13.068540</ele>
<time>2026-07-17T10:36:46.000Z</time>
</trkpt>
<trkpt lat="57.624646" lon="10.344195">
<ele>13.082655</ele>
<time>2026-07-17T10:36:47.000Z</time>
</trkpt>
<trkpt lat="57.624658" lon="10.344313">
<ele>13.098076</ele>
<time>2026-07-17T10:36:48.000Z</time>
</trkpt>
<trkpt lat="57.624666" lon="10.344420">
<ele>13.111948</ele>
<time>2026-07-17T10:36:49.000Z</time>
</trkpt>
<trkpt lat="57.624678" lon="10.344527">
<ele>13.125984</ele>
<time>2026-07-17T10:36:50.000Z</time>
</trkpt>
<trkpt lat="57.624692" lon="10.344635">
<ele>13.158591</ele>
<time>2026-07-17T10:36:51.000Z</time>
</trkpt>
<trkpt lat="57.624704" lon="10.344741">
<ele>13.197161</ele>
<time>2026-07-17T10:36:52.000Z</time>
</trkpt>
<trkpt lat="57.624716" lon="10.344848">
<ele>13.236080</ele>
<time>2026-07-17T10:36:53.000Z</time>
</trkpt>
<trkpt lat="57.624731" lon="10.344955">
<ele>13.275457</ele>
<time>2026-07-17T10:36:54.000Z</time>
</trkpt>
<trkpt lat="57.624746" lon="10.345062">
<ele>13.314833</ele>
<time>2026-07-17T10:36:55.000Z</time>
</trkpt>
<trkpt lat="57.624761" lon="10.345172">
<ele>13.355243</ele>
<time>2026-07-17T10:36:56.000Z</time>
</trkpt>
<trkpt lat="57.624777" lon="10.345278">
<ele>13.394450</ele>
<time>2026-07-17T10:36:57.000Z</time>
</trkpt>
<trkpt lat="57.624792" lon="10.345387">
<ele>13.434515</ele>
<time>2026-07-17T10:36:58.000Z</time>
</trkpt>
<trkpt lat="57.624811" lon="10.345490">
<ele>13.473299</ele>
<time>2026-07-17T10:36:59.000Z</time>
</trkpt>
<trkpt lat="57.624826" lon="10.345592">
<ele>13.510956</ele>
<time>2026-07-17T10:37:00.000Z</time>
</trkpt>
<trkpt lat="57.624842" lon="10.345693">
<ele>13.548452</ele>
<time>2026-07-17T10:37:01.000Z</time>
</trkpt>
<trkpt lat="57.624861" lon="10.345795">
<ele>13.586899</ele>
<time>2026-07-17T10:37:02.000Z</time>
</trkpt>
<trkpt lat="57.624876" lon="10.345897">
<ele>13.624556</ele>
<time>2026-07-17T10:37:03.000Z</time>
</trkpt>
<trkpt lat="57.624895" lon="10.345998">
<ele>13.662667</ele>
<time>2026-07-17T10:37:04.000Z</time>
</trkpt>
<trkpt lat="57.624910" lon="10.346100">
<ele>13.700323</ele>
<time>2026-07-17T10:37:05.000Z</time>
</trkpt>
<trkpt lat="57.624922" lon="10.346203">
<ele>13.737850</ele>
<time>2026-07-17T10:37:06.000Z</time>
</trkpt>
<trkpt lat="57.624937" lon="10.346302">
<ele>13.774478</ele>
<time>2026-07-17T10:37:07.000Z</time>
</trkpt>
<trkpt lat="57.624951" lon="10.346398">
<ele>13.809899</ele>
<time>2026-07-17T10:37:08.000Z</time>
</trkpt>
<trkpt lat="57.624968" lon="10.346506">
<ele>13.849974</ele>
<time>2026-07-17T10:37:09.000Z</time>
</trkpt>
<trkpt lat="57.624987" lon="10.346604">
<ele>13.887078</ele>
<time>2026-07-17T10:37:10.000Z</time>
</trkpt>
<trkpt lat="57.625001" lon="10.346703">
<ele>13.923531</ele>
<time>2026-07-17T10:37:11.000Z</time>
</trkpt>
<trkpt lat="57.625014" lon="10.346801">
<ele>13.959474</ele>
<time>2026-07-17T10:37:12.000Z</time>
</trkpt>
<trkpt lat="57.625032" lon="10.346898">
<ele>13.996021</ele>
<time>2026-07-17T10:37:13.000Z</time>
</trkpt>
<trkpt lat="57.625048" lon="10.346994">
<ele>14.031814</ele>
<time>2026-07-17T10:37:14.000Z</time>
</trkpt>
<trkpt lat="57.625063" lon="10.347093">
<ele>14.068442</ele>
<time>2026-07-17T10:37:15.000Z</time>
</trkpt>
<trkpt lat="57.625078" lon="10.347191">
<ele>14.104727</ele>
<time>2026-07-17T10:37:16.000Z</time>
</trkpt>
<trkpt lat="57.625093" lon="10.347287">
<ele>14.140329</ele>
<time>2026-07-17T10:37:17.000Z</time>
</trkpt>
<trkpt lat="57.625108" lon="10.347384">
<ele>14.176272</ele>
<time>2026-07-17T10:37:18.000Z</time>
</trkpt>
<trkpt lat="57.625124" lon="10.347481">
<ele>14.212405</ele>
<time>2026-07-17T10:37:19.000Z</time>
</trkpt>
<trkpt lat="57.625143" lon="10.347575">
<ele>14.248174</ele>
<time>2026-07-17T10:37:20.000Z</time>
</trkpt>
<trkpt lat="57.625162" lon="10.347667">
<ele>14.283278</ele>
<time>2026-07-17T10:37:21.000Z</time>
</trkpt>
<trkpt lat="57.625182" lon="10.347760">
<ele>14.318956</ele>
<time>2026-07-17T10:37:22.000Z</time>
</trkpt>
<trkpt lat="57.625201" lon="10.347852">
<ele>14.308901</ele>
<time>2026-07-17T10:37:23.000Z</time>
</trkpt>
<trkpt lat="57.625224" lon="10.347946">
<ele>14.287027</ele>
<time>2026-07-17T10:37:24.000Z</time>
</trkpt>
<trkpt lat="57.625246" lon="10.348040">
<ele>14.265314</ele>
<time>2026-07-17T10:37:25.000Z</time>
</trkpt>
<trkpt lat="57.625266" lon="10.348136">
<ele>14.243511</ele>
<time>2026-07-17T10:37:26.000Z</time>
</trkpt>
<trkpt lat="57.625288" lon="10.348230">
<ele>14.221799</ele>
<time>2026-07-17T10:37:27.000Z</time>
</trkpt>
<trkpt lat="57.625307" lon="10.348331">
<ele>14.199141</ele>
<time>2026-07-17T10:37:28.000Z</time>
</trkpt>
<trkpt lat="57.625323" lon="10.348429">
<ele>14.177456</ele>
<time>2026-07-17T10:37:29.000Z</time>
</trkpt>
<trkpt lat="57.625341" lon="10.348528">
<ele>14.155327</ele>
<time>2026-07-17T10:37:30.000Z</time>
</trkpt>
<trkpt lat="57.625356" lon="10.348628">
<ele>14.133347</ele>
<time>2026-07-17T10:37:31.000Z</time>
</trkpt>
<trkpt lat="57.625372" lon="10.348729">
<ele>14.111054</ele>
<time>2026-07-17T10:37:32.000Z</time>
</trkpt>
<trkpt lat="57.625387" lon="10.348830">
<ele>14.088870</ele>
<time>2026-07-17T10:37:33.000Z</time>
</trkpt>
<trkpt lat="57.625401" lon="10.348934">
<ele>14.066173</ele>
<time>2026-07-17T10:37:34.000Z</time>
</trkpt>
<trkpt lat="57.625409" lon="10.349039">
<ele>14.043726</ele>
<time>2026-07-17T10:37:35.000Z</time>
</trkpt>
<trkpt lat="57.625420" lon="10.349144">
<ele>14.021081</ele>
<time>2026-07-17T10:37:36.000Z</time>
</trkpt>
<trkpt lat="57.625428" lon="10.349250">
<ele>13.998424</ele>
<time>2026-07-17T10:37:37.000Z</time>
</trkpt>
<trkpt lat="57.625436" lon="10.349356">
<ele>13.975767</ele>
<time>2026-07-17T10:37:38.000Z</time>
</trkpt>
<trkpt lat="57.625443" lon="10.349462">
<ele>13.953162</ele>
<time>2026-07-17T10:37:39.000Z</time>
</trkpt>
<trkpt lat="57.625451" lon="10.349564">
<ele>13.931343</ele>
<time>2026-07-17T10:37:40.000Z</time>
</trkpt>
<trkpt lat="57.625458" lon="10.349670">
<ele>13.908738</ele>
<time>2026-07-17T10:37:41.000Z</time>
</trkpt>
<trkpt lat="57.625463" lon="10.349776">
<ele>13.886216</ele>
<time>2026-07-17T10:37:42.000Z</time>
</trkpt>
<trkpt lat="57.625473" lon="10.349881">
<ele>13.863643</ele>
<time>2026-07-17T10:37:43.000Z</time>
</trkpt>
<trkpt lat="57.625478" lon="10.349992">
<ele>13.840067</ele>
<time>2026-07-17T10:37:44.000Z</time>
</trkpt>
<trkpt lat="57.625489" lon="10.350098">
<ele>13.817214</ele>
<time>2026-07-17T10:37:45.000Z</time>
</trkpt>
<trkpt lat="57.625497" lon="10.350208">
<ele>13.793719</ele>
<time>2026-07-17T10:37:46.000Z</time>
</trkpt>
<trkpt lat="57.625505" lon="10.350317">
<ele>13.770433</ele>
<time>2026-07-17T10:37:47.000Z</time>
</trkpt>
<trkpt lat="57.625516" lon="10.350428">
<ele>13.746540</ele>
<time>2026-07-17T10:37:48.000Z</time>
</trkpt>
<trkpt lat="57.625524" lon="10.350540">
<ele>13.722625</ele>
<time>2026-07-17T10:37:49.000Z</time>
</trkpt>
<trkpt lat="57.625532" lon="10.350652">
<ele>13.698710</ele>
<time>2026-07-17T10:37:50.000Z</time>
</trkpt>
<trkpt lat="57.625543" lon="10.350763">
<ele>13.674818</ele>
<time>2026-07-17T10:37:51.000Z</time>
</trkpt>
<trkpt lat="57.625550" lon="10.350874">
<ele>13.651162</ele>
<time>2026-07-17T10:37:52.000Z</time>
</trkpt>
<trkpt lat="57.625554" lon="10.350986">
<ele>13.627404</ele>
<time>2026-07-17T10:37:53.000Z</time>
</trkpt>
<trkpt lat="57.625558" lon="10.351098">
<ele>13.591282</ele>
<time>2026-07-17T10:37:54.000Z</time>
</trkpt>
<trkpt lat="57.625565" lon="10.351210">
<ele>13.540894</ele>
<time>2026-07-17T10:37:55.000Z</time>
</trkpt>
<trkpt lat="57.625573" lon="10.351321">
<ele>13.490846</ele>
<time>2026-07-17T10:37:56.000Z</time>
</trkpt>
<trkpt lat="57.625577" lon="10.351438">
<ele>13.438457</ele>
<time>2026-07-17T10:37:57.000Z</time>
</trkpt>
<trkpt lat="57.625580" lon="10.351558">
<ele>13.384776</ele>
<time>2026-07-17T10:37:58.000Z</time>
</trkpt>
<trkpt lat="57.625584" lon="10.351679">
<ele>13.330603</ele>
<time>2026-07-17T10:37:59.000Z</time>
</trkpt>
<trkpt lat="57.625584" lon="10.351802">
<ele>13.275640</ele>
<time>2026-07-17T10:38:00.000Z</time>
</trkpt>
<trkpt lat="57.625583" lon="10.351927">
<ele>13.219776</ele>
<time>2026-07-17T10:38:01.000Z</time>
</trkpt>
<trkpt lat="57.625580" lon="10.352053">
<ele>13.163417</ele>
<time>2026-07-17T10:38:02.000Z</time>
</trkpt>
<trkpt lat="57.625580" lon="10.352178">
<ele>13.107560</ele>
<time>2026-07-17T10:38:03.000Z</time>
</trkpt>
<trkpt lat="57.625579" lon="10.352307">
<ele>13.049909</ele>
<time>2026-07-17T10:38:04.000Z</time>
</trkpt>
<trkpt lat="57.625576" lon="10.352434">
<ele>12.993103</ele>
<time>2026-07-17T10:38:05.000Z</time>
</trkpt>
<trkpt lat="57.625572" lon="10.352561">
<ele>12.936254</ele>
<time>2026-07-17T10:38:06.000Z</time>
</trkpt>
<trkpt lat="57.625564" lon="10.352697">
<ele>12.875116</ele>
<time>2026-07-17T10:38:07.000Z</time>
</trkpt>
<trkpt lat="57.625556" lon="10.352827">
<ele>12.816642</ele>
<time>2026-07-17T10:38:08.000Z</time>
</trkpt>
<trkpt lat="57.625549" lon="10.352955">
<ele>12.759147</ele>
<time>2026-07-17T10:38:09.000Z</time>
</trkpt>
<trkpt lat="57.625541" lon="10.353085">
<ele>12.700673</ele>
<time>2026-07-17T10:38:10.000Z</time>
</trkpt>
<trkpt lat="57.625533" lon="10.353213">
<ele>12.643087</ele>
<time>2026-07-17T10:38:11.000Z</time>
</trkpt>
<trkpt lat="57.625526" lon="10.353344">
<ele>12.584257</ele>
<time>2026-07-17T10:38:12.000Z</time>
</trkpt>
<trkpt lat="57.625526" lon="10.353473">
<ele>12.526613</ele>
<time>2026-07-17T10:38:13.000Z</time>
</trkpt>
<trkpt lat="57.625523" lon="10.353603">
<ele>12.468467</ele>
<time>2026-07-17T10:38:14.000Z</time>
</trkpt>
<trkpt lat="57.625522" lon="10.353732">
<ele>12.410817</ele>
<time>2026-07-17T10:38:15.000Z</time>
</trkpt>
<trkpt lat="57.625518" lon="10.353861">
<ele>12.353075</ele>
<time>2026-07-17T10:38:16.000Z</time>
</trkpt>
<trkpt lat="57.625515" lon="10.353991">
<ele>12.294930</ele>
<time>2026-07-17T10:38:17.000Z</time>
</trkpt>
<trkpt lat="57.625515" lon="10.354118">
<ele>12.238179</ele>
<time>2026-07-17T10:38:18.000Z</time>
</trkpt>
<trkpt lat="57.625511" lon="10.354246">
<ele>12.180884</ele>
<time>2026-07-17T10:38:19.000Z</time>
</trkpt>
<trkpt lat="57.625506" lon="10.354372">
<ele>12.124425</ele>
<time>2026-07-17T10:38:20.000Z</time>
</trkpt>
<trkpt lat="57.625498" lon="10.354498">
<ele>12.142468</ele>
<time>2026-07-17T10:38:21.000Z</time>
</trkpt>
<trkpt lat="57.625486" lon="10.354620">
<ele>12.177106</ele>
<time>2026-07-17T10:38:22.000Z</time>
</trkpt>
<trkpt lat="57.625463" lon="10.354742">
<ele>12.213223</ele>
<time>2026-07-17T10:38:23.000Z</time>
</trkpt>
<trkpt lat="57.625444" lon="10.354858">
<ele>12.247097</ele>
<time>2026-07-17T10:38:24.000Z</time>
</trkpt>
<trkpt lat="57.625422" lon="10.354971">
<ele>12.280673</ele>
<time>2026-07-17T10:38:25.000Z</time>
</trkpt>
<trkpt lat="57.625406" lon="10.355087">
<ele>12.314123</ele>
<time>2026-07-17T10:38:26.000Z</time>
</trkpt>
<trkpt lat="57.625392" lon="10.355212">
<ele>12.349784</ele>
<time>2026-07-17T10:38:27.000Z</time>
</trkpt>
<trkpt lat="57.625381" lon="10.355339">
<ele>12.385708</ele>
<time>2026-07-17T10:38:28.000Z</time>
</trkpt>
<trkpt lat="57.625373" lon="10.355468">
<ele>12.421972</ele>
<time>2026-07-17T10:38:29.000Z</time>
</trkpt>
<trkpt lat="57.625365" lon="10.355598">
<ele>12.458512</ele>
<time>2026-07-17T10:38:30.000Z</time>
</trkpt>
<trkpt lat="57.625359" lon="10.355731">
<ele>12.495783</ele>
<time>2026-07-17T10:38:31.000Z</time>
</trkpt>
<trkpt lat="57.625358" lon="10.355868">
<ele>12.534043</ele>
<time>2026-07-17T10:38:32.000Z</time>
</trkpt>
<trkpt lat="57.625355" lon="10.356005">
<ele>12.572332</ele>
<time>2026-07-17T10:38:33.000Z</time>
</trkpt>
<trkpt lat="57.625355" lon="10.356143">
<ele>12.610868</ele>
<time>2026-07-17T10:38:34.000Z</time>
</trkpt>
<trkpt lat="57.625359" lon="10.356281">
<ele>12.649460</ele>
<time>2026-07-17T10:38:35.000Z</time>
</trkpt>
<trkpt lat="57.625362" lon="10.356419">
<ele>12.688027</ele>
<time>2026-07-17T10:38:36.000Z</time>
</trkpt>
<trkpt lat="57.625363" lon="10.356558">
<ele>12.726846</ele>
<time>2026-07-17T10:38:37.000Z</time>
</trkpt>
<trkpt lat="57.625370" lon="10.356693">
<ele>12.764720</ele>
<time>2026-07-17T10:38:38.000Z</time>
</trkpt>
<trkpt lat="57.625374" lon="10.356818">
<ele>12.799688</ele>
<time>2026-07-17T10:38:39.000Z</time>
</trkpt>
<trkpt lat="57.625378" lon="10.356942">
<ele>12.834377</ele>
<time>2026-07-17T10:38:40.000Z</time>
</trkpt>
<trkpt lat="57.625382" lon="10.357071">
<ele>12.870459</ele>
<time>2026-07-17T10:38:41.000Z</time>
</trkpt>
<trkpt lat="57.625386" lon="10.357202">
<ele>12.907100</ele>
<time>2026-07-17T10:38:42.000Z</time>
</trkpt>
<trkpt lat="57.625389" lon="10.357328">
<ele>12.942319</ele>
<time>2026-07-17T10:38:43.000Z</time>
</trkpt>
<trkpt lat="57.625389" lon="10.357456">
<ele>12.978062</ele>
<time>2026-07-17T10:38:44.000Z</time>
</trkpt>
<trkpt lat="57.625390" lon="10.357582">
<ele>13.013251</ele>
<time>2026-07-17T10:38:45.000Z</time>
</trkpt>
<trkpt lat="57.625393" lon="10.357709">
<ele>13.048750</ele>
<time>2026-07-17T10:38:46.000Z</time>
</trkpt>
<trkpt lat="57.625397" lon="10.357837">
<ele>13.042871</ele>
<time>2026-07-17T10:38:47.000Z</time>
</trkpt>
<trkpt lat="57.625396" lon="10.357960">
<ele>13.033595</ele>
<time>2026-07-17T10:38:48.000Z</time>
</trkpt>
<trkpt lat="57.625393" lon="10.358084">
<ele>13.024234</ele>
<time>2026-07-17T10:38:49.000Z</time>
</trkpt>
<trkpt lat="57.625393" lon="10.358208">
<ele>13.014883</ele>
<time>2026-07-17T10:38:50.000Z</time>
</trkpt>
<trkpt lat="57.625393" lon="10.358337">
<ele>13.005154</ele>
<time>2026-07-17T10:38:51.000Z</time>
</trkpt>
<trkpt lat="57.625388" lon="10.358467">
<ele>12.995325</ele>
<time>2026-07-17T10:38:52.000Z</time>
</trkpt>
<trkpt lat="57.625377" lon="10.358603">
<ele>12.984953</ele>
<time>2026-07-17T10:38:53.000Z</time>
</trkpt>
<trkpt lat="57.625368" lon="10.358732">
<ele>12.975142</ele>
<time>2026-07-17T10:38:54.000Z</time>
</trkpt>
<trkpt lat="57.625354" lon="10.358864">
<ele>12.964994</ele>
<time>2026-07-17T10:38:55.000Z</time>
</trkpt>
<trkpt lat="57.625346" lon="10.358987">
<ele>12.955651</ele>
<time>2026-07-17T10:38:56.000Z</time>
</trkpt>
<trkpt lat="57.625335" lon="10.359108">
<ele>12.946395</ele>
<time>2026-07-17T10:38:57.000Z</time>
</trkpt>
<trkpt lat="57.625327" lon="10.359227">
<ele>12.937350</ele>
<time>2026-07-17T10:38:58.000Z</time>
</trkpt>
<trkpt lat="57.625315" lon="10.359352">
<ele>12.927773</ele>
<time>2026-07-17T10:38:59.000Z</time>
</trkpt>
<trkpt lat="57.625304" lon="10.359473">
<ele>12.918518</ele>
<time>2026-07-17T10:39:00.000Z</time>
</trkpt>
<trkpt lat="57.625292" lon="10.359590">
<ele>12.909534</ele>
<time>2026-07-17T10:39:01.000Z</time>
</trkpt>
<trkpt lat="57.625281" lon="10.359706">
<ele>12.900650</ele>
<time>2026-07-17T10:39:02.000Z</time>
</trkpt>
<trkpt lat="57.625265" lon="10.359822">
<ele>12.891617</ele>
<time>2026-07-17T10:39:03.000Z</time>
</trkpt>
<trkpt lat="57.625250" lon="10.359936">
<ele>12.882764</ele>
<time>2026-07-17T10:39:04.000Z</time>
</trkpt>
<trkpt lat="57.625235" lon="10.360047">
<ele>12.874130</ele>
<time>2026-07-17T10:39:05.000Z</time>
</trkpt>
<trkpt lat="57.625216" lon="10.360162">
<ele>12.865054</ele>
<time>2026-07-17T10:39:06.000Z</time>
</trkpt>
<trkpt lat="57.625200" lon="10.360278">
<ele>12.856021</ele>
<time>2026-07-17T10:39:07.000Z</time>
</trkpt>
<trkpt lat="57.625186" lon="10.360392">
<ele>12.847201</ele>
<time>2026-07-17T10:39:08.000Z</time>
</trkpt>
<trkpt lat="57.625174" lon="10.360507">
<ele>12.838365</ele>
<time>2026-07-17T10:39:09.000Z</time>
</trkpt>
<trkpt lat="57.625159" lon="10.360623">
<ele>12.829365</ele>
<time>2026-07-17T10:39:10.000Z</time>
</trkpt>
<trkpt lat="57.625147" lon="10.360736">
<ele>12.820678</ele>
<time>2026-07-17T10:39:11.000Z</time>
</trkpt>
<trkpt lat="57.625132" lon="10.360853">
<ele>12.811605</ele>
<time>2026-07-17T10:39:12.000Z</time>
</trkpt>
<trkpt lat="57.625116" lon="10.360968">
<ele>12.802645</ele>
<time>2026-07-17T10:39:13.000Z</time>
</trkpt>
<trkpt lat="57.625097" lon="10.361084">
<ele>12.800776</ele>
<time>2026-07-17T10:39:14.000Z</time>
</trkpt>
<trkpt lat="57.625083" lon="10.361198">
<ele>12.805010</ele>
<time>2026-07-17T10:39:15.000Z</time>
</trkpt>
<trkpt lat="57.625071" lon="10.361309">
<ele>12.809110</ele>
<time>2026-07-17T10:39:16.000Z</time>
</trkpt>
<trkpt lat="57.625060" lon="10.361423">
<ele>12.813304</ele>
<time>2026-07-17T10:39:17.000Z</time>
</trkpt>
<trkpt lat="57.625049" lon="10.361532">
<ele>12.817320</ele>
<time>2026-07-17T10:39:18.000Z</time>
</trkpt>
<trkpt lat="57.625037" lon="10.361647">
<ele>12.821562</ele>
<time>2026-07-17T10:39:19.000Z</time>
</trkpt>
<trkpt lat="57.625026" lon="10.361759">
<ele>12.825685</ele>
<time>2026-07-17T10:39:20.000Z</time>
</trkpt>
<trkpt lat="57.625018" lon="10.361868">
<ele>12.829668</ele>
<time>2026-07-17T10:39:21.000Z</time>
</trkpt>
<trkpt lat="57.625011" lon="10.361979">
<ele>12.833715</ele>
<time>2026-07-17T10:39:22.000Z</time>
</trkpt>
<trkpt lat="57.625007" lon="10.362086">
<ele>12.837598</ele>
<time>2026-07-17T10:39:23.000Z</time>
</trkpt>
<trkpt lat="57.625003" lon="10.362188">
<ele>12.841301</ele>
<time>2026-07-17T10:39:24.000Z</time>
</trkpt>
<trkpt lat="57.625000" lon="10.362291">
<ele>12.845036</ele>
<time>2026-07-17T10:39:25.000Z</time>
</trkpt>
<trkpt lat="57.624996" lon="10.362394">
<ele>12.848775</ele>
<time>2026-07-17T10:39:26.000Z</time>
</trkpt>
<trkpt lat="57.624996" lon="10.362495">
<ele>12.852431</ele>
<time>2026-07-17T10:39:27.000Z</time>
</trkpt>
<trkpt lat="57.624997" lon="10.362599">
<ele>12.856197</ele>
<time>2026-07-17T10:39:28.000Z</time>
</trkpt>
<trkpt lat="57.625000" lon="10.362702">
<ele>12.859932</ele>
<time>2026-07-17T10:39:29.000Z</time>
</trkpt>
<trkpt lat="57.625004" lon="10.362808">
<ele>12.863779</ele>
<time>2026-07-17T10:39:30.000Z</time>
</trkpt>
<trkpt lat="57.625008" lon="10.362914">
<ele>12.867627</ele>
<time>2026-07-17T10:39:31.000Z</time>
</trkpt>
<trkpt lat="57.625016" lon="10.363021">
<ele>12.871538</ele>
<time>2026-07-17T10:39:32.000Z</time>
</trkpt>
<trkpt lat="57.625020" lon="10.363125">
<ele>12.875313</ele>
<time>2026-07-17T10:39:33.000Z</time>
</trkpt>
<trkpt lat="57.625028" lon="10.363226">
<ele>12.879010</ele>
<time>2026-07-17T10:39:34.000Z</time>
</trkpt>
<trkpt lat="57.625038" lon="10.363316">
<ele>12.882338</ele>
<time>2026-07-17T10:39:35.000Z</time>
</trkpt>
<trkpt lat="57.625051" lon="10.363433">
<ele>12.886664</ele>
<time>2026-07-17T10:39:36.000Z</time>
</trkpt>
<trkpt lat="57.625062" lon="10.363535">
<ele>12.890431</ele>
<time>2026-07-17T10:39:37.000Z</time>
</trkpt>
<trkpt lat="57.625073" lon="10.363637">
<ele>12.894198</ele>
<time>2026-07-17T10:39:38.000Z</time>
</trkpt>
<trkpt lat="57.625081" lon="10.363741">
<ele>12.898002</ele>
<time>2026-07-17T10:39:39.000Z</time>
</trkpt>
<trkpt lat="57.625093" lon="10.363847">
<ele>12.901925</ele>
<time>2026-07-17T10:39:40.000Z</time>
</trkpt>
<trkpt lat="57.625104" lon="10.363955">
<ele>12.905905</ele>
<time>2026-07-17T10:39:41.000Z</time>
</trkpt>
<trkpt lat="57.625116" lon="10.364061">
<ele>12.909828</ele>
<time>2026-07-17T10:39:42.000Z</time>
</trkpt>
<trkpt lat="57.625127" lon="10.364166">
<ele>12.913702</ele>
<time>2026-07-17T10:39:43.000Z</time>
</trkpt>
<trkpt lat="57.625139" lon="10.364271">
<ele>12.917589</ele>
<time>2026-07-17T10:39:44.000Z</time>
</trkpt>
<trkpt lat="57.625150" lon="10.364378">
<ele>12.920771</ele>
<time>2026-07-17T10:39:45.000Z</time>
</trkpt>
<trkpt lat="57.625161" lon="10.364479">
<ele>12.922608</ele>
<time>2026-07-17T10:39:46.000Z</time>
</trkpt>
<trkpt lat="57.625169" lon="10.364584">
<ele>12.924498</ele>
<time>2026-07-17T10:39:47.000Z</time>
</trkpt>
<trkpt lat="57.625181" lon="10.364689">
<ele>12.926411</ele>
<time>2026-07-17T10:39:48.000Z</time>
</trkpt>
<trkpt lat="57.625192" lon="10.364795">
<ele>12.928336</ele>
<time>2026-07-17T10:39:49.000Z</time>
</trkpt>
<trkpt lat="57.625204" lon="10.364899">
<ele>12.930232</ele>
<time>2026-07-17T10:39:50.000Z</time>
</trkpt>
<trkpt lat="57.625215" lon="10.365004">
<ele>12.932138</ele>
<time>2026-07-17T10:39:51.000Z</time>
</trkpt>
<trkpt lat="57.625226" lon="10.365111">
<ele>12.934080</ele>
<time>2026-07-17T10:39:52.000Z</time>
</trkpt>
<trkpt lat="57.625238" lon="10.365221">
<ele>12.936081</ele>
<time>2026-07-17T10:39:53.000Z</time>
</trkpt>
<trkpt lat="57.625249" lon="10.365331">
<ele>12.938075</ele>
<time>2026-07-17T10:39:54.000Z</time>
</trkpt>
<trkpt lat="57.625260" lon="10.365442">
<ele>12.940086</ele>
<time>2026-07-17T10:39:55.000Z</time>
</trkpt>
<trkpt lat="57.625268" lon="10.365554">
<ele>12.942100</ele>
<time>2026-07-17T10:39:56.000Z</time>
</trkpt>
<trkpt lat="57.625280" lon="10.365663">
<ele>12.944083</ele>
<time>2026-07-17T10:39:57.000Z</time>
</trkpt>
<trkpt lat="57.625291" lon="10.365774">
<ele>12.946095</ele>
<time>2026-07-17T10:39:58.000Z</time>
</trkpt>
<trkpt lat="57.625303" lon="10.365883">
<ele>12.948078</ele>
<time>2026-07-17T10:39:59.000Z</time>
</trkpt>
<trkpt lat="57.625314" lon="10.365992">
<ele>12.950055</ele>
<time>2026-07-17T10:40:00.000Z</time>
</trkpt>
<trkpt lat="57.625326" lon="10.366100">
<ele>12.952021</ele>
<time>2026-07-17T10:40:01.000Z</time>
</trkpt>
<trkpt lat="57.625337" lon="10.366209">
<ele>12.953997</ele>
<time>2026-07-17T10:40:02.000Z</time>
</trkpt>
<trkpt lat="57.625349" lon="10.366321">
<ele>12.956033</ele>
<time>2026-07-17T10:40:03.000Z</time>
</trkpt>
<trkpt lat="57.625364" lon="10.366434">
<ele>12.958107</ele>
<time>2026-07-17T10:40:04.000Z</time>
</trkpt>
<trkpt lat="57.625375" lon="10.366549">
<ele>12.960189</ele>
<time>2026-07-17T10:40:05.000Z</time>
</trkpt>
<trkpt lat="57.625386" lon="10.366662">
<ele>12.962236</ele>
<time>2026-07-17T10:40:06.000Z</time>
</trkpt>
<trkpt lat="57.625394" lon="10.366772">
<ele>12.964214</ele>
<time>2026-07-17T10:40:07.000Z</time>
</trkpt>
<trkpt lat="57.625405" lon="10.366882">
<ele>12.966209</ele>
<time>2026-07-17T10:40:08.000Z</time>
</trkpt>
<trkpt lat="57.625413" lon="10.366991">
<ele>12.968169</ele>
<time>2026-07-17T10:40:09.000Z</time>
</trkpt>
<trkpt lat="57.625424" lon="10.367102">
<ele>12.970181</ele>
<time>2026-07-17T10:40:10.000Z</time>
</trkpt>
<trkpt lat="57.625432" lon="10.367210">
<ele>12.972124</ele>
<time>2026-07-17T10:40:11.000Z</time>
</trkpt>
<trkpt lat="57.625443" lon="10.367318">
<ele>12.974083</ele>
<time>2026-07-17T10:40:12.000Z</time>
</trkpt>
<trkpt lat="57.625452" lon="10.367426">
<ele>12.976031</ele>
<time>2026-07-17T10:40:13.000Z</time>
</trkpt>
<trkpt lat="57.625463" lon="10.367533">
<ele>12.977973</ele>
<time>2026-07-17T10:40:14.000Z</time>
</trkpt>
<trkpt lat="57.625474" lon="10.367641">
<ele>12.980085</ele>
<time>2026-07-17T10:40:15.000Z</time>
</trkpt>
<trkpt lat="57.625482" lon="10.367751">
<ele>12.990257</ele>
<time>2026-07-17T10:40:16.000Z</time>
</trkpt>
<trkpt lat="57.625490" lon="10.367859">
<ele>13.000248</ele>
<time>2026-07-17T10:40:17.000Z</time>
</trkpt>
<trkpt lat="57.625501" lon="10.367968">
<ele>13.010412</ele>
<time>2026-07-17T10:40:18.000Z</time>
</trkpt>
<trkpt lat="57.625512" lon="10.368073">
<ele>13.020216</ele>
<time>2026-07-17T10:40:19.000Z</time>
</trkpt>
<trkpt lat="57.625520" lon="10.368179">
<ele>13.030025</ele>
<time>2026-07-17T10:40:20.000Z</time>
</trkpt>
<trkpt lat="57.625532" lon="10.368284">
<ele>13.039863</ele>
<time>2026-07-17T10:40:21.000Z</time>
</trkpt>
<trkpt lat="57.625543" lon="10.368386">
<ele>13.049397</ele>
<time>2026-07-17T10:40:22.000Z</time>
</trkpt>
<trkpt lat="57.625554" lon="10.368482">
<ele>13.058393</ele>
<time>2026-07-17T10:40:23.000Z</time>
</trkpt>
<trkpt lat="57.625570" lon="10.368585">
<ele>13.068221</ele>
<time>2026-07-17T10:40:24.000Z</time>
</trkpt>
<trkpt lat="57.625585" lon="10.368685">
<ele>13.077737</ele>
<time>2026-07-17T10:40:25.000Z</time>
</trkpt>
<trkpt lat="57.625601" lon="10.368785">
<ele>13.087301</ele>
<time>2026-07-17T10:40:26.000Z</time>
</trkpt>
<trkpt lat="57.625620" lon="10.368883">
<ele>13.096851</ele>
<time>2026-07-17T10:40:27.000Z</time>
</trkpt>
<trkpt lat="57.625635" lon="10.368981">
<ele>13.106191</ele>
<time>2026-07-17T10:40:28.000Z</time>
</trkpt>
<trkpt lat="57.625650" lon="10.369076">
<ele>13.115267</ele>
<time>2026-07-17T10:40:29.000Z</time>
</trkpt>
<trkpt lat="57.625666" lon="10.369174">
<ele>13.124655</ele>
<time>2026-07-17T10:40:30.000Z</time>
</trkpt>
<trkpt lat="57.625685" lon="10.369271">
<ele>13.134119</ele>
<time>2026-07-17T10:40:31.000Z</time>
</trkpt>
<trkpt lat="57.625700" lon="10.369367">
<ele>13.143283</ele>
<time>2026-07-17T10:40:32.000Z</time>
</trkpt>
<trkpt lat="57.625715" lon="10.369464">
<ele>13.152534</ele>
<time>2026-07-17T10:40:33.000Z</time>
</trkpt>
<trkpt lat="57.625730" lon="10.369561">
<ele>13.161786</ele>
<time>2026-07-17T10:40:34.000Z</time>
</trkpt>
<trkpt lat="57.625746" lon="10.369658">
<ele>13.171087</ele>
<time>2026-07-17T10:40:35.000Z</time>
</trkpt>
<trkpt lat="57.625765" lon="10.369754">
<ele>13.180465</ele>
<time>2026-07-17T10:40:36.000Z</time>
</trkpt>
<trkpt lat="57.625780" lon="10.369854">
<ele>13.189981</ele>
<time>2026-07-17T10:40:37.000Z</time>
</trkpt>
<trkpt lat="57.625799" lon="10.369955">
<ele>13.199791</ele>
<time>2026-07-17T10:40:38.000Z</time>
</trkpt>
<trkpt lat="57.625815" lon="10.370056">
<ele>13.209442</ele>
<time>2026-07-17T10:40:39.000Z</time>
</trkpt>
<trkpt lat="57.625833" lon="10.370160">
<ele>13.219457</ele>
<time>2026-07-17T10:40:40.000Z</time>
</trkpt>
<trkpt lat="57.625848" lon="10.370263">
<ele>13.229238</ele>
<time>2026-07-17T10:40:41.000Z</time>
</trkpt>
<trkpt lat="57.625860" lon="10.370366">
<ele>13.238897</ele>
<time>2026-07-17T10:40:42.000Z</time>
</trkpt>
<trkpt lat="57.625875" lon="10.370470">
<ele>13.248767</ele>
<time>2026-07-17T10:40:43.000Z</time>
</trkpt>
<trkpt lat="57.625885" lon="10.370571">
<ele>13.258178</ele>
<time>2026-07-17T10:40:44.000Z</time>
</trkpt>
<trkpt lat="57.625890" lon="10.370675">
<ele>13.267747</ele>
<time>2026-07-17T10:40:45.000Z</time>
</trkpt>
<trkpt lat="57.625896" lon="10.370775">
<ele>13.276967</ele>
<time>2026-07-17T10:40:46.000Z</time>
</trkpt>
<trkpt lat="57.625896" lon="10.370872">
<ele>13.285855</ele>
<time>2026-07-17T10:40:47.000Z</time>
</trkpt>
<trkpt lat="57.625896" lon="10.370975">
<ele>13.268100</ele>
<time>2026-07-17T10:40:48.000Z</time>
</trkpt>
<trkpt lat="57.625896" lon="10.371075">
<ele>13.244440</ele>
<time>2026-07-17T10:40:49.000Z</time>
</trkpt>
<trkpt lat="57.625892" lon="10.371174">
<ele>13.220950</ele>
<time>2026-07-17T10:40:50.000Z</time>
</trkpt>
<trkpt lat="57.625885" lon="10.371272">
<ele>13.197558</ele>
<time>2026-07-17T10:40:51.000Z</time>
</trkpt>
<trkpt lat="57.625885" lon="10.371368">
<ele>13.174845</ele>
<time>2026-07-17T10:40:52.000Z</time>
</trkpt>
<trkpt lat="57.625881" lon="10.371466">
<ele>13.151590</ele>
<time>2026-07-17T10:40:53.000Z</time>
</trkpt>
<trkpt lat="57.625877" lon="10.371562">
<ele>13.128808</ele>
<time>2026-07-17T10:40:54.000Z</time>
</trkpt>
<trkpt lat="57.625877" lon="10.371667">
<ele>13.103965</ele>
<time>2026-07-17T10:40:55.000Z</time>
</trkpt>
<trkpt lat="57.625873" lon="10.371771">
<ele>13.079295</ele>
<time>2026-07-17T10:40:56.000Z</time>
</trkpt>
<trkpt lat="57.625870" lon="10.371870">
<ele>13.055834</ele>
<time>2026-07-17T10:40:57.000Z</time>
</trkpt>
<trkpt lat="57.625862" lon="10.371981">
<ele>13.029335</ele>
<time>2026-07-17T10:40:58.000Z</time>
</trkpt>
<trkpt lat="57.625858" lon="10.372092">
<ele>13.003013</ele>
<time>2026-07-17T10:40:59.000Z</time>
</trkpt>
<trkpt lat="57.625858" lon="10.372196">
<ele>12.978406</ele>
<time>2026-07-17T10:41:00.000Z</time>
</trkpt>
<trkpt lat="57.625858" lon="10.372256">
<ele>12.964210</ele>
<time>2026-07-17T10:41:01.000Z</time>
</trkpt>
<trkpt lat="57.625850" lon="10.372416">
<ele>12.926190</ele>
<time>2026-07-17T10:41:02.000Z</time>
</trkpt>
<trkpt lat="57.625840" lon="10.372525">
<ele>12.900024</ele>
<time>2026-07-17T10:41:03.000Z</time>
</trkpt>
<trkpt lat="57.625830" lon="10.372634">
<ele>12.873859</ele>
<time>2026-07-17T10:41:04.000Z</time>
</trkpt>
<trkpt lat="57.625817" lon="10.372738">
<ele>12.848591</ele>
<time>2026-07-17T10:41:05.000Z</time>
</trkpt>
<trkpt lat="57.625804" lon="10.372842">
<ele>12.823323</ele>
<time>2026-07-17T10:41:06.000Z</time>
</trkpt>
<trkpt lat="57.625792" lon="10.372938">
<ele>12.799999</ele>
<time>2026-07-17T10:41:07.000Z</time>
</trkpt>
<trkpt lat="57.625776" lon="10.373042">
<ele>12.774397</ele>
<time>2026-07-17T10:41:08.000Z</time>
</trkpt>
<trkpt lat="57.625757" lon="10.373146">
<ele>12.748397</ele>
<time>2026-07-17T10:41:09.000Z</time>
</trkpt>
<trkpt lat="57.625738" lon="10.373251">
<ele>12.722174</ele>
<time>2026-07-17T10:41:10.000Z</time>
</trkpt>
<trkpt lat="57.625719" lon="10.373352">
<ele>12.696845</ele>
<time>2026-07-17T10:41:11.000Z</time>
</trkpt>
<trkpt lat="57.625700" lon="10.373454">
<ele>12.671293</ele>
<time>2026-07-17T10:41:12.000Z</time>
</trkpt>
<trkpt lat="57.625682" lon="10.373548">
<ele>12.647673</ele>
<time>2026-07-17T10:41:13.000Z</time>
</trkpt>
<trkpt lat="57.625662" lon="10.373649">
<ele>12.622195</ele>
<time>2026-07-17T10:41:14.000Z</time>
</trkpt>
<trkpt lat="57.625643" lon="10.373747">
<ele>12.597535</ele>
<time>2026-07-17T10:41:15.000Z</time>
</trkpt>
<trkpt lat="57.625624" lon="10.373846">
<ele>12.572652</ele>
<time>2026-07-17T10:41:16.000Z</time>
</trkpt>
<trkpt lat="57.625609" lon="10.373942">
<ele>12.548991</ele>
<time>2026-07-17T10:41:17.000Z</time>
</trkpt>
<trkpt lat="57.625589" lon="10.374037">
<ele>12.524839</ele>
<time>2026-07-17T10:41:18.000Z</time>
</trkpt>
<trkpt lat="57.625571" lon="10.374131">
<ele>12.501219</ele>
<time>2026-07-17T10:41:19.000Z</time>
</trkpt>
<trkpt lat="57.625559" lon="10.374232">
<ele>12.507132</ele>
<time>2026-07-17T10:41:20.000Z</time>
</trkpt>
<trkpt lat="57.625544" lon="10.374335">
<ele>12.529300</ele>
<time>2026-07-17T10:41:21.000Z</time>
</trkpt>
<trkpt lat="57.625529" lon="10.374444">
<ele>12.552672</ele>
<time>2026-07-17T10:41:22.000Z</time>
</trkpt>
<trkpt lat="57.625522" lon="10.374553">
<ele>12.575470</ele>
<time>2026-07-17T10:41:23.000Z</time>
</trkpt>
<trkpt lat="57.625514" lon="10.374659">
<ele>12.597702</ele>
<time>2026-07-17T10:41:24.000Z</time>
</trkpt>
<trkpt lat="57.625507" lon="10.374768">
<ele>12.620500</ele>
<time>2026-07-17T10:41:25.000Z</time>
</trkpt>
<trkpt lat="57.625498" lon="10.374877">
<ele>12.643404</ele>
<time>2026-07-17T10:41:26.000Z</time>
</trkpt>
<trkpt lat="57.625487" lon="10.374984">
<ele>12.666031</ele>
<time>2026-07-17T10:41:27.000Z</time>
</trkpt>
<trkpt lat="57.625480" lon="10.375092">
<ele>12.688624</ele>
<time>2026-07-17T10:41:28.000Z</time>
</trkpt>
<trkpt lat="57.625476" lon="10.375199">
<ele>12.710899</ele>
<time>2026-07-17T10:41:29.000Z</time>
</trkpt>
<trkpt lat="57.625469" lon="10.375306">
<ele>12.733285</ele>
<time>2026-07-17T10:41:30.000Z</time>
</trkpt>
<trkpt lat="57.625465" lon="10.375409">
<ele>12.754732</ele>
<time>2026-07-17T10:41:31.000Z</time>
</trkpt>
<trkpt lat="57.625457" lon="10.375512">
<ele>12.776346</ele>
<time>2026-07-17T10:41:32.000Z</time>
</trkpt>
<trkpt lat="57.625453" lon="10.375615">
<ele>12.797793</ele>
<time>2026-07-17T10:41:33.000Z</time>
</trkpt>
<trkpt lat="57.625446" lon="10.375717">
<ele>12.819149</ele>
<time>2026-07-17T10:41:34.000Z</time>
</trkpt>
<trkpt lat="57.625438" lon="10.375823">
<ele>12.841380</ele>
<time>2026-07-17T10:41:35.000Z</time>
</trkpt>
<trkpt lat="57.625435" lon="10.375925">
<ele>12.862595</ele>
<time>2026-07-17T10:41:36.000Z</time>
</trkpt>
<trkpt lat="57.625430" lon="10.376032">
<ele>12.884900</ele>
<time>2026-07-17T10:41:37.000Z</time>
</trkpt>
<trkpt lat="57.625423" lon="10.376138">
<ele>12.907080</ele>
<time>2026-07-17T10:41:38.000Z</time>
</trkpt>
<trkpt lat="57.625419" lon="10.376242">
<ele>12.928734</ele>
<time>2026-07-17T10:41:39.000Z</time>
</trkpt>
<trkpt lat="57.625411" lon="10.376348">
<ele>12.950965</ele>
<time>2026-07-17T10:41:40.000Z</time>
</trkpt>
<trkpt lat="57.625406" lon="10.376458">
<ele>12.973892</ele>
<time>2026-07-17T10:41:41.000Z</time>
</trkpt>
<trkpt lat="57.625400" lon="10.376567">
<ele>12.996648</ele>
<time>2026-07-17T10:41:42.000Z</time>
</trkpt>
<trkpt lat="57.625397" lon="10.376668">
<ele>13.017655</ele>
<time>2026-07-17T10:41:43.000Z</time>
</trkpt>
<trkpt lat="57.625392" lon="10.376790">
<ele>13.043065</ele>
<time>2026-07-17T10:41:44.000Z</time>
</trkpt>
<trkpt lat="57.625385" lon="10.376892">
<ele>13.064421</ele>
<time>2026-07-17T10:41:45.000Z</time>
</trkpt>
<trkpt lat="57.625381" lon="10.377002">
<ele>13.087318</ele>
<time>2026-07-17T10:41:46.000Z</time>
</trkpt>
<trkpt lat="57.625377" lon="10.377106">
<ele>13.108972</ele>
<time>2026-07-17T10:41:47.000Z</time>
</trkpt>
<trkpt lat="57.625369" lon="10.377211">
<ele>13.130997</ele>
<time>2026-07-17T10:41:48.000Z</time>
</trkpt>
<trkpt lat="57.625362" lon="10.377315">
<ele>13.152766</ele>
<time>2026-07-17T10:41:49.000Z</time>
</trkpt>
<trkpt lat="57.625354" lon="10.377419">
<ele>13.174586</ele>
<time>2026-07-17T10:41:50.000Z</time>
</trkpt>
<trkpt lat="57.625350" lon="10.377522">
<ele>13.194096</ele>
<time>2026-07-17T10:41:51.000Z</time>
</trkpt>
<trkpt lat="57.625343" lon="10.377628">
<ele>13.208478</ele>
<time>2026-07-17T10:41:52.000Z</time>
</trkpt>
<trkpt lat="57.625339" lon="10.377736">
<ele>13.223055</ele>
<time>2026-07-17T10:41:53.000Z</time>
</trkpt>
<trkpt lat="57.625331" lon="10.377845">
<ele>13.237869</ele>
<time>2026-07-17T10:41:54.000Z</time>
</trkpt>
<trkpt lat="57.625328" lon="10.377954">
<ele>13.252565</ele>
<time>2026-07-17T10:41:55.000Z</time>
</trkpt>
<trkpt lat="57.625323" lon="10.378059">
<ele>13.266759</ele>
<time>2026-07-17T10:41:56.000Z</time>
</trkpt>
<trkpt lat="57.625316" lon="10.378166">
<ele>13.281274</ele>
<time>2026-07-17T10:41:57.000Z</time>
</trkpt>
<trkpt lat="57.625309" lon="10.378272">
<ele>13.295655</ele>
<time>2026-07-17T10:41:58.000Z</time>
</trkpt>
<trkpt lat="57.625304" lon="10.378383">
<ele>13.310654</ele>
<time>2026-07-17T10:41:59.000Z</time>
</trkpt>
<trkpt lat="57.625297" lon="10.378486">
<ele>13.324634</ele>
<time>2026-07-17T10:42:00.000Z</time>
</trkpt>
<trkpt lat="57.625290" lon="10.378578">
<ele>13.337146</ele>
<time>2026-07-17T10:42:01.000Z</time>
</trkpt>
<trkpt lat="57.625281" lon="10.378692">
<ele>13.352663</ele>
<time>2026-07-17T10:42:02.000Z</time>
</trkpt>
<trkpt lat="57.625274" lon="10.378793">
<ele>13.366376</ele>
<time>2026-07-17T10:42:03.000Z</time>
</trkpt>
<trkpt lat="57.625270" lon="10.378900">
<ele>13.380818</ele>
<time>2026-07-17T10:42:04.000Z</time>
</trkpt>
<trkpt lat="57.625263" lon="10.378993">
<ele>13.393464</ele>
<time>2026-07-17T10:42:05.000Z</time>
</trkpt>
<trkpt lat="57.625259" lon="10.379104">
<ele>13.408444</ele>
<time>2026-07-17T10:42:06.000Z</time>
</trkpt>
<trkpt lat="57.625251" lon="10.379204">
<ele>13.422059</ele>
<time>2026-07-17T10:42:07.000Z</time>
</trkpt>
<trkpt lat="57.625247" lon="10.379304">
<ele>13.435561</ele>
<time>2026-07-17T10:42:08.000Z</time>
</trkpt>
<trkpt lat="57.625240" lon="10.379401">
<ele>13.448740</ele>
<time>2026-07-17T10:42:09.000Z</time>
</trkpt>
<trkpt lat="57.625236" lon="10.379496">
<ele>13.461572</ele>
<time>2026-07-17T10:42:10.000Z</time>
</trkpt>
<trkpt lat="57.625228" lon="10.379594">
<ele>13.474920</ele>
<time>2026-07-17T10:42:11.000Z</time>
</trkpt>
<trkpt lat="57.625224" lon="10.379689">
<ele>13.487751</ele>
<time>2026-07-17T10:42:12.000Z</time>
</trkpt>
<trkpt lat="57.625217" lon="10.379790">
<ele>13.501464</ele>
<time>2026-07-17T10:42:13.000Z</time>
</trkpt>
<trkpt lat="57.625209" lon="10.379893">
<ele>13.515479</ele>
<time>2026-07-17T10:42:14.000Z</time>
</trkpt>
<trkpt lat="57.625205" lon="10.379995">
<ele>13.529250</ele>
<time>2026-07-17T10:42:15.000Z</time>
</trkpt>
<trkpt lat="57.625198" lon="10.380097">
<ele>13.543097</ele>
<time>2026-07-17T10:42:16.000Z</time>
</trkpt>
<trkpt lat="57.625194" lon="10.380196">
<ele>13.556465</ele>
<time>2026-07-17T10:42:17.000Z</time>
</trkpt>
<trkpt lat="57.625187" lon="10.380296">
<ele>13.570045</ele>
<time>2026-07-17T10:42:18.000Z</time>
</trkpt>
<trkpt lat="57.625183" lon="10.380402">
<ele>13.584353</ele>
<time>2026-07-17T10:42:19.000Z</time>
</trkpt>
<trkpt lat="57.625183" lon="10.380502">
<ele>13.597818</ele>
<time>2026-07-17T10:42:20.000Z</time>
</trkpt>
<trkpt lat="57.625179" lon="10.380604">
<ele>13.611589</ele>
<time>2026-07-17T10:42:21.000Z</time>
</trkpt>
<trkpt lat="57.625175" lon="10.380703">
<ele>13.624958</ele>
<time>2026-07-17T10:42:22.000Z</time>
</trkpt>
<trkpt lat="57.625175" lon="10.380807">
<ele>13.638961</ele>
<time>2026-07-17T10:42:23.000Z</time>
</trkpt>
<trkpt lat="57.625175" lon="10.380910">
<ele>13.647704</ele>
<time>2026-07-17T10:42:24.000Z</time>
</trkpt>
<trkpt lat="57.625175" lon="10.381011">
<ele>13.654331</ele>
<time>2026-07-17T10:42:25.000Z</time>
</trkpt>
<trkpt lat="57.625172" lon="10.381112">
<ele>13.660969</ele>
<time>2026-07-17T10:42:26.000Z</time>
</trkpt>
<trkpt lat="57.625175" lon="10.381203">
<ele>13.666951</ele>
<time>2026-07-17T10:42:27.000Z</time>
</trkpt>
<trkpt lat="57.625176" lon="10.381322">
<ele>13.674761</ele>
<time>2026-07-17T10:42:28.000Z</time>
</trkpt>
<trkpt lat="57.625184" lon="10.381427">
<ele>13.681720</ele>
<time>2026-07-17T10:42:29.000Z</time>
</trkpt>
<trkpt lat="57.625188" lon="10.381528">
<ele>13.688365</ele>
<time>2026-07-17T10:42:30.000Z</time>
</trkpt>
<trkpt lat="57.625199" lon="10.381628">
<ele>13.695064</ele>
<time>2026-07-17T10:42:31.000Z</time>
</trkpt>
<trkpt lat="57.625211" lon="10.381723">
<ele>13.701469</ele>
<time>2026-07-17T10:42:32.000Z</time>
</trkpt>
<trkpt lat="57.625224" lon="10.381819">
<ele>13.707966</ele>
<time>2026-07-17T10:42:33.000Z</time>
</trkpt>
<trkpt lat="57.625238" lon="10.381914">
<ele>13.714432</ele>
<time>2026-07-17T10:42:34.000Z</time>
</trkpt>
<trkpt lat="57.625254" lon="10.382011">
<ele>13.721092</ele>
<time>2026-07-17T10:42:35.000Z</time>
</trkpt>
<trkpt lat="57.625269" lon="10.382109">
<ele>13.727779</ele>
<time>2026-07-17T10:42:36.000Z</time>
</trkpt>
<trkpt lat="57.625288" lon="10.382208">
<ele>13.734680</ele>
<time>2026-07-17T10:42:37.000Z</time>
</trkpt>
<trkpt lat="57.625308" lon="10.382313">
<ele>13.741993</ele>
<time>2026-07-17T10:42:38.000Z</time>
</trkpt>
<trkpt lat="57.625330" lon="10.382418">
<ele>13.749391</ele>
<time>2026-07-17T10:42:39.000Z</time>
</trkpt>
<trkpt lat="57.625346" lon="10.382522">
<ele>13.756491</ele>
<time>2026-07-17T10:42:40.000Z</time>
</trkpt>
<trkpt lat="57.625365" lon="10.382622">
<ele>13.763454</ele>
<time>2026-07-17T10:42:41.000Z</time>
</trkpt>
<trkpt lat="57.625383" lon="10.382724">
<ele>13.770501</ele>
<time>2026-07-17T10:42:42.000Z</time>
</trkpt>
<trkpt lat="57.625397" lon="10.382823">
<ele>13.777220</ele>
<time>2026-07-17T10:42:43.000Z</time>
</trkpt>
<trkpt lat="57.625409" lon="10.382934">
<ele>13.784650</ele>
<time>2026-07-17T10:42:44.000Z</time>
</trkpt>
<trkpt lat="57.625421" lon="10.383041">
<ele>13.791823</ele>
<time>2026-07-17T10:42:45.000Z</time>
</trkpt>
<trkpt lat="57.625436" lon="10.383149">
<ele>13.799144</ele>
<time>2026-07-17T10:42:46.000Z</time>
</trkpt>
<trkpt lat="57.625447" lon="10.383256">
<ele>13.806294</ele>
<time>2026-07-17T10:42:47.000Z</time>
</trkpt>
<trkpt lat="57.625455" lon="10.383364">
<ele>13.813448</ele>
<time>2026-07-17T10:42:48.000Z</time>
</trkpt>
<trkpt lat="57.625467" lon="10.383469">
<ele>13.820493</ele>
<time>2026-07-17T10:42:49.000Z</time>
</trkpt>
<trkpt lat="57.625477" lon="10.383575">
<ele>13.827555</ele>
<time>2026-07-17T10:42:50.000Z</time>
</trkpt>
<trkpt lat="57.625481" lon="10.383687">
<ele>13.834920</ele>
<time>2026-07-17T10:42:51.000Z</time>
</trkpt>
<trkpt lat="57.625485" lon="10.383796">
<ele>13.842089</ele>
<time>2026-07-17T10:42:52.000Z</time>
</trkpt>
<trkpt lat="57.625489" lon="10.383903">
<ele>13.849127</ele>
<time>2026-07-17T10:42:53.000Z</time>
</trkpt>
<trkpt lat="57.625496" lon="10.384012">
<ele>13.856331</ele>
<time>2026-07-17T10:42:54.000Z</time>
</trkpt>
<trkpt lat="57.625500" lon="10.384119">
<ele>13.863308</ele>
<time>2026-07-17T10:42:55.000Z</time>
</trkpt>
<trkpt lat="57.625508" lon="10.384231">
<ele>13.867120</ele>
<time>2026-07-17T10:42:56.000Z</time>
</trkpt>
<trkpt lat="57.625512" lon="10.384336">
<ele>13.870671</ele>
<time>2026-07-17T10:42:57.000Z</time>
</trkpt>
<trkpt lat="57.625515" lon="10.384446">
<ele>13.874386</ele>
<time>2026-07-17T10:42:58.000Z</time>
</trkpt>
<trkpt lat="57.625519" lon="10.384552">
<ele>13.877971</ele>
<time>2026-07-17T10:42:59.000Z</time>
</trkpt>
<trkpt lat="57.625523" lon="10.384662">
<ele>13.881690</ele>
<time>2026-07-17T10:43:00.000Z</time>
</trkpt>
<trkpt lat="57.625527" lon="10.384772">
<ele>13.885409</ele>
<time>2026-07-17T10:43:01.000Z</time>
</trkpt>
<trkpt lat="57.625531" lon="10.384880">
<ele>13.889061</ele>
<time>2026-07-17T10:43:02.000Z</time>
</trkpt>
<trkpt lat="57.625538" lon="10.384990">
<ele>13.892797</ele>
<time>2026-07-17T10:43:03.000Z</time>
</trkpt>
<trkpt lat="57.625543" lon="10.385098">
<ele>13.896454</ele>
<time>2026-07-17T10:43:04.000Z</time>
</trkpt>
<trkpt lat="57.625550" lon="10.385202">
<ele>13.899990</ele>
<time>2026-07-17T10:43:05.000Z</time>
</trkpt>
<trkpt lat="57.625553" lon="10.385304">
<ele>13.903436</ele>
<time>2026-07-17T10:43:06.000Z</time>
</trkpt>
<trkpt lat="57.625557" lon="10.385410">
<ele>13.907020</ele>
<time>2026-07-17T10:43:07.000Z</time>
</trkpt>
<trkpt lat="57.625561" lon="10.385516">
<ele>13.910605</ele>
<time>2026-07-17T10:43:08.000Z</time>
</trkpt>
<trkpt lat="57.625565" lon="10.385623">
<ele>13.914223</ele>
<time>2026-07-17T10:43:09.000Z</time>
</trkpt>
<trkpt lat="57.625569" lon="10.385729">
<ele>13.917807</ele>
<time>2026-07-17T10:43:10.000Z</time>
</trkpt>
<trkpt lat="57.625576" lon="10.385830">
<ele>13.921243</ele>
<time>2026-07-17T10:43:11.000Z</time>
</trkpt>
<trkpt lat="57.625581" lon="10.385934">
<ele>13.924765</ele>
<time>2026-07-17T10:43:12.000Z</time>
</trkpt>
<trkpt lat="57.625588" lon="10.386038">
<ele>13.928301</ele>
<time>2026-07-17T10:43:13.000Z</time>
</trkpt>
<trkpt lat="57.625592" lon="10.386140">
<ele>13.931751</ele>
<time>2026-07-17T10:43:14.000Z</time>
</trkpt>
<trkpt lat="57.625595" lon="10.386241">
<ele>13.935163</ele>
<time>2026-07-17T10:43:15.000Z</time>
</trkpt>
<trkpt lat="57.625600" lon="10.386352">
<ele>13.938920</ele>
<time>2026-07-17T10:43:16.000Z</time>
</trkpt>
<trkpt lat="57.625608" lon="10.386459">
<ele>13.942565</ele>
<time>2026-07-17T10:43:17.000Z</time>
</trkpt>
<trkpt lat="57.625623" lon="10.386567">
<ele>13.946329</ele>
<time>2026-07-17T10:43:18.000Z</time>
</trkpt>
<trkpt lat="57.625635" lon="10.386671">
<ele>13.949917</ele>
<time>2026-07-17T10:43:19.000Z</time>
</trkpt>
<trkpt lat="57.625655" lon="10.386776">
<ele>13.953677</ele>
<time>2026-07-17T10:43:20.000Z</time>
</trkpt>
<trkpt lat="57.625673" lon="10.386878">
<ele>13.957299</ele>
<time>2026-07-17T10:43:21.000Z</time>
</trkpt>
<trkpt lat="57.625694" lon="10.386978">
<ele>13.960923</ele>
<time>2026-07-17T10:43:22.000Z</time>
</trkpt>
<trkpt lat="57.625720" lon="10.387076">
<ele>13.964612</ele>
<time>2026-07-17T10:43:23.000Z</time>
</trkpt>
<trkpt lat="57.625746" lon="10.387167">
<ele>13.968091</ele>
<time>2026-07-17T10:43:24.000Z</time>
</trkpt>
<trkpt lat="57.625777" lon="10.387262">
<ele>13.971844</ele>
<time>2026-07-17T10:43:25.000Z</time>
</trkpt>
<trkpt lat="57.625812" lon="10.387354">
<ele>13.975651</ele>
<time>2026-07-17T10:43:26.000Z</time>
</trkpt>
<trkpt lat="57.625847" lon="10.387448">
<ele>13.987204</ele>
<time>2026-07-17T10:43:27.000Z</time>
</trkpt>
<trkpt lat="57.625885" lon="10.387538">
<ele>14.001125</ele>
<time>2026-07-17T10:43:28.000Z</time>
</trkpt>
<trkpt lat="57.625922" lon="10.387623">
<ele>14.014430</ele>
<time>2026-07-17T10:43:29.000Z</time>
</trkpt>
<trkpt lat="57.625961" lon="10.387711">
<ele>14.028304</ele>
<time>2026-07-17T10:43:30.000Z</time>
</trkpt>
<trkpt lat="57.625998" lon="10.387798">
<ele>14.041799</ele>
<time>2026-07-17T10:43:31.000Z</time>
</trkpt>
<trkpt lat="57.626034" lon="10.387889">
<ele>14.055541</ele>
<time>2026-07-17T10:43:32.000Z</time>
</trkpt>
<trkpt lat="57.626073" lon="10.387974">
<ele>14.069136</ele>
<time>2026-07-17T10:43:33.000Z</time>
</trkpt>
<trkpt lat="57.626114" lon="10.388059">
<ele>14.083031</ele>
<time>2026-07-17T10:43:34.000Z</time>
</trkpt>
<trkpt lat="57.626148" lon="10.388143">
<ele>14.095821</ele>
<time>2026-07-17T10:43:35.000Z</time>
</trkpt>
<trkpt lat="57.626184" lon="10.388224">
<ele>14.108606</ele>
<time>2026-07-17T10:43:36.000Z</time>
</trkpt>
<trkpt lat="57.626221" lon="10.388314">
<ele>14.122388</ele>
<time>2026-07-17T10:43:37.000Z</time>
</trkpt>
<trkpt lat="57.626260" lon="10.388399">
<ele>14.135983</ele>
<time>2026-07-17T10:43:38.000Z</time>
</trkpt>
<trkpt lat="57.626298" lon="10.388481">
<ele>14.149155</ele>
<time>2026-07-17T10:43:39.000Z</time>
</trkpt>
<trkpt lat="57.626335" lon="10.388562">
<ele>14.162086</ele>
<time>2026-07-17T10:43:40.000Z</time>
</trkpt>
<trkpt lat="57.626367" lon="10.388637">
<ele>14.173734</ele>
<time>2026-07-17T10:43:41.000Z</time>
</trkpt>
<trkpt lat="57.626407" lon="10.388723">
<ele>14.187570</ele>
<time>2026-07-17T10:43:42.000Z</time>
</trkpt>
<trkpt lat="57.626441" lon="10.388803">
<ele>14.199975</ele>
<time>2026-07-17T10:43:43.000Z</time>
</trkpt>
<trkpt lat="57.626480" lon="10.388887">
<ele>14.213478</ele>
<time>2026-07-17T10:43:44.000Z</time>
</trkpt>
<trkpt lat="57.626515" lon="10.388969">
<ele>14.226215</ele>
<time>2026-07-17T10:43:45.000Z</time>
</trkpt>
<trkpt lat="57.626548" lon="10.389049">
<ele>14.238480</ele>
<time>2026-07-17T10:43:46.000Z</time>
</trkpt>
<trkpt lat="57.626583" lon="10.389130">
<ele>14.251122</ele>
<time>2026-07-17T10:43:47.000Z</time>
</trkpt>
<trkpt lat="57.626619" lon="10.389207">
<ele>14.263537</ele>
<time>2026-07-17T10:43:48.000Z</time>
</trkpt>
<trkpt lat="57.626656" lon="10.389292">
<ele>14.276842</ele>
<time>2026-07-17T10:43:49.000Z</time>
</trkpt>
<trkpt lat="57.626694" lon="10.389374">
<ele>14.290014</ele>
<time>2026-07-17T10:43:50.000Z</time>
</trkpt>
<trkpt lat="57.626728" lon="10.389454">
<ele>14.302419</ele>
<time>2026-07-17T10:43:51.000Z</time>
</trkpt>
<trkpt lat="57.626762" lon="10.389540">
<ele>14.315403</ele>
<time>2026-07-17T10:43:52.000Z</time>
</trkpt>
<trkpt lat="57.626797" lon="10.389624">
<ele>14.328330</ele>
<time>2026-07-17T10:43:53.000Z</time>
</trkpt>
<trkpt lat="57.626835" lon="10.389711">
<ele>14.341966</ele>
<time>2026-07-17T10:43:54.000Z</time>
</trkpt>
<trkpt lat="57.626868" lon="10.389795">
<ele>14.354620</ele>
<time>2026-07-17T10:43:55.000Z</time>
</trkpt>
<trkpt lat="57.626903" lon="10.389886">
<ele>14.368228</ele>
<time>2026-07-17T10:43:56.000Z</time>
</trkpt>
<trkpt lat="57.626934" lon="10.389975">
<ele>14.381124</ele>
<time>2026-07-17T10:43:57.000Z</time>
</trkpt>
<trkpt lat="57.626968" lon="10.390067">
<ele>14.375735</ele>
<time>2026-07-17T10:43:58.000Z</time>
</trkpt>
<trkpt lat="57.626998" lon="10.390159">
<ele>14.364377</ele>
<time>2026-07-17T10:43:59.000Z</time>
</trkpt>
<trkpt lat="57.627025" lon="10.390254">
<ele>14.353035</ele>
<time>2026-07-17T10:44:00.000Z</time>
</trkpt>
<trkpt lat="57.627055" lon="10.390348">
<ele>14.341496</ele>
<time>2026-07-17T10:44:01.000Z</time>
</trkpt>
<trkpt lat="57.627081" lon="10.390442">
<ele>14.330340</ele>
<time>2026-07-17T10:44:02.000Z</time>
</trkpt>
<trkpt lat="57.627105" lon="10.390540">
<ele>14.318976</ele>
<time>2026-07-17T10:44:03.000Z</time>
</trkpt>
<trkpt lat="57.627131" lon="10.390637">
<ele>14.307538</ele>
<time>2026-07-17T10:44:04.000Z</time>
</trkpt>
<trkpt lat="57.627158" lon="10.390736">
<ele>14.295823</ele>
<time>2026-07-17T10:44:05.000Z</time>
</trkpt>
<trkpt lat="57.627185" lon="10.390833">
<ele>14.284295</ele>
<time>2026-07-17T10:44:06.000Z</time>
</trkpt>
<trkpt lat="57.627216" lon="10.390928">
<ele>14.272564</ele>
<time>2026-07-17T10:44:07.000Z</time>
</trkpt>
<trkpt lat="57.627246" lon="10.391028">
<ele>14.260477</ele>
<time>2026-07-17T10:44:08.000Z</time>
</trkpt>
<trkpt lat="57.627277" lon="10.391124">
<ele>14.248655</ele>
<time>2026-07-17T10:44:09.000Z</time>
</trkpt>
<trkpt lat="57.627304" lon="10.391215">
<ele>14.237685</ele>
<time>2026-07-17T10:44:10.000Z</time>
</trkpt>
<trkpt lat="57.627334" lon="10.391306">
<ele>14.226416</ele>
<time>2026-07-17T10:44:11.000Z</time>
</trkpt>
<trkpt lat="57.627360" lon="10.391397">
<ele>14.215540</ele>
<time>2026-07-17T10:44:12.000Z</time>
</trkpt>
<trkpt lat="57.627387" lon="10.391486">
<ele>14.204754</ele>
<time>2026-07-17T10:44:13.000Z</time>
</trkpt>
<trkpt lat="57.627413" lon="10.391571">
<ele>14.194431</ele>
<time>2026-07-17T10:44:14.000Z</time>
</trkpt>
<trkpt lat="57.627444" lon="10.391664">
<ele>14.182880</ele>
<time>2026-07-17T10:44:15.000Z</time>
</trkpt>
<trkpt lat="57.627469" lon="10.391746">
<ele>14.172930</ele>
<time>2026-07-17T10:44:16.000Z</time>
</trkpt>
<trkpt lat="57.627502" lon="10.391843">
<ele>14.160811</ele>
<time>2026-07-17T10:44:17.000Z</time>
</trkpt>
<trkpt lat="57.627532" lon="10.391936">
<ele>14.149363</ele>
<time>2026-07-17T10:44:18.000Z</time>
</trkpt>
<trkpt lat="57.627559" lon="10.392031">
<ele>14.138022</ele>
<time>2026-07-17T10:44:19.000Z</time>
</trkpt>
<trkpt lat="57.627585" lon="10.392129">
<ele>14.126489</ele>
<time>2026-07-17T10:44:20.000Z</time>
</trkpt>
<trkpt lat="57.627603" lon="10.392224">
<ele>14.115863</ele>
<time>2026-07-17T10:44:21.000Z</time>
</trkpt>
<trkpt lat="57.627626" lon="10.392324">
<ele>14.104387</ele>
<time>2026-07-17T10:44:22.000Z</time>
</trkpt>
<trkpt lat="57.627641" lon="10.392426">
<ele>14.093233</ele>
<time>2026-07-17T10:44:23.000Z</time>
</trkpt>
<trkpt lat="57.627651" lon="10.392525">
<ele>14.082610</ele>
<time>2026-07-17T10:44:24.000Z</time>
</trkpt>
<trkpt lat="57.627656" lon="10.392636">
<ele>14.070864</ele>
<time>2026-07-17T10:44:25.000Z</time>
</trkpt>
<trkpt lat="57.627663" lon="10.392737">
<ele>14.060125</ele>
<time>2026-07-17T10:44:26.000Z</time>
</trkpt>
<trkpt lat="57.627662" lon="10.392847">
<ele>14.048525</ele>
<time>2026-07-17T10:44:27.000Z</time>
</trkpt>
<trkpt lat="57.627655" lon="10.392951">
<ele>14.037472</ele>
<time>2026-07-17T10:44:28.000Z</time>
</trkpt>
<trkpt lat="57.627650" lon="10.393055">
<ele>14.029433</ele>
<time>2026-07-17T10:44:29.000Z</time>
</trkpt>
<trkpt lat="57.627644" lon="10.393160">
<ele>14.026858</ele>
<time>2026-07-17T10:44:30.000Z</time>
</trkpt>
<trkpt lat="57.627643" lon="10.393259">
<ele>14.024444</ele>
<time>2026-07-17T10:44:31.000Z</time>
</trkpt>
<trkpt lat="57.627640" lon="10.393370">
<ele>14.021734</ele>
<time>2026-07-17T10:44:32.000Z</time>
</trkpt>
<trkpt lat="57.627639" lon="10.393474">
<ele>14.019198</ele>
<time>2026-07-17T10:44:33.000Z</time>
</trkpt>
<trkpt lat="57.627636" lon="10.393582">
<ele>14.016561</ele>
<time>2026-07-17T10:44:34.000Z</time>
</trkpt>
<trkpt lat="57.627636" lon="10.393687">
<ele>14.014001</ele>
<time>2026-07-17T10:44:35.000Z</time>
</trkpt>
<trkpt lat="57.627636" lon="10.393793">
<ele>14.011416</ele>
<time>2026-07-17T10:44:36.000Z</time>
</trkpt>
<trkpt lat="57.627632" lon="10.393896">
<ele>14.008898</ele>
<time>2026-07-17T10:44:37.000Z</time>
</trkpt>
<trkpt lat="57.627632" lon="10.394002">
<ele>14.006314</ele>
<time>2026-07-17T10:44:38.000Z</time>
</trkpt>
<trkpt lat="57.627628" lon="10.394107">
<ele>14.003747</ele>
<time>2026-07-17T10:44:39.000Z</time>
</trkpt>
<trkpt lat="57.627628" lon="10.394215">
<ele>14.001114</ele>
<time>2026-07-17T10:44:40.000Z</time>
</trkpt>
<trkpt lat="57.627628" lon="10.394320">
<ele>13.998554</ele>
<time>2026-07-17T10:44:41.000Z</time>
</trkpt>
<trkpt lat="57.627625" lon="10.394423">
<ele>13.996039</ele>
<time>2026-07-17T10:44:42.000Z</time>
</trkpt>
<trkpt lat="57.627624" lon="10.394533">
<ele>13.993356</ele>
<time>2026-07-17T10:44:43.000Z</time>
</trkpt>
<trkpt lat="57.627621" lon="10.394643">
<ele>13.990671</ele>
<time>2026-07-17T10:44:44.000Z</time>
</trkpt>
<trkpt lat="57.627621" lon="10.394750">
<ele>13.988062</ele>
<time>2026-07-17T10:44:45.000Z</time>
</trkpt>
<trkpt lat="57.627621" lon="10.394861">
<ele>13.985356</ele>
<time>2026-07-17T10:44:46.000Z</time>
</trkpt>
<trkpt lat="57.627620" lon="10.394969">
<ele>13.982722</ele>
<time>2026-07-17T10:44:47.000Z</time>
</trkpt>
<trkpt lat="57.627617" lon="10.395075">
<ele>13.980134</ele>
<time>2026-07-17T10:44:48.000Z</time>
</trkpt>
<trkpt lat="57.627616" lon="10.395189">
<ele>13.977354</ele>
<time>2026-07-17T10:44:49.000Z</time>
</trkpt>
<trkpt lat="57.627613" lon="10.395296">
<ele>13.974741</ele>
<time>2026-07-17T10:44:50.000Z</time>
</trkpt>
<trkpt lat="57.627609" lon="10.395403">
<ele>13.972126</ele>
<time>2026-07-17T10:44:51.000Z</time>
</trkpt>
<trkpt lat="57.627605" lon="10.395513">
<ele>13.969438</ele>
<time>2026-07-17T10:44:52.000Z</time>
</trkpt>
<trkpt lat="57.627602" lon="10.395621">
<ele>13.966801</ele>
<time>2026-07-17T10:44:53.000Z</time>
</trkpt>
<trkpt lat="57.627601" lon="10.395733">
<ele>13.964070</ele>
<time>2026-07-17T10:44:54.000Z</time>
</trkpt>
<trkpt lat="57.627598" lon="10.395840">
<ele>13.961458</ele>
<time>2026-07-17T10:44:55.000Z</time>
</trkpt>
<trkpt lat="57.627594" lon="10.395956">
<ele>13.958623</ele>
<time>2026-07-17T10:44:56.000Z</time>
</trkpt>
<trkpt lat="57.627590" lon="10.396064">
<ele>13.955984</ele>
<time>2026-07-17T10:44:57.000Z</time>
</trkpt>
<trkpt lat="57.627590" lon="10.396174">
<ele>13.953302</ele>
<time>2026-07-17T10:44:58.000Z</time>
</trkpt>
<trkpt lat="57.627590" lon="10.396283">
<ele>13.950644</ele>
<time>2026-07-17T10:44:59.000Z</time>
</trkpt>
<trkpt lat="57.627590" lon="10.396391">
<ele>13.945952</ele>
<time>2026-07-17T10:45:00.000Z</time>
</trkpt>
<trkpt lat="57.627590" lon="10.396497">
<ele>13.930332</ele>
<time>2026-07-17T10:45:01.000Z</time>
</trkpt>
<trkpt lat="57.627590" lon="10.396605">
<ele>13.914418</ele>
<time>2026-07-17T10:45:02.000Z</time>
</trkpt>
<trkpt lat="57.627590" lon="10.396714">
<ele>13.898356</ele>
<time>2026-07-17T10:45:03.000Z</time>
</trkpt>
<trkpt lat="57.627590" lon="10.396819">
<ele>13.882884</ele>
<time>2026-07-17T10:45:04.000Z</time>
</trkpt>
<trkpt lat="57.627590" lon="10.396933">
<ele>13.866085</ele>
<time>2026-07-17T10:45:05.000Z</time>
</trkpt>
<trkpt lat="57.627591" lon="10.397047">
<ele>13.849285</ele>
<time>2026-07-17T10:45:06.000Z</time>
</trkpt>
<trkpt lat="57.627594" lon="10.397158">
<ele>13.832907</ele>
<time>2026-07-17T10:45:07.000Z</time>
</trkpt>
<trkpt lat="57.627594" lon="10.397268">
<ele>13.816698</ele>
<time>2026-07-17T10:45:08.000Z</time>
</trkpt>
<trkpt lat="57.627598" lon="10.397381">
<ele>13.800011</ele>
<time>2026-07-17T10:45:09.000Z</time>
</trkpt>
<trkpt lat="57.627598" lon="10.397486">
<ele>13.784538</ele>
<time>2026-07-17T10:45:10.000Z</time>
</trkpt>
<trkpt lat="57.627602" lon="10.397603">
<ele>13.767263</ele>
<time>2026-07-17T10:45:11.000Z</time>
</trkpt>
<trkpt lat="57.627605" lon="10.397711">
<ele>13.751327</ele>
<time>2026-07-17T10:45:12.000Z</time>
</trkpt>
<trkpt lat="57.627605" lon="10.397819">
<ele>13.735413</ele>
<time>2026-07-17T10:45:13.000Z</time>
</trkpt>
<trkpt lat="57.627605" lon="10.397929">
<ele>13.719204</ele>
<time>2026-07-17T10:45:14.000Z</time>
</trkpt>
<trkpt lat="57.627606" lon="10.398039">
<ele>13.702992</ele>
<time>2026-07-17T10:45:15.000Z</time>
</trkpt>
<trkpt lat="57.627609" lon="10.398149">
<ele>13.686762</ele>
<time>2026-07-17T10:45:16.000Z</time>
</trkpt>
<trkpt lat="57.627610" lon="10.398257">
<ele>13.670845</ele>
<time>2026-07-17T10:45:17.000Z</time>
</trkpt>
<trkpt lat="57.627613" lon="10.398367">
<ele>13.654615</ele>
<time>2026-07-17T10:45:18.000Z</time>
</trkpt>
<trkpt lat="57.627617" lon="10.398475">
<ele>13.638663</ele>
<time>2026-07-17T10:45:19.000Z</time>
</trkpt>
<trkpt lat="57.627617" lon="10.398582">
<ele>13.622896</ele>
<time>2026-07-17T10:45:20.000Z</time>
</trkpt>
<trkpt lat="57.627617" lon="10.398690">
<ele>13.606982</ele>
<time>2026-07-17T10:45:21.000Z</time>
</trkpt>
<trkpt lat="57.627621" lon="10.398800">
<ele>13.590735</ele>
<time>2026-07-17T10:45:22.000Z</time>
</trkpt>
<trkpt lat="57.627625" lon="10.398911">
<ele>13.574342</ele>
<time>2026-07-17T10:45:23.000Z</time>
</trkpt>
<trkpt lat="57.627625" lon="10.399020">
<ele>13.558280</ele>
<time>2026-07-17T10:45:24.000Z</time>
</trkpt>
<trkpt lat="57.627624" lon="10.399136">
<ele>13.541185</ele>
<time>2026-07-17T10:45:25.000Z</time>
</trkpt>
<trkpt lat="57.627621" lon="10.399248">
<ele>13.524660</ele>
<time>2026-07-17T10:45:26.000Z</time>
</trkpt>
<trkpt lat="57.627617" lon="10.399368">
<ele>13.506943</ele>
<time>2026-07-17T10:45:27.000Z</time>
</trkpt>
<trkpt lat="57.627616" lon="10.399477">
<ele>13.490879</ele>
<time>2026-07-17T10:45:28.000Z</time>
</trkpt>
<trkpt lat="57.627608" lon="10.399589">
<ele>13.474229</ele>
<time>2026-07-17T10:45:29.000Z</time>
</trkpt>
<trkpt lat="57.627600" lon="10.399696">
<ele>13.458309</ele>
<time>2026-07-17T10:45:30.000Z</time>
</trkpt>
<trkpt lat="57.627590" lon="10.399792">
<ele>13.481929</ele>
<time>2026-07-17T10:45:31.000Z</time>
</trkpt>
<trkpt lat="57.627578" lon="10.399913">
<ele>13.536319</ele>
<time>2026-07-17T10:45:32.000Z</time>
</trkpt>
<trkpt lat="57.627566" lon="10.400020">
<ele>13.584638</ele>
<time>2026-07-17T10:45:33.000Z</time>
</trkpt>
<trkpt lat="57.627551" lon="10.400124">
<ele>13.632242</ele>
<time>2026-07-17T10:45:34.000Z</time>
</trkpt>
<trkpt lat="57.627535" lon="10.400236">
<ele>13.683476</ele>
<time>2026-07-17T10:45:35.000Z</time>
</trkpt>
<trkpt lat="57.627519" lon="10.400337">
<ele>13.730030</ele>
<time>2026-07-17T10:45:36.000Z</time>
</trkpt>
<trkpt lat="57.627496" lon="10.400430">
<ele>13.775308</ele>
<time>2026-07-17T10:45:37.000Z</time>
</trkpt>
<trkpt lat="57.627472" lon="10.400524">
<ele>13.821336</ele>
<time>2026-07-17T10:45:38.000Z</time>
</trkpt>
<trkpt lat="57.627441" lon="10.400616">
<ele>13.869381</ele>
<time>2026-07-17T10:45:39.000Z</time>
</trkpt>
<trkpt lat="57.627409" lon="10.400703">
<ele>13.916033</ele>
<time>2026-07-17T10:45:40.000Z</time>
</trkpt>
<trkpt lat="57.627377" lon="10.400793">
<ele>13.963784</ele>
<time>2026-07-17T10:45:41.000Z</time>
</trkpt>
<trkpt lat="57.627346" lon="10.400876">
<ele>14.008512</ele>
<time>2026-07-17T10:45:42.000Z</time>
</trkpt>
<trkpt lat="57.627312" lon="10.400956">
<ele>14.053657</ele>
<time>2026-07-17T10:45:43.000Z</time>
</trkpt>
<trkpt lat="57.627277" lon="10.401038">
<ele>14.100006</ele>
<time>2026-07-17T10:45:44.000Z</time>
</trkpt>
<trkpt lat="57.627244" lon="10.401118">
<ele>14.144642</ele>
<time>2026-07-17T10:45:45.000Z</time>
</trkpt>
<trkpt lat="57.627213" lon="10.401201">
<ele>14.189371</ele>
<time>2026-07-17T10:45:46.000Z</time>
</trkpt>
<trkpt lat="57.627180" lon="10.401280">
<ele>14.233657</ele>
<time>2026-07-17T10:45:47.000Z</time>
</trkpt>
<trkpt lat="57.627152" lon="10.401355">
<ele>14.274069</ele>
<time>2026-07-17T10:45:48.000Z</time>
</trkpt>
<trkpt lat="57.627126" lon="10.401422">
<ele>14.310642</ele>
<time>2026-07-17T10:45:49.000Z</time>
</trkpt>
<trkpt lat="57.627109" lon="10.401478">
<ele>14.339095</ele>
<time>2026-07-17T10:45:50.000Z</time>
</trkpt>
<trkpt lat="57.627102" lon="10.401524">
<ele>14.360232</ele>
<time>2026-07-17T10:45:51.000Z</time>
</trkpt>
<trkpt lat="57.627107" lon="10.401565">
<ele>14.378818</ele>
<time>2026-07-17T10:45:52.000Z</time>
</trkpt>
<trkpt lat="57.627119" lon="10.401594">
<ele>14.395017</ele>
<time>2026-07-17T10:45:53.000Z</time>
</trkpt>
<trkpt lat="57.627138" lon="10.401615">
<ele>14.413242</ele>
<time>2026-07-17T10:45:54.000Z</time>
</trkpt>
<trkpt lat="57.627157" lon="10.401627">
<ele>14.429799</ele>
<time>2026-07-17T10:45:55.000Z</time>
</trkpt>
<trkpt lat="57.627178" lon="10.401633">
<ele>14.447336</ele>
<time>2026-07-17T10:45:56.000Z</time>
</trkpt>
<trkpt lat="57.627204" lon="10.401633">
<ele>14.468798</ele>
<time>2026-07-17T10:45:57.000Z</time>
</trkpt>
<trkpt lat="57.627226" lon="10.401633">
<ele>14.486959</ele>
<time>2026-07-17T10:45:58.000Z</time>
</trkpt>
<trkpt lat="57.627245" lon="10.401633">
<ele>14.502644</ele>
<time>2026-07-17T10:45:59.000Z</time>
</trkpt>
<trkpt lat="57.627260" lon="10.401635">
<ele>14.515057</ele>
<time>2026-07-17T10:46:00.000Z</time>
</trkpt>
<trkpt lat="57.627276" lon="10.401639">
<ele>14.528383</ele>
<time>2026-07-17T10:46:01.000Z</time>
</trkpt>
<trkpt lat="57.627299" lon="10.401646">
<ele>14.547620</ele>
<time>2026-07-17T10:46:02.000Z</time>
</trkpt>
<trkpt lat="57.627322" lon="10.401656">
<ele>14.567114</ele>
<time>2026-07-17T10:46:03.000Z</time>
</trkpt>
<trkpt lat="57.627346" lon="10.401665">
<ele>14.587321</ele>
<time>2026-07-17T10:46:04.000Z</time>
</trkpt>
<trkpt lat="57.627376" lon="10.401677">
<ele>14.612647</ele>
<time>2026-07-17T10:46:05.000Z</time>
</trkpt>
<trkpt lat="57.627402" lon="10.401690">
<ele>14.634866</ele>
<time>2026-07-17T10:46:06.000Z</time>
</trkpt>
<trkpt lat="57.627424" lon="10.401703">
<ele>14.653914</ele>
<time>2026-07-17T10:46:07.000Z</time>
</trkpt>
<trkpt lat="57.627443" lon="10.401719">
<ele>14.671119</ele>
<time>2026-07-17T10:46:08.000Z</time>
</trkpt>
<trkpt lat="57.627467" lon="10.401737">
<ele>14.692468</ele>
<time>2026-07-17T10:46:09.000Z</time>
</trkpt>
<trkpt lat="57.627490" lon="10.401748">
<ele>14.712067</ele>
<time>2026-07-17T10:46:10.000Z</time>
</trkpt>
<trkpt lat="57.627521" lon="10.401763">
<ele>14.738502</ele>
<time>2026-07-17T10:46:11.000Z</time>
</trkpt>
<trkpt lat="57.627547" lon="10.401773">
<ele>14.760415</ele>
<time>2026-07-17T10:46:12.000Z</time>
</trkpt>
<trkpt lat="57.627574" lon="10.401784">
<ele>14.783228</ele>
<time>2026-07-17T10:46:13.000Z</time>
</trkpt>
<trkpt lat="57.627597" lon="10.401793">
<ele>14.802626</ele>
<time>2026-07-17T10:46:14.000Z</time>
</trkpt>
<trkpt lat="57.627624" lon="10.401794">
<ele>14.824919</ele>
<time>2026-07-17T10:46:15.000Z</time>
</trkpt>
<trkpt lat="57.627654" lon="10.401796">
<ele>14.849699</ele>
<time>2026-07-17T10:46:16.000Z</time>
</trkpt>
<trkpt lat="57.627681" lon="10.401799">
<ele>14.872027</ele>
<time>2026-07-17T10:46:17.000Z</time>
</trkpt>
<trkpt lat="57.627711" lon="10.401804">
<ele>14.896890</ele>
<time>2026-07-17T10:46:18.000Z</time>
</trkpt>
<trkpt lat="57.627742" lon="10.401813">
<ele>14.922788</ele>
<time>2026-07-17T10:46:19.000Z</time>
</trkpt>
<trkpt lat="57.627773" lon="10.401823">
<ele>14.939650</ele>
<time>2026-07-17T10:46:20.000Z</time>
</trkpt>
<trkpt lat="57.627808" lon="10.401835">
<ele>14.943759</ele>
<time>2026-07-17T10:46:21.000Z</time>
</trkpt>
<trkpt lat="57.627842" lon="10.401845">
<ele>14.947732</ele>
<time>2026-07-17T10:46:22.000Z</time>
</trkpt>
<trkpt lat="57.627889" lon="10.401865">
<ele>14.953297</ele>
<time>2026-07-17T10:46:23.000Z</time>
</trkpt>
<trkpt lat="57.627930" lon="10.401880">
<ele>14.958120</ele>
<time>2026-07-17T10:46:24.000Z</time>
</trkpt>
<trkpt lat="57.627968" lon="10.401899">
<ele>14.962662</ele>
<time>2026-07-17T10:46:25.000Z</time>
</trkpt>
<trkpt lat="57.628004" lon="10.401921">
<ele>14.967035</ele>
<time>2026-07-17T10:46:26.000Z</time>
</trkpt>
<trkpt lat="57.628047" lon="10.401941">
<ele>14.972150</ele>
<time>2026-07-17T10:46:27.000Z</time>
</trkpt>
<trkpt lat="57.628107" lon="10.401966">
<ele>14.979247</ele>
<time>2026-07-17T10:46:28.000Z</time>
</trkpt>
<trkpt lat="57.628167" lon="10.401990">
<ele>14.986331</ele>
<time>2026-07-17T10:46:29.000Z</time>
</trkpt>
<trkpt lat="57.628226" lon="10.402015">
<ele>14.993316</ele>
<time>2026-07-17T10:46:30.000Z</time>
</trkpt>
<trkpt lat="57.628266" lon="10.402027">
<ele>14.997993</ele>
<time>2026-07-17T10:46:31.000Z</time>
</trkpt>
<trkpt lat="57.628306" lon="10.402027">
<ele>15.002611</ele>
<time>2026-07-17T10:46:32.000Z</time>
</trkpt>
<trkpt lat="57.628346" lon="10.402027">
<ele>15.007228</ele>
<time>2026-07-17T10:46:33.000Z</time>
</trkpt>
<trkpt lat="57.628383" lon="10.402030">
<ele>15.011504</ele>
<time>2026-07-17T10:46:34.000Z</time>
</trkpt>
<trkpt lat="57.628427" lon="10.402029">
<ele>15.016584</ele>
<time>2026-07-17T10:46:35.000Z</time>
</trkpt>
<trkpt lat="57.628470" lon="10.402022">
<ele>15.021567</ele>
<time>2026-07-17T10:46:36.000Z</time>
</trkpt>
<trkpt lat="57.628515" lon="10.402026">
<ele>15.026768</ele>
<time>2026-07-17T10:46:37.000Z</time>
</trkpt>
<trkpt lat="57.628559" lon="10.402030">
<ele>15.031853</ele>
<time>2026-07-17T10:46:38.000Z</time>
</trkpt>
<trkpt lat="57.628607" lon="10.402034">
<ele>15.037400</ele>
<time>2026-07-17T10:46:39.000Z</time>
</trkpt>
<trkpt lat="57.628654" lon="10.402030">
<ele>15.042832</ele>
<time>2026-07-17T10:46:40.000Z</time>
</trkpt>
<trkpt lat="57.628697" lon="10.402032">
<ele>15.047798</ele>
<time>2026-07-17T10:46:41.000Z</time>
</trkpt>
<trkpt lat="57.628743" lon="10.402036">
<ele>15.053114</ele>
<time>2026-07-17T10:46:42.000Z</time>
</trkpt>
<trkpt lat="57.628785" lon="10.402043">
<ele>15.057982</ele>
<time>2026-07-17T10:46:43.000Z</time>
</trkpt>
<trkpt lat="57.628835" lon="10.402046">
<ele>15.063757</ele>
<time>2026-07-17T10:46:44.000Z</time>
</trkpt>
<trkpt lat="57.628878" lon="10.402046">
<ele>15.068721</ele>
<time>2026-07-17T10:46:45.000Z</time>
</trkpt>
<trkpt lat="57.628920" lon="10.402050">
<ele>15.073576</ele>
<time>2026-07-17T10:46:46.000Z</time>
</trkpt>
<trkpt lat="57.628963" lon="10.402052">
<ele>15.078542</ele>
<time>2026-07-17T10:46:47.000Z</time>
</trkpt>
<trkpt lat="57.628998" lon="10.402053">
<ele>15.082583</ele>
<time>2026-07-17T10:46:48.000Z</time>
</trkpt>
<trkpt lat="57.629043" lon="10.402059">
<ele>15.087791</ele>
<time>2026-07-17T10:46:49.000Z</time>
</trkpt>
<trkpt lat="57.629080" lon="10.402064">
<ele>15.092074</ele>
<time>2026-07-17T10:46:50.000Z</time>
</trkpt>
<trkpt lat="57.629124" lon="10.402070">
<ele>15.097167</ele>
<time>2026-07-17T10:46:51.000Z</time>
</trkpt>
<trkpt lat="57.629162" lon="10.402073">
<ele>15.101558</ele>
<time>2026-07-17T10:46:52.000Z</time>
</trkpt>
<trkpt lat="57.629209" lon="10.402072">
<ele>15.106984</ele>
<time>2026-07-17T10:46:53.000Z</time>
</trkpt>
<trkpt lat="57.629250" lon="10.402070">
<ele>15.111719</ele>
<time>2026-07-17T10:46:54.000Z</time>
</trkpt>
<trkpt lat="57.629292" lon="10.402072">
<ele>15.116570</ele>
<time>2026-07-17T10:46:55.000Z</time>
</trkpt>
<trkpt lat="57.629334" lon="10.402075">
<ele>15.121422</ele>
<time>2026-07-17T10:46:56.000Z</time>
</trkpt>
<trkpt lat="57.629377" lon="10.402079">
<ele>15.126392</ele>
<time>2026-07-17T10:46:57.000Z</time>
</trkpt>
<trkpt lat="57.629421" lon="10.402086">
<ele>15.131490</ele>
<time>2026-07-17T10:46:58.000Z</time>
</trkpt>
<trkpt lat="57.629464" lon="10.402088">
<ele>15.136456</ele>
<time>2026-07-17T10:46:59.000Z</time>
</trkpt>
<trkpt lat="57.629506" lon="10.402088">
<ele>15.141305</ele>
<time>2026-07-17T10:47:00.000Z</time>
</trkpt>
<trkpt lat="57.629547" lon="10.402090">
<ele>15.146036</ele>
<time>2026-07-17T10:47:01.000Z</time>
</trkpt>
<trkpt lat="57.629585" lon="10.402092">
<ele>15.150345</ele>
<time>2026-07-17T10:47:02.000Z</time>
</trkpt>
<trkpt lat="57.629626" lon="10.402092">
<ele>15.154993</ele>
<time>2026-07-17T10:47:03.000Z</time>
</trkpt>
<trkpt lat="57.629661" lon="10.402092">
<ele>15.158961</ele>
<time>2026-07-17T10:47:04.000Z</time>
</trkpt>
<trkpt lat="57.629695" lon="10.402092">
<ele>15.162816</ele>
<time>2026-07-17T10:47:05.000Z</time>
</trkpt>
<trkpt lat="57.629726" lon="10.402095">
<ele>15.166335</ele>
<time>2026-07-17T10:47:06.000Z</time>
</trkpt>
<trkpt lat="57.629756" lon="10.402100">
<ele>15.169749</ele>
<time>2026-07-17T10:47:07.000Z</time>
</trkpt>
<trkpt lat="57.629796" lon="10.402104">
<ele>15.174291</ele>
<time>2026-07-17T10:47:08.000Z</time>
</trkpt>
<trkpt lat="57.629834" lon="10.402107">
<ele>15.178602</ele>
<time>2026-07-17T10:47:09.000Z</time>
</trkpt>
<trkpt lat="57.629876" lon="10.402108">
<ele>15.183364</ele>
<time>2026-07-17T10:47:10.000Z</time>
</trkpt>
<trkpt lat="57.629917" lon="10.402108">
<ele>15.188012</ele>
<time>2026-07-17T10:47:11.000Z</time>
</trkpt>
<trkpt lat="57.629964" lon="10.402108">
<ele>15.193341</ele>
<time>2026-07-17T10:47:12.000Z</time>
</trkpt>
<trkpt lat="57.630005" lon="10.402106">
<ele>15.197990</ele>
<time>2026-07-17T10:47:13.000Z</time>
</trkpt>
<trkpt lat="57.630053" lon="10.402113">
<ele>15.203449</ele>
<time>2026-07-17T10:47:14.000Z</time>
</trkpt>
<trkpt lat="57.630097" lon="10.402117">
<ele>15.208443</ele>
<time>2026-07-17T10:47:15.000Z</time>
</trkpt>
<trkpt lat="57.630139" lon="10.402120">
<ele>15.213208</ele>
<time>2026-07-17T10:47:16.000Z</time>
</trkpt>
<trkpt lat="57.630179" lon="10.402125">
<ele>15.217753</ele>
<time>2026-07-17T10:47:17.000Z</time>
</trkpt>
<trkpt lat="57.630227" lon="10.402127">
<ele>15.223196</ele>
<time>2026-07-17T10:47:18.000Z</time>
</trkpt>
<trkpt lat="57.630271" lon="10.402133">
<ele>15.228197</ele>
<time>2026-07-17T10:47:19.000Z</time>
</trkpt>
<trkpt lat="57.630317" lon="10.402137">
<ele>15.233418</ele>
<time>2026-07-17T10:47:20.000Z</time>
</trkpt>
<trkpt lat="57.630369" lon="10.402139">
<ele>15.239314</ele>
<time>2026-07-17T10:47:21.000Z</time>
</trkpt>
<trkpt lat="57.630415" lon="10.402144">
<ele>15.244538</ele>
<time>2026-07-17T10:47:22.000Z</time>
</trkpt>
<trkpt lat="57.630464" lon="10.402149">
<ele>15.250101</ele>
<time>2026-07-17T10:47:23.000Z</time>
</trkpt>
<trkpt lat="57.630515" lon="10.402153">
<ele>15.255888</ele>
<time>2026-07-17T10:47:24.000Z</time>
</trkpt>
<trkpt lat="57.630567" lon="10.402157">
<ele>15.261788</ele>
<time>2026-07-17T10:47:25.000Z</time>
</trkpt>
<trkpt lat="57.630616" lon="10.402159">
<ele>15.267345</ele>
<time>2026-07-17T10:47:26.000Z</time>
</trkpt>
<trkpt lat="57.630661" lon="10.402160">
<ele>15.272447</ele>
<time>2026-07-17T10:47:27.000Z</time>
</trkpt>
<trkpt lat="57.630710" lon="10.402162">
<ele>15.278003</ele>
<time>2026-07-17T10:47:28.000Z</time>
</trkpt>
<trkpt lat="57.630762" lon="10.402166">
<ele>15.283903</ele>
<time>2026-07-17T10:47:29.000Z</time>
</trkpt>
<trkpt lat="57.630811" lon="10.402173">
<ele>15.289474</ele>
<time>2026-07-17T10:47:30.000Z</time>
</trkpt>
<trkpt lat="57.630858" lon="10.402179">
<ele>15.294815</ele>
<time>2026-07-17T10:47:31.000Z</time>
</trkpt>
<trkpt lat="57.630910" lon="10.402184">
<ele>15.300718</ele>
<time>2026-07-17T10:47:32.000Z</time>
</trkpt>
<trkpt lat="57.630955" lon="10.402186">
<ele>15.305821</ele>
<time>2026-07-17T10:47:33.000Z</time>
</trkpt>
<trkpt lat="57.631014" lon="10.402193">
<ele>15.312523</ele>
<time>2026-07-17T10:47:34.000Z</time>
</trkpt>
<trkpt lat="57.631068" lon="10.402197">
<ele>15.318650</ele>
<time>2026-07-17T10:47:35.000Z</time>
</trkpt>
<trkpt lat="57.631120" lon="10.402199">
<ele>15.324546</ele>
<time>2026-07-17T10:47:36.000Z</time>
</trkpt>
<trkpt lat="57.631170" lon="10.402200">
<ele>15.330215</ele>
<time>2026-07-17T10:47:37.000Z</time>
</trkpt>
<trkpt lat="57.631224" lon="10.402204">
<ele>15.336342</ele>
<time>2026-07-17T10:47:38.000Z</time>
</trkpt>
<trkpt lat="57.631277" lon="10.402207">
<ele>15.342353</ele>
<time>2026-07-17T10:47:39.000Z</time>
</trkpt>
<trkpt lat="57.631325" lon="10.402211">
<ele>15.347800</ele>
<time>2026-07-17T10:47:40.000Z</time>
</trkpt>
<trkpt lat="57.631379" lon="10.402216">
<ele>15.359389</ele>
<time>2026-07-17T10:47:41.000Z</time>
</trkpt>
<trkpt lat="57.631433" lon="10.402222">
<ele>15.373484</ele>
<time>2026-07-17T10:47:42.000Z</time>
</trkpt>
<trkpt lat="57.631487" lon="10.402229">
<ele>15.387588</ele>
<time>2026-07-17T10:47:43.000Z</time>
</trkpt>
<trkpt lat="57.631537" lon="10.402233">
<ele>15.400628</ele>
<time>2026-07-17T10:47:44.000Z</time>
</trkpt>
<trkpt lat="57.631598" lon="10.402238">
<ele>15.416538</ele>
<time>2026-07-17T10:47:45.000Z</time>
</trkpt>
<trkpt lat="57.631651" lon="10.402246">
<ele>15.430393</ele>
<time>2026-07-17T10:47:46.000Z</time>
</trkpt>
<trkpt lat="57.631700" lon="10.402256">
<ele>15.443236</ele>
<time>2026-07-17T10:47:47.000Z</time>
</trkpt>
<trkpt lat="57.631749" lon="10.402270">
<ele>15.456152</ele>
<time>2026-07-17T10:47:48.000Z</time>
</trkpt>
<trkpt lat="57.631803" lon="10.402287">
<ele>15.470421</ele>
<time>2026-07-17T10:47:49.000Z</time>
</trkpt>
<trkpt lat="57.631853" lon="10.402309">
<ele>15.483806</ele>
<time>2026-07-17T10:47:50.000Z</time>
</trkpt>
<trkpt lat="57.631906" lon="10.402333">
<ele>15.498016</ele>
<time>2026-07-17T10:47:51.000Z</time>
</trkpt>
<trkpt lat="57.631956" lon="10.402361">
<ele>15.511617</ele>
<time>2026-07-17T10:47:52.000Z</time>
</trkpt>
<trkpt lat="57.632004" lon="10.402391">
<ele>15.524805</ele>
<time>2026-07-17T10:47:53.000Z</time>
</trkpt>
<trkpt lat="57.632050" lon="10.402423">
<ele>15.537595</ele>
<time>2026-07-17T10:47:54.000Z</time>
</trkpt>
<trkpt lat="57.632093" lon="10.402452">
<ele>15.549508</ele>
<time>2026-07-17T10:47:55.000Z</time>
</trkpt>
<trkpt lat="57.632143" lon="10.402484">
<ele>15.563279</ele>
<time>2026-07-17T10:47:56.000Z</time>
</trkpt>
<trkpt lat="57.632192" lon="10.402519">
<ele>15.576948</ele>
<time>2026-07-17T10:47:57.000Z</time>
</trkpt>
<trkpt lat="57.632238" lon="10.402548">
<ele>15.589599</ele>
<time>2026-07-17T10:47:58.000Z</time>
</trkpt>
<trkpt lat="57.632284" lon="10.402571">
<ele>15.602006</ele>
<time>2026-07-17T10:47:59.000Z</time>
</trkpt>
<trkpt lat="57.632330" lon="10.402582">
<ele>15.614090</ele>
<time>2026-07-17T10:48:00.000Z</time>
</trkpt>
<trkpt lat="57.632380" lon="10.402584">
<ele>15.627121</ele>
<time>2026-07-17T10:48:01.000Z</time>
</trkpt>
<trkpt lat="57.632429" lon="10.402578">
<ele>15.639916</ele>
<time>2026-07-17T10:48:02.000Z</time>
</trkpt>
<trkpt lat="57.632474" lon="10.402562">
<ele>15.651852</ele>
<time>2026-07-17T10:48:03.000Z</time>
</trkpt>
<trkpt lat="57.632519" lon="10.402534">
<ele>15.664211</ele>
<time>2026-07-17T10:48:04.000Z</time>
</trkpt>
<trkpt lat="57.632561" lon="10.402492">
<ele>15.676624</ele>
<time>2026-07-17T10:48:05.000Z</time>
</trkpt>
<trkpt lat="57.632594" lon="10.402439">
<ele>15.687964</ele>
<time>2026-07-17T10:48:06.000Z</time>
</trkpt>
<trkpt lat="57.632615" lon="10.402368">
<ele>15.699279</ele>
<time>2026-07-17T10:48:07.000Z</time>
</trkpt>
<trkpt lat="57.632622" lon="10.402290">
<ele>15.710311</ele>
<time>2026-07-17T10:48:08.000Z</time>
</trkpt>
<trkpt lat="57.632620" lon="10.402211">
<ele>15.721343</ele>
<time>2026-07-17T10:48:09.000Z</time>
</trkpt>
<trkpt lat="57.632609" lon="10.402153">
<ele>15.729926</ele>
<time>2026-07-17T10:48:10.000Z</time>
</trkpt>
<trkpt lat="57.632581" lon="10.402063">
<ele>15.744446</ele>
<time>2026-07-17T10:48:11.000Z</time>
</trkpt>
<trkpt lat="57.632554" lon="10.401996">
<ele>15.756144</ele>
<time>2026-07-17T10:48:12.000Z</time>
</trkpt>
<trkpt lat="57.632528" lon="10.401925">
<ele>15.768144</ele>
<time>2026-07-17T10:48:13.000Z</time>
</trkpt>
<trkpt lat="57.632505" lon="10.401848">
<ele>15.780443</ele>
<time>2026-07-17T10:48:14.000Z</time>
</trkpt>
<trkpt lat="57.632482" lon="10.401766">
<ele>15.793356</ele>
<time>2026-07-17T10:48:15.000Z</time>
</trkpt>
<trkpt lat="57.632464" lon="10.401686">
<ele>15.805461</ele>
<time>2026-07-17T10:48:16.000Z</time>
</trkpt>
<trkpt lat="57.632448" lon="10.401601">
<ele>15.818030</ele>
<time>2026-07-17T10:48:17.000Z</time>
</trkpt>
<trkpt lat="57.632433" lon="10.401516">
<ele>15.852742</ele>
<time>2026-07-17T10:48:18.000Z</time>
</trkpt>
<trkpt lat="57.632422" lon="10.401428">
<ele>15.888448</ele>
<time>2026-07-17T10:48:19.000Z</time>
</trkpt>
<trkpt lat="57.632407" lon="10.401340">
<ele>15.924938</ele>
<time>2026-07-17T10:48:20.000Z</time>
</trkpt>
<trkpt lat="57.632396" lon="10.401253">
<ele>15.960259</ele>
<time>2026-07-17T10:48:21.000Z</time>
</trkpt>
<trkpt lat="57.632388" lon="10.401160">
<ele>15.997476</ele>
<time>2026-07-17T10:48:22.000Z</time>
</trkpt>
<trkpt lat="57.632380" lon="10.401068">
<ele>16.034303</ele>
<time>2026-07-17T10:48:23.000Z</time>
</trkpt>
<trkpt lat="57.632369" lon="10.400972">
<ele>16.073094</ele>
<time>2026-07-17T10:48:24.000Z</time>
</trkpt>
<trkpt lat="57.632361" lon="10.400876">
<ele>16.111482</ele>
<time>2026-07-17T10:48:25.000Z</time>
</trkpt>
<trkpt lat="57.632354" lon="10.400779">
<ele>16.150155</ele>
<time>2026-07-17T10:48:26.000Z</time>
</trkpt>
<trkpt lat="57.632346" lon="10.400682">
<ele>16.188933</ele>
<time>2026-07-17T10:48:27.000Z</time>
</trkpt>
<trkpt lat="57.632339" lon="10.400591">
<ele>16.225258</ele>
<time>2026-07-17T10:48:28.000Z</time>
</trkpt>
<trkpt lat="57.632327" lon="10.400489">
<ele>16.266522</ele>
<time>2026-07-17T10:48:29.000Z</time>
</trkpt>
<trkpt lat="57.632316" lon="10.400392">
<ele>16.305699</ele>
<time>2026-07-17T10:48:30.000Z</time>
</trkpt>
<trkpt lat="57.632308" lon="10.400291">
<ele>16.346040</ele>
<time>2026-07-17T10:48:31.000Z</time>
</trkpt>
<trkpt lat="57.632300" lon="10.400194">
<ele>16.384819</ele>
<time>2026-07-17T10:48:32.000Z</time>
</trkpt>
<trkpt lat="57.632290" lon="10.400107">
<ele>16.419977</ele>
<time>2026-07-17T10:48:33.000Z</time>
</trkpt>
<trkpt lat="57.632281" lon="10.399997">
<ele>16.463945</ele>
<time>2026-07-17T10:48:34.000Z</time>
</trkpt>
<trkpt lat="57.632274" lon="10.399904">
<ele>16.501052</ele>
<time>2026-07-17T10:48:35.000Z</time>
</trkpt>
<trkpt lat="57.632271" lon="10.399815">
<ele>16.536287</ele>
<time>2026-07-17T10:48:36.000Z</time>
</trkpt>
<trkpt lat="57.632272" lon="10.399725">
<ele>16.571856</ele>
<time>2026-07-17T10:48:37.000Z</time>
</trkpt>
<trkpt lat="57.632284" lon="10.399651">
<ele>16.602406</ele>
<time>2026-07-17T10:48:38.000Z</time>
</trkpt>
<trkpt lat="57.632305" lon="10.399586">
<ele>16.632403</ele>
<time>2026-07-17T10:48:39.000Z</time>
</trkpt>
<trkpt lat="57.632335" lon="10.399538">
<ele>16.661557</ele>
<time>2026-07-17T10:48:40.000Z</time>
</trkpt>
<trkpt lat="57.632366" lon="10.399504">
<ele>16.688089</ele>
<time>2026-07-17T10:48:41.000Z</time>
</trkpt>
<trkpt lat="57.632404" lon="10.399486">
<ele>16.717023</ele>
<time>2026-07-17T10:48:42.000Z</time>
</trkpt>
<trkpt lat="57.632451" lon="10.399476">
<ele>16.751936</ele>
<time>2026-07-17T10:48:43.000Z</time>
</trkpt>
<trkpt lat="57.632491" lon="10.399466">
<ele>16.781721</ele>
<time>2026-07-17T10:48:44.000Z</time>
</trkpt>
<trkpt lat="57.632535" lon="10.399454">
<ele>16.814540</ele>
<time>2026-07-17T10:48:45.000Z</time>
</trkpt>
<trkpt lat="57.632576" lon="10.399443">
<ele>16.845111</ele>
<time>2026-07-17T10:48:46.000Z</time>
</trkpt>
<trkpt lat="57.632623" lon="10.399429">
<ele>16.880238</ele>
<time>2026-07-17T10:48:47.000Z</time>
</trkpt>
<trkpt lat="57.632665" lon="10.399413">
<ele>16.911874</ele>
<time>2026-07-17T10:48:48.000Z</time>
</trkpt>
<trkpt lat="57.632711" lon="10.399398">
<ele>16.946338</ele>
<time>2026-07-17T10:48:49.000Z</time>
</trkpt>
<trkpt lat="57.632756" lon="10.399387">
<ele>16.979833</ele>
<time>2026-07-17T10:48:50.000Z</time>
</trkpt>
<trkpt lat="57.632802" lon="10.399373">
<ele>17.014232</ele>
<time>2026-07-17T10:48:51.000Z</time>
</trkpt>
<trkpt lat="57.632850" lon="10.399359">
<ele>17.050088</ele>
<time>2026-07-17T10:48:52.000Z</time>
</trkpt>
<trkpt lat="57.632894" lon="10.399343">
<ele>17.083171</ele>
<time>2026-07-17T10:48:53.000Z</time>
</trkpt>
<trkpt lat="57.632939" lon="10.399327">
<ele>17.116980</ele>
<time>2026-07-17T10:48:54.000Z</time>
</trkpt>
<trkpt lat="57.632980" lon="10.399312">
<ele>17.145587</ele>
<time>2026-07-17T10:48:55.000Z</time>
</trkpt>
<trkpt lat="57.633023" lon="10.399298">
<ele>17.140702</ele>
<time>2026-07-17T10:48:56.000Z</time>
</trkpt>
<trkpt lat="57.633061" lon="10.399286">
<ele>17.136388</ele>
<time>2026-07-17T10:48:57.000Z</time>
</trkpt>
<trkpt lat="57.633111" lon="10.399275">
<ele>17.130753</ele>
<time>2026-07-17T10:48:58.000Z</time>
</trkpt>
<trkpt lat="57.633152" lon="10.399262">
<ele>17.126099</ele>
<time>2026-07-17T10:48:59.000Z</time>
</trkpt>
<trkpt lat="57.633195" lon="10.399249">
<ele>17.121223</ele>
<time>2026-07-17T10:49:00.000Z</time>
</trkpt>
<trkpt lat="57.633236" lon="10.399239">
<ele>17.116596</ele>
<time>2026-07-17T10:49:01.000Z</time>
</trkpt>
<trkpt lat="57.633286" lon="10.399232">
<ele>17.110984</ele>
<time>2026-07-17T10:49:02.000Z</time>
</trkpt>
<trkpt lat="57.633328" lon="10.399228">
<ele>17.106277</ele>
<time>2026-07-17T10:49:03.000Z</time>
</trkpt>
<trkpt lat="57.633370" lon="10.399225">
<ele>17.101573</ele>
<time>2026-07-17T10:49:04.000Z</time>
</trkpt>
<trkpt lat="57.633405" lon="10.399227">
<ele>17.097653</ele>
<time>2026-07-17T10:49:05.000Z</time>
</trkpt>
<trkpt lat="57.633441" lon="10.399232">
<ele>17.093613</ele>
<time>2026-07-17T10:49:06.000Z</time>
</trkpt>
<trkpt lat="57.633467" lon="10.399235">
<ele>17.090697</ele>
<time>2026-07-17T10:49:07.000Z</time>
</trkpt>
<trkpt lat="57.633493" lon="10.399242">
<ele>17.087757</ele>
<time>2026-07-17T10:49:08.000Z</time>
</trkpt>
<trkpt lat="57.633508" lon="10.399250">
<ele>17.086011</ele>
<time>2026-07-17T10:49:09.000Z</time>
</trkpt>
<trkpt lat="57.633516" lon="10.399254">
<ele>17.085085</ele>
<time>2026-07-17T10:49:49.000Z</time>
</trkpt>
<trkpt lat="57.633539" lon="10.399250">
<ele>17.082499</ele>
<time>2026-07-17T10:49:50.000Z</time>
</trkpt>
<trkpt lat="57.633563" lon="10.399249">
<ele>17.079812</ele>
<time>2026-07-17T10:49:51.000Z</time>
</trkpt>
<trkpt lat="57.633591" lon="10.399253">
<ele>17.076669</ele>
<time>2026-07-17T10:49:52.000Z</time>
</trkpt>
<trkpt lat="57.633624" lon="10.399266">
<ele>17.072895</ele>
<time>2026-07-17T10:49:53.000Z</time>
</trkpt>
<trkpt lat="57.633650" lon="10.399276">
<ele>17.069923</ele>
<time>2026-07-17T10:49:54.000Z</time>
</trkpt>
<trkpt lat="57.633693" lon="10.399286">
<ele>17.065074</ele>
<time>2026-07-17T10:49:55.000Z</time>
</trkpt>
<trkpt lat="57.633732" lon="10.399294">
<ele>17.060682</ele>
<time>2026-07-17T10:49:56.000Z</time>
</trkpt>
<trkpt lat="57.633775" lon="10.399303">
<ele>17.055840</ele>
<time>2026-07-17T10:49:57.000Z</time>
</trkpt>
<trkpt lat="57.633816" lon="10.399313">
<ele>17.051212</ele>
<time>2026-07-17T10:49:58.000Z</time>
</trkpt>
<trkpt lat="57.633858" lon="10.399325">
<ele>17.046456</ele>
<time>2026-07-17T10:49:59.000Z</time>
</trkpt>
<trkpt lat="57.633897" lon="10.399335">
<ele>17.042050</ele>
<time>2026-07-17T10:50:00.000Z</time>
</trkpt>
<trkpt lat="57.633946" lon="10.399346">
<ele>17.036527</ele>
<time>2026-07-17T10:50:01.000Z</time>
</trkpt>
<trkpt lat="57.633986" lon="10.399356">
<ele>17.032010</ele>
<time>2026-07-17T10:50:02.000Z</time>
</trkpt>
<trkpt lat="57.634034" lon="10.399364">
<ele>17.026616</ele>
<time>2026-07-17T10:50:03.000Z</time>
</trkpt>
<trkpt lat="57.634079" lon="10.399373">
<ele>17.021551</ele>
<time>2026-07-17T10:50:04.000Z</time>
</trkpt>
<trkpt lat="57.634129" lon="10.399380">
<ele>17.015939</ele>
<time>2026-07-17T10:50:05.000Z</time>
</trkpt>
<trkpt lat="57.634175" lon="10.399389">
<ele>17.010762</ele>
<time>2026-07-17T10:50:06.000Z</time>
</trkpt>
<trkpt lat="57.634220" lon="10.399400">
<ele>17.005683</ele>
<time>2026-07-17T10:50:07.000Z</time>
</trkpt>
<trkpt lat="57.634267" lon="10.399409">
<ele>17.000395</ele>
<time>2026-07-17T10:50:08.000Z</time>
</trkpt>
<trkpt lat="57.634312" lon="10.399418">
<ele>16.995329</ele>
<time>2026-07-17T10:50:09.000Z</time>
</trkpt>
<trkpt lat="57.634362" lon="10.399427">
<ele>16.989707</ele>
<time>2026-07-17T10:50:10.000Z</time>
</trkpt>
<trkpt lat="57.634408" lon="10.399438">
<ele>16.984517</ele>
<time>2026-07-17T10:50:11.000Z</time>
</trkpt>
<trkpt lat="57.634457" lon="10.399445">
<ele>16.979016</ele>
<time>2026-07-17T10:50:12.000Z</time>
</trkpt>
<trkpt lat="57.634507" lon="10.399454">
<ele>16.973394</ele>
<time>2026-07-17T10:50:13.000Z</time>
</trkpt>
<trkpt lat="57.634557" lon="10.399465">
<ele>16.967759</ele>
<time>2026-07-17T10:50:14.000Z</time>
</trkpt>
<trkpt lat="57.634605" lon="10.399474">
<ele>16.962360</ele>
<time>2026-07-17T10:50:15.000Z</time>
</trkpt>
<trkpt lat="57.634660" lon="10.399485">
<ele>16.956169</ele>
<time>2026-07-17T10:50:16.000Z</time>
</trkpt>
<trkpt lat="57.634708" lon="10.399496">
<ele>16.950756</ele>
<time>2026-07-17T10:50:17.000Z</time>
</trkpt>
<trkpt lat="57.634764" lon="10.399506">
<ele>16.944823</ele>
<time>2026-07-17T10:50:18.000Z</time>
</trkpt>
<trkpt lat="57.634812" lon="10.399516">
<ele>16.957361</ele>
<time>2026-07-17T10:50:19.000Z</time>
</trkpt>
<trkpt lat="57.634857" lon="10.399525">
<ele>16.969110</ele>
<time>2026-07-17T10:50:20.000Z</time>
</trkpt>
<trkpt lat="57.634916" lon="10.399536">
<ele>16.984503</ele>
<time>2026-07-17T10:50:21.000Z</time>
</trkpt>
<trkpt lat="57.634965" lon="10.399546">
<ele>16.997299</ele>
<time>2026-07-17T10:50:22.000Z</time>
</trkpt>
<trkpt lat="57.635016" lon="10.399554">
<ele>17.010585</ele>
<time>2026-07-17T10:50:23.000Z</time>
</trkpt>
<trkpt lat="57.635068" lon="10.399563">
<ele>17.024142</ele>
<time>2026-07-17T10:50:24.000Z</time>
</trkpt>
<trkpt lat="57.635118" lon="10.399569">
<ele>17.037149</ele>
<time>2026-07-17T10:50:25.000Z</time>
</trkpt>
<trkpt lat="57.635166" lon="10.399578">
<ele>17.049673</ele>
<time>2026-07-17T10:50:26.000Z</time>
</trkpt>
<trkpt lat="57.635217" lon="10.399588">
<ele>17.062985</ele>
<time>2026-07-17T10:50:27.000Z</time>
</trkpt>
<trkpt lat="57.635268" lon="10.399597">
<ele>17.076284</ele>
<time>2026-07-17T10:50:28.000Z</time>
</trkpt>
<trkpt lat="57.635320" lon="10.399606">
<ele>17.089841</ele>
<time>2026-07-17T10:50:29.000Z</time>
</trkpt>
<trkpt lat="57.635369" lon="10.399612">
<ele>17.102589</ele>
<time>2026-07-17T10:50:30.000Z</time>
</trkpt>
<trkpt lat="57.635421" lon="10.399621">
<ele>17.116146</ele>
<time>2026-07-17T10:50:31.000Z</time>
</trkpt>
<trkpt lat="57.635472" lon="10.399630">
<ele>17.129445</ele>
<time>2026-07-17T10:50:32.000Z</time>
</trkpt>
<trkpt lat="57.635522" lon="10.399639">
<ele>17.142485</ele>
<time>2026-07-17T10:50:33.000Z</time>
</trkpt>
<trkpt lat="57.635572" lon="10.399650">
<ele>17.155555</ele>
<time>2026-07-17T10:50:34.000Z</time>
</trkpt>
<trkpt lat="57.635622" lon="10.399662">
<ele>17.168642</ele>
<time>2026-07-17T10:50:35.000Z</time>
</trkpt>
<trkpt lat="57.635671" lon="10.399674">
<ele>17.181472</ele>
<time>2026-07-17T10:50:36.000Z</time>
</trkpt>
<trkpt lat="57.635717" lon="10.399683">
<ele>17.193479</ele>
<time>2026-07-17T10:50:37.000Z</time>
</trkpt>
<trkpt lat="57.635761" lon="10.399689">
<ele>17.204932</ele>
<time>2026-07-17T10:50:38.000Z</time>
</trkpt>
<trkpt lat="57.635808" lon="10.399697">
<ele>17.217184</ele>
<time>2026-07-17T10:50:39.000Z</time>
</trkpt>
<trkpt lat="57.635852" lon="10.399704">
<ele>17.228647</ele>
<time>2026-07-17T10:50:40.000Z</time>
</trkpt>
<trkpt lat="57.635892" lon="10.399711">
<ele>17.239077</ele>
<time>2026-07-17T10:50:41.000Z</time>
</trkpt>
<trkpt lat="57.635948" lon="10.399721">
<ele>17.253681</ele>
<time>2026-07-17T10:50:42.000Z</time>
</trkpt>
<trkpt lat="57.635992" lon="10.399732">
<ele>17.265206</ele>
<time>2026-07-17T10:50:43.000Z</time>
</trkpt>
<trkpt lat="57.636045" lon="10.399741">
<ele>17.279021</ele>
<time>2026-07-17T10:50:44.000Z</time>
</trkpt>
<trkpt lat="57.636094" lon="10.399747">
<ele>17.291769</ele>
<time>2026-07-17T10:50:45.000Z</time>
</trkpt>
<trkpt lat="57.636139" lon="10.399750">
<ele>17.303459</ele>
<time>2026-07-17T10:50:46.000Z</time>
</trkpt>
<trkpt lat="57.636182" lon="10.399755">
<ele>17.314643</ele>
<time>2026-07-17T10:50:47.000Z</time>
</trkpt>
<trkpt lat="57.636232" lon="10.399761">
<ele>17.327650</ele>
<time>2026-07-17T10:50:48.000Z</time>
</trkpt>
<trkpt lat="57.636282" lon="10.399766">
<ele>17.340649</ele>
<time>2026-07-17T10:50:49.000Z</time>
</trkpt>
<trkpt lat="57.636332" lon="10.399775">
<ele>17.353689</ele>
<time>2026-07-17T10:50:50.000Z</time>
</trkpt>
<trkpt lat="57.636385" lon="10.399786">
<ele>17.367533</ele>
<time>2026-07-17T10:50:51.000Z</time>
</trkpt>
<trkpt lat="57.636437" lon="10.399797">
<ele>17.381119</ele>
<time>2026-07-17T10:50:52.000Z</time>
</trkpt>
<trkpt lat="57.636497" lon="10.399809">
<ele>17.396784</ele>
<time>2026-07-17T10:50:53.000Z</time>
</trkpt>
<trkpt lat="57.636555" lon="10.399819">
<ele>17.410769</ele>
<time>2026-07-17T10:50:54.000Z</time>
</trkpt>
<trkpt lat="57.636613" lon="10.399833">
<ele>17.382976</ele>
<time>2026-07-17T10:50:55.000Z</time>
</trkpt>
<trkpt lat="57.636675" lon="10.399850">
<ele>17.353196</ele>
<time>2026-07-17T10:50:56.000Z</time>
</trkpt>
<trkpt lat="57.636736" lon="10.399865">
<ele>17.323957</ele>
<time>2026-07-17T10:50:57.000Z</time>
</trkpt>
<trkpt lat="57.636791" lon="10.399879">
<ele>17.297577</ele>
<time>2026-07-17T10:50:58.000Z</time>
</trkpt>
<trkpt lat="57.636854" lon="10.399891">
<ele>17.267482</ele>
<time>2026-07-17T10:50:59.000Z</time>
</trkpt>
<trkpt lat="57.636912" lon="10.399903">
<ele>17.239750</ele>
<time>2026-07-17T10:51:00.000Z</time>
</trkpt>
<trkpt lat="57.636972" lon="10.399915">
<ele>17.211073</ele>
<time>2026-07-17T10:51:01.000Z</time>
</trkpt>
<trkpt lat="57.637031" lon="10.399929">
<ele>17.182809</ele>
<time>2026-07-17T10:51:02.000Z</time>
</trkpt>
<trkpt lat="57.637092" lon="10.399940">
<ele>17.153685</ele>
<time>2026-07-17T10:51:03.000Z</time>
</trkpt>
<trkpt lat="57.637149" lon="10.399949">
<ele>17.126500</ele>
<time>2026-07-17T10:51:04.000Z</time>
</trkpt>
<trkpt lat="57.637204" lon="10.399958">
<ele>17.100262</ele>
<time>2026-07-17T10:51:05.000Z</time>
</trkpt>
<trkpt lat="57.637262" lon="10.399969">
<ele>17.072556</ele>
<time>2026-07-17T10:51:06.000Z</time>
</trkpt>
<trkpt lat="57.637317" lon="10.399980">
<ele>17.046269</ele>
<time>2026-07-17T10:51:07.000Z</time>
</trkpt>
<trkpt lat="57.637382" lon="10.399993">
<ele>17.015202</ele>
<time>2026-07-17T10:51:08.000Z</time>
</trkpt>
<trkpt lat="57.637441" lon="10.400002">
<ele>16.987070</ele>
<time>2026-07-17T10:51:09.000Z</time>
</trkpt>
<trkpt lat="57.637499" lon="10.400013">
<ele>16.959365</ele>
<time>2026-07-17T10:51:10.000Z</time>
</trkpt>
<trkpt lat="57.637555" lon="10.400026">
<ele>16.932547</ele>
<time>2026-07-17T10:51:11.000Z</time>
</trkpt>
<trkpt lat="57.637616" lon="10.400038">
<ele>16.903397</ele>
<time>2026-07-17T10:51:12.000Z</time>
</trkpt>
<trkpt lat="57.637670" lon="10.400049">
<ele>16.877583</ele>
<time>2026-07-17T10:51:13.000Z</time>
</trkpt>
<trkpt lat="57.637725" lon="10.400060">
<ele>16.851295</ele>
<time>2026-07-17T10:51:14.000Z</time>
</trkpt>
<trkpt lat="57.637785" lon="10.400074">
<ele>16.822560</ele>
<time>2026-07-17T10:51:15.000Z</time>
</trkpt>
<trkpt lat="57.637841" lon="10.400086">
<ele>16.795772</ele>
<time>2026-07-17T10:51:16.000Z</time>
</trkpt>
<trkpt lat="57.637901" lon="10.400098">
<ele>16.767095</ele>
<time>2026-07-17T10:51:17.000Z</time>
</trkpt>
<trkpt lat="57.637960" lon="10.400109">
<ele>16.738917</ele>
<time>2026-07-17T10:51:18.000Z</time>
</trkpt>
<trkpt lat="57.638019" lon="10.400121">
<ele>16.710712</ele>
<time>2026-07-17T10:51:19.000Z</time>
</trkpt>
<trkpt lat="57.638080" lon="10.400132">
<ele>16.681588</ele>
<time>2026-07-17T10:51:20.000Z</time>
</trkpt>
<trkpt lat="57.638140" lon="10.400143">
<ele>16.652937</ele>
<time>2026-07-17T10:51:21.000Z</time>
</trkpt>
<trkpt lat="57.638198" lon="10.400151">
<ele>16.625298</ele>
<time>2026-07-17T10:51:22.000Z</time>
</trkpt>
<trkpt lat="57.638259" lon="10.400159">
<ele>16.596238</ele>
<time>2026-07-17T10:51:23.000Z</time>
</trkpt>
<trkpt lat="57.638319" lon="10.400171">
<ele>16.567561</ele>
<time>2026-07-17T10:51:24.000Z</time>
</trkpt>
<trkpt lat="57.638373" lon="10.400182">
<ele>16.569267</ele>
<time>2026-07-17T10:51:25.000Z</time>
</trkpt>
<trkpt lat="57.638434" lon="10.400197">
<ele>16.593750</ele>
<time>2026-07-17T10:51:26.000Z</time>
</trkpt>
<trkpt lat="57.638491" lon="10.400209">
<ele>16.616576</ele>
<time>2026-07-17T10:51:27.000Z</time>
</trkpt>
<trkpt lat="57.638549" lon="10.400219">
<ele>16.639753</ele>
<time>2026-07-17T10:51:28.000Z</time>
</trkpt>
<trkpt lat="57.638610" lon="10.400232">
<ele>16.664184</ele>
<time>2026-07-17T10:51:29.000Z</time>
</trkpt>
<trkpt lat="57.638667" lon="10.400245">
<ele>16.687035</ele>
<time>2026-07-17T10:51:30.000Z</time>
</trkpt>
<trkpt lat="57.638727" lon="10.400258">
<ele>16.711070</ele>
<time>2026-07-17T10:51:31.000Z</time>
</trkpt>
<trkpt lat="57.638780" lon="10.400270">
<ele>16.732315</ele>
<time>2026-07-17T10:51:32.000Z</time>
</trkpt>
<trkpt lat="57.638841" lon="10.400281">
<ele>16.756701</ele>
<time>2026-07-17T10:51:33.000Z</time>
</trkpt>
<trkpt lat="57.638899" lon="10.400291">
<ele>16.779879</ele>
<time>2026-07-17T10:51:34.000Z</time>
</trkpt>
<trkpt lat="57.638953" lon="10.400299">
<ele>16.801434</ele>
<time>2026-07-17T10:51:35.000Z</time>
</trkpt>
<trkpt lat="57.639010" lon="10.400310">
<ele>16.824237</ele>
<time>2026-07-17T10:51:36.000Z</time>
</trkpt>
<trkpt lat="57.639063" lon="10.400320">
<ele>16.845434</ele>
<time>2026-07-17T10:51:37.000Z</time>
</trkpt>
<trkpt lat="57.639125" lon="10.400331">
<ele>16.870217</ele>
<time>2026-07-17T10:51:38.000Z</time>
</trkpt>
<trkpt lat="57.639184" lon="10.400343">
<ele>16.893833</ele>
<time>2026-07-17T10:51:39.000Z</time>
</trkpt>
<trkpt lat="57.639243" lon="10.400353">
<ele>16.917407</ele>
<time>2026-07-17T10:51:40.000Z</time>
</trkpt>
<trkpt lat="57.639299" lon="10.400363">
<ele>16.939793</ele>
<time>2026-07-17T10:51:41.000Z</time>
</trkpt>
<trkpt lat="57.639355" lon="10.400374">
<ele>16.962200</ele>
<time>2026-07-17T10:51:42.000Z</time>
</trkpt>
<trkpt lat="57.639413" lon="10.400386">
<ele>16.985420</ele>
<time>2026-07-17T10:51:43.000Z</time>
</trkpt>
<trkpt lat="57.639466" lon="10.400399">
<ele>17.006692</ele>
<time>2026-07-17T10:51:44.000Z</time>
</trkpt>
<trkpt lat="57.639520" lon="10.400411">
<ele>17.028331</ele>
<time>2026-07-17T10:51:45.000Z</time>
</trkpt>
<trkpt lat="57.639572" lon="10.400421">
<ele>17.049133</ele>
<time>2026-07-17T10:51:46.000Z</time>
</trkpt>
<trkpt lat="57.639632" lon="10.400435">
<ele>17.073194</ele>
<time>2026-07-17T10:51:47.000Z</time>
</trkpt>
<trkpt lat="57.639685" lon="10.400444">
<ele>17.094371</ele>
<time>2026-07-17T10:51:48.000Z</time>
</trkpt>
<trkpt lat="57.639742" lon="10.400455">
<ele>17.117173</ele>
<time>2026-07-17T10:51:49.000Z</time>
</trkpt>
<trkpt lat="57.639794" lon="10.400464">
<ele>17.137954</ele>
<time>2026-07-17T10:51:50.000Z</time>
</trkpt>
<trkpt lat="57.639851" lon="10.400477">
<ele>17.160804</ele>
<time>2026-07-17T10:51:51.000Z</time>
</trkpt>
<trkpt lat="57.639906" lon="10.400489">
<ele>17.182839</ele>
<time>2026-07-17T10:51:52.000Z</time>
</trkpt>
<trkpt lat="57.639958" lon="10.400495">
<ele>17.203571</ele>
<time>2026-07-17T10:51:53.000Z</time>
</trkpt>
<trkpt lat="57.640013" lon="10.400501">
<ele>17.225494</ele>
<time>2026-07-17T10:51:54.000Z</time>
</trkpt>
<trkpt lat="57.640066" lon="10.400509">
<ele>17.246653</ele>
<time>2026-07-17T10:51:55.000Z</time>
</trkpt>
<trkpt lat="57.640120" lon="10.400522">
<ele>17.268319</ele>
<time>2026-07-17T10:51:56.000Z</time>
</trkpt>
<trkpt lat="57.640172" lon="10.400537">
<ele>17.273526</ele>
<time>2026-07-17T10:51:57.000Z</time>
</trkpt>
<trkpt lat="57.640221" lon="10.400558">
<ele>17.274803</ele>
<time>2026-07-17T10:51:58.000Z</time>
</trkpt>
<trkpt lat="57.640271" lon="10.400596">
<ele>17.276174</ele>
<time>2026-07-17T10:51:59.000Z</time>
</trkpt>
<trkpt lat="57.640312" lon="10.400649">
<ele>17.277440</ele>
<time>2026-07-17T10:52:00.000Z</time>
</trkpt>
<trkpt lat="57.640345" lon="10.400700">
<ele>17.278528</ele>
<time>2026-07-17T10:52:01.000Z</time>
</trkpt>
<trkpt lat="57.640392" lon="10.400788">
<ele>17.280218</ele>
<time>2026-07-17T10:52:02.000Z</time>
</trkpt>
<trkpt lat="57.640427" lon="10.400864">
<ele>17.281581</ele>
<time>2026-07-17T10:52:03.000Z</time>
</trkpt>
<trkpt lat="57.640461" lon="10.400939">
<ele>17.282917</ele>
<time>2026-07-17T10:52:04.000Z</time>
</trkpt>
<trkpt lat="57.640496" lon="10.401015">
<ele>17.284280</ele>
<time>2026-07-17T10:52:05.000Z</time>
</trkpt>
<trkpt lat="57.640533" lon="10.401087">
<ele>17.285636</ele>
<time>2026-07-17T10:52:06.000Z</time>
</trkpt>
<trkpt lat="57.640572" lon="10.401160">
<ele>17.287038</ele>
<time>2026-07-17T10:52:07.000Z</time>
</trkpt>
<trkpt lat="57.640610" lon="10.401231">
<ele>17.288403</ele>
<time>2026-07-17T10:52:08.000Z</time>
</trkpt>
<trkpt lat="57.640644" lon="10.401303">
<ele>17.289709</ele>
<time>2026-07-17T10:52:09.000Z</time>
</trkpt>
<trkpt lat="57.640682" lon="10.401376">
<ele>17.291093</ele>
<time>2026-07-17T10:52:10.000Z</time>
</trkpt>
<trkpt lat="57.640712" lon="10.401452">
<ele>17.292376</ele>
<time>2026-07-17T10:52:11.000Z</time>
</trkpt>
<trkpt lat="57.640743" lon="10.401530">
<ele>17.293697</ele>
<time>2026-07-17T10:52:12.000Z</time>
</trkpt>
<trkpt lat="57.640771" lon="10.401601">
<ele>17.294896</ele>
<time>2026-07-17T10:52:13.000Z</time>
</trkpt>
<trkpt lat="57.640800" lon="10.401680">
<ele>17.296198</ele>
<time>2026-07-17T10:52:14.000Z</time>
</trkpt>
<trkpt lat="57.640830" lon="10.401754">
<ele>17.297460</ele>
<time>2026-07-17T10:52:15.000Z</time>
</trkpt>
<trkpt lat="57.640861" lon="10.401828">
<ele>17.298737</ele>
<time>2026-07-17T10:52:16.000Z</time>
</trkpt>
<trkpt lat="57.640891" lon="10.401897">
<ele>17.299946</ele>
<time>2026-07-17T10:52:17.000Z</time>
</trkpt>
<trkpt lat="57.640921" lon="10.401963">
<ele>17.301123</ele>
<time>2026-07-17T10:52:18.000Z</time>
</trkpt>
<trkpt lat="57.640956" lon="10.402026">
<ele>17.302357</ele>
<time>2026-07-17T10:52:19.000Z</time>
</trkpt>
<trkpt lat="57.640993" lon="10.402088">
<ele>17.303619</ele>
<time>2026-07-17T10:52:20.000Z</time>
</trkpt>
<trkpt lat="57.641029" lon="10.402148">
<ele>17.304845</ele>
<time>2026-07-17T10:52:21.000Z</time>
</trkpt>
<trkpt lat="57.641070" lon="10.402201">
<ele>17.306111</ele>
<time>2026-07-17T10:52:22.000Z</time>
</trkpt>
<trkpt lat="57.641113" lon="10.402256">
<ele>17.307434</ele>
<time>2026-07-17T10:52:23.000Z</time>
</trkpt>
<trkpt lat="57.641156" lon="10.402309">
<ele>17.308743</ele>
<time>2026-07-17T10:52:24.000Z</time>
</trkpt>
<trkpt lat="57.641198" lon="10.402361">
<ele>17.310022</ele>
<time>2026-07-17T10:52:25.000Z</time>
</trkpt>
<trkpt lat="57.641239" lon="10.402415">
<ele>17.311296</ele>
<time>2026-07-17T10:52:26.000Z</time>
</trkpt>
<trkpt lat="57.641275" lon="10.402466">
<ele>17.312444</ele>
<time>2026-07-17T10:52:27.000Z</time>
</trkpt>
<trkpt lat="57.641323" lon="10.402534">
<ele>17.313974</ele>
<time>2026-07-17T10:52:28.000Z</time>
</trkpt>
<trkpt lat="57.641360" lon="10.402592">
<ele>17.315200</ele>
<time>2026-07-17T10:52:29.000Z</time>
</trkpt>
<trkpt lat="57.641396" lon="10.402655">
<ele>17.316453</ele>
<time>2026-07-17T10:52:30.000Z</time>
</trkpt>
<trkpt lat="57.641434" lon="10.402721">
<ele>17.317771</ele>
<time>2026-07-17T10:52:31.000Z</time>
</trkpt>
<trkpt lat="57.641475" lon="10.402785">
<ele>17.303375</ele>
<time>2026-07-17T10:52:32.000Z</time>
</trkpt>
<trkpt lat="57.641513" lon="10.402852">
<ele>17.283648</ele>
<time>2026-07-17T10:52:33.000Z</time>
</trkpt>
<trkpt lat="57.641547" lon="10.402919">
<ele>17.264991</ele>
<time>2026-07-17T10:52:34.000Z</time>
</trkpt>
<trkpt lat="57.641583" lon="10.402989">
<ele>17.245373</ele>
<time>2026-07-17T10:52:35.000Z</time>
</trkpt>
<trkpt lat="57.641621" lon="10.403056">
<ele>17.225646</ele>
<time>2026-07-17T10:52:36.000Z</time>
</trkpt>
<trkpt lat="57.641655" lon="10.403123">
<ele>17.206989</ele>
<time>2026-07-17T10:52:37.000Z</time>
</trkpt>
<trkpt lat="57.641685" lon="10.403191">
<ele>17.189181</ele>
<time>2026-07-17T10:52:38.000Z</time>
</trkpt>
<trkpt lat="57.641716" lon="10.403260">
<ele>17.170976</ele>
<time>2026-07-17T10:52:39.000Z</time>
</trkpt>
<trkpt lat="57.641750" lon="10.403328">
<ele>17.152172</ele>
<time>2026-07-17T10:52:40.000Z</time>
</trkpt>
<trkpt lat="57.641780" lon="10.403398">
<ele>17.134050</ele>
<time>2026-07-17T10:52:41.000Z</time>
</trkpt>
<trkpt lat="57.641810" lon="10.403466">
<ele>17.116242</ele>
<time>2026-07-17T10:52:42.000Z</time>
</trkpt>
<trkpt lat="57.641841" lon="10.403539">
<ele>17.097411</ele>
<time>2026-07-17T10:52:43.000Z</time>
</trkpt>
<trkpt lat="57.641871" lon="10.403613">
<ele>17.078652</ele>
<time>2026-07-17T10:52:44.000Z</time>
</trkpt>
<trkpt lat="57.641898" lon="10.403689">
<ele>17.060219</ele>
<time>2026-07-17T10:52:45.000Z</time>
</trkpt>
<trkpt lat="57.641928" lon="10.403764">
<ele>17.041298</ele>
<time>2026-07-17T10:52:46.000Z</time>
</trkpt>
<trkpt lat="57.641952" lon="10.403841">
<ele>17.023292</ele>
<time>2026-07-17T10:52:47.000Z</time>
</trkpt>
<trkpt lat="57.641977" lon="10.403915">
<ele>17.005609</ele>
<time>2026-07-17T10:52:48.000Z</time>
</trkpt>
<trkpt lat="57.642001" lon="10.403992">
<ele>16.987603</ele>
<time>2026-07-17T10:52:49.000Z</time>
</trkpt>
<trkpt lat="57.642027" lon="10.404068">
<ele>16.969375</ele>
<time>2026-07-17T10:52:50.000Z</time>
</trkpt>
<trkpt lat="57.642050" lon="10.404141">
<ele>16.952258</ele>
<time>2026-07-17T10:52:51.000Z</time>
</trkpt>
<trkpt lat="57.642069" lon="10.404212">
<ele>16.936217</ele>
<time>2026-07-17T10:52:52.000Z</time>
</trkpt>
<trkpt lat="57.642092" lon="10.404280">
<ele>16.919962</ele>
<time>2026-07-17T10:52:53.000Z</time>
</trkpt>
<trkpt lat="57.642113" lon="10.404341">
<ele>16.905305</ele>
<time>2026-07-17T10:52:54.000Z</time>
</trkpt>
<trkpt lat="57.642137" lon="10.404413">
<ele>16.888165</ele>
<time>2026-07-17T10:52:55.000Z</time>
</trkpt>
<trkpt lat="57.642154" lon="10.404473">
<ele>16.874446</ele>
<time>2026-07-17T10:52:56.000Z</time>
</trkpt>
<trkpt lat="57.642179" lon="10.404551">
<ele>16.856074</ele>
<time>2026-07-17T10:52:57.000Z</time>
</trkpt>
<trkpt lat="57.642195" lon="10.404609">
<ele>16.842889</ele>
<time>2026-07-17T10:52:58.000Z</time>
</trkpt>
<trkpt lat="57.642222" lon="10.404699">
<ele>16.822040</ele>
<time>2026-07-17T10:52:59.000Z</time>
</trkpt>
<trkpt lat="57.642244" lon="10.404771">
<ele>16.805286</ele>
<time>2026-07-17T10:53:00.000Z</time>
</trkpt>
<trkpt lat="57.642268" lon="10.404852">
<ele>16.786578</ele>
<time>2026-07-17T10:53:01.000Z</time>
</trkpt>
<trkpt lat="57.642295" lon="10.404933">
<ele>16.767295</ele>
<time>2026-07-17T10:53:02.000Z</time>
</trkpt>
<trkpt lat="57.642318" lon="10.405015">
<ele>16.748587</ele>
<time>2026-07-17T10:53:03.000Z</time>
</trkpt>
<trkpt lat="57.642344" lon="10.405099">
<ele>16.728979</ele>
<time>2026-07-17T10:53:04.000Z</time>
</trkpt>
<trkpt lat="57.642367" lon="10.405184">
<ele>16.709732</ele>
<time>2026-07-17T10:53:05.000Z</time>
</trkpt>
<trkpt lat="57.642391" lon="10.405268">
<ele>16.690490</ele>
<time>2026-07-17T10:53:06.000Z</time>
</trkpt>
<trkpt lat="57.642417" lon="10.405349">
<ele>16.671404</ele>
<time>2026-07-17T10:53:07.000Z</time>
</trkpt>
<trkpt lat="57.642439" lon="10.405429">
<ele>16.653229</ele>
<time>2026-07-17T10:53:08.000Z</time>
</trkpt>
<trkpt lat="57.642461" lon="10.405506">
<ele>16.639526</ele>
<time>2026-07-17T10:53:09.000Z</time>
</trkpt>
<trkpt lat="57.642485" lon="10.405594">
<ele>16.642394</ele>
<time>2026-07-17T10:53:10.000Z</time>
</trkpt>
<trkpt lat="57.642507" lon="10.405675">
<ele>16.645030</ele>
<time>2026-07-17T10:53:11.000Z</time>
</trkpt>
<trkpt lat="57.642531" lon="10.405760">
<ele>16.647820</ele>
<time>2026-07-17T10:53:12.000Z</time>
</trkpt>
<trkpt lat="57.642554" lon="10.405840">
<ele>16.650456</ele>
<time>2026-07-17T10:53:13.000Z</time>
</trkpt>
<trkpt lat="57.642577" lon="10.405920">
<ele>16.653093</ele>
<time>2026-07-17T10:53:14.000Z</time>
</trkpt>
<trkpt lat="57.642600" lon="10.406000">
<ele>16.655729</ele>
<time>2026-07-17T10:53:15.000Z</time>
</trkpt>
<trkpt lat="57.642622" lon="10.406078">
<ele>16.658288</ele>
<time>2026-07-17T10:53:16.000Z</time>
</trkpt>
<trkpt lat="57.642638" lon="10.406153">
<ele>16.660632</ele>
<time>2026-07-17T10:53:17.000Z</time>
</trkpt>
<trkpt lat="57.642656" lon="10.406215">
<ele>16.662680</ele>
<time>2026-07-17T10:53:18.000Z</time>
</trkpt>
<trkpt lat="57.642666" lon="10.406262">
<ele>16.664148</ele>
<time>2026-07-17T10:53:19.000Z</time>
</trkpt>
<trkpt lat="57.642682" lon="10.406310">
<ele>16.665789</ele>
<time>2026-07-17T10:53:42.000Z</time>
</trkpt>
<trkpt lat="57.642693" lon="10.406342">
<ele>16.666893</ele>
<time>2026-07-17T10:53:43.000Z</time>
</trkpt>
<trkpt lat="57.642706" lon="10.406394">
<ele>16.668560</ele>
<time>2026-07-17T10:53:44.000Z</time>
</trkpt>
<trkpt lat="57.642721" lon="10.406449">
<ele>16.670351</ele>
<time>2026-07-17T10:53:45.000Z</time>
</trkpt>
<trkpt lat="57.642740" lon="10.406510">
<ele>16.672400</ele>
<time>2026-07-17T10:53:46.000Z</time>
</trkpt>
<trkpt lat="57.642755" lon="10.406574">
<ele>16.674429</ele>
<time>2026-07-17T10:53:47.000Z</time>
</trkpt>
<trkpt lat="57.642767" lon="10.406626">
<ele>16.676072</ele>
<time>2026-07-17T10:53:48.000Z</time>
</trkpt>
<trkpt lat="57.642790" lon="10.406714">
<ele>16.678915</ele>
<time>2026-07-17T10:53:49.000Z</time>
</trkpt>
<trkpt lat="57.642809" lon="10.406784">
<ele>16.681194</ele>
<time>2026-07-17T10:53:50.000Z</time>
</trkpt>
<trkpt lat="57.642828" lon="10.406857">
<ele>16.683550</ele>
<time>2026-07-17T10:53:51.000Z</time>
</trkpt>
<trkpt lat="57.642846" lon="10.406932">
<ele>16.685936</ele>
<time>2026-07-17T10:53:52.000Z</time>
</trkpt>
<trkpt lat="57.642862" lon="10.407006">
<ele>16.688253</ele>
<time>2026-07-17T10:53:53.000Z</time>
</trkpt>
<trkpt lat="57.642877" lon="10.407079">
<ele>16.690523</ele>
<time>2026-07-17T10:53:54.000Z</time>
</trkpt>
<trkpt lat="57.642892" lon="10.407151">
<ele>16.692766</ele>
<time>2026-07-17T10:53:55.000Z</time>
</trkpt>
<trkpt lat="57.642903" lon="10.407220">
<ele>16.694856</ele>
<time>2026-07-17T10:53:56.000Z</time>
</trkpt>
<trkpt lat="57.642910" lon="10.407291">
<ele>16.696952</ele>
<time>2026-07-17T10:53:57.000Z</time>
</trkpt>
<trkpt lat="57.642914" lon="10.407355">
<ele>16.698822</ele>
<time>2026-07-17T10:53:58.000Z</time>
</trkpt>
<trkpt lat="57.642918" lon="10.407431">
<ele>16.701039</ele>
<time>2026-07-17T10:53:59.000Z</time>
</trkpt>
<trkpt lat="57.642917" lon="10.407502">
<ele>16.703101</ele>
<time>2026-07-17T10:54:00.000Z</time>
</trkpt>
<trkpt lat="57.642913" lon="10.407574">
<ele>16.705202</ele>
<time>2026-07-17T10:54:01.000Z</time>
</trkpt>
<trkpt lat="57.642910" lon="10.407641">
<ele>16.707154</ele>
<time>2026-07-17T10:54:02.000Z</time>
</trkpt>
<trkpt lat="57.642905" lon="10.407706">
<ele>16.709060</ele>
<time>2026-07-17T10:54:03.000Z</time>
</trkpt>
<trkpt lat="57.642898" lon="10.407768">
<ele>16.710899</ele>
<time>2026-07-17T10:54:04.000Z</time>
</trkpt>
<trkpt lat="57.642891" lon="10.407830">
<ele>16.712739</ele>
<time>2026-07-17T10:54:05.000Z</time>
</trkpt>
<trkpt lat="57.642886" lon="10.407889">
<ele>16.714473</ele>
<time>2026-07-17T10:54:06.000Z</time>
</trkpt>
<trkpt lat="57.642879" lon="10.407942">
<ele>16.716058</ele>
<time>2026-07-17T10:54:07.000Z</time>
</trkpt>
<trkpt lat="57.642871" lon="10.407988">
<ele>16.717462</ele>
<time>2026-07-17T10:54:08.000Z</time>
</trkpt>
<trkpt lat="57.642859" lon="10.408034">
<ele>16.718947</ele>
<time>2026-07-17T10:54:09.000Z</time>
</trkpt>
<trkpt lat="57.642846" lon="10.408074">
<ele>16.720306</ele>
<time>2026-07-17T10:54:10.000Z</time>
</trkpt>
<trkpt lat="57.642829" lon="10.408130">
<ele>16.722175</ele>
<time>2026-07-17T10:54:11.000Z</time>
</trkpt>
<trkpt lat="57.642809" lon="10.408183">
<ele>16.724057</ele>
<time>2026-07-17T10:54:12.000Z</time>
</trkpt>
<trkpt lat="57.642790" lon="10.408238">
<ele>16.725957</ele>
<time>2026-07-17T10:54:13.000Z</time>
</trkpt>
<trkpt lat="57.642772" lon="10.408293">
<ele>16.727829</ele>
<time>2026-07-17T10:54:14.000Z</time>
</trkpt>
<trkpt lat="57.642757" lon="10.408339">
<ele>16.729393</ele>
<time>2026-07-17T10:54:15.000Z</time>
</trkpt>
<trkpt lat="57.642732" lon="10.408410">
<ele>16.731860</ele>
<time>2026-07-17T10:54:16.000Z</time>
</trkpt>
<trkpt lat="57.642714" lon="10.408469">
<ele>16.733831</ele>
<time>2026-07-17T10:54:17.000Z</time>
</trkpt>
<trkpt lat="57.642698" lon="10.408532">
<ele>16.735855</ele>
<time>2026-07-17T10:54:18.000Z</time>
</trkpt>
<trkpt lat="57.642679" lon="10.408591">
<ele>16.724375</ele>
<time>2026-07-17T10:54:19.000Z</time>
</trkpt>
<trkpt lat="57.642660" lon="10.408646">
<ele>16.706004</ele>
<time>2026-07-17T10:54:20.000Z</time>
</trkpt>
<trkpt lat="57.642641" lon="10.408700">
<ele>16.687868</ele>
<time>2026-07-17T10:54:21.000Z</time>
</trkpt>
<trkpt lat="57.642622" lon="10.408760">
<ele>16.668302</ele>
<time>2026-07-17T10:54:22.000Z</time>
</trkpt>
<trkpt lat="57.642607" lon="10.408815">
<ele>16.650979</ele>
<time>2026-07-17T10:54:23.000Z</time>
</trkpt>
<trkpt lat="57.642592" lon="10.408865">
<ele>16.634892</ele>
<time>2026-07-17T10:54:24.000Z</time>
</trkpt>
<trkpt lat="57.642577" lon="10.408906">
<ele>16.620955</ele>
<time>2026-07-17T10:54:25.000Z</time>
</trkpt>
<trkpt lat="57.642565" lon="10.408953">
<ele>16.606340</ele>
<time>2026-07-17T10:54:26.000Z</time>
</trkpt>
<trkpt lat="57.642555" lon="10.409009">
<ele>16.589773</ele>
<time>2026-07-17T10:54:27.000Z</time>
</trkpt>
<trkpt lat="57.642550" lon="10.409072">
<ele>16.571899</ele>
<time>2026-07-17T10:54:28.000Z</time>
</trkpt>
<trkpt lat="57.642540" lon="10.409140">
<ele>16.552108</ele>
<time>2026-07-17T10:54:29.000Z</time>
</trkpt>
<trkpt lat="57.642536" lon="10.409207">
<ele>16.533188</ele>
<time>2026-07-17T10:54:30.000Z</time>
</trkpt>
<trkpt lat="57.642532" lon="10.409275">
<ele>16.513990</ele>
<time>2026-07-17T10:54:31.000Z</time>
</trkpt>
<trkpt lat="57.642528" lon="10.409345">
<ele>16.494233</ele>
<time>2026-07-17T10:54:32.000Z</time>
</trkpt>
<trkpt lat="57.642520" lon="10.409414">
<ele>16.474419</ele>
<time>2026-07-17T10:54:33.000Z</time>
</trkpt>
<trkpt lat="57.642513" lon="10.409480">
<ele>16.455537</ele>
<time>2026-07-17T10:54:34.000Z</time>
</trkpt>
<trkpt lat="57.642512" lon="10.409557">
<ele>16.433921</ele>
<time>2026-07-17T10:54:35.000Z</time>
</trkpt>
<trkpt lat="57.642505" lon="10.409632">
<ele>16.412555</ele>
<time>2026-07-17T10:54:36.000Z</time>
</trkpt>
<trkpt lat="57.642501" lon="10.409709">
<ele>16.390844</ele>
<time>2026-07-17T10:54:37.000Z</time>
</trkpt>
<trkpt lat="57.642497" lon="10.409782">
<ele>16.370250</ele>
<time>2026-07-17T10:54:38.000Z</time>
</trkpt>
<trkpt lat="57.642490" lon="10.409869">
<ele>16.345560</ele>
<time>2026-07-17T10:54:39.000Z</time>
</trkpt>
<trkpt lat="57.642482" lon="10.409950">
<ele>16.322444</ele>
<time>2026-07-17T10:54:40.000Z</time>
</trkpt>
<trkpt lat="57.642475" lon="10.410031">
<ele>16.299417</ele>
<time>2026-07-17T10:54:41.000Z</time>
</trkpt>
<trkpt lat="57.642471" lon="10.410114">
<ele>16.276030</ele>
<time>2026-07-17T10:54:42.000Z</time>
</trkpt>
<trkpt lat="57.642463" lon="10.410191">
<ele>16.254017</ele>
<time>2026-07-17T10:54:43.000Z</time>
</trkpt>
<trkpt lat="57.642459" lon="10.410271">
<ele>16.231468</ele>
<time>2026-07-17T10:54:44.000Z</time>
</trkpt>
<trkpt lat="57.642456" lon="10.410347">
<ele>16.210081</ele>
<time>2026-07-17T10:54:45.000Z</time>
</trkpt>
<trkpt lat="57.642451" lon="10.410427">
<ele>16.187477</ele>
<time>2026-07-17T10:54:46.000Z</time>
</trkpt>
<trkpt lat="57.642444" lon="10.410514">
<ele>16.162787</ele>
<time>2026-07-17T10:54:47.000Z</time>
</trkpt>
<trkpt lat="57.642437" lon="10.410592">
<ele>16.140591</ele>
<time>2026-07-17T10:54:48.000Z</time>
</trkpt>
<trkpt lat="57.642433" lon="10.410675">
<ele>16.117203</ele>
<time>2026-07-17T10:54:49.000Z</time>
</trkpt>
<trkpt lat="57.642428" lon="10.410755">
<ele>16.094599</ele>
<time>2026-07-17T10:54:50.000Z</time>
</trkpt>
<trkpt lat="57.642417" lon="10.410846">
<ele>16.068417</ele>
<time>2026-07-17T10:54:51.000Z</time>
</trkpt>
<trkpt lat="57.642406" lon="10.410930">
<ele>16.044148</ele>
<time>2026-07-17T10:54:52.000Z</time>
</trkpt>
<trkpt lat="57.642398" lon="10.411013">
<ele>16.020480</ele>
<time>2026-07-17T10:54:53.000Z</time>
</trkpt>
<trkpt lat="57.642390" lon="10.411097">
<ele>15.996535</ele>
<time>2026-07-17T10:54:54.000Z</time>
</trkpt>
<trkpt lat="57.642379" lon="10.411182">
<ele>15.971993</ele>
<time>2026-07-17T10:54:55.000Z</time>
</trkpt>
<trkpt lat="57.642371" lon="10.411264">
<ele>15.948601</ele>
<time>2026-07-17T10:54:56.000Z</time>
</trkpt>
<trkpt lat="57.642363" lon="10.411349">
<ele>15.924380</ele>
<time>2026-07-17T10:54:57.000Z</time>
</trkpt>
<trkpt lat="57.642348" lon="10.411445">
<ele>15.896314</ele>
<time>2026-07-17T10:54:58.000Z</time>
</trkpt>
<trkpt lat="57.642337" lon="10.411539">
<ele>15.869310</ele>
<time>2026-07-17T10:54:59.000Z</time>
</trkpt>
<trkpt lat="57.642323" lon="10.411635">
<ele>15.841386</ele>
<time>2026-07-17T10:55:00.000Z</time>
</trkpt>
<trkpt lat="57.642298" lon="10.411738">
<ele>15.809646</ele>
<time>2026-07-17T10:55:01.000Z</time>
</trkpt>
<trkpt lat="57.642282" lon="10.411831">
<ele>15.778150</ele>
<time>2026-07-17T10:55:02.000Z</time>
</trkpt>
<trkpt lat="57.642264" lon="10.411924">
<ele>15.740290</ele>
<time>2026-07-17T10:55:03.000Z</time>
</trkpt>
<trkpt lat="57.642249" lon="10.412016">
<ele>15.703472</ele>
<time>2026-07-17T10:55:04.000Z</time>
</trkpt>
<trkpt lat="57.642237" lon="10.412109">
<ele>15.666848</ele>
<time>2026-07-17T10:55:05.000Z</time>
</trkpt>
<trkpt lat="57.642222" lon="10.412208">
<ele>15.627458</ele>
<time>2026-07-17T10:55:06.000Z</time>
</trkpt>
<trkpt lat="57.642208" lon="10.412301">
<ele>15.590473</ele>
<time>2026-07-17T10:55:07.000Z</time>
</trkpt>
<trkpt lat="57.642199" lon="10.412403">
<ele>15.550897</ele>
<time>2026-07-17T10:55:08.000Z</time>
</trkpt>
<trkpt lat="57.642188" lon="10.412500">
<ele>15.512938</ele>
<time>2026-07-17T10:55:09.000Z</time>
</trkpt>
<trkpt lat="57.642176" lon="10.412594">
<ele>15.475942</ele>
<time>2026-07-17T10:55:10.000Z</time>
</trkpt>
<trkpt lat="57.642164" lon="10.412690">
<ele>15.438201</ele>
<time>2026-07-17T10:55:11.000Z</time>
</trkpt>
<trkpt lat="57.642149" lon="10.412784">
<ele>15.400649</ele>
<time>2026-07-17T10:55:12.000Z</time>
</trkpt>
<trkpt lat="57.642134" lon="10.412888">
<ele>15.359414</ele>
<time>2026-07-17T10:55:13.000Z</time>
</trkpt>
<trkpt lat="57.642123" lon="10.412987">
<ele>15.320705</ele>
<time>2026-07-17T10:55:14.000Z</time>
</trkpt>
<trkpt lat="57.642112" lon="10.413082">
<ele>15.283494</ele>
<time>2026-07-17T10:55:15.000Z</time>
</trkpt>
<trkpt lat="57.642104" lon="10.413182">
<ele>15.244786</ele>
<time>2026-07-17T10:55:16.000Z</time>
</trkpt>
<trkpt lat="57.642093" lon="10.413282">
<ele>15.205702</ele>
<time>2026-07-17T10:55:17.000Z</time>
</trkpt>
<trkpt lat="57.642085" lon="10.413377">
<ele>15.168885</ele>
<time>2026-07-17T10:55:18.000Z</time>
</trkpt>
<trkpt lat="57.642073" lon="10.413475">
<ele>15.130398</ele>
<time>2026-07-17T10:55:19.000Z</time>
</trkpt>
<trkpt lat="57.642061" lon="10.413575">
<ele>15.091164</ele>
<time>2026-07-17T10:55:20.000Z</time>
</trkpt>
<trkpt lat="57.642047" lon="10.413677">
<ele>15.050851</ele>
<time>2026-07-17T10:55:21.000Z</time>
</trkpt>
<trkpt lat="57.642035" lon="10.413776">
<ele>15.011991</ele>
<time>2026-07-17T10:55:22.000Z</time>
</trkpt>
<trkpt lat="57.642024" lon="10.413873">
<ele>14.974032</ele>
<time>2026-07-17T10:55:23.000Z</time>
</trkpt>
<trkpt lat="57.642012" lon="10.413967">
<ele>14.937036</ele>
<time>2026-07-17T10:55:24.000Z</time>
</trkpt>
<trkpt lat="57.641997" lon="10.414061">
<ele>14.899484</ele>
<time>2026-07-17T10:55:25.000Z</time>
</trkpt>
<trkpt lat="57.641986" lon="10.414160">
<ele>14.860775</ele>
<time>2026-07-17T10:55:26.000Z</time>
</trkpt>
<trkpt lat="57.641975" lon="10.414265">
<ele>14.819814</ele>
<time>2026-07-17T10:55:27.000Z</time>
</trkpt>
<trkpt lat="57.641966" lon="10.414367">
<ele>14.780238</ele>
<time>2026-07-17T10:55:28.000Z</time>
</trkpt>
<trkpt lat="57.641951" lon="10.414468">
<ele>14.740110</ele>
<time>2026-07-17T10:55:29.000Z</time>
</trkpt>
<trkpt lat="57.641940" lon="10.414569">
<ele>14.700651</ele>
<time>2026-07-17T10:55:30.000Z</time>
</trkpt>
<trkpt lat="57.641928" lon="10.414668">
<ele>14.661791</ele>
<time>2026-07-17T10:55:31.000Z</time>
</trkpt>
<trkpt lat="57.641917" lon="10.414763">
<ele>14.624580</ele>
<time>2026-07-17T10:55:32.000Z</time>
</trkpt>
<trkpt lat="57.641909" lon="10.414861">
<ele>14.586628</ele>
<time>2026-07-17T10:55:33.000Z</time>
</trkpt>
<trkpt lat="57.641898" lon="10.414956">
<ele>14.549417</ele>
<time>2026-07-17T10:55:34.000Z</time>
</trkpt>
<trkpt lat="57.641887" lon="10.415053">
<ele>14.511458</ele>
<time>2026-07-17T10:55:35.000Z</time>
</trkpt>
<trkpt lat="57.641878" lon="10.415147">
<ele>14.502525</ele>
<time>2026-07-17T10:55:36.000Z</time>
</trkpt>
<trkpt lat="57.641864" lon="10.415244">
<ele>14.497304</ele>
<time>2026-07-17T10:55:37.000Z</time>
</trkpt>
<trkpt lat="57.641856" lon="10.415337">
<ele>14.492409</ele>
<time>2026-07-17T10:55:38.000Z</time>
</trkpt>
<trkpt lat="57.641848" lon="10.415433">
<ele>14.487360</ele>
<time>2026-07-17T10:55:39.000Z</time>
</trkpt>
<trkpt lat="57.641837" lon="10.415531">
<ele>14.482157</ele>
<time>2026-07-17T10:55:40.000Z</time>
</trkpt>
<trkpt lat="57.641825" lon="10.415632">
<ele>14.476781</ele>
<time>2026-07-17T10:55:41.000Z</time>
</trkpt>
<trkpt lat="57.641814" lon="10.415734">
<ele>14.471374</ele>
<time>2026-07-17T10:55:42.000Z</time>
</trkpt>
<trkpt lat="57.641803" lon="10.415834">
<ele>14.466068</ele>
<time>2026-07-17T10:55:43.000Z</time>
</trkpt>
<trkpt lat="57.641795" lon="10.415932">
<ele>14.460917</ele>
<time>2026-07-17T10:55:44.000Z</time>
</trkpt>
<trkpt lat="57.641784" lon="10.416030">
<ele>14.455713</ele>
<time>2026-07-17T10:55:45.000Z</time>
</trkpt>
<trkpt lat="57.641776" lon="10.416124">
<ele>14.450767</ele>
<time>2026-07-17T10:55:46.000Z</time>
</trkpt>
<trkpt lat="57.641769" lon="10.416219">
<ele>14.445784</ele>
<time>2026-07-17T10:55:47.000Z</time>
</trkpt>
<trkpt lat="57.641761" lon="10.416315">
<ele>14.440735</ele>
<time>2026-07-17T10:55:48.000Z</time>
</trkpt>
<trkpt lat="57.641757" lon="10.416410">
<ele>14.435783</ele>
<time>2026-07-17T10:55:49.000Z</time>
</trkpt>
<trkpt lat="57.641749" lon="10.416508">
<ele>14.430632</ele>
<time>2026-07-17T10:55:50.000Z</time>
</trkpt>
<trkpt lat="57.641742" lon="10.416604">
<ele>14.425597</ele>
<time>2026-07-17T10:55:51.000Z</time>
</trkpt>
<trkpt lat="57.641734" lon="10.416699">
<ele>14.420599</ele>
<time>2026-07-17T10:55:52.000Z</time>
</trkpt>
<trkpt lat="57.641727" lon="10.416795">
<ele>14.415564</ele>
<time>2026-07-17T10:55:53.000Z</time>
</trkpt>
<trkpt lat="57.641719" lon="10.416893">
<ele>14.410413</ele>
<time>2026-07-17T10:55:54.000Z</time>
</trkpt>
<trkpt lat="57.641711" lon="10.416989">
<ele>14.405364</ele>
<time>2026-07-17T10:55:55.000Z</time>
</trkpt>
<trkpt lat="57.641704" lon="10.417088">
<ele>14.400175</ele>
<time>2026-07-17T10:55:56.000Z</time>
</trkpt>
<trkpt lat="57.641696" lon="10.417184">
<ele>14.395126</ele>
<time>2026-07-17T10:55:57.000Z</time>
</trkpt>
<trkpt lat="57.641689" lon="10.417276">
<ele>14.390297</ele>
<time>2026-07-17T10:55:58.000Z</time>
</trkpt>
<trkpt lat="57.641681" lon="10.417372">
<ele>14.385248</ele>
<time>2026-07-17T10:55:59.000Z</time>
</trkpt>
<trkpt lat="57.641674" lon="10.417466">
<ele>14.380316</ele>
<time>2026-07-17T10:56:00.000Z</time>
</trkpt>
<trkpt lat="57.641670" lon="10.417558">
<ele>14.375520</ele>
<time>2026-07-17T10:56:01.000Z</time>
</trkpt>
<trkpt lat="57.641666" lon="10.417657">
<ele>14.370360</ele>
<time>2026-07-17T10:56:02.000Z</time>
</trkpt>
<trkpt lat="57.641658" lon="10.417751">
<ele>14.365414</ele>
<time>2026-07-17T10:56:03.000Z</time>
</trkpt>
<trkpt lat="57.641654" lon="10.417846">
<ele>14.360462</ele>
<time>2026-07-17T10:56:04.000Z</time>
</trkpt>
<trkpt lat="57.641646" lon="10.417940">
<ele>14.355516</ele>
<time>2026-07-17T10:56:05.000Z</time>
</trkpt>
<trkpt lat="57.641639" lon="10.418038">
<ele>14.350378</ele>
<time>2026-07-17T10:56:06.000Z</time>
</trkpt>
<trkpt lat="57.641631" lon="10.418135">
<ele>14.345278</ele>
<time>2026-07-17T10:56:07.000Z</time>
</trkpt>
<trkpt lat="57.641624" lon="10.418229">
<ele>14.340346</ele>
<time>2026-07-17T10:56:08.000Z</time>
</trkpt>
<trkpt lat="57.641616" lon="10.418328">
<ele>14.335143</ele>
<time>2026-07-17T10:56:09.000Z</time>
</trkpt>
<trkpt lat="57.641608" lon="10.418425">
<ele>14.322213</ele>
<time>2026-07-17T10:56:10.000Z</time>
</trkpt>
<trkpt lat="57.641601" lon="10.418521">
<ele>14.299120</ele>
<time>2026-07-17T10:56:11.000Z</time>
</trkpt>
<trkpt lat="57.641597" lon="10.418618">
<ele>14.275931</ele>
<time>2026-07-17T10:56:12.000Z</time>
</trkpt>
<trkpt lat="57.641593" lon="10.418716">
<ele>14.252505</ele>
<time>2026-07-17T10:56:13.000Z</time>
</trkpt>
<trkpt lat="57.641589" lon="10.418814">
<ele>14.229078</ele>
<time>2026-07-17T10:56:14.000Z</time>
</trkpt>
<trkpt lat="57.641582" lon="10.418909">
<ele>14.206221</ele>
<time>2026-07-17T10:56:15.000Z</time>
</trkpt>
<trkpt lat="57.641574" lon="10.419003">
<ele>14.183534</ele>
<time>2026-07-17T10:56:16.000Z</time>
</trkpt>
<trkpt lat="57.641570" lon="10.419094">
<ele>14.161771</ele>
<time>2026-07-17T10:56:17.000Z</time>
</trkpt>
<trkpt lat="57.641563" lon="10.419187">
<ele>14.139386</ele>
<time>2026-07-17T10:56:18.000Z</time>
</trkpt>
<trkpt lat="57.641555" lon="10.419284">
<ele>14.115992</ele>
<time>2026-07-17T10:56:19.000Z</time>
</trkpt>
<trkpt lat="57.641552" lon="10.419379">
<ele>14.093309</ele>
<time>2026-07-17T10:56:20.000Z</time>
</trkpt>
<trkpt lat="57.641547" lon="10.419476">
<ele>14.070082</ele>
<time>2026-07-17T10:56:21.000Z</time>
</trkpt>
<trkpt lat="57.641540" lon="10.419572">
<ele>14.046988</ele>
<time>2026-07-17T10:56:22.000Z</time>
</trkpt>
<trkpt lat="57.641536" lon="10.419663">
<ele>14.025225</ele>
<time>2026-07-17T10:56:23.000Z</time>
</trkpt>
<trkpt lat="57.641529" lon="10.419754">
<ele>14.003312</ele>
<time>2026-07-17T10:56:24.000Z</time>
</trkpt>
<trkpt lat="57.641525" lon="10.419843">
<ele>13.982024</ele>
<time>2026-07-17T10:56:25.000Z</time>
</trkpt>
<trkpt lat="57.641521" lon="10.419934">
<ele>13.960260</ele>
<time>2026-07-17T10:56:26.000Z</time>
</trkpt>
<trkpt lat="57.641513" lon="10.420026">
<ele>13.938044</ele>
<time>2026-07-17T10:56:27.000Z</time>
</trkpt>
<trkpt lat="57.641509" lon="10.420118">
<ele>13.916043</ele>
<time>2026-07-17T10:56:28.000Z</time>
</trkpt>
<trkpt lat="57.641502" lon="10.420212">
<ele>13.893422</ele>
<time>2026-07-17T10:56:29.000Z</time>
</trkpt>
<trkpt lat="57.641494" lon="10.420306">
<ele>13.870735</ele>
<time>2026-07-17T10:56:30.000Z</time>
</trkpt>
<trkpt lat="57.641487" lon="10.420403">
<ele>13.847406</ele>
<time>2026-07-17T10:56:31.000Z</time>
</trkpt>
<trkpt lat="57.641483" lon="10.420499">
<ele>13.824454</ele>
<time>2026-07-17T10:56:32.000Z</time>
</trkpt>
<trkpt lat="57.641483" lon="10.420597">
<ele>13.801095</ele>
<time>2026-07-17T10:56:33.000Z</time>
</trkpt>
<trkpt lat="57.641479" lon="10.420690">
<ele>13.778857</ele>
<time>2026-07-17T10:56:34.000Z</time>
</trkpt>
<trkpt lat="57.641472" lon="10.420779">
<ele>13.757415</ele>
<time>2026-07-17T10:56:35.000Z</time>
</trkpt>
<trkpt lat="57.641471" lon="10.420867">
<ele>13.736436</ele>
<time>2026-07-17T10:56:36.000Z</time>
</trkpt>
<trkpt lat="57.641468" lon="10.420957">
<ele>13.714942</ele>
<time>2026-07-17T10:56:37.000Z</time>
</trkpt>
<trkpt lat="57.641464" lon="10.421050">
<ele>13.692703</ele>
<time>2026-07-17T10:56:38.000Z</time>
</trkpt>
<trkpt lat="57.641460" lon="10.421144">
<ele>13.670227</ele>
<time>2026-07-17T10:56:39.000Z</time>
</trkpt>
<trkpt lat="57.641457" lon="10.421237">
<ele>13.648020</ele>
<time>2026-07-17T10:56:40.000Z</time>
</trkpt>
<trkpt lat="57.641456" lon="10.421325">
<ele>13.627040</ele>
<time>2026-07-17T10:56:41.000Z</time>
</trkpt>
<trkpt lat="57.641451" lon="10.421411">
<ele>13.606421</ele>
<time>2026-07-17T10:56:42.000Z</time>
</trkpt>
<trkpt lat="57.641440" lon="10.421498">
<ele>13.585113</ele>
<time>2026-07-17T10:56:43.000Z</time>
</trkpt>
<trkpt lat="57.641429" lon="10.421582">
<ele>13.564501</ele>
<time>2026-07-17T10:56:44.000Z</time>
</trkpt>
<trkpt lat="57.641421" lon="10.421671">
<ele>13.542990</ele>
<time>2026-07-17T10:56:45.000Z</time>
</trkpt>
<trkpt lat="57.641415" lon="10.421760">
<ele>13.522055</ele>
<time>2026-07-17T10:56:46.000Z</time>
</trkpt>
<trkpt lat="57.641415" lon="10.421849">
<ele>13.501827</ele>
<time>2026-07-17T10:56:47.000Z</time>
</trkpt>
<trkpt lat="57.641419" lon="10.421935">
<ele>13.482207</ele>
<time>2026-07-17T10:56:48.000Z</time>
</trkpt>
<trkpt lat="57.641427" lon="10.422027">
<ele>13.461023</ele>
<time>2026-07-17T10:56:49.000Z</time>
</trkpt>
<trkpt lat="57.641440" lon="10.422117">
<ele>13.439835</ele>
<time>2026-07-17T10:56:50.000Z</time>
</trkpt>
<trkpt lat="57.641458" lon="10.422203">
<ele>13.418847</ele>
<time>2026-07-17T10:56:51.000Z</time>
</trkpt>
<trkpt lat="57.641474" lon="10.422291">
<ele>13.397724</ele>
<time>2026-07-17T10:56:52.000Z</time>
</trkpt>
<trkpt lat="57.641489" lon="10.422382">
<ele>13.376083</ele>
<time>2026-07-17T10:56:53.000Z</time>
</trkpt>
<trkpt lat="57.641504" lon="10.422473">
<ele>13.354441</ele>
<time>2026-07-17T10:56:54.000Z</time>
</trkpt>
<trkpt lat="57.641515" lon="10.422571">
<ele>13.331683</ele>
<time>2026-07-17T10:56:55.000Z</time>
</trkpt>
<trkpt lat="57.641531" lon="10.422671">
<ele>13.307961</ele>
<time>2026-07-17T10:56:56.000Z</time>
</trkpt>
<trkpt lat="57.641546" lon="10.422775">
<ele>13.283480</ele>
<time>2026-07-17T10:56:57.000Z</time>
</trkpt>
<trkpt lat="57.641561" lon="10.422874">
<ele>13.260095</ele>
<time>2026-07-17T10:56:58.000Z</time>
</trkpt>
<trkpt lat="57.641576" lon="10.422975">
<ele>13.236272</ele>
<time>2026-07-17T10:56:59.000Z</time>
</trkpt>
<trkpt lat="57.641592" lon="10.423076">
<ele>13.212332</ele>
<time>2026-07-17T10:57:00.000Z</time>
</trkpt>
<trkpt lat="57.641607" lon="10.423170">
<ele>13.190039</ele>
<time>2026-07-17T10:57:01.000Z</time>
</trkpt>
<trkpt lat="57.641618" lon="10.423266">
<ele>13.167725</ele>
<time>2026-07-17T10:57:02.000Z</time>
</trkpt>
<trkpt lat="57.641633" lon="10.423369">
<ele>13.143464</ele>
<time>2026-07-17T10:57:03.000Z</time>
</trkpt>
<trkpt lat="57.641645" lon="10.423465">
<ele>13.121058</ele>
<time>2026-07-17T10:57:04.000Z</time>
</trkpt>
<trkpt lat="57.641661" lon="10.423557">
<ele>13.099072</ele>
<time>2026-07-17T10:57:05.000Z</time>
</trkpt>
<trkpt lat="57.641680" lon="10.423644">
<ele>13.077715</ele>
<time>2026-07-17T10:57:06.000Z</time>
</trkpt>
<trkpt lat="57.641699" lon="10.423735">
<ele>13.055515</ele>
<time>2026-07-17T10:57:07.000Z</time>
</trkpt>
<trkpt lat="57.641713" lon="10.423827">
<ele>13.033776</ele>
<time>2026-07-17T10:57:08.000Z</time>
</trkpt>
<trkpt lat="57.641725" lon="10.423925">
<ele>13.010927</ele>
<time>2026-07-17T10:57:09.000Z</time>
</trkpt>
<trkpt lat="57.641740" lon="10.424028">
<ele>12.986666</ele>
<time>2026-07-17T10:57:10.000Z</time>
</trkpt>
<trkpt lat="57.641752" lon="10.424132">
<ele>12.962486</ele>
<time>2026-07-17T10:57:11.000Z</time>
</trkpt>
<trkpt lat="57.641767" lon="10.424234">
<ele>12.938444</ele>
<time>2026-07-17T10:57:12.000Z</time>
</trkpt>
<trkpt lat="57.641779" lon="10.424334">
<ele>12.915152</ele>
<time>2026-07-17T10:57:13.000Z</time>
</trkpt>
<trkpt lat="57.641794" lon="10.424435">
<ele>12.891329</ele>
<time>2026-07-17T10:57:14.000Z</time>
</trkpt>
<trkpt lat="57.641809" lon="10.424535">
<ele>12.867725</ele>
<time>2026-07-17T10:57:15.000Z</time>
</trkpt>
<trkpt lat="57.641824" lon="10.424632">
<ele>12.844777</ele>
<time>2026-07-17T10:57:16.000Z</time>
</trkpt>
<trkpt lat="57.641836" lon="10.424733">
<ele>12.821263</ele>
<time>2026-07-17T10:57:17.000Z</time>
</trkpt>
<trkpt lat="57.641851" lon="10.424830">
<ele>12.798315</ele>
<time>2026-07-17T10:57:18.000Z</time>
</trkpt>
<trkpt lat="57.641863" lon="10.424930">
<ele>12.775023</ele>
<time>2026-07-17T10:57:19.000Z</time>
</trkpt>
<trkpt lat="57.641878" lon="10.425033">
<ele>12.752775</ele>
<time>2026-07-17T10:57:20.000Z</time>
</trkpt>
<trkpt lat="57.641893" lon="10.425136">
<ele>12.731449</ele>
<time>2026-07-17T10:57:21.000Z</time>
</trkpt>
<trkpt lat="57.641908" lon="10.425240">
<ele>12.709930</ele>
<time>2026-07-17T10:57:22.000Z</time>
</trkpt>
<trkpt lat="57.641923" lon="10.425343">
<ele>12.688604</ele>
<time>2026-07-17T10:57:23.000Z</time>
</trkpt>
<trkpt lat="57.641939" lon="10.425451">
<ele>12.666216</ele>
<time>2026-07-17T10:57:24.000Z</time>
</trkpt>
<trkpt lat="57.641959" lon="10.425557">
<ele>12.643762</ele>
<time>2026-07-17T10:57:25.000Z</time>
</trkpt>
<trkpt lat="57.641977" lon="10.425660">
<ele>12.622115</ele>
<time>2026-07-17T10:57:26.000Z</time>
</trkpt>
<trkpt lat="57.641993" lon="10.425759">
<ele>12.601454</ele>
<time>2026-07-17T10:57:27.000Z</time>
</trkpt>
<trkpt lat="57.642011" lon="10.425857">
<ele>12.580754</ele>
<time>2026-07-17T10:57:28.000Z</time>
</trkpt>
<trkpt lat="57.642027" lon="10.425954">
<ele>12.560476</ele>
<time>2026-07-17T10:57:29.000Z</time>
</trkpt>
<trkpt lat="57.642042" lon="10.426051">
<ele>12.540304</ele>
<time>2026-07-17T10:57:30.000Z</time>
</trkpt>
<trkpt lat="57.642061" lon="10.426148">
<ele>12.519668</ele>
<time>2026-07-17T10:57:31.000Z</time>
</trkpt>
<trkpt lat="57.642080" lon="10.426247">
<ele>12.498656</ele>
<time>2026-07-17T10:57:32.000Z</time>
</trkpt>
<trkpt lat="57.642096" lon="10.426348">
<ele>12.477613</ele>
<time>2026-07-17T10:57:33.000Z</time>
</trkpt>
<trkpt lat="57.642115" lon="10.426447">
<ele>12.456601</ele>
<time>2026-07-17T10:57:34.000Z</time>
</trkpt>
<trkpt lat="57.642134" lon="10.426546">
<ele>12.435589</ele>
<time>2026-07-17T10:57:35.000Z</time>
</trkpt>
<trkpt lat="57.642153" lon="10.426649">
<ele>12.413823</ele>
<time>2026-07-17T10:57:36.000Z</time>
</trkpt>
<trkpt lat="57.642172" lon="10.426751">
<ele>12.392247</ele>
<time>2026-07-17T10:57:37.000Z</time>
</trkpt>
<trkpt lat="57.642187" lon="10.426853">
<ele>12.371114</ele>
<time>2026-07-17T10:57:38.000Z</time>
</trkpt>
<trkpt lat="57.642206" lon="10.426956">
<ele>12.349348</ele>
<time>2026-07-17T10:57:39.000Z</time>
</trkpt>
<trkpt lat="57.642225" lon="10.427061">
<ele>12.327204</ele>
<time>2026-07-17T10:57:40.000Z</time>
</trkpt>
<trkpt lat="57.642245" lon="10.427161">
<ele>12.305877</ele>
<time>2026-07-17T10:57:41.000Z</time>
</trkpt>
<trkpt lat="57.642264" lon="10.427259">
<ele>12.285053</ele>
<time>2026-07-17T10:57:42.000Z</time>
</trkpt>
<trkpt lat="57.642283" lon="10.427352">
<ele>12.265165</ele>
<time>2026-07-17T10:57:43.000Z</time>
</trkpt>
<trkpt lat="57.642306" lon="10.427449">
<ele>12.243970</ele>
<time>2026-07-17T10:57:44.000Z</time>
</trkpt>
<trkpt lat="57.642325" lon="10.427545">
<ele>12.223521</ele>
<time>2026-07-17T10:57:45.000Z</time>
</trkpt>
<trkpt lat="57.642344" lon="10.427642">
<ele>12.202885</ele>
<time>2026-07-17T10:57:46.000Z</time>
</trkpt>
<trkpt lat="57.642367" lon="10.427743">
<ele>12.180957</ele>
<time>2026-07-17T10:57:47.000Z</time>
</trkpt>
<trkpt lat="57.642386" lon="10.427842">
<ele>12.159945</ele>
<time>2026-07-17T10:57:48.000Z</time>
</trkpt>
<trkpt lat="57.642409" lon="10.427942">
<ele>12.138200</ele>
<time>2026-07-17T10:57:49.000Z</time>
</trkpt>
<trkpt lat="57.642428" lon="10.428037">
<ele>12.117939</ele>
<time>2026-07-17T10:57:50.000Z</time>
</trkpt>
<trkpt lat="57.642447" lon="10.428132">
<ele>12.097678</ele>
<time>2026-07-17T10:57:51.000Z</time>
</trkpt>
<trkpt lat="57.642466" lon="10.428227">
<ele>12.073876</ele>
<time>2026-07-17T10:57:52.000Z</time>
</trkpt>
<trkpt lat="57.642485" lon="10.428318">
<ele>12.050644</ele>
<time>2026-07-17T10:57:53.000Z</time>
</trkpt>
<trkpt lat="57.642504" lon="10.428406">
<ele>12.028075</ele>
<time>2026-07-17T10:57:54.000Z</time>
</trkpt>
<trkpt lat="57.642523" lon="10.428496">
<ele>12.005064</ele>
<time>2026-07-17T10:57:55.000Z</time>
</trkpt>
<trkpt lat="57.642538" lon="10.428586">
<ele>11.982644</ele>
<time>2026-07-17T10:57:56.000Z</time>
</trkpt>
<trkpt lat="57.642557" lon="10.428675">
<ele>11.959854</ele>
<time>2026-07-17T10:57:57.000Z</time>
</trkpt>
<trkpt lat="57.642572" lon="10.428759">
<ele>11.938793</ele>
<time>2026-07-17T10:57:58.000Z</time>
</trkpt>
<trkpt lat="57.642591" lon="10.428853">
<ele>11.914894</ele>
<time>2026-07-17T10:57:59.000Z</time>
</trkpt>
<trkpt lat="57.642607" lon="10.428946">
<ele>11.891660</ele>
<time>2026-07-17T10:58:00.000Z</time>
</trkpt>
<trkpt lat="57.642625" lon="10.429043">
<ele>11.867242</ele>
<time>2026-07-17T10:58:01.000Z</time>
</trkpt>
<trkpt lat="57.642637" lon="10.429151">
<ele>11.841008</ele>
<time>2026-07-17T10:58:02.000Z</time>
</trkpt>
<trkpt lat="57.642653" lon="10.429260">
<ele>11.814126</ele>
<time>2026-07-17T10:58:03.000Z</time>
</trkpt>
<trkpt lat="57.642672" lon="10.429367">
<ele>11.787313</ele>
<time>2026-07-17T10:58:04.000Z</time>
</trkpt>
<trkpt lat="57.642691" lon="10.429471">
<ele>11.761176</ele>
<time>2026-07-17T10:58:05.000Z</time>
</trkpt>
<trkpt lat="57.642710" lon="10.429578">
<ele>11.734363</ele>
<time>2026-07-17T10:58:06.000Z</time>
</trkpt>
<trkpt lat="57.642724" lon="10.429683">
<ele>11.708626</ele>
<time>2026-07-17T10:58:07.000Z</time>
</trkpt>
<trkpt lat="57.642736" lon="10.429791">
<ele>11.682391</ele>
<time>2026-07-17T10:58:08.000Z</time>
</trkpt>
<trkpt lat="57.642747" lon="10.429893">
<ele>11.657644</ele>
<time>2026-07-17T10:58:09.000Z</time>
</trkpt>
<trkpt lat="57.642758" lon="10.429993">
<ele>11.633363</ele>
<time>2026-07-17T10:58:10.000Z</time>
</trkpt>
<trkpt lat="57.642765" lon="10.430099">
<ele>11.607961</ele>
<time>2026-07-17T10:58:11.000Z</time>
</trkpt>
<trkpt lat="57.642769" lon="10.430207">
<ele>11.582212</ele>
<time>2026-07-17T10:58:12.000Z</time>
</trkpt>
<trkpt lat="57.642769" lon="10.430317">
<ele>11.556050</ele>
<time>2026-07-17T10:58:13.000Z</time>
</trkpt>
<trkpt lat="57.642768" lon="10.430427">
<ele>11.529884</ele>
<time>2026-07-17T10:58:14.000Z</time>
</trkpt>
<trkpt lat="57.642765" lon="10.430534">
<ele>11.504400</ele>
<time>2026-07-17T10:58:15.000Z</time>
</trkpt>
<trkpt lat="57.642760" lon="10.430644">
<ele>11.478143</ele>
<time>2026-07-17T10:58:16.000Z</time>
</trkpt>
<trkpt lat="57.642753" lon="10.430750">
<ele>11.452741</ele>
<time>2026-07-17T10:58:17.000Z</time>
</trkpt>
<trkpt lat="57.642744" lon="10.430855">
<ele>11.427450</ele>
<time>2026-07-17T10:58:18.000Z</time>
</trkpt>
<trkpt lat="57.642729" lon="10.430958">
<ele>11.402061</ele>
<time>2026-07-17T10:58:19.000Z</time>
</trkpt>
<trkpt lat="57.642714" lon="10.431062">
<ele>11.376443</ele>
<time>2026-07-17T10:58:20.000Z</time>
</trkpt>
<trkpt lat="57.642699" lon="10.431162">
<ele>11.351743</ele>
<time>2026-07-17T10:58:21.000Z</time>
</trkpt>
<trkpt lat="57.642682" lon="10.431260">
<ele>11.327241</ele>
<time>2026-07-17T10:58:22.000Z</time>
</trkpt>
<trkpt lat="57.642660" lon="10.431363">
<ele>11.300864</ele>
<time>2026-07-17T10:58:23.000Z</time>
</trkpt>
<trkpt lat="57.642641" lon="10.431465">
<ele>11.265919</ele>
<time>2026-07-17T10:58:24.000Z</time>
</trkpt>
<trkpt lat="57.642622" lon="10.431563">
<ele>11.230460</ele>
<time>2026-07-17T10:58:25.000Z</time>
</trkpt>
<trkpt lat="57.642603" lon="10.431661">
<ele>11.195000</ele>
<time>2026-07-17T10:58:26.000Z</time>
</trkpt>
<trkpt lat="57.642588" lon="10.431763">
<ele>11.159014</ele>
<time>2026-07-17T10:58:27.000Z</time>
</trkpt>
<trkpt lat="57.642573" lon="10.431869">
<ele>11.121714</ele>
<time>2026-07-17T10:58:28.000Z</time>
</trkpt>
<trkpt lat="57.642562" lon="10.431975">
<ele>11.084981</ele>
<time>2026-07-17T10:58:29.000Z</time>
</trkpt>
<trkpt lat="57.642555" lon="10.432082">
<ele>11.048309</ele>
<time>2026-07-17T10:58:30.000Z</time>
</trkpt>
<trkpt lat="57.642551" lon="10.432194">
<ele>11.010122</ele>
<time>2026-07-17T10:58:31.000Z</time>
</trkpt>
<trkpt lat="57.642549" lon="10.432308">
<ele>10.971318</ele>
<time>2026-07-17T10:58:32.000Z</time>
</trkpt>
<trkpt lat="57.642557" lon="10.432417">
<ele>10.933889</ele>
<time>2026-07-17T10:58:33.000Z</time>
</trkpt>
<trkpt lat="57.642573" lon="10.432521">
<ele>10.897076</ele>
<time>2026-07-17T10:58:34.000Z</time>
</trkpt>
<trkpt lat="57.642591" lon="10.432623">
<ele>10.860538</ele>
<time>2026-07-17T10:58:35.000Z</time>
</trkpt>
<trkpt lat="57.642607" lon="10.432724">
<ele>10.824704</ele>
<time>2026-07-17T10:58:36.000Z</time>
</trkpt>
<trkpt lat="57.642626" lon="10.432822">
<ele>10.789245</ele>
<time>2026-07-17T10:58:37.000Z</time>
</trkpt>
<trkpt lat="57.642649" lon="10.432915">
<ele>10.754392</ele>
<time>2026-07-17T10:58:38.000Z</time>
</trkpt>
<trkpt lat="57.642672" lon="10.433007">
<ele>10.719847</ele>
<time>2026-07-17T10:58:39.000Z</time>
</trkpt>
<trkpt lat="57.642691" lon="10.433102">
<ele>10.685346</ele>
<time>2026-07-17T10:58:40.000Z</time>
</trkpt>
<trkpt lat="57.642714" lon="10.433198">
<ele>10.649564</ele>
<time>2026-07-17T10:58:41.000Z</time>
</trkpt>
<trkpt lat="57.642737" lon="10.433298">
<ele>10.612535</ele>
<time>2026-07-17T10:58:42.000Z</time>
</trkpt>
<trkpt lat="57.642756" lon="10.433400">
<ele>10.575794</ele>
<time>2026-07-17T10:58:43.000Z</time>
</trkpt>
<trkpt lat="57.642779" lon="10.433499">
<ele>10.539078</ele>
<time>2026-07-17T10:58:44.000Z</time>
</trkpt>
<trkpt lat="57.642798" lon="10.433599">
<ele>10.502978</ele>
<time>2026-07-17T10:58:45.000Z</time>
</trkpt>
<trkpt lat="57.642821" lon="10.433703">
<ele>10.464696</ele>
<time>2026-07-17T10:58:46.000Z</time>
</trkpt>
<trkpt lat="57.642840" lon="10.433803">
<ele>10.428596</ele>
<time>2026-07-17T10:58:47.000Z</time>
</trkpt>
<trkpt lat="57.642863" lon="10.433903">
<ele>10.391568</ele>
<time>2026-07-17T10:58:48.000Z</time>
</trkpt>
<trkpt lat="57.642882" lon="10.434004">
<ele>10.355147</ele>
<time>2026-07-17T10:58:49.000Z</time>
</trkpt>
<trkpt lat="57.642905" lon="10.434107">
<ele>10.317180</ele>
<time>2026-07-17T10:58:50.000Z</time>
</trkpt>
<trkpt lat="57.642928" lon="10.434210">
<ele>10.279212</ele>
<time>2026-07-17T10:58:51.000Z</time>
</trkpt>
<trkpt lat="57.642950" lon="10.434313">
<ele>10.241484</ele>
<time>2026-07-17T10:58:52.000Z</time>
</trkpt>
<trkpt lat="57.642970" lon="10.434417">
<ele>10.203889</ele>
<time>2026-07-17T10:58:53.000Z</time>
</trkpt>
<trkpt lat="57.642992" lon="10.434518">
<ele>10.166793</ele>
<time>2026-07-17T10:58:54.000Z</time>
</trkpt>
<trkpt lat="57.643011" lon="10.434621">
<ele>10.144832</ele>
<time>2026-07-17T10:58:55.000Z</time>
</trkpt>
<trkpt lat="57.643030" lon="10.434723">
<ele>10.131552</ele>
<time>2026-07-17T10:58:56.000Z</time>
</trkpt>
<trkpt lat="57.643050" lon="10.434825">
<ele>10.118193</ele>
<time>2026-07-17T10:58:57.000Z</time>
</trkpt>
<trkpt lat="57.643072" lon="10.434925">
<ele>10.104898</ele>
<time>2026-07-17T10:58:58.000Z</time>
</trkpt>
<trkpt lat="57.643091" lon="10.435023">
<ele>10.092080</ele>
<time>2026-07-17T10:58:59.000Z</time>
</trkpt>
<trkpt lat="57.643110" lon="10.435119">
<ele>10.079494</ele>
<time>2026-07-17T10:59:00.000Z</time>
</trkpt>
<trkpt lat="57.643129" lon="10.435223">
<ele>10.065980</ele>
<time>2026-07-17T10:59:01.000Z</time>
</trkpt>
<trkpt lat="57.643148" lon="10.435324">
<ele>10.052816</ele>
<time>2026-07-17T10:59:02.000Z</time>
</trkpt>
<trkpt lat="57.643168" lon="10.435427">
<ele>10.039342</ele>
<time>2026-07-17T10:59:03.000Z</time>
</trkpt>
<trkpt lat="57.643186" lon="10.435531">
<ele>10.025901</ele>
<time>2026-07-17T10:59:04.000Z</time>
</trkpt>
<trkpt lat="57.643202" lon="10.435634">
<ele>10.012712</ele>
<time>2026-07-17T10:59:05.000Z</time>
</trkpt>
<trkpt lat="57.643221" lon="10.435737">
<ele>9.999315</ele>
<time>2026-07-17T10:59:06.000Z</time>
</trkpt>
<trkpt lat="57.643235" lon="10.435836">
<ele>9.986723</ele>
<time>2026-07-17T10:59:07.000Z</time>
</trkpt>
<trkpt lat="57.643246" lon="10.435940">
<ele>9.973687</ele>
<time>2026-07-17T10:59:08.000Z</time>
</trkpt>
<trkpt lat="57.643249" lon="10.436035">
<ele>9.961985</ele>
<time>2026-07-17T10:59:09.000Z</time>
</trkpt>
<trkpt lat="57.643244" lon="10.436128">
<ele>9.950491</ele>
<time>2026-07-17T10:59:10.000Z</time>
</trkpt>
<trkpt lat="57.643229" lon="10.436220">
<ele>9.938665</ele>
<time>2026-07-17T10:59:11.000Z</time>
</trkpt>
<trkpt lat="57.643213" lon="10.436310">
<ele>9.927003</ele>
<time>2026-07-17T10:59:12.000Z</time>
</trkpt>
<trkpt lat="57.643194" lon="10.436394">
<ele>9.915789</ele>
<time>2026-07-17T10:59:13.000Z</time>
</trkpt>
<trkpt lat="57.643170" lon="10.436480">
<ele>9.903862</ele>
<time>2026-07-17T10:59:14.000Z</time>
</trkpt>
<trkpt lat="57.643144" lon="10.436564">
<ele>9.891929</ele>
<time>2026-07-17T10:59:15.000Z</time>
</trkpt>
<trkpt lat="57.643116" lon="10.436645">
<ele>9.880072</ele>
<time>2026-07-17T10:59:16.000Z</time>
</trkpt>
<trkpt lat="57.643081" lon="10.436719">
<ele>9.867928</ele>
<time>2026-07-17T10:59:17.000Z</time>
</trkpt>
<trkpt lat="57.643043" lon="10.436790">
<ele>9.855580</ele>
<time>2026-07-17T10:59:18.000Z</time>
</trkpt>
<trkpt lat="57.643000" lon="10.436847">
<ele>9.843466</ele>
<time>2026-07-17T10:59:19.000Z</time>
</trkpt>
<trkpt lat="57.642954" lon="10.436890">
<ele>9.831648</ele>
<time>2026-07-17T10:59:20.000Z</time>
</trkpt>
<trkpt lat="57.642905" lon="10.436918">
<ele>9.819875</ele>
<time>2026-07-17T10:59:21.000Z</time>
</trkpt>
<trkpt lat="57.642851" lon="10.436928">
<ele>9.807406</ele>
<time>2026-07-17T10:59:22.000Z</time>
</trkpt>
<trkpt lat="57.642797" lon="10.436921">
<ele>9.794969</ele>
<time>2026-07-17T10:59:23.000Z</time>
</trkpt>
<trkpt lat="57.642744" lon="10.436909">
<ele>9.782702</ele>
<time>2026-07-17T10:59:24.000Z</time>
</trkpt>
<trkpt lat="57.642687" lon="10.436900">
<ele>9.769559</ele>
<time>2026-07-17T10:59:25.000Z</time>
</trkpt>
<trkpt lat="57.642633" lon="10.436895">
<ele>9.757136</ele>
<time>2026-07-17T10:59:26.000Z</time>
</trkpt>
<trkpt lat="57.642572" lon="10.436886">
<ele>9.743077</ele>
<time>2026-07-17T10:59:27.000Z</time>
</trkpt>
<trkpt lat="57.642516" lon="10.436878">
<ele>9.701788</ele>
<time>2026-07-17T10:59:28.000Z</time>
</trkpt>
<trkpt lat="57.642458" lon="10.436877">
<ele>9.650402</ele>
<time>2026-07-17T10:59:29.000Z</time>
</trkpt>
<trkpt lat="57.642400" lon="10.436879">
<ele>9.599009</ele>
<time>2026-07-17T10:59:30.000Z</time>
</trkpt>
<trkpt lat="57.642339" lon="10.436883">
<ele>9.544934</ele>
<time>2026-07-17T10:59:31.000Z</time>
</trkpt>
<trkpt lat="57.642283" lon="10.436892">
<ele>9.495139</ele>
<time>2026-07-17T10:59:32.000Z</time>
</trkpt>
<trkpt lat="57.642228" lon="10.436899">
<ele>9.446300</ele>
<time>2026-07-17T10:59:33.000Z</time>
</trkpt>
<trkpt lat="57.642171" lon="10.436904">
<ele>9.395746</ele>
<time>2026-07-17T10:59:34.000Z</time>
</trkpt>
<trkpt lat="57.642110" lon="10.436910">
<ele>9.341630</ele>
<time>2026-07-17T10:59:35.000Z</time>
</trkpt>
<trkpt lat="57.642053" lon="10.436914">
<ele>9.291096</ele>
<time>2026-07-17T10:59:36.000Z</time>
</trkpt>
<trkpt lat="57.642000" lon="10.436917">
<ele>9.244120</ele>
<time>2026-07-17T10:59:37.000Z</time>
</trkpt>
<trkpt lat="57.641951" lon="10.436920">
<ele>9.200686</ele>
<time>2026-07-17T10:59:38.000Z</time>
</trkpt>
<trkpt lat="57.641902" lon="10.436916">
<ele>9.157234</ele>
<time>2026-07-17T10:59:39.000Z</time>
</trkpt>
<trkpt lat="57.641852" lon="10.436917">
<ele>9.112935</ele>
<time>2026-07-17T10:59:40.000Z</time>
</trkpt>
<trkpt lat="57.641812" lon="10.436925">
<ele>9.077296</ele>
<time>2026-07-17T10:59:41.000Z</time>
</trkpt>
<trkpt lat="57.641778" lon="10.436948">
<ele>9.045261</ele>
<time>2026-07-17T10:59:42.000Z</time>
</trkpt>
<trkpt lat="57.641748" lon="10.436981">
<ele>9.014419</ele>
<time>2026-07-17T10:59:43.000Z</time>
</trkpt>
<trkpt lat="57.641729" lon="10.437026">
<ele>8.987241</ele>
<time>2026-07-17T10:59:44.000Z</time>
</trkpt>
<trkpt lat="57.641711" lon="10.437078">
<ele>8.957878</ele>
<time>2026-07-17T10:59:45.000Z</time>
</trkpt>
<trkpt lat="57.641700" lon="10.437142">
<ele>8.926005</ele>
<time>2026-07-17T10:59:46.000Z</time>
</trkpt>
<trkpt lat="57.641697" lon="10.437214">
<ele>8.891762</ele>
<time>2026-07-17T10:59:47.000Z</time>
</trkpt>
<trkpt lat="57.641697" lon="10.437295">
<ele>8.853355</ele>
<time>2026-07-17T10:59:48.000Z</time>
</trkpt>
<trkpt lat="57.641697" lon="10.437383">
<ele>8.811629</ele>
<time>2026-07-17T10:59:49.000Z</time>
</trkpt>
<trkpt lat="57.641697" lon="10.437468">
<ele>8.771325</ele>
<time>2026-07-17T10:59:50.000Z</time>
</trkpt>
<trkpt lat="57.641697" lon="10.437557">
<ele>8.729125</ele>
<time>2026-07-17T10:59:51.000Z</time>
</trkpt>
<trkpt lat="57.641697" lon="10.437648">
<ele>8.685976</ele>
<time>2026-07-17T10:59:52.000Z</time>
</trkpt>
<trkpt lat="57.641693" lon="10.437744">
<ele>8.640319</ele>
<time>2026-07-17T10:59:53.000Z</time>
</trkpt>
<trkpt lat="57.641689" lon="10.437839">
<ele>8.595135</ele>
<time>2026-07-17T10:59:54.000Z</time>
</trkpt>
<trkpt lat="57.641685" lon="10.437928">
<ele>8.552786</ele>
<time>2026-07-17T10:59:55.000Z</time>
</trkpt>
<trkpt lat="57.641681" lon="10.438016">
<ele>8.510910</ele>
<time>2026-07-17T10:59:56.000Z</time>
</trkpt>
<trkpt lat="57.641674" lon="10.438099">
<ele>8.471069</ele>
<time>2026-07-17T10:59:57.000Z</time>
</trkpt>
<trkpt lat="57.641669" lon="10.438180">
<ele>8.432407</ele>
<time>2026-07-17T10:59:58.000Z</time>
</trkpt>
<trkpt lat="57.641663" lon="10.438253">
<ele>8.397388</ele>
<time>2026-07-17T10:59:59.000Z</time>
</trkpt>
<trkpt lat="57.641662" lon="10.438326">
<ele>8.362763</ele>
<time>2026-07-17T11:00:00.000Z</time>
</trkpt>
<trkpt lat="57.641658" lon="10.438405">
<ele>8.325137</ele>
<time>2026-07-17T11:00:01.000Z</time>
</trkpt>
<trkpt lat="57.641654" lon="10.438488">
<ele>8.285622</ele>
<time>2026-07-17T11:00:02.000Z</time>
</trkpt>
<trkpt lat="57.641647" lon="10.438575">
<ele>8.243907</ele>
<time>2026-07-17T11:00:03.000Z</time>
</trkpt>
<trkpt lat="57.641639" lon="10.438662">
<ele>8.202050</ele>
<time>2026-07-17T11:00:04.000Z</time>
</trkpt>
<trkpt lat="57.641631" lon="10.438752">
<ele>8.158791</ele>
<time>2026-07-17T11:00:05.000Z</time>
</trkpt>
<trkpt lat="57.641624" lon="10.438848">
<ele>8.141412</ele>
<time>2026-07-17T11:00:06.000Z</time>
</trkpt>
<trkpt lat="57.641616" lon="10.438942">
<ele>8.134428</ele>
<time>2026-07-17T11:00:07.000Z</time>
</trkpt>
<trkpt lat="57.641612" lon="10.439032">
<ele>8.127803</ele>
<time>2026-07-17T11:00:08.000Z</time>
</trkpt>
<trkpt lat="57.641605" lon="10.439123">
<ele>8.121058</ele>
<time>2026-07-17T11:00:09.000Z</time>
</trkpt>
<trkpt lat="57.641601" lon="10.439211">
<ele>8.114578</ele>
<time>2026-07-17T11:00:10.000Z</time>
</trkpt>
<trkpt lat="57.641598" lon="10.439300">
<ele>8.108035</ele>
<time>2026-07-17T11:00:11.000Z</time>
</trkpt>
<trkpt lat="57.641597" lon="10.439392">
<ele>8.101284</ele>
<time>2026-07-17T11:00:12.000Z</time>
</trkpt>
<trkpt lat="57.641593" lon="10.439481">
<ele>8.094731</ele>
<time>2026-07-17T11:00:13.000Z</time>
</trkpt>
<trkpt lat="57.641586" lon="10.439572">
<ele>8.087986</ele>
<time>2026-07-17T11:00:14.000Z</time>
</trkpt>
<trkpt lat="57.641582" lon="10.439669">
<ele>8.080849</ele>
<time>2026-07-17T11:00:15.000Z</time>
</trkpt>
<trkpt lat="57.641578" lon="10.439759">
<ele>8.074223</ele>
<time>2026-07-17T11:00:16.000Z</time>
</trkpt>
<trkpt lat="57.641574" lon="10.439848">
<ele>8.067670</ele>
<time>2026-07-17T11:00:17.000Z</time>
</trkpt>
<trkpt lat="57.641567" lon="10.439932">
<ele>8.061433</ele>
<time>2026-07-17T11:00:18.000Z</time>
</trkpt>
<trkpt lat="57.641562" lon="10.440010">
<ele>8.055669</ele>
<time>2026-07-17T11:00:19.000Z</time>
</trkpt>
<trkpt lat="57.641551" lon="10.440092">
<ele>8.049467</ele>
<time>2026-07-17T11:00:20.000Z</time>
</trkpt>
<trkpt lat="57.641539" lon="10.440179">
<ele>8.042875</ele>
<time>2026-07-17T11:00:21.000Z</time>
</trkpt>
<trkpt lat="57.641528" lon="10.440260">
<ele>8.036744</ele>
<time>2026-07-17T11:00:22.000Z</time>
</trkpt>
<trkpt lat="57.641516" lon="10.440342">
<ele>8.030507</ele>
<time>2026-07-17T11:00:23.000Z</time>
</trkpt>
<trkpt lat="57.641505" lon="10.440424">
<ele>8.024305</ele>
<time>2026-07-17T11:00:24.000Z</time>
</trkpt>
<trkpt lat="57.641494" lon="10.440507">
<ele>8.018032</ele>
<time>2026-07-17T11:00:25.000Z</time>
</trkpt>
<trkpt lat="57.641477" lon="10.440591">
<ele>8.011443</ele>
<time>2026-07-17T11:00:26.000Z</time>
</trkpt>
<trkpt lat="57.641459" lon="10.440664">
<ele>8.005546</ele>
<time>2026-07-17T11:00:27.000Z</time>
</trkpt>
<trkpt lat="57.641444" lon="10.440732">
<ele>8.000150</ele>
<time>2026-07-17T11:00:28.000Z</time>
</trkpt>
<trkpt lat="57.641429" lon="10.440798">
<ele>7.994889</ele>
<time>2026-07-17T11:00:29.000Z</time>
</trkpt>
<trkpt lat="57.641417" lon="10.440868">
<ele>7.989496</ele>
<time>2026-07-17T11:00:30.000Z</time>
</trkpt>
<trkpt lat="57.641405" lon="10.440944">
<ele>7.983683</ele>
<time>2026-07-17T11:00:31.000Z</time>
</trkpt>
<trkpt lat="57.641390" lon="10.441016">
<ele>7.978014</ele>
<time>2026-07-17T11:00:32.000Z</time>
</trkpt>
<trkpt lat="57.641379" lon="10.441087">
<ele>7.972591</ele>
<time>2026-07-17T11:00:33.000Z</time>
</trkpt>
<trkpt lat="57.641364" lon="10.441150">
<ele>7.967532</ele>
<time>2026-07-17T11:00:34.000Z</time>
</trkpt>
<trkpt lat="57.641353" lon="10.441216">
<ele>7.962460</ele>
<time>2026-07-17T11:00:35.000Z</time>
</trkpt>
<trkpt lat="57.641346" lon="10.441282">
<ele>7.957524</ele>
<time>2026-07-17T11:00:36.000Z</time>
</trkpt>
<trkpt lat="57.641346" lon="10.441347">
<ele>7.952755</ele>
<time>2026-07-17T11:00:37.000Z</time>
</trkpt>
<trkpt lat="57.641345" lon="10.441413">
<ele>7.947911</ele>
<time>2026-07-17T11:00:38.000Z</time>
</trkpt>
<trkpt lat="57.641338" lon="10.441477">
<ele>7.943118</ele>
<time>2026-07-17T11:00:39.000Z</time>
</trkpt>
<trkpt lat="57.641330" lon="10.441538">
<ele>7.938510</ele>
<time>2026-07-17T11:00:40.000Z</time>
</trkpt>
<trkpt lat="57.641322" lon="10.441589">
<ele>7.934611</ele>
<time>2026-07-17T11:00:41.000Z</time>
</trkpt>
<trkpt lat="57.641316" lon="10.441638">
<ele>7.930923</ele>
<time>2026-07-17T11:00:42.000Z</time>
</trkpt>
<trkpt lat="57.641320" lon="10.441676">
<ele>7.928082</ele>
<time>2026-07-17T11:00:43.000Z</time>
</trkpt>
<trkpt lat="57.641328" lon="10.441708">
<ele>7.925490</ele>
<time>2026-07-17T11:00:44.000Z</time>
</trkpt>
<trkpt lat="57.641340" lon="10.441734">
<ele>7.922972</ele>
<time>2026-07-17T11:00:45.000Z</time>
</trkpt>
<trkpt lat="57.641351" lon="10.441760">
<ele>7.920540</ele>
<time>2026-07-17T11:00:46.000Z</time>
</trkpt>
<trkpt lat="57.641363" lon="10.441777">
<ele>7.918476</ele>
<time>2026-07-17T11:00:47.000Z</time>
</trkpt>
<trkpt lat="57.641373" lon="10.441794">
<ele>7.916622</ele>
<time>2026-07-17T11:00:48.000Z</time>
</trkpt>
<trkpt lat="57.641381" lon="10.441813">
<ele>7.914849</ele>
<time>2026-07-17T11:00:49.000Z</time>
</trkpt>
<trkpt lat="57.641389" lon="10.441828">
<ele>7.913295</ele>
<time>2026-07-17T11:00:50.000Z</time>
</trkpt>
<trkpt lat="57.641396" lon="10.441839">
<ele>7.912041</ele>
<time>2026-07-17T11:00:51.000Z</time>
</trkpt>
<trkpt lat="57.641404" lon="10.441910">
<ele>7.906718</ele>
<time>2026-07-17T11:02:35.000Z</time>
</trkpt>
<trkpt lat="57.641418" lon="10.441914">
<ele>7.904776</ele>
<time>2026-07-17T11:02:36.000Z</time>
</trkpt>
<trkpt lat="57.641431" lon="10.441918">
<ele>7.902970</ele>
<time>2026-07-17T11:02:37.000Z</time>
</trkpt>
<trkpt lat="57.641443" lon="10.441931">
<ele>7.901069</ele>
<time>2026-07-17T11:02:38.000Z</time>
</trkpt>
<trkpt lat="57.641458" lon="10.441946">
<ele>7.902394</ele>
<time>2026-07-17T11:02:39.000Z</time>
</trkpt>
<trkpt lat="57.641478" lon="10.441960">
<ele>7.907439</ele>
<time>2026-07-17T11:02:40.000Z</time>
</trkpt>
<trkpt lat="57.641497" lon="10.441975">
<ele>7.912311</ele>
<time>2026-07-17T11:02:41.000Z</time>
</trkpt>
<trkpt lat="57.641516" lon="10.441990">
<ele>7.917184</ele>
<time>2026-07-17T11:02:42.000Z</time>
</trkpt>
<trkpt lat="57.641535" lon="10.442007">
<ele>7.922160</ele>
<time>2026-07-17T11:02:43.000Z</time>
</trkpt>
<trkpt lat="57.641554" lon="10.442029">
<ele>7.927441</ele>
<time>2026-07-17T11:02:44.000Z</time>
</trkpt>
<trkpt lat="57.641578" lon="10.442059">
<ele>7.934262</ele>
<time>2026-07-17T11:02:45.000Z</time>
</trkpt>
<trkpt lat="57.641604" lon="10.442098">
<ele>7.942138</ele>
<time>2026-07-17T11:02:46.000Z</time>
</trkpt>
<trkpt lat="57.641632" lon="10.442136">
<ele>7.950313</ele>
<time>2026-07-17T11:02:47.000Z</time>
</trkpt>
<trkpt lat="57.641667" lon="10.442173">
<ele>7.959813</ele>
<time>2026-07-17T11:02:48.000Z</time>
</trkpt>
<trkpt lat="57.641701" lon="10.442210">
<ele>7.969107</ele>
<time>2026-07-17T11:02:49.000Z</time>
</trkpt>
<trkpt lat="57.641738" lon="10.442248">
<ele>7.979081</ele>
<time>2026-07-17T11:02:50.000Z</time>
</trkpt>
<trkpt lat="57.641770" lon="10.442284">
<ele>7.987905</ele>
<time>2026-07-17T11:02:51.000Z</time>
</trkpt>
<trkpt lat="57.641808" lon="10.442321">
<ele>7.998027</ele>
<time>2026-07-17T11:02:52.000Z</time>
</trkpt>
<trkpt lat="57.641846" lon="10.442353">
<ele>8.007873</ele>
<time>2026-07-17T11:02:53.000Z</time>
</trkpt>
<trkpt lat="57.641884" lon="10.442390">
<ele>8.017995</ele>
<time>2026-07-17T11:02:54.000Z</time>
</trkpt>
<trkpt lat="57.641918" lon="10.442423">
<ele>8.027046</ele>
<time>2026-07-17T11:02:55.000Z</time>
</trkpt>
<trkpt lat="57.641956" lon="10.442454">
<ele>8.036841</ele>
<time>2026-07-17T11:02:56.000Z</time>
</trkpt>
<trkpt lat="57.641995" lon="10.442493">
<ele>8.047290</ele>
<time>2026-07-17T11:02:57.000Z</time>
</trkpt>
<trkpt lat="57.642041" lon="10.442535">
<ele>8.059385</ele>
<time>2026-07-17T11:02:58.000Z</time>
</trkpt>
<trkpt lat="57.642083" lon="10.442569">
<ele>8.070197</ele>
<time>2026-07-17T11:02:59.000Z</time>
</trkpt>
<trkpt lat="57.642120" lon="10.442607">
<ele>8.080171</ele>
<time>2026-07-17T11:03:00.000Z</time>
</trkpt>
<trkpt lat="57.642155" lon="10.442641">
<ele>8.089490</ele>
<time>2026-07-17T11:03:01.000Z</time>
</trkpt>
<trkpt lat="57.642194" lon="10.442678">
<ele>8.099822</ele>
<time>2026-07-17T11:03:02.000Z</time>
</trkpt>
<trkpt lat="57.642236" lon="10.442711">
<ele>8.110585</ele>
<time>2026-07-17T11:03:03.000Z</time>
</trkpt>
<trkpt lat="57.642277" lon="10.442745">
<ele>8.121181</ele>
<time>2026-07-17T11:03:04.000Z</time>
</trkpt>
<trkpt lat="57.642320" lon="10.442783">
<ele>8.132418</ele>
<time>2026-07-17T11:03:05.000Z</time>
</trkpt>
<trkpt lat="57.642365" lon="10.442813">
<ele>8.143704</ele>
<time>2026-07-17T11:03:06.000Z</time>
</trkpt>
<trkpt lat="57.642408" lon="10.442845">
<ele>8.154638</ele>
<time>2026-07-17T11:03:07.000Z</time>
</trkpt>
<trkpt lat="57.642452" lon="10.442878">
<ele>8.165838</ele>
<time>2026-07-17T11:03:08.000Z</time>
</trkpt>
<trkpt lat="57.642491" lon="10.442912">
<ele>8.176004</ele>
<time>2026-07-17T11:03:09.000Z</time>
</trkpt>
<trkpt lat="57.642533" lon="10.442946">
<ele>8.186817</ele>
<time>2026-07-17T11:03:10.000Z</time>
</trkpt>
<trkpt lat="57.642575" lon="10.442982">
<ele>8.197733</ele>
<time>2026-07-17T11:03:11.000Z</time>
</trkpt>
<trkpt lat="57.642613" lon="10.443022">
<ele>8.208036</ele>
<time>2026-07-17T11:03:12.000Z</time>
</trkpt>
<trkpt lat="57.642651" lon="10.443067">
<ele>8.218663</ele>
<time>2026-07-17T11:03:13.000Z</time>
</trkpt>
<trkpt lat="57.642690" lon="10.443120">
<ele>8.230055</ele>
<time>2026-07-17T11:03:14.000Z</time>
</trkpt>
<trkpt lat="57.642735" lon="10.443188">
<ele>8.243727</ele>
<time>2026-07-17T11:03:15.000Z</time>
</trkpt>
<trkpt lat="57.642777" lon="10.443259">
<ele>8.257106</ele>
<time>2026-07-17T11:03:16.000Z</time>
</trkpt>
<trkpt lat="57.642815" lon="10.443325">
<ele>8.269362</ele>
<time>2026-07-17T11:03:17.000Z</time>
</trkpt>
<trkpt lat="57.642850" lon="10.443387">
<ele>8.280755</ele>
<time>2026-07-17T11:03:18.000Z</time>
</trkpt>
<trkpt lat="57.642891" lon="10.443453">
<ele>8.293539</ele>
<time>2026-07-17T11:03:19.000Z</time>
</trkpt>
<trkpt lat="57.642929" lon="10.443522">
<ele>8.306056</ele>
<time>2026-07-17T11:03:20.000Z</time>
</trkpt>
<trkpt lat="57.642968" lon="10.443593">
<ele>8.318919</ele>
<time>2026-07-17T11:03:21.000Z</time>
</trkpt>
<trkpt lat="57.643010" lon="10.443657">
<ele>8.310911</ele>
<time>2026-07-17T11:03:22.000Z</time>
</trkpt>
<trkpt lat="57.643048" lon="10.443718">
<ele>8.286294</ele>
<time>2026-07-17T11:03:23.000Z</time>
</trkpt>
<trkpt lat="57.643086" lon="10.443777">
<ele>8.262017</ele>
<time>2026-07-17T11:03:24.000Z</time>
</trkpt>
<trkpt lat="57.643128" lon="10.443835">
<ele>8.236355</ele>
<time>2026-07-17T11:03:25.000Z</time>
</trkpt>
<trkpt lat="57.643167" lon="10.443889">
<ele>8.212503</ele>
<time>2026-07-17T11:03:26.000Z</time>
</trkpt>
<trkpt lat="57.643208" lon="10.443942">
<ele>8.188006</ele>
<time>2026-07-17T11:03:27.000Z</time>
</trkpt>
<trkpt lat="57.643246" lon="10.443989">
<ele>8.165614</ele>
<time>2026-07-17T11:03:28.000Z</time>
</trkpt>
<trkpt lat="57.643284" lon="10.444027">
<ele>8.144436</ele>
<time>2026-07-17T11:03:29.000Z</time>
</trkpt>
<trkpt lat="57.643323" lon="10.444066">
<ele>8.122700</ele>
<time>2026-07-17T11:03:30.000Z</time>
</trkpt>
<trkpt lat="57.643364" lon="10.444111">
<ele>8.099336</ele>
<time>2026-07-17T11:03:31.000Z</time>
</trkpt>
<trkpt lat="57.643402" lon="10.444149">
<ele>8.078158</ele>
<time>2026-07-17T11:03:32.000Z</time>
</trkpt>
<trkpt lat="57.643439" lon="10.444189">
<ele>8.057153</ele>
<time>2026-07-17T11:03:33.000Z</time>
</trkpt>
<trkpt lat="57.643482" lon="10.444237">
<ele>8.032541</ele>
<time>2026-07-17T11:03:34.000Z</time>
</trkpt>
<trkpt lat="57.643522" lon="10.444283">
<ele>8.009462</ele>
<time>2026-07-17T11:03:35.000Z</time>
</trkpt>
<trkpt lat="57.643568" lon="10.444334">
<ele>7.983179</ele>
<time>2026-07-17T11:03:36.000Z</time>
</trkpt>
<trkpt lat="57.643617" lon="10.444386">
<ele>7.955490</ele>
<time>2026-07-17T11:03:37.000Z</time>
</trkpt>
<trkpt lat="57.643662" lon="10.444440">
<ele>7.929211</ele>
<time>2026-07-17T11:03:38.000Z</time>
</trkpt>
<trkpt lat="57.643709" lon="10.444497">
<ele>7.901679</ele>
<time>2026-07-17T11:03:39.000Z</time>
</trkpt>
<trkpt lat="57.643757" lon="10.444558">
<ele>7.873155</ele>
<time>2026-07-17T11:03:40.000Z</time>
</trkpt>
<trkpt lat="57.643800" lon="10.444623">
<ele>7.845978</ele>
<time>2026-07-17T11:03:41.000Z</time>
</trkpt>
<trkpt lat="57.643846" lon="10.444696">
<ele>7.816323</ele>
<time>2026-07-17T11:03:42.000Z</time>
</trkpt>
<trkpt lat="57.643890" lon="10.444775">
<ele>7.786339</ele>
<time>2026-07-17T11:03:43.000Z</time>
</trkpt>
<trkpt lat="57.643933" lon="10.444865">
<ele>7.754612</ele>
<time>2026-07-17T11:03:44.000Z</time>
</trkpt>
<trkpt lat="57.643971" lon="10.444959">
<ele>7.723634</ele>
<time>2026-07-17T11:03:45.000Z</time>
</trkpt>
<trkpt lat="57.644008" lon="10.445051">
<ele>7.693371</ele>
<time>2026-07-17T11:03:46.000Z</time>
</trkpt>
<trkpt lat="57.644039" lon="10.445150">
<ele>7.663208</ele>
<time>2026-07-17T11:03:47.000Z</time>
</trkpt>
<trkpt lat="57.644068" lon="10.445244">
<ele>7.634675</ele>
<time>2026-07-17T11:03:48.000Z</time>
</trkpt>
<trkpt lat="57.644095" lon="10.445340">
<ele>7.606157</ele>
<time>2026-07-17T11:03:49.000Z</time>
</trkpt>
<trkpt lat="57.644114" lon="10.445439">
<ele>7.578499</ele>
<time>2026-07-17T11:03:50.000Z</time>
</trkpt>
<trkpt lat="57.644137" lon="10.445534">
<ele>7.551080</ele>
<time>2026-07-17T11:03:51.000Z</time>
</trkpt>
<trkpt lat="57.644156" lon="10.445626">
<ele>7.525148</ele>
<time>2026-07-17T11:03:52.000Z</time>
</trkpt>
<trkpt lat="57.644179" lon="10.445716">
<ele>7.498921</ele>
<time>2026-07-17T11:03:53.000Z</time>
</trkpt>
<trkpt lat="57.644206" lon="10.445806">
<ele>7.471789</ele>
<time>2026-07-17T11:03:54.000Z</time>
</trkpt>
<trkpt lat="57.644234" lon="10.445892">
<ele>7.445317</ele>
<time>2026-07-17T11:03:55.000Z</time>
</trkpt>
<trkpt lat="57.644268" lon="10.445967">
<ele>7.414466</ele>
<time>2026-07-17T11:03:56.000Z</time>
</trkpt>
<trkpt lat="57.644303" lon="10.446029">
<ele>7.385303</ele>
<time>2026-07-17T11:03:57.000Z</time>
</trkpt>
<trkpt lat="57.644340" lon="10.446081">
<ele>7.357307</ele>
<time>2026-07-17T11:03:58.000Z</time>
</trkpt>
<trkpt lat="57.644379" lon="10.446128">
<ele>7.329245</ele>
<time>2026-07-17T11:03:59.000Z</time>
</trkpt>
<trkpt lat="57.644414" lon="10.446172">
<ele>7.303737</ele>
<time>2026-07-17T11:04:00.000Z</time>
</trkpt>
<trkpt lat="57.644452" lon="10.446213">
<ele>7.277203</ele>
<time>2026-07-17T11:04:01.000Z</time>
</trkpt>
<trkpt lat="57.644493" lon="10.446256">
<ele>7.248773</ele>
<time>2026-07-17T11:04:02.000Z</time>
</trkpt>
<trkpt lat="57.644528" lon="10.446296">
<ele>7.223964</ele>
<time>2026-07-17T11:04:03.000Z</time>
</trkpt>
<trkpt lat="57.644566" lon="10.446335">
<ele>7.197748</ele>
<time>2026-07-17T11:04:04.000Z</time>
</trkpt>
<trkpt lat="57.644605" lon="10.446378">
<ele>7.170365</ele>
<time>2026-07-17T11:04:05.000Z</time>
</trkpt>
<trkpt lat="57.644646" lon="10.446421">
<ele>7.141935</ele>
<time>2026-07-17T11:04:06.000Z</time>
</trkpt>
<trkpt lat="57.644684" lon="10.446464">
<ele>7.115072</ele>
<time>2026-07-17T11:04:07.000Z</time>
</trkpt>
<trkpt lat="57.644722" lon="10.446511">
<ele>7.087516</ele>
<time>2026-07-17T11:04:08.000Z</time>
</trkpt>
<trkpt lat="57.644760" lon="10.446559">
<ele>7.059780</ele>
<time>2026-07-17T11:04:09.000Z</time>
</trkpt>
<trkpt lat="57.644793" lon="10.446614">
<ele>7.033041</ele>
<time>2026-07-17T11:04:10.000Z</time>
</trkpt>
<trkpt lat="57.644826" lon="10.446675">
<ele>7.004972</ele>
<time>2026-07-17T11:04:11.000Z</time>
</trkpt>
<trkpt lat="57.644866" lon="10.446746">
<ele>6.971611</ele>
<time>2026-07-17T11:04:12.000Z</time>
</trkpt>
<trkpt lat="57.644897" lon="10.446818">
<ele>6.941707</ele>
<time>2026-07-17T11:04:13.000Z</time>
</trkpt>
<trkpt lat="57.644931" lon="10.446893">
<ele>6.909899</ele>
<time>2026-07-17T11:04:14.000Z</time>
</trkpt>
<trkpt lat="57.644962" lon="10.446970">
<ele>6.878717</ele>
<time>2026-07-17T11:04:15.000Z</time>
</trkpt>
<trkpt lat="57.644997" lon="10.447049">
<ele>6.845529</ele>
<time>2026-07-17T11:04:16.000Z</time>
</trkpt>
<trkpt lat="57.645031" lon="10.447129">
<ele>6.812470</ele>
<time>2026-07-17T11:04:17.000Z</time>
</trkpt>
<trkpt lat="57.645066" lon="10.447212">
<ele>6.778274</ele>
<time>2026-07-17T11:04:18.000Z</time>
</trkpt>
<trkpt lat="57.645108" lon="10.447301">
<ele>6.739875</ele>
<time>2026-07-17T11:04:19.000Z</time>
</trkpt>
<trkpt lat="57.645141" lon="10.447386">
<ele>6.705892</ele>
<time>2026-07-17T11:04:20.000Z</time>
</trkpt>
<trkpt lat="57.645173" lon="10.447475">
<ele>6.671195</ele>
<time>2026-07-17T11:04:21.000Z</time>
</trkpt>
<trkpt lat="57.645210" lon="10.447569">
<ele>6.633434</ele>
<time>2026-07-17T11:04:22.000Z</time>
</trkpt>
<trkpt lat="57.645245" lon="10.447660">
<ele>6.597169</ele>
<time>2026-07-17T11:04:23.000Z</time>
</trkpt>
<trkpt lat="57.645286" lon="10.447752">
<ele>6.558427</ele>
<time>2026-07-17T11:04:24.000Z</time>
</trkpt>
<trkpt lat="57.645321" lon="10.447844">
<ele>6.521899</ele>
<time>2026-07-17T11:04:25.000Z</time>
</trkpt>
<trkpt lat="57.645359" lon="10.447934">
<ele>6.484802</ele>
<time>2026-07-17T11:04:26.000Z</time>
</trkpt>
<trkpt lat="57.645397" lon="10.448024">
<ele>6.447704</ele>
<time>2026-07-17T11:04:27.000Z</time>
</trkpt>
<trkpt lat="57.645435" lon="10.448121">
<ele>6.408803</ele>
<time>2026-07-17T11:04:28.000Z</time>
</trkpt>
<trkpt lat="57.645473" lon="10.448213">
<ele>6.371195</ele>
<time>2026-07-17T11:04:29.000Z</time>
</trkpt>
<trkpt lat="57.645508" lon="10.448302">
<ele>6.335800</ele>
<time>2026-07-17T11:04:30.000Z</time>
</trkpt>
<trkpt lat="57.645546" lon="10.448390">
<ele>6.299908</ele>
<time>2026-07-17T11:04:31.000Z</time>
</trkpt>
<trkpt lat="57.645584" lon="10.448482">
<ele>6.263019</ele>
<time>2026-07-17T11:04:32.000Z</time>
</trkpt>
<trkpt lat="57.645623" lon="10.448575">
<ele>6.225515</ele>
<time>2026-07-17T11:04:33.000Z</time>
</trkpt>
<trkpt lat="57.645661" lon="10.448668">
<ele>6.188375</ele>
<time>2026-07-17T11:04:34.000Z</time>
</trkpt>
<trkpt lat="57.645703" lon="10.448762">
<ele>6.149505</ele>
<time>2026-07-17T11:04:35.000Z</time>
</trkpt>
<trkpt lat="57.645741" lon="10.448855">
<ele>6.112364</ele>
<time>2026-07-17T11:04:36.000Z</time>
</trkpt>
<trkpt lat="57.645779" lon="10.448955">
<ele>6.073434</ele>
<time>2026-07-17T11:04:37.000Z</time>
</trkpt>
<trkpt lat="57.645817" lon="10.449044">
<ele>6.037295</ele>
<time>2026-07-17T11:04:38.000Z</time>
</trkpt>
<trkpt lat="57.645851" lon="10.449134">
<ele>6.002326</ele>
<time>2026-07-17T11:04:39.000Z</time>
</trkpt>
<trkpt lat="57.645885" lon="10.449232">
<ele>5.965254</ele>
<time>2026-07-17T11:04:40.000Z</time>
</trkpt>
<trkpt lat="57.645916" lon="10.449326">
<ele>5.930207</ele>
<time>2026-07-17T11:04:41.000Z</time>
</trkpt>
<trkpt lat="57.645950" lon="10.449415">
<ele>5.895497</ele>
<time>2026-07-17T11:04:42.000Z</time>
</trkpt>
<trkpt lat="57.645989" lon="10.449510">
<ele>5.857492</ele>
<time>2026-07-17T11:04:43.000Z</time>
</trkpt>
<trkpt lat="57.646027" lon="10.449599">
<ele>5.821353</ele>
<time>2026-07-17T11:04:44.000Z</time>
</trkpt>
<trkpt lat="57.646065" lon="10.449685">
<ele>5.785952</ele>
<time>2026-07-17T11:04:45.000Z</time>
</trkpt>
<trkpt lat="57.646103" lon="10.449777">
<ele>5.749064</ele>
<time>2026-07-17T11:04:46.000Z</time>
</trkpt>
<trkpt lat="57.646138" lon="10.449868">
<ele>5.713493</ele>
<time>2026-07-17T11:04:47.000Z</time>
</trkpt>
<trkpt lat="57.646175" lon="10.449952">
<ele>5.678960</ele>
<time>2026-07-17T11:04:48.000Z</time>
</trkpt>
<trkpt lat="57.646213" lon="10.450041">
<ele>5.642820</ele>
<time>2026-07-17T11:04:49.000Z</time>
</trkpt>
<trkpt lat="57.646248" lon="10.450135">
<ele>5.606472</ele>
<time>2026-07-17T11:04:50.000Z</time>
</trkpt>
<trkpt lat="57.646282" lon="10.450229">
<ele>5.570459</ele>
<time>2026-07-17T11:04:51.000Z</time>
</trkpt>
<trkpt lat="57.646317" lon="10.450330">
<ele>5.532266</ele>
<time>2026-07-17T11:04:52.000Z</time>
</trkpt>
<trkpt lat="57.646351" lon="10.450415">
<ele>5.498582</ele>
<time>2026-07-17T11:04:53.000Z</time>
</trkpt>
<trkpt lat="57.646385" lon="10.450503">
<ele>5.464131</ele>
<time>2026-07-17T11:04:54.000Z</time>
</trkpt>
<trkpt lat="57.646415" lon="10.450595">
<ele>5.429935</ele>
<time>2026-07-17T11:04:55.000Z</time>
</trkpt>
<trkpt lat="57.646450" lon="10.450690">
<ele>5.393325</ele>
<time>2026-07-17T11:04:56.000Z</time>
</trkpt>
<trkpt lat="57.646479" lon="10.450775">
<ele>5.361329</ele>
<time>2026-07-17T11:04:57.000Z</time>
</trkpt>
<trkpt lat="57.646510" lon="10.450871">
<ele>5.325740</ele>
<time>2026-07-17T11:04:58.000Z</time>
</trkpt>
<trkpt lat="57.646545" lon="10.450959">
<ele>5.290938</ele>
<time>2026-07-17T11:04:59.000Z</time>
</trkpt>
<trkpt lat="57.646579" lon="10.451049">
<ele>5.291918</ele>
<time>2026-07-17T11:05:00.000Z</time>
</trkpt>
<trkpt lat="57.646609" lon="10.451146">
<ele>5.297942</ele>
<time>2026-07-17T11:05:01.000Z</time>
</trkpt>
<trkpt lat="57.646637" lon="10.451248">
<ele>5.304105</ele>
<time>2026-07-17T11:05:02.000Z</time>
</trkpt>
<trkpt lat="57.646667" lon="10.451346">
<ele>5.310175</ele>
<time>2026-07-17T11:05:03.000Z</time>
</trkpt>
<trkpt lat="57.646702" lon="10.451447">
<ele>5.316644</ele>
<time>2026-07-17T11:05:04.000Z</time>
</trkpt>
<trkpt lat="57.646736" lon="10.451544">
<ele>5.322878</ele>
<time>2026-07-17T11:05:05.000Z</time>
</trkpt>
<trkpt lat="57.646766" lon="10.451640">
<ele>5.328854</ele>
<time>2026-07-17T11:05:06.000Z</time>
</trkpt>
<trkpt lat="57.646796" lon="10.451741">
<ele>5.335065</ele>
<time>2026-07-17T11:05:07.000Z</time>
</trkpt>
<trkpt lat="57.646823" lon="10.451840">
<ele>5.341039</ele>
<time>2026-07-17T11:05:08.000Z</time>
</trkpt>
<trkpt lat="57.646854" lon="10.451944">
<ele>5.347439</ele>
<time>2026-07-17T11:05:09.000Z</time>
</trkpt>
<trkpt lat="57.646888" lon="10.452044">
<ele>5.353808</ele>
<time>2026-07-17T11:05:10.000Z</time>
</trkpt>
<trkpt lat="57.646915" lon="10.452140">
<ele>5.359639</ele>
<time>2026-07-17T11:05:11.000Z</time>
</trkpt>
<trkpt lat="57.646946" lon="10.452228">
<ele>5.365303</ele>
<time>2026-07-17T11:05:12.000Z</time>
</trkpt>
<trkpt lat="57.646975" lon="10.452312">
<ele>5.370677</ele>
<time>2026-07-17T11:05:13.000Z</time>
</trkpt>
<trkpt lat="57.647002" lon="10.452400">
<ele>5.376131</ele>
<time>2026-07-17T11:05:14.000Z</time>
</trkpt>
<trkpt lat="57.647025" lon="10.452486">
<ele>5.381299</ele>
<time>2026-07-17T11:05:15.000Z</time>
</trkpt>
<trkpt lat="57.647052" lon="10.452572">
<ele>5.386660</ele>
<time>2026-07-17T11:05:16.000Z</time>
</trkpt>
<trkpt lat="57.647078" lon="10.452653">
<ele>5.391738</ele>
<time>2026-07-17T11:05:17.000Z</time>
</trkpt>
<trkpt lat="57.647101" lon="10.452719">
<ele>5.395972</ele>
<time>2026-07-17T11:05:18.000Z</time>
</trkpt>
<trkpt lat="57.647124" lon="10.452775">
<ele>5.399767</ele>
<time>2026-07-17T11:05:19.000Z</time>
</trkpt>
<trkpt lat="57.647155" lon="10.452825">
<ele>5.403881</ele>
<time>2026-07-17T11:05:20.000Z</time>
</trkpt>
<trkpt lat="57.647182" lon="10.452876">
<ele>5.407738</ele>
<time>2026-07-17T11:05:21.000Z</time>
</trkpt>
<trkpt lat="57.647216" lon="10.452919">
<ele>5.411863</ele>
<time>2026-07-17T11:05:22.000Z</time>
</trkpt>
<trkpt lat="57.647248" lon="10.452951">
<ele>5.415509</ele>
<time>2026-07-17T11:05:23.000Z</time>
</trkpt>
<trkpt lat="57.647285" lon="10.452972">
<ele>5.419394</ele>
<time>2026-07-17T11:05:24.000Z</time>
</trkpt>
<trkpt lat="57.647320" lon="10.452979">
<ele>5.422930</ele>
<time>2026-07-17T11:05:25.000Z</time>
</trkpt>
<trkpt lat="57.647354" lon="10.452971">
<ele>5.426373</ele>
<time>2026-07-17T11:05:26.000Z</time>
</trkpt>
<trkpt lat="57.647388" lon="10.452951">
<ele>5.429954</ele>
<time>2026-07-17T11:05:27.000Z</time>
</trkpt>
<trkpt lat="57.647419" lon="10.452913">
<ele>5.433678</ele>
<time>2026-07-17T11:05:28.000Z</time>
</trkpt>
<trkpt lat="57.647449" lon="10.452869">
<ele>5.437510</ele>
<time>2026-07-17T11:05:29.000Z</time>
</trkpt>
<trkpt lat="57.647479" lon="10.452818">
<ele>5.441584</ele>
<time>2026-07-17T11:05:30.000Z</time>
</trkpt>
<trkpt lat="57.647505" lon="10.452758">
<ele>5.445735</ele>
<time>2026-07-17T11:05:31.000Z</time>
</trkpt>
<trkpt lat="57.647531" lon="10.452698">
<ele>5.449886</ele>
<time>2026-07-17T11:05:32.000Z</time>
</trkpt>
<trkpt lat="57.647560" lon="10.452645">
<ele>5.453961</ele>
<time>2026-07-17T11:05:33.000Z</time>
</trkpt>
<trkpt lat="57.647590" lon="10.452596">
<ele>5.457964</ele>
<time>2026-07-17T11:05:34.000Z</time>
</trkpt>
<trkpt lat="57.647624" lon="10.452550">
<ele>5.462181</ele>
<time>2026-07-17T11:05:35.000Z</time>
</trkpt>
<trkpt lat="57.647655" lon="10.452507">
<ele>5.466059</ele>
<time>2026-07-17T11:05:36.000Z</time>
</trkpt>
<trkpt lat="57.647682" lon="10.452470">
<ele>5.474653</ele>
<time>2026-07-17T11:05:37.000Z</time>
</trkpt>
<trkpt lat="57.647716" lon="10.452431">
<ele>5.489076</ele>
<time>2026-07-17T11:05:38.000Z</time>
</trkpt>
<trkpt lat="57.647742" lon="10.452394">
<ele>5.500891</ele>
<time>2026-07-17T11:05:39.000Z</time>
</trkpt>
<trkpt lat="57.647769" lon="10.452357">
<ele>5.512996</ele>
<time>2026-07-17T11:05:40.000Z</time>
</trkpt>
<trkpt lat="57.647792" lon="10.452315">
<ele>5.524622</ele>
<time>2026-07-17T11:05:41.000Z</time>
</trkpt>
<trkpt lat="57.647815" lon="10.452269">
<ele>5.536802</ele>
<time>2026-07-17T11:05:42.000Z</time>
</trkpt>
<trkpt lat="57.647842" lon="10.452214">
<ele>5.551242</ele>
<time>2026-07-17T11:05:43.000Z</time>
</trkpt>
<trkpt lat="57.647872" lon="10.452163">
<ele>5.565904</ele>
<time>2026-07-17T11:05:44.000Z</time>
</trkpt>
<trkpt lat="57.647903" lon="10.452113">
<ele>5.580709</ele>
<time>2026-07-17T11:05:45.000Z</time>
</trkpt>
<trkpt lat="57.647935" lon="10.452067">
<ele>5.595305</ele>
<time>2026-07-17T11:05:46.000Z</time>
</trkpt>
<trkpt lat="57.647976" lon="10.452030">
<ele>5.611766</ele>
<time>2026-07-17T11:05:47.000Z</time>
</trkpt>
<trkpt lat="57.648017" lon="10.452005">
<ele>5.627358</ele>
<time>2026-07-17T11:05:48.000Z</time>
</trkpt>
<trkpt lat="57.648060" lon="10.451993">
<ele>5.643076</ele>
<time>2026-07-17T11:05:49.000Z</time>
</trkpt>
<trkpt lat="57.648099" lon="10.452003">
<ele>5.657308</ele>
<time>2026-07-17T11:05:50.000Z</time>
</trkpt>
<trkpt lat="57.648145" lon="10.452017">
<ele>5.674158</ele>
<time>2026-07-17T11:05:51.000Z</time>
</trkpt>
<trkpt lat="57.648191" lon="10.452040">
<ele>5.691374</ele>
<time>2026-07-17T11:05:52.000Z</time>
</trkpt>
<trkpt lat="57.648236" lon="10.452068">
<ele>5.708521</ele>
<time>2026-07-17T11:05:53.000Z</time>
</trkpt>
<trkpt lat="57.648274" lon="10.452094">
<ele>5.723151</ele>
<time>2026-07-17T11:05:54.000Z</time>
</trkpt>
<trkpt lat="57.648308" lon="10.452115">
<ele>5.736097</ele>
<time>2026-07-17T11:05:55.000Z</time>
</trkpt>
<trkpt lat="57.648342" lon="10.452135">
<ele>5.748984</ele>
<time>2026-07-17T11:05:56.000Z</time>
</trkpt>
<trkpt lat="57.648376" lon="10.452148">
<ele>5.761531</ele>
<time>2026-07-17T11:05:57.000Z</time>
</trkpt>
<trkpt lat="57.648406" lon="10.452161">
<ele>5.772665</ele>
<time>2026-07-17T11:05:58.000Z</time>
</trkpt>
<trkpt lat="57.648433" lon="10.452170">
<ele>5.782580</ele>
<time>2026-07-17T11:05:59.000Z</time>
</trkpt>
<trkpt lat="57.648459" lon="10.452182">
<ele>5.792263</ele>
<time>2026-07-17T11:06:00.000Z</time>
</trkpt>
<trkpt lat="57.648483" lon="10.452207">
<ele>5.802196</ele>
<time>2026-07-17T11:06:01.000Z</time>
</trkpt>
<trkpt lat="57.648517" lon="10.452231">
<ele>5.815336</ele>
<time>2026-07-17T11:06:02.000Z</time>
</trkpt>
<trkpt lat="57.648547" lon="10.452254">
<ele>5.827060</ele>
<time>2026-07-17T11:06:03.000Z</time>
</trkpt>
<trkpt lat="57.648574" lon="10.452279">
<ele>5.837954</ele>
<time>2026-07-17T11:06:04.000Z</time>
</trkpt>
<trkpt lat="57.648605" lon="10.452313">
<ele>5.850949</ele>
<time>2026-07-17T11:06:05.000Z</time>
</trkpt>
<trkpt lat="57.648639" lon="10.452347">
<ele>5.864890</ele>
<time>2026-07-17T11:06:06.000Z</time>
</trkpt>
<trkpt lat="57.648674" lon="10.452371">
<ele>5.878369</ele>
<time>2026-07-17T11:06:07.000Z</time>
</trkpt>
<trkpt lat="57.648707" lon="10.452392">
<ele>5.890972</ele>
<time>2026-07-17T11:06:08.000Z</time>
</trkpt>
<trkpt lat="57.648737" lon="10.452418">
<ele>5.902928</ele>
<time>2026-07-17T11:06:09.000Z</time>
</trkpt>
<trkpt lat="57.648760" lon="10.452441">
<ele>5.912359</ele>
<time>2026-07-17T11:06:10.000Z</time>
</trkpt>
<trkpt lat="57.648787" lon="10.452470">
<ele>5.923618</ele>
<time>2026-07-17T11:06:11.000Z</time>
</trkpt>
<trkpt lat="57.648817" lon="10.452503">
<ele>5.936203</ele>
<time>2026-07-17T11:06:12.000Z</time>
</trkpt>
<trkpt lat="57.648845" lon="10.452543">
<ele>5.948945</ele>
<time>2026-07-17T11:06:13.000Z</time>
</trkpt>
<trkpt lat="57.648883" lon="10.452592">
<ele>5.965637</ele>
<time>2026-07-17T11:06:14.000Z</time>
</trkpt>
<trkpt lat="57.648922" lon="10.452644">
<ele>5.982958</ele>
<time>2026-07-17T11:06:15.000Z</time>
</trkpt>
<trkpt lat="57.648960" lon="10.452686">
<ele>5.998919</ele>
<time>2026-07-17T11:06:16.000Z</time>
</trkpt>
<trkpt lat="57.648998" lon="10.452727">
<ele>6.014783</ele>
<time>2026-07-17T11:06:17.000Z</time>
</trkpt>
<trkpt lat="57.649035" lon="10.452761">
<ele>6.029689</ele>
<time>2026-07-17T11:06:18.000Z</time>
</trkpt>
<trkpt lat="57.649071" lon="10.452794">
<ele>6.044186</ele>
<time>2026-07-17T11:06:19.000Z</time>
</trkpt>
<trkpt lat="57.649108" lon="10.452829">
<ele>6.059179</ele>
<time>2026-07-17T11:06:20.000Z</time>
</trkpt>
<trkpt lat="57.649139" lon="10.452851">
<ele>6.071167</ele>
<time>2026-07-17T11:06:21.000Z</time>
</trkpt>
<trkpt lat="57.649174" lon="10.452881">
<ele>6.085088</ele>
<time>2026-07-17T11:06:22.000Z</time>
</trkpt>
<trkpt lat="57.649208" lon="10.452913">
<ele>6.098851</ele>
<time>2026-07-17T11:06:23.000Z</time>
</trkpt>
<trkpt lat="57.649238" lon="10.452949">
<ele>6.111741</ele>
<time>2026-07-17T11:06:24.000Z</time>
</trkpt>
<trkpt lat="57.649271" lon="10.452987">
<ele>6.120430</ele>
<time>2026-07-17T11:06:25.000Z</time>
</trkpt>
<trkpt lat="57.649306" lon="10.453029">
<ele>6.125547</ele>
<time>2026-07-17T11:06:26.000Z</time>
</trkpt>
<trkpt lat="57.649367" lon="10.453112">
<ele>6.134830</ele>
<time>2026-07-17T11:06:27.000Z</time>
</trkpt>
<trkpt lat="57.649420" lon="10.453196">
<ele>6.143380</ele>
<time>2026-07-17T11:06:28.000Z</time>
</trkpt>
<trkpt lat="57.649468" lon="10.453265">
<ele>6.150830</ele>
<time>2026-07-17T11:06:29.000Z</time>
</trkpt>
<trkpt lat="57.649511" lon="10.453317">
<ele>6.157131</ele>
<time>2026-07-17T11:06:30.000Z</time>
</trkpt>
<trkpt lat="57.649561" lon="10.453379">
<ele>6.164514</ele>
<time>2026-07-17T11:06:31.000Z</time>
</trkpt>
<trkpt lat="57.649610" lon="10.453444">
<ele>6.171906</ele>
<time>2026-07-17T11:06:32.000Z</time>
</trkpt>
<trkpt lat="57.649655" lon="10.453511">
<ele>6.178985</ele>
<time>2026-07-17T11:06:33.000Z</time>
</trkpt>
<trkpt lat="57.649699" lon="10.453574">
<ele>6.185804</ele>
<time>2026-07-17T11:06:34.000Z</time>
</trkpt>
<trkpt lat="57.649741" lon="10.453635">
<ele>6.192348</ele>
<time>2026-07-17T11:06:35.000Z</time>
</trkpt>
<trkpt lat="57.649777" lon="10.453679">
<ele>6.197640</ele>
<time>2026-07-17T11:06:36.000Z</time>
</trkpt>
<trkpt lat="57.649811" lon="10.453726">
<ele>6.202843</ele>
<time>2026-07-17T11:06:37.000Z</time>
</trkpt>
<trkpt lat="57.649846" lon="10.453763">
<ele>6.207790</ele>
<time>2026-07-17T11:06:38.000Z</time>
</trkpt>
<trkpt lat="57.649887" lon="10.453821">
<ele>6.214116</ele>
<time>2026-07-17T11:06:39.000Z</time>
</trkpt>
<trkpt lat="57.649919" lon="10.453867">
<ele>6.219083</ele>
<time>2026-07-17T11:06:40.000Z</time>
</trkpt>
<trkpt lat="57.649964" lon="10.453928">
<ele>6.225922</ele>
<time>2026-07-17T11:06:41.000Z</time>
</trkpt>
<trkpt lat="57.650006" lon="10.453982">
<ele>6.232194</ele>
<time>2026-07-17T11:06:42.000Z</time>
</trkpt>
<trkpt lat="57.650046" lon="10.454016">
<ele>6.237600</ele>
<time>2026-07-17T11:06:43.000Z</time>
</trkpt>
<trkpt lat="57.650106" lon="10.454081">
<ele>6.246132</ele>
<time>2026-07-17T11:06:44.000Z</time>
</trkpt>
<trkpt lat="57.650167" lon="10.454135">
<ele>6.254436</ele>
<time>2026-07-17T11:06:45.000Z</time>
</trkpt>
<trkpt lat="57.650253" lon="10.454226">
<ele>6.266595</ele>
<time>2026-07-17T11:06:46.000Z</time>
</trkpt>
<trkpt lat="57.650322" lon="10.454277">
<ele>6.275724</ele>
<time>2026-07-17T11:06:47.000Z</time>
</trkpt>
<trkpt lat="57.650389" lon="10.454310">
<ele>6.284248</ele>
<time>2026-07-17T11:06:48.000Z</time>
</trkpt>
<trkpt lat="57.650446" lon="10.454343">
<ele>6.291589</ele>
<time>2026-07-17T11:06:49.000Z</time>
</trkpt>
<trkpt lat="57.650495" lon="10.454374">
<ele>6.297954</ele>
<time>2026-07-17T11:06:50.000Z</time>
</trkpt>
<trkpt lat="57.650543" lon="10.454426">
<ele>6.304779</ele>
<time>2026-07-17T11:06:51.000Z</time>
</trkpt>
<trkpt lat="57.650584" lon="10.454466">
<ele>6.310469</ele>
<time>2026-07-17T11:06:52.000Z</time>
</trkpt>
<trkpt lat="57.650638" lon="10.454520">
<ele>6.318004</ele>
<time>2026-07-17T11:06:53.000Z</time>
</trkpt>
<trkpt lat="57.650670" lon="10.454562">
<ele>6.322815</ele>
<time>2026-07-17T11:06:54.000Z</time>
</trkpt>
<trkpt lat="57.650712" lon="10.454637">
<ele>6.329961</ele>
<time>2026-07-17T11:06:55.000Z</time>
</trkpt>
<trkpt lat="57.650754" lon="10.454703">
<ele>6.336712</ele>
<time>2026-07-17T11:06:56.000Z</time>
</trkpt>
<trkpt lat="57.650805" lon="10.454778">
<ele>6.344121</ele>
<time>2026-07-17T11:06:57.000Z</time>
</trkpt>
<trkpt lat="57.650861" lon="10.454835">
<ele>6.351178</ele>
<time>2026-07-17T11:06:58.000Z</time>
</trkpt>
<trkpt lat="57.650907" lon="10.454899">
<ele>6.357524</ele>
<time>2026-07-17T11:06:59.000Z</time>
</trkpt>
<trkpt lat="57.650953" lon="10.454968">
<ele>6.364052</ele>
<time>2026-07-17T11:07:00.000Z</time>
</trkpt>
<trkpt lat="57.650999" lon="10.455040">
<ele>6.370692</ele>
<time>2026-07-17T11:07:01.000Z</time>
</trkpt>
<trkpt lat="57.651048" lon="10.455114">
<ele>6.377664</ele>
<time>2026-07-17T11:07:02.000Z</time>
</trkpt>
<trkpt lat="57.651089" lon="10.455176">
<ele>6.383501</ele>
<time>2026-07-17T11:07:03.000Z</time>
</trkpt>
<trkpt lat="57.651128" lon="10.455222">
<ele>6.388605</ele>
<time>2026-07-17T11:07:04.000Z</time>
</trkpt>
<trkpt lat="57.651180" lon="10.455273">
<ele>6.395104</ele>
<time>2026-07-17T11:07:05.000Z</time>
</trkpt>
<trkpt lat="57.651216" lon="10.455307">
<ele>6.399568</ele>
<time>2026-07-17T11:07:06.000Z</time>
</trkpt>
<trkpt lat="57.651270" lon="10.455362">
<ele>6.406374</ele>
<time>2026-07-17T11:07:07.000Z</time>
</trkpt>
<trkpt lat="57.651315" lon="10.455412">
<ele>6.412168</ele>
<time>2026-07-17T11:07:08.000Z</time>
</trkpt>
<trkpt lat="57.651361" lon="10.455467">
<ele>6.418211</ele>
<time>2026-07-17T11:07:09.000Z</time>
</trkpt>
<trkpt lat="57.651408" lon="10.455520">
<ele>6.424286</ele>
<time>2026-07-17T11:07:10.000Z</time>
</trkpt>
<trkpt lat="57.651467" lon="10.455581">
<ele>6.431748</ele>
<time>2026-07-17T11:07:11.000Z</time>
</trkpt>
<trkpt lat="57.651514" lon="10.455630">
<ele>6.437704</ele>
<time>2026-07-17T11:07:12.000Z</time>
</trkpt>
<trkpt lat="57.651564" lon="10.455689">
<ele>6.444248</ele>
<time>2026-07-17T11:07:13.000Z</time>
</trkpt>
<trkpt lat="57.651646" lon="10.455793">
<ele>6.455215</ele>
<time>2026-07-17T11:07:14.000Z</time>
</trkpt>
<trkpt lat="57.651722" lon="10.455869">
<ele>6.464754</ele>
<time>2026-07-17T11:07:15.000Z</time>
</trkpt>
<trkpt lat="57.651790" lon="10.455930">
<ele>6.473102</ele>
<time>2026-07-17T11:07:16.000Z</time>
</trkpt>
<trkpt lat="57.651858" lon="10.455993">
<ele>6.481501</ele>
<time>2026-07-17T11:07:17.000Z</time>
</trkpt>
<trkpt lat="57.651920" lon="10.456053">
<ele>6.489228</ele>
<time>2026-07-17T11:07:18.000Z</time>
</trkpt>
<trkpt lat="57.651984" lon="10.456118">
<ele>6.497289</ele>
<time>2026-07-17T11:07:19.000Z</time>
</trkpt>
<trkpt lat="57.652041" lon="10.456177">
<ele>6.504500</ele>
<time>2026-07-17T11:07:20.000Z</time>
</trkpt>
<trkpt lat="57.652095" lon="10.456231">
<ele>6.511278</ele>
<time>2026-07-17T11:07:21.000Z</time>
</trkpt>
<trkpt lat="57.652160" lon="10.456272">
<ele>6.518870</ele>
<time>2026-07-17T11:07:22.000Z</time>
</trkpt>
<trkpt lat="57.652225" lon="10.456328">
<ele>6.526791</ele>
<time>2026-07-17T11:07:23.000Z</time>
</trkpt>
<trkpt lat="57.652294" lon="10.456389">
<ele>6.535239</ele>
<time>2026-07-17T11:07:24.000Z</time>
</trkpt>
<trkpt lat="57.652358" lon="10.456433">
<ele>6.549104</ele>
<time>2026-07-17T11:07:25.000Z</time>
</trkpt>
<trkpt lat="57.652423" lon="10.456475">
<ele>6.566805</ele>
<time>2026-07-17T11:07:26.000Z</time>
</trkpt>
<trkpt lat="57.652479" lon="10.456503">
<ele>6.581725</ele>
<time>2026-07-17T11:07:27.000Z</time>
</trkpt>
<trkpt lat="57.652533" lon="10.456519">
<ele>6.595797</ele>
<time>2026-07-17T11:07:28.000Z</time>
</trkpt>
<trkpt lat="57.652582" lon="10.456537">
<ele>6.608651</ele>
<time>2026-07-17T11:07:29.000Z</time>
</trkpt>
<trkpt lat="57.652637" lon="10.456551">
<ele>6.622937</ele>
<time>2026-07-17T11:07:30.000Z</time>
</trkpt>
<trkpt lat="57.652697" lon="10.456574">
<ele>6.638702</ele>
<time>2026-07-17T11:07:31.000Z</time>
</trkpt>
<trkpt lat="57.652753" lon="10.456596">
<ele>6.653430</ele>
<time>2026-07-17T11:07:32.000Z</time>
</trkpt>
<trkpt lat="57.652803" lon="10.456615">
<ele>6.666562</ele>
<time>2026-07-17T11:07:33.000Z</time>
</trkpt>
<trkpt lat="57.652848" lon="10.456630">
<ele>6.678327</ele>
<time>2026-07-17T11:07:34.000Z</time>
</trkpt>
<trkpt lat="57.652895" lon="10.456638">
<ele>6.690474</ele>
<time>2026-07-17T11:07:35.000Z</time>
</trkpt>
<trkpt lat="57.652945" lon="10.456651">
<ele>6.703467</ele>
<time>2026-07-17T11:07:36.000Z</time>
</trkpt>
<trkpt lat="57.652998" lon="10.456662">
<ele>6.717192</ele>
<time>2026-07-17T11:07:37.000Z</time>
</trkpt>
<trkpt lat="57.653056" lon="10.456676">
<ele>6.732245</ele>
<time>2026-07-17T11:07:38.000Z</time>
</trkpt>
<trkpt lat="57.653113" lon="10.456686">
<ele>6.746980</ele>
<time>2026-07-17T11:07:39.000Z</time>
</trkpt>
<trkpt lat="57.653166" lon="10.456693">
<ele>6.760655</ele>
<time>2026-07-17T11:07:40.000Z</time>
</trkpt>
<trkpt lat="57.653224" lon="10.456703">
<ele>6.775647</ele>
<time>2026-07-17T11:07:41.000Z</time>
</trkpt>
<trkpt lat="57.653281" lon="10.456716">
<ele>6.790426</ele>
<time>2026-07-17T11:07:42.000Z</time>
</trkpt>
<trkpt lat="57.653341" lon="10.456733">
<ele>6.806046</ele>
<time>2026-07-17T11:07:43.000Z</time>
</trkpt>
<trkpt lat="57.653396" lon="10.456743">
<ele>6.820269</ele>
<time>2026-07-17T11:07:44.000Z</time>
</trkpt>
<trkpt lat="57.653457" lon="10.456756">
<ele>6.836071</ele>
<time>2026-07-17T11:07:45.000Z</time>
</trkpt>
<trkpt lat="57.653517" lon="10.456767">
<ele>6.851588</ele>
<time>2026-07-17T11:07:46.000Z</time>
</trkpt>
<trkpt lat="57.653575" lon="10.456779">
<ele>6.866607</ele>
<time>2026-07-17T11:07:47.000Z</time>
</trkpt>
<trkpt lat="57.653628" lon="10.456786">
<ele>6.880282</ele>
<time>2026-07-17T11:07:48.000Z</time>
</trkpt>
<trkpt lat="57.653681" lon="10.456796">
<ele>6.893993</ele>
<time>2026-07-17T11:07:49.000Z</time>
</trkpt>
<trkpt lat="57.653730" lon="10.456804">
<ele>6.906653</ele>
<time>2026-07-17T11:07:50.000Z</time>
</trkpt>
<trkpt lat="57.653780" lon="10.456810">
<ele>6.919548</ele>
<time>2026-07-17T11:07:51.000Z</time>
</trkpt>
<trkpt lat="57.653829" lon="10.456822">
<ele>6.932268</ele>
<time>2026-07-17T11:07:52.000Z</time>
</trkpt>
<trkpt lat="57.653879" lon="10.456829">
<ele>6.945173</ele>
<time>2026-07-17T11:07:53.000Z</time>
</trkpt>
<trkpt lat="57.653928" lon="10.456837">
<ele>6.957833</ele>
<time>2026-07-17T11:07:54.000Z</time>
</trkpt>
<trkpt lat="57.653974" lon="10.456842">
<ele>6.969692</ele>
<time>2026-07-17T11:07:55.000Z</time>
</trkpt>
<trkpt lat="57.654023" lon="10.456849">
<ele>6.982341</ele>
<time>2026-07-17T11:07:56.000Z</time>
</trkpt>
<trkpt lat="57.654066" lon="10.456857">
<ele>6.993463</ele>
<time>2026-07-17T11:07:57.000Z</time>
</trkpt>
<trkpt lat="57.654112" lon="10.456858">
<ele>6.997962</ele>
<time>2026-07-17T11:07:58.000Z</time>
</trkpt>
<trkpt lat="57.654165" lon="10.456855">
<ele>6.988551</ele>
<time>2026-07-17T11:07:59.000Z</time>
</trkpt>
<trkpt lat="57.654214" lon="10.456853">
<ele>6.979853</ele>
<time>2026-07-17T11:08:00.000Z</time>
</trkpt>
<trkpt lat="57.654260" lon="10.456858">
<ele>6.971675</ele>
<time>2026-07-17T11:08:01.000Z</time>
</trkpt>
<trkpt lat="57.654306" lon="10.456867">
<ele>6.963466</ele>
<time>2026-07-17T11:08:02.000Z</time>
</trkpt>
<trkpt lat="57.654351" lon="10.456878">
<ele>6.955412</ele>
<time>2026-07-17T11:08:03.000Z</time>
</trkpt>
<trkpt lat="57.654397" lon="10.456894">
<ele>6.947108</ele>
<time>2026-07-17T11:08:04.000Z</time>
</trkpt>
<trkpt lat="57.654443" lon="10.456910">
<ele>6.938804</ele>
<time>2026-07-17T11:08:05.000Z</time>
</trkpt>
<trkpt lat="57.654485" lon="10.456925">
<ele>6.931215</ele>
<time>2026-07-17T11:08:06.000Z</time>
</trkpt>
<trkpt lat="57.654527" lon="10.456935">
<ele>6.923700</ele>
<time>2026-07-17T11:08:07.000Z</time>
</trkpt>
<trkpt lat="57.654571" lon="10.456951">
<ele>6.915745</ele>
<time>2026-07-17T11:08:08.000Z</time>
</trkpt>
<trkpt lat="57.654619" lon="10.456962">
<ele>6.907162</ele>
<time>2026-07-17T11:08:09.000Z</time>
</trkpt>
<trkpt lat="57.654669" lon="10.456978">
<ele>6.898159</ele>
<time>2026-07-17T11:08:10.000Z</time>
</trkpt>
<trkpt lat="57.654722" lon="10.456983">
<ele>6.888741</ele>
<time>2026-07-17T11:08:11.000Z</time>
</trkpt>
<trkpt lat="57.654775" lon="10.456978">
<ele>6.879323</ele>
<time>2026-07-17T11:08:12.000Z</time>
</trkpt>
<trkpt lat="57.654824" lon="10.456975">
<ele>6.870622</ele>
<time>2026-07-17T11:08:13.000Z</time>
</trkpt>
<trkpt lat="57.654866" lon="10.456976">
<ele>6.863167</ele>
<time>2026-07-17T11:08:14.000Z</time>
</trkpt>
<trkpt lat="57.654913" lon="10.456984">
<ele>6.854791</ele>
<time>2026-07-17T11:08:15.000Z</time>
</trkpt>
<trkpt lat="57.654962" lon="10.456992">
<ele>6.846061</ele>
<time>2026-07-17T11:08:16.000Z</time>
</trkpt>
<trkpt lat="57.655012" lon="10.457005">
<ele>6.837102</ele>
<time>2026-07-17T11:08:17.000Z</time>
</trkpt>
<trkpt lat="57.655061" lon="10.457023">
<ele>6.828239</ele>
<time>2026-07-17T11:08:18.000Z</time>
</trkpt>
<trkpt lat="57.655111" lon="10.457038">
<ele>6.819252</ele>
<time>2026-07-17T11:08:19.000Z</time>
</trkpt>
<trkpt lat="57.655160" lon="10.457046">
<ele>6.810522</ele>
<time>2026-07-17T11:08:20.000Z</time>
</trkpt>
<trkpt lat="57.655197" lon="10.457046">
<ele>6.803956</ele>
<time>2026-07-17T11:08:21.000Z</time>
</trkpt>
<trkpt lat="57.655234" lon="10.457047">
<ele>6.797388</ele>
<time>2026-07-17T11:08:22.000Z</time>
</trkpt>
<trkpt lat="57.655261" lon="10.457049">
<ele>6.792593</ele>
<time>2026-07-17T11:08:23.000Z</time>
</trkpt>
<trkpt lat="57.655284" lon="10.457052">
<ele>6.788501</ele>
<time>2026-07-17T11:08:24.000Z</time>
</trkpt>
<trkpt lat="57.655306" lon="10.457058">
<ele>6.784555</ele>
<time>2026-07-17T11:08:25.000Z</time>
</trkpt>
<trkpt lat="57.655321" lon="10.457062">
<ele>6.781866</ele>
<time>2026-07-17T11:08:26.000Z</time>
</trkpt>
<trkpt lat="57.655337" lon="10.457070">
<ele>6.778926</ele>
<time>2026-07-17T11:08:27.000Z</time>
</trkpt>
<trkpt lat="57.655371" lon="10.457096">
<ele>6.772407</ele>
<time>2026-07-17T11:08:40.000Z</time>
</trkpt>
<trkpt lat="57.655396" lon="10.457115">
<ele>6.767617</ele>
<time>2026-07-17T11:08:41.000Z</time>
</trkpt>
<trkpt lat="57.655405" lon="10.457120">
<ele>6.765951</ele>
<time>2026-07-17T11:08:42.000Z</time>
</trkpt>
<trkpt lat="57.655420" lon="10.457134">
<ele>6.762975</ele>
<time>2026-07-17T11:08:43.000Z</time>
</trkpt>
<trkpt lat="57.655432" lon="10.457161">
<ele>6.759642</ele>
<time>2026-07-17T11:08:44.000Z</time>
</trkpt>
<trkpt lat="57.655446" lon="10.457200">
<ele>6.755183</ele>
<time>2026-07-17T11:08:45.000Z</time>
</trkpt>
<trkpt lat="57.655457" lon="10.457246">
<ele>6.750398</ele>
<time>2026-07-17T11:08:46.000Z</time>
</trkpt>
<trkpt lat="57.655461" lon="10.457300">
<ele>6.745222</ele>
<time>2026-07-17T11:08:47.000Z</time>
</trkpt>
<trkpt lat="57.655468" lon="10.457358">
<ele>6.739576</ele>
<time>2026-07-17T11:08:48.000Z</time>
</trkpt>
<trkpt lat="57.655472" lon="10.457421">
<ele>6.733552</ele>
<time>2026-07-17T11:08:49.000Z</time>
</trkpt>
<trkpt lat="57.655471" lon="10.457486">
<ele>6.727378</ele>
<time>2026-07-17T11:08:50.000Z</time>
</trkpt>
<trkpt lat="57.655468" lon="10.457556">
<ele>6.720710</ele>
<time>2026-07-17T11:08:51.000Z</time>
</trkpt>
<trkpt lat="57.655472" lon="10.457634">
<ele>6.713270</ele>
<time>2026-07-17T11:08:52.000Z</time>
</trkpt>
<trkpt lat="57.655473" lon="10.457710">
<ele>6.706051</ele>
<time>2026-07-17T11:08:53.000Z</time>
</trkpt>
<trkpt lat="57.655489" lon="10.457792">
<ele>6.697764</ele>
<time>2026-07-17T11:08:54.000Z</time>
</trkpt>
<trkpt lat="57.655504" lon="10.457867">
<ele>6.690161</ele>
<time>2026-07-17T11:08:55.000Z</time>
</trkpt>
<trkpt lat="57.655518" lon="10.457927">
<ele>6.683946</ele>
<time>2026-07-17T11:08:56.000Z</time>
</trkpt>
<trkpt lat="57.655526" lon="10.457974">
<ele>6.680813</ele>
<time>2026-07-17T11:08:57.000Z</time>
</trkpt>
<trkpt lat="57.655537" lon="10.458016">
<ele>6.679152</ele>
<time>2026-07-17T11:08:58.000Z</time>
</trkpt>
<trkpt lat="57.655541" lon="10.458054">
<ele>6.677776</ele>
<time>2026-07-17T11:08:59.000Z</time>
</trkpt>
<trkpt lat="57.655549" lon="10.458094">
<ele>6.676259</ele>
<time>2026-07-17T11:09:00.000Z</time>
</trkpt>
<trkpt lat="57.655553" lon="10.458130">
<ele>6.674953</ele>
<time>2026-07-17T11:09:01.000Z</time>
</trkpt>
<trkpt lat="57.655564" lon="10.458174">
<ele>6.673228</ele>
<time>2026-07-17T11:09:02.000Z</time>
</trkpt>
<trkpt lat="57.655577" lon="10.458252">
<ele>6.670326</ele>
<time>2026-07-17T11:09:03.000Z</time>
</trkpt>
<trkpt lat="57.655601" lon="10.458331">
<ele>6.667099</ele>
<time>2026-07-17T11:09:04.000Z</time>
</trkpt>
<trkpt lat="57.655631" lon="10.458407">
<ele>6.663744</ele>
<time>2026-07-17T11:09:05.000Z</time>
</trkpt>
<trkpt lat="57.655663" lon="10.458498">
<ele>6.659876</ele>
<time>2026-07-17T11:09:06.000Z</time>
</trkpt>
<trkpt lat="57.655701" lon="10.458598">
<ele>6.655519</ele>
<time>2026-07-17T11:09:07.000Z</time>
</trkpt>
<trkpt lat="57.655739" lon="10.458700">
<ele>6.651104</ele>
<time>2026-07-17T11:09:08.000Z</time>
</trkpt>
<trkpt lat="57.655773" lon="10.458792">
<ele>6.647133</ele>
<time>2026-07-17T11:09:09.000Z</time>
</trkpt>
<trkpt lat="57.655808" lon="10.458876">
<ele>6.643351</ele>
<time>2026-07-17T11:09:10.000Z</time>
</trkpt>
<trkpt lat="57.655846" lon="10.458956">
<ele>6.639551</ele>
<time>2026-07-17T11:09:11.000Z</time>
</trkpt>
<trkpt lat="57.655884" lon="10.459031">
<ele>6.635882</ele>
<time>2026-07-17T11:09:12.000Z</time>
</trkpt>
<trkpt lat="57.655922" lon="10.459098">
<ele>6.632413</ele>
<time>2026-07-17T11:09:13.000Z</time>
</trkpt>
<trkpt lat="57.655965" lon="10.459171">
<ele>6.628557</ele>
<time>2026-07-17T11:09:14.000Z</time>
</trkpt>
<trkpt lat="57.656007" lon="10.459251">
<ele>6.624575</ele>
<time>2026-07-17T11:09:15.000Z</time>
</trkpt>
<trkpt lat="57.656053" lon="10.459334">
<ele>6.620331</ele>
<time>2026-07-17T11:09:16.000Z</time>
</trkpt>
<trkpt lat="57.656094" lon="10.459418">
<ele>6.616292</ele>
<time>2026-07-17T11:09:17.000Z</time>
</trkpt>
<trkpt lat="57.656133" lon="10.459503">
<ele>6.612314</ele>
<time>2026-07-17T11:09:18.000Z</time>
</trkpt>
<trkpt lat="57.656174" lon="10.459583">
<ele>6.608379</ele>
<time>2026-07-17T11:09:19.000Z</time>
</trkpt>
<trkpt lat="57.656208" lon="10.459664">
<ele>6.604722</ele>
<time>2026-07-17T11:09:20.000Z</time>
</trkpt>
<trkpt lat="57.656243" lon="10.459747">
<ele>6.600968</ele>
<time>2026-07-17T11:09:21.000Z</time>
</trkpt>
<trkpt lat="57.656281" lon="10.459824">
<ele>6.597247</ele>
<time>2026-07-17T11:09:22.000Z</time>
</trkpt>
<trkpt lat="57.656314" lon="10.459901">
<ele>6.593743</ele>
<time>2026-07-17T11:09:23.000Z</time>
</trkpt>
<trkpt lat="57.656345" lon="10.459969">
<ele>6.590570</ele>
<time>2026-07-17T11:09:24.000Z</time>
</trkpt>
<trkpt lat="57.656375" lon="10.460037">
<ele>6.587439</ele>
<time>2026-07-17T11:09:25.000Z</time>
</trkpt>
<trkpt lat="57.656403" lon="10.460099">
<ele>6.584557</ele>
<time>2026-07-17T11:09:26.000Z</time>
</trkpt>
<trkpt lat="57.656438" lon="10.460147">
<ele>6.581675</ele>
<time>2026-07-17T11:09:27.000Z</time>
</trkpt>
<trkpt lat="57.656480" lon="10.460184">
<ele>6.578592</ele>
<time>2026-07-17T11:09:28.000Z</time>
</trkpt>
<trkpt lat="57.656522" lon="10.460217">
<ele>6.575567</ele>
<time>2026-07-17T11:09:29.000Z</time>
</trkpt>
<trkpt lat="57.656568" lon="10.460249">
<ele>6.572309</ele>
<time>2026-07-17T11:09:30.000Z</time>
</trkpt>
<trkpt lat="57.656609" lon="10.460285">
<ele>6.569301</ele>
<time>2026-07-17T11:09:31.000Z</time>
</trkpt>
<trkpt lat="57.656652" lon="10.460328">
<ele>6.566063</ele>
<time>2026-07-17T11:09:32.000Z</time>
</trkpt>
<trkpt lat="57.656697" lon="10.460375">
<ele>6.562641</ele>
<time>2026-07-17T11:09:33.000Z</time>
</trkpt>
<trkpt lat="57.656743" lon="10.460420">
<ele>6.579663</ele>
<time>2026-07-17T11:09:34.000Z</time>
</trkpt>
<trkpt lat="57.656785" lon="10.460466">
<ele>6.597577</ele>
<time>2026-07-17T11:09:35.000Z</time>
</trkpt>
<trkpt lat="57.656831" lon="10.460509">
<ele>6.616504</ele>
<time>2026-07-17T11:09:36.000Z</time>
</trkpt>
<trkpt lat="57.656877" lon="10.460553">
<ele>6.635520</ele>
<time>2026-07-17T11:09:37.000Z</time>
</trkpt>
<trkpt lat="57.656922" lon="10.460595">
<ele>6.654029</ele>
<time>2026-07-17T11:09:38.000Z</time>
</trkpt>
<trkpt lat="57.656968" lon="10.460627">
<ele>6.672092</ele>
<time>2026-07-17T11:09:39.000Z</time>
</trkpt>
<trkpt lat="57.657014" lon="10.460659">
<ele>6.690154</ele>
<time>2026-07-17T11:09:40.000Z</time>
</trkpt>
<trkpt lat="57.657056" lon="10.460693">
<ele>6.706998</ele>
<time>2026-07-17T11:09:41.000Z</time>
</trkpt>
<trkpt lat="57.657102" lon="10.460727">
<ele>6.725201</ele>
<time>2026-07-17T11:09:42.000Z</time>
</trkpt>
<trkpt lat="57.657152" lon="10.460766">
<ele>6.745139</ele>
<time>2026-07-17T11:09:43.000Z</time>
</trkpt>
<trkpt lat="57.657205" lon="10.460804">
<ele>6.766029</ele>
<time>2026-07-17T11:09:44.000Z</time>
</trkpt>
<trkpt lat="57.657255" lon="10.460840">
<ele>6.785747</ele>
<time>2026-07-17T11:09:45.000Z</time>
</trkpt>
<trkpt lat="57.657305" lon="10.460875">
<ele>6.805395</ele>
<time>2026-07-17T11:09:46.000Z</time>
</trkpt>
<trkpt lat="57.657354" lon="10.460909">
<ele>6.824630</ele>
<time>2026-07-17T11:09:47.000Z</time>
</trkpt>
<trkpt lat="57.657403" lon="10.460944">
<ele>6.843934</ele>
<time>2026-07-17T11:09:48.000Z</time>
</trkpt>
<trkpt lat="57.657449" lon="10.460975">
<ele>6.861929</ele>
<time>2026-07-17T11:09:49.000Z</time>
</trkpt>
<trkpt lat="57.657494" lon="10.461008">
<ele>6.879718</ele>
<time>2026-07-17T11:09:50.000Z</time>
</trkpt>
<trkpt lat="57.657533" lon="10.461048">
<ele>6.896088</ele>
<time>2026-07-17T11:09:51.000Z</time>
</trkpt>
<trkpt lat="57.657574" lon="10.461101">
<ele>6.914433</ele>
<time>2026-07-17T11:09:52.000Z</time>
</trkpt>
<trkpt lat="57.657612" lon="10.461153">
<ele>6.931764</ele>
<time>2026-07-17T11:09:53.000Z</time>
</trkpt>
<trkpt lat="57.657654" lon="10.461199">
<ele>6.949678</ele>
<time>2026-07-17T11:09:54.000Z</time>
</trkpt>
<trkpt lat="57.657696" lon="10.461241">
<ele>6.967207</ele>
<time>2026-07-17T11:09:55.000Z</time>
</trkpt>
<trkpt lat="57.657738" lon="10.461277">
<ele>6.984210</ele>
<time>2026-07-17T11:09:56.000Z</time>
</trkpt>
<trkpt lat="57.657772" lon="10.461314">
<ele>6.998689</ele>
<time>2026-07-17T11:09:57.000Z</time>
</trkpt>
<trkpt lat="57.657805" lon="10.461350">
<ele>7.012750</ele>
<time>2026-07-17T11:09:58.000Z</time>
</trkpt>
<trkpt lat="57.657828" lon="10.461383">
<ele>7.023420</ele>
<time>2026-07-17T11:09:59.000Z</time>
</trkpt>
<trkpt lat="57.657851" lon="10.461407">
<ele>7.033113</ele>
<time>2026-07-17T11:10:00.000Z</time>
</trkpt>
<trkpt lat="57.657868" lon="10.461427">
<ele>7.040505</ele>
<time>2026-07-17T11:10:01.000Z</time>
</trkpt>
<trkpt lat="57.657876" lon="10.461441">
<ele>7.044538</ele>
<time>2026-07-17T11:10:02.000Z</time>
</trkpt>
<trkpt lat="57.657887" lon="10.461467">
<ele>7.051064</ele>
<time>2026-07-17T11:10:04.000Z</time>
</trkpt>
<trkpt lat="57.657895" lon="10.461482">
<ele>7.055234</ele>
<time>2026-07-17T11:10:05.000Z</time>
</trkpt>
<trkpt lat="57.657903" lon="10.461500">
<ele>7.059841</ele>
<time>2026-07-17T11:10:06.000Z</time>
</trkpt>
<trkpt lat="57.657914" lon="10.461521">
<ele>7.065627</ele>
<time>2026-07-17T11:10:07.000Z</time>
</trkpt>
<trkpt lat="57.657925" lon="10.461548">
<ele>7.072308</ele>
<time>2026-07-17T11:10:08.000Z</time>
</trkpt>
<trkpt lat="57.657928" lon="10.461582">
<ele>7.079093</ele>
<time>2026-07-17T11:10:09.000Z</time>
</trkpt>
<trkpt lat="57.657928" lon="10.461617">
<ele>7.085983</ele>
<time>2026-07-17T11:10:10.000Z</time>
</trkpt>
<trkpt lat="57.657924" lon="10.461642">
<ele>7.091120</ele>
<time>2026-07-17T11:10:11.000Z</time>
</trkpt>
<trkpt lat="57.657921" lon="10.461657">
<ele>7.094273</ele>
<time>2026-07-17T11:10:12.000Z</time>
</trkpt>
<trkpt lat="57.657921" lon="10.461664">
<ele>7.095651</ele>
<time>2026-07-17T11:10:13.000Z</time>
</trkpt>
<trkpt lat="57.657921" lon="10.461667">
<ele>7.096242</ele>
<time>2026-07-17T11:10:14.000Z</time>
</trkpt>
<trkpt lat="57.657921" lon="10.461670">
<ele>7.096832</ele>
<time>2026-07-17T11:10:15.000Z</time>
</trkpt>
<trkpt lat="57.657940" lon="10.461630">
<ele>7.107363</ele>
<time>2026-07-17T11:11:09.000Z</time>
</trkpt>
<trkpt lat="57.657945" lon="10.461601">
<ele>7.113362</ele>
<time>2026-07-17T11:11:10.000Z</time>
</trkpt>
<trkpt lat="57.657953" lon="10.461569">
<ele>7.120316</ele>
<time>2026-07-17T11:11:11.000Z</time>
</trkpt>
<trkpt lat="57.657969" lon="10.461546">
<ele>7.127744</ele>
<time>2026-07-17T11:11:12.000Z</time>
</trkpt>
<trkpt lat="57.657989" lon="10.461536">
<ele>7.135362</ele>
<time>2026-07-17T11:11:13.000Z</time>
</trkpt>
<trkpt lat="57.658020" lon="10.461537">
<ele>7.146772</ele>
<time>2026-07-17T11:11:14.000Z</time>
</trkpt>
<trkpt lat="57.658050" lon="10.461539">
<ele>7.157819</ele>
<time>2026-07-17T11:11:15.000Z</time>
</trkpt>
<trkpt lat="57.658081" lon="10.461542">
<ele>7.169243</ele>
<time>2026-07-17T11:11:16.000Z</time>
</trkpt>
<trkpt lat="57.658116" lon="10.461543">
<ele>7.182124</ele>
<time>2026-07-17T11:11:17.000Z</time>
</trkpt>
<trkpt lat="57.658150" lon="10.461546">
<ele>7.194651</ele>
<time>2026-07-17T11:11:18.000Z</time>
</trkpt>
<trkpt lat="57.658185" lon="10.461551">
<ele>7.207568</ele>
<time>2026-07-17T11:11:19.000Z</time>
</trkpt>
<trkpt lat="57.658223" lon="10.461560">
<ele>7.221664</ele>
<time>2026-07-17T11:11:20.000Z</time>
</trkpt>
<trkpt lat="57.658257" lon="10.461572">
<ele>7.227557</ele>
<time>2026-07-17T11:11:21.000Z</time>
</trkpt>
<trkpt lat="57.658291" lon="10.461589">
<ele>7.231795</ele>
<time>2026-07-17T11:11:22.000Z</time>
</trkpt>
<trkpt lat="57.658326" lon="10.461611">
<ele>7.236241</ele>
<time>2026-07-17T11:11:23.000Z</time>
</trkpt>
<trkpt lat="57.658363" lon="10.461640">
<ele>7.241073</ele>
<time>2026-07-17T11:11:24.000Z</time>
</trkpt>
<trkpt lat="57.658398" lon="10.461674">
<ele>7.245822</ele>
<time>2026-07-17T11:11:25.000Z</time>
</trkpt>
<trkpt lat="57.658436" lon="10.461711">
<ele>7.250981</ele>
<time>2026-07-17T11:11:26.000Z</time>
</trkpt>
<trkpt lat="57.658475" lon="10.461743">
<ele>7.256110</ele>
<time>2026-07-17T11:11:27.000Z</time>
</trkpt>
<trkpt lat="57.658517" lon="10.461773">
<ele>7.261524</ele>
<time>2026-07-17T11:11:28.000Z</time>
</trkpt>
<trkpt lat="57.658559" lon="10.461799">
<ele>7.266852</ele>
<time>2026-07-17T11:11:29.000Z</time>
</trkpt>
<trkpt lat="57.658600" lon="10.461824">
<ele>7.272044</ele>
<time>2026-07-17T11:11:30.000Z</time>
</trkpt>
<trkpt lat="57.658642" lon="10.461849">
<ele>7.277352</ele>
<time>2026-07-17T11:11:31.000Z</time>
</trkpt>
<trkpt lat="57.658684" lon="10.461882">
<ele>7.282838</ele>
<time>2026-07-17T11:11:32.000Z</time>
</trkpt>
<trkpt lat="57.658727" lon="10.461912">
<ele>7.288365</ele>
<time>2026-07-17T11:11:33.000Z</time>
</trkpt>
<trkpt lat="57.658767" lon="10.461942">
<ele>7.293554</ele>
<time>2026-07-17T11:11:34.000Z</time>
</trkpt>
<trkpt lat="57.658809" lon="10.461971">
<ele>7.298946</ele>
<time>2026-07-17T11:11:35.000Z</time>
</trkpt>
<trkpt lat="57.658853" lon="10.462001">
<ele>7.304585</ele>
<time>2026-07-17T11:11:36.000Z</time>
</trkpt>
<trkpt lat="57.658894" lon="10.462032">
<ele>7.309911</ele>
<time>2026-07-17T11:11:37.000Z</time>
</trkpt>
<trkpt lat="57.658936" lon="10.462068">
<ele>7.315475</ele>
<time>2026-07-17T11:11:38.000Z</time>
</trkpt>
<trkpt lat="57.658979" lon="10.462106">
<ele>7.321202</ele>
<time>2026-07-17T11:11:39.000Z</time>
</trkpt>
<trkpt lat="57.659028" lon="10.462140">
<ele>7.327496</ele>
<time>2026-07-17T11:11:40.000Z</time>
</trkpt>
<trkpt lat="57.659071" lon="10.462172">
<ele>7.333069</ele>
<time>2026-07-17T11:11:41.000Z</time>
</trkpt>
<trkpt lat="57.659120" lon="10.462202">
<ele>7.339277</ele>
<time>2026-07-17T11:11:42.000Z</time>
</trkpt>
<trkpt lat="57.659166" lon="10.462233">
<ele>7.345165</ele>
<time>2026-07-17T11:11:43.000Z</time>
</trkpt>
<trkpt lat="57.659215" lon="10.462265">
<ele>7.351415</ele>
<time>2026-07-17T11:11:44.000Z</time>
</trkpt>
<trkpt lat="57.659260" lon="10.462302">
<ele>7.357335</ele>
<time>2026-07-17T11:11:45.000Z</time>
</trkpt>
<trkpt lat="57.659300" lon="10.462332">
<ele>7.362525</ele>
<time>2026-07-17T11:11:46.000Z</time>
</trkpt>
<trkpt lat="57.659348" lon="10.462373">
<ele>7.368879</ele>
<time>2026-07-17T11:11:47.000Z</time>
</trkpt>
<trkpt lat="57.659394" lon="10.462406">
<ele>7.374812</ele>
<time>2026-07-17T11:11:48.000Z</time>
</trkpt>
<trkpt lat="57.659436" lon="10.462436">
<ele>7.380226</ele>
<time>2026-07-17T11:11:49.000Z</time>
</trkpt>
<trkpt lat="57.659478" lon="10.462462">
<ele>7.385554</ele>
<time>2026-07-17T11:11:50.000Z</time>
</trkpt>
<trkpt lat="57.659519" lon="10.462496">
<ele>7.390955</ele>
<time>2026-07-17T11:11:51.000Z</time>
</trkpt>
<trkpt lat="57.659558" lon="10.462530">
<ele>7.396136</ele>
<time>2026-07-17T11:11:52.000Z</time>
</trkpt>
<trkpt lat="57.659600" lon="10.462557">
<ele>7.401484</ele>
<time>2026-07-17T11:11:53.000Z</time>
</trkpt>
<trkpt lat="57.659638" lon="10.462574">
<ele>7.406189</ele>
<time>2026-07-17T11:11:54.000Z</time>
</trkpt>
<trkpt lat="57.659675" lon="10.462588">
<ele>7.410735</ele>
<time>2026-07-17T11:11:55.000Z</time>
</trkpt>
<trkpt lat="57.659709" lon="10.462606">
<ele>7.414990</ele>
<time>2026-07-17T11:11:56.000Z</time>
</trkpt>
<trkpt lat="57.659744" lon="10.462629">
<ele>7.419457</ele>
<time>2026-07-17T11:11:57.000Z</time>
</trkpt>
<trkpt lat="57.659774" lon="10.462653">
<ele>7.423387</ele>
<time>2026-07-17T11:11:58.000Z</time>
</trkpt>
<trkpt lat="57.659804" lon="10.462672">
<ele>7.427201</ele>
<time>2026-07-17T11:11:59.000Z</time>
</trkpt>
<trkpt lat="57.659830" lon="10.462687">
<ele>7.430477</ele>
<time>2026-07-17T11:12:00.000Z</time>
</trkpt>
<trkpt lat="57.659858" lon="10.462699">
<ele>7.433936</ele>
<time>2026-07-17T11:12:01.000Z</time>
</trkpt>
<trkpt lat="57.659885" lon="10.462707">
<ele>7.437228</ele>
<time>2026-07-17T11:12:02.000Z</time>
</trkpt>
<trkpt lat="57.659916" lon="10.462711">
<ele>7.440679</ele>
<time>2026-07-17T11:12:03.000Z</time>
</trkpt>
<trkpt lat="57.659949" lon="10.462709">
<ele>7.437351</ele>
<time>2026-07-17T11:12:04.000Z</time>
</trkpt>
<trkpt lat="57.659980" lon="10.462696">
<ele>7.434150</ele>
<time>2026-07-17T11:12:05.000Z</time>
</trkpt>
<trkpt lat="57.660011" lon="10.462678">
<ele>7.430878</ele>
<time>2026-07-17T11:12:06.000Z</time>
</trkpt>
<trkpt lat="57.660040" lon="10.462658">
<ele>7.427763</ele>
<time>2026-07-17T11:12:07.000Z</time>
</trkpt>
<trkpt lat="57.660066" lon="10.462643">
<ele>7.425021</ele>
<time>2026-07-17T11:12:08.000Z</time>
</trkpt>
<trkpt lat="57.660090" lon="10.462631">
<ele>7.422517</ele>
<time>2026-07-17T11:12:09.000Z</time>
</trkpt>
<trkpt lat="57.660119" lon="10.462619">
<ele>7.419523</ele>
<time>2026-07-17T11:12:10.000Z</time>
</trkpt>
<trkpt lat="57.660147" lon="10.462610">
<ele>7.416660</ele>
<time>2026-07-17T11:12:11.000Z</time>
</trkpt>
<trkpt lat="57.660165" lon="10.462601">
<ele>7.414782</ele>
<time>2026-07-17T11:12:12.000Z</time>
</trkpt>
<trkpt lat="57.660192" lon="10.462588">
<ele>7.411972</ele>
<time>2026-07-17T11:12:13.000Z</time>
</trkpt>
<trkpt lat="57.660215" lon="10.462576">
<ele>7.409566</ele>
<time>2026-07-17T11:12:14.000Z</time>
</trkpt>
<trkpt lat="57.660226" lon="10.462571">
<ele>7.408425</ele>
<time>2026-07-17T11:12:15.000Z</time>
</trkpt>
<trkpt lat="57.660224" lon="10.462546">
<ele>7.407062</ele>
<time>2026-07-17T11:12:36.000Z</time>
</trkpt>
<trkpt lat="57.660213" lon="10.462540">
<ele>7.405907</ele>
<time>2026-07-17T11:12:37.000Z</time>
</trkpt>
<trkpt lat="57.660197" lon="10.462546">
<ele>7.404263</ele>
<time>2026-07-17T11:12:38.000Z</time>
</trkpt>
<trkpt lat="57.660184" lon="10.462563">
<ele>7.402664</ele>
<time>2026-07-17T11:12:39.000Z</time>
</trkpt>
<trkpt lat="57.660156" lon="10.462594">
<ele>7.399384</ele>
<time>2026-07-17T11:12:40.000Z</time>
</trkpt>
<trkpt lat="57.660126" lon="10.462617">
<ele>7.396116</ele>
<time>2026-07-17T11:12:41.000Z</time>
</trkpt>
<trkpt lat="57.660098" lon="10.462629">
<ele>7.393221</ele>
<time>2026-07-17T11:12:42.000Z</time>
</trkpt>
<trkpt lat="57.660055" lon="10.462630">
<ele>7.388887</ele>
<time>2026-07-17T11:12:43.000Z</time>
</trkpt>
<trkpt lat="57.660014" lon="10.462626">
<ele>7.384749</ele>
<time>2026-07-17T11:12:44.000Z</time>
</trkpt>
<trkpt lat="57.659972" lon="10.462627">
<ele>7.380516</ele>
<time>2026-07-17T11:12:45.000Z</time>
</trkpt>
<trkpt lat="57.659932" lon="10.462633">
<ele>7.376472</ele>
<time>2026-07-17T11:12:46.000Z</time>
</trkpt>
<trkpt lat="57.659888" lon="10.462632">
<ele>7.372037</ele>
<time>2026-07-17T11:12:47.000Z</time>
</trkpt>
<trkpt lat="57.659846" lon="10.462619">
<ele>7.367747</ele>
<time>2026-07-17T11:12:48.000Z</time>
</trkpt>
<trkpt lat="57.659805" lon="10.462599">
<ele>7.363476</ele>
<time>2026-07-17T11:12:49.000Z</time>
</trkpt>
<trkpt lat="57.659763" lon="10.462572">
<ele>7.359000</ele>
<time>2026-07-17T11:12:50.000Z</time>
</trkpt>
<trkpt lat="57.659721" lon="10.462548">
<ele>7.354574</ele>
<time>2026-07-17T11:12:51.000Z</time>
</trkpt>
<trkpt lat="57.659684" lon="10.462532">
<ele>7.350747</ele>
<time>2026-07-17T11:12:52.000Z</time>
</trkpt>
<trkpt lat="57.659653" lon="10.462518">
<ele>7.347533</ele>
<time>2026-07-17T11:12:53.000Z</time>
</trkpt>
<trkpt lat="57.659623" lon="10.462505">
<ele>7.344429</ele>
<time>2026-07-17T11:12:54.000Z</time>
</trkpt>
<trkpt lat="57.659588" lon="10.462489">
<ele>7.340798</ele>
<time>2026-07-17T11:12:55.000Z</time>
</trkpt>
<trkpt lat="57.659559" lon="10.462467">
<ele>7.337643</ele>
<time>2026-07-17T11:12:56.000Z</time>
</trkpt>
<trkpt lat="57.659528" lon="10.462441">
<ele>7.334219</ele>
<time>2026-07-17T11:12:57.000Z</time>
</trkpt>
<trkpt lat="57.659505" lon="10.462416">
<ele>7.331538</ele>
<time>2026-07-17T11:12:58.000Z</time>
</trkpt>
<trkpt lat="57.659479" lon="10.462392">
<ele>7.328615</ele>
<time>2026-07-17T11:12:59.000Z</time>
</trkpt>
<trkpt lat="57.659465" lon="10.462383">
<ele>7.327123</ele>
<time>2026-07-17T11:13:00.000Z</time>
</trkpt>
<trkpt lat="57.659459" lon="10.462396">
<ele>7.326198</ele>
<time>2026-07-17T11:13:01.000Z</time>
</trkpt>
<trkpt lat="57.659464" lon="10.462416">
<ele>7.325007</ele>
<time>2026-07-17T11:13:02.000Z</time>
</trkpt>
<trkpt lat="57.659480" lon="10.462432">
<ele>7.323179</ele>
<time>2026-07-17T11:13:03.000Z</time>
</trkpt>
<trkpt lat="57.659503" lon="10.462450">
<ele>7.320666</ele>
<time>2026-07-17T11:13:04.000Z</time>
</trkpt>
<trkpt lat="57.659525" lon="10.462468">
<ele>7.318245</ele>
<time>2026-07-17T11:13:05.000Z</time>
</trkpt>
<trkpt lat="57.659548" lon="10.462488">
<ele>7.315689</ele>
<time>2026-07-17T11:13:06.000Z</time>
</trkpt>
<trkpt lat="57.659571" lon="10.462508">
<ele>7.313132</ele>
<time>2026-07-17T11:13:07.000Z</time>
</trkpt>
<trkpt lat="57.659590" lon="10.462529">
<ele>7.310908</ele>
<time>2026-07-17T11:13:08.000Z</time>
</trkpt>
<trkpt lat="57.659609" lon="10.462550">
<ele>7.308683</ele>
<time>2026-07-17T11:13:09.000Z</time>
</trkpt>
<trkpt lat="57.659627" lon="10.462579">
<ele>7.306289</ele>
<time>2026-07-17T11:13:10.000Z</time>
</trkpt>
<trkpt lat="57.659634" lon="10.462623">
<ele>7.303814</ele>
<time>2026-07-17T11:13:11.000Z</time>
</trkpt>
<trkpt lat="57.659637" lon="10.462665">
<ele>7.301529</ele>
<time>2026-07-17T11:13:12.000Z</time>
</trkpt>
<trkpt lat="57.659628" lon="10.462708">
<ele>7.299040</ele>
<time>2026-07-17T11:13:13.000Z</time>
</trkpt>
<trkpt lat="57.659613" lon="10.462753">
<ele>7.296181</ele>
<time>2026-07-17T11:13:14.000Z</time>
</trkpt>
<trkpt lat="57.659602" lon="10.462796">
<ele>7.293612</ele>
<time>2026-07-17T11:13:15.000Z</time>
</trkpt>
<trkpt lat="57.659590" lon="10.462840">
<ele>7.290949</ele>
<time>2026-07-17T11:13:16.000Z</time>
</trkpt>
<trkpt lat="57.659579" lon="10.462881">
<ele>7.288476</ele>
<time>2026-07-17T11:13:17.000Z</time>
</trkpt>
<trkpt lat="57.659572" lon="10.462920">
<ele>7.286258</ele>
<time>2026-07-17T11:13:18.000Z</time>
</trkpt>
<trkpt lat="57.659564" lon="10.462953">
<ele>7.284305</ele>
<time>2026-07-17T11:13:19.000Z</time>
</trkpt>
<trkpt lat="57.659557" lon="10.462984">
<ele>7.282491</ele>
<time>2026-07-17T11:13:20.000Z</time>
</trkpt>
<trkpt lat="57.659549" lon="10.463011">
<ele>7.280827</ele>
<time>2026-07-17T11:13:21.000Z</time>
</trkpt>
<trkpt lat="57.659542" lon="10.463034">
<ele>7.279400</ele>
<time>2026-07-17T11:13:22.000Z</time>
</trkpt>
<trkpt lat="57.659537" lon="10.463049">
<ele>7.278447</ele>
<time>2026-07-17T11:13:23.000Z</time>
</trkpt>
<trkpt lat="57.659526" lon="10.463057">
<ele>7.277258</ele>
<time>2026-07-17T11:13:24.000Z</time>
</trkpt>
<trkpt lat="57.659519" lon="10.463065">
<ele>7.276431</ele>
<time>2026-07-17T11:13:25.000Z</time>
</trkpt>
<trkpt lat="57.659515" lon="10.463077">
<ele>7.275669</ele>
<time>2026-07-17T11:13:26.000Z</time>
</trkpt>
<trkpt lat="57.659512" lon="10.463094">
<ele>7.274704</ele>
<time>2026-07-17T11:13:27.000Z</time>
</trkpt>
<trkpt lat="57.659511" lon="10.463116">
<ele>7.273513</ele>
<time>2026-07-17T11:13:28.000Z</time>
</trkpt>
<trkpt lat="57.659507" lon="10.463137">
<ele>7.272311</ele>
<time>2026-07-17T11:13:29.000Z</time>
</trkpt>
<trkpt lat="57.659504" lon="10.463161">
<ele>7.270983</ele>
<time>2026-07-17T11:13:30.000Z</time>
</trkpt>
<trkpt lat="57.659500" lon="10.463178">
<ele>7.269981</ele>
<time>2026-07-17T11:13:31.000Z</time>
</trkpt>
<trkpt lat="57.659496" lon="10.463194">
<ele>7.269029</ele>
<time>2026-07-17T11:13:32.000Z</time>
</trkpt>
<trkpt lat="57.659492" lon="10.463208">
<ele>7.268174</ele>
<time>2026-07-17T11:13:33.000Z</time>
</trkpt>
<trkpt lat="57.659492" lon="10.463227">
<ele>7.267149</ele>
<time>2026-07-17T11:13:34.000Z</time>
</trkpt>
<trkpt lat="57.659488" lon="10.463246">
<ele>7.266048</ele>
<time>2026-07-17T11:13:35.000Z</time>
</trkpt>
<trkpt lat="57.659484" lon="10.463267">
<ele>7.264847</ele>
<time>2026-07-17T11:13:36.000Z</time>
</trkpt>
<trkpt lat="57.659473" lon="10.463286">
<ele>7.263337</ele>
<time>2026-07-17T11:13:37.000Z</time>
</trkpt>
<trkpt lat="57.659469" lon="10.463305">
<ele>7.262236</ele>
<time>2026-07-17T11:13:38.000Z</time>
</trkpt>
<trkpt lat="57.659466" lon="10.463317">
<ele>7.261522</ele>
<time>2026-07-17T11:13:39.000Z</time>
</trkpt>
<trkpt lat="57.659470" lon="10.463324">
<ele>7.260970</ele>
<time>2026-07-17T11:13:40.000Z</time>
</trkpt>
<trkpt lat="57.659474" lon="10.463324">
<ele>7.260567</ele>
<time>2026-07-17T11:13:41.000Z</time>
</trkpt>
<trkpt lat="57.659478" lon="10.463330">
<ele>7.260050</ele>
<time>2026-07-17T11:13:42.000Z</time>
</trkpt>
<trkpt lat="57.659481" lon="10.463345">
<ele>7.258608</ele>
<time>2026-07-17T11:13:43.000Z</time>
</trkpt>
<trkpt lat="57.659485" lon="10.463359">
<ele>7.256355</ele>
<time>2026-07-17T11:13:44.000Z</time>
</trkpt>
<trkpt lat="57.659489" lon="10.463382">
<ele>7.252922</ele>
<time>2026-07-17T11:13:45.000Z</time>
</trkpt>
<trkpt lat="57.659497" lon="10.463404">
<ele>7.249146</ele>
<time>2026-07-17T11:13:46.000Z</time>
</trkpt>
<trkpt lat="57.659505" lon="10.463426">
<ele>7.245370</ele>
<time>2026-07-17T11:13:47.000Z</time>
</trkpt>
<trkpt lat="57.659517" lon="10.463447">
<ele>7.241008</ele>
<time>2026-07-17T11:13:48.000Z</time>
</trkpt>
<trkpt lat="57.659528" lon="10.463467">
<ele>7.236936</ele>
<time>2026-07-17T11:13:49.000Z</time>
</trkpt>
<trkpt lat="57.659539" lon="10.463489">
<ele>7.232661</ele>
<time>2026-07-17T11:13:50.000Z</time>
</trkpt>
<trkpt lat="57.659550" lon="10.463510">
<ele>7.228489</ele>
<time>2026-07-17T11:13:51.000Z</time>
</trkpt>
<trkpt lat="57.659554" lon="10.463527">
<ele>7.225852</ele>
<time>2026-07-17T11:13:52.000Z</time>
</trkpt>
<trkpt lat="57.659557" lon="10.463544">
<ele>7.223311</ele>
<time>2026-07-17T11:13:53.000Z</time>
</trkpt>
<trkpt lat="57.659554" lon="10.463550">
<ele>7.222145</ele>
<time>2026-07-17T11:13:54.000Z</time>
</trkpt>
<trkpt lat="57.659554" lon="10.463553">
<ele>7.221719</ele>
<time>2026-07-17T11:13:55.000Z</time>
</trkpt>
<trkpt lat="57.659554" lon="10.463553">
<ele>7.221719</ele>
<time>2026-07-17T11:13:56.000Z</time>
</trkpt>
<trkpt lat="57.659554" lon="10.463552">
<ele>7.221577</ele>
<time>2026-07-17T11:13:57.000Z</time>
</trkpt>
<trkpt lat="57.659559" lon="10.463599">
<ele>7.214775</ele>
<time>2026-07-17T11:14:41.000Z</time>
</trkpt>
<trkpt lat="57.659573" lon="10.463623">
<ele>7.209734</ele>
<time>2026-07-17T11:14:42.000Z</time>
</trkpt>
<trkpt lat="57.659594" lon="10.463651">
<ele>7.202889</ele>
<time>2026-07-17T11:14:43.000Z</time>
</trkpt>
<trkpt lat="57.659617" lon="10.463674">
<ele>7.195967</ele>
<time>2026-07-17T11:14:44.000Z</time>
</trkpt>
<trkpt lat="57.659636" lon="10.463696">
<ele>7.190037</ele>
<time>2026-07-17T11:14:45.000Z</time>
</trkpt>
<trkpt lat="57.659659" lon="10.463721">
<ele>7.182977</ele>
<time>2026-07-17T11:14:46.000Z</time>
</trkpt>
<trkpt lat="57.659686" lon="10.463745">
<ele>7.175043</ele>
<time>2026-07-17T11:14:47.000Z</time>
</trkpt>
<trkpt lat="57.659721" lon="10.463775">
<ele>7.164825</ele>
<time>2026-07-17T11:14:48.000Z</time>
</trkpt>
<trkpt lat="57.659756" lon="10.463804">
<ele>7.154666</ele>
<time>2026-07-17T11:14:49.000Z</time>
</trkpt>
<trkpt lat="57.659794" lon="10.463838">
<ele>7.143487</ele>
<time>2026-07-17T11:14:50.000Z</time>
</trkpt>
<trkpt lat="57.659832" lon="10.463868">
<ele>7.132541</ele>
<time>2026-07-17T11:14:51.000Z</time>
</trkpt>
<trkpt lat="57.659875" lon="10.463895">
<ele>7.120504</ele>
<time>2026-07-17T11:14:52.000Z</time>
</trkpt>
<trkpt lat="57.659917" lon="10.463919">
<ele>7.108849</ele>
<time>2026-07-17T11:14:53.000Z</time>
</trkpt>
<trkpt lat="57.659962" lon="10.463939">
<ele>7.096575</ele>
<time>2026-07-17T11:14:54.000Z</time>
</trkpt>
<trkpt lat="57.660005" lon="10.463958">
<ele>7.084850</ele>
<time>2026-07-17T11:14:55.000Z</time>
</trkpt>
<trkpt lat="57.660058" lon="10.463981">
<ele>7.070412</ele>
<time>2026-07-17T11:14:56.000Z</time>
</trkpt>
<trkpt lat="57.660104" lon="10.464003">
<ele>7.057812</ele>
<time>2026-07-17T11:14:57.000Z</time>
</trkpt>
<trkpt lat="57.660146" lon="10.464027">
<ele>7.046158</ele>
<time>2026-07-17T11:14:58.000Z</time>
</trkpt>
<trkpt lat="57.660191" lon="10.464054">
<ele>7.033616</ele>
<time>2026-07-17T11:14:59.000Z</time>
</trkpt>
<trkpt lat="57.660242" lon="10.464080">
<ele>7.019589</ele>
<time>2026-07-17T11:15:00.000Z</time>
</trkpt>
<trkpt lat="57.660295" lon="10.464104">
<ele>7.005118</ele>
<time>2026-07-17T11:15:01.000Z</time>
</trkpt>
<trkpt lat="57.660349" lon="10.464126">
<ele>6.990452</ele>
<time>2026-07-17T11:15:02.000Z</time>
</trkpt>
<trkpt lat="57.660403" lon="10.464148">
<ele>6.975786</ele>
<time>2026-07-17T11:15:03.000Z</time>
</trkpt>
<trkpt lat="57.660460" lon="10.464174">
<ele>6.960216</ele>
<time>2026-07-17T11:15:04.000Z</time>
</trkpt>
<trkpt lat="57.660517" lon="10.464200">
<ele>6.944647</ele>
<time>2026-07-17T11:15:05.000Z</time>
</trkpt>
<trkpt lat="57.660573" lon="10.464230">
<ele>6.929188</ele>
<time>2026-07-17T11:15:06.000Z</time>
</trkpt>
<trkpt lat="57.660626" lon="10.464261">
<ele>6.914452</ele>
<time>2026-07-17T11:15:07.000Z</time>
</trkpt>
<trkpt lat="57.660681" lon="10.464296">
<ele>6.899034</ele>
<time>2026-07-17T11:15:08.000Z</time>
</trkpt>
<trkpt lat="57.660742" lon="10.464332">
<ele>6.882060</ele>
<time>2026-07-17T11:15:09.000Z</time>
</trkpt>
<trkpt lat="57.660799" lon="10.464367">
<ele>6.866139</ele>
<time>2026-07-17T11:15:10.000Z</time>
</trkpt>
<trkpt lat="57.660847" lon="10.464402">
<ele>6.852467</ele>
<time>2026-07-17T11:15:11.000Z</time>
</trkpt>
<trkpt lat="57.660889" lon="10.464433">
<ele>6.840484</ele>
<time>2026-07-17T11:15:12.000Z</time>
</trkpt>
<trkpt lat="57.660938" lon="10.464466">
<ele>6.826663</ele>
<time>2026-07-17T11:15:13.000Z</time>
</trkpt>
<trkpt lat="57.660986" lon="10.464503">
<ele>6.812886</ele>
<time>2026-07-17T11:15:14.000Z</time>
</trkpt>
<trkpt lat="57.661035" lon="10.464539">
<ele>6.798915</ele>
<time>2026-07-17T11:15:15.000Z</time>
</trkpt>
<trkpt lat="57.661083" lon="10.464574">
<ele>6.785243</ele>
<time>2026-07-17T11:15:16.000Z</time>
</trkpt>
<trkpt lat="57.661133" lon="10.464613">
<ele>6.776010</ele>
<time>2026-07-17T11:15:17.000Z</time>
</trkpt>
<trkpt lat="57.661184" lon="10.464655">
<ele>6.767905</ele>
<time>2026-07-17T11:15:18.000Z</time>
</trkpt>
<trkpt lat="57.661233" lon="10.464696">
<ele>6.760097</ele>
<time>2026-07-17T11:15:19.000Z</time>
</trkpt>
<trkpt lat="57.661279" lon="10.464735">
<ele>6.752751</ele>
<time>2026-07-17T11:15:20.000Z</time>
</trkpt>
<trkpt lat="57.661329" lon="10.464775">
<ele>6.744841</ele>
<time>2026-07-17T11:15:21.000Z</time>
</trkpt>
<trkpt lat="57.661379" lon="10.464815">
<ele>6.736932</ele>
<time>2026-07-17T11:15:22.000Z</time>
</trkpt>
<trkpt lat="57.661431" lon="10.464860">
<ele>6.728598</ele>
<time>2026-07-17T11:15:23.000Z</time>
</trkpt>
<trkpt lat="57.661478" lon="10.464903">
<ele>6.720988</ele>
<time>2026-07-17T11:15:24.000Z</time>
</trkpt>
<trkpt lat="57.661528" lon="10.464946">
<ele>6.712984</ele>
<time>2026-07-17T11:15:25.000Z</time>
</trkpt>
<trkpt lat="57.661583" lon="10.464985">
<ele>6.704429</ele>
<time>2026-07-17T11:15:26.000Z</time>
</trkpt>
<trkpt lat="57.661641" lon="10.465026">
<ele>6.695410</ele>
<time>2026-07-17T11:15:27.000Z</time>
</trkpt>
<trkpt lat="57.661691" lon="10.465066">
<ele>6.687501</ele>
<time>2026-07-17T11:15:28.000Z</time>
</trkpt>
<trkpt lat="57.661742" lon="10.465106">
<ele>6.679457</ele>
<time>2026-07-17T11:15:29.000Z</time>
</trkpt>
<trkpt lat="57.661794" lon="10.465151">
<ele>6.671124</ele>
<time>2026-07-17T11:15:30.000Z</time>
</trkpt>
<trkpt lat="57.661845" lon="10.465190">
<ele>6.663110</ele>
<time>2026-07-17T11:15:31.000Z</time>
</trkpt>
<trkpt lat="57.661900" lon="10.465234">
<ele>6.654409</ele>
<time>2026-07-17T11:15:32.000Z</time>
</trkpt>
<trkpt lat="57.661950" lon="10.465276">
<ele>6.646437</ele>
<time>2026-07-17T11:15:33.000Z</time>
</trkpt>
<trkpt lat="57.662000" lon="10.465314">
<ele>6.638587</ele>
<time>2026-07-17T11:15:34.000Z</time>
</trkpt>
<trkpt lat="57.662058" lon="10.465361">
<ele>6.629394</ele>
<time>2026-07-17T11:15:35.000Z</time>
</trkpt>
<trkpt lat="57.662111" lon="10.465404">
<ele>6.620991</ele>
<time>2026-07-17T11:15:36.000Z</time>
</trkpt>
<trkpt lat="57.662167" lon="10.465451">
<ele>6.612063</ele>
<time>2026-07-17T11:15:37.000Z</time>
</trkpt>
<trkpt lat="57.662225" lon="10.465499">
<ele>6.602839</ele>
<time>2026-07-17T11:15:38.000Z</time>
</trkpt>
<trkpt lat="57.662281" lon="10.465547">
<ele>6.593879</ele>
<time>2026-07-17T11:15:39.000Z</time>
</trkpt>
<trkpt lat="57.662337" lon="10.465594">
<ele>6.584952</ele>
<time>2026-07-17T11:15:40.000Z</time>
</trkpt>
<trkpt lat="57.662394" lon="10.465637">
<ele>6.576012</ele>
<time>2026-07-17T11:15:41.000Z</time>
</trkpt>
<trkpt lat="57.662451" lon="10.465681">
<ele>6.567043</ele>
<time>2026-07-17T11:15:42.000Z</time>
</trkpt>
<trkpt lat="57.662509" lon="10.465728">
<ele>6.557850</ele>
<time>2026-07-17T11:15:43.000Z</time>
</trkpt>
<trkpt lat="57.662566" lon="10.465773">
<ele>6.548851</ele>
<time>2026-07-17T11:15:44.000Z</time>
</trkpt>
<trkpt lat="57.662623" lon="10.465819">
<ele>6.539822</ele>
<time>2026-07-17T11:15:45.000Z</time>
</trkpt>
<trkpt lat="57.662684" lon="10.465867">
<ele>6.530196</ele>
<time>2026-07-17T11:15:46.000Z</time>
</trkpt>
<trkpt lat="57.662741" lon="10.465920">
<ele>6.520938</ele>
<time>2026-07-17T11:15:47.000Z</time>
</trkpt>
<trkpt lat="57.662799" lon="10.465970">
<ele>6.500309</ele>
<time>2026-07-17T11:15:48.000Z</time>
</trkpt>
<trkpt lat="57.662860" lon="10.466020">
<ele>6.478432</ele>
<time>2026-07-17T11:15:49.000Z</time>
</trkpt>
<trkpt lat="57.662917" lon="10.466069">
<ele>6.457825</ele>
<time>2026-07-17T11:15:50.000Z</time>
</trkpt>
<trkpt lat="57.662978" lon="10.466117">
<ele>6.436087</ele>
<time>2026-07-17T11:15:51.000Z</time>
</trkpt>
<trkpt lat="57.663043" lon="10.466167">
<ele>6.413000</ele>
<time>2026-07-17T11:15:52.000Z</time>
</trkpt>
<trkpt lat="57.663100" lon="10.466216">
<ele>6.392394</ele>
<time>2026-07-17T11:15:53.000Z</time>
</trkpt>
<trkpt lat="57.663161" lon="10.466264">
<ele>6.370655</ele>
<time>2026-07-17T11:15:54.000Z</time>
</trkpt>
<trkpt lat="57.663222" lon="10.466312">
<ele>6.348917</ele>
<time>2026-07-17T11:15:55.000Z</time>
</trkpt>
<trkpt lat="57.663283" lon="10.466357">
<ele>6.327378</ele>
<time>2026-07-17T11:15:56.000Z</time>
</trkpt>
<trkpt lat="57.663336" lon="10.466401">
<ele>6.308330</ele>
<time>2026-07-17T11:15:57.000Z</time>
</trkpt>
<trkpt lat="57.663393" lon="10.466445">
<ele>6.288075</ele>
<time>2026-07-17T11:15:58.000Z</time>
</trkpt>
<trkpt lat="57.663445" lon="10.466490">
<ele>6.269254</ele>
<time>2026-07-17T11:15:59.000Z</time>
</trkpt>
<trkpt lat="57.663495" lon="10.466542">
<ele>6.250461</ele>
<time>2026-07-17T11:16:00.000Z</time>
</trkpt>
<trkpt lat="57.663549" lon="10.466602">
<ele>6.229828</ele>
<time>2026-07-17T11:16:01.000Z</time>
</trkpt>
<trkpt lat="57.663601" lon="10.466670">
<ele>6.208985</ele>
<time>2026-07-17T11:16:02.000Z</time>
</trkpt>
<trkpt lat="57.663652" lon="10.466739">
<ele>6.188307</ele>
<time>2026-07-17T11:16:03.000Z</time>
</trkpt>
<trkpt lat="57.663701" lon="10.466819">
<ele>6.166940</ele>
<time>2026-07-17T11:16:04.000Z</time>
</trkpt>
<trkpt lat="57.663747" lon="10.466899">
<ele>6.146304</ele>
<time>2026-07-17T11:16:05.000Z</time>
</trkpt>
<trkpt lat="57.663793" lon="10.466983">
<ele>6.125184</ele>
<time>2026-07-17T11:16:06.000Z</time>
</trkpt>
<trkpt lat="57.663838" lon="10.467068">
<ele>6.104172</ele>
<time>2026-07-17T11:16:07.000Z</time>
</trkpt>
<trkpt lat="57.663880" lon="10.467151">
<ele>6.084099</ele>
<time>2026-07-17T11:16:08.000Z</time>
</trkpt>
<trkpt lat="57.663921" lon="10.467230">
<ele>6.064760</ele>
<time>2026-07-17T11:16:09.000Z</time>
</trkpt>
<trkpt lat="57.663964" lon="10.467308">
<ele>6.045081</ele>
<time>2026-07-17T11:16:10.000Z</time>
</trkpt>
<trkpt lat="57.664002" lon="10.467383">
<ele>6.026932</ele>
<time>2026-07-17T11:16:11.000Z</time>
</trkpt>
<trkpt lat="57.664040" lon="10.467457">
<ele>6.008909</ele>
<time>2026-07-17T11:16:12.000Z</time>
</trkpt>
<trkpt lat="57.664078" lon="10.467535">
<ele>5.990374</ele>
<time>2026-07-17T11:16:13.000Z</time>
</trkpt>
<trkpt lat="57.664119" lon="10.467618">
<ele>5.970524</ele>
<time>2026-07-17T11:16:14.000Z</time>
</trkpt>
<trkpt lat="57.664157" lon="10.467701">
<ele>5.951330</ele>
<time>2026-07-17T11:16:15.000Z</time>
</trkpt>
<trkpt lat="57.664196" lon="10.467782">
<ele>5.932183</ele>
<time>2026-07-17T11:16:16.000Z</time>
</trkpt>
<trkpt lat="57.664230" lon="10.467848">
<ele>5.923506</ele>
<time>2026-07-17T11:16:17.000Z</time>
</trkpt>
<trkpt lat="57.664261" lon="10.467906">
<ele>5.916849</ele>
<time>2026-07-17T11:16:18.000Z</time>
</trkpt>
<trkpt lat="57.664299" lon="10.467976">
<ele>5.908752</ele>
<time>2026-07-17T11:16:19.000Z</time>
</trkpt>
<trkpt lat="57.664337" lon="10.468053">
<ele>5.900246</ele>
<time>2026-07-17T11:16:20.000Z</time>
</trkpt>
<trkpt lat="57.664375" lon="10.468129">
<ele>5.891800</ele>
<time>2026-07-17T11:16:21.000Z</time>
</trkpt>
<trkpt lat="57.664410" lon="10.468198">
<ele>5.884080</ele>
<time>2026-07-17T11:16:22.000Z</time>
</trkpt>
<trkpt lat="57.664444" lon="10.468264">
<ele>5.876640</ele>
<time>2026-07-17T11:16:23.000Z</time>
</trkpt>
<trkpt lat="57.664478" lon="10.468331">
<ele>5.869142</ele>
<time>2026-07-17T11:16:24.000Z</time>
</trkpt>
<trkpt lat="57.664508" lon="10.468398">
<ele>5.862048</ele>
<time>2026-07-17T11:16:25.000Z</time>
</trkpt>
<trkpt lat="57.664539" lon="10.468463">
<ele>5.854978</ele>
<time>2026-07-17T11:16:26.000Z</time>
</trkpt>
<trkpt lat="57.664569" lon="10.468530">
<ele>5.847884</ele>
<time>2026-07-17T11:16:27.000Z</time>
</trkpt>
<trkpt lat="57.664599" lon="10.468599">
<ele>5.840665</ele>
<time>2026-07-17T11:16:28.000Z</time>
</trkpt>
<trkpt lat="57.664626" lon="10.468677">
<ele>5.833122</ele>
<time>2026-07-17T11:16:29.000Z</time>
</trkpt>
<trkpt lat="57.664653" lon="10.468748">
<ele>5.826050</ele>
<time>2026-07-17T11:16:30.000Z</time>
</trkpt>
<trkpt lat="57.664679" lon="10.468822">
<ele>5.818862</ele>
<time>2026-07-17T11:16:31.000Z</time>
</trkpt>
<trkpt lat="57.664707" lon="10.468890">
<ele>5.811894</ele>
<time>2026-07-17T11:16:32.000Z</time>
</trkpt>
<trkpt lat="57.664734" lon="10.468950">
<ele>5.805529</ele>
<time>2026-07-17T11:16:33.000Z</time>
</trkpt>
<trkpt lat="57.664770" lon="10.469029">
<ele>5.797103</ele>
<time>2026-07-17T11:16:34.000Z</time>
</trkpt>
<trkpt lat="57.664802" lon="10.469105">
<ele>5.789250</ele>
<time>2026-07-17T11:16:35.000Z</time>
</trkpt>
<trkpt lat="57.664832" lon="10.469177">
<ele>5.781841</ele>
<time>2026-07-17T11:16:36.000Z</time>
</trkpt>
<trkpt lat="57.664862" lon="10.469246">
<ele>5.774621</ele>
<time>2026-07-17T11:16:37.000Z</time>
</trkpt>
<trkpt lat="57.664894" lon="10.469320">
<ele>5.766896</ele>
<time>2026-07-17T11:16:38.000Z</time>
</trkpt>
<trkpt lat="57.664924" lon="10.469392">
<ele>5.759486</ele>
<time>2026-07-17T11:16:39.000Z</time>
</trkpt>
<trkpt lat="57.664959" lon="10.469486">
<ele>5.750188</ele>
<time>2026-07-17T11:16:40.000Z</time>
</trkpt>
<trkpt lat="57.664993" lon="10.469574">
<ele>5.741374</ele>
<time>2026-07-17T11:16:41.000Z</time>
</trkpt>
<trkpt lat="57.665035" lon="10.469680">
<ele>5.730665</ele>
<time>2026-07-17T11:16:42.000Z</time>
</trkpt>
<trkpt lat="57.665070" lon="10.469785">
<ele>5.720620</ele>
<time>2026-07-17T11:16:43.000Z</time>
</trkpt>
<trkpt lat="57.665112" lon="10.469878">
<ele>5.710739</ele>
<time>2026-07-17T11:16:44.000Z</time>
</trkpt>
<trkpt lat="57.665148" lon="10.469967">
<ele>5.701680</ele>
<time>2026-07-17T11:16:45.000Z</time>
</trkpt>
<trkpt lat="57.665188" lon="10.470078">
<ele>5.690814</ele>
<time>2026-07-17T11:16:46.000Z</time>
</trkpt>
<trkpt lat="57.665225" lon="10.470178">
<ele>5.680942</ele>
<time>2026-07-17T11:16:47.000Z</time>
</trkpt>
<trkpt lat="57.665260" lon="10.470274">
<ele>5.671510</ele>
<time>2026-07-17T11:16:48.000Z</time>
</trkpt>
<trkpt lat="57.665293" lon="10.470373">
<ele>5.662040</ele>
<time>2026-07-17T11:16:49.000Z</time>
</trkpt>
<trkpt lat="57.665329" lon="10.470470">
<ele>5.647420</ele>
<time>2026-07-17T11:16:50.000Z</time>
</trkpt>
<trkpt lat="57.665363" lon="10.470582">
<ele>5.625056</ele>
<time>2026-07-17T11:16:51.000Z</time>
</trkpt>
<trkpt lat="57.665402" lon="10.470693">
<ele>5.601992</ele>
<time>2026-07-17T11:16:52.000Z</time>
</trkpt>
<trkpt lat="57.665443" lon="10.470797">
<ele>5.579556</ele>
<time>2026-07-17T11:16:53.000Z</time>
</trkpt>
<trkpt lat="57.665491" lon="10.470924">
<ele>5.552550</ele>
<time>2026-07-17T11:16:54.000Z</time>
</trkpt>
<trkpt lat="57.665541" lon="10.471039">
<ele>5.526813</ele>
<time>2026-07-17T11:16:55.000Z</time>
</trkpt>
<trkpt lat="57.665594" lon="10.471156">
<ele>5.500187</ele>
<time>2026-07-17T11:16:56.000Z</time>
</trkpt>
<trkpt lat="57.665643" lon="10.471281">
<ele>5.473273</ele>
<time>2026-07-17T11:16:57.000Z</time>
</trkpt>
<trkpt lat="57.665691" lon="10.471403">
<ele>5.446972</ele>
<time>2026-07-17T11:16:58.000Z</time>
</trkpt>
<trkpt lat="57.665738" lon="10.471524">
<ele>5.421002</ele>
<time>2026-07-17T11:16:59.000Z</time>
</trkpt>
<trkpt lat="57.665780" lon="10.471642">
<ele>5.396388</ele>
<time>2026-07-17T11:17:00.000Z</time>
</trkpt>
<trkpt lat="57.665822" lon="10.471753">
<ele>5.372776</ele>
<time>2026-07-17T11:17:01.000Z</time>
</trkpt>
<trkpt lat="57.665863" lon="10.471855">
<ele>5.350618</ele>
<time>2026-07-17T11:17:02.000Z</time>
</trkpt>
<trkpt lat="57.665901" lon="10.471954">
<ele>5.329456</ele>
<time>2026-07-17T11:17:03.000Z</time>
</trkpt>
<trkpt lat="57.665939" lon="10.472063">
<ele>5.306862</ele>
<time>2026-07-17T11:17:04.000Z</time>
</trkpt>
<trkpt lat="57.665974" lon="10.472172">
<ele>5.284783</ele>
<time>2026-07-17T11:17:05.000Z</time>
</trkpt>
<trkpt lat="57.666007" lon="10.472277">
<ele>5.263634</ele>
<time>2026-07-17T11:17:06.000Z</time>
</trkpt>
<trkpt lat="57.666038" lon="10.472387">
<ele>5.242042</ele>
<time>2026-07-17T11:17:07.000Z</time>
</trkpt>
<trkpt lat="57.666068" lon="10.472512">
<ele>5.218250</ele>
<time>2026-07-17T11:17:08.000Z</time>
</trkpt>
<trkpt lat="57.666090" lon="10.472635">
<ele>5.195727</ele>
<time>2026-07-17T11:17:09.000Z</time>
</trkpt>
<trkpt lat="57.666109" lon="10.472758">
<ele>5.173494</ele>
<time>2026-07-17T11:17:10.000Z</time>
</trkpt>
<trkpt lat="57.666128" lon="10.472875">
<ele>5.152260</ele>
<time>2026-07-17T11:17:11.000Z</time>
</trkpt>
<trkpt lat="57.666148" lon="10.472987">
<ele>5.131755</ele>
<time>2026-07-17T11:17:12.000Z</time>
</trkpt>
<trkpt lat="57.666170" lon="10.473097">
<ele>5.111361</ele>
<time>2026-07-17T11:17:13.000Z</time>
</trkpt>
<trkpt lat="57.666185" lon="10.473209">
<ele>5.091311</ele>
<time>2026-07-17T11:17:14.000Z</time>
</trkpt>
<trkpt lat="57.666204" lon="10.473329">
<ele>5.067107</ele>
<time>2026-07-17T11:17:15.000Z</time>
</trkpt>
<trkpt lat="57.666220" lon="10.473442">
<ele>5.031627</ele>
<time>2026-07-17T11:17:16.000Z</time>
</trkpt>
<trkpt lat="57.666238" lon="10.473554">
<ele>4.996131</ele>
<time>2026-07-17T11:17:17.000Z</time>
</trkpt>
<trkpt lat="57.666254" lon="10.473667">
<ele>4.960652</ele>
<time>2026-07-17T11:17:18.000Z</time>
</trkpt>
<trkpt lat="57.666269" lon="10.473778">
<ele>4.925902</ele>
<time>2026-07-17T11:17:19.000Z</time>
</trkpt>
<trkpt lat="57.666285" lon="10.473888">
<ele>4.891302</ele>
<time>2026-07-17T11:17:20.000Z</time>
</trkpt>
<trkpt lat="57.666303" lon="10.473994">
<ele>4.857546</ele>
<time>2026-07-17T11:17:21.000Z</time>
</trkpt>
<trkpt lat="57.666319" lon="10.474100">
<ele>4.824116</ele>
<time>2026-07-17T11:17:22.000Z</time>
</trkpt>
<trkpt lat="57.666338" lon="10.474205">
<ele>4.790471</ele>
<time>2026-07-17T11:17:23.000Z</time>
</trkpt>
<trkpt lat="57.666353" lon="10.474315">
<ele>4.756016</ele>
<time>2026-07-17T11:17:24.000Z</time>
</trkpt>
<trkpt lat="57.666368" lon="10.474424">
<ele>4.721855</ele>
<time>2026-07-17T11:17:25.000Z</time>
</trkpt>
<trkpt lat="57.666382" lon="10.474528">
<ele>4.689304</ele>
<time>2026-07-17T11:17:26.000Z</time>
</trkpt>
<trkpt lat="57.666395" lon="10.474649">
<ele>4.651844</ele>
<time>2026-07-17T11:17:27.000Z</time>
</trkpt>
<trkpt lat="57.666410" lon="10.474759">
<ele>4.617389</ele>
<time>2026-07-17T11:17:28.000Z</time>
</trkpt>
<trkpt lat="57.666421" lon="10.474865">
<ele>4.584616</ele>
<time>2026-07-17T11:17:29.000Z</time>
</trkpt>
<trkpt lat="57.666436" lon="10.474972">
<ele>4.551042</ele>
<time>2026-07-17T11:17:30.000Z</time>
</trkpt>
<trkpt lat="57.666456" lon="10.475086">
<ele>4.514627</ele>
<time>2026-07-17T11:17:31.000Z</time>
</trkpt>
<trkpt lat="57.666475" lon="10.475198">
<ele>4.478963</ele>
<time>2026-07-17T11:17:32.000Z</time>
</trkpt>
<trkpt lat="57.666490" lon="10.475307">
<ele>4.444802</ele>
<time>2026-07-17T11:17:33.000Z</time>
</trkpt>
<trkpt lat="57.666510" lon="10.475418">
<ele>4.409251</ele>
<time>2026-07-17T11:17:34.000Z</time>
</trkpt>
<trkpt lat="57.666529" lon="10.475528">
<ele>4.374166</ele>
<time>2026-07-17T11:17:35.000Z</time>
</trkpt>
<trkpt lat="57.666548" lon="10.475640">
<ele>4.338502</ele>
<time>2026-07-17T11:17:36.000Z</time>
</trkpt>
<trkpt lat="57.666568" lon="10.475750">
<ele>4.303239</ele>
<time>2026-07-17T11:17:37.000Z</time>
</trkpt>
<trkpt lat="57.666594" lon="10.475860">
<ele>4.266737</ele>
<time>2026-07-17T11:17:38.000Z</time>
</trkpt>
<trkpt lat="57.666613" lon="10.475969">
<ele>4.231940</ele>
<time>2026-07-17T11:17:39.000Z</time>
</trkpt>
<trkpt lat="57.666636" lon="10.476081">
<ele>4.195527</ele>
<time>2026-07-17T11:17:40.000Z</time>
</trkpt>
<trkpt lat="57.666658" lon="10.476190">
<ele>4.160166</ele>
<time>2026-07-17T11:17:41.000Z</time>
</trkpt>
<trkpt lat="57.666677" lon="10.476299">
<ele>4.125369</ele>
<time>2026-07-17T11:17:42.000Z</time>
</trkpt>
<trkpt lat="57.666697" lon="10.476411">
<ele>4.089531</ele>
<time>2026-07-17T11:17:43.000Z</time>
</trkpt>
<trkpt lat="57.666716" lon="10.476525">
<ele>4.053289</ele>
<time>2026-07-17T11:17:44.000Z</time>
</trkpt>
<trkpt lat="57.666738" lon="10.476637">
<ele>4.030278</ele>
<time>2026-07-17T11:17:45.000Z</time>
</trkpt>
<trkpt lat="57.666758" lon="10.476751">
<ele>4.007564</ele>
<time>2026-07-17T11:17:46.000Z</time>
</trkpt>
<trkpt lat="57.666784" lon="10.476861">
<ele>3.984796</ele>
<time>2026-07-17T11:17:47.000Z</time>
</trkpt>
<trkpt lat="57.666807" lon="10.476979">
<ele>3.961018</ele>
<time>2026-07-17T11:17:48.000Z</time>
</trkpt>
<trkpt lat="57.666826" lon="10.477093">
<ele>3.938412</ele>
<time>2026-07-17T11:17:49.000Z</time>
</trkpt>
<trkpt lat="57.666846" lon="10.477207">
<ele>3.915698</ele>
<time>2026-07-17T11:17:50.000Z</time>
</trkpt>
<trkpt lat="57.666868" lon="10.477317">
<ele>3.893464</ele>
<time>2026-07-17T11:17:51.000Z</time>
</trkpt>
<trkpt lat="57.666886" lon="10.477421">
<ele>3.872769</ele>
<time>2026-07-17T11:17:52.000Z</time>
</trkpt>
<trkpt lat="57.666903" lon="10.477531">
<ele>3.851092</ele>
<time>2026-07-17T11:17:53.000Z</time>
</trkpt>
<trkpt lat="57.666922" lon="10.477635">
<ele>3.830285</ele>
<time>2026-07-17T11:17:54.000Z</time>
</trkpt>
<trkpt lat="57.666940" lon="10.477733">
<ele>3.810668</ele>
<time>2026-07-17T11:17:55.000Z</time>
</trkpt>
<trkpt lat="57.666960" lon="10.477836">
<ele>3.789923</ele>
<time>2026-07-17T11:17:56.000Z</time>
</trkpt>
<trkpt lat="57.666983" lon="10.477931">
<ele>3.770180</ele>
<time>2026-07-17T11:17:57.000Z</time>
</trkpt>
<trkpt lat="57.667001" lon="10.478034">
<ele>3.749666</ele>
<time>2026-07-17T11:17:58.000Z</time>
</trkpt>
<trkpt lat="57.667021" lon="10.478154">
<ele>3.725870</ele>
<time>2026-07-17T11:17:59.000Z</time>
</trkpt>
<trkpt lat="57.667040" lon="10.478273">
<ele>3.702358</ele>
<time>2026-07-17T11:18:00.000Z</time>
</trkpt>
<trkpt lat="57.667060" lon="10.478387">
<ele>3.679644</ele>
<time>2026-07-17T11:18:01.000Z</time>
</trkpt>
<trkpt lat="57.667084" lon="10.478491">
<ele>3.658200</ele>
<time>2026-07-17T11:18:02.000Z</time>
</trkpt>
<trkpt lat="57.667108" lon="10.478611">
<ele>3.633945</ele>
<time>2026-07-17T11:18:03.000Z</time>
</trkpt>
<trkpt lat="57.667128" lon="10.478724">
<ele>3.611411</ele>
<time>2026-07-17T11:18:04.000Z</time>
</trkpt>
<trkpt lat="57.667151" lon="10.478831">
<ele>3.589579</ele>
<time>2026-07-17T11:18:05.000Z</time>
</trkpt>
<trkpt lat="57.667174" lon="10.478942">
<ele>3.567042</ele>
<time>2026-07-17T11:18:06.000Z</time>
</trkpt>
<trkpt lat="57.667196" lon="10.479055">
<ele>3.544276</ele>
<time>2026-07-17T11:18:07.000Z</time>
</trkpt>
<trkpt lat="57.667217" lon="10.479168">
<ele>3.521628</ele>
<time>2026-07-17T11:18:08.000Z</time>
</trkpt>
<trkpt lat="57.667243" lon="10.479283">
<ele>3.497991</ele>
<time>2026-07-17T11:18:09.000Z</time>
</trkpt>
<trkpt lat="57.667269" lon="10.479398">
<ele>3.474353</ele>
<time>2026-07-17T11:18:10.000Z</time>
</trkpt>
<trkpt lat="57.667292" lon="10.479508">
<ele>3.451993</ele>
<time>2026-07-17T11:18:11.000Z</time>
</trkpt>
<trkpt lat="57.667311" lon="10.479613">
<ele>3.431008</ele>
<time>2026-07-17T11:18:12.000Z</time>
</trkpt>
<trkpt lat="57.667333" lon="10.479726">
<ele>3.409101</ele>
<time>2026-07-17T11:18:13.000Z</time>
</trkpt>
<trkpt lat="57.667349" lon="10.479840">
<ele>3.389435</ele>
<time>2026-07-17T11:18:14.000Z</time>
</trkpt>
<trkpt lat="57.667368" lon="10.479952">
<ele>3.369829</ele>
<time>2026-07-17T11:18:15.000Z</time>
</trkpt>
<trkpt lat="57.667387" lon="10.480066">
<ele>3.349905</ele>
<time>2026-07-17T11:18:16.000Z</time>
</trkpt>
<trkpt lat="57.667404" lon="10.480176">
<ele>3.330800</ele>
<time>2026-07-17T11:18:17.000Z</time>
</trkpt>
<trkpt lat="57.667426" lon="10.480301">
<ele>3.308842</ele>
<time>2026-07-17T11:18:18.000Z</time>
</trkpt>
<trkpt lat="57.667448" lon="10.480418">
<ele>3.288148</ele>
<time>2026-07-17T11:18:19.000Z</time>
</trkpt>
<trkpt lat="57.667468" lon="10.480535">
<ele>3.267652</ele>
<time>2026-07-17T11:18:20.000Z</time>
</trkpt>
<trkpt lat="57.667490" lon="10.480654">
<ele>3.246643</ele>
<time>2026-07-17T11:18:21.000Z</time>
</trkpt>
<trkpt lat="57.667509" lon="10.480766">
<ele>3.227038</ele>
<time>2026-07-17T11:18:22.000Z</time>
</trkpt>
<trkpt lat="57.667528" lon="10.480880">
<ele>3.207113</ele>
<time>2026-07-17T11:18:23.000Z</time>
</trkpt>
<trkpt lat="57.667548" lon="10.480998">
<ele>3.186459</ele>
<time>2026-07-17T11:18:24.000Z</time>
</trkpt>
<trkpt lat="57.667571" lon="10.481112">
<ele>3.166129</ele>
<time>2026-07-17T11:18:25.000Z</time>
</trkpt>
<trkpt lat="57.667593" lon="10.481230">
<ele>3.145277</ele>
<time>2026-07-17T11:18:26.000Z</time>
</trkpt>
<trkpt lat="57.667612" lon="10.481347">
<ele>3.124875</ele>
<time>2026-07-17T11:18:27.000Z</time>
</trkpt>
<trkpt lat="57.667631" lon="10.481465">
<ele>3.104312</ele>
<time>2026-07-17T11:18:28.000Z</time>
</trkpt>
<trkpt lat="57.667650" lon="10.481578">
<ele>3.084548</ele>
<time>2026-07-17T11:18:29.000Z</time>
</trkpt>
<trkpt lat="57.667669" lon="10.481687">
<ele>3.065418</ele>
<time>2026-07-17T11:18:30.000Z</time>
</trkpt>
<trkpt lat="57.667689" lon="10.481797">
<ele>3.046032</ele>
<time>2026-07-17T11:18:31.000Z</time>
</trkpt>
<trkpt lat="57.667711" lon="10.481906">
<ele>3.026593</ele>
<time>2026-07-17T11:18:32.000Z</time>
</trkpt>
<trkpt lat="57.667731" lon="10.482017">
<ele>3.007049</ele>
<time>2026-07-17T11:18:33.000Z</time>
</trkpt>
<trkpt lat="57.667753" lon="10.482128">
<ele>2.987297</ele>
<time>2026-07-17T11:18:34.000Z</time>
</trkpt>
<trkpt lat="57.667773" lon="10.482240">
<ele>2.967594</ele>
<time>2026-07-17T11:18:35.000Z</time>
</trkpt>
<trkpt lat="57.667796" lon="10.482349">
<ele>2.948043</ele>
<time>2026-07-17T11:18:36.000Z</time>
</trkpt>
<trkpt lat="57.667818" lon="10.482455">
<ele>2.929071</ele>
<time>2026-07-17T11:18:37.000Z</time>
</trkpt>
<trkpt lat="57.667835" lon="10.482551">
<ele>2.912197</ele>
<time>2026-07-17T11:18:38.000Z</time>
</trkpt>
<trkpt lat="57.667860" lon="10.482662">
<ele>2.892101</ele>
<time>2026-07-17T11:18:39.000Z</time>
</trkpt>
<trkpt lat="57.667884" lon="10.482769">
<ele>2.872740</ele>
<time>2026-07-17T11:18:40.000Z</time>
</trkpt>
<trkpt lat="57.667910" lon="10.482872">
<ele>2.853821</ele>
<time>2026-07-17T11:18:41.000Z</time>
</trkpt>
<trkpt lat="57.667933" lon="10.482976">
<ele>2.837703</ele>
<time>2026-07-17T11:18:42.000Z</time>
</trkpt>
<trkpt lat="57.667956" lon="10.483069">
<ele>2.823028</ele>
<time>2026-07-17T11:18:43.000Z</time>
</trkpt>
<trkpt lat="57.667983" lon="10.483193">
<ele>2.803852</ele>
<time>2026-07-17T11:18:44.000Z</time>
</trkpt>
<trkpt lat="57.668009" lon="10.483296">
<ele>2.787540</ele>
<time>2026-07-17T11:18:45.000Z</time>
</trkpt>
<trkpt lat="57.668032" lon="10.483397">
<ele>2.771817</ele>
<time>2026-07-17T11:18:46.000Z</time>
</trkpt>
<trkpt lat="57.668052" lon="10.483497">
<ele>2.756526</ele>
<time>2026-07-17T11:18:47.000Z</time>
</trkpt>
<trkpt lat="57.668079" lon="10.483600">
<ele>2.740098</ele>
<time>2026-07-17T11:18:48.000Z</time>
</trkpt>
<trkpt lat="57.668105" lon="10.483705">
<ele>2.723525</ele>
<time>2026-07-17T11:18:49.000Z</time>
</trkpt>
<trkpt lat="57.668132" lon="10.483813">
<ele>2.706451</ele>
<time>2026-07-17T11:18:50.000Z</time>
</trkpt>
<trkpt lat="57.668158" lon="10.483920">
<ele>2.689618</ele>
<time>2026-07-17T11:18:51.000Z</time>
</trkpt>
<trkpt lat="57.668185" lon="10.484024">
<ele>2.673061</ele>
<time>2026-07-17T11:18:52.000Z</time>
</trkpt>
<trkpt lat="57.668212" lon="10.484129">
<ele>2.656374</ele>
<time>2026-07-17T11:18:53.000Z</time>
</trkpt>
<trkpt lat="57.668242" lon="10.484230">
<ele>2.639828</ele>
<time>2026-07-17T11:18:54.000Z</time>
</trkpt>
<trkpt lat="57.668269" lon="10.484336">
<ele>2.623012</ele>
<time>2026-07-17T11:18:55.000Z</time>
</trkpt>
<trkpt lat="57.668296" lon="10.484444">
<ele>2.605937</ele>
<time>2026-07-17T11:18:56.000Z</time>
</trkpt>
<trkpt lat="57.668322" lon="10.484548">
<ele>2.589495</ele>
<time>2026-07-17T11:18:57.000Z</time>
</trkpt>
<trkpt lat="57.668349" lon="10.484656">
<ele>2.572420</ele>
<time>2026-07-17T11:18:58.000Z</time>
</trkpt>
<trkpt lat="57.668376" lon="10.484759">
<ele>2.555992</ele>
<time>2026-07-17T11:18:59.000Z</time>
</trkpt>
<trkpt lat="57.668403" lon="10.484861">
<ele>2.539692</ele>
<time>2026-07-17T11:19:00.000Z</time>
</trkpt>
<trkpt lat="57.668429" lon="10.484966">
<ele>2.523120</ele>
<time>2026-07-17T11:19:01.000Z</time>
</trkpt>
<trkpt lat="57.668456" lon="10.485072">
<ele>2.506304</ele>
<time>2026-07-17T11:19:02.000Z</time>
</trkpt>
<trkpt lat="57.668483" lon="10.485177">
<ele>2.489618</ele>
<time>2026-07-17T11:19:03.000Z</time>
</trkpt>
<trkpt lat="57.668515" lon="10.485271">
<ele>2.473659</ele>
<time>2026-07-17T11:19:04.000Z</time>
</trkpt>
<trkpt lat="57.668557" lon="10.485376">
<ele>2.454880</ele>
<time>2026-07-17T11:19:05.000Z</time>
</trkpt>
<trkpt lat="57.668598" lon="10.485470">
<ele>2.437507</ele>
<time>2026-07-17T11:19:06.000Z</time>
</trkpt>
<trkpt lat="57.668636" lon="10.485560">
<ele>2.421084</ele>
<time>2026-07-17T11:19:07.000Z</time>
</trkpt>
<trkpt lat="57.668673" lon="10.485644">
<ele>2.405499</ele>
<time>2026-07-17T11:19:08.000Z</time>
</trkpt>
<trkpt lat="57.668717" lon="10.485739">
<ele>2.387500</ele>
<time>2026-07-17T11:19:09.000Z</time>
</trkpt>
<trkpt lat="57.668756" lon="10.485830">
<ele>2.372793</ele>
<time>2026-07-17T11:19:10.000Z</time>
</trkpt>
<trkpt lat="57.668800" lon="10.485920">
<ele>2.373951</ele>
<time>2026-07-17T11:19:11.000Z</time>
</trkpt>
<trkpt lat="57.668842" lon="10.486012">
<ele>2.375101</ele>
<time>2026-07-17T11:19:12.000Z</time>
</trkpt>
<trkpt lat="57.668888" lon="10.486105">
<ele>2.376304</ele>
<time>2026-07-17T11:19:13.000Z</time>
</trkpt>
<trkpt lat="57.668926" lon="10.486184">
<ele>2.377313</ele>
<time>2026-07-17T11:19:14.000Z</time>
</trkpt>
<trkpt lat="57.668973" lon="10.486282">
<ele>2.378564</ele>
<time>2026-07-17T11:19:15.000Z</time>
</trkpt>
<trkpt lat="57.669019" lon="10.486370">
<ele>2.379733</ele>
<time>2026-07-17T11:19:16.000Z</time>
</trkpt>
<trkpt lat="57.669060" lon="10.486465">
<ele>2.380893</ele>
<time>2026-07-17T11:19:17.000Z</time>
</trkpt>
<trkpt lat="57.669098" lon="10.486564">
<ele>2.382051</ele>
<time>2026-07-17T11:19:18.000Z</time>
</trkpt>
<trkpt lat="57.669136" lon="10.486664">
<ele>2.383216</ele>
<time>2026-07-17T11:19:19.000Z</time>
</trkpt>
<trkpt lat="57.669174" lon="10.486764">
<ele>2.384381</ele>
<time>2026-07-17T11:19:20.000Z</time>
</trkpt>
<trkpt lat="57.669212" lon="10.486864">
<ele>2.385547</ele>
<time>2026-07-17T11:19:21.000Z</time>
</trkpt>
<trkpt lat="57.669250" lon="10.486966">
<ele>2.386728</ele>
<time>2026-07-17T11:19:22.000Z</time>
</trkpt>
<trkpt lat="57.669285" lon="10.487069">
<ele>2.387887</ele>
<time>2026-07-17T11:19:23.000Z</time>
</trkpt>
<trkpt lat="57.669323" lon="10.487172">
<ele>2.389076</ele>
<time>2026-07-17T11:19:24.000Z</time>
</trkpt>
<trkpt lat="57.669357" lon="10.487274">
<ele>2.390218</ele>
<time>2026-07-17T11:19:25.000Z</time>
</trkpt>
<trkpt lat="57.669396" lon="10.487374">
<ele>2.391394</ele>
<time>2026-07-17T11:19:26.000Z</time>
</trkpt>
<trkpt lat="57.669434" lon="10.487474">
<ele>2.392559</ele>
<time>2026-07-17T11:19:27.000Z</time>
</trkpt>
<trkpt lat="57.669476" lon="10.487568">
<ele>2.393723</ele>
<time>2026-07-17T11:19:28.000Z</time>
</trkpt>
<trkpt lat="57.669515" lon="10.487664">
<ele>2.394868</ele>
<time>2026-07-17T11:19:29.000Z</time>
</trkpt>
<trkpt lat="57.669556" lon="10.487758">
<ele>2.396021</ele>
<time>2026-07-17T11:19:30.000Z</time>
</trkpt>
<trkpt lat="57.669595" lon="10.487850">
<ele>2.397136</ele>
<time>2026-07-17T11:19:31.000Z</time>
</trkpt>
<trkpt lat="57.669636" lon="10.487941">
<ele>2.398266</ele>
<time>2026-07-17T11:19:32.000Z</time>
</trkpt>
<trkpt lat="57.669673" lon="10.488032">
<ele>2.399352</ele>
<time>2026-07-17T11:19:33.000Z</time>
</trkpt>
<trkpt lat="57.669713" lon="10.488130">
<ele>2.400523</ele>
<time>2026-07-17T11:19:34.000Z</time>
</trkpt>
<trkpt lat="57.669754" lon="10.488223">
<ele>2.401668</ele>
<time>2026-07-17T11:19:35.000Z</time>
</trkpt>
<trkpt lat="57.669788" lon="10.488312">
<ele>2.402708</ele>
<time>2026-07-17T11:19:36.000Z</time>
</trkpt>
<trkpt lat="57.669826" lon="10.488401">
<ele>2.403790</ele>
<time>2026-07-17T11:19:37.000Z</time>
</trkpt>
<trkpt lat="57.669865" lon="10.488491">
<ele>2.401792</ele>
<time>2026-07-17T11:19:38.000Z</time>
</trkpt>
<trkpt lat="57.669903" lon="10.488581">
<ele>2.390369</ele>
<time>2026-07-17T11:19:39.000Z</time>
</trkpt>
<trkpt lat="57.669938" lon="10.488667">
<ele>2.379604</ele>
<time>2026-07-17T11:19:40.000Z</time>
</trkpt>
<trkpt lat="57.669980" lon="10.488753">
<ele>2.368002</ele>
<time>2026-07-17T11:19:41.000Z</time>
</trkpt>
<trkpt lat="57.670021" lon="10.488839">
<ele>2.356525</ele>
<time>2026-07-17T11:19:42.000Z</time>
</trkpt>
<trkpt lat="57.670060" lon="10.488928">
<ele>2.345064</ele>
<time>2026-07-17T11:19:43.000Z</time>
</trkpt>
<trkpt lat="57.670102" lon="10.489018">
<ele>2.333165</ele>
<time>2026-07-17T11:19:44.000Z</time>
</trkpt>
<trkpt lat="57.670144" lon="10.489106">
<ele>2.321416</ele>
<time>2026-07-17T11:19:45.000Z</time>
</trkpt>
<trkpt lat="57.670190" lon="10.489193">
<ele>2.309229</ele>
<time>2026-07-17T11:19:46.000Z</time>
</trkpt>
<trkpt lat="57.670231" lon="10.489281">
<ele>2.297603</ele>
<time>2026-07-17T11:19:47.000Z</time>
</trkpt>
<trkpt lat="57.670278" lon="10.489371">
<ele>2.285072</ele>
<time>2026-07-17T11:19:48.000Z</time>
</trkpt>
<trkpt lat="57.670323" lon="10.489456">
<ele>2.273158</ele>
<time>2026-07-17T11:19:49.000Z</time>
</trkpt>
<trkpt lat="57.670369" lon="10.489539">
<ele>2.261251</ele>
<time>2026-07-17T11:19:50.000Z</time>
</trkpt>
<trkpt lat="57.670415" lon="10.489626">
<ele>2.249064</ele>
<time>2026-07-17T11:19:51.000Z</time>
</trkpt>
<trkpt lat="57.670457" lon="10.489716">
<ele>2.237165</ele>
<time>2026-07-17T11:19:52.000Z</time>
</trkpt>
<trkpt lat="57.670499" lon="10.489806">
<ele>2.225267</ele>
<time>2026-07-17T11:19:53.000Z</time>
</trkpt>
<trkpt lat="57.670540" lon="10.489897">
<ele>2.213414</ele>
<time>2026-07-17T11:19:54.000Z</time>
</trkpt>
<trkpt lat="57.670578" lon="10.489990">
<ele>2.201755</ele>
<time>2026-07-17T11:19:55.000Z</time>
</trkpt>
<trkpt lat="57.670616" lon="10.490082">
<ele>2.190176</ele>
<time>2026-07-17T11:19:56.000Z</time>
</trkpt>
<trkpt lat="57.670654" lon="10.490199">
<ele>2.176540</ele>
<time>2026-07-17T11:19:57.000Z</time>
</trkpt>
<trkpt lat="57.670688" lon="10.490307">
<ele>2.164056</ele>
<time>2026-07-17T11:19:58.000Z</time>
</trkpt>
<trkpt lat="57.670718" lon="10.490419">
<ele>2.151578</ele>
<time>2026-07-17T11:19:59.000Z</time>
</trkpt>
<trkpt lat="57.670745" lon="10.490531">
<ele>2.139341</ele>
<time>2026-07-17T11:20:00.000Z</time>
</trkpt>
<trkpt lat="57.670771" lon="10.490640">
<ele>2.127452</ele>
<time>2026-07-17T11:20:01.000Z</time>
</trkpt>
<trkpt lat="57.670794" lon="10.490748">
<ele>2.115872</ele>
<time>2026-07-17T11:20:02.000Z</time>
</trkpt>
<trkpt lat="57.670821" lon="10.490858">
<ele>2.103816</ele>
<time>2026-07-17T11:20:03.000Z</time>
</trkpt>
<trkpt lat="57.670848" lon="10.490969">
<ele>2.091669</ele>
<time>2026-07-17T11:20:04.000Z</time>
</trkpt>
<trkpt lat="57.670870" lon="10.491083">
<ele>2.079596</ele>
<time>2026-07-17T11:20:05.000Z</time>
</trkpt>
<trkpt lat="57.670889" lon="10.491195">
<ele>2.066580</ele>
<time>2026-07-17T11:20:06.000Z</time>
</trkpt>
<trkpt lat="57.670912" lon="10.491312">
<ele>2.044589</ele>
<time>2026-07-17T11:20:07.000Z</time>
</trkpt>
<trkpt lat="57.670931" lon="10.491427">
<ele>2.023356</ele>
<time>2026-07-17T11:20:08.000Z</time>
</trkpt>
<trkpt lat="57.670954" lon="10.491542">
<ele>2.001696</ele>
<time>2026-07-17T11:20:09.000Z</time>
</trkpt>
<trkpt lat="57.670977" lon="10.491657">
<ele>1.980036</ele>
<time>2026-07-17T11:20:10.000Z</time>
</trkpt>
<trkpt lat="57.670996" lon="10.491771">
<ele>1.958971</ele>
<time>2026-07-17T11:20:11.000Z</time>
</trkpt>
<trkpt lat="57.671019" lon="10.491878">
<ele>1.938627</ele>
<time>2026-07-17T11:20:12.000Z</time>
</trkpt>
<trkpt lat="57.671043" lon="10.491972">
<ele>1.920251</ele>
<time>2026-07-17T11:20:13.000Z</time>
</trkpt>
<trkpt lat="57.671070" lon="10.492090">
<ele>1.897609</ele>
<time>2026-07-17T11:20:14.000Z</time>
</trkpt>
<trkpt lat="57.671100" lon="10.492195">
<ele>1.876608</ele>
<time>2026-07-17T11:20:15.000Z</time>
</trkpt>
<trkpt lat="57.671126" lon="10.492300">
<ele>1.856196</ele>
<time>2026-07-17T11:20:16.000Z</time>
</trkpt>
<trkpt lat="57.671151" lon="10.492399">
<ele>1.836882</ele>
<time>2026-07-17T11:20:17.000Z</time>
</trkpt>
<trkpt lat="57.671179" lon="10.492504">
<ele>1.816183</ele>
<time>2026-07-17T11:20:18.000Z</time>
</trkpt>
<trkpt lat="57.671211" lon="10.492612">
<ele>1.794402</ele>
<time>2026-07-17T11:20:19.000Z</time>
</trkpt>
<trkpt lat="57.671241" lon="10.492711">
<ele>1.774328</ele>
<time>2026-07-17T11:20:20.000Z</time>
</trkpt>
<trkpt lat="57.671271" lon="10.492807">
<ele>1.754713</ele>
<time>2026-07-17T11:20:21.000Z</time>
</trkpt>
<trkpt lat="57.671298" lon="10.492901">
<ele>1.735890</ele>
<time>2026-07-17T11:20:22.000Z</time>
</trkpt>
<trkpt lat="57.671329" lon="10.492996">
<ele>1.716257</ele>
<time>2026-07-17T11:20:23.000Z</time>
</trkpt>
<trkpt lat="57.671363" lon="10.493093">
<ele>1.695797</ele>
<time>2026-07-17T11:20:24.000Z</time>
</trkpt>
<trkpt lat="57.671394" lon="10.493199">
<ele>1.674484</ele>
<time>2026-07-17T11:20:25.000Z</time>
</trkpt>
<trkpt lat="57.671425" lon="10.493304">
<ele>1.653326</ele>
<time>2026-07-17T11:20:26.000Z</time>
</trkpt>
<trkpt lat="57.671454" lon="10.493409">
<ele>1.632478</ele>
<time>2026-07-17T11:20:27.000Z</time>
</trkpt>
<trkpt lat="57.671480" lon="10.493508">
<ele>1.613021</ele>
<time>2026-07-17T11:20:28.000Z</time>
</trkpt>
<trkpt lat="57.671507" lon="10.493616">
<ele>1.591990</ele>
<time>2026-07-17T11:20:29.000Z</time>
</trkpt>
<trkpt lat="57.671530" lon="10.493719">
<ele>1.572299</ele>
<time>2026-07-17T11:20:30.000Z</time>
</trkpt>
<trkpt lat="57.671554" lon="10.493816">
<ele>1.553445</ele>
<time>2026-07-17T11:20:31.000Z</time>
</trkpt>
<trkpt lat="57.671581" lon="10.493908">
<ele>1.534932</ele>
<time>2026-07-17T11:20:32.000Z</time>
</trkpt>
<trkpt lat="57.671615" lon="10.493996">
<ele>1.515780</ele>
<time>2026-07-17T11:20:33.000Z</time>
</trkpt>
<trkpt lat="57.671654" lon="10.494088">
<ele>1.495070</ele>
<time>2026-07-17T11:20:34.000Z</time>
</trkpt>
<trkpt lat="57.671696" lon="10.494177">
<ele>1.474865</ele>
<time>2026-07-17T11:20:35.000Z</time>
</trkpt>
<trkpt lat="57.671738" lon="10.494260">
<ele>1.461666</ele>
<time>2026-07-17T11:20:36.000Z</time>
</trkpt>
<trkpt lat="57.671784" lon="10.494347">
<ele>1.447533</ele>
<time>2026-07-17T11:20:37.000Z</time>
</trkpt>
<trkpt lat="57.671826" lon="10.494435">
<ele>1.433908</ele>
<time>2026-07-17T11:20:38.000Z</time>
</trkpt>
<trkpt lat="57.671869" lon="10.494519">
<ele>1.420476</ele>
<time>2026-07-17T11:20:39.000Z</time>
</trkpt>
<trkpt lat="57.671918" lon="10.494617">
<ele>1.404979</ele>
<time>2026-07-17T11:20:40.000Z</time>
</trkpt>
<trkpt lat="57.671959" lon="10.494708">
<ele>1.391233</ele>
<time>2026-07-17T11:20:41.000Z</time>
</trkpt>
<trkpt lat="57.672002" lon="10.494803">
<ele>1.376856</ele>
<time>2026-07-17T11:20:42.000Z</time>
</trkpt>
<trkpt lat="57.672043" lon="10.494891">
<ele>1.363375</ele>
<time>2026-07-17T11:20:43.000Z</time>
</trkpt>
<trkpt lat="57.672085" lon="10.494982">
<ele>1.349489</ele>
<time>2026-07-17T11:20:44.000Z</time>
</trkpt>
<trkpt lat="57.672127" lon="10.495067">
<ele>1.336121</ele>
<time>2026-07-17T11:20:45.000Z</time>
</trkpt>
<trkpt lat="57.672169" lon="10.495158">
<ele>1.322236</ele>
<time>2026-07-17T11:20:46.000Z</time>
</trkpt>
<trkpt lat="57.672216" lon="10.495246">
<ele>1.307869</ele>
<time>2026-07-17T11:20:47.000Z</time>
</trkpt>
<trkpt lat="57.672261" lon="10.495338">
<ele>1.293467</ele>
<time>2026-07-17T11:20:48.000Z</time>
</trkpt>
<trkpt lat="57.672306" lon="10.495431">
<ele>1.278980</ele>
<time>2026-07-17T11:20:49.000Z</time>
</trkpt>
<trkpt lat="57.672346" lon="10.495509">
<ele>1.266496</ele>
<time>2026-07-17T11:20:50.000Z</time>
</trkpt>
<trkpt lat="57.672387" lon="10.495586">
<ele>1.253945</ele>
<time>2026-07-17T11:20:51.000Z</time>
</trkpt>
<trkpt lat="57.672432" lon="10.495679">
<ele>1.239457</ele>
<time>2026-07-17T11:20:52.000Z</time>
</trkpt>
<trkpt lat="57.672469" lon="10.495771">
<ele>1.226160</ele>
<time>2026-07-17T11:20:53.000Z</time>
</trkpt>
<trkpt lat="57.672491" lon="10.495866">
<ele>1.214202</ele>
<time>2026-07-17T11:20:54.000Z</time>
</trkpt>
<trkpt lat="57.672502" lon="10.495956">
<ele>1.203538</ele>
<time>2026-07-17T11:20:55.000Z</time>
</trkpt>
<trkpt lat="57.672518" lon="10.496047">
<ele>1.192473</ele>
<time>2026-07-17T11:20:56.000Z</time>
</trkpt>
<trkpt lat="57.672537" lon="10.496131">
<ele>1.181937</ele>
<time>2026-07-17T11:20:57.000Z</time>
</trkpt>
<trkpt lat="57.672557" lon="10.496218">
<ele>1.170999</ele>
<time>2026-07-17T11:20:58.000Z</time>
</trkpt>
<trkpt lat="57.672586" lon="10.496293">
<ele>1.160308</ele>
<time>2026-07-17T11:20:59.000Z</time>
</trkpt>
<trkpt lat="57.672623" lon="10.496375">
<ele>1.147915</ele>
<time>2026-07-17T11:21:00.000Z</time>
</trkpt>
<trkpt lat="57.672658" lon="10.496451">
<ele>1.136329</ele>
<time>2026-07-17T11:21:01.000Z</time>
</trkpt>
<trkpt lat="57.672699" lon="10.496528">
<ele>1.123777</ele>
<time>2026-07-17T11:21:02.000Z</time>
</trkpt>
<trkpt lat="57.672729" lon="10.496599">
<ele>1.113325</ele>
<time>2026-07-17T11:21:03.000Z</time>
</trkpt>
<trkpt lat="57.672764" lon="10.496662">
<ele>1.102831</ele>
<time>2026-07-17T11:21:04.000Z</time>
</trkpt>
<trkpt lat="57.672802" lon="10.496723">
<ele>1.092014</ele>
<time>2026-07-17T11:21:05.000Z</time>
</trkpt>
<trkpt lat="57.672840" lon="10.496778">
<ele>1.108450</ele>
<time>2026-07-17T11:21:06.000Z</time>
</trkpt>
<trkpt lat="57.672871" lon="10.496832">
<ele>1.139486</ele>
<time>2026-07-17T11:21:07.000Z</time>
</trkpt>
<trkpt lat="57.672904" lon="10.496885">
<ele>1.171353</ele>
<time>2026-07-17T11:21:08.000Z</time>
</trkpt>
<trkpt lat="57.672933" lon="10.496929">
<ele>1.198710</ele>
<time>2026-07-17T11:21:09.000Z</time>
</trkpt>
<trkpt lat="57.672971" lon="10.496991">
<ele>1.235654</ele>
<time>2026-07-17T11:21:10.000Z</time>
</trkpt>
<trkpt lat="57.673004" lon="10.497051">
<ele>1.269371</ele>
<time>2026-07-17T11:21:11.000Z</time>
</trkpt>
<trkpt lat="57.673045" lon="10.497126">
<ele>1.311387</ele>
<time>2026-07-17T11:21:12.000Z</time>
</trkpt>
<trkpt lat="57.673078" lon="10.497182">
<ele>1.344031</ele>
<time>2026-07-17T11:21:13.000Z</time>
</trkpt>
<trkpt lat="57.673125" lon="10.497257">
<ele>1.389294</ele>
<time>2026-07-17T11:21:14.000Z</time>
</trkpt>
<trkpt lat="57.673170" lon="10.497330">
<ele>1.432934</ele>
<time>2026-07-17T11:21:15.000Z</time>
</trkpt>
<trkpt lat="57.673216" lon="10.497407">
<ele>1.478160</ele>
<time>2026-07-17T11:21:16.000Z</time>
</trkpt>
<trkpt lat="57.673263" lon="10.497480">
<ele>1.522918</ele>
<time>2026-07-17T11:21:17.000Z</time>
</trkpt>
<trkpt lat="57.673303" lon="10.497544">
<ele>1.561482</ele>
<time>2026-07-17T11:21:18.000Z</time>
</trkpt>
<trkpt lat="57.673360" lon="10.497621">
<ele>1.612993</ele>
<time>2026-07-17T11:21:19.000Z</time>
</trkpt>
<trkpt lat="57.673402" lon="10.497668">
<ele>1.648849</ele>
<time>2026-07-17T11:21:20.000Z</time>
</trkpt>
<trkpt lat="57.673464" lon="10.497736">
<ele>1.701503</ele>
<time>2026-07-17T11:21:21.000Z</time>
</trkpt>
<trkpt lat="57.673511" lon="10.497782">
<ele>1.740364</ele>
<time>2026-07-17T11:21:22.000Z</time>
</trkpt>
<trkpt lat="57.673558" lon="10.497821">
<ele>1.778032</ele>
<time>2026-07-17T11:21:23.000Z</time>
</trkpt>
<trkpt lat="57.673599" lon="10.497848">
<ele>1.809875</ele>
<time>2026-07-17T11:21:24.000Z</time>
</trkpt>
<trkpt lat="57.673650" lon="10.497878">
<ele>1.849041</ele>
<time>2026-07-17T11:21:25.000Z</time>
</trkpt>
<trkpt lat="57.673705" lon="10.497903">
<ele>1.890505</ele>
<time>2026-07-17T11:21:26.000Z</time>
</trkpt>
<trkpt lat="57.673752" lon="10.497922">
<ele>1.925731</ele>
<time>2026-07-17T11:21:27.000Z</time>
</trkpt>
<trkpt lat="57.673797" lon="10.497929">
<ele>1.958810</ele>
<time>2026-07-17T11:21:28.000Z</time>
</trkpt>
<trkpt lat="57.673837" lon="10.497933">
<ele>1.988155</ele>
<time>2026-07-17T11:21:29.000Z</time>
</trkpt>
<trkpt lat="57.673875" lon="10.497930">
<ele>2.016017</ele>
<time>2026-07-17T11:21:30.000Z</time>
</trkpt>
<trkpt lat="57.673908" lon="10.497927">
<ele>2.040220</ele>
<time>2026-07-17T11:21:31.000Z</time>
</trkpt>
<trkpt lat="57.673927" lon="10.497924">
<ele>2.054188</ele>
<time>2026-07-17T11:21:32.000Z</time>
</trkpt>
<trkpt lat="57.673950" lon="10.497923">
<ele>2.071042</ele>
<time>2026-07-17T11:21:33.000Z</time>
</trkpt>
<trkpt lat="57.673958" lon="10.497923">
<ele>2.076902</ele>
<time>2026-07-17T11:21:34.000Z</time>
</trkpt>
<trkpt lat="57.673960" lon="10.497928">
<ele>2.079348</ele>
<time>2026-07-17T11:22:12.000Z</time>
</trkpt>
<trkpt lat="57.673983" lon="10.497917">
<ele>2.096740</ele>
<time>2026-07-17T11:22:13.000Z</time>
</trkpt>
<trkpt lat="57.674007" lon="10.497905">
<ele>2.114939</ele>
<time>2026-07-17T11:22:14.000Z</time>
</trkpt>
<trkpt lat="57.674038" lon="10.497896">
<ele>2.137920</ele>
<time>2026-07-17T11:22:15.000Z</time>
</trkpt>
<trkpt lat="57.674072" lon="10.497893">
<ele>2.162855</ele>
<time>2026-07-17T11:22:16.000Z</time>
</trkpt>
<trkpt lat="57.674107" lon="10.497891">
<ele>2.188507</ele>
<time>2026-07-17T11:22:17.000Z</time>
</trkpt>
<trkpt lat="57.674145" lon="10.497890">
<ele>2.216347</ele>
<time>2026-07-17T11:22:18.000Z</time>
</trkpt>
<trkpt lat="57.674187" lon="10.497891">
<ele>2.247117</ele>
<time>2026-07-17T11:22:19.000Z</time>
</trkpt>
<trkpt lat="57.674229" lon="10.497897">
<ele>2.277975</ele>
<time>2026-07-17T11:22:20.000Z</time>
</trkpt>
<trkpt lat="57.674271" lon="10.497908">
<ele>2.309043</ele>
<time>2026-07-17T11:22:21.000Z</time>
</trkpt>
<trkpt lat="57.674318" lon="10.497917">
<ele>2.343653</ele>
<time>2026-07-17T11:22:22.000Z</time>
</trkpt>
<trkpt lat="57.674363" lon="10.497928">
<ele>2.376899</ele>
<time>2026-07-17T11:22:23.000Z</time>
</trkpt>
<trkpt lat="57.674409" lon="10.497936">
<ele>2.406356</ele>
<time>2026-07-17T11:22:24.000Z</time>
</trkpt>
<trkpt lat="57.674455" lon="10.497946">
<ele>2.412620</ele>
<time>2026-07-17T11:22:25.000Z</time>
</trkpt>
<trkpt lat="57.674501" lon="10.497960">
<ele>2.418924</ele>
<time>2026-07-17T11:22:26.000Z</time>
</trkpt>
<trkpt lat="57.674551" lon="10.497973">
<ele>2.425751</ele>
<time>2026-07-17T11:22:27.000Z</time>
</trkpt>
<trkpt lat="57.674600" lon="10.497984">
<ele>2.432427</ele>
<time>2026-07-17T11:22:28.000Z</time>
</trkpt>
<trkpt lat="57.674646" lon="10.497998">
<ele>2.438730</ele>
<time>2026-07-17T11:22:29.000Z</time>
</trkpt>
<trkpt lat="57.674696" lon="10.498015">
<ele>2.445604</ele>
<time>2026-07-17T11:22:30.000Z</time>
</trkpt>
<trkpt lat="57.674745" lon="10.498034">
<ele>2.452372</ele>
<time>2026-07-17T11:22:31.000Z</time>
</trkpt>
<trkpt lat="57.674790" lon="10.498054">
<ele>2.458629</ele>
<time>2026-07-17T11:22:32.000Z</time>
</trkpt>
<trkpt lat="57.674838" lon="10.498076">
<ele>2.465313</ele>
<time>2026-07-17T11:22:33.000Z</time>
</trkpt>
<trkpt lat="57.674885" lon="10.498098">
<ele>2.471866</ele>
<time>2026-07-17T11:22:34.000Z</time>
</trkpt>
<trkpt lat="57.674932" lon="10.498123">
<ele>2.478475</ele>
<time>2026-07-17T11:22:35.000Z</time>
</trkpt>
<trkpt lat="57.674981" lon="10.498147">
<ele>2.485326</ele>
<time>2026-07-17T11:22:36.000Z</time>
</trkpt>
<trkpt lat="57.675027" lon="10.498177">
<ele>2.491916</ele>
<time>2026-07-17T11:22:37.000Z</time>
</trkpt>
<trkpt lat="57.675076" lon="10.498214">
<ele>2.499063</ele>
<time>2026-07-17T11:22:38.000Z</time>
</trkpt>
<trkpt lat="57.675119" lon="10.498255">
<ele>2.505591</ele>
<time>2026-07-17T11:22:39.000Z</time>
</trkpt>
<trkpt lat="57.675165" lon="10.498298">
<ele>2.512547</ele>
<time>2026-07-17T11:22:40.000Z</time>
</trkpt>
<trkpt lat="57.675209" lon="10.498343">
<ele>2.519330</ele>
<time>2026-07-17T11:22:41.000Z</time>
</trkpt>
<trkpt lat="57.675252" lon="10.498388">
<ele>2.525995</ele>
<time>2026-07-17T11:22:42.000Z</time>
</trkpt>
<trkpt lat="57.675294" lon="10.498428">
<ele>2.532370</ele>
<time>2026-07-17T11:22:43.000Z</time>
</trkpt>
<trkpt lat="57.675335" lon="10.498469">
<ele>2.538658</ele>
<time>2026-07-17T11:22:44.000Z</time>
</trkpt>
<trkpt lat="57.675374" lon="10.498510">
<ele>2.544710</ele>
<time>2026-07-17T11:22:45.000Z</time>
</trkpt>
<trkpt lat="57.675415" lon="10.498555">
<ele>2.551140</ele>
<time>2026-07-17T11:22:46.000Z</time>
</trkpt>
<trkpt lat="57.675449" lon="10.498601">
<ele>2.556816</ele>
<time>2026-07-17T11:22:47.000Z</time>
</trkpt>
<trkpt lat="57.675488" lon="10.498648">
<ele>2.563091</ele>
<time>2026-07-17T11:22:48.000Z</time>
</trkpt>
<trkpt lat="57.675526" lon="10.498691">
<ele>2.569098</ele>
<time>2026-07-17T11:22:49.000Z</time>
</trkpt>
<trkpt lat="57.675564" lon="10.498737">
<ele>2.575221</ele>
<time>2026-07-17T11:22:50.000Z</time>
</trkpt>
<trkpt lat="57.675601" lon="10.498792">
<ele>2.581614</ele>
<time>2026-07-17T11:22:51.000Z</time>
</trkpt>
<trkpt lat="57.675632" lon="10.498858">
<ele>2.587967</ele>
<time>2026-07-17T11:22:52.000Z</time>
</trkpt>
<trkpt lat="57.675662" lon="10.498930">
<ele>2.594569</ele>
<time>2026-07-17T11:22:53.000Z</time>
</trkpt>
<trkpt lat="57.675692" lon="10.499005">
<ele>2.601343</ele>
<time>2026-07-17T11:22:54.000Z</time>
</trkpt>
<trkpt lat="57.675719" lon="10.499082">
<ele>2.608002</ele>
<time>2026-07-17T11:22:55.000Z</time>
</trkpt>
<trkpt lat="57.675746" lon="10.499164">
<ele>2.614967</ele>
<time>2026-07-17T11:22:56.000Z</time>
</trkpt>
<trkpt lat="57.675769" lon="10.499247">
<ele>2.621728</ele>
<time>2026-07-17T11:22:57.000Z</time>
</trkpt>
<trkpt lat="57.675795" lon="10.499329">
<ele>2.628623</ele>
<time>2026-07-17T11:22:58.000Z</time>
</trkpt>
<trkpt lat="57.675818" lon="10.499412">
<ele>2.635384</ele>
<time>2026-07-17T11:22:59.000Z</time>
</trkpt>
<trkpt lat="57.675841" lon="10.499497">
<ele>2.642273</ele>
<time>2026-07-17T11:23:00.000Z</time>
</trkpt>
<trkpt lat="57.675860" lon="10.499576">
<ele>2.648538</ele>
<time>2026-07-17T11:23:01.000Z</time>
</trkpt>
<trkpt lat="57.675882" lon="10.499653">
<ele>2.656101</ele>
<time>2026-07-17T11:23:02.000Z</time>
</trkpt>
<trkpt lat="57.675901" lon="10.499727">
<ele>2.663232</ele>
<time>2026-07-17T11:23:03.000Z</time>
</trkpt>
<trkpt lat="57.675921" lon="10.499808">
<ele>2.670983</ele>
<time>2026-07-17T11:23:04.000Z</time>
</trkpt>
<trkpt lat="57.675941" lon="10.499889">
<ele>2.678733</ele>
<time>2026-07-17T11:23:05.000Z</time>
</trkpt>
<trkpt lat="57.675968" lon="10.499969">
<ele>2.686951</ele>
<time>2026-07-17T11:23:06.000Z</time>
</trkpt>
<trkpt lat="57.675999" lon="10.500051">
<ele>2.695674</ele>
<time>2026-07-17T11:23:07.000Z</time>
</trkpt>
<trkpt lat="57.676037" lon="10.500131">
<ele>2.704970</ele>
<time>2026-07-17T11:23:08.000Z</time>
</trkpt>
<trkpt lat="57.676072" lon="10.500202">
<ele>2.713358</ele>
<time>2026-07-17T11:23:09.000Z</time>
</trkpt>
<trkpt lat="57.676114" lon="10.500274">
<ele>2.722614</ele>
<time>2026-07-17T11:23:10.000Z</time>
</trkpt>
<trkpt lat="57.676156" lon="10.500338">
<ele>2.731416</ele>
<time>2026-07-17T11:23:11.000Z</time>
</trkpt>
<trkpt lat="57.676198" lon="10.500396">
<ele>2.739898</ele>
<time>2026-07-17T11:23:12.000Z</time>
</trkpt>
<trkpt lat="57.676240" lon="10.500452">
<ele>2.748277</ele>
<time>2026-07-17T11:23:13.000Z</time>
</trkpt>
<trkpt lat="57.676286" lon="10.500510">
<ele>2.757290</ele>
<time>2026-07-17T11:23:14.000Z</time>
</trkpt>
<trkpt lat="57.676332" lon="10.500566">
<ele>2.766207</ele>
<time>2026-07-17T11:23:15.000Z</time>
</trkpt>
<trkpt lat="57.676381" lon="10.500623">
<ele>2.775582</ele>
<time>2026-07-17T11:23:16.000Z</time>
</trkpt>
<trkpt lat="57.676427" lon="10.500679">
<ele>2.784499</ele>
<time>2026-07-17T11:23:17.000Z</time>
</trkpt>
<trkpt lat="57.676473" lon="10.500735">
<ele>2.793415</ele>
<time>2026-07-17T11:23:18.000Z</time>
</trkpt>
<trkpt lat="57.676519" lon="10.500793">
<ele>2.802428</ele>
<time>2026-07-17T11:23:19.000Z</time>
</trkpt>
<trkpt lat="57.676564" lon="10.500851">
<ele>2.811307</ele>
<time>2026-07-17T11:23:20.000Z</time>
</trkpt>
<trkpt lat="57.676609" lon="10.500913">
<ele>2.820387</ele>
<time>2026-07-17T11:23:21.000Z</time>
</trkpt>
<trkpt lat="57.676649" lon="10.500973">
<ele>2.828717</ele>
<time>2026-07-17T11:23:22.000Z</time>
</trkpt>
<trkpt lat="57.676690" lon="10.501046">
<ele>2.837914</ele>
<time>2026-07-17T11:23:23.000Z</time>
</trkpt>
<trkpt lat="57.676732" lon="10.501118">
<ele>2.847170</ele>
<time>2026-07-17T11:23:24.000Z</time>
</trkpt>
<trkpt lat="57.676773" lon="10.501187">
<ele>2.856130</ele>
<time>2026-07-17T11:23:25.000Z</time>
</trkpt>
<trkpt lat="57.676814" lon="10.501255">
<ele>2.865033</ele>
<time>2026-07-17T11:23:26.000Z</time>
</trkpt>
<trkpt lat="57.676858" lon="10.501323">
<ele>2.874306</ele>
<time>2026-07-17T11:23:27.000Z</time>
</trkpt>
<trkpt lat="57.676902" lon="10.501381">
<ele>2.883051</ele>
<time>2026-07-17T11:23:28.000Z</time>
</trkpt>
<trkpt lat="57.676954" lon="10.501444">
<ele>2.893116</ele>
<time>2026-07-17T11:23:29.000Z</time>
</trkpt>
<trkpt lat="57.677003" lon="10.501502">
<ele>2.902537</ele>
<time>2026-07-17T11:23:30.000Z</time>
</trkpt>
<trkpt lat="57.677049" lon="10.501555">
<ele>2.911315</ele>
<time>2026-07-17T11:23:31.000Z</time>
</trkpt>
<trkpt lat="57.677099" lon="10.501606">
<ele>2.920567</ele>
<time>2026-07-17T11:23:32.000Z</time>
</trkpt>
<trkpt lat="57.677149" lon="10.501655">
<ele>2.929737</ele>
<time>2026-07-17T11:23:33.000Z</time>
</trkpt>
<trkpt lat="57.677202" lon="10.501695">
<ele>2.939022</ele>
<time>2026-07-17T11:23:34.000Z</time>
</trkpt>
<trkpt lat="57.677251" lon="10.501728">
<ele>2.945585</ele>
<time>2026-07-17T11:23:35.000Z</time>
</trkpt>
<trkpt lat="57.677301" lon="10.501757">
<ele>2.951657</ele>
<time>2026-07-17T11:23:36.000Z</time>
</trkpt>
<trkpt lat="57.677355" lon="10.501784">
<ele>2.958141</ele>
<time>2026-07-17T11:23:37.000Z</time>
</trkpt>
<trkpt lat="57.677408" lon="10.501813">
<ele>2.964547</ele>
<time>2026-07-17T11:23:38.000Z</time>
</trkpt>
<trkpt lat="57.677461" lon="10.501839">
<ele>2.970903</ele>
<time>2026-07-17T11:23:39.000Z</time>
</trkpt>
<trkpt lat="57.677516" lon="10.501864">
<ele>2.977469</ele>
<time>2026-07-17T11:23:40.000Z</time>
</trkpt>
<trkpt lat="57.677572" lon="10.501889">
<ele>2.984147</ele>
<time>2026-07-17T11:23:41.000Z</time>
</trkpt>
<trkpt lat="57.677626" lon="10.501915">
<ele>2.990615</ele>
<time>2026-07-17T11:23:42.000Z</time>
</trkpt>
<trkpt lat="57.677675" lon="10.501938">
<ele>2.996476</ele>
<time>2026-07-17T11:23:43.000Z</time>
</trkpt>
<trkpt lat="57.677729" lon="10.501967">
<ele>3.002993</ele>
<time>2026-07-17T11:23:44.000Z</time>
</trkpt>
<trkpt lat="57.677782" lon="10.501997">
<ele>3.009416</ele>
<time>2026-07-17T11:23:45.000Z</time>
</trkpt>
<trkpt lat="57.677836" lon="10.502027">
<ele>3.015951</ele>
<time>2026-07-17T11:23:46.000Z</time>
</trkpt>
<trkpt lat="57.677890" lon="10.502059">
<ele>3.022522</ele>
<time>2026-07-17T11:23:47.000Z</time>
</trkpt>
<trkpt lat="57.677947" lon="10.502090">
<ele>3.029407</ele>
<time>2026-07-17T11:23:48.000Z</time>
</trkpt>
<trkpt lat="57.678003" lon="10.502117">
<ele>3.036116</ele>
<time>2026-07-17T11:23:49.000Z</time>
</trkpt>
<trkpt lat="57.678058" lon="10.502140">
<ele>3.042653</ele>
<time>2026-07-17T11:23:50.000Z</time>
</trkpt>
<trkpt lat="57.678114" lon="10.502160">
<ele>3.049267</ele>
<time>2026-07-17T11:23:51.000Z</time>
</trkpt>
<trkpt lat="57.678167" lon="10.502178">
<ele>3.055515</ele>
<time>2026-07-17T11:23:52.000Z</time>
</trkpt>
<trkpt lat="57.678221" lon="10.502193">
<ele>3.061848</ele>
<time>2026-07-17T11:23:53.000Z</time>
</trkpt>
<trkpt lat="57.678275" lon="10.502206">
<ele>3.068164</ele>
<time>2026-07-17T11:23:54.000Z</time>
</trkpt>
<trkpt lat="57.678332" lon="10.502217">
<ele>3.074811</ele>
<time>2026-07-17T11:23:55.000Z</time>
</trkpt>
<trkpt lat="57.678389" lon="10.502228">
<ele>3.081458</ele>
<time>2026-07-17T11:23:56.000Z</time>
</trkpt>
<trkpt lat="57.678446" lon="10.502236">
<ele>3.088088</ele>
<time>2026-07-17T11:23:57.000Z</time>
</trkpt>
<trkpt lat="57.678500" lon="10.502244">
<ele>3.094372</ele>
<time>2026-07-17T11:23:58.000Z</time>
</trkpt>
<trkpt lat="57.678557" lon="10.502257">
<ele>3.101033</ele>
<time>2026-07-17T11:23:59.000Z</time>
</trkpt>
<trkpt lat="57.678611" lon="10.502273">
<ele>3.107375</ele>
<time>2026-07-17T11:24:00.000Z</time>
</trkpt>
<trkpt lat="57.678668" lon="10.502289">
<ele>3.114061</ele>
<time>2026-07-17T11:24:01.000Z</time>
</trkpt>
<trkpt lat="57.678725" lon="10.502308">
<ele>3.120777</ele>
<time>2026-07-17T11:24:02.000Z</time>
</trkpt>
<trkpt lat="57.678778" lon="10.502334">
<ele>3.127133</ele>
<time>2026-07-17T11:24:03.000Z</time>
</trkpt>
<trkpt lat="57.678832" lon="10.502368">
<ele>3.133743</ele>
<time>2026-07-17T11:24:04.000Z</time>
</trkpt>
<trkpt lat="57.678885" lon="10.502404">
<ele>3.140283</ele>
<time>2026-07-17T11:24:05.000Z</time>
</trkpt>
<trkpt lat="57.678938" lon="10.502441">
<ele>3.146846</ele>
<time>2026-07-17T11:24:06.000Z</time>
</trkpt>
<trkpt lat="57.678991" lon="10.502477">
<ele>3.167626</ele>
<time>2026-07-17T11:24:07.000Z</time>
</trkpt>
<trkpt lat="57.679045" lon="10.502517">
<ele>3.198964</ele>
<time>2026-07-17T11:24:08.000Z</time>
</trkpt>
<trkpt lat="57.679098" lon="10.502554">
<ele>3.229487</ele>
<time>2026-07-17T11:24:09.000Z</time>
</trkpt>
<trkpt lat="57.679156" lon="10.502587">
<ele>3.262198</ele>
<time>2026-07-17T11:24:10.000Z</time>
</trkpt>
<trkpt lat="57.679213" lon="10.502621">
<ele>3.294479</ele>
<time>2026-07-17T11:24:11.000Z</time>
</trkpt>
<trkpt lat="57.679266" lon="10.502658">
<ele>3.325002</ele>
<time>2026-07-17T11:24:12.000Z</time>
</trkpt>
<trkpt lat="57.679320" lon="10.502697">
<ele>3.356235</ele>
<time>2026-07-17T11:24:13.000Z</time>
</trkpt>
<trkpt lat="57.679377" lon="10.502736">
<ele>3.388983</ele>
<time>2026-07-17T11:24:14.000Z</time>
</trkpt>
<trkpt lat="57.679435" lon="10.502773">
<ele>3.422048</ele>
<time>2026-07-17T11:24:15.000Z</time>
</trkpt>
<trkpt lat="57.679492" lon="10.502808">
<ele>3.454418</ele>
<time>2026-07-17T11:24:16.000Z</time>
</trkpt>
<trkpt lat="57.679549" lon="10.502842">
<ele>3.486699</ele>
<time>2026-07-17T11:24:17.000Z</time>
</trkpt>
<trkpt lat="57.679606" lon="10.502875">
<ele>3.518893</ele>
<time>2026-07-17T11:24:18.000Z</time>
</trkpt>
<trkpt lat="57.679663" lon="10.502905">
<ele>3.550843</ele>
<time>2026-07-17T11:24:19.000Z</time>
</trkpt>
<trkpt lat="57.679720" lon="10.502937">
<ele>3.582953</ele>
<time>2026-07-17T11:24:20.000Z</time>
</trkpt>
<trkpt lat="57.679778" lon="10.502968">
<ele>3.615500</ele>
<time>2026-07-17T11:24:21.000Z</time>
</trkpt>
<trkpt lat="57.679830" lon="10.502997">
<ele>3.644778</ele>
<time>2026-07-17T11:24:22.000Z</time>
</trkpt>
<trkpt lat="57.679885" lon="10.503024">
<ele>3.675459</ele>
<time>2026-07-17T11:24:23.000Z</time>
</trkpt>
<trkpt lat="57.679942" lon="10.503045">
<ele>3.706805</ele>
<time>2026-07-17T11:24:24.000Z</time>
</trkpt>
<trkpt lat="57.680003" lon="10.503057">
<ele>3.739899</ele>
<time>2026-07-17T11:24:25.000Z</time>
</trkpt>
<trkpt lat="57.680060" lon="10.503064">
<ele>3.770720</ele>
<time>2026-07-17T11:24:26.000Z</time>
</trkpt>
<trkpt lat="57.680118" lon="10.503068">
<ele>3.802036</ele>
<time>2026-07-17T11:24:27.000Z</time>
</trkpt>
<trkpt lat="57.680178" lon="10.503075">
<ele>3.834473</ele>
<time>2026-07-17T11:24:28.000Z</time>
</trkpt>
<trkpt lat="57.680236" lon="10.503083">
<ele>3.865852</ele>
<time>2026-07-17T11:24:29.000Z</time>
</trkpt>
<trkpt lat="57.680296" lon="10.503097">
<ele>3.898476</ele>
<time>2026-07-17T11:24:30.000Z</time>
</trkpt>
<trkpt lat="57.680350" lon="10.503114">
<ele>3.928023</ele>
<time>2026-07-17T11:24:31.000Z</time>
</trkpt>
<trkpt lat="57.680408" lon="10.503137">
<ele>3.960013</ele>
<time>2026-07-17T11:24:32.000Z</time>
</trkpt>
<trkpt lat="57.680464" lon="10.503161">
<ele>3.991011</ele>
<time>2026-07-17T11:24:33.000Z</time>
</trkpt>
<trkpt lat="57.680521" lon="10.503184">
<ele>4.022473</ele>
<time>2026-07-17T11:24:34.000Z</time>
</trkpt>
<trkpt lat="57.680579" lon="10.503204">
<ele>4.054295</ele>
<time>2026-07-17T11:24:35.000Z</time>
</trkpt>
<trkpt lat="57.680633" lon="10.503225">
<ele>4.084054</ele>
<time>2026-07-17T11:24:36.000Z</time>
</trkpt>
<trkpt lat="57.680690" lon="10.503239">
<ele>4.115073</ele>
<time>2026-07-17T11:24:37.000Z</time>
</trkpt>
<trkpt lat="57.680747" lon="10.503245">
<ele>4.150290</ele>
<time>2026-07-17T11:24:38.000Z</time>
</trkpt>
<trkpt lat="57.680804" lon="10.503242">
<ele>4.186297</ele>
<time>2026-07-17T11:24:39.000Z</time>
</trkpt>
<trkpt lat="57.680861" lon="10.503230">
<ele>4.222517</ele>
<time>2026-07-17T11:24:40.000Z</time>
</trkpt>
<trkpt lat="57.680918" lon="10.503213">
<ele>4.258964</ele>
<time>2026-07-17T11:24:41.000Z</time>
</trkpt>
<trkpt lat="57.680976" lon="10.503201">
<ele>4.295811</ele>
<time>2026-07-17T11:24:42.000Z</time>
</trkpt>
<trkpt lat="57.681033" lon="10.503192">
<ele>4.331932</ele>
<time>2026-07-17T11:24:43.000Z</time>
</trkpt>
<trkpt lat="57.681095" lon="10.503182">
<ele>4.371227</ele>
<time>2026-07-17T11:24:44.000Z</time>
</trkpt>
<trkpt lat="57.681155" lon="10.503171">
<ele>4.409295</ele>
<time>2026-07-17T11:24:45.000Z</time>
</trkpt>
<trkpt lat="57.681217" lon="10.503161">
<ele>4.448590</ele>
<time>2026-07-17T11:24:46.000Z</time>
</trkpt>
<trkpt lat="57.681278" lon="10.503152">
<ele>4.487228</ele>
<time>2026-07-17T11:24:47.000Z</time>
</trkpt>
<trkpt lat="57.681338" lon="10.503140">
<ele>4.525331</ele>
<time>2026-07-17T11:24:48.000Z</time>
</trkpt>
<trkpt lat="57.681391" lon="10.503126">
<ele>4.559130</ele>
<time>2026-07-17T11:24:49.000Z</time>
</trkpt>
<trkpt lat="57.681449" lon="10.503112">
<ele>4.596058</ele>
<time>2026-07-17T11:24:50.000Z</time>
</trkpt>
<trkpt lat="57.681506" lon="10.503094">
<ele>4.632560</ele>
<time>2026-07-17T11:24:51.000Z</time>
</trkpt>
<trkpt lat="57.681563" lon="10.503077">
<ele>4.669007</ele>
<time>2026-07-17T11:24:52.000Z</time>
</trkpt>
<trkpt lat="57.681621" lon="10.503062">
<ele>4.705979</ele>
<time>2026-07-17T11:24:53.000Z</time>
</trkpt>
<trkpt lat="57.681682" lon="10.503051">
<ele>4.744676</ele>
<time>2026-07-17T11:24:54.000Z</time>
</trkpt>
<trkpt lat="57.681743" lon="10.503048">
<ele>4.783208</ele>
<time>2026-07-17T11:24:55.000Z</time>
</trkpt>
<trkpt lat="57.681800" lon="10.503048">
<ele>4.819200</ele>
<time>2026-07-17T11:24:56.000Z</time>
</trkpt>
<trkpt lat="57.681859" lon="10.503052">
<ele>4.856480</ele>
<time>2026-07-17T11:24:57.000Z</time>
</trkpt>
<trkpt lat="57.681918" lon="10.503060">
<ele>4.893833</ele>
<time>2026-07-17T11:24:58.000Z</time>
</trkpt>
<trkpt lat="57.681975" lon="10.503069">
<ele>4.929954</ele>
<time>2026-07-17T11:24:59.000Z</time>
</trkpt>
<trkpt lat="57.682029" lon="10.503077">
<ele>4.964159</ele>
<time>2026-07-17T11:25:00.000Z</time>
</trkpt>
<trkpt lat="57.682085" lon="10.503083">
<ele>4.999578</ele>
<time>2026-07-17T11:25:01.000Z</time>
</trkpt>
<trkpt lat="57.682135" lon="10.503085">
<ele>5.031158</ele>
<time>2026-07-17T11:25:02.000Z</time>
</trkpt>
<trkpt lat="57.682188" lon="10.503084">
<ele>5.064626</ele>
<time>2026-07-17T11:25:03.000Z</time>
</trkpt>
<trkpt lat="57.682238" lon="10.503091">
<ele>5.096287</ele>
<time>2026-07-17T11:25:04.000Z</time>
</trkpt>
<trkpt lat="57.682291" lon="10.503099">
<ele>5.129862</ele>
<time>2026-07-17T11:25:05.000Z</time>
</trkpt>
<trkpt lat="57.682349" lon="10.503104">
<ele>5.166525</ele>
<time>2026-07-17T11:25:06.000Z</time>
</trkpt>
<trkpt lat="57.682410" lon="10.503109">
<ele>5.205080</ele>
<time>2026-07-17T11:25:07.000Z</time>
</trkpt>
<trkpt lat="57.682468" lon="10.503115">
<ele>5.241760</ele>
<time>2026-07-17T11:25:08.000Z</time>
</trkpt>
<trkpt lat="57.682528" lon="10.503121">
<ele>5.261580</ele>
<time>2026-07-17T11:25:09.000Z</time>
</trkpt>
<trkpt lat="57.682593" lon="10.503123">
<ele>5.271623</ele>
<time>2026-07-17T11:25:10.000Z</time>
</trkpt>
<trkpt lat="57.682655" lon="10.503126">
<ele>5.281205</ele>
<time>2026-07-17T11:25:11.000Z</time>
</trkpt>
<trkpt lat="57.682716" lon="10.503131">
<ele>5.290638</ele>
<time>2026-07-17T11:25:12.000Z</time>
</trkpt>
<trkpt lat="57.682777" lon="10.503138">
<ele>5.300079</ele>
<time>2026-07-17T11:25:13.000Z</time>
</trkpt>
<trkpt lat="57.682837" lon="10.503146">
<ele>5.309372</ele>
<time>2026-07-17T11:25:14.000Z</time>
</trkpt>
<trkpt lat="57.682899" lon="10.503156">
<ele>5.318986</ele>
<time>2026-07-17T11:25:15.000Z</time>
</trkpt>
<trkpt lat="57.682964" lon="10.503168">
<ele>5.329077</ele>
<time>2026-07-17T11:25:16.000Z</time>
</trkpt>
<trkpt lat="57.683024" lon="10.503183">
<ele>5.338428</ele>
<time>2026-07-17T11:25:17.000Z</time>
</trkpt>
<trkpt lat="57.683086" lon="10.503196">
<ele>5.348067</ele>
<time>2026-07-17T11:25:18.000Z</time>
</trkpt>
<trkpt lat="57.683150" lon="10.503207">
<ele>5.357996</ele>
<time>2026-07-17T11:25:19.000Z</time>
</trkpt>
<trkpt lat="57.683212" lon="10.503215">
<ele>5.367597</ele>
<time>2026-07-17T11:25:20.000Z</time>
</trkpt>
<trkpt lat="57.683276" lon="10.503220">
<ele>5.377493</ele>
<time>2026-07-17T11:25:21.000Z</time>
</trkpt>
<trkpt lat="57.683334" lon="10.503222">
<ele>5.386454</ele>
<time>2026-07-17T11:25:22.000Z</time>
</trkpt>
<trkpt lat="57.683398" lon="10.503223">
<ele>5.396342</ele>
<time>2026-07-17T11:25:23.000Z</time>
</trkpt>
<trkpt lat="57.683455" lon="10.503221">
<ele>5.405150</ele>
<time>2026-07-17T11:25:24.000Z</time>
</trkpt>
<trkpt lat="57.683516" lon="10.503216">
<ele>5.414582</ele>
<time>2026-07-17T11:25:25.000Z</time>
</trkpt>
<trkpt lat="57.683578" lon="10.503209">
<ele>5.424178</ele>
<time>2026-07-17T11:25:26.000Z</time>
</trkpt>
<trkpt lat="57.683638" lon="10.503194">
<ele>5.433530</ele>
<time>2026-07-17T11:25:27.000Z</time>
</trkpt>
<trkpt lat="57.683695" lon="10.503168">
<ele>5.442594</ele>
<time>2026-07-17T11:25:28.000Z</time>
</trkpt>
<trkpt lat="57.683756" lon="10.503135">
<ele>5.452404</ele>
<time>2026-07-17T11:25:29.000Z</time>
</trkpt>
<trkpt lat="57.683810" lon="10.503104">
<ele>5.461130</ele>
<time>2026-07-17T11:25:30.000Z</time>
</trkpt>
<trkpt lat="57.683867" lon="10.503076">
<ele>5.470235</ele>
<time>2026-07-17T11:25:31.000Z</time>
</trkpt>
<trkpt lat="57.683924" lon="10.503059">
<ele>5.479152</ele>
<time>2026-07-17T11:25:32.000Z</time>
</trkpt>
<trkpt lat="57.683981" lon="10.503050">
<ele>5.487989</ele>
<time>2026-07-17T11:25:33.000Z</time>
</trkpt>
<trkpt lat="57.684038" lon="10.503051">
<ele>5.496795</ele>
<time>2026-07-17T11:25:34.000Z</time>
</trkpt>
<trkpt lat="57.684099" lon="10.503060">
<ele>5.506248</ele>
<time>2026-07-17T11:25:35.000Z</time>
</trkpt>
<trkpt lat="57.684157" lon="10.503075">
<ele>5.515294</ele>
<time>2026-07-17T11:25:36.000Z</time>
</trkpt>
<trkpt lat="57.684214" lon="10.503086">
<ele>5.524147</ele>
<time>2026-07-17T11:25:37.000Z</time>
</trkpt>
<trkpt lat="57.684272" lon="10.503089">
<ele>5.533110</ele>
<time>2026-07-17T11:25:38.000Z</time>
</trkpt>
<trkpt lat="57.684327" lon="10.503080">
<ele>5.544655</ele>
<time>2026-07-17T11:25:39.000Z</time>
</trkpt>
<trkpt lat="57.684386" lon="10.503058">
<ele>5.557427</ele>
<time>2026-07-17T11:25:40.000Z</time>
</trkpt>
<trkpt lat="57.684443" lon="10.503030">
<ele>5.569938</ele>
<time>2026-07-17T11:25:41.000Z</time>
</trkpt>
<trkpt lat="57.684492" lon="10.503003">
<ele>5.580782</ele>
<time>2026-07-17T11:25:42.000Z</time>
</trkpt>
<trkpt lat="57.684546" lon="10.502984">
<ele>5.592447</ele>
<time>2026-07-17T11:25:43.000Z</time>
</trkpt>
<trkpt lat="57.684603" lon="10.502976">
<ele>5.604582</ele>
<time>2026-07-17T11:25:44.000Z</time>
</trkpt>
<trkpt lat="57.684660" lon="10.502977">
<ele>5.616684</ele>
<time>2026-07-17T11:25:45.000Z</time>
</trkpt>
<trkpt lat="57.684718" lon="10.502983">
<ele>5.629016</ele>
<time>2026-07-17T11:25:46.000Z</time>
</trkpt>
<trkpt lat="57.684775" lon="10.502993">
<ele>5.641170</ele>
<time>2026-07-17T11:25:47.000Z</time>
</trkpt>
<trkpt lat="57.684832" lon="10.503007">
<ele>5.653374</ele>
<time>2026-07-17T11:25:48.000Z</time>
</trkpt>
<trkpt lat="57.684889" lon="10.503022">
<ele>5.665594</ele>
<time>2026-07-17T11:25:49.000Z</time>
</trkpt>
<trkpt lat="57.684942" lon="10.503035">
<ele>5.676942</ele>
<time>2026-07-17T11:25:50.000Z</time>
</trkpt>
<trkpt lat="57.684996" lon="10.503046">
<ele>5.688474</ele>
<time>2026-07-17T11:25:51.000Z</time>
</trkpt>
<trkpt lat="57.685054" lon="10.503052">
<ele>5.700806</ele>
<time>2026-07-17T11:25:52.000Z</time>
</trkpt>
<trkpt lat="57.685114" lon="10.503054">
<ele>5.713546</ele>
<time>2026-07-17T11:25:53.000Z</time>
</trkpt>
<trkpt lat="57.685168" lon="10.503045">
<ele>5.725055</ele>
<time>2026-07-17T11:25:54.000Z</time>
</trkpt>
<trkpt lat="57.685225" lon="10.503029">
<ele>5.737292</ele>
<time>2026-07-17T11:25:55.000Z</time>
</trkpt>
<trkpt lat="57.685283" lon="10.503010">
<ele>5.749792</ele>
<time>2026-07-17T11:25:56.000Z</time>
</trkpt>
<trkpt lat="57.685339" lon="10.502992">
<ele>5.761855</ele>
<time>2026-07-17T11:25:57.000Z</time>
</trkpt>
<trkpt lat="57.685393" lon="10.502977">
<ele>5.773445</ele>
<time>2026-07-17T11:25:58.000Z</time>
</trkpt>
<trkpt lat="57.685451" lon="10.502965">
<ele>5.785833</ele>
<time>2026-07-17T11:25:59.000Z</time>
</trkpt>
<trkpt lat="57.685511" lon="10.502952">
<ele>5.798656</ele>
<time>2026-07-17T11:26:00.000Z</time>
</trkpt>
<trkpt lat="57.685565" lon="10.502941">
<ele>5.810188</ele>
<time>2026-07-17T11:26:01.000Z</time>
</trkpt>
<trkpt lat="57.685622" lon="10.502931">
<ele>5.822342</ele>
<time>2026-07-17T11:26:02.000Z</time>
</trkpt>
<trkpt lat="57.685679" lon="10.502922">
<ele>5.834486</ele>
<time>2026-07-17T11:26:03.000Z</time>
</trkpt>
<trkpt lat="57.685736" lon="10.502914">
<ele>5.846621</ele>
<time>2026-07-17T11:26:04.000Z</time>
</trkpt>
<trkpt lat="57.685790" lon="10.502904">
<ele>5.858141</ele>
<time>2026-07-17T11:26:05.000Z</time>
</trkpt>
<trkpt lat="57.685850" lon="10.502892">
<ele>5.870951</ele>
<time>2026-07-17T11:26:06.000Z</time>
</trkpt>
<trkpt lat="57.685908" lon="10.502877">
<ele>5.883381</ele>
<time>2026-07-17T11:26:07.000Z</time>
</trkpt>
<trkpt lat="57.685962" lon="10.502863">
<ele>5.894955</ele>
<time>2026-07-17T11:26:08.000Z</time>
</trkpt>
<trkpt lat="57.686019" lon="10.502847">
<ele>5.907191</ele>
<time>2026-07-17T11:26:09.000Z</time>
</trkpt>
<trkpt lat="57.686076" lon="10.502831">
<ele>5.925725</ele>
<time>2026-07-17T11:26:10.000Z</time>
</trkpt>
<trkpt lat="57.686133" lon="10.502813">
<ele>5.957313</ele>
<time>2026-07-17T11:26:11.000Z</time>
</trkpt>
<trkpt lat="57.686187" lon="10.502789">
<ele>5.987642</ele>
<time>2026-07-17T11:26:12.000Z</time>
</trkpt>
<trkpt lat="57.686243" lon="10.502751">
<ele>6.020194</ele>
<time>2026-07-17T11:26:13.000Z</time>
</trkpt>
<trkpt lat="57.686292" lon="10.502697">
<ele>6.051270</ele>
<time>2026-07-17T11:26:14.000Z</time>
</trkpt>
<trkpt lat="57.686341" lon="10.502632">
<ele>6.084094</ele>
<time>2026-07-17T11:26:15.000Z</time>
</trkpt>
<trkpt lat="57.686383" lon="10.502563">
<ele>6.114639</ele>
<time>2026-07-17T11:26:16.000Z</time>
</trkpt>
<trkpt lat="57.686429" lon="10.502493">
<ele>6.147041</ele>
<time>2026-07-17T11:26:17.000Z</time>
</trkpt>
<trkpt lat="57.686475" lon="10.502424">
<ele>6.179260</ele>
<time>2026-07-17T11:26:18.000Z</time>
</trkpt>
<trkpt lat="57.686521" lon="10.502358">
<ele>6.210938</ele>
<time>2026-07-17T11:26:19.000Z</time>
</trkpt>
<trkpt lat="57.686571" lon="10.502295">
<ele>6.243879</ele>
<time>2026-07-17T11:26:20.000Z</time>
</trkpt>
<trkpt lat="57.686621" lon="10.502240">
<ele>6.275575</ele>
<time>2026-07-17T11:26:21.000Z</time>
</trkpt>
<trkpt lat="57.686675" lon="10.502196">
<ele>6.307760</ele>
<time>2026-07-17T11:26:22.000Z</time>
</trkpt>
<trkpt lat="57.686733" lon="10.502158">
<ele>6.341341</ele>
<time>2026-07-17T11:26:23.000Z</time>
</trkpt>
<trkpt lat="57.686793" lon="10.502123">
<ele>6.375685</ele>
<time>2026-07-17T11:26:24.000Z</time>
</trkpt>
<trkpt lat="57.686846" lon="10.502092">
<ele>6.406029</ele>
<time>2026-07-17T11:26:25.000Z</time>
</trkpt>
<trkpt lat="57.686899" lon="10.502059">
<ele>6.436552</ele>
<time>2026-07-17T11:26:26.000Z</time>
</trkpt>
<trkpt lat="57.686948" lon="10.502019">
<ele>6.465766</ele>
<time>2026-07-17T11:26:27.000Z</time>
</trkpt>
<trkpt lat="57.686993" lon="10.501965">
<ele>6.494980</ele>
<time>2026-07-17T11:26:28.000Z</time>
</trkpt>
<trkpt lat="57.687035" lon="10.501900">
<ele>6.524766</ele>
<time>2026-07-17T11:26:29.000Z</time>
</trkpt>
<trkpt lat="57.687073" lon="10.501828">
<ele>6.554320</ele>
<time>2026-07-17T11:26:30.000Z</time>
</trkpt>
<trkpt lat="57.687111" lon="10.501751">
<ele>6.584931</ele>
<time>2026-07-17T11:26:31.000Z</time>
</trkpt>
<trkpt lat="57.687150" lon="10.501673">
<ele>6.616128</ele>
<time>2026-07-17T11:26:32.000Z</time>
</trkpt>
<trkpt lat="57.687189" lon="10.501601">
<ele>6.646069</ele>
<time>2026-07-17T11:26:33.000Z</time>
</trkpt>
<trkpt lat="57.687234" lon="10.501544">
<ele>6.675766</ele>
<time>2026-07-17T11:26:34.000Z</time>
</trkpt>
<trkpt lat="57.687281" lon="10.501502">
<ele>6.704228</ele>
<time>2026-07-17T11:26:35.000Z</time>
</trkpt>
<trkpt lat="57.687334" lon="10.501475">
<ele>6.734244</ele>
<time>2026-07-17T11:26:36.000Z</time>
</trkpt>
<trkpt lat="57.687388" lon="10.501462">
<ele>6.763995</ele>
<time>2026-07-17T11:26:37.000Z</time>
</trkpt>
<trkpt lat="57.687441" lon="10.501458">
<ele>6.792980</ele>
<time>2026-07-17T11:26:38.000Z</time>
</trkpt>
<trkpt lat="57.687495" lon="10.501455">
<ele>6.822501</ele>
<time>2026-07-17T11:26:39.000Z</time>
</trkpt>
<trkpt lat="57.687552" lon="10.501451">
<ele>6.853670</ele>
<time>2026-07-17T11:26:40.000Z</time>
</trkpt>
<trkpt lat="57.687608" lon="10.501444">
<ele>6.884339</ele>
<time>2026-07-17T11:26:41.000Z</time>
</trkpt>
<trkpt lat="57.687662" lon="10.501432">
<ele>6.903497</ele>
<time>2026-07-17T11:26:42.000Z</time>
</trkpt>
<trkpt lat="57.687716" lon="10.501419">
<ele>6.913340</ele>
<time>2026-07-17T11:26:43.000Z</time>
</trkpt>
<trkpt lat="57.687769" lon="10.501408">
<ele>6.922980</ele>
<time>2026-07-17T11:26:44.000Z</time>
</trkpt>
<trkpt lat="57.687822" lon="10.501401">
<ele>6.932585</ele>
<time>2026-07-17T11:26:45.000Z</time>
</trkpt>
<trkpt lat="57.687876" lon="10.501398">
<ele>6.942351</ele>
<time>2026-07-17T11:26:46.000Z</time>
</trkpt>
<trkpt lat="57.687929" lon="10.501401">
<ele>6.951937</ele>
<time>2026-07-17T11:26:47.000Z</time>
</trkpt>
<trkpt lat="57.687983" lon="10.501408">
<ele>6.961722</ele>
<time>2026-07-17T11:26:48.000Z</time>
</trkpt>
<trkpt lat="57.688036" lon="10.501424">
<ele>6.971427</ele>
<time>2026-07-17T11:26:49.000Z</time>
</trkpt>
<trkpt lat="57.688093" lon="10.501447">
<ele>6.981968</ele>
<time>2026-07-17T11:26:50.000Z</time>
</trkpt>
<trkpt lat="57.688147" lon="10.501469">
<ele>6.991959</ele>
<time>2026-07-17T11:26:51.000Z</time>
</trkpt>
<trkpt lat="57.688205" lon="10.501492">
<ele>7.002677</ele>
<time>2026-07-17T11:26:52.000Z</time>
</trkpt>
<trkpt lat="57.688262" lon="10.501514">
<ele>7.013198</ele>
<time>2026-07-17T11:26:53.000Z</time>
</trkpt>
<trkpt lat="57.688323" lon="10.501538">
<ele>7.024467</ele>
<time>2026-07-17T11:26:54.000Z</time>
</trkpt>
<trkpt lat="57.688380" lon="10.501560">
<ele>7.034988</ele>
<time>2026-07-17T11:26:55.000Z</time>
</trkpt>
<trkpt lat="57.688437" lon="10.501580">
<ele>7.045472</ele>
<time>2026-07-17T11:26:56.000Z</time>
</trkpt>
<trkpt lat="57.688498" lon="10.501598">
<ele>7.056636</ele>
<time>2026-07-17T11:26:57.000Z</time>
</trkpt>
<trkpt lat="57.688555" lon="10.501616">
<ele>7.067086</ele>
<time>2026-07-17T11:26:58.000Z</time>
</trkpt>
<trkpt lat="57.688612" lon="10.501633">
<ele>7.077520</ele>
<time>2026-07-17T11:26:59.000Z</time>
</trkpt>
<trkpt lat="57.688670" lon="10.501648">
<ele>7.088105</ele>
<time>2026-07-17T11:27:00.000Z</time>
</trkpt>
<trkpt lat="57.688727" lon="10.501660">
<ele>7.098474</ele>
<time>2026-07-17T11:27:01.000Z</time>
</trkpt>
<trkpt lat="57.688780" lon="10.501676">
<ele>7.108179</ele>
<time>2026-07-17T11:27:02.000Z</time>
</trkpt>
<trkpt lat="57.688833" lon="10.501695">
<ele>7.117935</ele>
<time>2026-07-17T11:27:03.000Z</time>
</trkpt>
<trkpt lat="57.688887" lon="10.501719">
<ele>7.127968</ele>
<time>2026-07-17T11:27:04.000Z</time>
</trkpt>
<trkpt lat="57.688940" lon="10.501744">
<ele>7.137849</ele>
<time>2026-07-17T11:27:05.000Z</time>
</trkpt>
<trkpt lat="57.688991" lon="10.501772">
<ele>7.147458</ele>
<time>2026-07-17T11:27:06.000Z</time>
</trkpt>
<trkpt lat="57.689047" lon="10.501803">
<ele>7.158015</ele>
<time>2026-07-17T11:27:07.000Z</time>
</trkpt>
<trkpt lat="57.689104" lon="10.501835">
<ele>7.168773</ele>
<time>2026-07-17T11:27:08.000Z</time>
</trkpt>
<trkpt lat="57.689158" lon="10.501863">
<ele>7.178903</ele>
<time>2026-07-17T11:27:09.000Z</time>
</trkpt>
<trkpt lat="57.689214" lon="10.501893">
<ele>7.189434</ele>
<time>2026-07-17T11:27:10.000Z</time>
</trkpt>
<trkpt lat="57.689272" lon="10.501926">
<ele>7.200393</ele>
<time>2026-07-17T11:27:11.000Z</time>
</trkpt>
<trkpt lat="57.689326" lon="10.501961">
<ele>7.210724</ele>
<time>2026-07-17T11:27:12.000Z</time>
</trkpt>
<trkpt lat="57.689383" lon="10.501998">
<ele>7.221631</ele>
<time>2026-07-17T11:27:13.000Z</time>
</trkpt>
<trkpt lat="57.689436" lon="10.502035">
<ele>7.220590</ele>
<time>2026-07-17T11:27:14.000Z</time>
</trkpt>
<trkpt lat="57.689488" lon="10.502069">
<ele>7.217232</ele>
<time>2026-07-17T11:27:15.000Z</time>
</trkpt>
<trkpt lat="57.689550" lon="10.502109">
<ele>7.213235</ele>
<time>2026-07-17T11:27:16.000Z</time>
</trkpt>
<trkpt lat="57.689604" lon="10.502130">
<ele>7.209873</ele>
<time>2026-07-17T11:27:17.000Z</time>
</trkpt>
<trkpt lat="57.689658" lon="10.502135">
<ele>7.206577</ele>
<time>2026-07-17T11:27:18.000Z</time>
</trkpt>
<trkpt lat="57.689715" lon="10.502128">
<ele>7.203095</ele>
<time>2026-07-17T11:27:19.000Z</time>
</trkpt>
<trkpt lat="57.689770" lon="10.502115">
<ele>7.199716</ele>
<time>2026-07-17T11:27:20.000Z</time>
</trkpt>
<trkpt lat="57.689830" lon="10.502100">
<ele>7.196026</ele>
<time>2026-07-17T11:27:21.000Z</time>
</trkpt>
<trkpt lat="57.689886" lon="10.502080">
<ele>7.192551</ele>
<time>2026-07-17T11:27:22.000Z</time>
</trkpt>
<trkpt lat="57.689943" lon="10.502058">
<ele>7.189004</ele>
<time>2026-07-17T11:27:23.000Z</time>
</trkpt>
<trkpt lat="57.690002" lon="10.502037">
<ele>7.185343</ele>
<time>2026-07-17T11:27:24.000Z</time>
</trkpt>
<trkpt lat="57.690062" lon="10.502016">
<ele>7.181622</ele>
<time>2026-07-17T11:27:25.000Z</time>
</trkpt>
<trkpt lat="57.690118" lon="10.501995">
<ele>7.178141</ele>
<time>2026-07-17T11:27:26.000Z</time>
</trkpt>
<trkpt lat="57.690177" lon="10.501976">
<ele>7.174491</ele>
<time>2026-07-17T11:27:27.000Z</time>
</trkpt>
<trkpt lat="57.690234" lon="10.501956">
<ele>7.170956</ele>
<time>2026-07-17T11:27:28.000Z</time>
</trkpt>
<trkpt lat="57.690295" lon="10.501936">
<ele>7.167181</ele>
<time>2026-07-17T11:27:29.000Z</time>
</trkpt>
<trkpt lat="57.690353" lon="10.501918">
<ele>7.163598</ele>
<time>2026-07-17T11:27:30.000Z</time>
</trkpt>
<trkpt lat="57.690413" lon="10.501906">
<ele>7.159920</ele>
<time>2026-07-17T11:27:31.000Z</time>
</trkpt>
<trkpt lat="57.690471" lon="10.501900">
<ele>7.156379</ele>
<time>2026-07-17T11:27:32.000Z</time>
</trkpt>
<trkpt lat="57.690531" lon="10.501903">
<ele>7.152720</ele>
<time>2026-07-17T11:27:33.000Z</time>
</trkpt>
<trkpt lat="57.690589" lon="10.501914">
<ele>7.149167</ele>
<time>2026-07-17T11:27:34.000Z</time>
</trkpt>
<trkpt lat="57.690649" lon="10.501928">
<ele>7.145481</ele>
<time>2026-07-17T11:27:35.000Z</time>
</trkpt>
<trkpt lat="57.690706" lon="10.501945">
<ele>7.141963</ele>
<time>2026-07-17T11:27:36.000Z</time>
</trkpt>
<trkpt lat="57.690764" lon="10.501962">
<ele>7.138384</ele>
<time>2026-07-17T11:27:37.000Z</time>
</trkpt>
<trkpt lat="57.690821" lon="10.501985">
<ele>7.134830</ele>
<time>2026-07-17T11:27:38.000Z</time>
</trkpt>
<trkpt lat="57.690879" lon="10.502010">
<ele>7.131202</ele>
<time>2026-07-17T11:27:39.000Z</time>
</trkpt>
<trkpt lat="57.690939" lon="10.502041">
<ele>7.127408</ele>
<time>2026-07-17T11:27:40.000Z</time>
</trkpt>
<trkpt lat="57.690997" lon="10.502076">
<ele>7.123693</ele>
<time>2026-07-17T11:27:41.000Z</time>
</trkpt>
<trkpt lat="57.691054" lon="10.502116">
<ele>7.119982</ele>
<time>2026-07-17T11:27:42.000Z</time>
</trkpt>
<trkpt lat="57.691111" lon="10.502157">
<ele>7.116260</ele>
<time>2026-07-17T11:27:43.000Z</time>
</trkpt>
<trkpt lat="57.691164" lon="10.502207">
<ele>7.108000</ele>
<time>2026-07-17T11:27:44.000Z</time>
</trkpt>
<trkpt lat="57.691218" lon="10.502257">
<ele>7.089544</ele>
<time>2026-07-17T11:27:45.000Z</time>
</trkpt>
<trkpt lat="57.691271" lon="10.502306">
<ele>7.071436</ele>
<time>2026-07-17T11:27:46.000Z</time>
</trkpt>
<trkpt lat="57.691324" lon="10.502355">
<ele>7.053327</ele>
<time>2026-07-17T11:27:47.000Z</time>
</trkpt>
<trkpt lat="57.691374" lon="10.502403">
<ele>7.036113</ele>
<time>2026-07-17T11:27:48.000Z</time>
</trkpt>
<trkpt lat="57.691428" lon="10.502448">
<ele>7.018005</ele>
<time>2026-07-17T11:27:49.000Z</time>
</trkpt>
<trkpt lat="57.691481" lon="10.502491">
<ele>7.000310</ele>
<time>2026-07-17T11:27:50.000Z</time>
</trkpt>
<trkpt lat="57.691534" lon="10.502533">
<ele>6.982679</ele>
<time>2026-07-17T11:27:51.000Z</time>
</trkpt>
<trkpt lat="57.691588" lon="10.502576">
<ele>6.964702</ele>
<time>2026-07-17T11:27:52.000Z</time>
</trkpt>
<trkpt lat="57.691640" lon="10.502627">
<ele>6.946718</ele>
<time>2026-07-17T11:27:53.000Z</time>
</trkpt>
<trkpt lat="57.691690" lon="10.502692">
<ele>6.928068</ele>
<time>2026-07-17T11:27:54.000Z</time>
</trkpt>
<trkpt lat="57.691734" lon="10.502769">
<ele>6.909613</ele>
<time>2026-07-17T11:27:55.000Z</time>
</trkpt>
<trkpt lat="57.691773" lon="10.502853">
<ele>6.891396</ele>
<time>2026-07-17T11:27:56.000Z</time>
</trkpt>
<trkpt lat="57.691807" lon="10.502940">
<ele>6.873752</ele>
<time>2026-07-17T11:27:57.000Z</time>
</trkpt>
<trkpt lat="57.691841" lon="10.503030">
<ele>6.855708</ele>
<time>2026-07-17T11:27:58.000Z</time>
</trkpt>
<trkpt lat="57.691871" lon="10.503122">
<ele>6.838064</ele>
<time>2026-07-17T11:27:59.000Z</time>
</trkpt>
<trkpt lat="57.691901" lon="10.503217">
<ele>6.819999</ele>
<time>2026-07-17T11:28:00.000Z</time>
</trkpt>
<trkpt lat="57.691927" lon="10.503318">
<ele>6.801645</ele>
<time>2026-07-17T11:28:01.000Z</time>
</trkpt>
<trkpt lat="57.691950" lon="10.503425">
<ele>6.782764</ele>
<time>2026-07-17T11:28:02.000Z</time>
</trkpt>
<trkpt lat="57.691965" lon="10.503534">
<ele>6.764337</ele>
<time>2026-07-17T11:28:03.000Z</time>
</trkpt>
<trkpt lat="57.691980" lon="10.503641">
<ele>6.746226</ele>
<time>2026-07-17T11:28:04.000Z</time>
</trkpt>
<trkpt lat="57.691990" lon="10.503749">
<ele>6.728281</ele>
<time>2026-07-17T11:28:05.000Z</time>
</trkpt>
<trkpt lat="57.691994" lon="10.503859">
<ele>6.710231</ele>
<time>2026-07-17T11:28:06.000Z</time>
</trkpt>
<trkpt lat="57.691998" lon="10.503971">
<ele>6.691854</ele>
<time>2026-07-17T11:28:07.000Z</time>
</trkpt>
<trkpt lat="57.692007" lon="10.504078">
<ele>6.674120</ele>
<time>2026-07-17T11:28:08.000Z</time>
</trkpt>
<trkpt lat="57.692024" lon="10.504179">
<ele>6.656784</ele>
<time>2026-07-17T11:28:09.000Z</time>
</trkpt>
<trkpt lat="57.692056" lon="10.504258">
<ele>6.640556</ele>
<time>2026-07-17T11:28:10.000Z</time>
</trkpt>
<trkpt lat="57.692102" lon="10.504302">
<ele>6.624731</ele>
<time>2026-07-17T11:28:11.000Z</time>
</trkpt>
<trkpt lat="57.692151" lon="10.504319">
<ele>6.609465</ele>
<time>2026-07-17T11:28:12.000Z</time>
</trkpt>
<trkpt lat="57.692196" lon="10.504305">
<ele>6.595492</ele>
<time>2026-07-17T11:28:13.000Z</time>
</trkpt>
<trkpt lat="57.692241" lon="10.504256">
<ele>6.579543</ele>
<time>2026-07-17T11:28:14.000Z</time>
</trkpt>
<trkpt lat="57.692272" lon="10.504182">
<ele>6.564150</ele>
<time>2026-07-17T11:28:15.000Z</time>
</trkpt>
<trkpt lat="57.692303" lon="10.504106">
<ele>6.586514</ele>
<time>2026-07-17T11:28:16.000Z</time>
</trkpt>
<trkpt lat="57.692342" lon="10.504039">
<ele>6.613285</ele>
<time>2026-07-17T11:28:17.000Z</time>
</trkpt>
<trkpt lat="57.692382" lon="10.503989">
<ele>6.637608</ele>
<time>2026-07-17T11:28:18.000Z</time>
</trkpt>
<trkpt lat="57.692430" lon="10.503949">
<ele>6.664175</ele>
<time>2026-07-17T11:28:19.000Z</time>
</trkpt>
<trkpt lat="57.692484" lon="10.503925">
<ele>6.692238</ele>
<time>2026-07-17T11:28:20.000Z</time>
</trkpt>
<trkpt lat="57.692538" lon="10.503914">
<ele>6.719703</ele>
<time>2026-07-17T11:28:21.000Z</time>
</trkpt>
<trkpt lat="57.692596" lon="10.503910">
<ele>6.749049</ele>
<time>2026-07-17T11:28:22.000Z</time>
</trkpt>
<trkpt lat="57.692653" lon="10.503913">
<ele>6.777880</ele>
<time>2026-07-17T11:28:23.000Z</time>
</trkpt>
<trkpt lat="57.692710" lon="10.503919">
<ele>6.806746</ele>
<time>2026-07-17T11:28:24.000Z</time>
</trkpt>
<trkpt lat="57.692771" lon="10.503920">
<ele>6.837589</ele>
<time>2026-07-17T11:28:25.000Z</time>
</trkpt>
<trkpt lat="57.692828" lon="10.503920">
<ele>6.866409</ele>
<time>2026-07-17T11:28:26.000Z</time>
</trkpt>
<trkpt lat="57.692889" lon="10.503920">
<ele>6.897252</ele>
<time>2026-07-17T11:28:27.000Z</time>
</trkpt>
<trkpt lat="57.692944" lon="10.503922">
<ele>6.925066</ele>
<time>2026-07-17T11:28:28.000Z</time>
</trkpt>
<trkpt lat="57.693003" lon="10.503924">
<ele>6.954902</ele>
<time>2026-07-17T11:28:29.000Z</time>
</trkpt>
<trkpt lat="57.693060" lon="10.503927">
<ele>6.983734</ele>
<time>2026-07-17T11:28:30.000Z</time>
</trkpt>
<trkpt lat="57.693114" lon="10.503933">
<ele>7.011085</ele>
<time>2026-07-17T11:28:31.000Z</time>
</trkpt>
<trkpt lat="57.693170" lon="10.503947">
<ele>7.039651</ele>
<time>2026-07-17T11:28:32.000Z</time>
</trkpt>
<trkpt lat="57.693224" lon="10.503968">
<ele>7.067538</ele>
<time>2026-07-17T11:28:33.000Z</time>
</trkpt>
<trkpt lat="57.693278" lon="10.503991">
<ele>7.095540</ele>
<time>2026-07-17T11:28:34.000Z</time>
</trkpt>
<trkpt lat="57.693331" lon="10.504018">
<ele>7.123313</ele>
<time>2026-07-17T11:28:35.000Z</time>
</trkpt>
<trkpt lat="57.693384" lon="10.504044">
<ele>7.151016</ele>
<time>2026-07-17T11:28:36.000Z</time>
</trkpt>
<trkpt lat="57.693438" lon="10.504067">
<ele>7.179018</ele>
<time>2026-07-17T11:28:37.000Z</time>
</trkpt>
<trkpt lat="57.693492" lon="10.504088">
<ele>7.206904</ele>
<time>2026-07-17T11:28:38.000Z</time>
</trkpt>
<trkpt lat="57.693548" lon="10.504103">
<ele>7.235508</ele>
<time>2026-07-17T11:28:39.000Z</time>
</trkpt>
<trkpt lat="57.693601" lon="10.504116">
<ele>7.262534</ele>
<time>2026-07-17T11:28:40.000Z</time>
</trkpt>
<trkpt lat="57.693660" lon="10.504124">
<ele>7.292444</ele>
<time>2026-07-17T11:28:41.000Z</time>
</trkpt>
<trkpt lat="57.693721" lon="10.504131">
<ele>7.323344</ele>
<time>2026-07-17T11:28:42.000Z</time>
</trkpt>
<trkpt lat="57.693781" lon="10.504137">
<ele>7.353725</ele>
<time>2026-07-17T11:28:43.000Z</time>
</trkpt>
<trkpt lat="57.693838" lon="10.504138">
<ele>7.382546</ele>
<time>2026-07-17T11:28:44.000Z</time>
</trkpt>
<trkpt lat="57.693896" lon="10.504136">
<ele>7.411877</ele>
<time>2026-07-17T11:28:45.000Z</time>
</trkpt>
<trkpt lat="57.693953" lon="10.504127">
<ele>7.440799</ele>
<time>2026-07-17T11:28:46.000Z</time>
</trkpt>
<trkpt lat="57.694010" lon="10.504111">
<ele>7.469942</ele>
<time>2026-07-17T11:28:47.000Z</time>
</trkpt>
<trkpt lat="57.694063" lon="10.504087">
<ele>7.453229</ele>
<time>2026-07-17T11:28:48.000Z</time>
</trkpt>
<trkpt lat="57.694108" lon="10.504059">
<ele>7.435156</ele>
<time>2026-07-17T11:28:49.000Z</time>
</trkpt>
<trkpt lat="57.694149" lon="10.504032">
<ele>7.418590</ele>
<time>2026-07-17T11:28:50.000Z</time>
</trkpt>
<trkpt lat="57.694183" lon="10.504003">
<ele>7.404350</ele>
<time>2026-07-17T11:28:51.000Z</time>
</trkpt>
<trkpt lat="57.694218" lon="10.503975">
<ele>7.389843</ele>
<time>2026-07-17T11:28:52.000Z</time>
</trkpt>
<trkpt lat="57.694256" lon="10.503955">
<ele>7.374798</ele>
<time>2026-07-17T11:28:53.000Z</time>
</trkpt>
<trkpt lat="57.694296" lon="10.503943">
<ele>7.359359</ele>
<time>2026-07-17T11:28:54.000Z</time>
</trkpt>
<trkpt lat="57.694345" lon="10.503939">
<ele>7.340667</ele>
<time>2026-07-17T11:28:55.000Z</time>
</trkpt>
<trkpt lat="57.694392" lon="10.503946">
<ele>7.322698</ele>
<time>2026-07-17T11:28:56.000Z</time>
</trkpt>
<trkpt lat="57.694441" lon="10.503960">
<ele>7.303807</ele>
<time>2026-07-17T11:28:57.000Z</time>
</trkpt>
<trkpt lat="57.694489" lon="10.503993">
<ele>7.284318</ele>
<time>2026-07-17T11:28:58.000Z</time>
</trkpt>
<trkpt lat="57.694532" lon="10.504034">
<ele>7.265925</ele>
<time>2026-07-17T11:28:59.000Z</time>
</trkpt>
<trkpt lat="57.694590" lon="10.504084">
<ele>7.241587</ele>
<time>2026-07-17T11:29:00.000Z</time>
</trkpt>
<trkpt lat="57.694647" lon="10.504128">
<ele>7.218088</ele>
<time>2026-07-17T11:29:01.000Z</time>
</trkpt>
<trkpt lat="57.694709" lon="10.504169">
<ele>7.193027</ele>
<time>2026-07-17T11:29:02.000Z</time>
</trkpt>
<trkpt lat="57.694770" lon="10.504206">
<ele>7.168588</ele>
<time>2026-07-17T11:29:03.000Z</time>
</trkpt>
<trkpt lat="57.694830" lon="10.504246">
<ele>7.144313</ele>
<time>2026-07-17T11:29:04.000Z</time>
</trkpt>
<trkpt lat="57.694889" lon="10.504284">
<ele>7.120532</ele>
<time>2026-07-17T11:29:05.000Z</time>
</trkpt>
<trkpt lat="57.694950" lon="10.504313">
<ele>7.096546</ele>
<time>2026-07-17T11:29:06.000Z</time>
</trkpt>
<trkpt lat="57.695013" lon="10.504341">
<ele>7.071868</ele>
<time>2026-07-17T11:29:07.000Z</time>
</trkpt>
<trkpt lat="57.695069" lon="10.504365">
<ele>7.049973</ele>
<time>2026-07-17T11:29:08.000Z</time>
</trkpt>
<trkpt lat="57.695110" lon="10.504398">
<ele>7.032963</ele>
<time>2026-07-17T11:29:09.000Z</time>
</trkpt>
<trkpt lat="57.695134" lon="10.504454">
<ele>7.018343</ele>
<time>2026-07-17T11:29:10.000Z</time>
</trkpt>
<trkpt lat="57.695142" lon="10.504529">
<ele>7.002766</ele>
<time>2026-07-17T11:29:11.000Z</time>
</trkpt>
<trkpt lat="57.695149" lon="10.504609">
<ele>6.986254</ele>
<time>2026-07-17T11:29:12.000Z</time>
</trkpt>
<trkpt lat="57.695156" lon="10.504697">
<ele>6.968134</ele>
<time>2026-07-17T11:29:13.000Z</time>
</trkpt>
<trkpt lat="57.695161" lon="10.504785">
<ele>6.950109</ele>
<time>2026-07-17T11:29:14.000Z</time>
</trkpt>
<trkpt lat="57.695168" lon="10.504877">
<ele>6.931182</ele>
<time>2026-07-17T11:29:15.000Z</time>
</trkpt>
<trkpt lat="57.695176" lon="10.504965">
<ele>6.913001</ele>
<time>2026-07-17T11:29:16.000Z</time>
</trkpt>
<trkpt lat="57.695183" lon="10.505052">
<ele>6.895081</ele>
<time>2026-07-17T11:29:17.000Z</time>
</trkpt>
<trkpt lat="57.695187" lon="10.505142">
<ele>6.876687</ele>
<time>2026-07-17T11:29:18.000Z</time>
</trkpt>
<trkpt lat="57.695187" lon="10.505233">
<ele>6.858153</ele>
<time>2026-07-17T11:29:19.000Z</time>
</trkpt>
<trkpt lat="57.695191" lon="10.505329">
<ele>6.838541</ele>
<time>2026-07-17T11:29:20.000Z</time>
</trkpt>
<trkpt lat="57.695195" lon="10.505419">
<ele>6.820147</ele>
<time>2026-07-17T11:29:21.000Z</time>
</trkpt>
<trkpt lat="57.695202" lon="10.505522">
<ele>6.798999</ele>
<time>2026-07-17T11:29:22.000Z</time>
</trkpt>
<trkpt lat="57.695202" lon="10.505619">
<ele>6.776898</ele>
<time>2026-07-17T11:29:23.000Z</time>
</trkpt>
<trkpt lat="57.695202" lon="10.505721">
<ele>6.749656</ele>
<time>2026-07-17T11:29:24.000Z</time>
</trkpt>
<trkpt lat="57.695202" lon="10.505822">
<ele>6.722682</ele>
<time>2026-07-17T11:29:25.000Z</time>
</trkpt>
<trkpt lat="57.695202" lon="10.505924">
<ele>6.695441</ele>
<time>2026-07-17T11:29:26.000Z</time>
</trkpt>
<trkpt lat="57.695202" lon="10.506025">
<ele>6.668466</ele>
<time>2026-07-17T11:29:27.000Z</time>
</trkpt>
<trkpt lat="57.695206" lon="10.506127">
<ele>6.641152</ele>
<time>2026-07-17T11:29:28.000Z</time>
</trkpt>
<trkpt lat="57.695206" lon="10.506229">
<ele>6.613910</ele>
<time>2026-07-17T11:29:29.000Z</time>
</trkpt>
<trkpt lat="57.695206" lon="10.506331">
<ele>6.586669</ele>
<time>2026-07-17T11:29:30.000Z</time>
</trkpt>
<trkpt lat="57.695210" lon="10.506429">
<ele>6.560420</ele>
<time>2026-07-17T11:29:31.000Z</time>
</trkpt>
<trkpt lat="57.695210" lon="10.506538">
<ele>6.531309</ele>
<time>2026-07-17T11:29:32.000Z</time>
</trkpt>
<trkpt lat="57.695214" lon="10.506633">
<ele>6.505858</ele>
<time>2026-07-17T11:29:33.000Z</time>
</trkpt>
<trkpt lat="57.695223" lon="10.506723">
<ele>6.481405</ele>
<time>2026-07-17T11:29:34.000Z</time>
</trkpt>
<trkpt lat="57.695238" lon="10.506808">
<ele>6.457498</ele>
<time>2026-07-17T11:29:35.000Z</time>
</trkpt>
<trkpt lat="57.695258" lon="10.506890">
<ele>6.433425</ele>
<time>2026-07-17T11:29:36.000Z</time>
</trkpt>
<trkpt lat="57.695286" lon="10.506967">
<ele>6.408551</ele>
<time>2026-07-17T11:29:37.000Z</time>
</trkpt>
<trkpt lat="57.695320" lon="10.507037">
<ele>6.383289</ele>
<time>2026-07-17T11:29:38.000Z</time>
</trkpt>
<trkpt lat="57.695355" lon="10.507099">
<ele>6.359203</ele>
<time>2026-07-17T11:29:39.000Z</time>
</trkpt>
<trkpt lat="57.695397" lon="10.507148">
<ele>6.334469</ele>
<time>2026-07-17T11:29:40.000Z</time>
</trkpt>
<trkpt lat="57.695433" lon="10.507194">
<ele>6.312683</ele>
<time>2026-07-17T11:29:41.000Z</time>
</trkpt>
<trkpt lat="57.695473" lon="10.507232">
<ele>6.290265</ele>
<time>2026-07-17T11:29:42.000Z</time>
</trkpt>
<trkpt lat="57.695507" lon="10.507267">
<ele>6.270873</ele>
<time>2026-07-17T11:29:43.000Z</time>
</trkpt>
<trkpt lat="57.695546" lon="10.507300">
<ele>6.249483</ele>
<time>2026-07-17T11:29:44.000Z</time>
</trkpt>
<trkpt lat="57.695587" lon="10.507328">
<ele>6.227671</ele>
<time>2026-07-17T11:29:45.000Z</time>
</trkpt>
<trkpt lat="57.695621" lon="10.507356">
<ele>6.209107</ele>
<time>2026-07-17T11:29:46.000Z</time>
</trkpt>
<trkpt lat="57.695663" lon="10.507384">
<ele>6.186826</ele>
<time>2026-07-17T11:29:47.000Z</time>
</trkpt>
<trkpt lat="57.695695" lon="10.507404">
<ele>6.169966</ele>
<time>2026-07-17T11:29:48.000Z</time>
</trkpt>
<trkpt lat="57.695741" lon="10.507434">
<ele>6.145622</ele>
<time>2026-07-17T11:29:49.000Z</time>
</trkpt>
<trkpt lat="57.695782" lon="10.507466">
<ele>6.123421</ele>
<time>2026-07-17T11:29:50.000Z</time>
</trkpt>
<trkpt lat="57.695828" lon="10.507502">
<ele>6.098504</ele>
<time>2026-07-17T11:29:51.000Z</time>
</trkpt>
<trkpt lat="57.695874" lon="10.507533">
<ele>6.074070</ele>
<time>2026-07-17T11:29:52.000Z</time>
</trkpt>
<trkpt lat="57.695915" lon="10.507556">
<ele>6.052680</ele>
<time>2026-07-17T11:29:53.000Z</time>
</trkpt>
<trkpt lat="57.695946" lon="10.507579">
<ele>6.036015</ele>
<time>2026-07-17T11:29:54.000Z</time>
</trkpt>
<trkpt lat="57.695981" lon="10.507616">
<ele>6.015926</ele>
<time>2026-07-17T11:29:55.000Z</time>
</trkpt>
<trkpt lat="57.696024" lon="10.507671">
<ele>5.989896</ele>
<time>2026-07-17T11:29:56.000Z</time>
</trkpt>
<trkpt lat="57.696069" lon="10.507730">
<ele>5.962437</ele>
<time>2026-07-17T11:29:57.000Z</time>
</trkpt>
<trkpt lat="57.696116" lon="10.507805">
<ele>5.931569</ele>
<time>2026-07-17T11:29:58.000Z</time>
</trkpt>
<trkpt lat="57.696169" lon="10.507885">
<ele>5.897539</ele>
<time>2026-07-17T11:29:59.000Z</time>
</trkpt>
<trkpt lat="57.696218" lon="10.507974">
<ele>5.884173</ele>
<time>2026-07-17T11:30:00.000Z</time>
</trkpt>
<trkpt lat="57.696262" lon="10.508067">
<ele>5.879098</ele>
<time>2026-07-17T11:30:01.000Z</time>
</trkpt>
<trkpt lat="57.696296" lon="10.508173">
<ele>5.874047</ele>
<time>2026-07-17T11:30:02.000Z</time>
</trkpt>
<trkpt lat="57.696323" lon="10.508291">
<ele>5.868803</ele>
<time>2026-07-17T11:30:03.000Z</time>
</trkpt>
<trkpt lat="57.696349" lon="10.508410">
<ele>5.863550</ele>
<time>2026-07-17T11:30:04.000Z</time>
</trkpt>
<trkpt lat="57.696372" lon="10.508533">
<ele>5.858226</ele>
<time>2026-07-17T11:30:05.000Z</time>
</trkpt>
<trkpt lat="57.696394" lon="10.508635">
<ele>5.853733</ele>
<time>2026-07-17T11:30:06.000Z</time>
</trkpt>
<trkpt lat="57.696416" lon="10.508734">
<ele>5.849352</ele>
<time>2026-07-17T11:30:07.000Z</time>
</trkpt>
<trkpt lat="57.696433" lon="10.508830">
<ele>5.845220</ele>
<time>2026-07-17T11:30:08.000Z</time>
</trkpt>
<trkpt lat="57.696456" lon="10.508925">
<ele>5.840959</ele>
<time>2026-07-17T11:30:09.000Z</time>
</trkpt>
<trkpt lat="57.696488" lon="10.509018">
<ele>5.836440</ele>
<time>2026-07-17T11:30:10.000Z</time>
</trkpt>
<trkpt lat="57.696526" lon="10.509091">
<ele>5.832277</ele>
<time>2026-07-17T11:30:11.000Z</time>
</trkpt>
<trkpt lat="57.696565" lon="10.509161">
<ele>5.828145</ele>
<time>2026-07-17T11:30:12.000Z</time>
</trkpt>
<trkpt lat="57.696607" lon="10.509224">
<ele>5.824030</ele>
<time>2026-07-17T11:30:13.000Z</time>
</trkpt>
<trkpt lat="57.696648" lon="10.509286">
<ele>5.820000</ele>
<time>2026-07-17T11:30:14.000Z</time>
</trkpt>
<trkpt lat="57.696682" lon="10.509333">
<ele>5.816768</ele>
<time>2026-07-17T11:30:15.000Z</time>
</trkpt>
<trkpt lat="57.696721" lon="10.509384">
<ele>5.813131</ele>
<time>2026-07-17T11:30:16.000Z</time>
</trkpt>
<trkpt lat="57.696762" lon="10.509433">
<ele>5.809411</ele>
<time>2026-07-17T11:30:17.000Z</time>
</trkpt>
<trkpt lat="57.696797" lon="10.509482">
<ele>5.806070</ele>
<time>2026-07-17T11:30:18.000Z</time>
</trkpt>
<trkpt lat="57.696835" lon="10.509531">
<ele>5.802542</ele>
<time>2026-07-17T11:30:19.000Z</time>
</trkpt>
<trkpt lat="57.696876" lon="10.509570">
<ele>5.799025</ele>
<time>2026-07-17T11:30:20.000Z</time>
</trkpt>
<trkpt lat="57.696917" lon="10.509610">
<ele>5.795490</ele>
<time>2026-07-17T11:30:21.000Z</time>
</trkpt>
<trkpt lat="57.696973" lon="10.509663">
<ele>5.790693</ele>
<time>2026-07-17T11:30:22.000Z</time>
</trkpt>
<trkpt lat="57.697017" lon="10.509711">
<ele>5.786799</ele>
<time>2026-07-17T11:30:23.000Z</time>
</trkpt>
<trkpt lat="57.697069" lon="10.509773">
<ele>5.782085</ele>
<time>2026-07-17T11:30:24.000Z</time>
</trkpt>
<trkpt lat="57.697121" lon="10.509839">
<ele>5.777282</ele>
<time>2026-07-17T11:30:25.000Z</time>
</trkpt>
<trkpt lat="57.697164" lon="10.509892">
<ele>5.773345</ele>
<time>2026-07-17T11:30:26.000Z</time>
</trkpt>
<trkpt lat="57.697213" lon="10.509951">
<ele>5.768891</ele>
<time>2026-07-17T11:30:27.000Z</time>
</trkpt>
<trkpt lat="57.697259" lon="10.510013">
<ele>5.764557</ele>
<time>2026-07-17T11:30:28.000Z</time>
</trkpt>
<trkpt lat="57.697303" lon="10.510072">
<ele>5.760418</ele>
<time>2026-07-17T11:30:29.000Z</time>
</trkpt>
<trkpt lat="57.697343" lon="10.510122">
<ele>5.756741</ele>
<time>2026-07-17T11:30:30.000Z</time>
</trkpt>
<trkpt lat="57.697389" lon="10.510171">
<ele>5.752694</ele>
<time>2026-07-17T11:30:31.000Z</time>
</trkpt>
<trkpt lat="57.697434" lon="10.510222">
<ele>5.746879</ele>
<time>2026-07-17T11:30:32.000Z</time>
</trkpt>
<trkpt lat="57.697476" lon="10.510277">
<ele>5.738926</ele>
<time>2026-07-17T11:30:33.000Z</time>
</trkpt>
<trkpt lat="57.697517" lon="10.510330">
<ele>5.731196</ele>
<time>2026-07-17T11:30:34.000Z</time>
</trkpt>
<trkpt lat="57.697564" lon="10.510381">
<ele>5.722768</ele>
<time>2026-07-17T11:30:35.000Z</time>
</trkpt>
<trkpt lat="57.697610" lon="10.510444">
<ele>5.713925</ele>
<time>2026-07-17T11:30:36.000Z</time>
</trkpt>
<trkpt lat="57.697650" lon="10.510495">
<ele>5.706416</ele>
<time>2026-07-17T11:30:37.000Z</time>
</trkpt>
<trkpt lat="57.697691" lon="10.510537">
<ele>5.699165</ele>
<time>2026-07-17T11:30:38.000Z</time>
</trkpt>
<trkpt lat="57.697736" lon="10.510583">
<ele>5.691210</ele>
<time>2026-07-17T11:30:39.000Z</time>
</trkpt>
<trkpt lat="57.697781" lon="10.510622">
<ele>5.683517</ele>
<time>2026-07-17T11:30:40.000Z</time>
</trkpt>
<trkpt lat="57.697828" lon="10.510664">
<ele>5.675437</ele>
<time>2026-07-17T11:30:41.000Z</time>
</trkpt>
<trkpt lat="57.697877" lon="10.510717">
<ele>5.666658</ele>
<time>2026-07-17T11:30:42.000Z</time>
</trkpt>
<trkpt lat="57.697926" lon="10.510773">
<ele>5.657751</ele>
<time>2026-07-17T11:30:43.000Z</time>
</trkpt>
<trkpt lat="57.697976" lon="10.510827">
<ele>5.648795</ele>
<time>2026-07-17T11:30:44.000Z</time>
</trkpt>
<trkpt lat="57.698023" lon="10.510881">
<ele>5.640239</ele>
<time>2026-07-17T11:30:45.000Z</time>
</trkpt>
<trkpt lat="57.698072" lon="10.510933">
<ele>5.631501</ele>
<time>2026-07-17T11:30:46.000Z</time>
</trkpt>
<trkpt lat="57.698121" lon="10.510996">
<ele>5.622278</ele>
<time>2026-07-17T11:30:47.000Z</time>
</trkpt>
<trkpt lat="57.698162" lon="10.511049">
<ele>5.614548</ele>
<time>2026-07-17T11:30:48.000Z</time>
</trkpt>
<trkpt lat="57.698201" lon="10.511108">
<ele>5.606768</ele>
<time>2026-07-17T11:30:49.000Z</time>
</trkpt>
<trkpt lat="57.698243" lon="10.511171">
<ele>5.598417</ele>
<time>2026-07-17T11:30:50.000Z</time>
</trkpt>
<trkpt lat="57.698285" lon="10.511232">
<ele>5.590170</ele>
<time>2026-07-17T11:30:51.000Z</time>
</trkpt>
<trkpt lat="57.698331" lon="10.511291">
<ele>5.581519</ele>
<time>2026-07-17T11:30:52.000Z</time>
</trkpt>
<trkpt lat="57.698376" lon="10.511341">
<ele>5.573400</ele>
<time>2026-07-17T11:30:53.000Z</time>
</trkpt>
<trkpt lat="57.698418" lon="10.511394">
<ele>5.565541</ele>
<time>2026-07-17T11:30:54.000Z</time>
</trkpt>
<trkpt lat="57.698465" lon="10.511446">
<ele>5.557071</ele>
<time>2026-07-17T11:30:55.000Z</time>
</trkpt>
<trkpt lat="57.698515" lon="10.511492">
<ele>5.548428</ele>
<time>2026-07-17T11:30:56.000Z</time>
</trkpt>
<trkpt lat="57.698565" lon="10.511527">
<ele>5.540147</ele>
<time>2026-07-17T11:30:57.000Z</time>
</trkpt>
<trkpt lat="57.698622" lon="10.511561">
<ele>5.530866</ele>
<time>2026-07-17T11:30:58.000Z</time>
</trkpt>
<trkpt lat="57.698676" lon="10.511587">
<ele>5.522216</ele>
<time>2026-07-17T11:30:59.000Z</time>
</trkpt>
<trkpt lat="57.698734" lon="10.511616">
<ele>5.512903</ele>
<time>2026-07-17T11:31:00.000Z</time>
</trkpt>
<trkpt lat="57.698798" lon="10.511641">
<ele>5.502760</ele>
<time>2026-07-17T11:31:01.000Z</time>
</trkpt>
<trkpt lat="57.698856" lon="10.511666">
<ele>5.493527</ele>
<time>2026-07-17T11:31:02.000Z</time>
</trkpt>
<trkpt lat="57.698916" lon="10.511692">
<ele>5.483973</ele>
<time>2026-07-17T11:31:03.000Z</time>
</trkpt>
<trkpt lat="57.698973" lon="10.511712">
<ele>5.474976</ele>
<time>2026-07-17T11:31:04.000Z</time>
</trkpt>
<trkpt lat="57.699026" lon="10.511725">
<ele>5.462332</ele>
<time>2026-07-17T11:31:05.000Z</time>
</trkpt>
<trkpt lat="57.699080" lon="10.511740">
<ele>5.446029</ele>
<time>2026-07-17T11:31:06.000Z</time>
</trkpt>
<trkpt lat="57.699141" lon="10.511767">
<ele>5.427311</ele>
<time>2026-07-17T11:31:07.000Z</time>
</trkpt>
<trkpt lat="57.699195" lon="10.511790">
<ele>5.410772</ele>
<time>2026-07-17T11:31:08.000Z</time>
</trkpt>
<trkpt lat="57.699247" lon="10.511816">
<ele>5.394699</ele>
<time>2026-07-17T11:31:09.000Z</time>
</trkpt>
<trkpt lat="57.699300" lon="10.511847">
<ele>5.378117</ele>
<time>2026-07-17T11:31:10.000Z</time>
</trkpt>
<trkpt lat="57.699349" lon="10.511874">
<ele>5.362863</ele>
<time>2026-07-17T11:31:11.000Z</time>
</trkpt>
<trkpt lat="57.699399" lon="10.511916">
<ele>5.346497</ele>
<time>2026-07-17T11:31:12.000Z</time>
</trkpt>
<trkpt lat="57.699451" lon="10.511970">
<ele>5.328737</ele>
<time>2026-07-17T11:31:13.000Z</time>
</trkpt>
<trkpt lat="57.699507" lon="10.512037">
<ele>5.308889</ele>
<time>2026-07-17T11:31:14.000Z</time>
</trkpt>
<trkpt lat="57.699560" lon="10.512107">
<ele>5.289517</ele>
<time>2026-07-17T11:31:15.000Z</time>
</trkpt>
<trkpt lat="57.699613" lon="10.512179">
<ele>5.269959</ele>
<time>2026-07-17T11:31:16.000Z</time>
</trkpt>
<trkpt lat="57.699670" lon="10.512255">
<ele>5.249059</ele>
<time>2026-07-17T11:31:17.000Z</time>
</trkpt>
<trkpt lat="57.699721" lon="10.512328">
<ele>5.229885</ele>
<time>2026-07-17T11:31:18.000Z</time>
</trkpt>
<trkpt lat="57.699774" lon="10.512398">
<ele>5.210513</ele>
<time>2026-07-17T11:31:19.000Z</time>
</trkpt>
<trkpt lat="57.699827" lon="10.512466">
<ele>5.191323</ele>
<time>2026-07-17T11:31:20.000Z</time>
</trkpt>
<trkpt lat="57.699879" lon="10.512525">
<ele>5.173163</ele>
<time>2026-07-17T11:31:21.000Z</time>
</trkpt>
<trkpt lat="57.699934" lon="10.512592">
<ele>5.153566</ele>
<time>2026-07-17T11:31:22.000Z</time>
</trkpt>
<trkpt lat="57.699992" lon="10.512664">
<ele>5.132781</ele>
<time>2026-07-17T11:31:23.000Z</time>
</trkpt>
<trkpt lat="57.700048" lon="10.512735">
<ele>5.112582</ele>
<time>2026-07-17T11:31:24.000Z</time>
</trkpt>
<trkpt lat="57.700091" lon="10.512795">
<ele>5.096564</ele>
<time>2026-07-17T11:31:25.000Z</time>
</trkpt>
<trkpt lat="57.700139" lon="10.512864">
<ele>5.078490</ele>
<time>2026-07-17T11:31:26.000Z</time>
</trkpt>
<trkpt lat="57.700182" lon="10.512935">
<ele>5.061365</ele>
<time>2026-07-17T11:31:27.000Z</time>
</trkpt>
<trkpt lat="57.700228" lon="10.513003">
<ele>5.043860</ele>
<time>2026-07-17T11:31:28.000Z</time>
</trkpt>
<trkpt lat="57.700275" lon="10.513074">
<ele>5.025822</ele>
<time>2026-07-17T11:31:29.000Z</time>
</trkpt>
<trkpt lat="57.700327" lon="10.513144">
<ele>5.006694</ele>
<time>2026-07-17T11:31:30.000Z</time>
</trkpt>
<trkpt lat="57.700376" lon="10.513210">
<ele>4.988665</ele>
<time>2026-07-17T11:31:31.000Z</time>
</trkpt>
<trkpt lat="57.700421" lon="10.513285">
<ele>4.970670</ele>
<time>2026-07-17T11:31:32.000Z</time>
</trkpt>
<trkpt lat="57.700467" lon="10.513362">
<ele>4.952240</ele>
<time>2026-07-17T11:31:33.000Z</time>
</trkpt>
<trkpt lat="57.700509" lon="10.513433">
<ele>4.935338</ele>
<time>2026-07-17T11:31:34.000Z</time>
</trkpt>
<trkpt lat="57.700551" lon="10.513507">
<ele>4.930042</ele>
<time>2026-07-17T11:31:35.000Z</time>
</trkpt>
<trkpt lat="57.700592" lon="10.513583">
<ele>4.925536</ele>
<time>2026-07-17T11:31:36.000Z</time>
</trkpt>
<trkpt lat="57.700634" lon="10.513664">
<ele>4.920826</ele>
<time>2026-07-17T11:31:37.000Z</time>
</trkpt>
<trkpt lat="57.700677" lon="10.513743">
<ele>4.916121</ele>
<time>2026-07-17T11:31:38.000Z</time>
</trkpt>
<trkpt lat="57.700722" lon="10.513817">
<ele>4.911443</ele>
<time>2026-07-17T11:31:39.000Z</time>
</trkpt>
<trkpt lat="57.700764" lon="10.513890">
<ele>4.906967</ele>
<time>2026-07-17T11:31:40.000Z</time>
</trkpt>
<trkpt lat="57.700805" lon="10.513956">
<ele>4.902744</ele>
<time>2026-07-17T11:31:41.000Z</time>
</trkpt>
<trkpt lat="57.700848" lon="10.514026">
<ele>4.898294</ele>
<time>2026-07-17T11:31:42.000Z</time>
</trkpt>
<trkpt lat="57.700886" lon="10.514089">
<ele>4.894330</ele>
<time>2026-07-17T11:31:43.000Z</time>
</trkpt>
<trkpt lat="57.700927" lon="10.514148">
<ele>4.890291</ele>
<time>2026-07-17T11:31:44.000Z</time>
</trkpt>
<trkpt lat="57.700965" lon="10.514207">
<ele>4.886435</ele>
<time>2026-07-17T11:31:45.000Z</time>
</trkpt>
<trkpt lat="57.701001" lon="10.514264">
<ele>4.882753</ele>
<time>2026-07-17T11:31:46.000Z</time>
</trkpt>
<trkpt lat="57.701039" lon="10.514318">
<ele>4.879027</ele>
<time>2026-07-17T11:31:47.000Z</time>
</trkpt>
<trkpt lat="57.701081" lon="10.514375">
<ele>4.874976</ele>
<time>2026-07-17T11:31:48.000Z</time>
</trkpt>
<trkpt lat="57.701122" lon="10.514438">
<ele>4.870834</ele>
<time>2026-07-17T11:31:49.000Z</time>
</trkpt>
<trkpt lat="57.701160" lon="10.514507">
<ele>4.866699</ele>
<time>2026-07-17T11:31:50.000Z</time>
</trkpt>
<trkpt lat="57.701197" lon="10.514573">
<ele>4.862708</ele>
<time>2026-07-17T11:31:51.000Z</time>
</trkpt>
<trkpt lat="57.701240" lon="10.514637">
<ele>4.858418</ele>
<time>2026-07-17T11:31:52.000Z</time>
</trkpt>
<trkpt lat="57.701275" lon="10.514697">
<ele>4.854711</ele>
<time>2026-07-17T11:31:53.000Z</time>
</trkpt>
<trkpt lat="57.701308" lon="10.514756">
<ele>4.851147</ele>
<time>2026-07-17T11:31:54.000Z</time>
</trkpt>
<trkpt lat="57.701340" lon="10.514821">
<ele>4.847460</ele>
<time>2026-07-17T11:31:55.000Z</time>
</trkpt>
<trkpt lat="57.701375" lon="10.514892">
<ele>4.843429</ele>
<time>2026-07-17T11:31:56.000Z</time>
</trkpt>
<trkpt lat="57.701416" lon="10.514960">
<ele>4.839151</ele>
<time>2026-07-17T11:31:57.000Z</time>
</trkpt>
<trkpt lat="57.701453" lon="10.515016">
<ele>4.835435</ele>
<time>2026-07-17T11:31:58.000Z</time>
</trkpt>
<trkpt lat="57.701492" lon="10.515082">
<ele>4.831329</ele>
<time>2026-07-17T11:31:59.000Z</time>
</trkpt>
<trkpt lat="57.701531" lon="10.515149">
<ele>4.827195</ele>
<time>2026-07-17T11:32:00.000Z</time>
</trkpt>
<trkpt lat="57.701569" lon="10.515216">
<ele>4.823119</ele>
<time>2026-07-17T11:32:01.000Z</time>
</trkpt>
<trkpt lat="57.701612" lon="10.515287">
<ele>4.818641</ele>
<time>2026-07-17T11:32:02.000Z</time>
</trkpt>
<trkpt lat="57.701657" lon="10.515352">
<ele>4.814202</ele>
<time>2026-07-17T11:32:03.000Z</time>
</trkpt>
<trkpt lat="57.701698" lon="10.515424">
<ele>4.809812</ele>
<time>2026-07-17T11:32:04.000Z</time>
</trkpt>
<trkpt lat="57.701740" lon="10.515503">
<ele>4.805162</ele>
<time>2026-07-17T11:32:05.000Z</time>
</trkpt>
<trkpt lat="57.701783" lon="10.515587">
<ele>4.800308</ele>
<time>2026-07-17T11:32:06.000Z</time>
</trkpt>
<trkpt lat="57.701828" lon="10.515668">
<ele>4.795433</ele>
<time>2026-07-17T11:32:07.000Z</time>
</trkpt>
<trkpt lat="57.701868" lon="10.515752">
<ele>4.789483</ele>
<time>2026-07-17T11:32:08.000Z</time>
</trkpt>
<trkpt lat="57.701912" lon="10.515847">
<ele>4.782099</ele>
<time>2026-07-17T11:32:09.000Z</time>
</trkpt>
<trkpt lat="57.701954" lon="10.515939">
<ele>4.774991</ele>
<time>2026-07-17T11:32:10.000Z</time>
</trkpt>
<trkpt lat="57.701992" lon="10.516033">
<ele>4.768067</ele>
<time>2026-07-17T11:32:11.000Z</time>
</trkpt>
<trkpt lat="57.702034" lon="10.516127">
<ele>4.760870</ele>
<time>2026-07-17T11:32:12.000Z</time>
</trkpt>
<trkpt lat="57.702072" lon="10.516213">
<ele>4.754315</ele>
<time>2026-07-17T11:32:13.000Z</time>
</trkpt>
<trkpt lat="57.702114" lon="10.516299">
<ele>4.747472</ele>
<time>2026-07-17T11:32:14.000Z</time>
</trkpt>
<trkpt lat="57.702152" lon="10.516382">
<ele>4.741051</ele>
<time>2026-07-17T11:32:15.000Z</time>
</trkpt>
<trkpt lat="57.702191" lon="10.516470">
<ele>4.734336</ele>
<time>2026-07-17T11:32:16.000Z</time>
</trkpt>
<trkpt lat="57.702232" lon="10.516555">
<ele>4.727610</ele>
<time>2026-07-17T11:32:17.000Z</time>
</trkpt>
<trkpt lat="57.702268" lon="10.516639">
<ele>4.721285</ele>
<time>2026-07-17T11:32:18.000Z</time>
</trkpt>
<trkpt lat="57.702310" lon="10.516732">
<ele>4.714132</ele>
<time>2026-07-17T11:32:19.000Z</time>
</trkpt>
<trkpt lat="57.702354" lon="10.516833">
<ele>4.706478</ele>
<time>2026-07-17T11:32:20.000Z</time>
</trkpt>
<trkpt lat="57.702393" lon="10.516922">
<ele>4.699717</ele>
<time>2026-07-17T11:32:21.000Z</time>
</trkpt>
<trkpt lat="57.702433" lon="10.517008">
<ele>4.693020</ele>
<time>2026-07-17T11:32:22.000Z</time>
</trkpt>
<trkpt lat="57.702477" lon="10.517103">
<ele>4.685635</ele>
<time>2026-07-17T11:32:23.000Z</time>
</trkpt>
<trkpt lat="57.702519" lon="10.517190">
<ele>4.678748</ele>
<time>2026-07-17T11:32:24.000Z</time>
</trkpt>
<trkpt lat="57.702557" lon="10.517276">
<ele>4.672193</ele>
<time>2026-07-17T11:32:25.000Z</time>
</trkpt>
<trkpt lat="57.702599" lon="10.517364">
<ele>4.665263</ele>
<time>2026-07-17T11:32:26.000Z</time>
</trkpt>
<trkpt lat="57.702640" lon="10.517449">
<ele>4.658537</ele>
<time>2026-07-17T11:32:27.000Z</time>
</trkpt>
<trkpt lat="57.702678" lon="10.517532">
<ele>4.652116</ele>
<time>2026-07-17T11:32:28.000Z</time>
</trkpt>
<trkpt lat="57.702721" lon="10.517622">
<ele>4.645025</ele>
<time>2026-07-17T11:32:29.000Z</time>
</trkpt>
<trkpt lat="57.702759" lon="10.517711">
<ele>4.638333</ele>
<time>2026-07-17T11:32:30.000Z</time>
</trkpt>
<trkpt lat="57.702798" lon="10.517797">
<ele>4.631708</ele>
<time>2026-07-17T11:32:31.000Z</time>
</trkpt>
<trkpt lat="57.702839" lon="10.517881">
<ele>4.625025</ele>
<time>2026-07-17T11:32:32.000Z</time>
</trkpt>
<trkpt lat="57.702876" lon="10.517962">
<ele>4.618766</ele>
<time>2026-07-17T11:32:33.000Z</time>
</trkpt>
<trkpt lat="57.702910" lon="10.518041">
<ele>4.612808</ele>
<time>2026-07-17T11:32:34.000Z</time>
</trkpt>
<trkpt lat="57.702946" lon="10.518121">
<ele>4.606664</ele>
<time>2026-07-17T11:32:35.000Z</time>
</trkpt>
<trkpt lat="57.702984" lon="10.518202">
<ele>4.600333</ele>
<time>2026-07-17T11:32:36.000Z</time>
</trkpt>
<trkpt lat="57.703021" lon="10.518283">
<ele>4.594107</ele>
<time>2026-07-17T11:32:37.000Z</time>
</trkpt>
<trkpt lat="57.703054" lon="10.518362">
<ele>4.588316</ele>
<time>2026-07-17T11:32:38.000Z</time>
</trkpt>
<trkpt lat="57.703094" lon="10.518450">
<ele>4.581643</ele>
<time>2026-07-17T11:32:39.000Z</time>
</trkpt>
<trkpt lat="57.703129" lon="10.518535">
<ele>4.575446</ele>
<time>2026-07-17T11:32:40.000Z</time>
</trkpt>
<trkpt lat="57.703167" lon="10.518618">
<ele>4.569133</ele>
<time>2026-07-17T11:32:41.000Z</time>
</trkpt>
<trkpt lat="57.703205" lon="10.518702">
<ele>4.562776</ele>
<time>2026-07-17T11:32:42.000Z</time>
</trkpt>
<trkpt lat="57.703243" lon="10.518788">
<ele>4.556331</ele>
<time>2026-07-17T11:32:43.000Z</time>
</trkpt>
<trkpt lat="57.703281" lon="10.518877">
<ele>4.549751</ele>
<time>2026-07-17T11:32:44.000Z</time>
</trkpt>
<trkpt lat="57.703316" lon="10.518961">
<ele>4.543599</ele>
<time>2026-07-17T11:32:45.000Z</time>
</trkpt>
<trkpt lat="57.703354" lon="10.519045">
<ele>4.537243</ele>
<time>2026-07-17T11:32:46.000Z</time>
</trkpt>
<trkpt lat="57.703388" lon="10.519128">
<ele>4.531202</ele>
<time>2026-07-17T11:32:47.000Z</time>
</trkpt>
<trkpt lat="57.703427" lon="10.519210">
<ele>4.524862</ele>
<time>2026-07-17T11:32:48.000Z</time>
</trkpt>
<trkpt lat="57.703464" lon="10.519289">
<ele>4.518795</ele>
<time>2026-07-17T11:32:49.000Z</time>
</trkpt>
<trkpt lat="57.703497" lon="10.519367">
<ele>4.513049</ele>
<time>2026-07-17T11:32:50.000Z</time>
</trkpt>
<trkpt lat="57.703533" lon="10.519450">
<ele>4.506875</ele>
<time>2026-07-17T11:32:51.000Z</time>
</trkpt>
<trkpt lat="57.703568" lon="10.519530">
<ele>4.500903</ele>
<time>2026-07-17T11:32:52.000Z</time>
</trkpt>
<trkpt lat="57.703605" lon="10.519614">
<ele>4.494616</ele>
<time>2026-07-17T11:32:53.000Z</time>
</trkpt>
<trkpt lat="57.703643" lon="10.519699">
<ele>4.488215</ele>
<time>2026-07-17T11:32:54.000Z</time>
</trkpt>
<trkpt lat="57.703674" lon="10.519776">
<ele>4.482647</ele>
<time>2026-07-17T11:32:55.000Z</time>
</trkpt>
<trkpt lat="57.703713" lon="10.519866">
<ele>4.475954</ele>
<time>2026-07-17T11:32:56.000Z</time>
</trkpt>
<trkpt lat="57.703750" lon="10.519947">
<ele>4.469800</ele>
<time>2026-07-17T11:32:57.000Z</time>
</trkpt>
<trkpt lat="57.703785" lon="10.520028">
<ele>4.463784</ele>
<time>2026-07-17T11:32:58.000Z</time>
</trkpt>
<trkpt lat="57.703820" lon="10.520114">
<ele>4.457540</ele>
<time>2026-07-17T11:32:59.000Z</time>
</trkpt>
<trkpt lat="57.703857" lon="10.520195">
<ele>4.451386</ele>
<time>2026-07-17T11:33:00.000Z</time>
</trkpt>
<trkpt lat="57.703892" lon="10.520277">
<ele>4.445324</ele>
<time>2026-07-17T11:33:01.000Z</time>
</trkpt>
<trkpt lat="57.703925" lon="10.520357">
<ele>4.439487</ele>
<time>2026-07-17T11:33:02.000Z</time>
</trkpt>
<trkpt lat="57.703960" lon="10.520440">
<ele>4.433381</ele>
<time>2026-07-17T11:33:03.000Z</time>
</trkpt>
<trkpt lat="57.703995" lon="10.520525">
<ele>4.427183</ele>
<time>2026-07-17T11:33:04.000Z</time>
</trkpt>
<trkpt lat="57.704027" lon="10.520606">
<ele>4.421365</ele>
<time>2026-07-17T11:33:05.000Z</time>
</trkpt>
<trkpt lat="57.704063" lon="10.520688">
<ele>4.415236</ele>
<time>2026-07-17T11:33:06.000Z</time>
</trkpt>
<trkpt lat="57.704093" lon="10.520767">
<ele>4.409638</ele>
<time>2026-07-17T11:33:07.000Z</time>
</trkpt>
<trkpt lat="57.704124" lon="10.520833">
<ele>4.404563</ele>
<time>2026-07-17T11:33:08.000Z</time>
</trkpt>
<trkpt lat="57.704155" lon="10.520903">
<ele>4.407475</ele>
<time>2026-07-17T11:33:09.000Z</time>
</trkpt>
<trkpt lat="57.704188" lon="10.520978">
<ele>4.421279</ele>
<time>2026-07-17T11:33:10.000Z</time>
</trkpt>
<trkpt lat="57.704223" lon="10.521059">
<ele>4.436081</ele>
<time>2026-07-17T11:33:11.000Z</time>
</trkpt>
<trkpt lat="57.704253" lon="10.521138">
<ele>4.449851</ele>
<time>2026-07-17T11:33:12.000Z</time>
</trkpt>
<trkpt lat="57.704280" lon="10.521217">
<ele>4.463176</ele>
<time>2026-07-17T11:33:13.000Z</time>
</trkpt>
<trkpt lat="57.704306" lon="10.521293">
<ele>4.475998</ele>
<time>2026-07-17T11:33:14.000Z</time>
</trkpt>
<trkpt lat="57.704329" lon="10.521365">
<ele>4.487917</ele>
<time>2026-07-17T11:33:15.000Z</time>
</trkpt>
<trkpt lat="57.704356" lon="10.521446">
<ele>4.501481</ele>
<time>2026-07-17T11:33:16.000Z</time>
</trkpt>
<trkpt lat="57.704378" lon="10.521531">
<ele>4.514901</ele>
<time>2026-07-17T11:33:17.000Z</time>
</trkpt>
<trkpt lat="57.704410" lon="10.521649">
<ele>4.533702</ele>
<time>2026-07-17T11:33:18.000Z</time>
</trkpt>
<trkpt lat="57.704436" lon="10.521751">
<ele>4.549759</ele>
<time>2026-07-17T11:33:19.000Z</time>
</trkpt>
<trkpt lat="57.704463" lon="10.521850">
<ele>4.565552</ele>
<time>2026-07-17T11:33:20.000Z</time>
</trkpt>
<trkpt lat="57.704488" lon="10.521942">
<ele>4.580217</ele>
<time>2026-07-17T11:33:21.000Z</time>
</trkpt>
<trkpt lat="57.704511" lon="10.522050">
<ele>4.596735</ele>
<time>2026-07-17T11:33:22.000Z</time>
</trkpt>
<trkpt lat="57.704531" lon="10.522151">
<ele>4.612039</ele>
<time>2026-07-17T11:33:23.000Z</time>
</trkpt>
<trkpt lat="57.704546" lon="10.522255">
<ele>4.627345</ele>
<time>2026-07-17T11:33:24.000Z</time>
</trkpt>
<trkpt lat="57.704561" lon="10.522354">
<ele>4.641965</ele>
<time>2026-07-17T11:33:25.000Z</time>
</trkpt>
<trkpt lat="57.704571" lon="10.522445">
<ele>4.655165</ele>
<time>2026-07-17T11:33:26.000Z</time>
</trkpt>
<trkpt lat="57.704579" lon="10.522542">
<ele>4.669110</ele>
<time>2026-07-17T11:33:27.000Z</time>
</trkpt>
<trkpt lat="57.704583" lon="10.522624">
<ele>4.680809</ele>
<time>2026-07-17T11:33:28.000Z</time>
</trkpt>
<trkpt lat="57.704591" lon="10.522700">
<ele>4.691815</ele>
<time>2026-07-17T11:33:29.000Z</time>
</trkpt>
<trkpt lat="57.704602" lon="10.522771">
<ele>4.702318</ele>
<time>2026-07-17T11:33:30.000Z</time>
</trkpt>
<trkpt lat="57.704606" lon="10.522825">
<ele>4.710064</ele>
<time>2026-07-17T11:33:31.000Z</time>
</trkpt>
<trkpt lat="57.704613" lon="10.522867">
<ele>4.716315</ele>
<time>2026-07-17T11:33:32.000Z</time>
</trkpt>
<trkpt lat="57.704612" lon="10.522901">
<ele>4.721153</ele>
<time>2026-07-17T11:33:33.000Z</time>
</trkpt>
<trkpt lat="57.704635" lon="10.523126">
<ele>4.753701</ele>
<time>2026-07-17T11:39:51.000Z</time>
</trkpt>
<trkpt lat="57.704672" lon="10.523153">
<ele>4.764261</ele>
<time>2026-07-17T11:39:52.000Z</time>
</trkpt>
<trkpt lat="57.704691" lon="10.523176">
<ele>4.770279</ele>
<time>2026-07-17T11:39:53.000Z</time>
</trkpt>
<trkpt lat="57.704710" lon="10.523206">
<ele>4.776889</ele>
<time>2026-07-17T11:39:54.000Z</time>
</trkpt>
<trkpt lat="57.704728" lon="10.523236">
<ele>4.783298</ele>
<time>2026-07-17T11:39:55.000Z</time>
</trkpt>
<trkpt lat="57.704756" lon="10.523289">
<ele>4.793888</ele>
<time>2026-07-17T11:39:56.000Z</time>
</trkpt>
<trkpt lat="57.704775" lon="10.523334">
<ele>4.802037</ele>
<time>2026-07-17T11:39:57.000Z</time>
</trkpt>
<trkpt lat="57.704794" lon="10.523379">
<ele>4.810186</ele>
<time>2026-07-17T11:39:58.000Z</time>
</trkpt>
<trkpt lat="57.704817" lon="10.523428">
<ele>4.819453</ele>
<time>2026-07-17T11:39:59.000Z</time>
</trkpt>
<trkpt lat="57.704844" lon="10.523481">
<ele>4.829858</ele>
<time>2026-07-17T11:40:00.000Z</time>
</trkpt>
<trkpt lat="57.704866" lon="10.523530">
<ele>4.838952</ele>
<time>2026-07-17T11:40:01.000Z</time>
</trkpt>
<trkpt lat="57.704889" lon="10.523579">
<ele>4.848219</ele>
<time>2026-07-17T11:40:02.000Z</time>
</trkpt>
<trkpt lat="57.704912" lon="10.523633">
<ele>4.858030</ele>
<time>2026-07-17T11:40:03.000Z</time>
</trkpt>
<trkpt lat="57.704932" lon="10.523686">
<ele>4.867249</ele>
<time>2026-07-17T11:40:04.000Z</time>
</trkpt>
<trkpt lat="57.704954" lon="10.523739">
<ele>4.876785</ele>
<time>2026-07-17T11:40:05.000Z</time>
</trkpt>
<trkpt lat="57.704976" lon="10.523792">
<ele>4.880350</ele>
<time>2026-07-17T11:40:06.000Z</time>
</trkpt>
<trkpt lat="57.705004" lon="10.523856">
<ele>4.881042</ele>
<time>2026-07-17T11:40:07.000Z</time>
</trkpt>
<trkpt lat="57.705023" lon="10.523920">
<ele>4.881654</ele>
<time>2026-07-17T11:40:08.000Z</time>
</trkpt>
<trkpt lat="57.705050" lon="10.523988">
<ele>4.882362</ele>
<time>2026-07-17T11:40:09.000Z</time>
</trkpt>
<trkpt lat="57.705071" lon="10.524046">
<ele>4.882948</ele>
<time>2026-07-17T11:40:10.000Z</time>
</trkpt>
<trkpt lat="57.705096" lon="10.524112">
<ele>4.883624</ele>
<time>2026-07-17T11:40:11.000Z</time>
</trkpt>
<trkpt lat="57.705119" lon="10.524170">
<ele>4.884228</ele>
<time>2026-07-17T11:40:12.000Z</time>
</trkpt>
<trkpt lat="57.705141" lon="10.524233">
<ele>4.884857</ele>
<time>2026-07-17T11:40:13.000Z</time>
</trkpt>
<trkpt lat="57.705163" lon="10.524291">
<ele>4.885452</ele>
<time>2026-07-17T11:40:14.000Z</time>
</trkpt>
<trkpt lat="57.705189" lon="10.524345">
<ele>4.886059</ele>
<time>2026-07-17T11:40:15.000Z</time>
</trkpt>
<trkpt lat="57.705222" lon="10.524391">
<ele>4.886703</ele>
<time>2026-07-17T11:40:16.000Z</time>
</trkpt>
<trkpt lat="57.705261" lon="10.524425">
<ele>4.887376</ele>
<time>2026-07-17T11:40:17.000Z</time>
</trkpt>
<trkpt lat="57.705294" lon="10.524436">
<ele>4.887901</ele>
<time>2026-07-17T11:40:18.000Z</time>
</trkpt>
<trkpt lat="57.705350" lon="10.524439">
<ele>4.888777</ele>
<time>2026-07-17T11:40:19.000Z</time>
</trkpt>
<trkpt lat="57.705391" lon="10.524433">
<ele>4.889421</ele>
<time>2026-07-17T11:40:20.000Z</time>
</trkpt>
<trkpt lat="57.705441" lon="10.524425">
<ele>4.890206</ele>
<time>2026-07-17T11:40:21.000Z</time>
</trkpt>
<trkpt lat="57.705484" lon="10.524416">
<ele>4.890883</ele>
<time>2026-07-17T11:40:22.000Z</time>
</trkpt>
<trkpt lat="57.705529" lon="10.524410">
<ele>4.891589</ele>
<time>2026-07-17T11:40:23.000Z</time>
</trkpt>
<trkpt lat="57.705574" lon="10.524403">
<ele>4.892295</ele>
<time>2026-07-17T11:40:24.000Z</time>
</trkpt>
<trkpt lat="57.705620" lon="10.524392">
<ele>4.893021</ele>
<time>2026-07-17T11:40:25.000Z</time>
</trkpt>
<trkpt lat="57.705665" lon="10.524378">
<ele>4.893735</ele>
<time>2026-07-17T11:40:26.000Z</time>
</trkpt>
<trkpt lat="57.705712" lon="10.524364">
<ele>4.894479</ele>
<time>2026-07-17T11:40:27.000Z</time>
</trkpt>
<trkpt lat="57.705758" lon="10.524351">
<ele>4.895207</ele>
<time>2026-07-17T11:40:28.000Z</time>
</trkpt>
<trkpt lat="57.705812" lon="10.524339">
<ele>4.896058</ele>
<time>2026-07-17T11:40:29.000Z</time>
</trkpt>
<trkpt lat="57.705858" lon="10.524329">
<ele>4.896783</ele>
<time>2026-07-17T11:40:30.000Z</time>
</trkpt>
<trkpt lat="57.705911" lon="10.524317">
<ele>4.897618</ele>
<time>2026-07-17T11:40:31.000Z</time>
</trkpt>
<trkpt lat="57.705961" lon="10.524305">
<ele>4.898407</ele>
<time>2026-07-17T11:40:32.000Z</time>
</trkpt>
<trkpt lat="57.706010" lon="10.524291">
<ele>4.899182</ele>
<time>2026-07-17T11:40:33.000Z</time>
</trkpt>
<trkpt lat="57.706056" lon="10.524277">
<ele>4.899911</ele>
<time>2026-07-17T11:40:34.000Z</time>
</trkpt>
<trkpt lat="57.706106" lon="10.524262">
<ele>4.900704</ele>
<time>2026-07-17T11:40:35.000Z</time>
</trkpt>
<trkpt lat="57.706152" lon="10.524246">
<ele>4.901436</ele>
<time>2026-07-17T11:40:36.000Z</time>
</trkpt>
<trkpt lat="57.706203" lon="10.524232">
<ele>4.902242</ele>
<time>2026-07-17T11:40:37.000Z</time>
</trkpt>
<trkpt lat="57.706255" lon="10.524215">
<ele>4.903068</ele>
<time>2026-07-17T11:40:38.000Z</time>
</trkpt>
<trkpt lat="57.706304" lon="10.524198">
<ele>4.903848</ele>
<time>2026-07-17T11:40:39.000Z</time>
</trkpt>
<trkpt lat="57.706349" lon="10.524180">
<ele>4.904568</ele>
<time>2026-07-17T11:40:40.000Z</time>
</trkpt>
<trkpt lat="57.706391" lon="10.524163">
<ele>4.905240</ele>
<time>2026-07-17T11:40:41.000Z</time>
</trkpt>
<trkpt lat="57.706445" lon="10.524145">
<ele>4.906098</ele>
<time>2026-07-17T11:40:42.000Z</time>
</trkpt>
<trkpt lat="57.706493" lon="10.524129">
<ele>4.906861</ele>
<time>2026-07-17T11:40:43.000Z</time>
</trkpt>
<trkpt lat="57.706538" lon="10.524116">
<ele>4.907573</ele>
<time>2026-07-17T11:40:44.000Z</time>
</trkpt>
<trkpt lat="57.706589" lon="10.524100">
<ele>4.907868</ele>
<time>2026-07-17T11:40:45.000Z</time>
</trkpt>
<trkpt lat="57.706631" lon="10.524085">
<ele>4.907229</ele>
<time>2026-07-17T11:40:46.000Z</time>
</trkpt>
<trkpt lat="57.706686" lon="10.524066">
<ele>4.906393</ele>
<time>2026-07-17T11:40:47.000Z</time>
</trkpt>
<trkpt lat="57.706738" lon="10.524045">
<ele>4.905599</ele>
<time>2026-07-17T11:40:48.000Z</time>
</trkpt>
<trkpt lat="57.706787" lon="10.524027">
<ele>4.904853</ele>
<time>2026-07-17T11:40:49.000Z</time>
</trkpt>
<trkpt lat="57.706831" lon="10.524012">
<ele>4.904185</ele>
<time>2026-07-17T11:40:50.000Z</time>
</trkpt>
<trkpt lat="57.706896" lon="10.523992">
<ele>4.903201</ele>
<time>2026-07-17T11:40:51.000Z</time>
</trkpt>
<trkpt lat="57.706949" lon="10.523974">
<ele>4.902396</ele>
<time>2026-07-17T11:40:52.000Z</time>
</trkpt>
<trkpt lat="57.707002" lon="10.523957">
<ele>4.901593</ele>
<time>2026-07-17T11:40:53.000Z</time>
</trkpt>
<trkpt lat="57.707056" lon="10.523942">
<ele>4.900778</ele>
<time>2026-07-17T11:40:54.000Z</time>
</trkpt>
<trkpt lat="57.707109" lon="10.523930">
<ele>4.899980</ele>
<time>2026-07-17T11:40:55.000Z</time>
</trkpt>
<trkpt lat="57.707162" lon="10.523919">
<ele>4.899184</ele>
<time>2026-07-17T11:40:56.000Z</time>
</trkpt>
<trkpt lat="57.707220" lon="10.523907">
<ele>4.898312</ele>
<time>2026-07-17T11:40:57.000Z</time>
</trkpt>
<trkpt lat="57.707277" lon="10.523894">
<ele>4.897454</ele>
<time>2026-07-17T11:40:58.000Z</time>
</trkpt>
<trkpt lat="57.707334" lon="10.523880">
<ele>4.896596</ele>
<time>2026-07-17T11:40:59.000Z</time>
</trkpt>
<trkpt lat="57.707386" lon="10.523864">
<ele>4.895808</ele>
<time>2026-07-17T11:41:00.000Z</time>
</trkpt>
<trkpt lat="57.707445" lon="10.523849">
<ele>4.894919</ele>
<time>2026-07-17T11:41:01.000Z</time>
</trkpt>
<trkpt lat="57.707498" lon="10.523831">
<ele>4.894114</ele>
<time>2026-07-17T11:41:02.000Z</time>
</trkpt>
<trkpt lat="57.707547" lon="10.523812">
<ele>4.893367</ele>
<time>2026-07-17T11:41:03.000Z</time>
</trkpt>
<trkpt lat="57.707601" lon="10.523792">
<ele>4.892545</ele>
<time>2026-07-17T11:41:04.000Z</time>
</trkpt>
<trkpt lat="57.707649" lon="10.523777">
<ele>4.891818</ele>
<time>2026-07-17T11:41:05.000Z</time>
</trkpt>
<trkpt lat="57.707699" lon="10.523768">
<ele>4.891068</ele>
<time>2026-07-17T11:41:06.000Z</time>
</trkpt>
<trkpt lat="57.707754" lon="10.523756">
<ele>4.890240</ele>
<time>2026-07-17T11:41:07.000Z</time>
</trkpt>
<trkpt lat="57.707804" lon="10.523743">
<ele>4.889486</ele>
<time>2026-07-17T11:41:08.000Z</time>
</trkpt>
<trkpt lat="57.707856" lon="10.523730">
<ele>4.888703</ele>
<time>2026-07-17T11:41:09.000Z</time>
</trkpt>
<trkpt lat="57.707905" lon="10.523714">
<ele>4.887960</ele>
<time>2026-07-17T11:41:10.000Z</time>
</trkpt>
<trkpt lat="57.707953" lon="10.523699">
<ele>4.887233</ele>
<time>2026-07-17T11:41:11.000Z</time>
</trkpt>
<trkpt lat="57.708009" lon="10.523684">
<ele>4.886388</ele>
<time>2026-07-17T11:41:12.000Z</time>
</trkpt>
<trkpt lat="57.708062" lon="10.523672">
<ele>4.885590</ele>
<time>2026-07-17T11:41:13.000Z</time>
</trkpt>
<trkpt lat="57.708111" lon="10.523658">
<ele>4.884850</ele>
<time>2026-07-17T11:41:14.000Z</time>
</trkpt>
<trkpt lat="57.708150" lon="10.523646">
<ele>4.884260</ele>
<time>2026-07-17T11:41:15.000Z</time>
</trkpt>
<trkpt lat="57.708207" lon="10.523612">
<ele>4.883366</ele>
<time>2026-07-17T11:41:16.000Z</time>
</trkpt>
<trkpt lat="57.708248" lon="10.523570">
<ele>4.882668</ele>
<time>2026-07-17T11:41:17.000Z</time>
</trkpt>
<trkpt lat="57.708288" lon="10.523518">
<ele>4.881940</ele>
<time>2026-07-17T11:41:18.000Z</time>
</trkpt>
<trkpt lat="57.708329" lon="10.523448">
<ele>4.888800</ele>
<time>2026-07-17T11:41:19.000Z</time>
</trkpt>
<trkpt lat="57.708371" lon="10.523381">
<ele>4.933010</ele>
<time>2026-07-17T11:41:20.000Z</time>
</trkpt>
<trkpt lat="57.708408" lon="10.523319">
<ele>4.972795</ele>
<time>2026-07-17T11:41:21.000Z</time>
</trkpt>
<trkpt lat="57.708440" lon="10.523260">
<ele>5.008780</ele>
<time>2026-07-17T11:41:22.000Z</time>
</trkpt>
<trkpt lat="57.708481" lon="10.523194">
<ele>5.052102</ele>
<time>2026-07-17T11:41:23.000Z</time>
</trkpt>
<trkpt lat="57.708518" lon="10.523132">
<ele>5.091887</ele>
<time>2026-07-17T11:41:24.000Z</time>
</trkpt>
<trkpt lat="57.708557" lon="10.523064">
<ele>5.134587</ele>
<time>2026-07-17T11:41:25.000Z</time>
</trkpt>
<trkpt lat="57.708592" lon="10.522998">
<ele>5.174389</ele>
<time>2026-07-17T11:41:26.000Z</time>
</trkpt>
<trkpt lat="57.708629" lon="10.522939">
<ele>5.213329</ele>
<time>2026-07-17T11:41:27.000Z</time>
</trkpt>
<trkpt lat="57.708672" lon="10.522880">
<ele>5.256042</ele>
<time>2026-07-17T11:41:28.000Z</time>
</trkpt>
<trkpt lat="57.708712" lon="10.522828">
<ele>5.295058</ele>
<time>2026-07-17T11:41:29.000Z</time>
</trkpt>
<trkpt lat="57.708752" lon="10.522777">
<ele>5.333831</ele>
<time>2026-07-17T11:41:30.000Z</time>
</trkpt>
<trkpt lat="57.708790" lon="10.522731">
<ele>5.370086</ele>
<time>2026-07-17T11:41:31.000Z</time>
</trkpt>
<trkpt lat="57.708833" lon="10.522692">
<ele>5.408366</ele>
<time>2026-07-17T11:41:32.000Z</time>
</trkpt>
<trkpt lat="57.708875" lon="10.522675">
<ele>5.442792</ele>
<time>2026-07-17T11:41:33.000Z</time>
</trkpt>
<trkpt lat="57.708923" lon="10.522675">
<ele>5.481248</ele>
<time>2026-07-17T11:41:34.000Z</time>
</trkpt>
<trkpt lat="57.708972" lon="10.522685">
<ele>5.520736</ele>
<time>2026-07-17T11:41:35.000Z</time>
</trkpt>
<trkpt lat="57.709019" lon="10.522709">
<ele>5.559766</ele>
<time>2026-07-17T11:41:36.000Z</time>
</trkpt>
<trkpt lat="57.709058" lon="10.522743">
<ele>5.594234</ele>
<time>2026-07-17T11:41:37.000Z</time>
</trkpt>
<trkpt lat="57.709098" lon="10.522792">
<ele>5.632532</ele>
<time>2026-07-17T11:41:38.000Z</time>
</trkpt>
<trkpt lat="57.709128" lon="10.522837">
<ele>5.663331</ele>
<time>2026-07-17T11:41:39.000Z</time>
</trkpt>
<trkpt lat="57.709155" lon="10.522875">
<ele>5.690394</ele>
<time>2026-07-17T11:41:40.000Z</time>
</trkpt>
<trkpt lat="57.709190" lon="10.522931">
<ele>5.727281</ele>
<time>2026-07-17T11:41:41.000Z</time>
</trkpt>
<trkpt lat="57.709220" lon="10.522979">
<ele>5.758899</ele>
<time>2026-07-17T11:41:42.000Z</time>
</trkpt>
<trkpt lat="57.709250" lon="10.523028">
<ele>5.790797</ele>
<time>2026-07-17T11:41:43.000Z</time>
</trkpt>
<trkpt lat="57.709277" lon="10.523072">
<ele>5.819476</ele>
<time>2026-07-17T11:41:44.000Z</time>
</trkpt>
<trkpt lat="57.709333" lon="10.523159">
<ele>5.877779</ele>
<time>2026-07-17T11:41:45.000Z</time>
</trkpt>
<trkpt lat="57.709379" lon="10.523223">
<ele>5.923697</ele>
<time>2026-07-17T11:41:46.000Z</time>
</trkpt>
<trkpt lat="57.709424" lon="10.523282">
<ele>5.967712</ele>
<time>2026-07-17T11:41:47.000Z</time>
</trkpt>
<trkpt lat="57.709468" lon="10.523334">
<ele>6.009400</ele>
<time>2026-07-17T11:41:48.000Z</time>
</trkpt>
<trkpt lat="57.709510" lon="10.523382">
<ele>6.048824</ele>
<time>2026-07-17T11:41:49.000Z</time>
</trkpt>
<trkpt lat="57.709549" lon="10.523424">
<ele>6.084870</ele>
<time>2026-07-17T11:41:50.000Z</time>
</trkpt>
<trkpt lat="57.709582" lon="10.523462">
<ele>6.115910</ele>
<time>2026-07-17T11:41:51.000Z</time>
</trkpt>
<trkpt lat="57.709608" lon="10.523499">
<ele>6.142075</ele>
<time>2026-07-17T11:41:52.000Z</time>
</trkpt>
<trkpt lat="57.709631" lon="10.523531">
<ele>6.165034</ele>
<time>2026-07-17T11:41:53.000Z</time>
</trkpt>
<trkpt lat="57.709653" lon="10.523562">
<ele>6.187095</ele>
<time>2026-07-17T11:41:54.000Z</time>
</trkpt>
<trkpt lat="57.709678" lon="10.523600">
<ele>6.212895</ele>
<time>2026-07-17T11:41:55.000Z</time>
</trkpt>
<trkpt lat="57.709704" lon="10.523633">
<ele>6.238061</ele>
<time>2026-07-17T11:41:56.000Z</time>
</trkpt>
<trkpt lat="57.709732" lon="10.523671">
<ele>6.265769</ele>
<time>2026-07-17T11:41:57.000Z</time>
</trkpt>
<trkpt lat="57.709762" lon="10.523707">
<ele>6.294318</ele>
<time>2026-07-17T11:41:58.000Z</time>
</trkpt>
<trkpt lat="57.709801" lon="10.523764">
<ele>6.309465</ele>
<time>2026-07-17T11:41:59.000Z</time>
</trkpt>
<trkpt lat="57.709842" lon="10.523822">
<ele>6.264625</ele>
<time>2026-07-17T11:42:00.000Z</time>
</trkpt>
<trkpt lat="57.709885" lon="10.523891">
<ele>6.215208</ele>
<time>2026-07-17T11:42:01.000Z</time>
</trkpt>
<trkpt lat="57.709931" lon="10.523958">
<ele>6.164353</ele>
<time>2026-07-17T11:42:02.000Z</time>
</trkpt>
<trkpt lat="57.709973" lon="10.524028">
<ele>6.115287</ele>
<time>2026-07-17T11:42:03.000Z</time>
</trkpt>
<trkpt lat="57.710013" lon="10.524094">
<ele>6.068763</ele>
<time>2026-07-17T11:42:04.000Z</time>
</trkpt>
<trkpt lat="57.710054" lon="10.524162">
<ele>6.020968</ele>
<time>2026-07-17T11:42:05.000Z</time>
</trkpt>
<trkpt lat="57.710111" lon="10.524251">
<ele>5.956204</ele>
<time>2026-07-17T11:42:06.000Z</time>
</trkpt>
<trkpt lat="57.710157" lon="10.524333">
<ele>5.900781</ele>
<time>2026-07-17T11:42:07.000Z</time>
</trkpt>
<trkpt lat="57.710207" lon="10.524416">
<ele>5.842472</ele>
<time>2026-07-17T11:42:08.000Z</time>
</trkpt>
<trkpt lat="57.710256" lon="10.524499">
<ele>5.784813</ele>
<time>2026-07-17T11:42:09.000Z</time>
</trkpt>
<trkpt lat="57.710304" lon="10.524574">
<ele>5.730259</ele>
<time>2026-07-17T11:42:10.000Z</time>
</trkpt>
<trkpt lat="57.710354" lon="10.524649">
<ele>5.674355</ele>
<time>2026-07-17T11:42:11.000Z</time>
</trkpt>
<trkpt lat="57.710399" lon="10.524727">
<ele>5.620844</ele>
<time>2026-07-17T11:42:12.000Z</time>
</trkpt>
<trkpt lat="57.710438" lon="10.524809">
<ele>5.569670</ele>
<time>2026-07-17T11:42:13.000Z</time>
</trkpt>
<trkpt lat="57.710471" lon="10.524892">
<ele>5.521445</ele>
<time>2026-07-17T11:42:14.000Z</time>
</trkpt>
<trkpt lat="57.710498" lon="10.524974">
<ele>5.476547</ele>
<time>2026-07-17T11:42:15.000Z</time>
</trkpt>
<trkpt lat="57.710525" lon="10.525054">
<ele>5.432440</ele>
<time>2026-07-17T11:42:16.000Z</time>
</trkpt>
<trkpt lat="57.710556" lon="10.525126">
<ele>5.389338</ele>
<time>2026-07-17T11:42:17.000Z</time>
</trkpt>
<trkpt lat="57.710585" lon="10.525200">
<ele>5.346560</ele>
<time>2026-07-17T11:42:18.000Z</time>
</trkpt>
<trkpt lat="57.710617" lon="10.525282">
<ele>5.299228</ele>
<time>2026-07-17T11:42:19.000Z</time>
</trkpt>
<trkpt lat="57.710649" lon="10.525360">
<ele>5.253387</ele>
<time>2026-07-17T11:42:20.000Z</time>
</trkpt>
<trkpt lat="57.710681" lon="10.525449">
<ele>5.203383</ele>
<time>2026-07-17T11:42:21.000Z</time>
</trkpt>
<trkpt lat="57.710712" lon="10.525533">
<ele>5.155796</ele>
<time>2026-07-17T11:42:22.000Z</time>
</trkpt>
<trkpt lat="57.710742" lon="10.525624">
<ele>5.105954</ele>
<time>2026-07-17T11:42:23.000Z</time>
</trkpt>
<trkpt lat="57.710772" lon="10.525713">
<ele>5.056903</ele>
<time>2026-07-17T11:42:24.000Z</time>
</trkpt>
<trkpt lat="57.710802" lon="10.525798">
<ele>5.009419</ele>
<time>2026-07-17T11:42:25.000Z</time>
</trkpt>
<trkpt lat="57.710837" lon="10.525887">
<ele>4.957907</ele>
<time>2026-07-17T11:42:26.000Z</time>
</trkpt>
<trkpt lat="57.710868" lon="10.525970">
<ele>4.910703</ele>
<time>2026-07-17T11:42:27.000Z</time>
</trkpt>
<trkpt lat="57.710894" lon="10.526044">
<ele>4.869420</ele>
<time>2026-07-17T11:42:28.000Z</time>
</trkpt>
<trkpt lat="57.710921" lon="10.526114">
<ele>4.829177</ele>
<time>2026-07-17T11:42:29.000Z</time>
</trkpt>
<trkpt lat="57.710948" lon="10.526191">
<ele>4.786247</ele>
<time>2026-07-17T11:42:30.000Z</time>
</trkpt>
<trkpt lat="57.710974" lon="10.526266">
<ele>4.749604</ele>
<time>2026-07-17T11:42:31.000Z</time>
</trkpt>
<trkpt lat="57.711001" lon="10.526350">
<ele>4.731629</ele>
<time>2026-07-17T11:42:32.000Z</time>
</trkpt>
<trkpt lat="57.711028" lon="10.526436">
<ele>4.713338</ele>
<time>2026-07-17T11:42:33.000Z</time>
</trkpt>
<trkpt lat="57.711057" lon="10.526521">
<ele>4.694845</ele>
<time>2026-07-17T11:42:34.000Z</time>
</trkpt>
<trkpt lat="57.711085" lon="10.526608">
<ele>4.676222</ele>
<time>2026-07-17T11:42:35.000Z</time>
</trkpt>
<trkpt lat="57.711112" lon="10.526690">
<ele>4.658560</ele>
<time>2026-07-17T11:42:36.000Z</time>
</trkpt>
<trkpt lat="57.711142" lon="10.526763">
<ele>4.641672</ele>
<time>2026-07-17T11:42:37.000Z</time>
</trkpt>
<trkpt lat="57.711172" lon="10.526842">
<ele>4.623900</ele>
<time>2026-07-17T11:42:38.000Z</time>
</trkpt>
<trkpt lat="57.711200" lon="10.526925">
<ele>4.605900</ele>
<time>2026-07-17T11:42:39.000Z</time>
</trkpt>
<trkpt lat="57.711230" lon="10.527009">
<ele>4.587373</ele>
<time>2026-07-17T11:42:40.000Z</time>
</trkpt>
<trkpt lat="57.711252" lon="10.527081">
<ele>4.572164</ele>
<time>2026-07-17T11:42:41.000Z</time>
</trkpt>
<trkpt lat="57.711279" lon="10.527161">
<ele>4.554813</ele>
<time>2026-07-17T11:42:42.000Z</time>
</trkpt>
<trkpt lat="57.711302" lon="10.527239">
<ele>4.538477</ele>
<time>2026-07-17T11:42:43.000Z</time>
</trkpt>
<trkpt lat="57.711329" lon="10.527321">
<ele>4.520815</ele>
<time>2026-07-17T11:42:44.000Z</time>
</trkpt>
<trkpt lat="57.711355" lon="10.527398">
<ele>4.504113</ele>
<time>2026-07-17T11:42:45.000Z</time>
</trkpt>
<trkpt lat="57.711383" lon="10.527451">
<ele>4.490445</ele>
<time>2026-07-17T11:42:46.000Z</time>
</trkpt>
<trkpt lat="57.711414" lon="10.527506">
<ele>4.475785</ele>
<time>2026-07-17T11:42:47.000Z</time>
</trkpt>
<trkpt lat="57.711442" lon="10.527560">
<ele>4.461986</ele>
<time>2026-07-17T11:42:48.000Z</time>
</trkpt>
<trkpt lat="57.711470" lon="10.527635">
<ele>4.445209</ele>
<time>2026-07-17T11:42:49.000Z</time>
</trkpt>
<trkpt lat="57.711488" lon="10.527711">
<ele>4.429965</ele>
<time>2026-07-17T11:42:50.000Z</time>
</trkpt>
<trkpt lat="57.711508" lon="10.527800">
<ele>4.412262</ele>
<time>2026-07-17T11:42:51.000Z</time>
</trkpt>
<trkpt lat="57.711527" lon="10.527896">
<ele>4.393490</ele>
<time>2026-07-17T11:42:52.000Z</time>
</trkpt>
<trkpt lat="57.711547" lon="10.527990">
<ele>4.374938</ele>
<time>2026-07-17T11:42:53.000Z</time>
</trkpt>
<trkpt lat="57.711570" lon="10.528082">
<ele>4.356313</ele>
<time>2026-07-17T11:42:54.000Z</time>
</trkpt>
<trkpt lat="57.711601" lon="10.528175">
<ele>4.336214</ele>
<time>2026-07-17T11:42:55.000Z</time>
</trkpt>
<trkpt lat="57.711635" lon="10.528269">
<ele>4.315399</ele>
<time>2026-07-17T11:42:56.000Z</time>
</trkpt>
<trkpt lat="57.711663" lon="10.528351">
<ele>4.297555</ele>
<time>2026-07-17T11:42:57.000Z</time>
</trkpt>
<trkpt lat="57.711704" lon="10.528465">
<ele>4.272356</ele>
<time>2026-07-17T11:42:58.000Z</time>
</trkpt>
<trkpt lat="57.711739" lon="10.528569">
<ele>4.249818</ele>
<time>2026-07-17T11:42:59.000Z</time>
</trkpt>
<trkpt lat="57.711776" lon="10.528676">
<ele>4.226448</ele>
<time>2026-07-17T11:43:00.000Z</time>
</trkpt>
<trkpt lat="57.711815" lon="10.528785">
<ele>4.202393</ele>
<time>2026-07-17T11:43:01.000Z</time>
</trkpt>
<trkpt lat="57.711853" lon="10.528898">
<ele>4.177910</ele>
<time>2026-07-17T11:43:02.000Z</time>
</trkpt>
<trkpt lat="57.711892" lon="10.529013">
<ele>4.152934</ele>
<time>2026-07-17T11:43:03.000Z</time>
</trkpt>
<trkpt lat="57.711929" lon="10.529121">
<ele>4.132277</ele>
<time>2026-07-17T11:43:04.000Z</time>
</trkpt>
<trkpt lat="57.711968" lon="10.529232">
<ele>4.119404</ele>
<time>2026-07-17T11:43:05.000Z</time>
</trkpt>
<trkpt lat="57.712005" lon="10.529345">
<ele>4.106562</ele>
<time>2026-07-17T11:43:06.000Z</time>
</trkpt>
<trkpt lat="57.712038" lon="10.529452">
<ele>4.094590</ele>
<time>2026-07-17T11:43:07.000Z</time>
</trkpt>
<trkpt lat="57.712073" lon="10.529570">
<ele>4.081512</ele>
<time>2026-07-17T11:43:08.000Z</time>
</trkpt>
<trkpt lat="57.712108" lon="10.529683">
<ele>4.068855</ele>
<time>2026-07-17T11:43:09.000Z</time>
</trkpt>
<trkpt lat="57.712147" lon="10.529794">
<ele>4.055982</ele>
<time>2026-07-17T11:43:10.000Z</time>
</trkpt>
<trkpt lat="57.712185" lon="10.529903">
<ele>4.043370</ele>
<time>2026-07-17T11:43:11.000Z</time>
</trkpt>
<trkpt lat="57.712224" lon="10.530008">
<ele>4.030979</ele>
<time>2026-07-17T11:43:12.000Z</time>
</trkpt>
<trkpt lat="57.712261" lon="10.530107">
<ele>4.019271</ele>
<time>2026-07-17T11:43:13.000Z</time>
</trkpt>
<trkpt lat="57.712297" lon="10.530206">
<ele>4.007667</ele>
<time>2026-07-17T11:43:14.000Z</time>
</trkpt>
<trkpt lat="57.712334" lon="10.530316">
<ele>3.995072</ele>
<time>2026-07-17T11:43:15.000Z</time>
</trkpt>
<trkpt lat="57.712372" lon="10.530415">
<ele>3.983260</ele>
<time>2026-07-17T11:43:16.000Z</time>
</trkpt>
<trkpt lat="57.712409" lon="10.530508">
<ele>3.972024</ele>
<time>2026-07-17T11:43:17.000Z</time>
</trkpt>
<trkpt lat="57.712448" lon="10.530609">
<ele>3.959948</ele>
<time>2026-07-17T11:43:18.000Z</time>
</trkpt>
<trkpt lat="57.712485" lon="10.530712">
<ele>3.947922</ele>
<time>2026-07-17T11:43:19.000Z</time>
</trkpt>
<trkpt lat="57.712524" lon="10.530824">
<ele>3.934967</ele>
<time>2026-07-17T11:43:20.000Z</time>
</trkpt>
<trkpt lat="57.712559" lon="10.530930">
<ele>3.922893</ele>
<time>2026-07-17T11:43:21.000Z</time>
</trkpt>
<trkpt lat="57.712593" lon="10.531036">
<ele>3.910913</ele>
<time>2026-07-17T11:43:22.000Z</time>
</trkpt>
<trkpt lat="57.712631" lon="10.531144">
<ele>3.898382</ele>
<time>2026-07-17T11:43:23.000Z</time>
</trkpt>
<trkpt lat="57.712669" lon="10.531249">
<ele>3.886093</ele>
<time>2026-07-17T11:43:24.000Z</time>
</trkpt>
<trkpt lat="57.712703" lon="10.531357">
<ele>3.873947</ele>
<time>2026-07-17T11:43:25.000Z</time>
</trkpt>
<trkpt lat="57.712738" lon="10.531459">
<ele>3.862200</ele>
<time>2026-07-17T11:43:26.000Z</time>
</trkpt>
<trkpt lat="57.712780" lon="10.531558">
<ele>3.849951</ele>
<time>2026-07-17T11:43:27.000Z</time>
</trkpt>
<trkpt lat="57.712817" lon="10.531658">
<ele>3.838164</ele>
<time>2026-07-17T11:43:28.000Z</time>
</trkpt>
<trkpt lat="57.712856" lon="10.531767">
<ele>3.825452</ele>
<time>2026-07-17T11:43:29.000Z</time>
</trkpt>
<trkpt lat="57.712891" lon="10.531872">
<ele>3.813460</ele>
<time>2026-07-17T11:43:30.000Z</time>
</trkpt>
<trkpt lat="57.712929" lon="10.531975">
<ele>3.806098</ele>
<time>2026-07-17T11:43:31.000Z</time>
</trkpt>
<trkpt lat="57.712963" lon="10.532079">
<ele>3.801410</ele>
<time>2026-07-17T11:43:32.000Z</time>
</trkpt>
<trkpt lat="57.712996" lon="10.532180">
<ele>3.796859</ele>
<time>2026-07-17T11:43:33.000Z</time>
</trkpt>
<trkpt lat="57.713035" lon="10.532276">
<ele>3.792222</ele>
<time>2026-07-17T11:43:34.000Z</time>
</trkpt>
<trkpt lat="57.713072" lon="10.532360">
<ele>3.788036</ele>
<time>2026-07-17T11:43:35.000Z</time>
</trkpt>
<trkpt lat="57.713117" lon="10.532453">
<ele>3.783212</ele>
<time>2026-07-17T11:43:36.000Z</time>
</trkpt>
<trkpt lat="57.713158" lon="10.532545">
<ele>3.778606</ele>
<time>2026-07-17T11:43:37.000Z</time>
</trkpt>
<trkpt lat="57.713201" lon="10.532638">
<ele>3.773877</ele>
<time>2026-07-17T11:43:38.000Z</time>
</trkpt>
<trkpt lat="57.713243" lon="10.532727">
<ele>3.769312</ele>
<time>2026-07-17T11:43:39.000Z</time>
</trkpt>
<trkpt lat="57.713292" lon="10.532821">
<ele>3.764263</ele>
<time>2026-07-17T11:43:40.000Z</time>
</trkpt>
<trkpt lat="57.713330" lon="10.532894">
<ele>3.760344</ele>
<time>2026-07-17T11:43:41.000Z</time>
</trkpt>
<trkpt lat="57.713388" lon="10.532999">
<ele>3.754537</ele>
<time>2026-07-17T11:43:42.000Z</time>
</trkpt>
<trkpt lat="57.713434" lon="10.533088">
<ele>3.749776</ele>
<time>2026-07-17T11:43:43.000Z</time>
</trkpt>
<trkpt lat="57.713480" lon="10.533172">
<ele>3.745151</ele>
<time>2026-07-17T11:43:44.000Z</time>
</trkpt>
<trkpt lat="57.713529" lon="10.533250">
<ele>3.740522</ele>
<time>2026-07-17T11:43:45.000Z</time>
</trkpt>
<trkpt lat="57.713573" lon="10.533329">
<ele>3.736134</ele>
<time>2026-07-17T11:43:46.000Z</time>
</trkpt>
<trkpt lat="57.713624" lon="10.533416">
<ele>3.731169</ele>
<time>2026-07-17T11:43:47.000Z</time>
</trkpt>
<trkpt lat="57.713669" lon="10.533501">
<ele>3.726568</ele>
<time>2026-07-17T11:43:48.000Z</time>
</trkpt>
<trkpt lat="57.713719" lon="10.533586">
<ele>3.721707</ele>
<time>2026-07-17T11:43:49.000Z</time>
</trkpt>
<trkpt lat="57.713763" lon="10.533666">
<ele>3.717293</ele>
<time>2026-07-17T11:43:50.000Z</time>
</trkpt>
<trkpt lat="57.713811" lon="10.533748">
<ele>3.712616</ele>
<time>2026-07-17T11:43:51.000Z</time>
</trkpt>
<trkpt lat="57.713861" lon="10.533836">
<ele>3.707677</ele>
<time>2026-07-17T11:43:52.000Z</time>
</trkpt>
<trkpt lat="57.713908" lon="10.533913">
<ele>3.703182</ele>
<time>2026-07-17T11:43:53.000Z</time>
</trkpt>
<trkpt lat="57.713955" lon="10.533997">
<ele>3.698505</ele>
<time>2026-07-17T11:43:54.000Z</time>
</trkpt>
<trkpt lat="57.714002" lon="10.534082">
<ele>3.693802</ele>
<time>2026-07-17T11:43:55.000Z</time>
</trkpt>
<trkpt lat="57.714051" lon="10.534165">
<ele>3.689046</ele>
<time>2026-07-17T11:43:56.000Z</time>
</trkpt>
<trkpt lat="57.714100" lon="10.534244">
<ele>3.684392</ele>
<time>2026-07-17T11:43:57.000Z</time>
</trkpt>
<trkpt lat="57.714146" lon="10.534323">
<ele>3.679899</ele>
<time>2026-07-17T11:43:58.000Z</time>
</trkpt>
<trkpt lat="57.714196" lon="10.534404">
<ele>3.682876</ele>
<time>2026-07-17T11:43:59.000Z</time>
</trkpt>
<trkpt lat="57.714246" lon="10.534484">
<ele>3.686031</ele>
<time>2026-07-17T11:44:00.000Z</time>
</trkpt>
<trkpt lat="57.714292" lon="10.534562">
<ele>3.689008</ele>
<time>2026-07-17T11:44:01.000Z</time>
</trkpt>
<trkpt lat="57.714341" lon="10.534643">
<ele>3.692143</ele>
<time>2026-07-17T11:44:02.000Z</time>
</trkpt>
<trkpt lat="57.714387" lon="10.534725">
<ele>3.695189</ele>
<time>2026-07-17T11:44:03.000Z</time>
</trkpt>
<trkpt lat="57.714434" lon="10.534805">
<ele>3.698236</ele>
<time>2026-07-17T11:44:04.000Z</time>
</trkpt>
<trkpt lat="57.714486" lon="10.534895">
<ele>3.701633</ele>
<time>2026-07-17T11:44:05.000Z</time>
</trkpt>
<trkpt lat="57.714535" lon="10.534979">
<ele>3.704820</ele>
<time>2026-07-17T11:44:06.000Z</time>
</trkpt>
<trkpt lat="57.714586" lon="10.535066">
<ele>3.708129</ele>
<time>2026-07-17T11:44:07.000Z</time>
</trkpt>
<trkpt lat="57.714635" lon="10.535149">
<ele>3.711299</ele>
<time>2026-07-17T11:44:08.000Z</time>
</trkpt>
<trkpt lat="57.714685" lon="10.535233">
<ele>3.714521</ele>
<time>2026-07-17T11:44:09.000Z</time>
</trkpt>
<trkpt lat="57.714733" lon="10.535315">
<ele>3.717638</ele>
<time>2026-07-17T11:44:10.000Z</time>
</trkpt>
<trkpt lat="57.714777" lon="10.535393">
<ele>3.720544</ele>
<time>2026-07-17T11:44:11.000Z</time>
</trkpt>
<trkpt lat="57.714833" lon="10.535481">
<ele>3.724051</ele>
<time>2026-07-17T11:44:12.000Z</time>
</trkpt>
<trkpt lat="57.714880" lon="10.535562">
<ele>3.727115</ele>
<time>2026-07-17T11:44:13.000Z</time>
</trkpt>
<trkpt lat="57.714929" lon="10.535644">
<ele>3.730267</ele>
<time>2026-07-17T11:44:14.000Z</time>
</trkpt>
<trkpt lat="57.714978" lon="10.535724">
<ele>3.733386</ele>
<time>2026-07-17T11:44:15.000Z</time>
</trkpt>
<trkpt lat="57.715020" lon="10.535793">
<ele>3.736066</ele>
<time>2026-07-17T11:44:16.000Z</time>
</trkpt>
<trkpt lat="57.715078" lon="10.535888">
<ele>3.739762</ele>
<time>2026-07-17T11:44:17.000Z</time>
</trkpt>
<trkpt lat="57.715126" lon="10.535968">
<ele>3.742845</ele>
<time>2026-07-17T11:44:18.000Z</time>
</trkpt>
<trkpt lat="57.715177" lon="10.536050">
<ele>3.746069</ele>
<time>2026-07-17T11:44:19.000Z</time>
</trkpt>
<trkpt lat="57.715227" lon="10.536132">
<ele>3.749258</ele>
<time>2026-07-17T11:44:20.000Z</time>
</trkpt>
<trkpt lat="57.715272" lon="10.536208">
<ele>3.752165</ele>
<time>2026-07-17T11:44:21.000Z</time>
</trkpt>
<trkpt lat="57.715326" lon="10.536298">
<ele>3.755632</ele>
<time>2026-07-17T11:44:22.000Z</time>
</trkpt>
<trkpt lat="57.715376" lon="10.536382">
<ele>3.758855</ele>
<time>2026-07-17T11:44:23.000Z</time>
</trkpt>
<trkpt lat="57.715425" lon="10.536466">
<ele>3.762041</ele>
<time>2026-07-17T11:44:24.000Z</time>
</trkpt>
<trkpt lat="57.715478" lon="10.536546">
<ele>3.765307</ele>
<time>2026-07-17T11:44:25.000Z</time>
</trkpt>
<trkpt lat="57.715523" lon="10.536626">
<ele>3.759730</ele>
<time>2026-07-17T11:44:26.000Z</time>
</trkpt>
<trkpt lat="57.715570" lon="10.536704">
<ele>3.751181</ele>
<time>2026-07-17T11:44:27.000Z</time>
</trkpt>
<trkpt lat="57.715619" lon="10.536784">
<ele>3.742330</ele>
<time>2026-07-17T11:44:28.000Z</time>
</trkpt>
<trkpt lat="57.715665" lon="10.536862">
<ele>3.733882</ele>
<time>2026-07-17T11:44:29.000Z</time>
</trkpt>
<trkpt lat="57.715713" lon="10.536936">
<ele>3.725418</ele>
<time>2026-07-17T11:44:30.000Z</time>
</trkpt>
<trkpt lat="57.715755" lon="10.537005">
<ele>3.717812</ele>
<time>2026-07-17T11:44:31.000Z</time>
</trkpt>
<trkpt lat="57.715811" lon="10.537093">
<ele>3.707859</ele>
<time>2026-07-17T11:44:32.000Z</time>
</trkpt>
<trkpt lat="57.715860" lon="10.537174">
<ele>3.698961</ele>
<time>2026-07-17T11:44:33.000Z</time>
</trkpt>
<trkpt lat="57.715906" lon="10.537258">
<ele>3.690214</ele>
<time>2026-07-17T11:44:34.000Z</time>
</trkpt>
<trkpt lat="57.715955" lon="10.537337">
<ele>3.681412</ele>
<time>2026-07-17T11:44:35.000Z</time>
</trkpt>
<trkpt lat="57.716000" lon="10.537414">
<ele>3.673113</ele>
<time>2026-07-17T11:44:36.000Z</time>
</trkpt>
<trkpt lat="57.716051" lon="10.537494">
<ele>3.664056</ele>
<time>2026-07-17T11:44:37.000Z</time>
</trkpt>
<trkpt lat="57.716100" lon="10.537572">
<ele>3.655301</ele>
<time>2026-07-17T11:44:38.000Z</time>
</trkpt>
<trkpt lat="57.716146" lon="10.537654">
<ele>3.646655</ele>
<time>2026-07-17T11:44:39.000Z</time>
</trkpt>
<trkpt lat="57.716193" lon="10.537731">
<ele>3.638153</ele>
<time>2026-07-17T11:44:40.000Z</time>
</trkpt>
<trkpt lat="57.716228" lon="10.537790">
<ele>3.631742</ele>
<time>2026-07-17T11:44:41.000Z</time>
</trkpt>
<trkpt lat="57.716295" lon="10.537904">
<ele>3.619418</ele>
<time>2026-07-17T11:44:42.000Z</time>
</trkpt>
<trkpt lat="57.716344" lon="10.537990">
<ele>3.610276</ele>
<time>2026-07-17T11:44:43.000Z</time>
</trkpt>
<trkpt lat="57.716390" lon="10.538076">
<ele>3.601426</ele>
<time>2026-07-17T11:44:44.000Z</time>
</trkpt>
<trkpt lat="57.716442" lon="10.538159">
<ele>3.592125</ele>
<time>2026-07-17T11:44:45.000Z</time>
</trkpt>
<trkpt lat="57.716490" lon="10.538243">
<ele>3.583181</ele>
<time>2026-07-17T11:44:46.000Z</time>
</trkpt>
<trkpt lat="57.716539" lon="10.538324">
<ele>3.574283</ele>
<time>2026-07-17T11:44:47.000Z</time>
</trkpt>
<trkpt lat="57.716583" lon="10.538407">
<ele>3.565780</ele>
<time>2026-07-17T11:44:48.000Z</time>
</trkpt>
<trkpt lat="57.716630" lon="10.538490">
<ele>3.556986</ele>
<time>2026-07-17T11:44:49.000Z</time>
</trkpt>
<trkpt lat="57.716673" lon="10.538564">
<ele>3.549035</ele>
<time>2026-07-17T11:44:50.000Z</time>
</trkpt>
<trkpt lat="57.716720" lon="10.538646">
<ele>3.540290</ele>
<time>2026-07-17T11:44:51.000Z</time>
</trkpt>
<trkpt lat="57.716770" lon="10.538725">
<ele>3.531384</ele>
<time>2026-07-17T11:44:52.000Z</time>
</trkpt>
<trkpt lat="57.716817" lon="10.538804">
<ele>3.522786</ele>
<time>2026-07-17T11:44:53.000Z</time>
</trkpt>
<trkpt lat="57.716860" lon="10.538879">
<ele>3.540280</ele>
<time>2026-07-17T11:44:54.000Z</time>
</trkpt>
<trkpt lat="57.716912" lon="10.538962">
<ele>3.567879</ele>
<time>2026-07-17T11:44:55.000Z</time>
</trkpt>
<trkpt lat="57.716960" lon="10.539042">
<ele>3.593836</ele>
<time>2026-07-17T11:44:56.000Z</time>
</trkpt>
<trkpt lat="57.717011" lon="10.539124">
<ele>3.620989</ele>
<time>2026-07-17T11:44:57.000Z</time>
</trkpt>
<trkpt lat="57.717057" lon="10.539205">
<ele>3.646495</ele>
<time>2026-07-17T11:44:58.000Z</time>
</trkpt>
<trkpt lat="57.717106" lon="10.539284">
<ele>3.672613</ele>
<time>2026-07-17T11:44:59.000Z</time>
</trkpt>
<trkpt lat="57.717156" lon="10.539361">
<ele>3.698762</ele>
<time>2026-07-17T11:45:00.000Z</time>
</trkpt>
<trkpt lat="57.717200" lon="10.539430">
<ele>3.721944</ele>
<time>2026-07-17T11:45:01.000Z</time>
</trkpt>
<trkpt lat="57.717260" lon="10.539522">
<ele>3.753269</ele>
<time>2026-07-17T11:45:02.000Z</time>
</trkpt>
<trkpt lat="57.717309" lon="10.539604">
<ele>3.779814</ele>
<time>2026-07-17T11:45:03.000Z</time>
</trkpt>
<trkpt lat="57.717355" lon="10.539685">
<ele>3.805320</ele>
<time>2026-07-17T11:45:04.000Z</time>
</trkpt>
<trkpt lat="57.717402" lon="10.539764">
<ele>3.830831</ele>
<time>2026-07-17T11:45:05.000Z</time>
</trkpt>
<trkpt lat="57.717437" lon="10.539828">
<ele>3.850591</ele>
<time>2026-07-17T11:45:06.000Z</time>
</trkpt>
<trkpt lat="57.717495" lon="10.539933">
<ele>3.883178</ele>
<time>2026-07-17T11:45:07.000Z</time>
</trkpt>
<trkpt lat="57.717543" lon="10.540012">
<ele>3.908991</ele>
<time>2026-07-17T11:45:08.000Z</time>
</trkpt>
<trkpt lat="57.717592" lon="10.540102">
<ele>3.936716</ele>
<time>2026-07-17T11:45:09.000Z</time>
</trkpt>
<trkpt lat="57.717645" lon="10.540183">
<ele>3.964349</ele>
<time>2026-07-17T11:45:10.000Z</time>
</trkpt>
<trkpt lat="57.717693" lon="10.540259">
<ele>3.989740</ele>
<time>2026-07-17T11:45:11.000Z</time>
</trkpt>
<trkpt lat="57.717740" lon="10.540340">
<ele>4.015541</ele>
<time>2026-07-17T11:45:12.000Z</time>
</trkpt>
<trkpt lat="57.717790" lon="10.540417">
<ele>4.041691</ele>
<time>2026-07-17T11:45:13.000Z</time>
</trkpt>
<trkpt lat="57.717839" lon="10.540493">
<ele>4.067391</ele>
<time>2026-07-17T11:45:14.000Z</time>
</trkpt>
<trkpt lat="57.717889" lon="10.540564">
<ele>4.092738</ele>
<time>2026-07-17T11:45:15.000Z</time>
</trkpt>
<trkpt lat="57.717936" lon="10.540629">
<ele>4.116339</ele>
<time>2026-07-17T11:45:16.000Z</time>
</trkpt>
<trkpt lat="57.717993" lon="10.540702">
<ele>4.144232</ele>
<time>2026-07-17T11:45:17.000Z</time>
</trkpt>
<trkpt lat="57.718046" lon="10.540770">
<ele>4.170183</ele>
<time>2026-07-17T11:45:18.000Z</time>
</trkpt>
<trkpt lat="57.718099" lon="10.540836">
<ele>4.195893</ele>
<time>2026-07-17T11:45:19.000Z</time>
</trkpt>
<trkpt lat="57.718156" lon="10.540904">
<ele>4.223192</ele>
<time>2026-07-17T11:45:20.000Z</time>
</trkpt>
<trkpt lat="57.718209" lon="10.540968">
<ele>4.247220</ele>
<time>2026-07-17T11:45:21.000Z</time>
</trkpt>
<trkpt lat="57.718267" lon="10.541033">
<ele>4.233495</ele>
<time>2026-07-17T11:45:22.000Z</time>
</trkpt>
<trkpt lat="57.718325" lon="10.541089">
<ele>4.220244</ele>
<time>2026-07-17T11:45:23.000Z</time>
</trkpt>
<trkpt lat="57.718382" lon="10.541144">
<ele>4.207223</ele>
<time>2026-07-17T11:45:24.000Z</time>
</trkpt>
<trkpt lat="57.718435" lon="10.541201">
<ele>4.194813</ele>
<time>2026-07-17T11:45:25.000Z</time>
</trkpt>
<trkpt lat="57.718486" lon="10.541264">
<ele>4.182406</ele>
<time>2026-07-17T11:45:26.000Z</time>
</trkpt>
<trkpt lat="57.718537" lon="10.541337">
<ele>4.169371</ele>
<time>2026-07-17T11:45:27.000Z</time>
</trkpt>
<trkpt lat="57.718584" lon="10.541407">
<ele>4.157176</ele>
<time>2026-07-17T11:45:28.000Z</time>
</trkpt>
<trkpt lat="57.718641" lon="10.541481">
<ele>4.143092</ele>
<time>2026-07-17T11:45:29.000Z</time>
</trkpt>
<trkpt lat="57.718692" lon="10.541537">
<ele>4.131087</ele>
<time>2026-07-17T11:45:30.000Z</time>
</trkpt>
<trkpt lat="57.718753" lon="10.541602">
<ele>4.116836</ele>
<time>2026-07-17T11:45:31.000Z</time>
</trkpt>
<trkpt lat="57.718811" lon="10.541663">
<ele>4.103328</ele>
<time>2026-07-17T11:45:32.000Z</time>
</trkpt>
<trkpt lat="57.718866" lon="10.541727">
<ele>4.090179</ele>
<time>2026-07-17T11:45:33.000Z</time>
</trkpt>
<trkpt lat="57.718920" lon="10.541790">
<ele>4.077260</ele>
<time>2026-07-17T11:45:34.000Z</time>
</trkpt>
<trkpt lat="57.718978" lon="10.541852">
<ele>4.063698</ele>
<time>2026-07-17T11:45:35.000Z</time>
</trkpt>
<trkpt lat="57.719043" lon="10.541922">
<ele>4.048472</ele>
<time>2026-07-17T11:45:36.000Z</time>
</trkpt>
<trkpt lat="57.719101" lon="10.541986">
<ele>4.034802</ele>
<time>2026-07-17T11:45:37.000Z</time>
</trkpt>
<trkpt lat="57.719159" lon="10.542053">
<ele>4.020964</ele>
<time>2026-07-17T11:45:38.000Z</time>
</trkpt>
<trkpt lat="57.719216" lon="10.542122">
<ele>4.007182</ele>
<time>2026-07-17T11:45:39.000Z</time>
</trkpt>
<trkpt lat="57.719274" lon="10.542191">
<ele>3.993229</ele>
<time>2026-07-17T11:45:40.000Z</time>
</trkpt>
<trkpt lat="57.719331" lon="10.542265">
<ele>3.979145</ele>
<time>2026-07-17T11:45:41.000Z</time>
</trkpt>
<trkpt lat="57.719387" lon="10.542334">
<ele>3.965533</ele>
<time>2026-07-17T11:45:42.000Z</time>
</trkpt>
<trkpt lat="57.719437" lon="10.542404">
<ele>3.952856</ele>
<time>2026-07-17T11:45:43.000Z</time>
</trkpt>
<trkpt lat="57.719491" lon="10.542474">
<ele>3.939520</ele>
<time>2026-07-17T11:45:44.000Z</time>
</trkpt>
<trkpt lat="57.719544" lon="10.542550">
<ele>3.925965</ele>
<time>2026-07-17T11:45:45.000Z</time>
</trkpt>
<trkpt lat="57.719593" lon="10.542631">
<ele>3.912692</ele>
<time>2026-07-17T11:45:46.000Z</time>
</trkpt>
<trkpt lat="57.719636" lon="10.542706">
<ele>3.900760</ele>
<time>2026-07-17T11:45:47.000Z</time>
</trkpt>
<trkpt lat="57.719688" lon="10.542792">
<ele>3.886672</ele>
<time>2026-07-17T11:45:48.000Z</time>
</trkpt>
<trkpt lat="57.719733" lon="10.542872">
<ele>3.875816</ele>
<time>2026-07-17T11:45:49.000Z</time>
</trkpt>
<trkpt lat="57.719782" lon="10.542955">
<ele>3.865182</ele>
<time>2026-07-17T11:45:50.000Z</time>
</trkpt>
<trkpt lat="57.719828" lon="10.543045">
<ele>3.854474</ele>
<time>2026-07-17T11:45:51.000Z</time>
</trkpt>
<trkpt lat="57.719877" lon="10.543142">
<ele>3.842998</ele>
<time>2026-07-17T11:45:52.000Z</time>
</trkpt>
<trkpt lat="57.719925" lon="10.543230">
<ele>3.832186</ele>
<time>2026-07-17T11:45:53.000Z</time>
</trkpt>
<trkpt lat="57.719969" lon="10.543317">
<ele>3.821887</ele>
<time>2026-07-17T11:45:54.000Z</time>
</trkpt>
<trkpt lat="57.720016" lon="10.543409">
<ele>3.810944</ele>
<time>2026-07-17T11:45:55.000Z</time>
</trkpt>
<trkpt lat="57.720056" lon="10.543484">
<ele>3.801834</ele>
<time>2026-07-17T11:45:56.000Z</time>
</trkpt>
<trkpt lat="57.720111" lon="10.543581">
<ele>3.789674</ele>
<time>2026-07-17T11:45:57.000Z</time>
</trkpt>
<trkpt lat="57.720143" lon="10.543641">
<ele>3.782385</ele>
<time>2026-07-17T11:45:58.000Z</time>
</trkpt>
<trkpt lat="57.720199" lon="10.543751">
<ele>3.769323</ele>
<time>2026-07-17T11:45:59.000Z</time>
</trkpt>
<trkpt lat="57.720245" lon="10.543835">
<ele>3.758982</ele>
<time>2026-07-17T11:46:00.000Z</time>
</trkpt>
<trkpt lat="57.720291" lon="10.543920">
<ele>3.748580</ele>
<time>2026-07-17T11:46:01.000Z</time>
</trkpt>
<trkpt lat="57.720333" lon="10.544006">
<ele>3.738564</ele>
<time>2026-07-17T11:46:02.000Z</time>
</trkpt>
<trkpt lat="57.720375" lon="10.544085">
<ele>3.728983</ele>
<time>2026-07-17T11:46:03.000Z</time>
</trkpt>
<trkpt lat="57.720417" lon="10.544165">
<ele>3.719340</ele>
<time>2026-07-17T11:46:04.000Z</time>
</trkpt>
<trkpt lat="57.720458" lon="10.544243">
<ele>3.709933</ele>
<time>2026-07-17T11:46:05.000Z</time>
</trkpt>
<trkpt lat="57.720501" lon="10.544330">
<ele>3.699745</ele>
<time>2026-07-17T11:46:06.000Z</time>
</trkpt>
<trkpt lat="57.720547" lon="10.544417">
<ele>3.689222</ele>
<time>2026-07-17T11:46:07.000Z</time>
</trkpt>
<trkpt lat="57.720589" lon="10.544501">
<ele>3.679331</ele>
<time>2026-07-17T11:46:08.000Z</time>
</trkpt>
<trkpt lat="57.720638" lon="10.544583">
<ele>3.668755</ele>
<time>2026-07-17T11:46:09.000Z</time>
</trkpt>
<trkpt lat="57.720685" lon="10.544664">
<ele>3.658474</ele>
<time>2026-07-17T11:46:10.000Z</time>
</trkpt>
<trkpt lat="57.720733" lon="10.544748">
<ele>3.647900</ele>
<time>2026-07-17T11:46:11.000Z</time>
</trkpt>
<trkpt lat="57.720781" lon="10.544833">
<ele>3.637268</ele>
<time>2026-07-17T11:46:12.000Z</time>
</trkpt>
<trkpt lat="57.720828" lon="10.544916">
<ele>3.626870</ele>
<time>2026-07-17T11:46:13.000Z</time>
</trkpt>
<trkpt lat="57.720869" lon="10.544996">
<ele>3.617340</ele>
<time>2026-07-17T11:46:14.000Z</time>
</trkpt>
<trkpt lat="57.720925" lon="10.545097">
<ele>3.604826</ele>
<time>2026-07-17T11:46:15.000Z</time>
</trkpt>
<trkpt lat="57.720974" lon="10.545190">
<ele>3.593597</ele>
<time>2026-07-17T11:46:16.000Z</time>
</trkpt>
<trkpt lat="57.721016" lon="10.545280">
<ele>3.607940</ele>
<time>2026-07-17T11:46:17.000Z</time>
</trkpt>
<trkpt lat="57.721061" lon="10.545369">
<ele>3.624200</ele>
<time>2026-07-17T11:46:18.000Z</time>
</trkpt>
<trkpt lat="57.721104" lon="10.545463">
<ele>3.640621</ele>
<time>2026-07-17T11:46:19.000Z</time>
</trkpt>
<trkpt lat="57.721150" lon="10.545552">
<ele>3.657052</ele>
<time>2026-07-17T11:46:20.000Z</time>
</trkpt>
<trkpt lat="57.721198" lon="10.545635">
<ele>3.673283</ele>
<time>2026-07-17T11:46:21.000Z</time>
</trkpt>
<trkpt lat="57.721245" lon="10.545724">
<ele>3.689889</ele>
<time>2026-07-17T11:46:22.000Z</time>
</trkpt>
<trkpt lat="57.721288" lon="10.545804">
<ele>3.704947</ele>
<time>2026-07-17T11:46:23.000Z</time>
</trkpt>
<trkpt lat="57.721336" lon="10.545892">
<ele>3.721635</ele>
<time>2026-07-17T11:46:24.000Z</time>
</trkpt>
<trkpt lat="57.721384" lon="10.545976">
<ele>3.737957</ele>
<time>2026-07-17T11:46:25.000Z</time>
</trkpt>
<trkpt lat="57.721432" lon="10.546066">
<ele>3.754831</ele>
<time>2026-07-17T11:46:26.000Z</time>
</trkpt>
<trkpt lat="57.721478" lon="10.546153">
<ele>3.771074</ele>
<time>2026-07-17T11:46:27.000Z</time>
</trkpt>
<trkpt lat="57.721524" lon="10.546239">
<ele>3.787222</ele>
<time>2026-07-17T11:46:28.000Z</time>
</trkpt>
<trkpt lat="57.721568" lon="10.546317">
<ele>3.802274</ele>
<time>2026-07-17T11:46:29.000Z</time>
</trkpt>
<trkpt lat="57.721616" lon="10.546395">
<ele>3.818062</ele>
<time>2026-07-17T11:46:30.000Z</time>
</trkpt>
<trkpt lat="57.721665" lon="10.546486">
<ele>3.835206</ele>
<time>2026-07-17T11:46:31.000Z</time>
</trkpt>
<trkpt lat="57.721714" lon="10.546577">
<ele>3.852351</ele>
<time>2026-07-17T11:46:32.000Z</time>
</trkpt>
<trkpt lat="57.721762" lon="10.546668">
<ele>3.869319</ele>
<time>2026-07-17T11:46:33.000Z</time>
</trkpt>
<trkpt lat="57.721805" lon="10.546752">
<ele>3.884756</ele>
<time>2026-07-17T11:46:34.000Z</time>
</trkpt>
<trkpt lat="57.721850" lon="10.546837">
<ele>3.900635</ele>
<time>2026-07-17T11:46:35.000Z</time>
</trkpt>
<trkpt lat="57.721898" lon="10.546924">
<ele>3.917230</ele>
<time>2026-07-17T11:46:36.000Z</time>
</trkpt>
<trkpt lat="57.721942" lon="10.547009">
<ele>3.932935</ele>
<time>2026-07-17T11:46:37.000Z</time>
</trkpt>
<trkpt lat="57.721993" lon="10.547097">
<ele>3.950164</ele>
<time>2026-07-17T11:46:38.000Z</time>
</trkpt>
<trkpt lat="57.722039" lon="10.547179">
<ele>3.965941</ele>
<time>2026-07-17T11:46:39.000Z</time>
</trkpt>
<trkpt lat="57.722082" lon="10.547272">
<ele>3.982261</ele>
<time>2026-07-17T11:46:40.000Z</time>
</trkpt>
<trkpt lat="57.722126" lon="10.547369">
<ele>3.999145</ele>
<time>2026-07-17T11:46:41.000Z</time>
</trkpt>
<trkpt lat="57.722168" lon="10.547465">
<ele>4.015609</ele>
<time>2026-07-17T11:46:42.000Z</time>
</trkpt>
<trkpt lat="57.722209" lon="10.547564">
<ele>4.032230</ele>
<time>2026-07-17T11:46:43.000Z</time>
</trkpt>
<trkpt lat="57.722247" lon="10.547665">
<ele>4.031353</ele>
<time>2026-07-17T11:46:44.000Z</time>
</trkpt>
<trkpt lat="57.722286" lon="10.547765">
<ele>4.015514</ele>
<time>2026-07-17T11:46:45.000Z</time>
</trkpt>
<trkpt lat="57.722324" lon="10.547866">
<ele>3.999711</ele>
<time>2026-07-17T11:46:46.000Z</time>
</trkpt>
<trkpt lat="57.722362" lon="10.547966">
<ele>3.984013</ele>
<time>2026-07-17T11:46:47.000Z</time>
</trkpt>
<trkpt lat="57.722400" lon="10.548084">
<ele>3.966388</ele>
<time>2026-07-17T11:46:48.000Z</time>
</trkpt>
<trkpt lat="57.722434" lon="10.548194">
<ele>3.950131</ele>
<time>2026-07-17T11:46:49.000Z</time>
</trkpt>
<trkpt lat="57.722464" lon="10.548298">
<ele>3.935013</ele>
<time>2026-07-17T11:46:50.000Z</time>
</trkpt>
<trkpt lat="57.722490" lon="10.548404">
<ele>3.920093</ele>
<time>2026-07-17T11:46:51.000Z</time>
</trkpt>
<trkpt lat="57.722521" lon="10.548510">
<ele>3.904635</ele>
<time>2026-07-17T11:46:52.000Z</time>
</trkpt>
<trkpt lat="57.722548" lon="10.548620">
<ele>3.889150</ele>
<time>2026-07-17T11:46:53.000Z</time>
</trkpt>
<trkpt lat="57.722575" lon="10.548730">
<ele>3.873665</ele>
<time>2026-07-17T11:46:54.000Z</time>
</trkpt>
<trkpt lat="57.722599" lon="10.548829">
<ele>3.859759</ele>
<time>2026-07-17T11:46:55.000Z</time>
</trkpt>
<trkpt lat="57.722631" lon="10.548943">
<ele>3.843286</ele>
<time>2026-07-17T11:46:56.000Z</time>
</trkpt>
<trkpt lat="57.722654" lon="10.549049">
<ele>3.828651</ele>
<time>2026-07-17T11:46:57.000Z</time>
</trkpt>
<trkpt lat="57.722677" lon="10.549159">
<ele>3.813542</ele>
<time>2026-07-17T11:46:58.000Z</time>
</trkpt>
<trkpt lat="57.722700" lon="10.549264">
<ele>3.799026</ele>
<time>2026-07-17T11:46:59.000Z</time>
</trkpt>
<trkpt lat="57.722723" lon="10.549370">
<ele>3.784391</ele>
<time>2026-07-17T11:47:00.000Z</time>
</trkpt>
<trkpt lat="57.722742" lon="10.549477">
<ele>3.769968</ele>
<time>2026-07-17T11:47:01.000Z</time>
</trkpt>
<trkpt lat="57.722765" lon="10.549581">
<ele>3.755571</ele>
<time>2026-07-17T11:47:02.000Z</time>
</trkpt>
<trkpt lat="57.722788" lon="10.549689">
<ele>3.740699</ele>
<time>2026-07-17T11:47:03.000Z</time>
</trkpt>
<trkpt lat="57.722810" lon="10.549791">
<ele>3.726629</ele>
<time>2026-07-17T11:47:04.000Z</time>
</trkpt>
<trkpt lat="57.722834" lon="10.549895">
<ele>3.712138</ele>
<time>2026-07-17T11:47:05.000Z</time>
</trkpt>
<trkpt lat="57.722856" lon="10.549998">
<ele>3.697949</ele>
<time>2026-07-17T11:47:06.000Z</time>
</trkpt>
<trkpt lat="57.722878" lon="10.550099">
<ele>3.683997</ele>
<time>2026-07-17T11:47:07.000Z</time>
</trkpt>
<trkpt lat="57.722902" lon="10.550210">
<ele>3.668680</ele>
<time>2026-07-17T11:47:08.000Z</time>
</trkpt>
<trkpt lat="57.722925" lon="10.550316">
<ele>3.654045</ele>
<time>2026-07-17T11:47:09.000Z</time>
</trkpt>
<trkpt lat="57.722948" lon="10.550422">
<ele>3.639411</ele>
<time>2026-07-17T11:47:10.000Z</time>
</trkpt>
<trkpt lat="57.722971" lon="10.550531">
<ele>3.624421</ele>
<time>2026-07-17T11:47:11.000Z</time>
</trkpt>
<trkpt lat="57.722994" lon="10.550641">
<ele>3.609311</ele>
<time>2026-07-17T11:47:12.000Z</time>
</trkpt>
<trkpt lat="57.723021" lon="10.550751">
<ele>3.611806</ele>
<time>2026-07-17T11:47:13.000Z</time>
</trkpt>
<trkpt lat="57.723043" lon="10.550859">
<ele>3.614510</ele>
<time>2026-07-17T11:47:14.000Z</time>
</trkpt>
<trkpt lat="57.723063" lon="10.550955">
<ele>3.616921</ele>
<time>2026-07-17T11:47:15.000Z</time>
</trkpt>
<trkpt lat="57.723089" lon="10.551083">
<ele>3.620125</ele>
<time>2026-07-17T11:47:16.000Z</time>
</trkpt>
<trkpt lat="57.723106" lon="10.551167">
<ele>3.622227</ele>
<time>2026-07-17T11:47:17.000Z</time>
</trkpt>
<trkpt lat="57.723130" lon="10.551310">
<ele>3.625735</ele>
<time>2026-07-17T11:47:18.000Z</time>
</trkpt>
<trkpt lat="57.723146" lon="10.551403">
<ele>3.628021</ele>
<time>2026-07-17T11:47:19.000Z</time>
</trkpt>
<trkpt lat="57.723172" lon="10.551537">
<ele>3.631357</ele>
<time>2026-07-17T11:47:20.000Z</time>
</trkpt>
<trkpt lat="57.723188" lon="10.551649">
<ele>3.634069</ele>
<time>2026-07-17T11:47:21.000Z</time>
</trkpt>
<trkpt lat="57.723211" lon="10.551759">
<ele>3.636833</ele>
<time>2026-07-17T11:47:22.000Z</time>
</trkpt>
<trkpt lat="57.723230" lon="10.551871">
<ele>3.639583</ele>
<time>2026-07-17T11:47:23.000Z</time>
</trkpt>
<trkpt lat="57.723249" lon="10.551983">
<ele>3.642333</ele>
<time>2026-07-17T11:47:24.000Z</time>
</trkpt>
<trkpt lat="57.723264" lon="10.552092">
<ele>3.644966</ele>
<time>2026-07-17T11:47:25.000Z</time>
</trkpt>
<trkpt lat="57.723283" lon="10.552202">
<ele>3.647671</ele>
<time>2026-07-17T11:47:26.000Z</time>
</trkpt>
<trkpt lat="57.723302" lon="10.552302">
<ele>3.650155</ele>
<time>2026-07-17T11:47:27.000Z</time>
</trkpt>
<trkpt lat="57.723318" lon="10.552413">
<ele>3.652845</ele>
<time>2026-07-17T11:47:28.000Z</time>
</trkpt>
<trkpt lat="57.723332" lon="10.552521">
<ele>3.655445</ele>
<time>2026-07-17T11:47:29.000Z</time>
</trkpt>
<trkpt lat="57.723348" lon="10.552633">
<ele>3.658158</ele>
<time>2026-07-17T11:47:30.000Z</time>
</trkpt>
<trkpt lat="57.723362" lon="10.552734">
<ele>3.660600</ele>
<time>2026-07-17T11:47:31.000Z</time>
</trkpt>
<trkpt lat="57.723374" lon="10.552858">
<ele>3.663548</ele>
<time>2026-07-17T11:47:32.000Z</time>
</trkpt>
<trkpt lat="57.723386" lon="10.552974">
<ele>3.666313</ele>
<time>2026-07-17T11:47:33.000Z</time>
</trkpt>
<trkpt lat="57.723401" lon="10.553089">
<ele>3.669083</ele>
<time>2026-07-17T11:47:34.000Z</time>
</trkpt>
<trkpt lat="57.723412" lon="10.553204">
<ele>3.671816</ele>
<time>2026-07-17T11:47:35.000Z</time>
</trkpt>
<trkpt lat="57.723424" lon="10.553320">
<ele>3.674581</ele>
<time>2026-07-17T11:47:36.000Z</time>
</trkpt>
<trkpt lat="57.723435" lon="10.553437">
<ele>3.677360</ele>
<time>2026-07-17T11:47:37.000Z</time>
</trkpt>
<trkpt lat="57.723447" lon="10.553557">
<ele>3.680217</ele>
<time>2026-07-17T11:47:38.000Z</time>
</trkpt>
<trkpt lat="57.723458" lon="10.553669">
<ele>3.682881</ele>
<time>2026-07-17T11:47:39.000Z</time>
</trkpt>
<trkpt lat="57.723470" lon="10.553795">
<ele>3.685876</ele>
<time>2026-07-17T11:47:40.000Z</time>
</trkpt>
<trkpt lat="57.723481" lon="10.553912">
<ele>3.685125</ele>
<time>2026-07-17T11:47:41.000Z</time>
</trkpt>
<trkpt lat="57.723493" lon="10.554027">
<ele>3.676092</ele>
<time>2026-07-17T11:47:42.000Z</time>
</trkpt>
<trkpt lat="57.723504" lon="10.554140">
<ele>3.667237</ele>
<time>2026-07-17T11:47:43.000Z</time>
</trkpt>
<trkpt lat="57.723519" lon="10.554254">
<ele>3.658185</ele>
<time>2026-07-17T11:47:44.000Z</time>
</trkpt>
<trkpt lat="57.723530" lon="10.554363">
<ele>3.649633</ele>
<time>2026-07-17T11:47:45.000Z</time>
</trkpt>
<trkpt lat="57.723538" lon="10.554465">
<ele>3.641685</ele>
<time>2026-07-17T11:47:46.000Z</time>
</trkpt>
<trkpt lat="57.723550" lon="10.554573">
<ele>3.633181</ele>
<time>2026-07-17T11:47:47.000Z</time>
</trkpt>
<trkpt lat="57.723561" lon="10.554678">
<ele>3.624932</ele>
<time>2026-07-17T11:47:48.000Z</time>
</trkpt>
<trkpt lat="57.723573" lon="10.554784">
<ele>3.616578</ele>
<time>2026-07-17T11:47:49.000Z</time>
</trkpt>
<trkpt lat="57.723584" lon="10.554890">
<ele>3.608254</ele>
<time>2026-07-17T11:47:50.000Z</time>
</trkpt>
<trkpt lat="57.723594" lon="10.554983">
<ele>3.600940</ele>
<time>2026-07-17T11:47:51.000Z</time>
</trkpt>
<trkpt lat="57.723607" lon="10.555098">
<ele>3.591878</ele>
<time>2026-07-17T11:47:52.000Z</time>
</trkpt>
<trkpt lat="57.723618" lon="10.555203">
<ele>3.583629</ele>
<time>2026-07-17T11:47:53.000Z</time>
</trkpt>
<trkpt lat="57.723630" lon="10.555307">
<ele>3.575426</ele>
<time>2026-07-17T11:47:54.000Z</time>
</trkpt>
<trkpt lat="57.723641" lon="10.555412">
<ele>3.567177</ele>
<time>2026-07-17T11:47:55.000Z</time>
</trkpt>
<trkpt lat="57.723652" lon="10.555515">
<ele>3.559079</ele>
<time>2026-07-17T11:47:56.000Z</time>
</trkpt>
<trkpt lat="57.723661" lon="10.555628">
<ele>3.550271</ele>
<time>2026-07-17T11:47:57.000Z</time>
</trkpt>
<trkpt lat="57.723676" lon="10.555733">
<ele>3.541892</ele>
<time>2026-07-17T11:47:58.000Z</time>
</trkpt>
<trkpt lat="57.723691" lon="10.555840">
<ele>3.533363</ele>
<time>2026-07-17T11:47:59.000Z</time>
</trkpt>
<trkpt lat="57.723703" lon="10.555940">
<ele>3.525462</ele>
<time>2026-07-17T11:48:00.000Z</time>
</trkpt>
<trkpt lat="57.723717" lon="10.556041">
<ele>3.517417</ele>
<time>2026-07-17T11:48:01.000Z</time>
</trkpt>
<trkpt lat="57.723729" lon="10.556149">
<ele>3.508913</ele>
<time>2026-07-17T11:48:02.000Z</time>
</trkpt>
<trkpt lat="57.723741" lon="10.556254">
<ele>3.500635</ele>
<time>2026-07-17T11:48:03.000Z</time>
</trkpt>
<trkpt lat="57.723752" lon="10.556363">
<ele>3.492083</ele>
<time>2026-07-17T11:48:04.000Z</time>
</trkpt>
<trkpt lat="57.723767" lon="10.556469">
<ele>3.483629</ele>
<time>2026-07-17T11:48:05.000Z</time>
</trkpt>
<trkpt lat="57.723782" lon="10.556574">
<ele>3.475250</ele>
<time>2026-07-17T11:48:06.000Z</time>
</trkpt>
<trkpt lat="57.723798" lon="10.556685">
<ele>3.466386</ele>
<time>2026-07-17T11:48:07.000Z</time>
</trkpt>
<trkpt lat="57.723811" lon="10.556776">
<ele>3.459124</ele>
<time>2026-07-17T11:48:08.000Z</time>
</trkpt>
<trkpt lat="57.723825" lon="10.556902">
<ele>3.449202</ele>
<time>2026-07-17T11:48:09.000Z</time>
</trkpt>
<trkpt lat="57.723836" lon="10.557011">
<ele>3.440651</ele>
<time>2026-07-17T11:48:10.000Z</time>
</trkpt>
<trkpt lat="57.723852" lon="10.557123">
<ele>3.431713</ele>
<time>2026-07-17T11:48:11.000Z</time>
</trkpt>
<trkpt lat="57.723866" lon="10.557228">
<ele>3.421548</ele>
<time>2026-07-17T11:48:12.000Z</time>
</trkpt>
<trkpt lat="57.723879" lon="10.557340">
<ele>3.409357</ele>
<time>2026-07-17T11:48:13.000Z</time>
</trkpt>
<trkpt lat="57.723893" lon="10.557448">
<ele>3.397537</ele>
<time>2026-07-17T11:48:14.000Z</time>
</trkpt>
<trkpt lat="57.723904" lon="10.557547">
<ele>3.386782</ele>
<time>2026-07-17T11:48:15.000Z</time>
</trkpt>
<trkpt lat="57.723920" lon="10.557657">
<ele>3.374656</ele>
<time>2026-07-17T11:48:16.000Z</time>
</trkpt>
<trkpt lat="57.723935" lon="10.557761">
<ele>3.363198</ele>
<time>2026-07-17T11:48:17.000Z</time>
</trkpt>
<trkpt lat="57.723947" lon="10.557869">
<ele>3.351465</ele>
<time>2026-07-17T11:48:18.000Z</time>
</trkpt>
<trkpt lat="57.723962" lon="10.557973">
<ele>3.340007</ele>
<time>2026-07-17T11:48:19.000Z</time>
</trkpt>
<trkpt lat="57.723977" lon="10.558077">
<ele>3.328549</ele>
<time>2026-07-17T11:48:20.000Z</time>
</trkpt>
<trkpt lat="57.723992" lon="10.558178">
<ele>3.317399</ele>
<time>2026-07-17T11:48:21.000Z</time>
</trkpt>
<trkpt lat="57.724004" lon="10.558285">
<ele>3.305770</ele>
<time>2026-07-17T11:48:22.000Z</time>
</trkpt>
<trkpt lat="57.724015" lon="10.558393">
<ele>3.294076</ele>
<time>2026-07-17T11:48:23.000Z</time>
</trkpt>
<trkpt lat="57.724027" lon="10.558491">
<ele>3.283382</ele>
<time>2026-07-17T11:48:24.000Z</time>
</trkpt>
<trkpt lat="57.724042" lon="10.558593">
<ele>3.272130</ele>
<time>2026-07-17T11:48:25.000Z</time>
</trkpt>
<trkpt lat="57.724053" lon="10.558693">
<ele>3.261270</ele>
<time>2026-07-17T11:48:26.000Z</time>
</trkpt>
<trkpt lat="57.724069" lon="10.558799">
<ele>3.249555</ele>
<time>2026-07-17T11:48:27.000Z</time>
</trkpt>
<trkpt lat="57.724080" lon="10.558901">
<ele>3.238487</ele>
<time>2026-07-17T11:48:28.000Z</time>
</trkpt>
<trkpt lat="57.724095" lon="10.559004">
<ele>3.227132</ele>
<time>2026-07-17T11:48:29.000Z</time>
</trkpt>
<trkpt lat="57.724111" lon="10.559107">
<ele>3.215722</ele>
<time>2026-07-17T11:48:30.000Z</time>
</trkpt>
<trkpt lat="57.724124" lon="10.559196">
<ele>3.205909</ele>
<time>2026-07-17T11:48:31.000Z</time>
</trkpt>
<trkpt lat="57.724141" lon="10.559318">
<ele>3.192498</ele>
<time>2026-07-17T11:48:32.000Z</time>
</trkpt>
<trkpt lat="57.724153" lon="10.559420">
<ele>3.181389</ele>
<time>2026-07-17T11:48:33.000Z</time>
</trkpt>
<trkpt lat="57.724168" lon="10.559533">
<ele>3.169005</ele>
<time>2026-07-17T11:48:34.000Z</time>
</trkpt>
<trkpt lat="57.724179" lon="10.559649">
<ele>3.156474</ele>
<time>2026-07-17T11:48:35.000Z</time>
</trkpt>
<trkpt lat="57.724195" lon="10.559761">
<ele>3.144143</ele>
<time>2026-07-17T11:48:36.000Z</time>
</trkpt>
<trkpt lat="57.724214" lon="10.559877">
<ele>3.131238</ele>
<time>2026-07-17T11:48:37.000Z</time>
</trkpt>
<trkpt lat="57.724228" lon="10.559980">
<ele>3.119934</ele>
<time>2026-07-17T11:48:38.000Z</time>
</trkpt>
<trkpt lat="57.724244" lon="10.560101">
<ele>3.106675</ele>
<time>2026-07-17T11:48:39.000Z</time>
</trkpt>
<trkpt lat="57.724259" lon="10.560212">
<ele>3.094497</ele>
<time>2026-07-17T11:48:40.000Z</time>
</trkpt>
<trkpt lat="57.724271" lon="10.560318">
<ele>3.082973</ele>
<time>2026-07-17T11:48:41.000Z</time>
</trkpt>
<trkpt lat="57.724286" lon="10.560425">
<ele>3.071207</ele>
<time>2026-07-17T11:48:42.000Z</time>
</trkpt>
<trkpt lat="57.724298" lon="10.560531">
<ele>3.042993</ele>
<time>2026-07-17T11:48:43.000Z</time>
</trkpt>
<trkpt lat="57.724313" lon="10.560631">
<ele>3.013934</ele>
<time>2026-07-17T11:48:44.000Z</time>
</trkpt>
<trkpt lat="57.724324" lon="10.560727">
<ele>2.986465</ele>
<time>2026-07-17T11:48:45.000Z</time>
</trkpt>
<trkpt lat="57.724340" lon="10.560824">
<ele>2.958063</ele>
<time>2026-07-17T11:48:46.000Z</time>
</trkpt>
<trkpt lat="57.724355" lon="10.560917">
<ele>2.930884</ele>
<time>2026-07-17T11:48:47.000Z</time>
</trkpt>
<trkpt lat="57.724369" lon="10.561004">
<ele>2.905464</ele>
<time>2026-07-17T11:48:48.000Z</time>
</trkpt>
<trkpt lat="57.724381" lon="10.561098">
<ele>2.878425</ele>
<time>2026-07-17T11:48:49.000Z</time>
</trkpt>
<trkpt lat="57.724389" lon="10.561187">
<ele>2.853176</ele>
<time>2026-07-17T11:48:50.000Z</time>
</trkpt>
<trkpt lat="57.724396" lon="10.561274">
<ele>2.828562</ele>
<time>2026-07-17T11:48:51.000Z</time>
</trkpt>
<trkpt lat="57.724400" lon="10.561369">
<ele>2.801902</ele>
<time>2026-07-17T11:48:52.000Z</time>
</trkpt>
<trkpt lat="57.724408" lon="10.561463">
<ele>2.775273</ele>
<time>2026-07-17T11:48:53.000Z</time>
</trkpt>
<trkpt lat="57.724415" lon="10.561559">
<ele>2.748167</ele>
<time>2026-07-17T11:48:54.000Z</time>
</trkpt>
<trkpt lat="57.724419" lon="10.561652">
<ele>2.722065</ele>
<time>2026-07-17T11:48:55.000Z</time>
</trkpt>
<trkpt lat="57.724426" lon="10.561741">
<ele>2.696897</ele>
<time>2026-07-17T11:48:56.000Z</time>
</trkpt>
<trkpt lat="57.724426" lon="10.561839">
<ele>2.669481</ele>
<time>2026-07-17T11:48:57.000Z</time>
</trkpt>
<trkpt lat="57.724420" lon="10.561909">
<ele>2.649647</ele>
<time>2026-07-17T11:48:58.000Z</time>
</trkpt>
<trkpt lat="57.724402" lon="10.562032">
<ele>2.613967</ele>
<time>2026-07-17T11:48:59.000Z</time>
</trkpt>
<trkpt lat="57.724386" lon="10.562128">
<ele>2.585833</ele>
<time>2026-07-17T11:49:00.000Z</time>
</trkpt>
<trkpt lat="57.724364" lon="10.562217">
<ele>2.558395</ele>
<time>2026-07-17T11:49:01.000Z</time>
</trkpt>
<trkpt lat="57.724341" lon="10.562304">
<ele>2.531237</ele>
<time>2026-07-17T11:49:02.000Z</time>
</trkpt>
<trkpt lat="57.724318" lon="10.562386">
<ele>2.505324</ele>
<time>2026-07-17T11:49:03.000Z</time>
</trkpt>
<trkpt lat="57.724291" lon="10.562475">
<ele>2.476688</ele>
<time>2026-07-17T11:49:04.000Z</time>
</trkpt>
<trkpt lat="57.724264" lon="10.562559">
<ele>2.449259</ele>
<time>2026-07-17T11:49:05.000Z</time>
</trkpt>
<trkpt lat="57.724236" lon="10.562645">
<ele>2.421080</ele>
<time>2026-07-17T11:49:06.000Z</time>
</trkpt>
<trkpt lat="57.724206" lon="10.562728">
<ele>2.393040</ele>
<time>2026-07-17T11:49:07.000Z</time>
</trkpt>
<trkpt lat="57.724177" lon="10.562805">
<ele>2.366680</ele>
<time>2026-07-17T11:49:08.000Z</time>
</trkpt>
<trkpt lat="57.724149" lon="10.562892">
<ele>2.338262</ele>
<time>2026-07-17T11:49:09.000Z</time>
</trkpt>
<trkpt lat="57.724120" lon="10.562969">
<ele>2.311901</ele>
<time>2026-07-17T11:49:10.000Z</time>
</trkpt>
<trkpt lat="57.724088" lon="10.563057">
<ele>2.282116</ele>
<time>2026-07-17T11:49:11.000Z</time>
</trkpt>
<trkpt lat="57.724057" lon="10.563140">
<ele>2.253779</ele>
<time>2026-07-17T11:49:12.000Z</time>
</trkpt>
<trkpt lat="57.724032" lon="10.563218">
<ele>2.228329</ele>
<time>2026-07-17T11:49:13.000Z</time>
</trkpt>
<trkpt lat="57.724004" lon="10.563302">
<ele>2.200626</ele>
<time>2026-07-17T11:49:14.000Z</time>
</trkpt>
<trkpt lat="57.723981" lon="10.563383">
<ele>2.174960</ele>
<time>2026-07-17T11:49:15.000Z</time>
</trkpt>
<trkpt lat="57.723955" lon="10.563462">
<ele>2.148998</ele>
<time>2026-07-17T11:49:16.000Z</time>
</trkpt>
<trkpt lat="57.723928" lon="10.563543">
<ele>2.126606</ele>
<time>2026-07-17T11:49:17.000Z</time>
</trkpt>
<trkpt lat="57.723901" lon="10.563623">
<ele>2.121650</ele>
<time>2026-07-17T11:49:18.000Z</time>
</trkpt>
<trkpt lat="57.723875" lon="10.563703">
<ele>2.116746</ele>
<time>2026-07-17T11:49:19.000Z</time>
</trkpt>
<trkpt lat="57.723844" lon="10.563786">
<ele>2.111442</ele>
<time>2026-07-17T11:49:20.000Z</time>
</trkpt>
<trkpt lat="57.723819" lon="10.563862">
<ele>2.106768</ele>
<time>2026-07-17T11:49:21.000Z</time>
</trkpt>
<trkpt lat="57.723790" lon="10.563952">
<ele>2.101263</ele>
<time>2026-07-17T11:49:22.000Z</time>
</trkpt>
<trkpt lat="57.723763" lon="10.564038">
<ele>2.096039</ele>
<time>2026-07-17T11:49:23.000Z</time>
</trkpt>
<trkpt lat="57.723733" lon="10.564121">
<ele>2.090791</ele>
<time>2026-07-17T11:49:24.000Z</time>
</trkpt>
<trkpt lat="57.723706" lon="10.564207">
<ele>2.085567</ele>
<time>2026-07-17T11:49:25.000Z</time>
</trkpt>
<trkpt lat="57.723681" lon="10.564283">
<ele>2.080893</ele>
<time>2026-07-17T11:49:26.000Z</time>
</trkpt>
<trkpt lat="57.723649" lon="10.564371">
<ele>2.075318</ele>
<time>2026-07-17T11:49:27.000Z</time>
</trkpt>
<trkpt lat="57.723623" lon="10.564451">
<ele>2.070413</ele>
<time>2026-07-17T11:49:28.000Z</time>
</trkpt>
<trkpt lat="57.723593" lon="10.564531">
<ele>2.065294</ele>
<time>2026-07-17T11:49:29.000Z</time>
</trkpt>
<trkpt lat="57.723558" lon="10.564613">
<ele>2.059797</ele>
<time>2026-07-17T11:49:30.000Z</time>
</trkpt>
<trkpt lat="57.723528" lon="10.564690">
<ele>2.054806</ele>
<time>2026-07-17T11:49:31.000Z</time>
</trkpt>
<trkpt lat="57.723497" lon="10.564771">
<ele>2.049588</ele>
<time>2026-07-17T11:49:32.000Z</time>
</trkpt>
<trkpt lat="57.723462" lon="10.564850">
<ele>2.044212</ele>
<time>2026-07-17T11:49:33.000Z</time>
</trkpt>
<trkpt lat="57.723431" lon="10.564929">
<ele>2.039079</ele>
<time>2026-07-17T11:49:34.000Z</time>
</trkpt>
<trkpt lat="57.723398" lon="10.565004">
<ele>2.033990</ele>
<time>2026-07-17T11:49:35.000Z</time>
</trkpt>
<trkpt lat="57.723375" lon="10.565070">
<ele>2.029863</ele>
<time>2026-07-17T11:49:36.000Z</time>
</trkpt>
<trkpt lat="57.723350" lon="10.565137">
<ele>2.025583</ele>
<time>2026-07-17T11:49:37.000Z</time>
</trkpt>
<trkpt lat="57.723318" lon="10.565223">
<ele>2.020094</ele>
<time>2026-07-17T11:49:38.000Z</time>
</trkpt>
<trkpt lat="57.723291" lon="10.565292">
<ele>2.015614</ele>
<time>2026-07-17T11:49:39.000Z</time>
</trkpt>
<trkpt lat="57.723264" lon="10.565356">
<ele>2.011343</ele>
<time>2026-07-17T11:49:40.000Z</time>
</trkpt>
<trkpt lat="57.723238" lon="10.565420">
<ele>2.007132</ele>
<time>2026-07-17T11:49:41.000Z</time>
</trkpt>
<trkpt lat="57.723211" lon="10.565481">
<ele>2.002983</ele>
<time>2026-07-17T11:49:42.000Z</time>
</trkpt>
<trkpt lat="57.723188" lon="10.565536">
<ele>1.999325</ele>
<time>2026-07-17T11:49:43.000Z</time>
</trkpt>
<trkpt lat="57.723166" lon="10.565590">
<ele>1.995768</ele>
<time>2026-07-17T11:49:44.000Z</time>
</trkpt>
<trkpt lat="57.723148" lon="10.565636">
<ele>1.992782</ele>
<time>2026-07-17T11:49:45.000Z</time>
</trkpt>
<trkpt lat="57.723123" lon="10.565681">
<ele>1.989382</ele>
<time>2026-07-17T11:49:46.000Z</time>
</trkpt>
<trkpt lat="57.723097" lon="10.565706">
<ele>1.986516</ele>
<time>2026-07-17T11:49:47.000Z</time>
</trkpt>
<trkpt lat="57.723070" lon="10.565712">
<ele>1.983849</ele>
<time>2026-07-17T11:49:48.000Z</time>
</trkpt>
<trkpt lat="57.723049" lon="10.565697">
<ele>1.981645</ele>
<time>2026-07-17T11:49:49.000Z</time>
</trkpt>
<trkpt lat="57.723013" lon="10.565676">
<ele>1.977948</ele>
<time>2026-07-17T11:49:50.000Z</time>
</trkpt>
<trkpt lat="57.722983" lon="10.565661">
<ele>1.974903</ele>
<time>2026-07-17T11:49:51.000Z</time>
</trkpt>
<trkpt lat="57.722947" lon="10.565644">
<ele>1.971262</ele>
<time>2026-07-17T11:49:52.000Z</time>
</trkpt>
<trkpt lat="57.722914" lon="10.565637">
<ele>1.968005</ele>
<time>2026-07-17T11:49:53.000Z</time>
</trkpt>
<trkpt lat="57.722870" lon="10.565637">
<ele>1.963691</ele>
<time>2026-07-17T11:49:54.000Z</time>
</trkpt>
<trkpt lat="57.722830" lon="10.565642">
<ele>1.959759</ele>
<time>2026-07-17T11:49:55.000Z</time>
</trkpt>
<trkpt lat="57.722782" lon="10.565653">
<ele>1.955017</ele>
<time>2026-07-17T11:49:56.000Z</time>
</trkpt>
<trkpt lat="57.722739" lon="10.565669">
<ele>1.950540</ele>
<time>2026-07-17T11:49:57.000Z</time>
</trkpt>
<trkpt lat="57.722687" lon="10.565689">
<ele>1.943489</ele>
<time>2026-07-17T11:49:58.000Z</time>
</trkpt>
<trkpt lat="57.722644" lon="10.565706">
<ele>1.937652</ele>
<time>2026-07-17T11:49:59.000Z</time>
</trkpt>
<trkpt lat="57.722591" lon="10.565725">
<ele>1.930486</ele>
<time>2026-07-17T11:50:00.000Z</time>
</trkpt>
<trkpt lat="57.722541" lon="10.565745">
<ele>1.923695</ele>
<time>2026-07-17T11:50:01.000Z</time>
</trkpt>
<trkpt lat="57.722492" lon="10.565765">
<ele>1.917035</ele>
<time>2026-07-17T11:50:02.000Z</time>
</trkpt>
<trkpt lat="57.722442" lon="10.565788">
<ele>1.910197</ele>
<time>2026-07-17T11:50:03.000Z</time>
</trkpt>
<trkpt lat="57.722394" lon="10.565810">
<ele>1.903634</ele>
<time>2026-07-17T11:50:04.000Z</time>
</trkpt>
<trkpt lat="57.722343" lon="10.565830">
<ele>1.896713</ele>
<time>2026-07-17T11:50:05.000Z</time>
</trkpt>
<trkpt lat="57.722294" lon="10.565849">
<ele>1.890067</ele>
<time>2026-07-17T11:50:06.000Z</time>
</trkpt>
<trkpt lat="57.722248" lon="10.565872">
<ele>1.883744</ele>
<time>2026-07-17T11:50:07.000Z</time>
</trkpt>
<trkpt lat="57.722198" lon="10.565893">
<ele>1.876938</ele>
<time>2026-07-17T11:50:08.000Z</time>
</trkpt>
<trkpt lat="57.722151" lon="10.565916">
<ele>1.870487</ele>
<time>2026-07-17T11:50:09.000Z</time>
</trkpt>
<trkpt lat="57.722103" lon="10.565939">
<ele>1.863906</ele>
<time>2026-07-17T11:50:10.000Z</time>
</trkpt>
<trkpt lat="57.722058" lon="10.565958">
<ele>1.857780</ele>
<time>2026-07-17T11:50:11.000Z</time>
</trkpt>
<trkpt lat="57.722011" lon="10.565982">
<ele>1.851310</ele>
<time>2026-07-17T11:50:12.000Z</time>
</trkpt>
<trkpt lat="57.721965" lon="10.566003">
<ele>1.845021</ele>
<time>2026-07-17T11:50:13.000Z</time>
</trkpt>
<trkpt lat="57.721916" lon="10.566022">
<ele>1.838376</ele>
<time>2026-07-17T11:50:14.000Z</time>
</trkpt>
<trkpt lat="57.721872" lon="10.566039">
<ele>1.832409</ele>
<time>2026-07-17T11:50:15.000Z</time>
</trkpt>
<trkpt lat="57.721835" lon="10.566054">
<ele>1.827381</ele>
<time>2026-07-17T11:50:16.000Z</time>
</trkpt>
<trkpt lat="57.721780" lon="10.566078">
<ele>1.819881</ele>
<time>2026-07-17T11:50:17.000Z</time>
</trkpt>
<trkpt lat="57.721733" lon="10.566100">
<ele>1.813446</ele>
<time>2026-07-17T11:50:18.000Z</time>
</trkpt>
<trkpt lat="57.721687" lon="10.566120">
<ele>1.807175</ele>
<time>2026-07-17T11:50:19.000Z</time>
</trkpt>
<trkpt lat="57.721642" lon="10.566144">
<ele>1.800960</ele>
<time>2026-07-17T11:50:20.000Z</time>
</trkpt>
<trkpt lat="57.721597" lon="10.566166">
<ele>1.794784</ele>
<time>2026-07-17T11:50:21.000Z</time>
</trkpt>
<trkpt lat="57.721550" lon="10.566187">
<ele>1.788366</ele>
<time>2026-07-17T11:50:22.000Z</time>
</trkpt>
<trkpt lat="57.721504" lon="10.566207">
<ele>1.782094</ele>
<time>2026-07-17T11:50:23.000Z</time>
</trkpt>
<trkpt lat="57.721454" lon="10.566230">
<ele>1.775256</ele>
<time>2026-07-17T11:50:24.000Z</time>
</trkpt>
<trkpt lat="57.721410" lon="10.566253">
<ele>1.769189</ele>
<time>2026-07-17T11:50:25.000Z</time>
</trkpt>
<trkpt lat="57.721364" lon="10.566273">
<ele>1.762917</ele>
<time>2026-07-17T11:50:26.000Z</time>
</trkpt>
<trkpt lat="57.721313" lon="10.566294">
<ele>1.755982</ele>
<time>2026-07-17T11:50:27.000Z</time>
</trkpt>
<trkpt lat="57.721267" lon="10.566316">
<ele>1.749677</ele>
<time>2026-07-17T11:50:28.000Z</time>
</trkpt>
<trkpt lat="57.721217" lon="10.566339">
<ele>1.742839</ele>
<time>2026-07-17T11:50:29.000Z</time>
</trkpt>
<trkpt lat="57.721169" lon="10.566361">
<ele>1.736275</ele>
<time>2026-07-17T11:50:30.000Z</time>
</trkpt>
<trkpt lat="57.721123" lon="10.566387">
<ele>1.729894</ele>
<time>2026-07-17T11:50:31.000Z</time>
</trkpt>
<trkpt lat="57.721073" lon="10.566412">
<ele>1.723021</ele>
<time>2026-07-17T11:50:32.000Z</time>
</trkpt>
<trkpt lat="57.721027" lon="10.566437">
<ele>1.716659</ele>
<time>2026-07-17T11:50:33.000Z</time>
</trkpt>
<trkpt lat="57.720982" lon="10.566461">
<ele>1.706176</ele>
<time>2026-07-17T11:50:34.000Z</time>
</trkpt>
<trkpt lat="57.720936" lon="10.566488">
<ele>1.685366</ele>
<time>2026-07-17T11:50:35.000Z</time>
</trkpt>
<trkpt lat="57.720888" lon="10.566516">
<ele>1.663662</ele>
<time>2026-07-17T11:50:36.000Z</time>
</trkpt>
<trkpt lat="57.720841" lon="10.566551">
<ele>1.641828</ele>
<time>2026-07-17T11:50:37.000Z</time>
</trkpt>
<trkpt lat="57.720800" lon="10.566584">
<ele>1.622563</ele>
<time>2026-07-17T11:50:38.000Z</time>
</trkpt>
<trkpt lat="57.720760" lon="10.566620">
<ele>1.603404</ele>
<time>2026-07-17T11:50:39.000Z</time>
</trkpt>
<trkpt lat="57.720718" lon="10.566657">
<ele>1.583367</ele>
<time>2026-07-17T11:50:40.000Z</time>
</trkpt>
<trkpt lat="57.720677" lon="10.566696">
<ele>1.563515</ele>
<time>2026-07-17T11:50:41.000Z</time>
</trkpt>
<trkpt lat="57.720638" lon="10.566739">
<ele>1.543977</ele>
<time>2026-07-17T11:50:42.000Z</time>
</trkpt>
<trkpt lat="57.720596" lon="10.566789">
<ele>1.522492</ele>
<time>2026-07-17T11:50:43.000Z</time>
</trkpt>
<trkpt lat="57.720555" lon="10.566838">
<ele>1.501495</ele>
<time>2026-07-17T11:50:44.000Z</time>
</trkpt>
<trkpt lat="57.720516" lon="10.566888">
<ele>1.481091</ele>
<time>2026-07-17T11:50:45.000Z</time>
</trkpt>
<trkpt lat="57.720479" lon="10.566942">
<ele>1.460840</ele>
<time>2026-07-17T11:50:46.000Z</time>
</trkpt>
<trkpt lat="57.720441" lon="10.566997">
<ele>1.440107</ele>
<time>2026-07-17T11:50:47.000Z</time>
</trkpt>
<trkpt lat="57.720399" lon="10.567057">
<ele>1.417302</ele>
<time>2026-07-17T11:50:48.000Z</time>
</trkpt>
<trkpt lat="57.720365" lon="10.567116">
<ele>1.397291</ele>
<time>2026-07-17T11:50:49.000Z</time>
</trkpt>
<trkpt lat="57.720329" lon="10.567173">
<ele>1.376939</ele>
<time>2026-07-17T11:50:50.000Z</time>
</trkpt>
<trkpt lat="57.720292" lon="10.567238">
<ele>1.355037</ele>
<time>2026-07-17T11:50:51.000Z</time>
</trkpt>
<trkpt lat="57.720253" lon="10.567301">
<ele>1.332802</ele>
<time>2026-07-17T11:50:52.000Z</time>
</trkpt>
<trkpt lat="57.720220" lon="10.567364">
<ele>1.312458</ele>
<time>2026-07-17T11:50:53.000Z</time>
</trkpt>
<trkpt lat="57.720189" lon="10.567427">
<ele>1.292708</ele>
<time>2026-07-17T11:50:54.000Z</time>
</trkpt>
<trkpt lat="57.720160" lon="10.567486">
<ele>1.274222</ele>
<time>2026-07-17T11:50:55.000Z</time>
</trkpt>
<trkpt lat="57.720121" lon="10.567552">
<ele>1.251529</ele>
<time>2026-07-17T11:50:56.000Z</time>
</trkpt>
<trkpt lat="57.720091" lon="10.567613">
<ele>1.232411</ele>
<time>2026-07-17T11:50:57.000Z</time>
</trkpt>
<trkpt lat="57.720056" lon="10.567678">
<ele>1.211131</ele>
<time>2026-07-17T11:50:58.000Z</time>
</trkpt>
<trkpt lat="57.720025" lon="10.567737">
<ele>1.192050</ele>
<time>2026-07-17T11:50:59.000Z</time>
</trkpt>
<trkpt lat="57.719986" lon="10.567805">
<ele>1.169045</ele>
<time>2026-07-17T11:51:00.000Z</time>
</trkpt>
<trkpt lat="57.719949" lon="10.567867">
<ele>1.147611</ele>
<time>2026-07-17T11:51:01.000Z</time>
</trkpt>
<trkpt lat="57.719918" lon="10.567929">
<ele>1.128030</ele>
<time>2026-07-17T11:51:02.000Z</time>
</trkpt>
<trkpt lat="57.719884" lon="10.567994">
<ele>1.107054</ele>
<time>2026-07-17T11:51:03.000Z</time>
</trkpt>
<trkpt lat="57.719851" lon="10.568057">
<ele>1.086709</ele>
<time>2026-07-17T11:51:04.000Z</time>
</trkpt>
<trkpt lat="57.719816" lon="10.568122">
<ele>1.065429</ele>
<time>2026-07-17T11:51:05.000Z</time>
</trkpt>
<trkpt lat="57.719786" lon="10.568182">
<ele>1.046480</ele>
<time>2026-07-17T11:51:06.000Z</time>
</trkpt>
<trkpt lat="57.719751" lon="10.568248">
<ele>1.025037</ele>
<time>2026-07-17T11:51:07.000Z</time>
</trkpt>
<trkpt lat="57.719716" lon="10.568313">
<ele>1.003757</ele>
<time>2026-07-17T11:51:08.000Z</time>
</trkpt>
<trkpt lat="57.719682" lon="10.568379">
<ele>0.982615</ele>
<time>2026-07-17T11:51:09.000Z</time>
</trkpt>
<trkpt lat="57.719644" lon="10.568443">
<ele>0.960551</ele>
<time>2026-07-17T11:51:10.000Z</time>
</trkpt>
<trkpt lat="57.719610" lon="10.568505">
<ele>0.940064</ele>
<time>2026-07-17T11:51:11.000Z</time>
</trkpt>
<trkpt lat="57.719578" lon="10.568571">
<ele>0.927856</ele>
<time>2026-07-17T11:51:12.000Z</time>
</trkpt>
<trkpt lat="57.719545" lon="10.568633">
<ele>0.917956</ele>
<time>2026-07-17T11:51:13.000Z</time>
</trkpt>
<trkpt lat="57.719510" lon="10.568701">
<ele>0.907274</ele>
<time>2026-07-17T11:51:14.000Z</time>
</trkpt>
<trkpt lat="57.719477" lon="10.568766">
<ele>0.897131</ele>
<time>2026-07-17T11:51:15.000Z</time>
</trkpt>
<trkpt lat="57.719443" lon="10.568832">
<ele>0.886759</ele>
<time>2026-07-17T11:51:16.000Z</time>
</trkpt>
<trkpt lat="57.719404" lon="10.568901">
<ele>0.875396</ele>
<time>2026-07-17T11:51:17.000Z</time>
</trkpt>
<trkpt lat="57.719370" lon="10.568965">
<ele>0.865186</ele>
<time>2026-07-17T11:51:18.000Z</time>
</trkpt>
<trkpt lat="57.719327" lon="10.569033">
<ele>0.853267</ele>
<time>2026-07-17T11:51:19.000Z</time>
</trkpt>
<trkpt lat="57.719290" lon="10.569096">
<ele>0.842676</ele>
<time>2026-07-17T11:51:20.000Z</time>
</trkpt>
<trkpt lat="57.719248" lon="10.569164">
<ele>0.830917</ele>
<time>2026-07-17T11:51:21.000Z</time>
</trkpt>
<trkpt lat="57.719204" lon="10.569231">
<ele>0.818907</ele>
<time>2026-07-17T11:51:22.000Z</time>
</trkpt>
<trkpt lat="57.719162" lon="10.569298">
<ele>0.807222</ele>
<time>2026-07-17T11:51:23.000Z</time>
</trkpt>
<trkpt lat="57.719117" lon="10.569362">
<ele>0.795254</ele>
<time>2026-07-17T11:51:24.000Z</time>
</trkpt>
<trkpt lat="57.719075" lon="10.569423">
<ele>0.783998</ele>
<time>2026-07-17T11:51:25.000Z</time>
</trkpt>
<trkpt lat="57.719029" lon="10.569489">
<ele>0.771725</ele>
<time>2026-07-17T11:51:26.000Z</time>
</trkpt>
<trkpt lat="57.718983" lon="10.569549">
<ele>0.759852</ele>
<time>2026-07-17T11:51:27.000Z</time>
</trkpt>
<trkpt lat="57.718937" lon="10.569610">
<ele>0.747915</ele>
<time>2026-07-17T11:51:28.000Z</time>
</trkpt>
<trkpt lat="57.718891" lon="10.569672">
<ele>0.735912</ele>
<time>2026-07-17T11:51:29.000Z</time>
</trkpt>
<trkpt lat="57.718846" lon="10.569732">
<ele>0.724213</ele>
<time>2026-07-17T11:51:30.000Z</time>
</trkpt>
<trkpt lat="57.718800" lon="10.569789">
<ele>0.712531</ele>
<time>2026-07-17T11:51:31.000Z</time>
</trkpt>
<trkpt lat="57.718758" lon="10.569848">
<ele>0.701411</ele>
<time>2026-07-17T11:51:32.000Z</time>
</trkpt>
<trkpt lat="57.718713" lon="10.569902">
<ele>0.690092</ele>
<time>2026-07-17T11:51:33.000Z</time>
</trkpt>
<trkpt lat="57.718669" lon="10.569956">
<ele>0.678951</ele>
<time>2026-07-17T11:51:34.000Z</time>
</trkpt>
<trkpt lat="57.718618" lon="10.570011">
<ele>0.666487</ele>
<time>2026-07-17T11:51:35.000Z</time>
</trkpt>
<trkpt lat="57.718577" lon="10.570065">
<ele>0.655871</ele>
<time>2026-07-17T11:51:36.000Z</time>
</trkpt>
<trkpt lat="57.718530" lon="10.570120">
<ele>0.644133</ele>
<time>2026-07-17T11:51:37.000Z</time>
</trkpt>
<trkpt lat="57.718489" lon="10.570172">
<ele>0.633646</ele>
<time>2026-07-17T11:51:38.000Z</time>
</trkpt>
<trkpt lat="57.718441" lon="10.570226">
<ele>0.621787</ele>
<time>2026-07-17T11:51:39.000Z</time>
</trkpt>
<trkpt lat="57.718398" lon="10.570277">
<ele>0.611008</ele>
<time>2026-07-17T11:51:40.000Z</time>
</trkpt>
<trkpt lat="57.718352" lon="10.570333">
<ele>0.599388</ele>
<time>2026-07-17T11:51:41.000Z</time>
</trkpt>
<trkpt lat="57.718300" lon="10.570393">
<ele>0.586452</ele>
<time>2026-07-17T11:51:42.000Z</time>
</trkpt>
<trkpt lat="57.718255" lon="10.570446">
<ele>0.575194</ele>
<time>2026-07-17T11:51:43.000Z</time>
</trkpt>
<trkpt lat="57.718207" lon="10.570500">
<ele>0.563335</ele>
<time>2026-07-17T11:51:44.000Z</time>
</trkpt>
<trkpt lat="57.718160" lon="10.570556">
<ele>0.556484</ele>
<time>2026-07-17T11:51:45.000Z</time>
</trkpt>
<trkpt lat="57.718117" lon="10.570606">
<ele>0.561164</ele>
<time>2026-07-17T11:51:46.000Z</time>
</trkpt>
<trkpt lat="57.718071" lon="10.570664">
<ele>0.566291</ele>
<time>2026-07-17T11:51:47.000Z</time>
</trkpt>
<trkpt lat="57.718027" lon="10.570714">
<ele>0.571049</ele>
<time>2026-07-17T11:51:48.000Z</time>
</trkpt>
<trkpt lat="57.717981" lon="10.570768">
<ele>0.576069</ele>
<time>2026-07-17T11:51:49.000Z</time>
</trkpt>
<trkpt lat="57.717944" lon="10.570815">
<ele>0.580202</ele>
<time>2026-07-17T11:51:50.000Z</time>
</trkpt>
<trkpt lat="57.717899" lon="10.570871">
<ele>0.585197</ele>
<time>2026-07-17T11:51:51.000Z</time>
</trkpt>
<trkpt lat="57.717850" lon="10.570928">
<ele>0.590531</ele>
<time>2026-07-17T11:51:52.000Z</time>
</trkpt>
<trkpt lat="57.717808" lon="10.570982">
<ele>0.595241</ele>
<time>2026-07-17T11:51:53.000Z</time>
</trkpt>
<trkpt lat="57.717763" lon="10.571031">
<ele>0.600053</ele>
<time>2026-07-17T11:51:54.000Z</time>
</trkpt>
<trkpt lat="57.717717" lon="10.571084">
<ele>0.605047</ele>
<time>2026-07-17T11:51:55.000Z</time>
</trkpt>
<trkpt lat="57.717671" lon="10.571138">
<ele>0.610066</ele>
<time>2026-07-17T11:51:56.000Z</time>
</trkpt>
<trkpt lat="57.717626" lon="10.571191">
<ele>0.614981</ele>
<time>2026-07-17T11:51:57.000Z</time>
</trkpt>
<trkpt lat="57.717584" lon="10.571244">
<ele>0.619663</ele>
<time>2026-07-17T11:51:58.000Z</time>
</trkpt>
<trkpt lat="57.717548" lon="10.571293">
<ele>0.623778</ele>
<time>2026-07-17T11:51:59.000Z</time>
</trkpt>
<trkpt lat="57.717511" lon="10.571345">
<ele>0.628055</ele>
<time>2026-07-17T11:52:00.000Z</time>
</trkpt>
<trkpt lat="57.717477" lon="10.571394">
<ele>0.632022</ele>
<time>2026-07-17T11:52:01.000Z</time>
</trkpt>
<trkpt lat="57.717439" lon="10.571443">
<ele>0.636287</ele>
<time>2026-07-17T11:52:02.000Z</time>
</trkpt>
<trkpt lat="57.717405" lon="10.571487">
<ele>0.640108</ele>
<time>2026-07-17T11:52:03.000Z</time>
</trkpt>
<trkpt lat="57.717371" lon="10.571533">
<ele>0.643986</ele>
<time>2026-07-17T11:52:04.000Z</time>
</trkpt>
<trkpt lat="57.717338" lon="10.571578">
<ele>0.647761</ele>
<time>2026-07-17T11:52:05.000Z</time>
</trkpt>
<trkpt lat="57.717301" lon="10.571626">
<ele>0.651922</ele>
<time>2026-07-17T11:52:06.000Z</time>
</trkpt>
<trkpt lat="57.717269" lon="10.571667">
<ele>0.655507</ele>
<time>2026-07-17T11:52:07.000Z</time>
</trkpt>
<trkpt lat="57.717238" lon="10.571716">
<ele>0.659257</ele>
<time>2026-07-17T11:52:08.000Z</time>
</trkpt>
<trkpt lat="57.717220" lon="10.571769">
<ele>0.662359</ele>
<time>2026-07-17T11:52:09.000Z</time>
</trkpt>
<trkpt lat="57.717209" lon="10.571837">
<ele>0.665867</ele>
<time>2026-07-17T11:52:10.000Z</time>
</trkpt>
<trkpt lat="57.717213" lon="10.571902">
<ele>0.669098</ele>
<time>2026-07-17T11:52:11.000Z</time>
</trkpt>
<trkpt lat="57.717225" lon="10.571971">
<ele>0.672681</ele>
<time>2026-07-17T11:52:12.000Z</time>
</trkpt>
<trkpt lat="57.717236" lon="10.572034">
<ele>0.675954</ele>
<time>2026-07-17T11:52:13.000Z</time>
</trkpt>
<trkpt lat="57.717252" lon="10.572112">
<ele>0.680079</ele>
<time>2026-07-17T11:52:14.000Z</time>
</trkpt>
<trkpt lat="57.717266" lon="10.572188">
<ele>0.684049</ele>
<time>2026-07-17T11:52:15.000Z</time>
</trkpt>
<trkpt lat="57.717282" lon="10.572274">
<ele>0.688545</ele>
<time>2026-07-17T11:52:16.000Z</time>
</trkpt>
<trkpt lat="57.717297" lon="10.572350">
<ele>0.692546</ele>
<time>2026-07-17T11:52:17.000Z</time>
</trkpt>
<trkpt lat="57.717313" lon="10.572442">
<ele>0.697324</ele>
<time>2026-07-17T11:52:18.000Z</time>
</trkpt>
<trkpt lat="57.717328" lon="10.572530">
<ele>0.701885</ele>
<time>2026-07-17T11:52:19.000Z</time>
</trkpt>
<trkpt lat="57.717343" lon="10.572619">
<ele>0.706493</ele>
<time>2026-07-17T11:52:20.000Z</time>
</trkpt>
<trkpt lat="57.717355" lon="10.572712">
<ele>0.711217</ele>
<time>2026-07-17T11:52:21.000Z</time>
</trkpt>
<trkpt lat="57.717370" lon="10.572805">
<ele>0.716014</ele>
<time>2026-07-17T11:52:22.000Z</time>
</trkpt>
<trkpt lat="57.717381" lon="10.572910">
<ele>0.721211</ele>
<time>2026-07-17T11:52:23.000Z</time>
</trkpt>
<trkpt lat="57.717389" lon="10.573010">
<ele>0.713238</ele>
<time>2026-07-17T11:52:24.000Z</time>
</trkpt>
<trkpt lat="57.717404" lon="10.573109">
<ele>0.705124</ele>
<time>2026-07-17T11:52:25.000Z</time>
</trkpt>
<trkpt lat="57.717416" lon="10.573209">
<ele>0.697043</ele>
<time>2026-07-17T11:52:26.000Z</time>
</trkpt>
<trkpt lat="57.717426" lon="10.573299">
<ele>0.689794</ele>
<time>2026-07-17T11:52:27.000Z</time>
</trkpt>
<trkpt lat="57.717435" lon="10.573420">
<ele>0.680161</ele>
<time>2026-07-17T11:52:28.000Z</time>
</trkpt>
<trkpt lat="57.717446" lon="10.573520">
<ele>0.672111</ele>
<time>2026-07-17T11:52:29.000Z</time>
</trkpt>
<trkpt lat="57.717458" lon="10.573625">
<ele>0.663644</ele>
<time>2026-07-17T11:52:30.000Z</time>
</trkpt>
<trkpt lat="57.717470" lon="10.573731">
<ele>0.655101</ele>
<time>2026-07-17T11:52:31.000Z</time>
</trkpt>
<trkpt lat="57.717484" lon="10.573829">
<ele>0.647102</ele>
<time>2026-07-17T11:52:32.000Z</time>
</trkpt>
<trkpt lat="57.717496" lon="10.573932">
<ele>0.638789</ele>
<time>2026-07-17T11:52:33.000Z</time>
</trkpt>
<trkpt lat="57.717512" lon="10.574044">
<ele>0.629648</ele>
<time>2026-07-17T11:52:34.000Z</time>
</trkpt>
<trkpt lat="57.717526" lon="10.574147">
<ele>0.621267</ele>
<time>2026-07-17T11:52:35.000Z</time>
</trkpt>
<trkpt lat="57.717539" lon="10.574255">
<ele>0.612538</ele>
<time>2026-07-17T11:52:36.000Z</time>
</trkpt>
<trkpt lat="57.717553" lon="10.574360">
<ele>0.604005</ele>
<time>2026-07-17T11:52:37.000Z</time>
</trkpt>
<trkpt lat="57.717565" lon="10.574463">
<ele>0.595692</ele>
<time>2026-07-17T11:52:38.000Z</time>
</trkpt>
<trkpt lat="57.717577" lon="10.574569">
<ele>0.587148</ele>
<time>2026-07-17T11:52:39.000Z</time>
</trkpt>
<trkpt lat="57.717592" lon="10.574669">
<ele>0.578958</ele>
<time>2026-07-17T11:52:40.000Z</time>
</trkpt>
<trkpt lat="57.717604" lon="10.574766">
<ele>0.571108</ele>
<time>2026-07-17T11:52:41.000Z</time>
</trkpt>
<trkpt lat="57.717618" lon="10.574865">
<ele>0.563033</ele>
<time>2026-07-17T11:52:42.000Z</time>
</trkpt>
<trkpt lat="57.717629" lon="10.574963">
<ele>0.555137</ele>
<time>2026-07-17T11:52:43.000Z</time>
</trkpt>
<trkpt lat="57.717637" lon="10.575064">
<ele>0.547086</ele>
<time>2026-07-17T11:52:44.000Z</time>
</trkpt>
<trkpt lat="57.717642" lon="10.575166">
<ele>0.539009</ele>
<time>2026-07-17T11:52:45.000Z</time>
</trkpt>
<trkpt lat="57.717656" lon="10.575266">
<ele>0.530858</ele>
<time>2026-07-17T11:52:46.000Z</time>
</trkpt>
<trkpt lat="57.717663" lon="10.575360">
<ele>0.523374</ele>
<time>2026-07-17T11:52:47.000Z</time>
</trkpt>
<trkpt lat="57.717674" lon="10.575454">
<ele>0.515787</ele>
<time>2026-07-17T11:52:48.000Z</time>
</trkpt>
<trkpt lat="57.717687" lon="10.575568">
<ele>0.506595</ele>
<time>2026-07-17T11:52:49.000Z</time>
</trkpt>
<trkpt lat="57.717698" lon="10.575670">
<ele>0.498391</ele>
<time>2026-07-17T11:52:50.000Z</time>
</trkpt>
<trkpt lat="57.717710" lon="10.575771">
<ele>0.490232</ele>
<time>2026-07-17T11:52:51.000Z</time>
</trkpt>
<trkpt lat="57.717725" lon="10.575873">
<ele>0.481890</ele>
<time>2026-07-17T11:52:52.000Z</time>
</trkpt>
<trkpt lat="57.717737" lon="10.575970">
<ele>0.474039</ele>
<time>2026-07-17T11:52:53.000Z</time>
</trkpt>
<trkpt lat="57.717752" lon="10.576064">
<ele>0.466304</ele>
<time>2026-07-17T11:52:54.000Z</time>
</trkpt>
<trkpt lat="57.717768" lon="10.576158">
<ele>0.458525</ele>
<time>2026-07-17T11:52:55.000Z</time>
</trkpt>
<trkpt lat="57.717787" lon="10.576248">
<ele>0.453536</ele>
<time>2026-07-17T11:52:56.000Z</time>
</trkpt>
<trkpt lat="57.717810" lon="10.576336">
<ele>0.450034</ele>
<time>2026-07-17T11:52:57.000Z</time>
</trkpt>
<trkpt lat="57.717830" lon="10.576427">
<ele>0.446517</ele>
<time>2026-07-17T11:52:58.000Z</time>
</trkpt>
<trkpt lat="57.717856" lon="10.576513">
<ele>0.442985</ele>
<time>2026-07-17T11:52:59.000Z</time>
</trkpt>
<trkpt lat="57.717883" lon="10.576602">
<ele>0.439327</ele>
<time>2026-07-17T11:53:00.000Z</time>
</trkpt>
<trkpt lat="57.717906" lon="10.576695">
<ele>0.435664</ele>
<time>2026-07-17T11:53:01.000Z</time>
</trkpt>
<trkpt lat="57.717928" lon="10.576792">
<ele>0.431897</ele>
<time>2026-07-17T11:53:02.000Z</time>
</trkpt>
<trkpt lat="57.717948" lon="10.576888">
<ele>0.428214</ele>
<time>2026-07-17T11:53:03.000Z</time>
</trkpt>
<trkpt lat="57.717970" lon="10.576987">
<ele>0.424382</ele>
<time>2026-07-17T11:53:04.000Z</time>
</trkpt>
<trkpt lat="57.717986" lon="10.577089">
<ele>0.420582</ele>
<time>2026-07-17T11:53:05.000Z</time>
</trkpt>
<trkpt lat="57.718009" lon="10.577188">
<ele>0.416724</ele>
<time>2026-07-17T11:53:06.000Z</time>
</trkpt>
<trkpt lat="57.718031" lon="10.577282">
<ele>0.413055</ele>
<time>2026-07-17T11:53:07.000Z</time>
</trkpt>
<trkpt lat="57.718054" lon="10.577377">
<ele>0.409327</ele>
<time>2026-07-17T11:53:08.000Z</time>
</trkpt>
<trkpt lat="57.718077" lon="10.577474">
<ele>0.405534</ele>
<time>2026-07-17T11:53:09.000Z</time>
</trkpt>
<trkpt lat="57.718096" lon="10.577567">
<ele>0.401975</ele>
<time>2026-07-17T11:53:10.000Z</time>
</trkpt>
<trkpt lat="57.718115" lon="10.577661">
<ele>0.398383</ele>
<time>2026-07-17T11:53:11.000Z</time>
</trkpt>
<trkpt lat="57.718135" lon="10.577748">
<ele>0.394998</ele>
<time>2026-07-17T11:53:12.000Z</time>
</trkpt>
<trkpt lat="57.718157" lon="10.577833">
<ele>0.391622</ele>
<time>2026-07-17T11:53:13.000Z</time>
</trkpt>
<trkpt lat="57.718181" lon="10.577923">
<ele>0.388027</ele>
<time>2026-07-17T11:53:14.000Z</time>
</trkpt>
<trkpt lat="57.718207" lon="10.578010">
<ele>0.384463</ele>
<time>2026-07-17T11:53:15.000Z</time>
</trkpt>
<trkpt lat="57.718226" lon="10.578099">
<ele>0.381038</ele>
<time>2026-07-17T11:53:16.000Z</time>
</trkpt>
<trkpt lat="57.718249" lon="10.578186">
<ele>0.377568</ele>
<time>2026-07-17T11:53:17.000Z</time>
</trkpt>
<trkpt lat="57.718272" lon="10.578275">
<ele>0.374034</ele>
<time>2026-07-17T11:53:18.000Z</time>
</trkpt>
<trkpt lat="57.718295" lon="10.578364">
<ele>0.370501</ele>
<time>2026-07-17T11:53:19.000Z</time>
</trkpt>
<trkpt lat="57.718317" lon="10.578453">
<ele>0.366995</ele>
<time>2026-07-17T11:53:20.000Z</time>
</trkpt>
<trkpt lat="57.718337" lon="10.578542">
<ele>0.363544</ele>
<time>2026-07-17T11:53:21.000Z</time>
</trkpt>
<trkpt lat="57.718359" lon="10.578625">
<ele>0.360233</ele>
<time>2026-07-17T11:53:22.000Z</time>
</trkpt>
<trkpt lat="57.718383" lon="10.578705">
<ele>0.356953</ele>
<time>2026-07-17T11:53:23.000Z</time>
</trkpt>
<trkpt lat="57.718409" lon="10.578784">
<ele>0.353636</ele>
<time>2026-07-17T11:53:24.000Z</time>
</trkpt>
<trkpt lat="57.718432" lon="10.578865">
<ele>0.350358</ele>
<time>2026-07-17T11:53:25.000Z</time>
</trkpt>
<trkpt lat="57.718459" lon="10.578946">
<ele>0.346945</ele>
<time>2026-07-17T11:53:26.000Z</time>
</trkpt>
<trkpt lat="57.718482" lon="10.579031">
<ele>0.343539</ele>
<time>2026-07-17T11:53:27.000Z</time>
</trkpt>
<trkpt lat="57.718509" lon="10.579116">
<ele>0.340005</ele>
<time>2026-07-17T11:53:28.000Z</time>
</trkpt>
<trkpt lat="57.718540" lon="10.579205">
<ele>0.336207</ele>
<time>2026-07-17T11:53:29.000Z</time>
</trkpt>
<trkpt lat="57.718570" lon="10.579294">
<ele>0.324330</ele>
<time>2026-07-17T11:53:30.000Z</time>
</trkpt>
<trkpt lat="57.718597" lon="10.579386">
<ele>0.310131</ele>
<time>2026-07-17T11:53:31.000Z</time>
</trkpt>
<trkpt lat="57.718624" lon="10.579479">
<ele>0.295814</ele>
<time>2026-07-17T11:53:32.000Z</time>
</trkpt>
<trkpt lat="57.718654" lon="10.579570">
<ele>0.281349</ele>
<time>2026-07-17T11:53:33.000Z</time>
</trkpt>
<trkpt lat="57.718681" lon="10.579662">
<ele>0.267151</ele>
<time>2026-07-17T11:53:34.000Z</time>
</trkpt>
<trkpt lat="57.718707" lon="10.579755">
<ele>0.252953</ele>
<time>2026-07-17T11:53:35.000Z</time>
</trkpt>
<trkpt lat="57.718730" lon="10.579852">
<ele>0.238598</ele>
<time>2026-07-17T11:53:36.000Z</time>
</trkpt>
<trkpt lat="57.718752" lon="10.579947">
<ele>0.224592</ele>
<time>2026-07-17T11:53:37.000Z</time>
</trkpt>
<trkpt lat="57.718772" lon="10.580044">
<ele>0.210529</ele>
<time>2026-07-17T11:53:38.000Z</time>
</trkpt>
<trkpt lat="57.718795" lon="10.580137">
<ele>0.196666</ele>
<time>2026-07-17T11:53:39.000Z</time>
</trkpt>
<trkpt lat="57.718818" lon="10.580227">
<ele>0.183171</ele>
<time>2026-07-17T11:53:40.000Z</time>
</trkpt>
<trkpt lat="57.718846" lon="10.580307">
<ele>0.170234</ele>
<time>2026-07-17T11:53:41.000Z</time>
</trkpt>
<trkpt lat="57.718876" lon="10.580399">
<ele>0.155655</ele>
<time>2026-07-17T11:53:42.000Z</time>
</trkpt>
<trkpt lat="57.718905" lon="10.580482">
<ele>0.142239</ele>
<time>2026-07-17T11:53:43.000Z</time>
</trkpt>
<trkpt lat="57.718928" lon="10.580569">
<ele>0.129109</ele>
<time>2026-07-17T11:53:44.000Z</time>
</trkpt>
<trkpt lat="57.718951" lon="10.580653">
<ele>0.116342</ele>
<time>2026-07-17T11:53:45.000Z</time>
</trkpt>
<trkpt lat="57.718978" lon="10.580742">
<ele>0.102497</ele>
<time>2026-07-17T11:53:46.000Z</time>
</trkpt>
<trkpt lat="57.719005" lon="10.580829">
<ele>0.088888</ele>
<time>2026-07-17T11:53:47.000Z</time>
</trkpt>
<trkpt lat="57.719031" lon="10.580912">
<ele>0.075873</ele>
<time>2026-07-17T11:53:48.000Z</time>
</trkpt>
<trkpt lat="57.719059" lon="10.580994">
<ele>0.062709</ele>
<time>2026-07-17T11:53:49.000Z</time>
</trkpt>
<trkpt lat="57.719089" lon="10.581074">
<ele>0.049487</ele>
<time>2026-07-17T11:53:50.000Z</time>
</trkpt>
<trkpt lat="57.719115" lon="10.581155">
<ele>0.036705</ele>
<time>2026-07-17T11:53:51.000Z</time>
</trkpt>
<trkpt lat="57.719142" lon="10.581235">
<ele>0.023905</ele>
<time>2026-07-17T11:53:52.000Z</time>
</trkpt>
<trkpt lat="57.719168" lon="10.581317">
<ele>0.011007</ele>
<time>2026-07-17T11:53:53.000Z</time>
</trkpt>
<trkpt lat="57.719191" lon="10.581404">
<ele>-0.002123</ele>
<time>2026-07-17T11:53:54.000Z</time>
</trkpt>
<trkpt lat="57.719214" lon="10.581492">
<ele>-0.015375</ele>
<time>2026-07-17T11:53:55.000Z</time>
</trkpt>
<trkpt lat="57.719237" lon="10.581579">
<ele>-0.028505</ele>
<time>2026-07-17T11:53:56.000Z</time>
</trkpt>
<trkpt lat="57.719260" lon="10.581666">
<ele>-0.041635</ele>
<time>2026-07-17T11:53:57.000Z</time>
</trkpt>
<trkpt lat="57.719286" lon="10.581750">
<ele>-0.054766</ele>
<time>2026-07-17T11:53:58.000Z</time>
</trkpt>
<trkpt lat="57.719309" lon="10.581833">
<ele>-0.067414</ele>
<time>2026-07-17T11:53:59.000Z</time>
</trkpt>
<trkpt lat="57.719327" lon="10.581900">
<ele>-0.077558</ele>
<time>2026-07-17T11:54:00.000Z</time>
</trkpt>
<trkpt lat="57.719354" lon="10.581997">
<ele>-0.092353</ele>
<time>2026-07-17T11:54:01.000Z</time>
</trkpt>
<trkpt lat="57.719371" lon="10.582074">
<ele>-0.103622</ele>
<time>2026-07-17T11:54:02.000Z</time>
</trkpt>
<trkpt lat="57.719394" lon="10.582159">
<ele>-0.116510</ele>
<time>2026-07-17T11:54:03.000Z</time>
</trkpt>
<trkpt lat="57.719420" lon="10.582252">
<ele>-0.115041</ele>
<time>2026-07-17T11:54:04.000Z</time>
</trkpt>
<trkpt lat="57.719443" lon="10.582342">
<ele>-0.108503</ele>
<time>2026-07-17T11:54:05.000Z</time>
</trkpt>
<trkpt lat="57.719466" lon="10.582430">
<ele>-0.102083</ele>
<time>2026-07-17T11:54:06.000Z</time>
</trkpt>
<trkpt lat="57.719497" lon="10.582511">
<ele>-0.095552</ele>
<time>2026-07-17T11:54:07.000Z</time>
</trkpt>
<trkpt lat="57.719523" lon="10.582595">
<ele>-0.089190</ele>
<time>2026-07-17T11:54:08.000Z</time>
</trkpt>
<trkpt lat="57.719546" lon="10.582685">
<ele>-0.082651</ele>
<time>2026-07-17T11:54:09.000Z</time>
</trkpt>
<trkpt lat="57.719573" lon="10.582779">
<ele>-0.075657</ele>
<time>2026-07-17T11:54:10.000Z</time>
</trkpt>
<trkpt lat="57.719600" lon="10.582875">
<ele>-0.068547</ele>
<time>2026-07-17T11:54:11.000Z</time>
</trkpt>
<trkpt lat="57.719630" lon="10.582969">
<ele>-0.061371</ele>
<time>2026-07-17T11:54:12.000Z</time>
</trkpt>
<trkpt lat="57.719657" lon="10.583063">
<ele>-0.054376</ele>
<time>2026-07-17T11:54:13.000Z</time>
</trkpt>
<trkpt lat="57.719683" lon="10.583157">
<ele>-0.047439</ele>
<time>2026-07-17T11:54:14.000Z</time>
</trkpt>
<trkpt lat="57.719710" lon="10.583256">
<ele>-0.040154</ele>
<time>2026-07-17T11:54:15.000Z</time>
</trkpt>
<trkpt lat="57.719733" lon="10.583356">
<ele>-0.033019</ele>
<time>2026-07-17T11:54:16.000Z</time>
</trkpt>
<trkpt lat="57.719756" lon="10.583457">
<ele>-0.025824</ele>
<time>2026-07-17T11:54:17.000Z</time>
</trkpt>
<trkpt lat="57.719779" lon="10.583556">
<ele>-0.018749</ele>
<time>2026-07-17T11:54:18.000Z</time>
</trkpt>
<trkpt lat="57.719802" lon="10.583651">
<ele>-0.011914</ele>
<time>2026-07-17T11:54:19.000Z</time>
</trkpt>
<trkpt lat="57.719828" lon="10.583742">
<ele>-0.005150</ele>
<time>2026-07-17T11:54:20.000Z</time>
</trkpt>
<trkpt lat="57.719854" lon="10.583828">
<ele>0.001326</ele>
<time>2026-07-17T11:54:21.000Z</time>
</trkpt>
<trkpt lat="57.719882" lon="10.583913">
<ele>0.007870</ele>
<time>2026-07-17T11:54:22.000Z</time>
</trkpt>
<trkpt lat="57.719908" lon="10.583992">
<ele>0.013951</ele>
<time>2026-07-17T11:54:23.000Z</time>
</trkpt>
<trkpt lat="57.719931" lon="10.584074">
<ele>0.020021</ele>
<time>2026-07-17T11:54:24.000Z</time>
</trkpt>
<trkpt lat="57.719950" lon="10.584153">
<ele>0.025699</ele>
<time>2026-07-17T11:54:25.000Z</time>
</trkpt>
<trkpt lat="57.719969" lon="10.584229">
<ele>0.031198</ele>
<time>2026-07-17T11:54:26.000Z</time>
</trkpt>
<trkpt lat="57.719992" lon="10.584303">
<ele>0.036809</ele>
<time>2026-07-17T11:54:27.000Z</time>
</trkpt>
<trkpt lat="57.720018" lon="10.584374">
<ele>0.042450</ele>
<time>2026-07-17T11:54:28.000Z</time>
</trkpt>
<trkpt lat="57.720042" lon="10.584449">
<ele>0.048180</ele>
<time>2026-07-17T11:54:29.000Z</time>
</trkpt>
<trkpt lat="57.720064" lon="10.584516">
<ele>0.053334</ele>
<time>2026-07-17T11:54:30.000Z</time>
</trkpt>
<trkpt lat="57.720088" lon="10.584583">
<ele>0.058621</ele>
<time>2026-07-17T11:54:31.000Z</time>
</trkpt>
<trkpt lat="57.720119" lon="10.584646">
<ele>0.064235</ele>
<time>2026-07-17T11:54:32.000Z</time>
</trkpt>
<trkpt lat="57.720149" lon="10.584707">
<ele>0.069669</ele>
<time>2026-07-17T11:54:33.000Z</time>
</trkpt>
<trkpt lat="57.720181" lon="10.584760">
<ele>0.074911</ele>
<time>2026-07-17T11:54:34.000Z</time>
</trkpt>
<trkpt lat="57.720218" lon="10.584806">
<ele>0.080361</ele>
<time>2026-07-17T11:54:35.000Z</time>
</trkpt>
<trkpt lat="57.720257" lon="10.584851">
<ele>0.085982</ele>
<time>2026-07-17T11:54:36.000Z</time>
</trkpt>
<trkpt lat="57.720299" lon="10.584893">
<ele>0.091824</ele>
<time>2026-07-17T11:54:37.000Z</time>
</trkpt>
<trkpt lat="57.720338" lon="10.584935">
<ele>0.097345</ele>
<time>2026-07-17T11:54:38.000Z</time>
</trkpt>
<trkpt lat="57.720379" lon="10.584976">
<ele>0.106850</ele>
<time>2026-07-17T11:54:39.000Z</time>
</trkpt>
<trkpt lat="57.720417" lon="10.585020">
<ele>0.120671</ele>
<time>2026-07-17T11:54:40.000Z</time>
</trkpt>
<trkpt lat="57.720449" lon="10.585058">
<ele>0.132393</ele>
<time>2026-07-17T11:54:41.000Z</time>
</trkpt>
<trkpt lat="57.720485" lon="10.585099">
<ele>0.145427</ele>
<time>2026-07-17T11:54:42.000Z</time>
</trkpt>
<trkpt lat="57.720518" lon="10.585134">
<ele>0.157160</ele>
<time>2026-07-17T11:54:43.000Z</time>
</trkpt>
<trkpt lat="57.720554" lon="10.585170">
<ele>0.169784</ele>
<time>2026-07-17T11:54:44.000Z</time>
</trkpt>
<trkpt lat="57.720589" lon="10.585202">
<ele>0.181833</ele>
<time>2026-07-17T11:54:45.000Z</time>
</trkpt>
<trkpt lat="57.720623" lon="10.585237">
<ele>0.193835</ele>
<time>2026-07-17T11:54:46.000Z</time>
</trkpt>
<trkpt lat="57.720653" lon="10.585268">
<ele>0.204435</ele>
<time>2026-07-17T11:54:47.000Z</time>
</trkpt>
<trkpt lat="57.720679" lon="10.585296">
<ele>0.213713</ele>
<time>2026-07-17T11:54:48.000Z</time>
</trkpt>
<trkpt lat="57.720701" lon="10.585316">
<ele>0.221279</ele>
<time>2026-07-17T11:54:49.000Z</time>
</trkpt>
<trkpt lat="57.720721" lon="10.585334">
<ele>0.228143</ele>
<time>2026-07-17T11:54:50.000Z</time>
</trkpt>
<trkpt lat="57.720744" lon="10.585354">
<ele>0.235988</ele>
<time>2026-07-17T11:54:51.000Z</time>
</trkpt>
<trkpt lat="57.720771" lon="10.585376">
<ele>0.245096</ele>
<time>2026-07-17T11:54:52.000Z</time>
</trkpt>
<trkpt lat="57.720794" lon="10.585401">
<ele>0.253323</ele>
<time>2026-07-17T11:54:53.000Z</time>
</trkpt>
<trkpt lat="57.720817" lon="10.585423">
<ele>0.261313</ele>
<time>2026-07-17T11:54:54.000Z</time>
</trkpt>
<trkpt lat="57.720847" lon="10.585451">
<ele>0.271682</ele>
<time>2026-07-17T11:54:55.000Z</time>
</trkpt>
<trkpt lat="57.720873" lon="10.585486">
<ele>0.281587</ele>
<time>2026-07-17T11:54:56.000Z</time>
</trkpt>
<trkpt lat="57.720904" lon="10.585526">
<ele>0.293233</ele>
<time>2026-07-17T11:54:57.000Z</time>
</trkpt>
<trkpt lat="57.720931" lon="10.585562">
<ele>0.303487</ele>
<time>2026-07-17T11:54:58.000Z</time>
</trkpt>
<trkpt lat="57.720958" lon="10.585597">
<ele>0.313645</ele>
<time>2026-07-17T11:54:59.000Z</time>
</trkpt>
<trkpt lat="57.720985" lon="10.585628">
<ele>0.323442</ele>
<time>2026-07-17T11:55:00.000Z</time>
</trkpt>
<trkpt lat="57.721010" lon="10.585662">
<ele>0.333001</ele>
<time>2026-07-17T11:55:01.000Z</time>
</trkpt>
<trkpt lat="57.721030" lon="10.585694">
<ele>0.341138</ele>
<time>2026-07-17T11:55:02.000Z</time>
</trkpt>
<trkpt lat="57.721057" lon="10.585725">
<ele>0.350936</ele>
<time>2026-07-17T11:55:03.000Z</time>
</trkpt>
<trkpt lat="57.721080" lon="10.585753">
<ele>0.359422</ele>
<time>2026-07-17T11:55:04.000Z</time>
</trkpt>
<trkpt lat="57.721106" lon="10.585780">
<ele>0.368619</ele>
<time>2026-07-17T11:55:05.000Z</time>
</trkpt>
<trkpt lat="57.721129" lon="10.585812">
<ele>0.377483</ele>
<time>2026-07-17T11:55:06.000Z</time>
</trkpt>
<trkpt lat="57.721156" lon="10.585839">
<ele>0.386952</ele>
<time>2026-07-17T11:55:07.000Z</time>
</trkpt>
<trkpt lat="57.721179" lon="10.585861">
<ele>0.394941</ele>
<time>2026-07-17T11:55:08.000Z</time>
</trkpt>
<trkpt lat="57.721205" lon="10.585883">
<ele>0.403767</ele>
<time>2026-07-17T11:55:09.000Z</time>
</trkpt>
<trkpt lat="57.721228" lon="10.585908">
<ele>0.411994</ele>
<time>2026-07-17T11:55:10.000Z</time>
</trkpt>
<trkpt lat="57.721247" lon="10.585935">
<ele>0.419372</ele>
<time>2026-07-17T11:55:11.000Z</time>
</trkpt>
<trkpt lat="57.721265" lon="10.585961">
<ele>0.426404</ele>
<time>2026-07-17T11:55:12.000Z</time>
</trkpt>
<trkpt lat="57.721281" lon="10.585988">
<ele>0.433067</ele>
<time>2026-07-17T11:55:13.000Z</time>
</trkpt>
<trkpt lat="57.721300" lon="10.586020">
<ele>0.440972</ele>
<time>2026-07-17T11:55:14.000Z</time>
</trkpt>
<trkpt lat="57.721315" lon="10.586052">
<ele>0.448006</ele>
<time>2026-07-17T11:55:15.000Z</time>
</trkpt>
<trkpt lat="57.721330" lon="10.586087">
<ele>0.455420</ele>
<time>2026-07-17T11:55:16.000Z</time>
</trkpt>
<trkpt lat="57.721346" lon="10.586123">
<ele>0.463157</ele>
<time>2026-07-17T11:55:17.000Z</time>
</trkpt>
<trkpt lat="57.721365" lon="10.586157">
<ele>0.471287</ele>
<time>2026-07-17T11:55:18.000Z</time>
</trkpt>
<trkpt lat="57.721380" lon="10.586190">
<ele>0.478446</ele>
<time>2026-07-17T11:55:19.000Z</time>
</trkpt>
<trkpt lat="57.721395" lon="10.586221">
<ele>0.485357</ele>
<time>2026-07-17T11:55:20.000Z</time>
</trkpt>
<trkpt lat="57.721406" lon="10.586247">
<ele>0.490837</ele>
<time>2026-07-17T11:55:21.000Z</time>
</trkpt>
<trkpt lat="57.721416" lon="10.586272">
<ele>0.495997</ele>
<time>2026-07-17T11:55:22.000Z</time>
</trkpt>
<trkpt lat="57.721490" lon="10.586493">
<ele>0.539089</ele>
<time>2026-07-17T11:55:39.000Z</time>
</trkpt>
<trkpt lat="57.721496" lon="10.586506">
<ele>0.541927</ele>
<time>2026-07-17T11:55:40.000Z</time>
</trkpt>
<trkpt lat="57.721508" lon="10.586522">
<ele>0.546485</ele>
<time>2026-07-17T11:55:41.000Z</time>
</trkpt>
<trkpt lat="57.721512" lon="10.586539">
<ele>0.549553</ele>
<time>2026-07-17T11:55:42.000Z</time>
</trkpt>
<trkpt lat="57.721516" lon="10.586560">
<ele>0.553237</ele>
<time>2026-07-17T11:55:43.000Z</time>
</trkpt>
<trkpt lat="57.721520" lon="10.586587">
<ele>0.557866</ele>
<time>2026-07-17T11:55:44.000Z</time>
</trkpt>
<trkpt lat="57.721524" lon="10.586607">
<ele>0.561394</ele>
<time>2026-07-17T11:55:45.000Z</time>
</trkpt>
<trkpt lat="57.721532" lon="10.586628">
<ele>0.565655</ele>
<time>2026-07-17T11:55:46.000Z</time>
</trkpt>
<trkpt lat="57.721539" lon="10.586652">
<ele>0.570173</ele>
<time>2026-07-17T11:55:47.000Z</time>
</trkpt>
<trkpt lat="57.721547" lon="10.586668">
<ele>0.573794</ele>
<time>2026-07-17T11:55:48.000Z</time>
</trkpt>
<trkpt lat="57.721551" lon="10.586680">
<ele>0.576130</ele>
<time>2026-07-17T11:55:49.000Z</time>
</trkpt>
<trkpt lat="57.721558" lon="10.586701">
<ele>0.580220</ele>
<time>2026-07-17T11:55:50.000Z</time>
</trkpt>
<trkpt lat="57.721563" lon="10.586719">
<ele>0.583572</ele>
<time>2026-07-17T11:55:51.000Z</time>
</trkpt>
<trkpt lat="57.721574" lon="10.586739">
<ele>0.588315</ele>
<time>2026-07-17T11:55:52.000Z</time>
</trkpt>
<trkpt lat="57.721581" lon="10.586762">
<ele>0.592688</ele>
<time>2026-07-17T11:55:53.000Z</time>
</trkpt>
<trkpt lat="57.721589" lon="10.586783">
<ele>0.596949</ele>
<time>2026-07-17T11:55:54.000Z</time>
</trkpt>
<trkpt lat="57.721593" lon="10.586800">
<ele>0.600018</ele>
<time>2026-07-17T11:55:55.000Z</time>
</trkpt>
<trkpt lat="57.721600" lon="10.586816">
<ele>0.603435</ele>
<time>2026-07-17T11:55:56.000Z</time>
</trkpt>
<trkpt lat="57.721608" lon="10.586827">
<ele>0.606505</ele>
<time>2026-07-17T11:55:57.000Z</time>
</trkpt>
<trkpt lat="57.721615" lon="10.586836">
<ele>0.609132</ele>
<time>2026-07-17T11:55:58.000Z</time>
</trkpt>
<trkpt lat="57.721620" lon="10.586852">
<ele>0.612195</ele>
<time>2026-07-17T11:55:59.000Z</time>
</trkpt>
<trkpt lat="57.721631" lon="10.586865">
<ele>0.616218</ele>
<time>2026-07-17T11:56:00.000Z</time>
</trkpt>
<trkpt lat="57.721639" lon="10.586882">
<ele>0.619962</ele>
<time>2026-07-17T11:56:01.000Z</time>
</trkpt>
<trkpt lat="57.721650" lon="10.586899">
<ele>0.624374</ele>
<time>2026-07-17T11:56:02.000Z</time>
</trkpt>
<trkpt lat="57.721658" lon="10.586921">
<ele>0.628771</ele>
<time>2026-07-17T11:56:03.000Z</time>
</trkpt>
<trkpt lat="57.721665" lon="10.586944">
<ele>0.633144</ele>
<time>2026-07-17T11:56:04.000Z</time>
</trkpt>
<trkpt lat="57.721669" lon="10.586966">
<ele>0.636983</ele>
<time>2026-07-17T11:56:05.000Z</time>
</trkpt>
<trkpt lat="57.721677" lon="10.586989">
<ele>0.641518</ele>
<time>2026-07-17T11:56:06.000Z</time>
</trkpt>
<trkpt lat="57.721684" lon="10.587008">
<ele>0.645331</ele>
<time>2026-07-17T11:56:07.000Z</time>
</trkpt>
<trkpt lat="57.721692" lon="10.587025">
<ele>0.649074</ele>
<time>2026-07-17T11:56:08.000Z</time>
</trkpt>
<trkpt lat="57.721700" lon="10.587041">
<ele>0.652695</ele>
<time>2026-07-17T11:56:09.000Z</time>
</trkpt>
<trkpt lat="57.721711" lon="10.587053">
<ele>0.656633</ele>
<time>2026-07-17T11:56:10.000Z</time>
</trkpt>
<trkpt lat="57.721714" lon="10.587068">
<ele>0.657477</ele>
<time>2026-07-17T11:56:11.000Z</time>
</trkpt>
<trkpt lat="57.721718" lon="10.587083">
<ele>0.658107</ele>
<time>2026-07-17T11:56:12.000Z</time>
</trkpt>
<trkpt lat="57.721722" lon="10.587091">
<ele>0.658518</ele>
<time>2026-07-17T11:56:13.000Z</time>
</trkpt>
<trkpt lat="57.721725" lon="10.587105">
<ele>0.659085</ele>
<time>2026-07-17T11:56:14.000Z</time>
</trkpt>
<trkpt lat="57.721728" lon="10.587113">
<ele>0.659452</ele>
<time>2026-07-17T11:56:18.000Z</time>
</trkpt>
<trkpt lat="57.721753" lon="10.587180">
<ele>0.662522</ele>
<time>2026-07-17T11:56:19.000Z</time>
</trkpt>
<trkpt lat="57.721761" lon="10.587197">
<ele>0.663373</ele>
<time>2026-07-17T11:56:20.000Z</time>
</trkpt>
<trkpt lat="57.721768" lon="10.587216">
<ele>0.664240</ele>
<time>2026-07-17T11:56:21.000Z</time>
</trkpt>
<trkpt lat="57.721775" lon="10.587239">
<ele>0.665234</ele>
<time>2026-07-17T11:56:22.000Z</time>
</trkpt>
<trkpt lat="57.721776" lon="10.587265">
<ele>0.666213</ele>
<time>2026-07-17T11:56:23.000Z</time>
</trkpt>
<trkpt lat="57.721783" lon="10.587287">
<ele>0.667175</ele>
<time>2026-07-17T11:56:24.000Z</time>
</trkpt>
<trkpt lat="57.721792" lon="10.587306">
<ele>0.668129</ele>
<time>2026-07-17T11:56:25.000Z</time>
</trkpt>
<trkpt lat="57.721802" lon="10.587328">
<ele>0.669214</ele>
<time>2026-07-17T11:56:26.000Z</time>
</trkpt>
<trkpt lat="57.721806" lon="10.587352">
<ele>0.670159</ele>
<time>2026-07-17T11:56:27.000Z</time>
</trkpt>
<trkpt lat="57.721814" lon="10.587377">
<ele>0.671253</ele>
<time>2026-07-17T11:56:28.000Z</time>
</trkpt>
<trkpt lat="57.721817" lon="10.587399">
<ele>0.672106</ele>
<time>2026-07-17T11:56:29.000Z</time>
</trkpt>
<trkpt lat="57.721821" lon="10.587421">
<ele>0.672979</ele>
<time>2026-07-17T11:56:30.000Z</time>
</trkpt>
<trkpt lat="57.721829" lon="10.587435">
<ele>0.673749</ele>
<time>2026-07-17T11:56:31.000Z</time>
</trkpt>
<trkpt lat="57.721837" lon="10.587452">
<ele>0.674600</ele>
<time>2026-07-17T11:56:32.000Z</time>
</trkpt>
<trkpt lat="57.721840" lon="10.587468">
<ele>0.675237</ele>
<time>2026-07-17T11:56:33.000Z</time>
</trkpt>
<trkpt lat="57.721844" lon="10.587488">
<ele>0.676039</ele>
<time>2026-07-17T11:56:34.000Z</time>
</trkpt>
<trkpt lat="57.721848" lon="10.587509">
<ele>0.676877</ele>
<time>2026-07-17T11:56:35.000Z</time>
</trkpt>
<trkpt lat="57.721852" lon="10.587535">
<ele>0.677893</ele>
<time>2026-07-17T11:56:36.000Z</time>
</trkpt>
<trkpt lat="57.721856" lon="10.587554">
<ele>0.678660</ele>
<time>2026-07-17T11:56:37.000Z</time>
</trkpt>
<trkpt lat="57.721860" lon="10.587574">
<ele>0.679462</ele>
<time>2026-07-17T11:56:38.000Z</time>
</trkpt>
<trkpt lat="57.721867" lon="10.587592">
<ele>0.680299</ele>
<time>2026-07-17T11:56:39.000Z</time>
</trkpt>
<trkpt lat="57.721871" lon="10.587610">
<ele>0.681031</ele>
<time>2026-07-17T11:56:40.000Z</time>
</trkpt>
<trkpt lat="57.721876" lon="10.587625">
<ele>0.681695</ele>
<time>2026-07-17T11:56:41.000Z</time>
</trkpt>
<trkpt lat="57.721883" lon="10.587652">
<ele>0.682822</ele>
<time>2026-07-17T11:56:42.000Z</time>
</trkpt>
<trkpt lat="57.721890" lon="10.587674">
<ele>0.683784</ele>
<time>2026-07-17T11:56:43.000Z</time>
</trkpt>
<trkpt lat="57.721898" lon="10.587695">
<ele>0.684753</ele>
<time>2026-07-17T11:56:44.000Z</time>
</trkpt>
<trkpt lat="57.721906" lon="10.587713">
<ele>0.685633</ele>
<time>2026-07-17T11:56:45.000Z</time>
</trkpt>
<trkpt lat="57.721913" lon="10.587732">
<ele>0.686500</ele>
<time>2026-07-17T11:56:46.000Z</time>
</trkpt>
<trkpt lat="57.721920" lon="10.587751">
<ele>0.687367</ele>
<time>2026-07-17T11:56:47.000Z</time>
</trkpt>
<trkpt lat="57.721924" lon="10.587774">
<ele>0.688275</ele>
<time>2026-07-17T11:56:48.000Z</time>
</trkpt>
<trkpt lat="57.721928" lon="10.587797">
<ele>0.689184</ele>
<time>2026-07-17T11:56:49.000Z</time>
</trkpt>
<trkpt lat="57.721931" lon="10.587818">
<ele>0.690000</ele>
<time>2026-07-17T11:56:50.000Z</time>
</trkpt>
<trkpt lat="57.721931" lon="10.587841">
<ele>0.690864</ele>
<time>2026-07-17T11:56:51.000Z</time>
</trkpt>
<trkpt lat="57.721932" lon="10.587864">
<ele>0.691731</ele>
<time>2026-07-17T11:56:52.000Z</time>
</trkpt>
<trkpt lat="57.721940" lon="10.587885">
<ele>0.692700</ele>
<time>2026-07-17T11:56:53.000Z</time>
</trkpt>
<trkpt lat="57.721947" lon="10.587905">
<ele>0.693598</ele>
<time>2026-07-17T11:56:54.000Z</time>
</trkpt>
<trkpt lat="57.721951" lon="10.587927">
<ele>0.694471</ele>
<time>2026-07-17T11:56:55.000Z</time>
</trkpt>
<trkpt lat="57.721955" lon="10.587945">
<ele>0.695203</ele>
<time>2026-07-17T11:56:56.000Z</time>
</trkpt>
<trkpt lat="57.721959" lon="10.587960">
<ele>0.695833</ele>
<time>2026-07-17T11:56:57.000Z</time>
</trkpt>
<trkpt lat="57.721970" lon="10.587979">
<ele>0.696885</ele>
<time>2026-07-17T11:56:58.000Z</time>
</trkpt>
<trkpt lat="57.721974" lon="10.588001">
<ele>0.697758</ele>
<time>2026-07-17T11:56:59.000Z</time>
</trkpt>
<trkpt lat="57.721981" lon="10.588022">
<ele>0.698688</ele>
<time>2026-07-17T11:57:00.000Z</time>
</trkpt>
<trkpt lat="57.721985" lon="10.588042">
<ele>0.699490</ele>
<time>2026-07-17T11:57:01.000Z</time>
</trkpt>
<trkpt lat="57.721992" lon="10.588060">
<ele>0.700327</ele>
<time>2026-07-17T11:57:02.000Z</time>
</trkpt>
<trkpt lat="57.721993" lon="10.588079">
<ele>0.701044</ele>
<time>2026-07-17T11:57:03.000Z</time>
</trkpt>
<trkpt lat="57.721996" lon="10.588096">
<ele>0.701716</ele>
<time>2026-07-17T11:57:04.000Z</time>
</trkpt>
<trkpt lat="57.721996" lon="10.588112">
<ele>0.702317</ele>
<time>2026-07-17T11:57:05.000Z</time>
</trkpt>
<trkpt lat="57.721997" lon="10.588115">
<ele>0.702450</ele>
<time>2026-07-17T11:57:06.000Z</time>
</trkpt>
<trkpt lat="57.722001" lon="10.588150">
<ele>0.703794</ele>
<time>2026-07-17T11:57:07.000Z</time>
</trkpt>
<trkpt lat="57.722008" lon="10.588172">
<ele>0.704756</ele>
<time>2026-07-17T11:57:08.000Z</time>
</trkpt>
<trkpt lat="57.722016" lon="10.588190">
<ele>0.705636</ele>
<time>2026-07-17T11:57:09.000Z</time>
</trkpt>
<trkpt lat="57.722027" lon="10.588210">
<ele>0.706714</ele>
<time>2026-07-17T11:57:10.000Z</time>
</trkpt>
<trkpt lat="57.722031" lon="10.588229">
<ele>0.707481</ele>
<time>2026-07-17T11:57:11.000Z</time>
</trkpt>
<trkpt lat="57.722039" lon="10.588243">
<ele>0.708251</ele>
<time>2026-07-17T11:57:12.000Z</time>
</trkpt>
<trkpt lat="57.722050" lon="10.588261">
<ele>0.709279</ele>
<time>2026-07-17T11:57:13.000Z</time>
</trkpt>
<trkpt lat="57.722054" lon="10.588279">
<ele>0.710011</ele>
<time>2026-07-17T11:57:14.000Z</time>
</trkpt>
<trkpt lat="57.722062" lon="10.588296">
<ele>0.710862</ele>
<time>2026-07-17T11:57:15.000Z</time>
</trkpt>
<trkpt lat="57.722070" lon="10.588311">
<ele>0.711658</ele>
<time>2026-07-17T11:57:16.000Z</time>
</trkpt>
<trkpt lat="57.722077" lon="10.588333">
<ele>0.712620</ele>
<time>2026-07-17T11:57:17.000Z</time>
</trkpt>
<trkpt lat="57.722081" lon="10.588357">
<ele>0.713564</ele>
<time>2026-07-17T11:57:18.000Z</time>
</trkpt>
<trkpt lat="57.722084" lon="10.588379">
<ele>0.714417</ele>
<time>2026-07-17T11:57:19.000Z</time>
</trkpt>
<trkpt lat="57.722088" lon="10.588397">
<ele>0.715150</ele>
<time>2026-07-17T11:57:20.000Z</time>
</trkpt>
<trkpt lat="57.722092" lon="10.588417">
<ele>0.715952</ele>
<time>2026-07-17T11:57:21.000Z</time>
</trkpt>
<trkpt lat="57.722096" lon="10.588435">
<ele>0.716684</ele>
<time>2026-07-17T11:57:22.000Z</time>
</trkpt>
<trkpt lat="57.722103" lon="10.588448">
<ele>0.717377</ele>
<time>2026-07-17T11:57:23.000Z</time>
</trkpt>
<trkpt lat="57.722103" lon="10.588448">
<ele>0.717377</ele>
<time>2026-07-17T11:57:25.000Z</time>
</trkpt>
<trkpt lat="57.722107" lon="10.588458">
<ele>0.717847</ele>
<time>2026-07-17T11:57:30.000Z</time>
</trkpt>
<trkpt lat="57.722142" lon="10.588553">
<ele>0.722182</ele>
<time>2026-07-17T11:57:31.000Z</time>
</trkpt>
<trkpt lat="57.722150" lon="10.588571">
<ele>0.723061</ele>
<time>2026-07-17T11:57:32.000Z</time>
</trkpt>
<trkpt lat="57.722156" lon="10.588589">
<ele>0.723858</ele>
<time>2026-07-17T11:57:33.000Z</time>
</trkpt>
<trkpt lat="57.722157" lon="10.588609">
<ele>0.724613</ele>
<time>2026-07-17T11:57:34.000Z</time>
</trkpt>
<trkpt lat="57.722161" lon="10.588631">
<ele>0.725486</ele>
<time>2026-07-17T11:57:35.000Z</time>
</trkpt>
<trkpt lat="57.722165" lon="10.588651">
<ele>0.726288</ele>
<time>2026-07-17T11:57:36.000Z</time>
</trkpt>
<trkpt lat="57.722168" lon="10.588670">
<ele>0.727032</ele>
<time>2026-07-17T11:57:37.000Z</time>
</trkpt>
<trkpt lat="57.722168" lon="10.588690">
<ele>0.727783</ele>
<time>2026-07-17T11:57:38.000Z</time>
</trkpt>
<trkpt lat="57.722168" lon="10.588711">
<ele>0.728572</ele>
<time>2026-07-17T11:57:39.000Z</time>
</trkpt>
<trkpt lat="57.722172" lon="10.588736">
<ele>0.729552</ele>
<time>2026-07-17T11:57:40.000Z</time>
</trkpt>
<trkpt lat="57.722172" lon="10.588756">
<ele>0.730303</ele>
<time>2026-07-17T11:57:41.000Z</time>
</trkpt>
<trkpt lat="57.722180" lon="10.588773">
<ele>0.731154</ele>
<time>2026-07-17T11:57:42.000Z</time>
</trkpt>
<trkpt lat="57.722184" lon="10.588788">
<ele>0.731784</ele>
<time>2026-07-17T11:57:43.000Z</time>
</trkpt>
<trkpt lat="57.722187" lon="10.588801">
<ele>0.732316</ele>
<time>2026-07-17T11:57:44.000Z</time>
</trkpt>
<trkpt lat="57.722187" lon="10.588810">
<ele>0.732654</ele>
<time>2026-07-17T11:57:45.000Z</time>
</trkpt>
<trkpt lat="57.722187" lon="10.588810">
<ele>0.732654</ele>
<time>2026-07-17T11:57:48.000Z</time>
</trkpt>
<trkpt lat="57.722189" lon="10.588815">
<ele>0.732889</ele>
<time>2026-07-17T11:57:52.000Z</time>
</trkpt>
<trkpt lat="57.722207" lon="10.588880">
<ele>0.735639</ele>
<time>2026-07-17T11:57:53.000Z</time>
</trkpt>
<trkpt lat="57.722211" lon="10.588895">
<ele>0.736268</ele>
<time>2026-07-17T11:57:54.000Z</time>
</trkpt>
<trkpt lat="57.722218" lon="10.588913">
<ele>0.737105</ele>
<time>2026-07-17T11:57:55.000Z</time>
</trkpt>
<trkpt lat="57.722226" lon="10.588940">
<ele>0.738265</ele>
<time>2026-07-17T11:57:56.000Z</time>
</trkpt>
<trkpt lat="57.722233" lon="10.588962">
<ele>0.739226</ele>
<time>2026-07-17T11:57:57.000Z</time>
</trkpt>
<trkpt lat="57.722237" lon="10.588988">
<ele>0.740243</ele>
<time>2026-07-17T11:57:58.000Z</time>
</trkpt>
<trkpt lat="57.722241" lon="10.589011">
<ele>0.741151</ele>
<time>2026-07-17T11:57:59.000Z</time>
</trkpt>
<trkpt lat="57.722248" lon="10.589033">
<ele>0.742113</ele>
<time>2026-07-17T11:58:00.000Z</time>
</trkpt>
<trkpt lat="57.722253" lon="10.589053">
<ele>0.742943</ele>
<time>2026-07-17T11:58:01.000Z</time>
</trkpt>
<trkpt lat="57.722260" lon="10.589075">
<ele>0.743904</ele>
<time>2026-07-17T11:58:02.000Z</time>
</trkpt>
<trkpt lat="57.722268" lon="10.589096">
<ele>0.744873</ele>
<time>2026-07-17T11:58:03.000Z</time>
</trkpt>
<trkpt lat="57.722276" lon="10.589117">
<ele>0.745842</ele>
<time>2026-07-17T11:58:04.000Z</time>
</trkpt>
<trkpt lat="57.722287" lon="10.589135">
<ele>0.746870</ele>
<time>2026-07-17T11:58:05.000Z</time>
</trkpt>
<trkpt lat="57.722294" lon="10.589148">
<ele>0.747563</ele>
<time>2026-07-17T11:58:06.000Z</time>
</trkpt>
<trkpt lat="57.722298" lon="10.589166">
<ele>0.748295</ele>
<time>2026-07-17T11:58:07.000Z</time>
</trkpt>
<trkpt lat="57.722302" lon="10.589184">
<ele>0.749028</ele>
<time>2026-07-17T11:58:08.000Z</time>
</trkpt>
<trkpt lat="57.722305" lon="10.589204">
<ele>0.749808</ele>
<time>2026-07-17T11:58:09.000Z</time>
</trkpt>
<trkpt lat="57.722302" lon="10.589231">
<ele>0.750844</ele>
<time>2026-07-17T11:58:10.000Z</time>
</trkpt>
<trkpt lat="57.722306" lon="10.589254">
<ele>0.751752</ele>
<time>2026-07-17T11:58:11.000Z</time>
</trkpt>
<trkpt lat="57.722309" lon="10.589276">
<ele>0.752605</ele>
<time>2026-07-17T11:58:12.000Z</time>
</trkpt>
<trkpt lat="57.722310" lon="10.589298">
<ele>0.753434</ele>
<time>2026-07-17T11:58:13.000Z</time>
</trkpt>
<trkpt lat="57.722318" lon="10.589319">
<ele>0.754403</ele>
<time>2026-07-17T11:58:14.000Z</time>
</trkpt>
<trkpt lat="57.722325" lon="10.589340">
<ele>0.755333</ele>
<time>2026-07-17T11:58:15.000Z</time>
</trkpt>
<trkpt lat="57.722328" lon="10.589361">
<ele>0.756149</ele>
<time>2026-07-17T11:58:16.000Z</time>
</trkpt>
<trkpt lat="57.722329" lon="10.589385">
<ele>0.757054</ele>
<time>2026-07-17T11:58:17.000Z</time>
</trkpt>
<trkpt lat="57.722336" lon="10.589406">
<ele>0.757983</ele>
<time>2026-07-17T11:58:18.000Z</time>
</trkpt>
<trkpt lat="57.722340" lon="10.589433">
<ele>0.759036</ele>
<time>2026-07-17T11:58:19.000Z</time>
</trkpt>
<trkpt lat="57.722344" lon="10.589459">
<ele>0.760052</ele>
<time>2026-07-17T11:58:20.000Z</time>
</trkpt>
<trkpt lat="57.722347" lon="10.589481">
<ele>0.760905</ele>
<time>2026-07-17T11:58:21.000Z</time>
</trkpt>
<trkpt lat="57.722352" lon="10.589513">
<ele>0.762157</ele>
<time>2026-07-17T11:58:22.000Z</time>
</trkpt>
<trkpt lat="57.722355" lon="10.589540">
<ele>0.763193</ele>
<time>2026-07-17T11:58:23.000Z</time>
</trkpt>
<trkpt lat="57.722351" lon="10.589574">
<ele>0.764501</ele>
<time>2026-07-17T11:58:24.000Z</time>
</trkpt>
<trkpt lat="57.722355" lon="10.589592">
<ele>0.765233</ele>
<time>2026-07-17T11:58:25.000Z</time>
</trkpt>
<trkpt lat="57.722359" lon="10.589612">
<ele>0.766035</ele>
<time>2026-07-17T11:58:26.000Z</time>
</trkpt>
<trkpt lat="57.722359" lon="10.589633">
<ele>0.766824</ele>
<time>2026-07-17T11:58:27.000Z</time>
</trkpt>
<trkpt lat="57.722363" lon="10.589655">
<ele>0.767697</ele>
<time>2026-07-17T11:58:28.000Z</time>
</trkpt>
<trkpt lat="57.722367" lon="10.589675">
<ele>0.768499</ele>
<time>2026-07-17T11:58:29.000Z</time>
</trkpt>
<trkpt lat="57.722370" lon="10.589690">
<ele>0.769100</ele>
<time>2026-07-17T11:58:30.000Z</time>
</trkpt>
<trkpt lat="57.722374" lon="10.589705">
<ele>0.769730</ele>
<time>2026-07-17T11:58:31.000Z</time>
</trkpt>
<trkpt lat="57.722378" lon="10.589744">
<ele>0.771222</ele>
<time>2026-07-17T11:58:33.000Z</time>
</trkpt>
<trkpt lat="57.722382" lon="10.589760">
<ele>0.771885</ele>
<time>2026-07-17T11:58:34.000Z</time>
</trkpt>
<trkpt lat="57.722387" lon="10.589772">
<ele>0.772457</ele>
<time>2026-07-17T11:58:35.000Z</time>
</trkpt>
<trkpt lat="57.722401" lon="10.589778">
<ele>0.773467</ele>
<time>2026-07-17T11:58:36.000Z</time>
</trkpt>
<trkpt lat="57.722409" lon="10.589786">
<ele>0.774105</ele>
<time>2026-07-17T11:58:37.000Z</time>
</trkpt>
<trkpt lat="57.722413" lon="10.589798">
<ele>0.774636</ele>
<time>2026-07-17T11:58:38.000Z</time>
</trkpt>
<trkpt lat="57.722416" lon="10.589810">
<ele>0.775134</ele>
<time>2026-07-17T11:58:39.000Z</time>
</trkpt>
<trkpt lat="57.722416" lon="10.589810">
<ele>0.775134</ele>
<time>2026-07-17T11:58:40.000Z</time>
</trkpt>
<trkpt lat="57.722466" lon="10.589964">
<ele>0.781903</ele>
<time>2026-07-17T11:58:53.000Z</time>
</trkpt>
<trkpt lat="57.722473" lon="10.589978">
<ele>0.782624</ele>
<time>2026-07-17T11:58:54.000Z</time>
</trkpt>
<trkpt lat="57.722474" lon="10.589999">
<ele>0.783415</ele>
<time>2026-07-17T11:58:55.000Z</time>
</trkpt>
<trkpt lat="57.722478" lon="10.590024">
<ele>0.782834</ele>
<time>2026-07-17T11:58:56.000Z</time>
</trkpt>
<trkpt lat="57.722485" lon="10.590042">
<ele>0.782288</ele>
<time>2026-07-17T11:58:57.000Z</time>
</trkpt>
<trkpt lat="57.722493" lon="10.590062">
<ele>0.781675</ele>
<time>2026-07-17T11:58:58.000Z</time>
</trkpt>
<trkpt lat="57.722501" lon="10.590078">
<ele>0.781138</ele>
<time>2026-07-17T11:58:59.000Z</time>
</trkpt>
<trkpt lat="57.722508" lon="10.590096">
<ele>0.780592</ele>
<time>2026-07-17T11:59:00.000Z</time>
</trkpt>
<trkpt lat="57.722515" lon="10.590112">
<ele>0.780085</ele>
<time>2026-07-17T11:59:01.000Z</time>
</trkpt>
<trkpt lat="57.722516" lon="10.590129">
<ele>0.779665</ele>
<time>2026-07-17T11:59:02.000Z</time>
</trkpt>
<trkpt lat="57.722523" lon="10.590138">
<ele>0.779276</ele>
<time>2026-07-17T11:59:03.000Z</time>
</trkpt>
<trkpt lat="57.722528" lon="10.590156">
<ele>0.778778</ele>
<time>2026-07-17T11:59:04.000Z</time>
</trkpt>
<trkpt lat="57.722539" lon="10.590172">
<ele>0.778139</ele>
<time>2026-07-17T11:59:05.000Z</time>
</trkpt>
<trkpt lat="57.722546" lon="10.590189">
<ele>0.777612</ele>
<time>2026-07-17T11:59:06.000Z</time>
</trkpt>
<trkpt lat="57.722555" lon="10.590204">
<ele>0.777059</ele>
<time>2026-07-17T11:59:07.000Z</time>
</trkpt>
<trkpt lat="57.722569" lon="10.590214">
<ele>0.776371</ele>
<time>2026-07-17T11:59:08.000Z</time>
</trkpt>
<trkpt lat="57.722576" lon="10.590233">
<ele>0.775805</ele>
<time>2026-07-17T11:59:09.000Z</time>
</trkpt>
<trkpt lat="57.722577" lon="10.590257">
<ele>0.775215</ele>
<time>2026-07-17T11:59:10.000Z</time>
</trkpt>
<trkpt lat="57.722580" lon="10.590281">
<ele>0.774611</ele>
<time>2026-07-17T11:59:11.000Z</time>
</trkpt>
<trkpt lat="57.722580" lon="10.590303">
<ele>0.774071</ele>
<time>2026-07-17T11:59:12.000Z</time>
</trkpt>
<trkpt lat="57.722580" lon="10.590326">
<ele>0.773507</ele>
<time>2026-07-17T11:59:13.000Z</time>
</trkpt>
<trkpt lat="57.722584" lon="10.590346">
<ele>0.772984</ele>
<time>2026-07-17T11:59:14.000Z</time>
</trkpt>
<trkpt lat="57.722584" lon="10.590368">
<ele>0.772444</ele>
<time>2026-07-17T11:59:15.000Z</time>
</trkpt>
<trkpt lat="57.722588" lon="10.590391">
<ele>0.771851</ele>
<time>2026-07-17T11:59:16.000Z</time>
</trkpt>
<trkpt lat="57.722592" lon="10.590412">
<ele>0.771304</ele>
<time>2026-07-17T11:59:17.000Z</time>
</trkpt>
<trkpt lat="57.722595" lon="10.590431">
<ele>0.770819</ele>
<time>2026-07-17T11:59:18.000Z</time>
</trkpt>
<trkpt lat="57.722595" lon="10.590459">
<ele>0.770132</ele>
<time>2026-07-17T11:59:19.000Z</time>
</trkpt>
<trkpt lat="57.722596" lon="10.590481">
<ele>0.769591</ele>
<time>2026-07-17T11:59:20.000Z</time>
</trkpt>
<trkpt lat="57.722603" lon="10.590500">
<ele>0.769025</ele>
<time>2026-07-17T11:59:21.000Z</time>
</trkpt>
<trkpt lat="57.722607" lon="10.590519">
<ele>0.768524</ele>
<time>2026-07-17T11:59:22.000Z</time>
</trkpt>
<trkpt lat="57.722607" lon="10.590539">
<ele>0.768034</ele>
<time>2026-07-17T11:59:23.000Z</time>
</trkpt>
<trkpt lat="57.722610" lon="10.590560">
<ele>0.767501</ele>
<time>2026-07-17T11:59:24.000Z</time>
</trkpt>
<trkpt lat="57.722606" lon="10.590586">
<ele>0.766837</ele>
<time>2026-07-17T11:59:25.000Z</time>
</trkpt>
<trkpt lat="57.722603" lon="10.590609">
<ele>0.766257</ele>
<time>2026-07-17T11:59:26.000Z</time>
</trkpt>
<trkpt lat="57.722603" lon="10.590627">
<ele>0.765815</ele>
<time>2026-07-17T11:59:27.000Z</time>
</trkpt>
<trkpt lat="57.722604" lon="10.590633">
<ele>0.765661</ele>
<time>2026-07-17T11:59:29.000Z</time>
</trkpt>
<trkpt lat="57.722610" lon="10.590685">
<ele>0.764357</ele>
<time>2026-07-17T11:59:30.000Z</time>
</trkpt>
<trkpt lat="57.722610" lon="10.590704">
<ele>0.763891</ele>
<time>2026-07-17T11:59:31.000Z</time>
</trkpt>
<trkpt lat="57.722610" lon="10.590716">
<ele>0.763597</ele>
<time>2026-07-17T11:59:32.000Z</time>
</trkpt>
<trkpt lat="57.722610" lon="10.590723">
<ele>0.763425</ele>
<time>2026-07-17T11:59:33.000Z</time>
</trkpt>
<trkpt lat="57.722610" lon="10.590732">
<ele>0.763204</ele>
<time>2026-07-17T11:59:37.000Z</time>
</trkpt>
<trkpt lat="57.722606" lon="10.590808">
<ele>0.761332</ele>
<time>2026-07-17T11:59:38.000Z</time>
</trkpt>
<trkpt lat="57.722604" lon="10.590837">
<ele>0.760615</ele>
<time>2026-07-17T11:59:39.000Z</time>
</trkpt>
<trkpt lat="57.722618" lon="10.590850">
<ele>0.759897</ele>
<time>2026-07-17T11:59:40.000Z</time>
</trkpt>
<trkpt lat="57.722622" lon="10.590870">
<ele>0.759374</ele>
<time>2026-07-17T11:59:41.000Z</time>
</trkpt>
<trkpt lat="57.722626" lon="10.590889">
<ele>0.758873</ele>
<time>2026-07-17T11:59:42.000Z</time>
</trkpt>
<trkpt lat="57.722630" lon="10.590905">
<ele>0.758440</ele>
<time>2026-07-17T11:59:43.000Z</time>
</trkpt>
<trkpt lat="57.722633" lon="10.590917">
<ele>0.758115</ele>
<time>2026-07-17T11:59:44.000Z</time>
</trkpt>
<trkpt lat="57.722635" lon="10.590925">
<ele>0.757898</ele>
<time>2026-07-17T11:59:47.000Z</time>
</trkpt>
<trkpt lat="57.722649" lon="10.590998">
<ele>0.755997</ele>
<time>2026-07-17T11:59:48.000Z</time>
</trkpt>
<trkpt lat="57.722652" lon="10.591022">
<ele>0.755392</ele>
<time>2026-07-17T11:59:49.000Z</time>
</trkpt>
<trkpt lat="57.722652" lon="10.591048">
<ele>0.754755</ele>
<time>2026-07-17T11:59:50.000Z</time>
</trkpt>
<trkpt lat="57.722653" lon="10.591076">
<ele>0.754067</ele>
<time>2026-07-17T11:59:51.000Z</time>
</trkpt>
<trkpt lat="57.722660" lon="10.591103">
<ele>0.753331</ele>
<time>2026-07-17T11:59:52.000Z</time>
</trkpt>
<trkpt lat="57.722659" lon="10.591139">
<ele>0.752447</ele>
<time>2026-07-17T11:59:53.000Z</time>
</trkpt>
<trkpt lat="57.722651" lon="10.591178">
<ele>0.751423</ele>
<time>2026-07-17T11:59:54.000Z</time>
</trkpt>
<trkpt lat="57.722640" lon="10.591218">
<ele>0.750319</ele>
<time>2026-07-17T11:59:55.000Z</time>
</trkpt>
<trkpt lat="57.722633" lon="10.591266">
<ele>0.749099</ele>
<time>2026-07-17T11:59:56.000Z</time>
</trkpt>
<trkpt lat="57.722633" lon="10.591306">
<ele>0.748119</ele>
<time>2026-07-17T11:59:57.000Z</time>
</trkpt>
<trkpt lat="57.722629" lon="10.591346">
<ele>0.747121</ele>
<time>2026-07-17T11:59:58.000Z</time>
</trkpt>
<trkpt lat="57.722622" lon="10.591387">
<ele>0.746065</ele>
<time>2026-07-17T11:59:59.000Z</time>
</trkpt>
<trkpt lat="57.722614" lon="10.591434">
<ele>0.744856</ele>
<time>2026-07-17T12:00:00.000Z</time>
</trkpt>
<trkpt lat="57.722606" lon="10.591477">
<ele>0.743739</ele>
<time>2026-07-17T12:00:01.000Z</time>
</trkpt>
<trkpt lat="57.722594" lon="10.591524">
<ele>0.742462</ele>
<time>2026-07-17T12:00:02.000Z</time>
</trkpt>
<trkpt lat="57.722587" lon="10.591573">
<ele>0.741218</ele>
<time>2026-07-17T12:00:03.000Z</time>
</trkpt>
<trkpt lat="57.722579" lon="10.591618">
<ele>0.740056</ele>
<time>2026-07-17T12:00:04.000Z</time>
</trkpt>
<trkpt lat="57.722571" lon="10.591665">
<ele>0.738846</ele>
<time>2026-07-17T12:00:05.000Z</time>
</trkpt>
<trkpt lat="57.722564" lon="10.591718">
<ele>0.737507</ele>
<time>2026-07-17T12:00:06.000Z</time>
</trkpt>
<trkpt lat="57.722557" lon="10.591776">
<ele>0.736049</ele>
<time>2026-07-17T12:00:07.000Z</time>
</trkpt>
<trkpt lat="57.722552" lon="10.591834">
<ele>0.734609</ele>
<time>2026-07-17T12:00:08.000Z</time>
</trkpt>
<trkpt lat="57.722545" lon="10.591894">
<ele>0.733103</ele>
<time>2026-07-17T12:00:09.000Z</time>
</trkpt>
<trkpt lat="57.722540" lon="10.591950">
<ele>0.731711</ele>
<time>2026-07-17T12:00:10.000Z</time>
</trkpt>
<trkpt lat="57.722522" lon="10.592025">
<ele>0.729695</ele>
<time>2026-07-17T12:00:11.000Z</time>
</trkpt>
<trkpt lat="57.722511" lon="10.592088">
<ele>0.728070</ele>
<time>2026-07-17T12:00:12.000Z</time>
</trkpt>
<trkpt lat="57.722507" lon="10.592144">
<ele>0.726684</ele>
<time>2026-07-17T12:00:13.000Z</time>
</trkpt>
<trkpt lat="57.722507" lon="10.592195">
<ele>0.725434</ele>
<time>2026-07-17T12:00:14.000Z</time>
</trkpt>
<trkpt lat="57.722508" lon="10.592243">
<ele>0.724256</ele>
<time>2026-07-17T12:00:15.000Z</time>
</trkpt>
<trkpt lat="57.722511" lon="10.592289">
<ele>0.723120</ele>
<time>2026-07-17T12:00:16.000Z</time>
</trkpt>
<trkpt lat="57.722503" lon="10.592338">
<ele>0.721864</ele>
<time>2026-07-17T12:00:17.000Z</time>
</trkpt>
<trkpt lat="57.722499" lon="10.592382">
<ele>0.720769</ele>
<time>2026-07-17T12:00:18.000Z</time>
</trkpt>
<trkpt lat="57.722496" lon="10.592431">
<ele>0.719560</ele>
<time>2026-07-17T12:00:19.000Z</time>
</trkpt>
<trkpt lat="57.722492" lon="10.592478">
<ele>0.718393</ele>
<time>2026-07-17T12:00:20.000Z</time>
</trkpt>
<trkpt lat="57.722488" lon="10.592528">
<ele>0.717153</ele>
<time>2026-07-17T12:00:21.000Z</time>
</trkpt>
<trkpt lat="57.722488" lon="10.592578">
<ele>0.715927</ele>
<time>2026-07-17T12:00:22.000Z</time>
</trkpt>
<trkpt lat="57.722485" lon="10.592626">
<ele>0.714742</ele>
<time>2026-07-17T12:00:23.000Z</time>
</trkpt>
<trkpt lat="57.722489" lon="10.592661">
<ele>0.713865</ele>
<time>2026-07-17T12:00:24.000Z</time>
</trkpt>
<trkpt lat="57.722492" lon="10.592694">
<ele>0.713044</ele>
<time>2026-07-17T12:00:25.000Z</time>
</trkpt>
<trkpt lat="57.722493" lon="10.592726">
<ele>0.712258</ele>
<time>2026-07-17T12:00:26.000Z</time>
</trkpt>
<trkpt lat="57.722500" lon="10.592752">
<ele>0.711544</ele>
<time>2026-07-17T12:00:27.000Z</time>
</trkpt>
<trkpt lat="57.722503" lon="10.592779">
<ele>0.710868</ele>
<time>2026-07-17T12:00:28.000Z</time>
</trkpt>
<trkpt lat="57.722499" lon="10.592813">
<ele>0.710014</ele>
<time>2026-07-17T12:00:29.000Z</time>
</trkpt>
<trkpt lat="57.722488" lon="10.592849">
<ele>0.708997</ele>
<time>2026-07-17T12:00:30.000Z</time>
</trkpt>
<trkpt lat="57.722479" lon="10.592885">
<ele>0.708023</ele>
<time>2026-07-17T12:00:31.000Z</time>
</trkpt>
<trkpt lat="57.722461" lon="10.592926">
<ele>0.706721</ele>
<time>2026-07-17T12:00:32.000Z</time>
</trkpt>
<trkpt lat="57.722435" lon="10.592960">
<ele>0.705265</ele>
<time>2026-07-17T12:00:33.000Z</time>
</trkpt>
<trkpt lat="57.722406" lon="10.592991">
<ele>0.703732</ele>
<time>2026-07-17T12:00:34.000Z</time>
</trkpt>
<trkpt lat="57.722378" lon="10.593023">
<ele>0.702226</ele>
<time>2026-07-17T12:00:35.000Z</time>
</trkpt>
<trkpt lat="57.722343" lon="10.593065">
<ele>0.699749</ele>
<time>2026-07-17T12:00:36.000Z</time>
</trkpt>
<trkpt lat="57.722305" lon="10.593117">
<ele>0.695357</ele>
<time>2026-07-17T12:00:37.000Z</time>
</trkpt>
<trkpt lat="57.722267" lon="10.593168">
<ele>0.690994</ele>
<time>2026-07-17T12:00:38.000Z</time>
</trkpt>
<trkpt lat="57.722225" lon="10.593211">
<ele>0.686527</ele>
<time>2026-07-17T12:00:39.000Z</time>
</trkpt>
<trkpt lat="57.722187" lon="10.593252">
<ele>0.682435</ele>
<time>2026-07-17T12:00:40.000Z</time>
</trkpt>
<trkpt lat="57.722154" lon="10.593291">
<ele>0.678793</ele>
<time>2026-07-17T12:00:41.000Z</time>
</trkpt>
<trkpt lat="57.722123" lon="10.593332">
<ele>0.675252</ele>
<time>2026-07-17T12:00:42.000Z</time>
</trkpt>
<trkpt lat="57.722090" lon="10.593369">
<ele>0.671663</ele>
<time>2026-07-17T12:00:43.000Z</time>
</trkpt>
<trkpt lat="57.722061" lon="10.593407">
<ele>0.668360</ele>
<time>2026-07-17T12:00:44.000Z</time>
</trkpt>
<trkpt lat="57.722032" lon="10.593444">
<ele>0.665085</ele>
<time>2026-07-17T12:00:45.000Z</time>
</trkpt>
<trkpt lat="57.722009" lon="10.593475">
<ele>0.662440</ele>
<time>2026-07-17T12:00:46.000Z</time>
</trkpt>
<trkpt lat="57.721991" lon="10.593505">
<ele>0.660192</ele>
<time>2026-07-17T12:00:47.000Z</time>
</trkpt>
<trkpt lat="57.721973" lon="10.593528">
<ele>0.658158</ele>
<time>2026-07-17T12:00:48.000Z</time>
</trkpt>
<trkpt lat="57.721961" lon="10.593544">
<ele>0.656784</ele>
<time>2026-07-17T12:00:49.000Z</time>
</trkpt>
<trkpt lat="57.721949" lon="10.593556">
<ele>0.655514</ele>
<time>2026-07-17T12:00:50.000Z</time>
</trkpt>
<trkpt lat="57.721934" lon="10.593564">
<ele>0.654059</ele>
<time>2026-07-17T12:00:51.000Z</time>
</trkpt>
<trkpt lat="57.721918" lon="10.593580">
<ele>0.652366</ele>
<time>2026-07-17T12:00:52.000Z</time>
</trkpt>
<trkpt lat="57.721900" lon="10.593602">
<ele>0.650360</ele>
<time>2026-07-17T12:00:53.000Z</time>
</trkpt>
<trkpt lat="57.721880" lon="10.593636">
<ele>0.647839</ele>
<time>2026-07-17T12:00:54.000Z</time>
</trkpt>
<trkpt lat="57.721866" lon="10.593678">
<ele>0.645372</ele>
<time>2026-07-17T12:00:55.000Z</time>
</trkpt>
<trkpt lat="57.721863" lon="10.593734">
<ele>0.642567</ele>
<time>2026-07-17T12:00:56.000Z</time>
</trkpt>
<trkpt lat="57.721868" lon="10.593791">
<ele>0.639689</ele>
<time>2026-07-17T12:00:57.000Z</time>
</trkpt>
<trkpt lat="57.721879" lon="10.593843">
<ele>0.636902</ele>
<time>2026-07-17T12:00:58.000Z</time>
</trkpt>
<trkpt lat="57.721895" lon="10.593904">
<ele>0.633515</ele>
<time>2026-07-17T12:00:59.000Z</time>
</trkpt>
<trkpt lat="57.721914" lon="10.593967">
<ele>0.629909</ele>
<time>2026-07-17T12:01:00.000Z</time>
</trkpt>
<trkpt lat="57.721933" lon="10.594031">
<ele>0.626260</ele>
<time>2026-07-17T12:01:01.000Z</time>
</trkpt>
<trkpt lat="57.721952" lon="10.594103">
<ele>0.622258</ele>
<time>2026-07-17T12:01:02.000Z</time>
</trkpt>
<trkpt lat="57.721975" lon="10.594175">
<ele>0.618077</ele>
<time>2026-07-17T12:01:03.000Z</time>
</trkpt>
<trkpt lat="57.721994" lon="10.594252">
<ele>0.613850</ele>
<time>2026-07-17T12:01:04.000Z</time>
</trkpt>
<trkpt lat="57.722013" lon="10.594331">
<ele>0.609532</ele>
<time>2026-07-17T12:01:05.000Z</time>
</trkpt>
<trkpt lat="57.722032" lon="10.594407">
<ele>0.605350</ele>
<time>2026-07-17T12:01:06.000Z</time>
</trkpt>
<trkpt lat="57.722052" lon="10.594485">
<ele>0.601038</ele>
<time>2026-07-17T12:01:07.000Z</time>
</trkpt>
<trkpt lat="57.722071" lon="10.594563">
<ele>0.596766</ele>
<time>2026-07-17T12:01:08.000Z</time>
</trkpt>
<trkpt lat="57.722095" lon="10.594644">
<ele>0.592150</ele>
<time>2026-07-17T12:01:09.000Z</time>
</trkpt>
<trkpt lat="57.722121" lon="10.594728">
<ele>0.587312</ele>
<time>2026-07-17T12:01:10.000Z</time>
</trkpt>
<trkpt lat="57.722139" lon="10.594811">
<ele>0.582847</ele>
<time>2026-07-17T12:01:11.000Z</time>
</trkpt>
<trkpt lat="57.722156" lon="10.594885">
<ele>0.578833</ele>
<time>2026-07-17T12:01:12.000Z</time>
</trkpt>
<trkpt lat="57.722177" lon="10.594979">
<ele>0.573755</ele>
<time>2026-07-17T12:01:13.000Z</time>
</trkpt>
<trkpt lat="57.722196" lon="10.595057">
<ele>0.569483</ele>
<time>2026-07-17T12:01:14.000Z</time>
</trkpt>
<trkpt lat="57.722214" lon="10.595131">
<ele>0.565431</ele>
<time>2026-07-17T12:01:15.000Z</time>
</trkpt>
<trkpt lat="57.722229" lon="10.595192">
<ele>0.562084</ele>
<time>2026-07-17T12:01:16.000Z</time>
</trkpt>
<trkpt lat="57.722257" lon="10.595293">
<ele>0.556413</ele>
<time>2026-07-17T12:01:17.000Z</time>
</trkpt>
<trkpt lat="57.722270" lon="10.595349">
<ele>0.553370</ele>
<time>2026-07-17T12:01:18.000Z</time>
</trkpt>
<trkpt lat="57.722296" lon="10.595457">
<ele>0.547466</ele>
<time>2026-07-17T12:01:19.000Z</time>
</trkpt>
<trkpt lat="57.722314" lon="10.595519">
<ele>0.543950</ele>
<time>2026-07-17T12:01:20.000Z</time>
</trkpt>
<trkpt lat="57.722341" lon="10.595617">
<ele>0.538454</ele>
<time>2026-07-17T12:01:21.000Z</time>
</trkpt>
<trkpt lat="57.722361" lon="10.595701">
<ele>0.533871</ele>
<time>2026-07-17T12:01:22.000Z</time>
</trkpt>
<trkpt lat="57.722380" lon="10.595782">
<ele>0.525627</ele>
<time>2026-07-17T12:01:23.000Z</time>
</trkpt>
<trkpt lat="57.722403" lon="10.595859">
<ele>0.516496</ele>
<time>2026-07-17T12:01:24.000Z</time>
</trkpt>
<trkpt lat="57.722426" lon="10.595938">
<ele>0.507184</ele>
<time>2026-07-17T12:01:25.000Z</time>
</trkpt>
<trkpt lat="57.722449" lon="10.596012">
<ele>0.498323</ele>
<time>2026-07-17T12:01:26.000Z</time>
</trkpt>
<trkpt lat="57.722476" lon="10.596088">
<ele>0.488875</ele>
<time>2026-07-17T12:01:27.000Z</time>
</trkpt>
<trkpt lat="57.722503" lon="10.596163">
<ele>0.479514</ele>
<time>2026-07-17T12:01:28.000Z</time>
</trkpt>
<trkpt lat="57.722529" lon="10.596235">
<ele>0.470519</ele>
<time>2026-07-17T12:01:29.000Z</time>
</trkpt>
<trkpt lat="57.722551" lon="10.596306">
<ele>0.462023</ele>
<time>2026-07-17T12:01:30.000Z</time>
</trkpt>
<trkpt lat="57.722572" lon="10.596375">
<ele>0.453804</ele>
<time>2026-07-17T12:01:31.000Z</time>
</trkpt>
<trkpt lat="57.722597" lon="10.596461">
<ele>0.443670</ele>
<time>2026-07-17T12:01:32.000Z</time>
</trkpt>
<trkpt lat="57.722620" lon="10.596540">
<ele>0.434357</ele>
<time>2026-07-17T12:01:33.000Z</time>
</trkpt>
<trkpt lat="57.722643" lon="10.596618">
<ele>0.425136</ele>
<time>2026-07-17T12:01:34.000Z</time>
</trkpt>
<trkpt lat="57.722665" lon="10.596700">
<ele>0.415638</ele>
<time>2026-07-17T12:01:35.000Z</time>
</trkpt>
<trkpt lat="57.722684" lon="10.596790">
<ele>0.405622</ele>
<time>2026-07-17T12:01:36.000Z</time>
</trkpt>
<trkpt lat="57.722704" lon="10.596880">
<ele>0.395534</ele>
<time>2026-07-17T12:01:37.000Z</time>
</trkpt>
<trkpt lat="57.722726" lon="10.596968">
<ele>0.385477</ele>
<time>2026-07-17T12:01:38.000Z</time>
</trkpt>
<trkpt lat="57.722746" lon="10.597057">
<ele>0.375484</ele>
<time>2026-07-17T12:01:39.000Z</time>
</trkpt>
<trkpt lat="57.722769" lon="10.597140">
<ele>0.365806</ele>
<time>2026-07-17T12:01:40.000Z</time>
</trkpt>
<trkpt lat="57.722792" lon="10.597224">
<ele>0.356037</ele>
<time>2026-07-17T12:01:41.000Z</time>
</trkpt>
<trkpt lat="57.722815" lon="10.597308">
<ele>0.346267</ele>
<time>2026-07-17T12:01:42.000Z</time>
</trkpt>
<trkpt lat="57.722838" lon="10.597389">
<ele>0.336772</ele>
<time>2026-07-17T12:01:43.000Z</time>
</trkpt>
<trkpt lat="57.722861" lon="10.597469">
<ele>0.327369</ele>
<time>2026-07-17T12:01:44.000Z</time>
</trkpt>
<trkpt lat="57.722884" lon="10.597552">
<ele>0.317692</ele>
<time>2026-07-17T12:01:45.000Z</time>
</trkpt>
<trkpt lat="57.722904" lon="10.597623">
<ele>0.309384</ele>
<time>2026-07-17T12:01:46.000Z</time>
</trkpt>
<trkpt lat="57.722928" lon="10.597710">
<ele>0.299249</ele>
<time>2026-07-17T12:01:47.000Z</time>
</trkpt>
<trkpt lat="57.722952" lon="10.597796">
<ele>0.289207</ele>
<time>2026-07-17T12:01:48.000Z</time>
</trkpt>
<trkpt lat="57.722972" lon="10.597879">
<ele>0.279783</ele>
<time>2026-07-17T12:01:49.000Z</time>
</trkpt>
<trkpt lat="57.722994" lon="10.597963">
<ele>0.270100</ele>
<time>2026-07-17T12:01:50.000Z</time>
</trkpt>
<trkpt lat="57.723017" lon="10.598046">
<ele>0.260422</ele>
<time>2026-07-17T12:01:51.000Z</time>
</trkpt>
<trkpt lat="57.723040" lon="10.598129">
<ele>0.250745</ele>
<time>2026-07-17T12:01:52.000Z</time>
</trkpt>
<trkpt lat="57.723061" lon="10.598214">
<ele>0.241052</ele>
<time>2026-07-17T12:01:53.000Z</time>
</trkpt>
<trkpt lat="57.723082" lon="10.598299">
<ele>0.231359</ele>
<time>2026-07-17T12:01:54.000Z</time>
</trkpt>
<trkpt lat="57.723105" lon="10.598382">
<ele>0.221681</ele>
<time>2026-07-17T12:01:55.000Z</time>
</trkpt>
<trkpt lat="57.723128" lon="10.598466">
<ele>0.211912</ele>
<time>2026-07-17T12:01:56.000Z</time>
</trkpt>
<trkpt lat="57.723151" lon="10.598551">
<ele>0.202050</ele>
<time>2026-07-17T12:01:57.000Z</time>
</trkpt>
<trkpt lat="57.723174" lon="10.598638">
<ele>0.192003</ele>
<time>2026-07-17T12:01:58.000Z</time>
</trkpt>
<trkpt lat="57.723197" lon="10.598725">
<ele>0.183777</ele>
<time>2026-07-17T12:01:59.000Z</time>
</trkpt>
<trkpt lat="57.723220" lon="10.598814">
<ele>0.181049</ele>
<time>2026-07-17T12:02:00.000Z</time>
</trkpt>
<trkpt lat="57.723243" lon="10.598904">
<ele>0.178297</ele>
<time>2026-07-17T12:02:01.000Z</time>
</trkpt>
<trkpt lat="57.723269" lon="10.598995">
<ele>0.175449</ele>
<time>2026-07-17T12:02:02.000Z</time>
</trkpt>
<trkpt lat="57.723292" lon="10.599091">
<ele>0.172547</ele>
<time>2026-07-17T12:02:03.000Z</time>
</trkpt>
<trkpt lat="57.723317" lon="10.599182">
<ele>0.169723</ele>
<time>2026-07-17T12:02:04.000Z</time>
</trkpt>
<trkpt lat="57.723342" lon="10.599274">
<ele>0.166876</ele>
<time>2026-07-17T12:02:05.000Z</time>
</trkpt>
<trkpt lat="57.723368" lon="10.599367">
<ele>0.163980</ele>
<time>2026-07-17T12:02:06.000Z</time>
</trkpt>
<trkpt lat="57.723391" lon="10.599464">
<ele>0.161052</ele>
<time>2026-07-17T12:02:07.000Z</time>
</trkpt>
<trkpt lat="57.723414" lon="10.599561">
<ele>0.158124</ele>
<time>2026-07-17T12:02:08.000Z</time>
</trkpt>
<trkpt lat="57.723441" lon="10.599656">
<ele>0.155155</ele>
<time>2026-07-17T12:02:09.000Z</time>
</trkpt>
<trkpt lat="57.723468" lon="10.599752">
<ele>0.152162</ele>
<time>2026-07-17T12:02:10.000Z</time>
</trkpt>
<trkpt lat="57.723494" lon="10.599843">
<ele>0.149314</ele>
<time>2026-07-17T12:02:11.000Z</time>
</trkpt>
<trkpt lat="57.723520" lon="10.599933">
<ele>0.146491</ele>
<time>2026-07-17T12:02:12.000Z</time>
</trkpt>
<trkpt lat="57.723543" lon="10.600021">
<ele>0.143788</ele>
<time>2026-07-17T12:02:13.000Z</time>
</trkpt>
<trkpt lat="57.723568" lon="10.600105">
<ele>0.141136</ele>
<time>2026-07-17T12:02:14.000Z</time>
</trkpt>
<trkpt lat="57.723593" lon="10.600190">
<ele>0.138458</ele>
<time>2026-07-17T12:02:15.000Z</time>
</trkpt>
<trkpt lat="57.723620" lon="10.600279">
<ele>0.135635</ele>
<time>2026-07-17T12:02:16.000Z</time>
</trkpt>
<trkpt lat="57.723647" lon="10.600368">
<ele>0.132811</ele>
<time>2026-07-17T12:02:17.000Z</time>
</trkpt>
<trkpt lat="57.723673" lon="10.600458">
<ele>0.129988</ele>
<time>2026-07-17T12:02:18.000Z</time>
</trkpt>
<trkpt lat="57.723697" lon="10.600549">
<ele>0.127188</ele>
<time>2026-07-17T12:02:19.000Z</time>
</trkpt>
<trkpt lat="57.723723" lon="10.600639">
<ele>0.124365</ele>
<time>2026-07-17T12:02:20.000Z</time>
</trkpt>
<trkpt lat="57.723749" lon="10.600728">
<ele>0.121566</ele>
<time>2026-07-17T12:02:21.000Z</time>
</trkpt>
<trkpt lat="57.723777" lon="10.600827">
<ele>0.118476</ele>
<time>2026-07-17T12:02:22.000Z</time>
</trkpt>
<trkpt lat="57.723804" lon="10.600923">
<ele>0.115482</ele>
<time>2026-07-17T12:02:23.000Z</time>
</trkpt>
<trkpt lat="57.723830" lon="10.601021">
<ele>0.112464</ele>
<time>2026-07-17T12:02:24.000Z</time>
</trkpt>
<trkpt lat="57.723857" lon="10.601118">
<ele>0.109446</ele>
<time>2026-07-17T12:02:25.000Z</time>
</trkpt>
<trkpt lat="57.723887" lon="10.601211">
<ele>0.106449</ele>
<time>2026-07-17T12:02:26.000Z</time>
</trkpt>
<trkpt lat="57.723914" lon="10.601305">
<ele>0.103504</ele>
<time>2026-07-17T12:02:27.000Z</time>
</trkpt>
<trkpt lat="57.723941" lon="10.601398">
<ele>0.100584</ele>
<time>2026-07-17T12:02:28.000Z</time>
</trkpt>
<trkpt lat="57.723967" lon="10.601493">
<ele>0.097639</ele>
<time>2026-07-17T12:02:29.000Z</time>
</trkpt>
<trkpt lat="57.723993" lon="10.601582">
<ele>0.094840</ele>
<time>2026-07-17T12:02:30.000Z</time>
</trkpt>
<trkpt lat="57.724019" lon="10.601670">
<ele>0.092066</ele>
<time>2026-07-17T12:02:31.000Z</time>
</trkpt>
<trkpt lat="57.724051" lon="10.601758">
<ele>0.094259</ele>
<time>2026-07-17T12:02:32.000Z</time>
</trkpt>
<trkpt lat="57.724078" lon="10.601839">
<ele>0.097280</ele>
<time>2026-07-17T12:02:33.000Z</time>
</trkpt>
<trkpt lat="57.724101" lon="10.601920">
<ele>0.100183</ele>
<time>2026-07-17T12:02:34.000Z</time>
</trkpt>
<trkpt lat="57.724127" lon="10.602001">
<ele>0.103174</ele>
<time>2026-07-17T12:02:35.000Z</time>
</trkpt>
<trkpt lat="57.724149" lon="10.602074">
<ele>0.105827</ele>
<time>2026-07-17T12:02:36.000Z</time>
</trkpt>
<trkpt lat="57.724171" lon="10.602151">
<ele>0.108590</ele>
<time>2026-07-17T12:02:37.000Z</time>
</trkpt>
<trkpt lat="57.724196" lon="10.602234">
<ele>0.111606</ele>
<time>2026-07-17T12:02:38.000Z</time>
</trkpt>
<trkpt lat="57.724218" lon="10.602308">
<ele>0.114286</ele>
<time>2026-07-17T12:02:39.000Z</time>
</trkpt>
<trkpt lat="57.724242" lon="10.602389">
<ele>0.117217</ele>
<time>2026-07-17T12:02:40.000Z</time>
</trkpt>
<trkpt lat="57.724265" lon="10.602473">
<ele>0.120205</ele>
<time>2026-07-17T12:02:41.000Z</time>
</trkpt>
<trkpt lat="57.724287" lon="10.602557">
<ele>0.123165</ele>
<time>2026-07-17T12:02:42.000Z</time>
</trkpt>
<trkpt lat="57.724310" lon="10.602644">
<ele>0.126237</ele>
<time>2026-07-17T12:02:43.000Z</time>
</trkpt>
<trkpt lat="57.724333" lon="10.602731">
<ele>0.129309</ele>
<time>2026-07-17T12:02:44.000Z</time>
</trkpt>
<trkpt lat="57.724357" lon="10.602821">
<ele>0.132493</ele>
<time>2026-07-17T12:02:45.000Z</time>
</trkpt>
<trkpt lat="57.724383" lon="10.602905">
<ele>0.135565</ele>
<time>2026-07-17T12:02:46.000Z</time>
</trkpt>
<trkpt lat="57.724406" lon="10.602989">
<ele>0.138552</ele>
<time>2026-07-17T12:02:47.000Z</time>
</trkpt>
<trkpt lat="57.724432" lon="10.603071">
<ele>0.141570</ele>
<time>2026-07-17T12:02:48.000Z</time>
</trkpt>
<trkpt lat="57.724459" lon="10.603160">
<ele>0.144809</ele>
<time>2026-07-17T12:02:49.000Z</time>
</trkpt>
<trkpt lat="57.724485" lon="10.603242">
<ele>0.147827</ele>
<time>2026-07-17T12:02:50.000Z</time>
</trkpt>
<trkpt lat="57.724509" lon="10.603334">
<ele>0.151067</ele>
<time>2026-07-17T12:02:51.000Z</time>
</trkpt>
<trkpt lat="57.724532" lon="10.603423">
<ele>0.154196</ele>
<time>2026-07-17T12:02:52.000Z</time>
</trkpt>
<trkpt lat="57.724558" lon="10.603508">
<ele>0.157296</ele>
<time>2026-07-17T12:02:53.000Z</time>
</trkpt>
<trkpt lat="57.724585" lon="10.603589">
<ele>0.160317</ele>
<time>2026-07-17T12:02:54.000Z</time>
</trkpt>
<trkpt lat="57.724616" lon="10.603669">
<ele>0.163445</ele>
<time>2026-07-17T12:02:55.000Z</time>
</trkpt>
<trkpt lat="57.724643" lon="10.603745">
<ele>0.166334</ele>
<time>2026-07-17T12:02:56.000Z</time>
</trkpt>
<trkpt lat="57.724669" lon="10.603827">
<ele>0.169352</ele>
<time>2026-07-17T12:02:57.000Z</time>
</trkpt>
<trkpt lat="57.724696" lon="10.603908">
<ele>0.172373</ele>
<time>2026-07-17T12:02:58.000Z</time>
</trkpt>
<trkpt lat="57.724723" lon="10.603990">
<ele>0.175422</ele>
<time>2026-07-17T12:02:59.000Z</time>
</trkpt>
<trkpt lat="57.724750" lon="10.604068">
<ele>0.178363</ele>
<time>2026-07-17T12:03:00.000Z</time>
</trkpt>
<trkpt lat="57.724776" lon="10.604146">
<ele>0.181273</ele>
<time>2026-07-17T12:03:01.000Z</time>
</trkpt>
<trkpt lat="57.724802" lon="10.604221">
<ele>0.184103</ele>
<time>2026-07-17T12:03:02.000Z</time>
</trkpt>
<trkpt lat="57.724821" lon="10.604283">
<ele>0.186365</ele>
<time>2026-07-17T12:03:03.000Z</time>
</trkpt>
<trkpt lat="57.724839" lon="10.604328">
<ele>0.188144</ele>
<time>2026-07-17T12:03:04.000Z</time>
</trkpt>
<trkpt lat="57.724851" lon="10.604369">
<ele>0.189623</ele>
<time>2026-07-17T12:03:05.000Z</time>
</trkpt>
<trkpt lat="57.724866" lon="10.604419">
<ele>0.191438</ele>
<time>2026-07-17T12:03:06.000Z</time>
</trkpt>
<trkpt lat="57.724878" lon="10.604474">
<ele>0.193318</ele>
<time>2026-07-17T12:03:07.000Z</time>
</trkpt>
<trkpt lat="57.724893" lon="10.604537">
<ele>0.195501</ele>
<time>2026-07-17T12:03:08.000Z</time>
</trkpt>
<trkpt lat="57.724909" lon="10.604602">
<ele>0.197766</ele>
<time>2026-07-17T12:03:09.000Z</time>
</trkpt>
<trkpt lat="57.724932" lon="10.604670">
<ele>0.213598</ele>
<time>2026-07-17T12:03:10.000Z</time>
</trkpt>
<trkpt lat="57.724950" lon="10.604736">
<ele>0.230060</ele>
<time>2026-07-17T12:03:11.000Z</time>
</trkpt>
<trkpt lat="57.724974" lon="10.604810">
<ele>0.249293</ele>
<time>2026-07-17T12:03:12.000Z</time>
</trkpt>
<trkpt lat="57.724997" lon="10.604880">
<ele>0.267550</ele>
<time>2026-07-17T12:03:13.000Z</time>
</trkpt>
<trkpt lat="57.725019" lon="10.604949">
<ele>0.285402</ele>
<time>2026-07-17T12:03:14.000Z</time>
</trkpt>
<trkpt lat="57.725046" lon="10.605019">
<ele>0.304584</ele>
<time>2026-07-17T12:03:15.000Z</time>
</trkpt>
<trkpt lat="57.725070" lon="10.605094">
<ele>0.324006</ele>
<time>2026-07-17T12:03:16.000Z</time>
</trkpt>
<trkpt lat="57.725096" lon="10.605161">
<ele>0.342405</ele>
<time>2026-07-17T12:03:17.000Z</time>
</trkpt>
<trkpt lat="57.725123" lon="10.605228">
<ele>0.361050</ele>
<time>2026-07-17T12:03:18.000Z</time>
</trkpt>
<trkpt lat="57.725146" lon="10.605291">
<ele>0.378003</ele>
<time>2026-07-17T12:03:19.000Z</time>
</trkpt>
<trkpt lat="57.725171" lon="10.605354">
<ele>0.395438</ele>
<time>2026-07-17T12:03:20.000Z</time>
</trkpt>
<trkpt lat="57.725188" lon="10.605425">
<ele>0.412723</ele>
<time>2026-07-17T12:03:21.000Z</time>
</trkpt>
<trkpt lat="57.725210" lon="10.605490">
<ele>0.429818</ele>
<time>2026-07-17T12:03:22.000Z</time>
</trkpt>
<trkpt lat="57.725230" lon="10.605555">
<ele>0.446482</ele>
<time>2026-07-17T12:03:23.000Z</time>
</trkpt>
<trkpt lat="57.725253" lon="10.605616">
<ele>0.463070</ele>
<time>2026-07-17T12:03:24.000Z</time>
</trkpt>
<trkpt lat="57.725276" lon="10.605674">
<ele>0.479118</ele>
<time>2026-07-17T12:03:25.000Z</time>
</trkpt>
<trkpt lat="57.725298" lon="10.605734">
<ele>0.495285</ele>
<time>2026-07-17T12:03:26.000Z</time>
</trkpt>
<trkpt lat="57.725321" lon="10.605792">
<ele>0.511333</ele>
<time>2026-07-17T12:03:27.000Z</time>
</trkpt>
<trkpt lat="57.725340" lon="10.605849">
<ele>0.526259</ele>
<time>2026-07-17T12:03:28.000Z</time>
</trkpt>
<trkpt lat="57.725359" lon="10.605905">
<ele>0.540998</ele>
<time>2026-07-17T12:03:29.000Z</time>
</trkpt>
<trkpt lat="57.725377" lon="10.605953">
<ele>0.554027</ele>
<time>2026-07-17T12:03:30.000Z</time>
</trkpt>
<trkpt lat="57.725398" lon="10.606003">
<ele>0.568157</ele>
<time>2026-07-17T12:03:31.000Z</time>
</trkpt>
<trkpt lat="57.725420" lon="10.606047">
<ele>0.581547</ele>
<time>2026-07-17T12:03:32.000Z</time>
</trkpt>
<trkpt lat="57.725439" lon="10.606103">
<ele>0.596285</ele>
<time>2026-07-17T12:03:33.000Z</time>
</trkpt>
<trkpt lat="57.725459" lon="10.606161">
<ele>0.611622</ele>
<time>2026-07-17T12:03:34.000Z</time>
</trkpt>
<trkpt lat="57.725481" lon="10.606218">
<ele>0.627244</ele>
<time>2026-07-17T12:03:35.000Z</time>
</trkpt>
<trkpt lat="57.725501" lon="10.606276">
<ele>0.642581</ele>
<time>2026-07-17T12:03:36.000Z</time>
</trkpt>
<trkpt lat="57.725527" lon="10.606333">
<ele>0.659233</ele>
<time>2026-07-17T12:03:37.000Z</time>
</trkpt>
<trkpt lat="57.725550" lon="10.606385">
<ele>0.674232</ele>
<time>2026-07-17T12:03:38.000Z</time>
</trkpt>
<trkpt lat="57.725573" lon="10.606438">
<ele>0.689403</ele>
<time>2026-07-17T12:03:39.000Z</time>
</trkpt>
<trkpt lat="57.725595" lon="10.606491">
<ele>0.704315</ele>
<time>2026-07-17T12:03:40.000Z</time>
</trkpt>
<trkpt lat="57.725615" lon="10.606544">
<ele>0.718731</ele>
<time>2026-07-17T12:03:41.000Z</time>
</trkpt>
<trkpt lat="57.725637" lon="10.606592">
<ele>0.732782</ele>
<time>2026-07-17T12:03:42.000Z</time>
</trkpt>
<trkpt lat="57.725661" lon="10.606639">
<ele>0.747228</ele>
<time>2026-07-17T12:03:43.000Z</time>
</trkpt>
<trkpt lat="57.725683" lon="10.606680">
<ele>0.760139</ele>
<time>2026-07-17T12:03:44.000Z</time>
</trkpt>
<trkpt lat="57.725706" lon="10.606722">
<ele>0.773503</ele>
<time>2026-07-17T12:03:45.000Z</time>
</trkpt>
<trkpt lat="57.725721" lon="10.606763">
<ele>0.784543</ele>
<time>2026-07-17T12:03:46.000Z</time>
</trkpt>
<trkpt lat="57.725736" lon="10.606800">
<ele>0.794862</ele>
<time>2026-07-17T12:03:47.000Z</time>
</trkpt>
<trkpt lat="57.725747" lon="10.606840">
<ele>0.804856</ele>
<time>2026-07-17T12:03:48.000Z</time>
</trkpt>
<trkpt lat="57.725759" lon="10.606882">
<ele>0.815437</ele>
<time>2026-07-17T12:03:49.000Z</time>
</trkpt>
<trkpt lat="57.725770" lon="10.606922">
<ele>0.825432</ele>
<time>2026-07-17T12:03:50.000Z</time>
</trkpt>
<trkpt lat="57.725782" lon="10.606957">
<ele>0.834671</ele>
<time>2026-07-17T12:03:51.000Z</time>
</trkpt>
<trkpt lat="57.725793" lon="10.606990">
<ele>0.843312</ele>
<time>2026-07-17T12:03:52.000Z</time>
</trkpt>
<trkpt lat="57.725808" lon="10.607024">
<ele>0.853109</ele>
<time>2026-07-17T12:03:53.000Z</time>
</trkpt>
<trkpt lat="57.725820" lon="10.607057">
<ele>0.861978</ele>
<time>2026-07-17T12:03:54.000Z</time>
</trkpt>
<trkpt lat="57.725835" lon="10.607090">
<ele>0.871604</ele>
<time>2026-07-17T12:03:55.000Z</time>
</trkpt>
<trkpt lat="57.725851" lon="10.607124">
<ele>0.881671</ele>
<time>2026-07-17T12:03:56.000Z</time>
</trkpt>
<trkpt lat="57.725873" lon="10.607147">
<ele>0.892152</ele>
<time>2026-07-17T12:03:57.000Z</time>
</trkpt>
<trkpt lat="57.725898" lon="10.607164">
<ele>0.903217</ele>
<time>2026-07-17T12:03:58.000Z</time>
</trkpt>
<trkpt lat="57.725928" lon="10.607173">
<ele>0.915856</ele>
<time>2026-07-17T12:03:59.000Z</time>
</trkpt>
<trkpt lat="57.725955" lon="10.607176">
<ele>0.927107</ele>
<time>2026-07-17T12:04:00.000Z</time>
</trkpt>
<trkpt lat="57.725986" lon="10.607170">
<ele>0.940072</ele>
<time>2026-07-17T12:04:01.000Z</time>
</trkpt>
<trkpt lat="57.726017" lon="10.607155">
<ele>0.938371</ele>
<time>2026-07-17T12:04:02.000Z</time>
</trkpt>
<trkpt lat="57.726051" lon="10.607139">
<ele>0.921908</ele>
<time>2026-07-17T12:04:03.000Z</time>
</trkpt>
<trkpt lat="57.726081" lon="10.607132">
<ele>0.907711</ele>
<time>2026-07-17T12:04:04.000Z</time>
</trkpt>
<trkpt lat="57.726112" lon="10.607127">
<ele>0.893098</ele>
<time>2026-07-17T12:04:05.000Z</time>
</trkpt>
<trkpt lat="57.726142" lon="10.607118">
<ele>0.878830</ele>
<time>2026-07-17T12:04:06.000Z</time>
</trkpt>
<trkpt lat="57.726172" lon="10.607107">
<ele>0.864474</ele>
<time>2026-07-17T12:04:07.000Z</time>
</trkpt>
<trkpt lat="57.726202" lon="10.607094">
<ele>0.850014</ele>
<time>2026-07-17T12:04:08.000Z</time>
</trkpt>
<trkpt lat="57.726232" lon="10.607078">
<ele>0.835365</ele>
<time>2026-07-17T12:04:09.000Z</time>
</trkpt>
<trkpt lat="57.726264" lon="10.607060">
<ele>0.819674</ele>
<time>2026-07-17T12:04:10.000Z</time>
</trkpt>
<trkpt lat="57.726293" lon="10.607046">
<ele>0.805610</ele>
<time>2026-07-17T12:04:11.000Z</time>
</trkpt>
<trkpt lat="57.726325" lon="10.607034">
<ele>0.790284</ele>
<time>2026-07-17T12:04:12.000Z</time>
</trkpt>
<trkpt lat="57.726353" lon="10.607027">
<ele>0.777018</ele>
<time>2026-07-17T12:04:13.000Z</time>
</trkpt>
<trkpt lat="57.726386" lon="10.607017">
<ele>0.761319</ele>
<time>2026-07-17T12:04:14.000Z</time>
</trkpt>
<trkpt lat="57.726415" lon="10.606999">
<ele>0.746972</ele>
<time>2026-07-17T12:04:15.000Z</time>
</trkpt>
<trkpt lat="57.726447" lon="10.606972">
<ele>0.730489</ele>
<time>2026-07-17T12:04:16.000Z</time>
</trkpt>
<trkpt lat="57.726469" lon="10.606943">
<ele>0.717855</ele>
<time>2026-07-17T12:04:17.000Z</time>
</trkpt>
<trkpt lat="57.726491" lon="10.606905">
<ele>0.703800</ele>
<time>2026-07-17T12:04:18.000Z</time>
</trkpt>
<trkpt lat="57.726503" lon="10.606866">
<ele>0.692513</ele>
<time>2026-07-17T12:04:19.000Z</time>
</trkpt>
<trkpt lat="57.726518" lon="10.606830">
<ele>0.681063</ele>
<time>2026-07-17T12:04:20.000Z</time>
</trkpt>
<trkpt lat="57.726533" lon="10.606803">
<ele>0.671292</ele>
<time>2026-07-17T12:04:21.000Z</time>
</trkpt>
<trkpt lat="57.726553" lon="10.606797">
<ele>0.661780</ele>
<time>2026-07-17T12:04:22.000Z</time>
</trkpt>
<trkpt lat="57.726571" lon="10.606804">
<ele>0.653147</ele>
<time>2026-07-17T12:04:23.000Z</time>
</trkpt>
<trkpt lat="57.726582" lon="10.606825">
<ele>0.645770</ele>
<time>2026-07-17T12:04:24.000Z</time>
</trkpt>
<trkpt lat="57.726594" lon="10.606863">
<ele>0.634700</ele>
<time>2026-07-17T12:04:25.000Z</time>
</trkpt>
<trkpt lat="57.726602" lon="10.606908">
<ele>0.622807</ele>
<time>2026-07-17T12:04:26.000Z</time>
</trkpt>
<trkpt lat="57.726613" lon="10.606954">
<ele>0.610168</ele>
<time>2026-07-17T12:04:27.000Z</time>
</trkpt>
<trkpt lat="57.726625" lon="10.607003">
<ele>0.596650</ele>
<time>2026-07-17T12:04:28.000Z</time>
</trkpt>
<trkpt lat="57.726641" lon="10.607052">
<ele>0.582248</ele>
<time>2026-07-17T12:04:29.000Z</time>
</trkpt>
<trkpt lat="57.726665" lon="10.607093">
<ele>0.566992</ele>
<time>2026-07-17T12:04:30.000Z</time>
</trkpt>
<trkpt lat="57.726690" lon="10.607121">
<ele>0.553313</ele>
<time>2026-07-17T12:04:31.000Z</time>
</trkpt>
<trkpt lat="57.726709" lon="10.607137">
<ele>0.543529</ele>
<time>2026-07-17T12:04:32.000Z</time>
</trkpt>
<trkpt lat="57.726729" lon="10.607144">
<ele>0.533974</ele>
<time>2026-07-17T12:04:33.000Z</time>
</trkpt>
<trkpt lat="57.726751" lon="10.607149">
<ele>0.523567</ele>
<time>2026-07-17T12:04:34.000Z</time>
</trkpt>
<trkpt lat="57.726766" lon="10.607152">
<ele>0.516483</ele>
<time>2026-07-17T12:04:35.000Z</time>
</trkpt>
<trkpt lat="57.726780" lon="10.607155">
<ele>0.509865</ele>
<time>2026-07-17T12:04:36.000Z</time>
</trkpt>
<trkpt lat="57.726796" lon="10.607160">
<ele>0.502248</ele>
<time>2026-07-17T12:04:37.000Z</time>
</trkpt>
<trkpt lat="57.726808" lon="10.607166">
<ele>0.496415</ele>
<time>2026-07-17T12:04:38.000Z</time>
</trkpt>
<trkpt lat="57.726823" lon="10.607174">
<ele>0.489090</ele>
<time>2026-07-17T12:04:39.000Z</time>
</trkpt>
<trkpt lat="57.726835" lon="10.607182">
<ele>0.483109</ele>
<time>2026-07-17T12:04:40.000Z</time>
</trkpt>
<trkpt lat="57.726854" lon="10.607186">
<ele>0.474130</ele>
<time>2026-07-17T12:04:41.000Z</time>
</trkpt>
<trkpt lat="57.726873" lon="10.607193">
<ele>0.465036</ele>
<time>2026-07-17T12:04:42.000Z</time>
</trkpt>
<trkpt lat="57.726890" lon="10.607200">
<ele>0.456862</ele>
<time>2026-07-17T12:04:43.000Z</time>
</trkpt>
<trkpt lat="57.726915" lon="10.607222">
<ele>0.443890</ele>
<time>2026-07-17T12:04:44.000Z</time>
</trkpt>
<trkpt lat="57.726929" lon="10.607247">
<ele>0.434806</ele>
<time>2026-07-17T12:04:45.000Z</time>
</trkpt>
<trkpt lat="57.726940" lon="10.607270">
<ele>0.427063</ele>
<time>2026-07-17T12:04:46.000Z</time>
</trkpt>
<trkpt lat="57.726945" lon="10.607286">
<ele>0.422414</ele>
<time>2026-07-17T12:04:47.000Z</time>
</trkpt>
<trkpt lat="57.726957" lon="10.607301">
<ele>0.415639</ele>
<time>2026-07-17T12:04:48.000Z</time>
</trkpt>
<trkpt lat="57.726973" lon="10.607317">
<ele>0.407121</ele>
<time>2026-07-17T12:04:49.000Z</time>
</trkpt>
<trkpt lat="57.726993" lon="10.607334">
<ele>0.396807</ele>
<time>2026-07-17T12:04:50.000Z</time>
</trkpt>
<trkpt lat="57.727018" lon="10.607355">
<ele>0.383939</ele>
<time>2026-07-17T12:04:51.000Z</time>
</trkpt>
<trkpt lat="57.727046" lon="10.607381">
<ele>0.369263</ele>
<time>2026-07-17T12:04:52.000Z</time>
</trkpt>
<trkpt lat="57.727077" lon="10.607404">
<ele>0.353604</ele>
<time>2026-07-17T12:04:53.000Z</time>
</trkpt>
<trkpt lat="57.727107" lon="10.607430">
<ele>0.338080</ele>
<time>2026-07-17T12:04:54.000Z</time>
</trkpt>
<trkpt lat="57.727134" lon="10.607459">
<ele>0.323463</ele>
<time>2026-07-17T12:04:55.000Z</time>
</trkpt>
<trkpt lat="57.727160" lon="10.607498">
<ele>0.307819</ele>
<time>2026-07-17T12:04:56.000Z</time>
</trkpt>
<trkpt lat="57.727186" lon="10.607543">
<ele>0.291194</ele>
<time>2026-07-17T12:04:57.000Z</time>
</trkpt>
<trkpt lat="57.727218" lon="10.607599">
<ele>0.270626</ele>
<time>2026-07-17T12:04:58.000Z</time>
</trkpt>
<trkpt lat="57.727247" lon="10.607645">
<ele>0.252779</ele>
<time>2026-07-17T12:04:59.000Z</time>
</trkpt>
<trkpt lat="57.727283" lon="10.607695">
<ele>0.231732</ele>
<time>2026-07-17T12:05:00.000Z</time>
</trkpt>
<trkpt lat="57.727316" lon="10.607741">
<ele>0.212413</ele>
<time>2026-07-17T12:05:01.000Z</time>
</trkpt>
<trkpt lat="57.727352" lon="10.607791">
<ele>0.191365</ele>
<time>2026-07-17T12:05:02.000Z</time>
</trkpt>
<trkpt lat="57.727385" lon="10.607828">
<ele>0.173303</ele>
<time>2026-07-17T12:05:03.000Z</time>
</trkpt>
<trkpt lat="57.727425" lon="10.607874">
<ele>0.151259</ele>
<time>2026-07-17T12:05:04.000Z</time>
</trkpt>
<trkpt lat="57.727459" lon="10.607909">
<ele>0.133039</ele>
<time>2026-07-17T12:05:05.000Z</time>
</trkpt>
<trkpt lat="57.727497" lon="10.607942">
<ele>0.113369</ele>
<time>2026-07-17T12:05:06.000Z</time>
</trkpt>
<trkpt lat="57.727532" lon="10.607969">
<ele>0.106479</ele>
<time>2026-07-17T12:05:07.000Z</time>
</trkpt>
<trkpt lat="57.727561" lon="10.607988">
<ele>0.117927</ele>
<time>2026-07-17T12:05:08.000Z</time>
</trkpt>
<trkpt lat="57.727602" lon="10.608001">
<ele>0.133421</ele>
<time>2026-07-17T12:05:09.000Z</time>
</trkpt>
<trkpt lat="57.727644" lon="10.608013">
<ele>0.149251</ele>
<time>2026-07-17T12:05:10.000Z</time>
</trkpt>
<trkpt lat="57.727685" lon="10.608010">
<ele>0.164539</ele>
<time>2026-07-17T12:05:11.000Z</time>
</trkpt>
<trkpt lat="57.727726" lon="10.608006">
<ele>0.179837</ele>
<time>2026-07-17T12:05:12.000Z</time>
</trkpt>
<trkpt lat="57.727768" lon="10.607991">
<ele>0.195768</ele>
<time>2026-07-17T12:05:13.000Z</time>
</trkpt>
<trkpt lat="57.727807" lon="10.607974">
<ele>0.210687</ele>
<time>2026-07-17T12:05:14.000Z</time>
</trkpt>
<trkpt lat="57.727851" lon="10.607963">
<ele>0.227227</ele>
<time>2026-07-17T12:05:15.000Z</time>
</trkpt>
<trkpt lat="57.727894" lon="10.607959">
<ele>0.243269</ele>
<time>2026-07-17T12:05:16.000Z</time>
</trkpt>
<trkpt lat="57.727933" lon="10.607953">
<ele>0.257849</ele>
<time>2026-07-17T12:05:17.000Z</time>
</trkpt>
<trkpt lat="57.727979" lon="10.607946">
<ele>0.275045</ele>
<time>2026-07-17T12:05:18.000Z</time>
</trkpt>
<trkpt lat="57.728023" lon="10.607938">
<ele>0.291517</ele>
<time>2026-07-17T12:05:19.000Z</time>
</trkpt>
<trkpt lat="57.728065" lon="10.607922">
<ele>0.307486</ele>
<time>2026-07-17T12:05:20.000Z</time>
</trkpt>
<trkpt lat="57.728100" lon="10.607908">
<ele>0.320821</ele>
<time>2026-07-17T12:05:21.000Z</time>
</trkpt>
<trkpt lat="57.728150" lon="10.607890">
<ele>0.339792</ele>
<time>2026-07-17T12:05:22.000Z</time>
</trkpt>
<trkpt lat="57.728191" lon="10.607870">
<ele>0.355578</ele>
<time>2026-07-17T12:05:23.000Z</time>
</trkpt>
<trkpt lat="57.728230" lon="10.607845">
<ele>0.370937</ele>
<time>2026-07-17T12:05:24.000Z</time>
</trkpt>
<trkpt lat="57.728267" lon="10.607819">
<ele>0.385662</ele>
<time>2026-07-17T12:05:25.000Z</time>
</trkpt>
<trkpt lat="57.728310" lon="10.607787">
<ele>0.402902</ele>
<time>2026-07-17T12:05:26.000Z</time>
</trkpt>
<trkpt lat="57.728349" lon="10.607764">
<ele>0.418137</ele>
<time>2026-07-17T12:05:27.000Z</time>
</trkpt>
<trkpt lat="57.728390" lon="10.607737">
<ele>0.434330</ele>
<time>2026-07-17T12:05:28.000Z</time>
</trkpt>
<trkpt lat="57.728430" lon="10.607708">
<ele>0.450312</ele>
<time>2026-07-17T12:05:29.000Z</time>
</trkpt>
<trkpt lat="57.728470" lon="10.607675">
<ele>0.466598</ele>
<time>2026-07-17T12:05:30.000Z</time>
</trkpt>
<trkpt lat="57.728512" lon="10.607640">
<ele>0.483726</ele>
<time>2026-07-17T12:05:31.000Z</time>
</trkpt>
<trkpt lat="57.728554" lon="10.607609">
<ele>0.500547</ele>
<time>2026-07-17T12:05:32.000Z</time>
</trkpt>
<trkpt lat="57.728600" lon="10.607580">
<ele>0.518631</ele>
<time>2026-07-17T12:05:33.000Z</time>
</trkpt>
<trkpt lat="57.728639" lon="10.607555">
<ele>0.533990</ele>
<time>2026-07-17T12:05:34.000Z</time>
</trkpt>
<trkpt lat="57.728684" lon="10.607526">
<ele>0.551722</ele>
<time>2026-07-17T12:05:35.000Z</time>
</trkpt>
<trkpt lat="57.728726" lon="10.607497">
<ele>0.568401</ele>
<time>2026-07-17T12:05:36.000Z</time>
</trkpt>
<trkpt lat="57.728762" lon="10.607472">
<ele>0.582707</ele>
<time>2026-07-17T12:05:37.000Z</time>
</trkpt>
<trkpt lat="57.728802" lon="10.607444">
<ele>0.598618</ele>
<time>2026-07-17T12:05:38.000Z</time>
</trkpt>
<trkpt lat="57.728839" lon="10.607420">
<ele>0.613207</ele>
<time>2026-07-17T12:05:39.000Z</time>
</trkpt>
<trkpt lat="57.728874" lon="10.607394">
<ele>0.627236</ele>
<time>2026-07-17T12:05:40.000Z</time>
</trkpt>
<trkpt lat="57.728904" lon="10.607369">
<ele>0.639471</ele>
<time>2026-07-17T12:05:41.000Z</time>
</trkpt>
<trkpt lat="57.728935" lon="10.607348">
<ele>0.651754</ele>
<time>2026-07-17T12:05:42.000Z</time>
</trkpt>
<trkpt lat="57.728965" lon="10.607329">
<ele>0.663554</ele>
<time>2026-07-17T12:05:43.000Z</time>
</trkpt>
<trkpt lat="57.728995" lon="10.607309">
<ele>0.675419</ele>
<time>2026-07-17T12:05:44.000Z</time>
</trkpt>
<trkpt lat="57.729021" lon="10.607287">
<ele>0.686049</ele>
<time>2026-07-17T12:05:45.000Z</time>
</trkpt>
<trkpt lat="57.729045" lon="10.607265">
<ele>0.696005</ele>
<time>2026-07-17T12:05:46.000Z</time>
</trkpt>
<trkpt lat="57.729070" lon="10.607250">
<ele>0.705786</ele>
<time>2026-07-17T12:05:47.000Z</time>
</trkpt>
<trkpt lat="57.729098" lon="10.607235">
<ele>0.716637</ele>
<time>2026-07-17T12:05:48.000Z</time>
</trkpt>
<trkpt lat="57.729124" lon="10.607221">
<ele>0.726717</ele>
<time>2026-07-17T12:05:49.000Z</time>
</trkpt>
<trkpt lat="57.729152" lon="10.607209">
<ele>0.737420</ele>
<time>2026-07-17T12:05:50.000Z</time>
</trkpt>
<trkpt lat="57.729182" lon="10.607202">
<ele>0.748684</ele>
<time>2026-07-17T12:05:51.000Z</time>
</trkpt>
<trkpt lat="57.729208" lon="10.607202">
<ele>0.758372</ele>
<time>2026-07-17T12:05:52.000Z</time>
</trkpt>
<trkpt lat="57.729227" lon="10.607207">
<ele>0.765521</ele>
<time>2026-07-17T12:05:53.000Z</time>
</trkpt>
<trkpt lat="57.729254" lon="10.607217">
<ele>0.769929</ele>
<time>2026-07-17T12:05:54.000Z</time>
</trkpt>
<trkpt lat="57.729268" lon="10.607231">
<ele>0.767068</ele>
<time>2026-07-17T12:05:55.000Z</time>
</trkpt>
<trkpt lat="57.729288" lon="10.607245">
<ele>0.763219</ele>
<time>2026-07-17T12:05:56.000Z</time>
</trkpt>
<trkpt lat="57.729307" lon="10.607261">
<ele>0.759463</ele>
<time>2026-07-17T12:05:57.000Z</time>
</trkpt>
<trkpt lat="57.729326" lon="10.607280">
<ele>0.755579</ele>
<time>2026-07-17T12:05:58.000Z</time>
</trkpt>
<trkpt lat="57.729345" lon="10.607314">
<ele>0.750841</ele>
<time>2026-07-17T12:05:59.000Z</time>
</trkpt>
<trkpt lat="57.729365" lon="10.607351">
<ele>0.745773</ele>
<time>2026-07-17T12:06:00.000Z</time>
</trkpt>
<trkpt lat="57.729392" lon="10.607394">
<ele>0.739383</ele>
<time>2026-07-17T12:06:01.000Z</time>
</trkpt>
<trkpt lat="57.729415" lon="10.607443">
<ele>0.733103</ele>
<time>2026-07-17T12:06:02.000Z</time>
</trkpt>
<trkpt lat="57.729442" lon="10.607499">
<ele>0.725839</ele>
<time>2026-07-17T12:06:03.000Z</time>
</trkpt>
<trkpt lat="57.729468" lon="10.607552">
<ele>0.718911</ele>
<time>2026-07-17T12:06:04.000Z</time>
</trkpt>
<trkpt lat="57.729499" lon="10.607607">
<ele>0.711212</ele>
<time>2026-07-17T12:06:05.000Z</time>
</trkpt>
<trkpt lat="57.729523" lon="10.607654">
<ele>0.704951</ele>
<time>2026-07-17T12:06:06.000Z</time>
</trkpt>
<trkpt lat="57.729548" lon="10.607718">
<ele>0.697318</ele>
<time>2026-07-17T12:06:07.000Z</time>
</trkpt>
<trkpt lat="57.729575" lon="10.607778">
<ele>0.689764</ele>
<time>2026-07-17T12:06:08.000Z</time>
</trkpt>
<trkpt lat="57.729602" lon="10.607844">
<ele>0.681760</ele>
<time>2026-07-17T12:06:09.000Z</time>
</trkpt>
<trkpt lat="57.729628" lon="10.607915">
<ele>0.673473</ele>
<time>2026-07-17T12:06:10.000Z</time>
</trkpt>
<trkpt lat="57.729651" lon="10.607993">
<ele>0.664895</ele>
<time>2026-07-17T12:06:11.000Z</time>
</trkpt>
<trkpt lat="57.729673" lon="10.608073">
<ele>0.656233</ele>
<time>2026-07-17T12:06:12.000Z</time>
</trkpt>
<trkpt lat="57.729696" lon="10.608157">
<ele>0.647145</ele>
<time>2026-07-17T12:06:13.000Z</time>
</trkpt>
<trkpt lat="57.729719" lon="10.608251">
<ele>0.637192</ele>
<time>2026-07-17T12:06:14.000Z</time>
</trkpt>
<trkpt lat="57.729734" lon="10.608339">
<ele>0.628299</ele>
<time>2026-07-17T12:06:15.000Z</time>
</trkpt>
<trkpt lat="57.729753" lon="10.608427">
<ele>0.619162</ele>
<time>2026-07-17T12:06:16.000Z</time>
</trkpt>
<trkpt lat="57.729772" lon="10.608512">
<ele>0.610291</ele>
<time>2026-07-17T12:06:17.000Z</time>
</trkpt>
<trkpt lat="57.729791" lon="10.608596">
<ele>0.601510</ele>
<time>2026-07-17T12:06:18.000Z</time>
</trkpt>
<trkpt lat="57.729801" lon="10.608673">
<ele>0.593881</ele>
<time>2026-07-17T12:06:19.000Z</time>
</trkpt>
<trkpt lat="57.729800" lon="10.608748">
<ele>0.586659</ele>
<time>2026-07-17T12:06:20.000Z</time>
</trkpt>
<trkpt lat="57.729793" lon="10.608813">
<ele>0.580276</ele>
<time>2026-07-17T12:06:21.000Z</time>
</trkpt>
<trkpt lat="57.729790" lon="10.608882">
<ele>0.573612</ele>
<time>2026-07-17T12:06:22.000Z</time>
</trkpt>
<trkpt lat="57.729795" lon="10.608947">
<ele>0.567290</ele>
<time>2026-07-17T12:06:23.000Z</time>
</trkpt>
<trkpt lat="57.729811" lon="10.609010">
<ele>0.560575</ele>
<time>2026-07-17T12:06:24.000Z</time>
</trkpt>
<trkpt lat="57.729835" lon="10.609057">
<ele>0.554314</ele>
<time>2026-07-17T12:06:25.000Z</time>
</trkpt>
<trkpt lat="57.729870" lon="10.609107">
<ele>0.546378</ele>
<time>2026-07-17T12:06:26.000Z</time>
</trkpt>
<trkpt lat="57.729901" lon="10.609137">
<ele>0.540087</ele>
<time>2026-07-17T12:06:27.000Z</time>
</trkpt>
<trkpt lat="57.729942" lon="10.609181">
<ele>0.531567</ele>
<time>2026-07-17T12:06:28.000Z</time>
</trkpt>
<trkpt lat="57.729975" lon="10.609226">
<ele>0.524208</ele>
<time>2026-07-17T12:06:29.000Z</time>
</trkpt>
<trkpt lat="57.730006" lon="10.609287">
<ele>0.516101</ele>
<time>2026-07-17T12:06:30.000Z</time>
</trkpt>
<trkpt lat="57.730032" lon="10.609352">
<ele>0.508283</ele>
<time>2026-07-17T12:06:31.000Z</time>
</trkpt>
<trkpt lat="57.730063" lon="10.609428">
<ele>0.499076</ele>
<time>2026-07-17T12:06:32.000Z</time>
</trkpt>
<trkpt lat="57.730093" lon="10.609511">
<ele>0.489428</ele>
<time>2026-07-17T12:06:33.000Z</time>
</trkpt>
<trkpt lat="57.730124" lon="10.609593">
<ele>0.479756</ele>
<time>2026-07-17T12:06:34.000Z</time>
</trkpt>
<trkpt lat="57.730158" lon="10.609682">
<ele>0.469221</ele>
<time>2026-07-17T12:06:35.000Z</time>
</trkpt>
<trkpt lat="57.730185" lon="10.609771">
<ele>0.459368</ele>
<time>2026-07-17T12:06:36.000Z</time>
</trkpt>
<trkpt lat="57.730211" lon="10.609866">
<ele>0.449091</ele>
<time>2026-07-17T12:06:37.000Z</time>
</trkpt>
<trkpt lat="57.730234" lon="10.609962">
<ele>0.434052</ele>
<time>2026-07-17T12:06:38.000Z</time>
</trkpt>
<trkpt lat="57.730262" lon="10.610054">
<ele>0.418029</ele>
<time>2026-07-17T12:06:39.000Z</time>
</trkpt>
<trkpt lat="57.730291" lon="10.610144">
<ele>0.402122</ele>
<time>2026-07-17T12:06:40.000Z</time>
</trkpt>
<trkpt lat="57.730323" lon="10.610246">
<ele>0.384221</ele>
<time>2026-07-17T12:06:41.000Z</time>
</trkpt>
<trkpt lat="57.730351" lon="10.610342">
<ele>0.367669</ele>
<time>2026-07-17T12:06:42.000Z</time>
</trkpt>
<trkpt lat="57.730383" lon="10.610452">
<ele>0.348714</ele>
<time>2026-07-17T12:06:43.000Z</time>
</trkpt>
<trkpt lat="57.730413" lon="10.610556">
<ele>0.330827</ele>
<time>2026-07-17T12:06:44.000Z</time>
</trkpt>
<trkpt lat="57.730436" lon="10.610660">
<ele>0.313794</ele>
<time>2026-07-17T12:06:45.000Z</time>
</trkpt>
<trkpt lat="57.730459" lon="10.610759">
<ele>0.297457</ele>
<time>2026-07-17T12:06:46.000Z</time>
</trkpt>
<trkpt lat="57.730481" lon="10.610843">
<ele>0.283300</ele>
<time>2026-07-17T12:06:47.000Z</time>
</trkpt>
<trkpt lat="57.730506" lon="10.610933">
<ele>0.267948</ele>
<time>2026-07-17T12:06:48.000Z</time>
</trkpt>
<trkpt lat="57.730532" lon="10.611012">
<ele>0.253906</ele>
<time>2026-07-17T12:06:49.000Z</time>
</trkpt>
<trkpt lat="57.730555" lon="10.611094">
<ele>0.239890</ele>
<time>2026-07-17T12:06:50.000Z</time>
</trkpt>
<trkpt lat="57.730585" lon="10.611179">
<ele>0.224472</ele>
<time>2026-07-17T12:06:51.000Z</time>
</trkpt>
<trkpt lat="57.730608" lon="10.611256">
<ele>0.211122</ele>
<time>2026-07-17T12:06:52.000Z</time>
</trkpt>
<trkpt lat="57.730639" lon="10.611362">
<ele>0.192834</ele>
<time>2026-07-17T12:06:53.000Z</time>
</trkpt>
<trkpt lat="57.730666" lon="10.611459">
<ele>0.176282</ele>
<time>2026-07-17T12:06:54.000Z</time>
</trkpt>
<trkpt lat="57.730696" lon="10.611557">
<ele>0.159188</ele>
<time>2026-07-17T12:06:55.000Z</time>
</trkpt>
<trkpt lat="57.730727" lon="10.611660">
<ele>0.141298</ele>
<time>2026-07-17T12:06:56.000Z</time>
</trkpt>
<trkpt lat="57.730754" lon="10.611761">
<ele>0.124206</ele>
<time>2026-07-17T12:06:57.000Z</time>
</trkpt>
<trkpt lat="57.730784" lon="10.611862">
<ele>0.106718</ele>
<time>2026-07-17T12:06:58.000Z</time>
</trkpt>
<trkpt lat="57.730814" lon="10.611963">
<ele>0.089229</ele>
<time>2026-07-17T12:06:59.000Z</time>
</trkpt>
<trkpt lat="57.730846" lon="10.612070">
<ele>0.070672</ele>
<time>2026-07-17T12:07:00.000Z</time>
</trkpt>
<trkpt lat="57.730876" lon="10.612172">
<ele>0.053051</ele>
<time>2026-07-17T12:07:01.000Z</time>
</trkpt>
<trkpt lat="57.730906" lon="10.612272">
<ele>0.035695</ele>
<time>2026-07-17T12:07:02.000Z</time>
</trkpt>
<trkpt lat="57.730937" lon="10.612375">
<ele>0.017804</ele>
<time>2026-07-17T12:07:03.000Z</time>
</trkpt>
<trkpt lat="57.730968" lon="10.612477">
<ele>0.000045</ele>
<time>2026-07-17T12:07:04.000Z</time>
</trkpt>
<trkpt lat="57.730998" lon="10.612579">
<ele>-0.017576</ele>
<time>2026-07-17T12:07:05.000Z</time>
</trkpt>
<trkpt lat="57.731025" lon="10.612679">
<ele>-0.034532</ele>
<time>2026-07-17T12:07:06.000Z</time>
</trkpt>
<trkpt lat="57.731053" lon="10.612774">
<ele>-0.050952</ele>
<time>2026-07-17T12:07:07.000Z</time>
</trkpt>
<trkpt lat="57.731087" lon="10.612884">
<ele>-0.067688</ele>
<time>2026-07-17T12:07:08.000Z</time>
</trkpt>
<trkpt lat="57.731120" lon="10.612980">
<ele>-0.079559</ele>
<time>2026-07-17T12:07:09.000Z</time>
</trkpt>
<trkpt lat="57.731155" lon="10.613080">
<ele>-0.091991</ele>
<time>2026-07-17T12:07:10.000Z</time>
</trkpt>
<trkpt lat="57.731185" lon="10.613181">
<ele>-0.104007</ele>
<time>2026-07-17T12:07:11.000Z</time>
</trkpt>
<trkpt lat="57.731218" lon="10.613279">
<ele>-0.116054</ele>
<time>2026-07-17T12:07:12.000Z</time>
</trkpt>
<trkpt lat="57.731246" lon="10.613383">
<ele>-0.128164</ele>
<time>2026-07-17T12:07:13.000Z</time>
</trkpt>
<trkpt lat="57.731272" lon="10.613468">
<ele>-0.138349</ele>
<time>2026-07-17T12:07:14.000Z</time>
</trkpt>
<trkpt lat="57.731311" lon="10.613581">
<ele>-0.152338</ele>
<time>2026-07-17T12:07:15.000Z</time>
</trkpt>
<trkpt lat="57.731337" lon="10.613659">
<ele>-0.161899</ele>
<time>2026-07-17T12:07:16.000Z</time>
</trkpt>
<trkpt lat="57.731375" lon="10.613767">
<ele>-0.175346</ele>
<time>2026-07-17T12:07:17.000Z</time>
</trkpt>
<trkpt lat="57.731397" lon="10.613833">
<ele>-0.183436</ele>
<time>2026-07-17T12:07:18.000Z</time>
</trkpt>
<trkpt lat="57.731429" lon="10.613929">
<ele>-0.195202</ele>
<time>2026-07-17T12:07:19.000Z</time>
</trkpt>
<trkpt lat="57.731467" lon="10.614051">
<ele>-0.209887</ele>
<time>2026-07-17T12:07:20.000Z</time>
</trkpt>
<trkpt lat="57.731498" lon="10.614152">
<ele>-0.222000</ele>
<time>2026-07-17T12:07:21.000Z</time>
</trkpt>
<trkpt lat="57.731524" lon="10.614255">
<ele>-0.233845</ele>
<time>2026-07-17T12:07:22.000Z</time>
</trkpt>
<trkpt lat="57.731555" lon="10.614353">
<ele>-0.245688</ele>
<time>2026-07-17T12:07:23.000Z</time>
</trkpt>
<trkpt lat="57.731585" lon="10.614455">
<ele>-0.257796</ele>
<time>2026-07-17T12:07:24.000Z</time>
</trkpt>
<trkpt lat="57.731616" lon="10.614559">
<ele>-0.270180</ele>
<time>2026-07-17T12:07:25.000Z</time>
</trkpt>
<trkpt lat="57.731645" lon="10.614658">
<ele>-0.281920</ele>
<time>2026-07-17T12:07:26.000Z</time>
</trkpt>
<trkpt lat="57.731673" lon="10.614761">
<ele>-0.293937</ele>
<time>2026-07-17T12:07:27.000Z</time>
</trkpt>
<trkpt lat="57.731702" lon="10.614851">
<ele>-0.304866</ele>
<time>2026-07-17T12:07:28.000Z</time>
</trkpt>
<trkpt lat="57.731734" lon="10.614957">
<ele>-0.317527</ele>
<time>2026-07-17T12:07:29.000Z</time>
</trkpt>
<trkpt lat="57.731760" lon="10.615055">
<ele>-0.328904</ele>
<time>2026-07-17T12:07:30.000Z</time>
</trkpt>
<trkpt lat="57.731796" lon="10.615161">
<ele>-0.341966</ele>
<time>2026-07-17T12:07:31.000Z</time>
</trkpt>
<trkpt lat="57.731824" lon="10.615257">
<ele>-0.353339</ele>
<time>2026-07-17T12:07:32.000Z</time>
</trkpt>
<trkpt lat="57.731853" lon="10.615367">
<ele>-0.366094</ele>
<time>2026-07-17T12:07:33.000Z</time>
</trkpt>
<trkpt lat="57.731883" lon="10.615473">
<ele>-0.378567</ele>
<time>2026-07-17T12:07:34.000Z</time>
</trkpt>
<trkpt lat="57.731913" lon="10.615579">
<ele>-0.391040</ele>
<time>2026-07-17T12:07:35.000Z</time>
</trkpt>
<trkpt lat="57.731940" lon="10.615683">
<ele>-0.403063</ele>
<time>2026-07-17T12:07:36.000Z</time>
</trkpt>
<trkpt lat="57.731967" lon="10.615773">
<ele>-0.412669</ele>
<time>2026-07-17T12:07:37.000Z</time>
</trkpt>
<trkpt lat="57.731998" lon="10.615895">
<ele>-0.414766</ele>
<time>2026-07-17T12:07:38.000Z</time>
</trkpt>
<trkpt lat="57.732026" lon="10.615995">
<ele>-0.416518</ele>
<time>2026-07-17T12:07:39.000Z</time>
</trkpt>
<trkpt lat="57.732058" lon="10.616105">
<ele>-0.418462</ele>
<time>2026-07-17T12:07:40.000Z</time>
</trkpt>
<trkpt lat="57.732085" lon="10.616196">
<ele>-0.420078</ele>
<time>2026-07-17T12:07:41.000Z</time>
</trkpt>
<trkpt lat="57.732119" lon="10.616314">
<ele>-0.422159</ele>
<time>2026-07-17T12:07:42.000Z</time>
</trkpt>
<trkpt lat="57.732150" lon="10.616421">
<ele>-0.424048</ele>
<time>2026-07-17T12:07:43.000Z</time>
</trkpt>
<trkpt lat="57.732181" lon="10.616527">
<ele>-0.425923</ele>
<time>2026-07-17T12:07:44.000Z</time>
</trkpt>
<trkpt lat="57.732212" lon="10.616631">
<ele>-0.427772</ele>
<time>2026-07-17T12:07:45.000Z</time>
</trkpt>
<trkpt lat="57.732240" lon="10.616728">
<ele>-0.429483</ele>
<time>2026-07-17T12:07:46.000Z</time>
</trkpt>
<trkpt lat="57.732273" lon="10.616838">
<ele>-0.431441</ele>
<time>2026-07-17T12:07:47.000Z</time>
</trkpt>
<trkpt lat="57.732302" lon="10.616937">
<ele>-0.433194</ele>
<time>2026-07-17T12:07:48.000Z</time>
</trkpt>
<trkpt lat="57.732333" lon="10.617045">
<ele>-0.435096</ele>
<time>2026-07-17T12:07:49.000Z</time>
</trkpt>
<trkpt lat="57.732360" lon="10.617150">
<ele>-0.436905</ele>
<time>2026-07-17T12:07:50.000Z</time>
</trkpt>
<trkpt lat="57.732389" lon="10.617249">
<ele>-0.438657</ele>
<time>2026-07-17T12:07:51.000Z</time>
</trkpt>
<trkpt lat="57.732421" lon="10.617359">
<ele>-0.440601</ele>
<time>2026-07-17T12:07:52.000Z</time>
</trkpt>
<trkpt lat="57.732451" lon="10.617461">
<ele>-0.442409</ele>
<time>2026-07-17T12:07:53.000Z</time>
</trkpt>
<trkpt lat="57.732482" lon="10.617565">
<ele>-0.444257</ele>
<time>2026-07-17T12:07:54.000Z</time>
</trkpt>
<trkpt lat="57.732513" lon="10.617667">
<ele>-0.446078</ele>
<time>2026-07-17T12:07:55.000Z</time>
</trkpt>
<trkpt lat="57.732542" lon="10.617768">
<ele>-0.447858</ele>
<time>2026-07-17T12:07:56.000Z</time>
</trkpt>
<trkpt lat="57.732574" lon="10.617876">
<ele>-0.449775</ele>
<time>2026-07-17T12:07:57.000Z</time>
</trkpt>
<trkpt lat="57.732605" lon="10.617980">
<ele>-0.451623</ele>
<time>2026-07-17T12:07:58.000Z</time>
</trkpt>
<trkpt lat="57.732635" lon="10.618081">
<ele>-0.453417</ele>
<time>2026-07-17T12:07:59.000Z</time>
</trkpt>
<trkpt lat="57.732665" lon="10.618184">
<ele>-0.455238</ele>
<time>2026-07-17T12:08:00.000Z</time>
</trkpt>
<trkpt lat="57.732693" lon="10.618281">
<ele>-0.456949</ele>
<time>2026-07-17T12:08:01.000Z</time>
</trkpt>
<trkpt lat="57.732725" lon="10.618388">
<ele>-0.458852</ele>
<time>2026-07-17T12:08:02.000Z</time>
</trkpt>
<trkpt lat="57.732757" lon="10.618496">
<ele>-0.460769</ele>
<time>2026-07-17T12:08:03.000Z</time>
</trkpt>
<trkpt lat="57.732790" lon="10.618597">
<ele>-0.462607</ele>
<time>2026-07-17T12:08:04.000Z</time>
</trkpt>
<trkpt lat="57.732818" lon="10.618704">
<ele>-0.464456</ele>
<time>2026-07-17T12:08:05.000Z</time>
</trkpt>
<trkpt lat="57.732848" lon="10.618806">
<ele>-0.466364</ele>
<time>2026-07-17T12:08:06.000Z</time>
</trkpt>
<trkpt lat="57.732878" lon="10.618911">
<ele>-0.468335</ele>
<time>2026-07-17T12:08:07.000Z</time>
</trkpt>
<trkpt lat="57.732904" lon="10.619000">
<ele>-0.470015</ele>
<time>2026-07-17T12:08:08.000Z</time>
</trkpt>
<trkpt lat="57.732940" lon="10.619121">
<ele>-0.472308</ele>
<time>2026-07-17T12:08:09.000Z</time>
</trkpt>
<trkpt lat="57.732969" lon="10.619221">
<ele>-0.474192</ele>
<time>2026-07-17T12:08:10.000Z</time>
</trkpt>
<trkpt lat="57.733004" lon="10.619329">
<ele>-0.476284</ele>
<time>2026-07-17T12:08:11.000Z</time>
</trkpt>
<trkpt lat="57.733032" lon="10.619424">
<ele>-0.478081</ele>
<time>2026-07-17T12:08:12.000Z</time>
</trkpt>
<trkpt lat="57.733070" lon="10.619540">
<ele>-0.480334</ele>
<time>2026-07-17T12:08:13.000Z</time>
</trkpt>
<trkpt lat="57.733100" lon="10.619644">
<ele>-0.482291</ele>
<time>2026-07-17T12:08:14.000Z</time>
</trkpt>
<trkpt lat="57.733130" lon="10.619743">
<ele>-0.484175</ele>
<time>2026-07-17T12:08:15.000Z</time>
</trkpt>
<trkpt lat="57.733161" lon="10.619851">
<ele>-0.486205</ele>
<time>2026-07-17T12:08:16.000Z</time>
</trkpt>
<trkpt lat="57.733190" lon="10.619949">
<ele>-0.488060</ele>
<time>2026-07-17T12:08:17.000Z</time>
</trkpt>
<trkpt lat="57.733222" lon="10.620059">
<ele>-0.490134</ele>
<time>2026-07-17T12:08:18.000Z</time>
</trkpt>
<trkpt lat="57.733251" lon="10.620158">
<ele>-0.492004</ele>
<time>2026-07-17T12:08:19.000Z</time>
</trkpt>
<trkpt lat="57.733280" lon="10.620258">
<ele>-0.493888</ele>
<time>2026-07-17T12:08:20.000Z</time>
</trkpt>
<trkpt lat="57.733317" lon="10.620370">
<ele>-0.496068</ele>
<time>2026-07-17T12:08:21.000Z</time>
</trkpt>
<trkpt lat="57.733346" lon="10.620468">
<ele>-0.497923</ele>
<time>2026-07-17T12:08:22.000Z</time>
</trkpt>
<trkpt lat="57.733375" lon="10.620583">
<ele>-0.500029</ele>
<time>2026-07-17T12:08:23.000Z</time>
</trkpt>
<trkpt lat="57.733405" lon="10.620692">
<ele>-0.502059</ele>
<time>2026-07-17T12:08:24.000Z</time>
</trkpt>
<trkpt lat="57.733440" lon="10.620800">
<ele>-0.504151</ele>
<time>2026-07-17T12:08:25.000Z</time>
</trkpt>
<trkpt lat="57.733470" lon="10.620910">
<ele>-0.506196</ele>
<time>2026-07-17T12:08:26.000Z</time>
</trkpt>
<trkpt lat="57.733501" lon="10.621014">
<ele>-0.508168</ele>
<time>2026-07-17T12:08:27.000Z</time>
</trkpt>
<trkpt lat="57.733534" lon="10.621115">
<ele>-0.510128</ele>
<time>2026-07-17T12:08:28.000Z</time>
</trkpt>
<trkpt lat="57.733569" lon="10.621221">
<ele>-0.512192</ele>
<time>2026-07-17T12:08:29.000Z</time>
</trkpt>
<trkpt lat="57.733599" lon="10.621323">
<ele>-0.514120</ele>
<time>2026-07-17T12:08:30.000Z</time>
</trkpt>
<trkpt lat="57.733629" lon="10.621428">
<ele>-0.516091</ele>
<time>2026-07-17T12:08:31.000Z</time>
</trkpt>
<trkpt lat="57.733650" lon="10.621511">
<ele>-0.517612</ele>
<time>2026-07-17T12:08:32.000Z</time>
</trkpt>
<trkpt lat="57.733685" lon="10.621633">
<ele>-0.519905</ele>
<time>2026-07-17T12:08:33.000Z</time>
</trkpt>
<trkpt lat="57.733717" lon="10.621741">
<ele>-0.527781</ele>
<time>2026-07-17T12:08:34.000Z</time>
</trkpt>
<trkpt lat="57.733748" lon="10.621848">
<ele>-0.538080</ele>
<time>2026-07-17T12:08:35.000Z</time>
</trkpt>
<trkpt lat="57.733781" lon="10.621950">
<ele>-0.548169</ele>
<time>2026-07-17T12:08:36.000Z</time>
</trkpt>
<trkpt lat="57.733813" lon="10.622058">
<ele>-0.558618</ele>
<time>2026-07-17T12:08:37.000Z</time>
</trkpt>
<trkpt lat="57.733844" lon="10.622163">
<ele>-0.568769</ele>
<time>2026-07-17T12:08:38.000Z</time>
</trkpt>
<trkpt lat="57.733874" lon="10.622263">
<ele>-0.578472</ele>
<time>2026-07-17T12:08:39.000Z</time>
</trkpt>
<trkpt lat="57.733904" lon="10.622366">
<ele>-0.588398</ele>
<time>2026-07-17T12:08:40.000Z</time>
</trkpt>
<trkpt lat="57.733935" lon="10.622470">
<ele>-0.598474</ele>
<time>2026-07-17T12:08:41.000Z</time>
</trkpt>
<trkpt lat="57.733966" lon="10.622572">
<ele>-0.608403</ele>
<time>2026-07-17T12:08:42.000Z</time>
</trkpt>
<trkpt lat="57.733995" lon="10.622670">
<ele>-0.617882</ele>
<time>2026-07-17T12:08:43.000Z</time>
</trkpt>
<trkpt lat="57.734022" lon="10.622776">
<ele>-0.627817</ele>
<time>2026-07-17T12:08:44.000Z</time>
</trkpt>
<trkpt lat="57.734053" lon="10.622879">
<ele>-0.637820</ele>
<time>2026-07-17T12:08:45.000Z</time>
</trkpt>
<trkpt lat="57.734084" lon="10.622980">
<ele>-0.647675</ele>
<time>2026-07-17T12:08:46.000Z</time>
</trkpt>
<trkpt lat="57.734114" lon="10.623080">
<ele>-0.657379</ele>
<time>2026-07-17T12:08:47.000Z</time>
</trkpt>
<trkpt lat="57.734144" lon="10.623176">
<ele>-0.666789</ele>
<time>2026-07-17T12:08:48.000Z</time>
</trkpt>
<trkpt lat="57.734175" lon="10.623280">
<ele>-0.676865</ele>
<time>2026-07-17T12:08:49.000Z</time>
</trkpt>
<trkpt lat="57.734205" lon="10.623384">
<ele>-0.686865</ele>
<time>2026-07-17T12:08:50.000Z</time>
</trkpt>
<trkpt lat="57.734233" lon="10.623491">
<ele>-0.696945</ele>
<time>2026-07-17T12:08:51.000Z</time>
</trkpt>
<trkpt lat="57.734262" lon="10.623592">
<ele>-0.706647</ele>
<time>2026-07-17T12:08:52.000Z</time>
</trkpt>
<trkpt lat="57.734297" lon="10.623696">
<ele>-0.717047</ele>
<time>2026-07-17T12:08:53.000Z</time>
</trkpt>
<trkpt lat="57.734322" lon="10.623793">
<ele>-0.726158</ele>
<time>2026-07-17T12:08:54.000Z</time>
</trkpt>
<trkpt lat="57.734354" lon="10.623901">
<ele>-0.736607</ele>
<time>2026-07-17T12:08:55.000Z</time>
</trkpt>
<trkpt lat="57.734385" lon="10.624005">
<ele>-0.746683</ele>
<time>2026-07-17T12:08:56.000Z</time>
</trkpt>
<trkpt lat="57.734415" lon="10.624107">
<ele>-0.756535</ele>
<time>2026-07-17T12:08:57.000Z</time>
</trkpt>
<trkpt lat="57.734442" lon="10.624200">
<ele>-0.765490</ele>
<time>2026-07-17T12:08:58.000Z</time>
</trkpt>
<trkpt lat="57.734478" lon="10.624317">
<ele>-0.776914</ele>
<time>2026-07-17T12:08:59.000Z</time>
</trkpt>
<trkpt lat="57.734510" lon="10.624415">
<ele>-0.786632</ele>
<time>2026-07-17T12:09:00.000Z</time>
</trkpt>
<trkpt lat="57.734538" lon="10.624521">
<ele>-0.796636</ele>
<time>2026-07-17T12:09:01.000Z</time>
</trkpt>
<trkpt lat="57.734569" lon="10.624625">
<ele>-0.805151</ele>
<time>2026-07-17T12:09:02.000Z</time>
</trkpt>
<trkpt lat="57.734598" lon="10.624726">
<ele>-0.801891</ele>
<time>2026-07-17T12:09:03.000Z</time>
</trkpt>
<trkpt lat="57.734629" lon="10.624829">
<ele>-0.798530</ele>
<time>2026-07-17T12:09:04.000Z</time>
</trkpt>
<trkpt lat="57.734660" lon="10.624931">
<ele>-0.795194</ele>
<time>2026-07-17T12:09:05.000Z</time>
</trkpt>
<trkpt lat="57.734689" lon="10.625033">
<ele>-0.791910</ele>
<time>2026-07-17T12:09:06.000Z</time>
</trkpt>
<trkpt lat="57.734720" lon="10.625139">
<ele>-0.788474</ele>
<time>2026-07-17T12:09:07.000Z</time>
</trkpt>
<trkpt lat="57.734747" lon="10.625240">
<ele>-0.785264</ele>
<time>2026-07-17T12:09:08.000Z</time>
</trkpt>
<trkpt lat="57.734779" lon="10.625345">
<ele>-0.781827</ele>
<time>2026-07-17T12:09:09.000Z</time>
</trkpt>
<trkpt lat="57.734809" lon="10.625446">
<ele>-0.778542</ele>
<time>2026-07-17T12:09:10.000Z</time>
</trkpt>
<trkpt lat="57.734840" lon="10.625547">
<ele>-0.775231</ele>
<time>2026-07-17T12:09:11.000Z</time>
</trkpt>
<trkpt lat="57.734874" lon="10.625646">
<ele>-0.771885</ele>
<time>2026-07-17T12:09:12.000Z</time>
</trkpt>
<trkpt lat="57.734904" lon="10.625749">
<ele>-0.768550</ele>
<time>2026-07-17T12:09:13.000Z</time>
</trkpt>
<trkpt lat="57.734930" lon="10.625850">
<ele>-0.765363</ele>
<time>2026-07-17T12:09:14.000Z</time>
</trkpt>
<trkpt lat="57.734961" lon="10.625954">
<ele>-0.761978</ele>
<time>2026-07-17T12:09:15.000Z</time>
</trkpt>
<trkpt lat="57.734992" lon="10.626059">
<ele>-0.758567</ele>
<time>2026-07-17T12:09:16.000Z</time>
</trkpt>
<trkpt lat="57.735022" lon="10.626162">
<ele>-0.755233</ele>
<time>2026-07-17T12:09:17.000Z</time>
</trkpt>
<trkpt lat="57.735048" lon="10.626255">
<ele>-0.752249</ele>
<time>2026-07-17T12:09:18.000Z</time>
</trkpt>
<trkpt lat="57.735075" lon="10.626348">
<ele>-0.749240</ele>
<time>2026-07-17T12:09:19.000Z</time>
</trkpt>
<trkpt lat="57.735102" lon="10.626439">
<ele>-0.746281</ele>
<time>2026-07-17T12:09:20.000Z</time>
</trkpt>
<trkpt lat="57.735129" lon="10.626524">
<ele>-0.743470</ele>
<time>2026-07-17T12:09:21.000Z</time>
</trkpt>
<trkpt lat="57.735151" lon="10.626599">
<ele>-0.741037</ele>
<time>2026-07-17T12:09:22.000Z</time>
</trkpt>
<trkpt lat="57.735173" lon="10.626677">
<ele>-0.738530</ele>
<time>2026-07-17T12:09:23.000Z</time>
</trkpt>
<trkpt lat="57.735198" lon="10.626757">
<ele>-0.735895</ele>
<time>2026-07-17T12:09:24.000Z</time>
</trkpt>
<trkpt lat="57.735224" lon="10.626833">
<ele>-0.733330</ele>
<time>2026-07-17T12:09:25.000Z</time>
</trkpt>
<trkpt lat="57.735243" lon="10.626908">
<ele>-0.730970</ele>
<time>2026-07-17T12:09:26.000Z</time>
</trkpt>
<trkpt lat="57.735266" lon="10.626982">
<ele>-0.728536</ele>
<time>2026-07-17T12:09:27.000Z</time>
</trkpt>
<trkpt lat="57.735288" lon="10.627053">
<ele>-0.726203</ele>
<time>2026-07-17T12:09:28.000Z</time>
</trkpt>
<trkpt lat="57.735303" lon="10.627115">
<ele>-0.724268</ele>
<time>2026-07-17T12:09:29.000Z</time>
</trkpt>
<trkpt lat="57.735314" lon="10.627168">
<ele>-0.722652</ele>
<time>2026-07-17T12:09:30.000Z</time>
</trkpt>
<trkpt lat="57.735325" lon="10.627207">
<ele>-0.721399</ele>
<time>2026-07-17T12:09:31.000Z</time>
</trkpt>
<trkpt lat="57.735329" lon="10.627230">
<ele>-0.720711</ele>
<time>2026-07-17T12:09:54.000Z</time>
</trkpt>
<trkpt lat="57.735335" lon="10.627243">
<ele>-0.720223</ele>
<time>2026-07-17T12:09:55.000Z</time>
</trkpt>
<trkpt lat="57.735353" lon="10.627278">
<ele>-0.718841</ele>
<time>2026-07-17T12:09:56.000Z</time>
</trkpt>
<trkpt lat="57.735364" lon="10.627321">
<ele>-0.717486</ele>
<time>2026-07-17T12:09:57.000Z</time>
</trkpt>
<trkpt lat="57.735378" lon="10.627372">
<ele>-0.715856</ele>
<time>2026-07-17T12:09:58.000Z</time>
</trkpt>
<trkpt lat="57.735396" lon="10.627441">
<ele>-0.713673</ele>
<time>2026-07-17T12:09:59.000Z</time>
</trkpt>
<trkpt lat="57.735415" lon="10.627507">
<ele>-0.711542</ele>
<time>2026-07-17T12:10:00.000Z</time>
</trkpt>
<trkpt lat="57.735434" lon="10.627575">
<ele>-0.710077</ele>
<time>2026-07-17T12:10:01.000Z</time>
</trkpt>
<trkpt lat="57.735455" lon="10.627641">
<ele>-0.711617</ele>
<time>2026-07-17T12:10:02.000Z</time>
</trkpt>
<trkpt lat="57.735480" lon="10.627726">
<ele>-0.713563</ele>
<time>2026-07-17T12:10:03.000Z</time>
</trkpt>
<trkpt lat="57.735503" lon="10.627806">
<ele>-0.715385</ele>
<time>2026-07-17T12:10:04.000Z</time>
</trkpt>
<trkpt lat="57.735526" lon="10.627888">
<ele>-0.717243</ele>
<time>2026-07-17T12:10:05.000Z</time>
</trkpt>
<trkpt lat="57.735553" lon="10.627970">
<ele>-0.719175</ele>
<time>2026-07-17T12:10:06.000Z</time>
</trkpt>
<trkpt lat="57.735579" lon="10.628054">
<ele>-0.721122</ele>
<time>2026-07-17T12:10:07.000Z</time>
</trkpt>
<trkpt lat="57.735606" lon="10.628142">
<ele>-0.723157</ele>
<time>2026-07-17T12:10:08.000Z</time>
</trkpt>
<trkpt lat="57.735633" lon="10.628231">
<ele>-0.725210</ele>
<time>2026-07-17T12:10:09.000Z</time>
</trkpt>
<trkpt lat="57.735659" lon="10.628319">
<ele>-0.727226</ele>
<time>2026-07-17T12:10:10.000Z</time>
</trkpt>
<trkpt lat="57.735684" lon="10.628401">
<ele>-0.729120</ele>
<time>2026-07-17T12:10:11.000Z</time>
</trkpt>
<trkpt lat="57.735713" lon="10.628497">
<ele>-0.731332</ele>
<time>2026-07-17T12:10:12.000Z</time>
</trkpt>
<trkpt lat="57.735740" lon="10.628590">
<ele>-0.733454</ele>
<time>2026-07-17T12:10:13.000Z</time>
</trkpt>
<trkpt lat="57.735766" lon="10.628683">
<ele>-0.735559</ele>
<time>2026-07-17T12:10:14.000Z</time>
</trkpt>
<trkpt lat="57.735793" lon="10.628776">
<ele>-0.737682</ele>
<time>2026-07-17T12:10:15.000Z</time>
</trkpt>
<trkpt lat="57.735820" lon="10.628868">
<ele>-0.739787</ele>
<time>2026-07-17T12:10:16.000Z</time>
</trkpt>
<trkpt lat="57.735847" lon="10.628959">
<ele>-0.741875</ele>
<time>2026-07-17T12:10:17.000Z</time>
</trkpt>
<trkpt lat="57.735877" lon="10.629053">
<ele>-0.744071</ele>
<time>2026-07-17T12:10:18.000Z</time>
</trkpt>
<trkpt lat="57.735908" lon="10.629145">
<ele>-0.746253</ele>
<time>2026-07-17T12:10:19.000Z</time>
</trkpt>
<trkpt lat="57.735934" lon="10.629235">
<ele>-0.748305</ele>
<time>2026-07-17T12:10:20.000Z</time>
</trkpt>
<trkpt lat="57.735960" lon="10.629324">
<ele>-0.750339</ele>
<time>2026-07-17T12:10:21.000Z</time>
</trkpt>
<trkpt lat="57.735982" lon="10.629407">
<ele>-0.752197</ele>
<time>2026-07-17T12:10:22.000Z</time>
</trkpt>
<trkpt lat="57.736011" lon="10.629501">
<ele>-0.754374</ele>
<time>2026-07-17T12:10:23.000Z</time>
</trkpt>
<trkpt lat="57.736037" lon="10.629586">
<ele>-0.756338</ele>
<time>2026-07-17T12:10:24.000Z</time>
</trkpt>
<trkpt lat="57.736060" lon="10.629669">
<ele>-0.758214</ele>
<time>2026-07-17T12:10:25.000Z</time>
</trkpt>
<trkpt lat="57.736087" lon="10.629750">
<ele>-0.760128</ele>
<time>2026-07-17T12:10:26.000Z</time>
</trkpt>
<trkpt lat="57.736113" lon="10.629835">
<ele>-0.762093</ele>
<time>2026-07-17T12:10:27.000Z</time>
</trkpt>
<trkpt lat="57.736140" lon="10.629923">
<ele>-0.764128</ele>
<time>2026-07-17T12:10:28.000Z</time>
</trkpt>
<trkpt lat="57.736163" lon="10.630009">
<ele>-0.766057</ele>
<time>2026-07-17T12:10:29.000Z</time>
</trkpt>
<trkpt lat="57.736186" lon="10.630096">
<ele>-0.768003</ele>
<time>2026-07-17T12:10:30.000Z</time>
</trkpt>
<trkpt lat="57.736212" lon="10.630180">
<ele>-0.769950</ele>
<time>2026-07-17T12:10:31.000Z</time>
</trkpt>
<trkpt lat="57.736233" lon="10.630253">
<ele>-0.771613</ele>
<time>2026-07-17T12:10:32.000Z</time>
</trkpt>
<trkpt lat="57.736262" lon="10.630338">
<ele>-0.773636</ele>
<time>2026-07-17T12:10:33.000Z</time>
</trkpt>
<trkpt lat="57.736289" lon="10.630417">
<ele>-0.775517</ele>
<time>2026-07-17T12:10:34.000Z</time>
</trkpt>
<trkpt lat="57.736316" lon="10.630500">
<ele>-0.777937</ele>
<time>2026-07-17T12:10:35.000Z</time>
</trkpt>
<trkpt lat="57.736343" lon="10.630586">
<ele>-0.787554</ele>
<time>2026-07-17T12:10:36.000Z</time>
</trkpt>
<trkpt lat="57.736369" lon="10.630673">
<ele>-0.797165</ele>
<time>2026-07-17T12:10:37.000Z</time>
</trkpt>
<trkpt lat="57.736392" lon="10.630761">
<ele>-0.806609</ele>
<time>2026-07-17T12:10:38.000Z</time>
</trkpt>
<trkpt lat="57.736422" lon="10.630850">
<ele>-0.816755</ele>
<time>2026-07-17T12:10:39.000Z</time>
</trkpt>
<trkpt lat="57.736449" lon="10.630937">
<ele>-0.826455</ele>
<time>2026-07-17T12:10:40.000Z</time>
</trkpt>
<trkpt lat="57.736472" lon="10.631026">
<ele>-0.835987</ele>
<time>2026-07-17T12:10:41.000Z</time>
</trkpt>
<trkpt lat="57.736499" lon="10.631114">
<ele>-0.845770</ele>
<time>2026-07-17T12:10:42.000Z</time>
</trkpt>
<trkpt lat="57.736525" lon="10.631200">
<ele>-0.855297</ele>
<time>2026-07-17T12:10:43.000Z</time>
</trkpt>
<trkpt lat="57.736552" lon="10.631289">
<ele>-0.865164</ele>
<time>2026-07-17T12:10:44.000Z</time>
</trkpt>
<trkpt lat="57.736579" lon="10.631378">
<ele>-0.875031</ele>
<time>2026-07-17T12:10:45.000Z</time>
</trkpt>
<trkpt lat="57.736606" lon="10.631465">
<ele>-0.884732</ele>
<time>2026-07-17T12:10:46.000Z</time>
</trkpt>
<trkpt lat="57.736632" lon="10.631551">
<ele>-0.894258</ele>
<time>2026-07-17T12:10:47.000Z</time>
</trkpt>
<trkpt lat="57.736659" lon="10.631637">
<ele>-0.903875</ele>
<time>2026-07-17T12:10:48.000Z</time>
</trkpt>
<trkpt lat="57.736685" lon="10.631727">
<ele>-0.913739</ele>
<time>2026-07-17T12:10:49.000Z</time>
</trkpt>
<trkpt lat="57.736708" lon="10.631823">
<ele>-0.923882</ele>
<time>2026-07-17T12:10:50.000Z</time>
</trkpt>
<trkpt lat="57.736731" lon="10.631921">
<ele>-0.934201</ele>
<time>2026-07-17T12:10:51.000Z</time>
</trkpt>
<trkpt lat="57.736754" lon="10.632016">
<ele>-0.944255</ele>
<time>2026-07-17T12:10:52.000Z</time>
</trkpt>
<trkpt lat="57.736785" lon="10.632104">
<ele>-0.954418</ele>
<time>2026-07-17T12:10:53.000Z</time>
</trkpt>
<trkpt lat="57.736816" lon="10.632186">
<ele>-0.964103</ele>
<time>2026-07-17T12:10:54.000Z</time>
</trkpt>
<trkpt lat="57.736851" lon="10.632265">
<ele>-0.973999</ele>
<time>2026-07-17T12:10:55.000Z</time>
</trkpt>
<trkpt lat="57.736889" lon="10.632343">
<ele>-0.984178</ele>
<time>2026-07-17T12:10:56.000Z</time>
</trkpt>
<trkpt lat="57.736920" lon="10.632412">
<ele>-0.992871</ele>
<time>2026-07-17T12:10:57.000Z</time>
</trkpt>
<trkpt lat="57.736965" lon="10.632493">
<ele>-1.004139</ele>
<time>2026-07-17T12:10:58.000Z</time>
</trkpt>
<trkpt lat="57.737003" lon="10.632564">
<ele>-1.013830</ele>
<time>2026-07-17T12:10:59.000Z</time>
</trkpt>
<trkpt lat="57.737042" lon="10.632631">
<ele>-1.023385</ele>
<time>2026-07-17T12:11:00.000Z</time>
</trkpt>
<trkpt lat="57.737083" lon="10.632691">
<ele>-1.032780</ele>
<time>2026-07-17T12:11:01.000Z</time>
</trkpt>
<trkpt lat="57.737126" lon="10.632741">
<ele>-1.041918</ele>
<time>2026-07-17T12:11:02.000Z</time>
</trkpt>
<trkpt lat="57.737168" lon="10.632791">
<ele>-1.050904</ele>
<time>2026-07-17T12:11:03.000Z</time>
</trkpt>
<trkpt lat="57.737210" lon="10.632849">
<ele>-1.060326</ele>
<time>2026-07-17T12:11:04.000Z</time>
</trkpt>
<trkpt lat="57.737249" lon="10.632907">
<ele>-1.069317</ele>
<time>2026-07-17T12:11:05.000Z</time>
</trkpt>
<trkpt lat="57.737295" lon="10.632962">
<ele>-1.079171</ele>
<time>2026-07-17T12:11:06.000Z</time>
</trkpt>
<trkpt lat="57.737341" lon="10.633012">
<ele>-1.088774</ele>
<time>2026-07-17T12:11:07.000Z</time>
</trkpt>
<trkpt lat="57.737390" lon="10.633056">
<ele>-1.098586</ele>
<time>2026-07-17T12:11:08.000Z</time>
</trkpt>
<trkpt lat="57.737438" lon="10.633098">
<ele>-1.106069</ele>
<time>2026-07-17T12:11:09.000Z</time>
</trkpt>
<trkpt lat="57.737486" lon="10.633137">
<ele>-1.112253</ele>
<time>2026-07-17T12:11:10.000Z</time>
</trkpt>
<trkpt lat="57.737538" lon="10.633171">
<ele>-1.118763</ele>
<time>2026-07-17T12:11:11.000Z</time>
</trkpt>
<trkpt lat="57.737588" lon="10.633205">
<ele>-1.125050</ele>
<time>2026-07-17T12:11:12.000Z</time>
</trkpt>
<trkpt lat="57.737635" lon="10.633235">
<ele>-1.130919</ele>
<time>2026-07-17T12:11:13.000Z</time>
</trkpt>
<trkpt lat="57.737684" lon="10.633261">
<ele>-1.136939</ele>
<time>2026-07-17T12:11:14.000Z</time>
</trkpt>
<trkpt lat="57.737737" lon="10.633286">
<ele>-1.143399</ele>
<time>2026-07-17T12:11:15.000Z</time>
</trkpt>
<trkpt lat="57.737787" lon="10.633309">
<ele>-1.149484</ele>
<time>2026-07-17T12:11:16.000Z</time>
</trkpt>
<trkpt lat="57.737836" lon="10.633331">
<ele>-1.155440</ele>
<time>2026-07-17T12:11:17.000Z</time>
</trkpt>
<trkpt lat="57.737886" lon="10.633357">
<ele>-1.161574</ele>
<time>2026-07-17T12:11:18.000Z</time>
</trkpt>
<trkpt lat="57.737930" lon="10.633394">
<ele>-1.167274</ele>
<time>2026-07-17T12:11:19.000Z</time>
</trkpt>
<trkpt lat="57.737967" lon="10.633447">
<ele>-1.172780</ele>
<time>2026-07-17T12:11:20.000Z</time>
</trkpt>
<trkpt lat="57.737993" lon="10.633522">
<ele>-1.178422</ele>
<time>2026-07-17T12:11:21.000Z</time>
</trkpt>
<trkpt lat="57.738009" lon="10.633600">
<ele>-1.183694</ele>
<time>2026-07-17T12:11:22.000Z</time>
</trkpt>
<trkpt lat="57.738033" lon="10.633673">
<ele>-1.189104</ele>
<time>2026-07-17T12:11:23.000Z</time>
</trkpt>
<trkpt lat="57.738064" lon="10.633732">
<ele>-1.194327</ele>
<time>2026-07-17T12:11:24.000Z</time>
</trkpt>
<trkpt lat="57.738103" lon="10.633770">
<ele>-1.199523</ele>
<time>2026-07-17T12:11:25.000Z</time>
</trkpt>
<trkpt lat="57.738145" lon="10.633792">
<ele>-1.204678</ele>
<time>2026-07-17T12:11:26.000Z</time>
</trkpt>
<trkpt lat="57.738187" lon="10.633810">
<ele>-1.209771</ele>
<time>2026-07-17T12:11:27.000Z</time>
</trkpt>
<trkpt lat="57.738228" lon="10.633825">
<ele>-1.214708</ele>
<time>2026-07-17T12:11:28.000Z</time>
</trkpt>
<trkpt lat="57.738271" lon="10.633836">
<ele>-1.219838</ele>
<time>2026-07-17T12:11:29.000Z</time>
</trkpt>
<trkpt lat="57.738312" lon="10.633847">
<ele>-1.224734</ele>
<time>2026-07-17T12:11:30.000Z</time>
</trkpt>
<trkpt lat="57.738349" lon="10.633858">
<ele>-1.229162</ele>
<time>2026-07-17T12:11:31.000Z</time>
</trkpt>
<trkpt lat="57.738377" lon="10.633871">
<ele>-1.232571</ele>
<time>2026-07-17T12:11:32.000Z</time>
</trkpt>
<trkpt lat="57.738418" lon="10.633893">
<ele>-1.237613</ele>
<time>2026-07-17T12:11:33.000Z</time>
</trkpt>
<trkpt lat="57.738448" lon="10.633919">
<ele>-1.241520</ele>
<time>2026-07-17T12:11:34.000Z</time>
</trkpt>
<trkpt lat="57.738471" lon="10.633953">
<ele>-1.244983</ele>
<time>2026-07-17T12:11:35.000Z</time>
</trkpt>
<trkpt lat="57.738493" lon="10.633995">
<ele>-1.248695</ele>
<time>2026-07-17T12:11:36.000Z</time>
</trkpt>
<trkpt lat="57.738513" lon="10.634037">
<ele>-1.252246</ele>
<time>2026-07-17T12:11:37.000Z</time>
</trkpt>
<trkpt lat="57.738535" lon="10.634075">
<ele>-1.255783</ele>
<time>2026-07-17T12:11:38.000Z</time>
</trkpt>
<trkpt lat="57.738554" lon="10.634107">
<ele>-1.258803</ele>
<time>2026-07-17T12:11:39.000Z</time>
</trkpt>
<trkpt lat="57.738577" lon="10.634129">
<ele>-1.261856</ele>
<time>2026-07-17T12:11:40.000Z</time>
</trkpt>
<trkpt lat="57.738600" lon="10.634138">
<ele>-1.264633</ele>
<time>2026-07-17T12:11:41.000Z</time>
</trkpt>
<trkpt lat="57.738619" lon="10.634136">
<ele>-1.266882</ele>
<time>2026-07-17T12:11:42.000Z</time>
</trkpt>
<trkpt lat="57.738641" lon="10.634131">
<ele>-1.269502</ele>
<time>2026-07-17T12:11:43.000Z</time>
</trkpt>
<trkpt lat="57.738656" lon="10.634131">
<ele>-1.271275</ele>
<time>2026-07-17T12:11:44.000Z</time>
</trkpt>
<trkpt lat="57.738667" lon="10.634129">
<ele>-1.272581</ele>
<time>2026-07-17T12:11:45.000Z</time>
</trkpt>
<trkpt lat="57.738675" lon="10.634127">
<ele>-1.273535</ele>
<time>2026-07-17T12:11:46.000Z</time>
</trkpt>
<trkpt lat="57.738686" lon="10.634127">
<ele>-1.274835</ele>
<time>2026-07-17T12:11:47.000Z</time>
</trkpt>
<trkpt lat="57.738757" lon="10.634102">
<ele>-1.283374</ele>
<time>2026-07-17T12:12:05.000Z</time>
</trkpt>
<trkpt lat="57.738781" lon="10.634098">
<ele>-1.286222</ele>
<time>2026-07-17T12:12:06.000Z</time>
</trkpt>
<trkpt lat="57.738806" lon="10.634099">
<ele>-1.289178</ele>
<time>2026-07-17T12:12:07.000Z</time>
</trkpt>
<trkpt lat="57.738830" lon="10.634105">
<ele>-1.292040</ele>
<time>2026-07-17T12:12:08.000Z</time>
</trkpt>
<trkpt lat="57.738856" lon="10.634112">
<ele>-1.295145</ele>
<time>2026-07-17T12:12:09.000Z</time>
</trkpt>
<trkpt lat="57.738883" lon="10.634121">
<ele>-1.298386</ele>
<time>2026-07-17T12:12:10.000Z</time>
</trkpt>
<trkpt lat="57.738905" lon="10.634132">
<ele>-1.301078</ele>
<time>2026-07-17T12:12:11.000Z</time>
</trkpt>
<trkpt lat="57.738928" lon="10.634140">
<ele>-1.303843</ele>
<time>2026-07-17T12:12:12.000Z</time>
</trkpt>
<trkpt lat="57.738947" lon="10.634135">
<ele>-1.306111</ele>
<time>2026-07-17T12:12:13.000Z</time>
</trkpt>
<trkpt lat="57.738966" lon="10.634128">
<ele>-1.308399</ele>
<time>2026-07-17T12:12:14.000Z</time>
</trkpt>
<trkpt lat="57.738984" lon="10.634117">
<ele>-1.310637</ele>
<time>2026-07-17T12:12:15.000Z</time>
</trkpt>
<trkpt lat="57.739000" lon="10.634102">
<ele>-1.312752</ele>
<time>2026-07-17T12:12:16.000Z</time>
</trkpt>
<trkpt lat="57.739015" lon="10.634085">
<ele>-1.314440</ele>
<time>2026-07-17T12:12:17.000Z</time>
</trkpt>
<trkpt lat="57.739030" lon="10.634069">
<ele>-1.309010</ele>
<time>2026-07-17T12:12:18.000Z</time>
</trkpt>
<trkpt lat="57.739041" lon="10.634051">
<ele>-1.304415</ele>
<time>2026-07-17T12:12:19.000Z</time>
</trkpt>
<trkpt lat="57.739048" lon="10.634040">
<ele>-1.301540</ele>
<time>2026-07-17T12:12:20.000Z</time>
</trkpt>
<trkpt lat="57.739052" lon="10.634043">
<ele>-1.300185</ele>
<time>2026-07-17T12:12:21.000Z</time>
</trkpt>
<trkpt lat="57.739056" lon="10.634040">
<ele>-1.298829</ele>
<time>2026-07-17T12:12:22.000Z</time>
</trkpt>
<trkpt lat="57.739093" lon="10.634028">
<ele>-1.287015</ele>
<time>2026-07-17T12:12:26.000Z</time>
</trkpt>
<trkpt lat="57.739117" lon="10.634021">
<ele>-1.279373</ele>
<time>2026-07-17T12:12:27.000Z</time>
</trkpt>
<trkpt lat="57.739129" lon="10.634000">
<ele>-1.274207</ele>
<time>2026-07-17T12:12:28.000Z</time>
</trkpt>
<trkpt lat="57.739137" lon="10.633971">
<ele>-1.268725</ele>
<time>2026-07-17T12:12:29.000Z</time>
</trkpt>
<trkpt lat="57.739148" lon="10.633935">
<ele>-1.261759</ele>
<time>2026-07-17T12:12:30.000Z</time>
</trkpt>
<trkpt lat="57.739156" lon="10.633896">
<ele>-1.254742</ele>
<time>2026-07-17T12:12:31.000Z</time>
</trkpt>
<trkpt lat="57.739171" lon="10.633864">
<ele>-1.247590</ele>
<time>2026-07-17T12:12:32.000Z</time>
</trkpt>
<trkpt lat="57.739187" lon="10.633835">
<ele>-1.240586</ele>
<time>2026-07-17T12:12:33.000Z</time>
</trkpt>
<trkpt lat="57.739203" lon="10.633805">
<ele>-1.233464</ele>
<time>2026-07-17T12:12:34.000Z</time>
</trkpt>
<trkpt lat="57.739221" lon="10.633772">
<ele>-1.225540</ele>
<time>2026-07-17T12:12:35.000Z</time>
</trkpt>
<trkpt lat="57.739241" lon="10.633727">
<ele>-1.215707</ele>
<time>2026-07-17T12:12:36.000Z</time>
</trkpt>
<trkpt lat="57.739258" lon="10.633686">
<ele>-1.206988</ele>
<time>2026-07-17T12:12:37.000Z</time>
</trkpt>
<trkpt lat="57.739271" lon="10.633637">
<ele>-1.197799</ele>
<time>2026-07-17T12:12:38.000Z</time>
</trkpt>
<trkpt lat="57.739286" lon="10.633588">
<ele>-1.188313</ele>
<time>2026-07-17T12:12:39.000Z</time>
</trkpt>
<trkpt lat="57.739301" lon="10.633537">
<ele>-1.178534</ele>
<time>2026-07-17T12:12:40.000Z</time>
</trkpt>
<trkpt lat="57.739317" lon="10.633484">
<ele>-1.168308</ele>
<time>2026-07-17T12:12:41.000Z</time>
</trkpt>
<trkpt lat="57.739336" lon="10.633433">
<ele>-1.157864</ele>
<time>2026-07-17T12:12:42.000Z</time>
</trkpt>
<trkpt lat="57.739351" lon="10.633381">
<ele>-1.147938</ele>
<time>2026-07-17T12:12:43.000Z</time>
</trkpt>
<trkpt lat="57.739366" lon="10.633322">
<ele>-1.136963</ele>
<time>2026-07-17T12:12:44.000Z</time>
</trkpt>
<trkpt lat="57.739381" lon="10.633265">
<ele>-1.126291</ele>
<time>2026-07-17T12:12:45.000Z</time>
</trkpt>
<trkpt lat="57.739401" lon="10.633203">
<ele>-1.114125</ele>
<time>2026-07-17T12:12:46.000Z</time>
</trkpt>
<trkpt lat="57.739419" lon="10.633142">
<ele>-1.102420</ele>
<time>2026-07-17T12:12:47.000Z</time>
</trkpt>
<trkpt lat="57.739435" lon="10.633074">
<ele>-1.089940</ele>
<time>2026-07-17T12:12:48.000Z</time>
</trkpt>
<trkpt lat="57.739453" lon="10.633013">
<ele>-1.078235</ele>
<time>2026-07-17T12:12:49.000Z</time>
</trkpt>
<trkpt lat="57.739468" lon="10.632952">
<ele>-1.066956</ele>
<time>2026-07-17T12:12:50.000Z</time>
</trkpt>
<trkpt lat="57.739484" lon="10.632890">
<ele>-1.055391</ele>
<time>2026-07-17T12:12:51.000Z</time>
</trkpt>
<trkpt lat="57.739500" lon="10.632830">
<ele>-1.044128</ele>
<time>2026-07-17T12:12:52.000Z</time>
</trkpt>
<trkpt lat="57.739519" lon="10.632773">
<ele>-1.032842</ele>
<time>2026-07-17T12:12:53.000Z</time>
</trkpt>
<trkpt lat="57.739534" lon="10.632716">
<ele>-1.022170</ele>
<time>2026-07-17T12:12:54.000Z</time>
</trkpt>
<trkpt lat="57.739553" lon="10.632662">
<ele>-1.011309</ele>
<time>2026-07-17T12:12:55.000Z</time>
</trkpt>
<trkpt lat="57.739568" lon="10.632611">
<ele>-1.001530</ele>
<time>2026-07-17T12:12:56.000Z</time>
</trkpt>
<trkpt lat="57.739583" lon="10.632560">
<ele>-0.991751</ele>
<time>2026-07-17T12:12:57.000Z</time>
</trkpt>
<trkpt lat="57.739598" lon="10.632508">
<ele>-0.981825</ele>
<time>2026-07-17T12:12:58.000Z</time>
</trkpt>
<trkpt lat="57.739610" lon="10.632455">
<ele>-0.972157</ele>
<time>2026-07-17T12:12:59.000Z</time>
</trkpt>
<trkpt lat="57.739621" lon="10.632404">
<ele>-0.962919</ele>
<time>2026-07-17T12:13:00.000Z</time>
</trkpt>
<trkpt lat="57.739637" lon="10.632353">
<ele>-0.952985</ele>
<time>2026-07-17T12:13:01.000Z</time>
</trkpt>
<trkpt lat="57.739656" lon="10.632315">
<ele>-0.944241</ele>
<time>2026-07-17T12:13:02.000Z</time>
</trkpt>
<trkpt lat="57.739677" lon="10.632292">
<ele>-0.936588</ele>
<time>2026-07-17T12:13:03.000Z</time>
</trkpt>
<trkpt lat="57.739707" lon="10.632280">
<ele>-0.926936</ele>
<time>2026-07-17T12:13:04.000Z</time>
</trkpt>
<trkpt lat="57.739734" lon="10.632277">
<ele>-0.918427</ele>
<time>2026-07-17T12:13:05.000Z</time>
</trkpt>
<trkpt lat="57.739761" lon="10.632279">
<ele>-0.909926</ele>
<time>2026-07-17T12:13:06.000Z</time>
</trkpt>
<trkpt lat="57.739789" lon="10.632283">
<ele>-0.901091</ele>
<time>2026-07-17T12:13:07.000Z</time>
</trkpt>
<trkpt lat="57.739817" lon="10.632295">
<ele>-0.892054</ele>
<time>2026-07-17T12:13:08.000Z</time>
</trkpt>
<trkpt lat="57.739843" lon="10.632309">
<ele>-0.883542</ele>
<time>2026-07-17T12:13:09.000Z</time>
</trkpt>
<trkpt lat="57.739867" lon="10.632329">
<ele>-0.875278</ele>
<time>2026-07-17T12:13:10.000Z</time>
</trkpt>
<trkpt lat="57.739892" lon="10.632346">
<ele>-0.866911</ele>
<time>2026-07-17T12:13:11.000Z</time>
</trkpt>
<trkpt lat="57.739920" lon="10.632369">
<ele>-0.857292</ele>
<time>2026-07-17T12:13:12.000Z</time>
</trkpt>
<trkpt lat="57.739952" lon="10.632392">
<ele>-0.846509</ele>
<time>2026-07-17T12:13:13.000Z</time>
</trkpt>
<trkpt lat="57.739992" lon="10.632414">
<ele>-0.833393</ele>
<time>2026-07-17T12:13:14.000Z</time>
</trkpt>
<trkpt lat="57.740037" lon="10.632431">
<ele>-0.818950</ele>
<time>2026-07-17T12:13:15.000Z</time>
</trkpt>
<trkpt lat="57.740086" lon="10.632440">
<ele>-0.803460</ele>
<time>2026-07-17T12:13:16.000Z</time>
</trkpt>
<trkpt lat="57.740137" lon="10.632444">
<ele>-0.787400</ele>
<time>2026-07-17T12:13:17.000Z</time>
</trkpt>
<trkpt lat="57.740186" lon="10.632446">
<ele>-0.771980</ele>
<time>2026-07-17T12:13:18.000Z</time>
</trkpt>
<trkpt lat="57.740237" lon="10.632448">
<ele>-0.755931</ele>
<time>2026-07-17T12:13:19.000Z</time>
</trkpt>
<trkpt lat="57.740288" lon="10.632448">
<ele>-0.758787</ele>
<time>2026-07-17T12:13:20.000Z</time>
</trkpt>
<trkpt lat="57.740334" lon="10.632445">
<ele>-0.774900</ele>
<time>2026-07-17T12:13:21.000Z</time>
</trkpt>
<trkpt lat="57.740379" lon="10.632441">
<ele>-0.790671</ele>
<time>2026-07-17T12:13:22.000Z</time>
</trkpt>
<trkpt lat="57.740430" lon="10.632440">
<ele>-0.808525</ele>
<time>2026-07-17T12:13:23.000Z</time>
</trkpt>
<trkpt lat="57.740479" lon="10.632450">
<ele>-0.825779</ele>
<time>2026-07-17T12:13:24.000Z</time>
</trkpt>
<trkpt lat="57.740529" lon="10.632466">
<ele>-0.843536</ele>
<time>2026-07-17T12:13:25.000Z</time>
</trkpt>
<trkpt lat="57.740574" lon="10.632493">
<ele>-0.860077</ele>
<time>2026-07-17T12:13:26.000Z</time>
</trkpt>
<trkpt lat="57.740611" lon="10.632523">
<ele>-0.874190</ele>
<time>2026-07-17T12:13:27.000Z</time>
</trkpt>
<trkpt lat="57.740663" lon="10.632560">
<ele>-0.893662</ele>
<time>2026-07-17T12:13:28.000Z</time>
</trkpt>
<trkpt lat="57.740708" lon="10.632595">
<ele>-0.910719</ele>
<time>2026-07-17T12:13:29.000Z</time>
</trkpt>
<trkpt lat="57.740750" lon="10.632633">
<ele>-0.927046</ele>
<time>2026-07-17T12:13:30.000Z</time>
</trkpt>
<trkpt lat="57.740796" lon="10.632674">
<ele>-0.944879</ele>
<time>2026-07-17T12:13:31.000Z</time>
</trkpt>
<trkpt lat="57.740841" lon="10.632715">
<ele>-0.962395</ele>
<time>2026-07-17T12:13:32.000Z</time>
</trkpt>
<trkpt lat="57.740884" lon="10.632760">
<ele>-0.979637</ele>
<time>2026-07-17T12:13:33.000Z</time>
</trkpt>
<trkpt lat="57.740929" lon="10.632800">
<ele>-0.997073</ele>
<time>2026-07-17T12:13:34.000Z</time>
</trkpt>
<trkpt lat="57.740975" lon="10.632845">
<ele>-1.015239</ele>
<time>2026-07-17T12:13:35.000Z</time>
</trkpt>
<trkpt lat="57.741021" lon="10.632889">
<ele>-1.033319</ele>
<time>2026-07-17T12:13:36.000Z</time>
</trkpt>
<trkpt lat="57.741071" lon="10.632932">
<ele>-1.052579</ele>
<time>2026-07-17T12:13:37.000Z</time>
</trkpt>
<trkpt lat="57.741117" lon="10.632974">
<ele>-1.070492</ele>
<time>2026-07-17T12:13:38.000Z</time>
</trkpt>
<trkpt lat="57.741162" lon="10.633016">
<ele>-1.088091</ele>
<time>2026-07-17T12:13:39.000Z</time>
</trkpt>
<trkpt lat="57.741207" lon="10.633058">
<ele>-1.105691</ele>
<time>2026-07-17T12:13:40.000Z</time>
</trkpt>
<trkpt lat="57.741247" lon="10.633101">
<ele>-1.121835</ele>
<time>2026-07-17T12:13:41.000Z</time>
</trkpt>
<trkpt lat="57.741299" lon="10.633149">
<ele>-1.142127</ele>
<time>2026-07-17T12:13:42.000Z</time>
</trkpt>
<trkpt lat="57.741344" lon="10.633192">
<ele>-1.159811</ele>
<time>2026-07-17T12:13:43.000Z</time>
</trkpt>
<trkpt lat="57.741388" lon="10.633235">
<ele>-1.177183</ele>
<time>2026-07-17T12:13:44.000Z</time>
</trkpt>
<trkpt lat="57.741413" lon="10.633257">
<ele>-1.186852</ele>
<time>2026-07-17T12:13:45.000Z</time>
</trkpt>
<trkpt lat="57.741482" lon="10.633309">
<ele>-1.212887</ele>
<time>2026-07-17T12:13:46.000Z</time>
</trkpt>
<trkpt lat="57.741528" lon="10.633339">
<ele>-1.229938</ele>
<time>2026-07-17T12:13:47.000Z</time>
</trkpt>
<trkpt lat="57.741578" lon="10.633364">
<ele>-1.248054</ele>
<time>2026-07-17T12:13:48.000Z</time>
</trkpt>
<trkpt lat="57.741627" lon="10.633383">
<ele>-1.265570</ele>
<time>2026-07-17T12:13:49.000Z</time>
</trkpt>
<trkpt lat="57.741677" lon="10.633399">
<ele>-1.283327</ele>
<time>2026-07-17T12:13:50.000Z</time>
</trkpt>
<trkpt lat="57.741726" lon="10.633412">
<ele>-1.300651</ele>
<time>2026-07-17T12:13:51.000Z</time>
</trkpt>
<trkpt lat="57.741775" lon="10.633426">
<ele>-1.318003</ele>
<time>2026-07-17T12:13:52.000Z</time>
</trkpt>
<trkpt lat="57.741829" lon="10.633444">
<ele>-1.337203</ele>
<time>2026-07-17T12:13:53.000Z</time>
</trkpt>
<trkpt lat="57.741878" lon="10.633467">
<ele>-1.354887</ele>
<time>2026-07-17T12:13:54.000Z</time>
</trkpt>
<trkpt lat="57.741924" lon="10.633501">
<ele>-1.372197</ele>
<time>2026-07-17T12:13:55.000Z</time>
</trkpt>
<trkpt lat="57.741969" lon="10.633539">
<ele>-1.378470</ele>
<time>2026-07-17T12:13:56.000Z</time>
</trkpt>
<trkpt lat="57.742015" lon="10.633586">
<ele>-1.378462</ele>
<time>2026-07-17T12:13:57.000Z</time>
</trkpt>
<trkpt lat="57.742057" lon="10.633638">
<ele>-1.378455</ele>
<time>2026-07-17T12:13:58.000Z</time>
</trkpt>
<trkpt lat="57.742100" lon="10.633696">
<ele>-1.378448</ele>
<time>2026-07-17T12:13:59.000Z</time>
</trkpt>
<trkpt lat="57.742142" lon="10.633753">
<ele>-1.378441</ele>
<time>2026-07-17T12:14:00.000Z</time>
</trkpt>
<trkpt lat="57.742180" lon="10.633809">
<ele>-1.378434</ele>
<time>2026-07-17T12:14:01.000Z</time>
</trkpt>
<trkpt lat="57.742218" lon="10.633865">
<ele>-1.378428</ele>
<time>2026-07-17T12:14:02.000Z</time>
</trkpt>
<trkpt lat="57.742256" lon="10.633919">
<ele>-1.378421</ele>
<time>2026-07-17T12:14:03.000Z</time>
</trkpt>
<trkpt lat="57.742295" lon="10.633971">
<ele>-1.378415</ele>
<time>2026-07-17T12:14:04.000Z</time>
</trkpt>
<trkpt lat="57.742337" lon="10.634027">
<ele>-1.378408</ele>
<time>2026-07-17T12:14:05.000Z</time>
</trkpt>
<trkpt lat="57.742379" lon="10.634078">
<ele>-1.378401</ele>
<time>2026-07-17T12:14:06.000Z</time>
</trkpt>
<trkpt lat="57.742425" lon="10.634127">
<ele>-1.378394</ele>
<time>2026-07-17T12:14:07.000Z</time>
</trkpt>
<trkpt lat="57.742467" lon="10.634171">
<ele>-1.378387</ele>
<time>2026-07-17T12:14:08.000Z</time>
</trkpt>
<trkpt lat="57.742517" lon="10.634211">
<ele>-1.378379</ele>
<time>2026-07-17T12:14:09.000Z</time>
</trkpt>
<trkpt lat="57.742566" lon="10.634253">
<ele>-1.378372</ele>
<time>2026-07-17T12:14:10.000Z</time>
</trkpt>
<trkpt lat="57.742616" lon="10.634293">
<ele>-1.378365</ele>
<time>2026-07-17T12:14:11.000Z</time>
</trkpt>
<trkpt lat="57.742667" lon="10.634328">
<ele>-1.378357</ele>
<time>2026-07-17T12:14:12.000Z</time>
</trkpt>
<trkpt lat="57.742718" lon="10.634356">
<ele>-1.378350</ele>
<time>2026-07-17T12:14:13.000Z</time>
</trkpt>
<trkpt lat="57.742769" lon="10.634384">
<ele>-1.378343</ele>
<time>2026-07-17T12:14:14.000Z</time>
</trkpt>
<trkpt lat="57.742822" lon="10.634405">
<ele>-1.378335</ele>
<time>2026-07-17T12:14:15.000Z</time>
</trkpt>
<trkpt lat="57.742876" lon="10.634426">
<ele>-1.378328</ele>
<time>2026-07-17T12:14:16.000Z</time>
</trkpt>
<trkpt lat="57.742929" lon="10.634449">
<ele>-1.378320</ele>
<time>2026-07-17T12:14:17.000Z</time>
</trkpt>
<trkpt lat="57.742983" lon="10.634472">
<ele>-1.378313</ele>
<time>2026-07-17T12:14:18.000Z</time>
</trkpt>
<trkpt lat="57.743040" lon="10.634490">
<ele>-1.378305</ele>
<time>2026-07-17T12:14:19.000Z</time>
</trkpt>
<trkpt lat="57.743094" lon="10.634507">
<ele>-1.378297</ele>
<time>2026-07-17T12:14:20.000Z</time>
</trkpt>
<trkpt lat="57.743150" lon="10.634523">
<ele>-1.378289</ele>
<time>2026-07-17T12:14:21.000Z</time>
</trkpt>
<trkpt lat="57.743202" lon="10.634540">
<ele>-1.378282</ele>
<time>2026-07-17T12:14:22.000Z</time>
</trkpt>
<trkpt lat="57.743261" lon="10.634553">
<ele>-1.378274</ele>
<time>2026-07-17T12:14:23.000Z</time>
</trkpt>
<trkpt lat="57.743315" lon="10.634567">
<ele>-1.378266</ele>
<time>2026-07-17T12:14:24.000Z</time>
</trkpt>
<trkpt lat="57.743372" lon="10.634578">
<ele>-1.378259</ele>
<time>2026-07-17T12:14:25.000Z</time>
</trkpt>
<trkpt lat="57.743429" lon="10.634588">
<ele>-1.378251</ele>
<time>2026-07-17T12:14:26.000Z</time>
</trkpt>
<trkpt lat="57.743482" lon="10.634598">
<ele>-1.378243</ele>
<time>2026-07-17T12:14:27.000Z</time>
</trkpt>
<trkpt lat="57.743540" lon="10.634606">
<ele>-1.378235</ele>
<time>2026-07-17T12:14:28.000Z</time>
</trkpt>
<trkpt lat="57.743593" lon="10.634614">
<ele>-1.378228</ele>
<time>2026-07-17T12:14:29.000Z</time>
</trkpt>
<trkpt lat="57.743647" lon="10.634628">
<ele>-1.382630</ele>
<time>2026-07-17T12:14:30.000Z</time>
</trkpt>
<trkpt lat="57.743699" lon="10.634647">
<ele>-1.387577</ele>
<time>2026-07-17T12:14:31.000Z</time>
</trkpt>
<trkpt lat="57.743751" lon="10.634666">
<ele>-1.392525</ele>
<time>2026-07-17T12:14:32.000Z</time>
</trkpt>
<trkpt lat="57.743806" lon="10.634691">
<ele>-1.397809</ele>
<time>2026-07-17T12:14:33.000Z</time>
</trkpt>
<trkpt lat="57.743859" lon="10.634718">
<ele>-1.402938</ele>
<time>2026-07-17T12:14:34.000Z</time>
</trkpt>
<trkpt lat="57.743907" lon="10.634749">
<ele>-1.407679</ele>
<time>2026-07-17T12:14:35.000Z</time>
</trkpt>
<trkpt lat="57.743958" lon="10.634781">
<ele>-1.412701</ele>
<time>2026-07-17T12:14:36.000Z</time>
</trkpt>
<trkpt lat="57.744013" lon="10.634815">
<ele>-1.418109</ele>
<time>2026-07-17T12:14:37.000Z</time>
</trkpt>
<trkpt lat="57.744065" lon="10.634849">
<ele>-1.423252</ele>
<time>2026-07-17T12:14:38.000Z</time>
</trkpt>
<trkpt lat="57.744118" lon="10.634889">
<ele>-1.428587</ele>
<time>2026-07-17T12:14:39.000Z</time>
</trkpt>
<trkpt lat="57.744168" lon="10.634936">
<ele>-1.433811</ele>
<time>2026-07-17T12:14:40.000Z</time>
</trkpt>
<trkpt lat="57.744214" lon="10.634983">
<ele>-1.438703</ele>
<time>2026-07-17T12:14:41.000Z</time>
</trkpt>
<trkpt lat="57.744260" lon="10.635031">
<ele>-1.443620</ele>
<time>2026-07-17T12:14:42.000Z</time>
</trkpt>
<trkpt lat="57.744304" lon="10.635073">
<ele>-1.448231</ele>
<time>2026-07-17T12:14:43.000Z</time>
</trkpt>
<trkpt lat="57.744347" lon="10.635116">
<ele>-1.452782</ele>
<time>2026-07-17T12:14:44.000Z</time>
</trkpt>
<trkpt lat="57.744388" lon="10.635154">
<ele>-1.457053</ele>
<time>2026-07-17T12:14:45.000Z</time>
</trkpt>
<trkpt lat="57.744432" lon="10.635189">
<ele>-1.461517</ele>
<time>2026-07-17T12:14:46.000Z</time>
</trkpt>
<trkpt lat="57.744466" lon="10.635220">
<ele>-1.465048</ele>
<time>2026-07-17T12:14:47.000Z</time>
</trkpt>
<trkpt lat="57.744501" lon="10.635242">
<ele>-1.468495</ele>
<time>2026-07-17T12:14:48.000Z</time>
</trkpt>
<trkpt lat="57.744524" lon="10.635256">
<ele>-1.470753</ele>
<time>2026-07-17T12:14:49.000Z</time>
</trkpt>
<trkpt lat="57.744538" lon="10.635262">
<ele>-1.472094</ele>
<time>2026-07-17T12:14:50.000Z</time>
</trkpt>
<trkpt lat="57.744552" lon="10.635267">
<ele>-1.473425</ele>
<time>2026-07-17T12:15:25.000Z</time>
</trkpt>
<trkpt lat="57.744585" lon="10.635285">
<ele>-1.476634</ele>
<time>2026-07-17T12:15:26.000Z</time>
</trkpt>
<trkpt lat="57.744609" lon="10.635308">
<ele>-1.479151</ele>
<time>2026-07-17T12:15:27.000Z</time>
</trkpt>
<trkpt lat="57.744635" lon="10.635335">
<ele>-1.481927</ele>
<time>2026-07-17T12:15:28.000Z</time>
</trkpt>
<trkpt lat="57.744661" lon="10.635366">
<ele>-1.484805</ele>
<time>2026-07-17T12:15:29.000Z</time>
</trkpt>
<trkpt lat="57.744689" lon="10.635404">
<ele>-1.488033</ele>
<time>2026-07-17T12:15:30.000Z</time>
</trkpt>
<trkpt lat="57.744715" lon="10.635442">
<ele>-1.491112</ele>
<time>2026-07-17T12:15:31.000Z</time>
</trkpt>
<trkpt lat="57.744738" lon="10.635481">
<ele>-1.494009</ele>
<time>2026-07-17T12:15:32.000Z</time>
</trkpt>
<trkpt lat="57.744769" lon="10.635527">
<ele>-1.497701</ele>
<time>2026-07-17T12:15:33.000Z</time>
</trkpt>
<trkpt lat="57.744795" lon="10.635572">
<ele>-1.501006</ele>
<time>2026-07-17T12:15:34.000Z</time>
</trkpt>
<trkpt lat="57.744823" lon="10.635618">
<ele>-1.504483</ele>
<time>2026-07-17T12:15:35.000Z</time>
</trkpt>
<trkpt lat="57.744852" lon="10.635658">
<ele>-1.507846</ele>
<time>2026-07-17T12:15:36.000Z</time>
</trkpt>
<trkpt lat="57.744888" lon="10.635697">
<ele>-1.511729</ele>
<time>2026-07-17T12:15:37.000Z</time>
</trkpt>
<trkpt lat="57.744919" lon="10.635731">
<ele>-1.515083</ele>
<time>2026-07-17T12:15:38.000Z</time>
</trkpt>
<trkpt lat="57.744958" lon="10.635763">
<ele>-1.519059</ele>
<time>2026-07-17T12:15:39.000Z</time>
</trkpt>
<trkpt lat="57.744999" lon="10.635790">
<ele>-1.523117</ele>
<time>2026-07-17T12:15:40.000Z</time>
</trkpt>
<trkpt lat="57.745041" lon="10.635810">
<ele>-1.527163</ele>
<time>2026-07-17T12:15:41.000Z</time>
</trkpt>
<trkpt lat="57.745082" lon="10.635827">
<ele>-1.531084</ele>
<time>2026-07-17T12:15:42.000Z</time>
</trkpt>
<trkpt lat="57.745121" lon="10.635845">
<ele>-1.534835</ele>
<time>2026-07-17T12:15:43.000Z</time>
</trkpt>
<trkpt lat="57.745158" lon="10.635863">
<ele>-1.538404</ele>
<time>2026-07-17T12:15:44.000Z</time>
</trkpt>
<trkpt lat="57.745198" lon="10.635889">
<ele>-1.542358</ele>
<time>2026-07-17T12:15:45.000Z</time>
</trkpt>
<trkpt lat="57.745239" lon="10.635921">
<ele>-1.546727</ele>
<time>2026-07-17T12:15:46.000Z</time>
</trkpt>
<trkpt lat="57.745274" lon="10.635959">
<ele>-1.553086</ele>
<time>2026-07-17T12:15:47.000Z</time>
</trkpt>
<trkpt lat="57.745311" lon="10.636000">
<ele>-1.559842</ele>
<time>2026-07-17T12:15:48.000Z</time>
</trkpt>
<trkpt lat="57.745341" lon="10.636040">
<ele>-1.565630</ele>
<time>2026-07-17T12:15:49.000Z</time>
</trkpt>
<trkpt lat="57.745365" lon="10.636064">
<ele>-1.569906</ele>
<time>2026-07-17T12:15:50.000Z</time>
</trkpt>
<trkpt lat="57.745382" lon="10.636081">
<ele>-1.572935</ele>
<time>2026-07-17T12:15:51.000Z</time>
</trkpt>
<trkpt lat="57.745401" lon="10.636095">
<ele>-1.576144</ele>
<time>2026-07-17T12:15:52.000Z</time>
</trkpt>
<trkpt lat="57.745421" lon="10.636119">
<ele>-1.579877</ele>
<time>2026-07-17T12:15:53.000Z</time>
</trkpt>
<trkpt lat="57.745444" lon="10.636150">
<ele>-1.584330</ele>
<time>2026-07-17T12:15:54.000Z</time>
</trkpt>
<trkpt lat="57.745466" lon="10.636187">
<ele>-1.588977</ele>
<time>2026-07-17T12:15:55.000Z</time>
</trkpt>
<trkpt lat="57.745494" lon="10.636233">
<ele>-1.594830</ele>
<time>2026-07-17T12:15:56.000Z</time>
</trkpt>
<trkpt lat="57.745516" lon="10.636275">
<ele>-1.599767</ele>
<time>2026-07-17T12:15:57.000Z</time>
</trkpt>
<trkpt lat="57.745542" lon="10.636317">
<ele>-1.605163</ele>
<time>2026-07-17T12:15:58.000Z</time>
</trkpt>
<trkpt lat="57.745565" lon="10.636361">
<ele>-1.610329</ele>
<time>2026-07-17T12:15:59.000Z</time>
</trkpt>
<trkpt lat="57.745593" lon="10.636408">
<ele>-1.616238</ele>
<time>2026-07-17T12:16:00.000Z</time>
</trkpt>
<trkpt lat="57.745619" lon="10.636451">
<ele>-1.621689</ele>
<time>2026-07-17T12:16:01.000Z</time>
</trkpt>
<trkpt lat="57.745650" lon="10.636500">
<ele>-1.628064</ele>
<time>2026-07-17T12:16:02.000Z</time>
</trkpt>
<trkpt lat="57.745676" lon="10.636546">
<ele>-1.633685</ele>
<time>2026-07-17T12:16:03.000Z</time>
</trkpt>
<trkpt lat="57.745708" lon="10.636594">
<ele>-1.640128</ele>
<time>2026-07-17T12:16:04.000Z</time>
</trkpt>
<trkpt lat="57.745737" lon="10.636637">
<ele>-1.645941</ele>
<time>2026-07-17T12:16:05.000Z</time>
</trkpt>
<trkpt lat="57.745765" lon="10.636684">
<ele>-1.651849</ele>
<time>2026-07-17T12:16:06.000Z</time>
</trkpt>
<trkpt lat="57.745795" lon="10.636730">
<ele>-1.657943</ele>
<time>2026-07-17T12:16:07.000Z</time>
</trkpt>
<trkpt lat="57.745826" lon="10.636778">
<ele>-1.664264</ele>
<time>2026-07-17T12:16:08.000Z</time>
</trkpt>
<trkpt lat="57.745851" lon="10.636827">
<ele>-1.669950</ele>
<time>2026-07-17T12:16:09.000Z</time>
</trkpt>
<trkpt lat="57.745879" lon="10.636877">
<ele>-1.676030</ele>
<time>2026-07-17T12:16:10.000Z</time>
</trkpt>
<trkpt lat="57.745908" lon="10.636920">
<ele>-1.681843</ele>
<time>2026-07-17T12:16:11.000Z</time>
</trkpt>
<trkpt lat="57.745933" lon="10.636963">
<ele>-1.687177</ele>
<time>2026-07-17T12:16:12.000Z</time>
</trkpt>
<trkpt lat="57.745958" lon="10.637006">
<ele>-1.692511</ele>
<time>2026-07-17T12:16:13.000Z</time>
</trkpt>
<trkpt lat="57.745985" lon="10.637054">
<ele>-1.698361</ele>
<time>2026-07-17T12:16:14.000Z</time>
</trkpt>
<trkpt lat="57.746006" lon="10.637096">
<ele>-1.703189</ele>
<time>2026-07-17T12:16:15.000Z</time>
</trkpt>
<trkpt lat="57.746035" lon="10.637150">
<ele>-1.709615</ele>
<time>2026-07-17T12:16:16.000Z</time>
</trkpt>
<trkpt lat="57.746058" lon="10.637200">
<ele>-1.715153</ele>
<time>2026-07-17T12:16:17.000Z</time>
</trkpt>
<trkpt lat="57.746085" lon="10.637248">
<ele>-1.721003</ele>
<time>2026-07-17T12:16:18.000Z</time>
</trkpt>
<trkpt lat="57.746111" lon="10.637296">
<ele>-1.726740</ele>
<time>2026-07-17T12:16:19.000Z</time>
</trkpt>
<trkpt lat="57.746138" lon="10.637347">
<ele>-1.732766</ele>
<time>2026-07-17T12:16:20.000Z</time>
</trkpt>
<trkpt lat="57.746165" lon="10.637401">
<ele>-1.738973</ele>
<time>2026-07-17T12:16:21.000Z</time>
</trkpt>
<trkpt lat="57.746188" lon="10.637452">
<ele>-1.744574</ele>
<time>2026-07-17T12:16:22.000Z</time>
</trkpt>
<trkpt lat="57.746211" lon="10.637500">
<ele>-1.749986</ele>
<time>2026-07-17T12:16:23.000Z</time>
</trkpt>
<trkpt lat="57.746238" lon="10.637549">
<ele>-1.755894</ele>
<time>2026-07-17T12:16:24.000Z</time>
</trkpt>
<trkpt lat="57.746263" lon="10.637595">
<ele>-1.761401</ele>
<time>2026-07-17T12:16:25.000Z</time>
</trkpt>
<trkpt lat="57.746291" lon="10.637645">
<ele>-1.767481</ele>
<time>2026-07-17T12:16:26.000Z</time>
</trkpt>
<trkpt lat="57.746313" lon="10.637694">
<ele>-1.772852</ele>
<time>2026-07-17T12:16:27.000Z</time>
</trkpt>
<trkpt lat="57.746337" lon="10.637745">
<ele>-1.778556</ele>
<time>2026-07-17T12:16:28.000Z</time>
</trkpt>
<trkpt lat="57.746359" lon="10.637793">
<ele>-1.783864</ele>
<time>2026-07-17T12:16:29.000Z</time>
</trkpt>
<trkpt lat="57.746382" lon="10.637841">
<ele>-1.789275</ele>
<time>2026-07-17T12:16:30.000Z</time>
</trkpt>
<trkpt lat="57.746404" lon="10.637887">
<ele>-1.794456</ele>
<time>2026-07-17T12:16:31.000Z</time>
</trkpt>
<trkpt lat="57.746428" lon="10.637940">
<ele>-1.800287</ele>
<time>2026-07-17T12:16:32.000Z</time>
</trkpt>
<trkpt lat="57.746451" lon="10.637991">
<ele>-1.805888</ele>
<time>2026-07-17T12:16:33.000Z</time>
</trkpt>
<trkpt lat="57.746470" lon="10.638042">
<ele>-1.811105</ele>
<time>2026-07-17T12:16:34.000Z</time>
</trkpt>
<trkpt lat="57.746493" lon="10.638091">
<ele>-1.816579</ele>
<time>2026-07-17T12:16:35.000Z</time>
</trkpt>
<trkpt lat="57.746515" lon="10.638136">
<ele>-1.821699</ele>
<time>2026-07-17T12:16:36.000Z</time>
</trkpt>
<trkpt lat="57.746537" lon="10.638179">
<ele>-1.826696</ele>
<time>2026-07-17T12:16:37.000Z</time>
</trkpt>
<trkpt lat="57.746561" lon="10.638230">
<ele>-1.828067</ele>
<time>2026-07-17T12:16:38.000Z</time>
</trkpt>
<trkpt lat="57.746580" lon="10.638277">
<ele>-1.826892</ele>
<time>2026-07-17T12:16:39.000Z</time>
</trkpt>
<trkpt lat="57.746602" lon="10.638329">
<ele>-1.825571</ele>
<time>2026-07-17T12:16:40.000Z</time>
</trkpt>
<trkpt lat="57.746613" lon="10.638378">
<ele>-1.824512</ele>
<time>2026-07-17T12:16:41.000Z</time>
</trkpt>
<trkpt lat="57.746626" lon="10.638414">
<ele>-1.823646</ele>
<time>2026-07-17T12:17:02.000Z</time>
</trkpt>
<trkpt lat="57.746649" lon="10.638438">
<ele>-1.822664</ele>
<time>2026-07-17T12:17:03.000Z</time>
</trkpt>
<trkpt lat="57.746672" lon="10.638466">
<ele>-1.821640</ele>
<time>2026-07-17T12:17:04.000Z</time>
</trkpt>
<trkpt lat="57.746691" lon="10.638507">
<ele>-1.820558</ele>
<time>2026-07-17T12:17:05.000Z</time>
</trkpt>
<trkpt lat="57.746710" lon="10.638555">
<ele>-1.819368</ele>
<time>2026-07-17T12:17:06.000Z</time>
</trkpt>
<trkpt lat="57.746725" lon="10.638608">
<ele>-1.818173</ele>
<time>2026-07-17T12:17:07.000Z</time>
</trkpt>
<trkpt lat="57.746744" lon="10.638664">
<ele>-1.816852</ele>
<time>2026-07-17T12:17:08.000Z</time>
</trkpt>
<trkpt lat="57.746763" lon="10.638721">
<ele>-1.815513</ele>
<time>2026-07-17T12:17:09.000Z</time>
</trkpt>
<trkpt lat="57.746783" lon="10.638774">
<ele>-1.814220</ele>
<time>2026-07-17T12:17:10.000Z</time>
</trkpt>
<trkpt lat="57.746806" lon="10.638827">
<ele>-1.812860</ele>
<time>2026-07-17T12:17:11.000Z</time>
</trkpt>
<trkpt lat="57.746828" lon="10.638876">
<ele>-1.811584</ele>
<time>2026-07-17T12:17:12.000Z</time>
</trkpt>
<trkpt lat="57.746852" lon="10.638932">
<ele>-1.810154</ele>
<time>2026-07-17T12:17:13.000Z</time>
</trkpt>
<trkpt lat="57.746874" lon="10.638984">
<ele>-1.808832</ele>
<time>2026-07-17T12:17:14.000Z</time>
</trkpt>
<trkpt lat="57.746897" lon="10.639040">
<ele>-1.807425</ele>
<time>2026-07-17T12:17:15.000Z</time>
</trkpt>
<trkpt lat="57.746919" lon="10.639088">
<ele>-1.806164</ele>
<time>2026-07-17T12:17:16.000Z</time>
</trkpt>
<trkpt lat="57.746943" lon="10.639134">
<ele>-1.804883</ele>
<time>2026-07-17T12:17:17.000Z</time>
</trkpt>
<trkpt lat="57.746966" lon="10.639177">
<ele>-1.803670</ele>
<time>2026-07-17T12:17:18.000Z</time>
</trkpt>
<trkpt lat="57.746992" lon="10.639223">
<ele>-1.802336</ele>
<time>2026-07-17T12:17:19.000Z</time>
</trkpt>
<trkpt lat="57.747011" lon="10.639267">
<ele>-1.801209</ele>
<time>2026-07-17T12:17:20.000Z</time>
</trkpt>
<trkpt lat="57.747030" lon="10.639316">
<ele>-1.800002</ele>
<time>2026-07-17T12:17:21.000Z</time>
</trkpt>
<trkpt lat="57.747049" lon="10.639366">
<ele>-1.798780</ele>
<time>2026-07-17T12:17:22.000Z</time>
</trkpt>
<trkpt lat="57.747069" lon="10.639417">
<ele>-1.797519</ele>
<time>2026-07-17T12:17:23.000Z</time>
</trkpt>
<trkpt lat="57.747087" lon="10.639466">
<ele>-1.796334</ele>
<time>2026-07-17T12:17:24.000Z</time>
</trkpt>
<trkpt lat="57.747107" lon="10.639515">
<ele>-1.795106</ele>
<time>2026-07-17T12:17:25.000Z</time>
</trkpt>
<trkpt lat="57.747125" lon="10.639565">
<ele>-1.793904</ele>
<time>2026-07-17T12:17:26.000Z</time>
</trkpt>
<trkpt lat="57.747145" lon="10.639620">
<ele>-1.792579</ele>
<time>2026-07-17T12:17:27.000Z</time>
</trkpt>
<trkpt lat="57.747168" lon="10.639668">
<ele>-1.791294</ele>
<time>2026-07-17T12:17:28.000Z</time>
</trkpt>
<trkpt lat="57.747191" lon="10.639719">
<ele>-1.789964</ele>
<time>2026-07-17T12:17:29.000Z</time>
</trkpt>
<trkpt lat="57.747209" lon="10.639770">
<ele>-1.788746</ele>
<time>2026-07-17T12:17:30.000Z</time>
</trkpt>
<trkpt lat="57.747228" lon="10.639824">
<ele>-1.787458</ele>
<time>2026-07-17T12:17:31.000Z</time>
</trkpt>
<trkpt lat="57.747244" lon="10.639878">
<ele>-1.786228</ele>
<time>2026-07-17T12:17:32.000Z</time>
</trkpt>
<trkpt lat="57.747267" lon="10.639933">
<ele>-1.784836</ele>
<time>2026-07-17T12:17:33.000Z</time>
</trkpt>
<trkpt lat="57.747286" lon="10.639986">
<ele>-1.783564</ele>
<time>2026-07-17T12:17:34.000Z</time>
</trkpt>
<trkpt lat="57.747309" lon="10.640039">
<ele>-1.782204</ele>
<time>2026-07-17T12:17:35.000Z</time>
</trkpt>
<trkpt lat="57.747330" lon="10.640088">
<ele>-1.780952</ele>
<time>2026-07-17T12:17:36.000Z</time>
</trkpt>
<trkpt lat="57.747354" lon="10.640147">
<ele>-1.779474</ele>
<time>2026-07-17T12:17:37.000Z</time>
</trkpt>
<trkpt lat="57.747373" lon="10.640202">
<ele>-1.778170</ele>
<time>2026-07-17T12:17:38.000Z</time>
</trkpt>
<trkpt lat="57.747393" lon="10.640261">
<ele>-1.776777</ele>
<time>2026-07-17T12:17:39.000Z</time>
</trkpt>
<trkpt lat="57.747411" lon="10.640313">
<ele>-1.775543</ele>
<time>2026-07-17T12:17:40.000Z</time>
</trkpt>
<trkpt lat="57.747427" lon="10.640371">
<ele>-1.774243</ele>
<time>2026-07-17T12:17:41.000Z</time>
</trkpt>
<trkpt lat="57.747442" lon="10.640433">
<ele>-1.772887</ele>
<time>2026-07-17T12:17:42.000Z</time>
</trkpt>
<trkpt lat="57.747457" lon="10.640497">
<ele>-1.771494</ele>
<time>2026-07-17T12:17:43.000Z</time>
</trkpt>
<trkpt lat="57.747473" lon="10.640563">
<ele>-1.770051</ele>
<time>2026-07-17T12:17:44.000Z</time>
</trkpt>
<trkpt lat="57.747488" lon="10.640629">
<ele>-1.768622</ele>
<time>2026-07-17T12:17:45.000Z</time>
</trkpt>
<trkpt lat="57.747503" lon="10.640690">
<ele>-1.767284</ele>
<time>2026-07-17T12:17:46.000Z</time>
</trkpt>
<trkpt lat="57.747518" lon="10.640752">
<ele>-1.765928</ele>
<time>2026-07-17T12:17:47.000Z</time>
</trkpt>
<trkpt lat="57.747533" lon="10.640811">
<ele>-1.764627</ele>
<time>2026-07-17T12:17:48.000Z</time>
</trkpt>
<trkpt lat="57.747545" lon="10.640867">
<ele>-1.763425</ele>
<time>2026-07-17T12:17:49.000Z</time>
</trkpt>
<trkpt lat="57.747556" lon="10.640919">
<ele>-1.762311</ele>
<time>2026-07-17T12:17:50.000Z</time>
</trkpt>
<trkpt lat="57.747567" lon="10.640974">
<ele>-1.755914</ele>
<time>2026-07-17T12:17:51.000Z</time>
</trkpt>
<trkpt lat="57.747578" lon="10.641027">
<ele>-1.745356</ele>
<time>2026-07-17T12:17:52.000Z</time>
</trkpt>
<trkpt lat="57.747590" lon="10.641088">
<ele>-1.733286</ele>
<time>2026-07-17T12:17:53.000Z</time>
</trkpt>
<trkpt lat="57.747602" lon="10.641146">
<ele>-1.721738</ele>
<time>2026-07-17T12:17:54.000Z</time>
</trkpt>
<trkpt lat="57.747613" lon="10.641208">
<ele>-1.709608</ele>
<time>2026-07-17T12:17:55.000Z</time>
</trkpt>
<trkpt lat="57.747625" lon="10.641269">
<ele>-1.697538</ele>
<time>2026-07-17T12:17:56.000Z</time>
</trkpt>
<trkpt lat="57.747636" lon="10.641333">
<ele>-1.685056</ele>
<time>2026-07-17T12:17:57.000Z</time>
</trkpt>
<trkpt lat="57.747651" lon="10.641394">
<ele>-1.672586</ele>
<time>2026-07-17T12:17:58.000Z</time>
</trkpt>
<trkpt lat="57.747663" lon="10.641454">
<ele>-1.660691</ele>
<time>2026-07-17T12:17:59.000Z</time>
</trkpt>
<trkpt lat="57.747678" lon="10.641514">
<ele>-1.648390</ele>
<time>2026-07-17T12:18:00.000Z</time>
</trkpt>
<trkpt lat="57.747690" lon="10.641575">
<ele>-1.636320</ele>
<time>2026-07-17T12:18:01.000Z</time>
</trkpt>
<trkpt lat="57.747701" lon="10.641636">
<ele>-1.624367</ele>
<time>2026-07-17T12:18:02.000Z</time>
</trkpt>
<trkpt lat="57.747712" lon="10.641698">
<ele>-1.612237</ele>
<time>2026-07-17T12:18:03.000Z</time>
</trkpt>
<trkpt lat="57.747719" lon="10.641760">
<ele>-1.600472</ele>
<time>2026-07-17T12:18:04.000Z</time>
</trkpt>
<trkpt lat="57.747728" lon="10.641821">
<ele>-1.588722</ele>
<time>2026-07-17T12:18:05.000Z</time>
</trkpt>
<trkpt lat="57.747739" lon="10.641881">
<ele>-1.576944</ele>
<time>2026-07-17T12:18:06.000Z</time>
</trkpt>
<trkpt lat="57.747750" lon="10.641943">
<ele>-1.564814</ele>
<time>2026-07-17T12:18:07.000Z</time>
</trkpt>
<trkpt lat="57.747762" lon="10.642002">
<ele>-1.553092</ele>
<time>2026-07-17T12:18:08.000Z</time>
</trkpt>
<trkpt lat="57.747774" lon="10.642061">
<ele>-1.541370</ele>
<time>2026-07-17T12:18:09.000Z</time>
</trkpt>
<trkpt lat="57.747789" lon="10.642119">
<ele>-1.529405</ele>
<time>2026-07-17T12:18:10.000Z</time>
</trkpt>
<trkpt lat="57.747804" lon="10.642178">
<ele>-1.517272</ele>
<time>2026-07-17T12:18:11.000Z</time>
</trkpt>
<trkpt lat="57.747819" lon="10.642231">
<ele>-1.506134</ele>
<time>2026-07-17T12:18:12.000Z</time>
</trkpt>
<trkpt lat="57.747834" lon="10.642288">
<ele>-1.494336</ele>
<time>2026-07-17T12:18:13.000Z</time>
</trkpt>
<trkpt lat="57.747846" lon="10.642344">
<ele>-1.483132</ele>
<time>2026-07-17T12:18:14.000Z</time>
</trkpt>
<trkpt lat="57.747857" lon="10.642399">
<ele>-1.472228</ele>
<time>2026-07-17T12:18:15.000Z</time>
</trkpt>
<trkpt lat="57.747869" lon="10.642457">
<ele>-1.460679</ele>
<time>2026-07-17T12:18:16.000Z</time>
</trkpt>
<trkpt lat="57.747880" lon="10.642514">
<ele>-1.449427</ele>
<time>2026-07-17T12:18:17.000Z</time>
</trkpt>
<trkpt lat="57.747891" lon="10.642568">
<ele>-1.438696</ele>
<time>2026-07-17T12:18:18.000Z</time>
</trkpt>
<trkpt lat="57.747899" lon="10.642624">
<ele>-1.427934</ele>
<time>2026-07-17T12:18:19.000Z</time>
</trkpt>
<trkpt lat="57.747906" lon="10.642672">
<ele>-1.418696</ele>
<time>2026-07-17T12:18:20.000Z</time>
</trkpt>
<trkpt lat="57.747915" lon="10.642716">
<ele>-1.409948</ele>
<time>2026-07-17T12:18:21.000Z</time>
</trkpt>
<trkpt lat="57.747925" lon="10.642754">
<ele>-1.402082</ele>
<time>2026-07-17T12:18:22.000Z</time>
</trkpt>
<trkpt lat="57.747929" lon="10.642775">
<ele>-1.397942</ele>
<time>2026-07-17T12:18:23.000Z</time>
</trkpt>
<trkpt lat="57.747968" lon="10.642961">
<ele>-1.360842</ele>
<time>2026-07-17T12:18:52.000Z</time>
</trkpt>
<trkpt lat="57.747975" lon="10.642979">
<ele>-1.356707</ele>
<time>2026-07-17T12:18:53.000Z</time>
</trkpt>
<trkpt lat="57.747979" lon="10.642995">
<ele>-1.353427</ele>
<time>2026-07-17T12:18:54.000Z</time>
</trkpt>
<trkpt lat="57.747982" lon="10.643013">
<ele>-1.349926</ele>
<time>2026-07-17T12:18:55.000Z</time>
</trkpt>
<trkpt lat="57.747987" lon="10.643030">
<ele>-1.346322</ele>
<time>2026-07-17T12:18:56.000Z</time>
</trkpt>
<trkpt lat="57.747994" lon="10.643043">
<ele>-1.342894</ele>
<time>2026-07-17T12:18:57.000Z</time>
</trkpt>
<trkpt lat="57.747998" lon="10.643058">
<ele>-1.339780</ele>
<time>2026-07-17T12:18:58.000Z</time>
</trkpt>
<trkpt lat="57.748001" lon="10.643073">
<ele>-1.336807</ele>
<time>2026-07-17T12:18:59.000Z</time>
</trkpt>
<trkpt lat="57.748005" lon="10.643086">
<ele>-1.334021</ele>
<time>2026-07-17T12:19:00.000Z</time>
</trkpt>
<trkpt lat="57.748009" lon="10.643099">
<ele>-1.331235</ele>
<time>2026-07-17T12:19:01.000Z</time>
</trkpt>
<trkpt lat="57.748012" lon="10.643110">
<ele>-1.328941</ele>
<time>2026-07-17T12:19:02.000Z</time>
</trkpt>
<trkpt lat="57.748014" lon="10.643114">
<ele>-1.327924</ele>
<time>2026-07-17T12:19:03.000Z</time>
</trkpt>
<trkpt lat="57.748025" lon="10.643143">
<ele>-1.321319</ele>
<time>2026-07-17T12:19:04.000Z</time>
</trkpt>
<trkpt lat="57.748032" lon="10.643159">
<ele>-1.317478</ele>
<time>2026-07-17T12:19:05.000Z</time>
</trkpt>
<trkpt lat="57.748040" lon="10.643173">
<ele>-1.313670</ele>
<time>2026-07-17T12:19:06.000Z</time>
</trkpt>
<trkpt lat="57.748047" lon="10.643186">
<ele>-1.310241</ele>
<time>2026-07-17T12:19:07.000Z</time>
</trkpt>
<trkpt lat="57.748047" lon="10.643202">
<ele>-1.307271</ele>
<time>2026-07-17T12:19:08.000Z</time>
</trkpt>
<trkpt lat="57.748051" lon="10.643220">
<ele>-1.303651</ele>
<time>2026-07-17T12:19:09.000Z</time>
</trkpt>
<trkpt lat="57.748055" lon="10.643240">
<ele>-1.299686</ele>
<time>2026-07-17T12:19:10.000Z</time>
</trkpt>
<trkpt lat="57.748059" lon="10.643259">
<ele>-1.295894</ele>
<time>2026-07-17T12:19:11.000Z</time>
</trkpt>
<trkpt lat="57.748062" lon="10.643277">
<ele>-1.292393</ele>
<time>2026-07-17T12:19:12.000Z</time>
</trkpt>
<trkpt lat="57.748066" lon="10.643293">
<ele>-1.289113</ele>
<time>2026-07-17T12:19:13.000Z</time>
</trkpt>
<trkpt lat="57.748070" lon="10.643310">
<ele>-1.285663</ele>
<time>2026-07-17T12:19:14.000Z</time>
</trkpt>
<trkpt lat="57.748074" lon="10.643325">
<ele>-1.282550</ele>
<time>2026-07-17T12:19:15.000Z</time>
</trkpt>
<trkpt lat="57.748078" lon="10.643342">
<ele>-1.279101</ele>
<time>2026-07-17T12:19:16.000Z</time>
</trkpt>
<trkpt lat="57.748081" lon="10.643356">
<ele>-1.276300</ele>
<time>2026-07-17T12:19:17.000Z</time>
</trkpt>
<trkpt lat="57.748085" lon="10.643372">
<ele>-1.273020</ele>
<time>2026-07-17T12:19:18.000Z</time>
</trkpt>
<trkpt lat="57.748089" lon="10.643391">
<ele>-1.269228</ele>
<time>2026-07-17T12:19:19.000Z</time>
</trkpt>
<trkpt lat="57.748093" lon="10.643409">
<ele>-1.265609</ele>
<time>2026-07-17T12:19:20.000Z</time>
</trkpt>
<trkpt lat="57.748096" lon="10.643424">
<ele>-1.262635</ele>
<time>2026-07-17T12:19:21.000Z</time>
</trkpt>
<trkpt lat="57.748097" lon="10.643438">
<ele>-1.260012</ele>
<time>2026-07-17T12:19:22.000Z</time>
</trkpt>
<trkpt lat="57.748100" lon="10.643455">
<ele>-1.256688</ele>
<time>2026-07-17T12:19:23.000Z</time>
</trkpt>
<trkpt lat="57.748101" lon="10.643463">
<ele>-1.255163</ele>
<time>2026-07-17T12:19:45.000Z</time>
</trkpt>
<trkpt lat="57.748112" lon="10.643537">
<ele>-1.240902</ele>
<time>2026-07-17T12:19:46.000Z</time>
</trkpt>
<trkpt lat="57.748116" lon="10.643555">
<ele>-1.237282</ele>
<time>2026-07-17T12:19:47.000Z</time>
</trkpt>
<trkpt lat="57.748120" lon="10.643569">
<ele>-1.234334</ele>
<time>2026-07-17T12:19:48.000Z</time>
</trkpt>
<trkpt lat="57.748124" lon="10.643583">
<ele>-1.231386</ele>
<time>2026-07-17T12:19:49.000Z</time>
</trkpt>
<trkpt lat="57.748127" lon="10.643595">
<ele>-1.228926</ele>
<time>2026-07-17T12:19:50.000Z</time>
</trkpt>
<trkpt lat="57.748220" lon="10.643656">
<ele>-1.194647</ele>
<time>2026-07-17T12:20:08.000Z</time>
</trkpt>
<trkpt lat="57.748230" lon="10.643653">
<ele>-1.191124</ele>
<time>2026-07-17T12:20:09.000Z</time>
</trkpt>
<trkpt lat="57.748239" lon="10.643652">
<ele>-1.187988</ele>
<time>2026-07-17T12:20:10.000Z</time>
</trkpt>
<trkpt lat="57.748249" lon="10.643650">
<ele>-1.184489</ele>
<time>2026-07-17T12:20:11.000Z</time>
</trkpt>
<trkpt lat="57.748254" lon="10.643654">
<ele>-1.182598</ele>
<time>2026-07-17T12:20:12.000Z</time>
</trkpt>
<trkpt lat="57.748260" lon="10.643659">
<ele>-1.180313</ele>
<time>2026-07-17T12:20:13.000Z</time>
</trkpt>
<trkpt lat="57.748262" lon="10.643661">
<ele>-1.179524</ele>
<time>2026-07-17T12:20:14.000Z</time>
</trkpt>
<trkpt lat="57.748276" lon="10.643680">
<ele>-1.173511</ele>
<time>2026-07-17T12:20:15.000Z</time>
</trkpt>
<trkpt lat="57.748284" lon="10.643689">
<ele>-1.170265</ele>
<time>2026-07-17T12:20:16.000Z</time>
</trkpt>
<trkpt lat="57.748288" lon="10.643699">
<ele>-1.167945</ele>
<time>2026-07-17T12:20:17.000Z</time>
</trkpt>
<trkpt lat="57.748291" lon="10.643706">
<ele>-1.166278</ele>
<time>2026-07-17T12:20:18.000Z</time>
</trkpt>
<trkpt lat="57.748291" lon="10.643706">
<ele>-1.166278</ele>
<time>2026-07-17T12:20:21.000Z</time>
</trkpt>
<trkpt lat="57.748352" lon="10.643724">
<ele>-1.144795</ele>
<time>2026-07-17T12:21:09.000Z</time>
</trkpt>
<trkpt lat="57.748356" lon="10.643711">
<ele>-1.142009</ele>
<time>2026-07-17T12:21:10.000Z</time>
</trkpt>
<trkpt lat="57.748364" lon="10.643697">
<ele>-1.138201</ele>
<time>2026-07-17T12:21:11.000Z</time>
</trkpt>
<trkpt lat="57.748368" lon="10.643680">
<ele>-1.135431</ele>
<time>2026-07-17T12:21:12.000Z</time>
</trkpt>
<trkpt lat="57.748376" lon="10.643665">
<ele>-1.133570</ele>
<time>2026-07-17T12:21:13.000Z</time>
</trkpt>
<trkpt lat="57.748383" lon="10.643650">
<ele>-1.131821</ele>
<time>2026-07-17T12:21:14.000Z</time>
</trkpt>
<trkpt lat="57.748391" lon="10.643633">
<ele>-1.129831</ele>
<time>2026-07-17T12:21:15.000Z</time>
</trkpt>
<trkpt lat="57.748394" lon="10.643617">
<ele>-1.128343</ele>
<time>2026-07-17T12:21:16.000Z</time>
</trkpt>
<trkpt lat="57.748398" lon="10.643602">
<ele>-1.126871</ele>
<time>2026-07-17T12:21:17.000Z</time>
</trkpt>
<trkpt lat="57.748402" lon="10.643589">
<ele>-1.125554</ele>
<time>2026-07-17T12:21:18.000Z</time>
</trkpt>
<trkpt lat="57.748405" lon="10.643583">
<ele>-1.124832</ele>
<time>2026-07-17T12:21:19.000Z</time>
</trkpt>
<trkpt lat="57.748405" lon="10.643583">
<ele>-1.124832</ele>
<time>2026-07-17T12:21:20.000Z</time>
</trkpt>
<trkpt lat="57.748444" lon="10.643563">
<ele>-1.118181</ele>
<time>2026-07-17T12:22:09.000Z</time>
</trkpt>
<trkpt lat="57.748451" lon="10.643578">
<ele>-1.116432</ele>
<time>2026-07-17T12:22:10.000Z</time>
</trkpt>
<trkpt lat="57.748456" lon="10.643594">
<ele>-1.114804</ele>
<time>2026-07-17T12:22:11.000Z</time>
</trkpt>
<trkpt lat="57.748463" lon="10.643612">
<ele>-1.112849</ele>
<time>2026-07-17T12:22:12.000Z</time>
</trkpt>
<trkpt lat="57.748466" lon="10.643627">
<ele>-1.111443</ele>
<time>2026-07-17T12:22:13.000Z</time>
</trkpt>
<trkpt lat="57.748471" lon="10.643648">
<ele>-1.109425</ele>
<time>2026-07-17T12:22:14.000Z</time>
</trkpt>
<trkpt lat="57.748475" lon="10.643667">
<ele>-1.107632</ele>
<time>2026-07-17T12:22:15.000Z</time>
</trkpt>
<trkpt lat="57.748482" lon="10.643687">
<ele>-1.105533</ele>
<time>2026-07-17T12:22:16.000Z</time>
</trkpt>
<trkpt lat="57.748483" lon="10.643709">
<ele>-1.103594</ele>
<time>2026-07-17T12:22:17.000Z</time>
</trkpt>
<trkpt lat="57.748490" lon="10.643732">
<ele>-1.101270</ele>
<time>2026-07-17T12:22:18.000Z</time>
</trkpt>
<trkpt lat="57.748494" lon="10.643755">
<ele>-1.099147</ele>
<time>2026-07-17T12:22:19.000Z</time>
</trkpt>
<trkpt lat="57.748497" lon="10.643777">
<ele>-1.097154</ele>
<time>2026-07-17T12:22:20.000Z</time>
</trkpt>
<trkpt lat="57.748501" lon="10.643799">
<ele>-1.095114</ele>
<time>2026-07-17T12:22:21.000Z</time>
</trkpt>
<trkpt lat="57.748505" lon="10.643819">
<ele>-1.093239</ele>
<time>2026-07-17T12:22:22.000Z</time>
</trkpt>
<trkpt lat="57.748508" lon="10.643839">
<ele>-1.091415</ele>
<time>2026-07-17T12:22:23.000Z</time>
</trkpt>
<trkpt lat="57.748509" lon="10.643859">
<ele>-1.089652</ele>
<time>2026-07-17T12:22:24.000Z</time>
</trkpt>
<trkpt lat="57.748513" lon="10.643877">
<ele>-1.087941</ele>
<time>2026-07-17T12:22:25.000Z</time>
</trkpt>
<trkpt lat="57.748520" lon="10.643895">
<ele>-1.085986</ele>
<time>2026-07-17T12:22:26.000Z</time>
</trkpt>
<trkpt lat="57.748524" lon="10.643912">
<ele>-1.084355</ele>
<time>2026-07-17T12:22:27.000Z</time>
</trkpt>
<trkpt lat="57.748528" lon="10.643932">
<ele>-1.082480</ele>
<time>2026-07-17T12:22:28.000Z</time>
</trkpt>
<trkpt lat="57.748531" lon="10.643952">
<ele>-1.080656</ele>
<time>2026-07-17T12:22:29.000Z</time>
</trkpt>
<trkpt lat="57.748531" lon="10.643970">
<ele>-1.079077</ele>
<time>2026-07-17T12:22:30.000Z</time>
</trkpt>
<trkpt lat="57.748536" lon="10.643991">
<ele>-1.077058</ele>
<time>2026-07-17T12:22:31.000Z</time>
</trkpt>
<trkpt lat="57.748539" lon="10.644010">
<ele>-1.075319</ele>
<time>2026-07-17T12:22:32.000Z</time>
</trkpt>
<trkpt lat="57.748543" lon="10.644031">
<ele>-1.073362</ele>
<time>2026-07-17T12:22:33.000Z</time>
</trkpt>
<trkpt lat="57.748543" lon="10.644052">
<ele>-1.071518</ele>
<time>2026-07-17T12:22:34.000Z</time>
</trkpt>
<trkpt lat="57.748543" lon="10.644073">
<ele>-1.069675</ele>
<time>2026-07-17T12:22:35.000Z</time>
</trkpt>
<trkpt lat="57.748547" lon="10.644093">
<ele>-1.067800</ele>
<time>2026-07-17T12:22:36.000Z</time>
</trkpt>
<trkpt lat="57.748547" lon="10.644111">
<ele>-1.066220</ele>
<time>2026-07-17T12:22:37.000Z</time>
</trkpt>
<trkpt lat="57.748547" lon="10.644131">
<ele>-1.064465</ele>
<time>2026-07-17T12:22:38.000Z</time>
</trkpt>
<trkpt lat="57.748547" lon="10.644150">
<ele>-1.062797</ele>
<time>2026-07-17T12:22:39.000Z</time>
</trkpt>
<trkpt lat="57.748547" lon="10.644171">
<ele>-1.060954</ele>
<time>2026-07-17T12:22:40.000Z</time>
</trkpt>
<trkpt lat="57.748547" lon="10.644193">
<ele>-1.059023</ele>
<time>2026-07-17T12:22:41.000Z</time>
</trkpt>
<trkpt lat="57.748546" lon="10.644213">
<ele>-1.057259</ele>
<time>2026-07-17T12:22:42.000Z</time>
</trkpt>
<trkpt lat="57.748542" lon="10.644237">
<ele>-1.055052</ele>
<time>2026-07-17T12:22:43.000Z</time>
</trkpt>
<trkpt lat="57.748539" lon="10.644257">
<ele>-1.053229</ele>
<time>2026-07-17T12:22:44.000Z</time>
</trkpt>
<trkpt lat="57.748535" lon="10.644275">
<ele>-1.051517</ele>
<time>2026-07-17T12:22:45.000Z</time>
</trkpt>
<trkpt lat="57.748535" lon="10.644295">
<ele>-1.049762</ele>
<time>2026-07-17T12:22:46.000Z</time>
</trkpt>
<trkpt lat="57.748535" lon="10.644311">
<ele>-1.048357</ele>
<time>2026-07-17T12:22:47.000Z</time>
</trkpt>
<trkpt lat="57.748535" lon="10.644333">
<ele>-1.046426</ele>
<time>2026-07-17T12:22:48.000Z</time>
</trkpt>
<trkpt lat="57.748535" lon="10.644354">
<ele>-1.044583</ele>
<time>2026-07-17T12:22:49.000Z</time>
</trkpt>
<trkpt lat="57.748535" lon="10.644374">
<ele>-1.042827</ele>
<time>2026-07-17T12:22:50.000Z</time>
</trkpt>
<trkpt lat="57.748535" lon="10.644390">
<ele>-1.041423</ele>
<time>2026-07-17T12:22:51.000Z</time>
</trkpt>
<trkpt lat="57.748535" lon="10.644408">
<ele>-1.039843</ele>
<time>2026-07-17T12:22:52.000Z</time>
</trkpt>
<trkpt lat="57.748536" lon="10.644431">
<ele>-1.037818</ele>
<time>2026-07-17T12:22:53.000Z</time>
</trkpt>
<trkpt lat="57.748539" lon="10.644452">
<ele>-1.035909</ele>
<time>2026-07-17T12:22:54.000Z</time>
</trkpt>
<trkpt lat="57.748539" lon="10.644471">
<ele>-1.034242</ele>
<time>2026-07-17T12:22:55.000Z</time>
</trkpt>
<trkpt lat="57.748543" lon="10.644483">
<ele>-1.033000</ele>
<time>2026-07-17T12:22:56.000Z</time>
</trkpt>
<trkpt lat="57.748547" lon="10.644496">
<ele>-1.031682</ele>
<time>2026-07-17T12:22:57.000Z</time>
</trkpt>
<trkpt lat="57.748550" lon="10.644510">
<ele>-1.030358</ele>
<time>2026-07-17T12:22:58.000Z</time>
</trkpt>
<trkpt lat="57.748550" lon="10.644527">
<ele>-1.028866</ele>
<time>2026-07-17T12:22:59.000Z</time>
</trkpt>
<trkpt lat="57.748550" lon="10.644548">
<ele>-1.027023</ele>
<time>2026-07-17T12:23:00.000Z</time>
</trkpt>
<trkpt lat="57.748550" lon="10.644570">
<ele>-1.025092</ele>
<time>2026-07-17T12:23:01.000Z</time>
</trkpt>
<trkpt lat="57.748550" lon="10.644590">
<ele>-1.023336</ele>
<time>2026-07-17T12:23:02.000Z</time>
</trkpt>
<trkpt lat="57.748550" lon="10.644608">
<ele>-1.021756</ele>
<time>2026-07-17T12:23:03.000Z</time>
</trkpt>
<trkpt lat="57.748551" lon="10.644625">
<ele>-1.020255</ele>
<time>2026-07-17T12:23:04.000Z</time>
</trkpt>
<trkpt lat="57.748554" lon="10.644640">
<ele>-1.018849</ele>
<time>2026-07-17T12:23:05.000Z</time>
</trkpt>
<trkpt lat="57.748554" lon="10.644654">
<ele>-1.017620</ele>
<time>2026-07-17T12:23:06.000Z</time>
</trkpt>
<trkpt lat="57.748558" lon="10.644669">
<ele>-1.016148</ele>
<time>2026-07-17T12:23:07.000Z</time>
</trkpt>
<trkpt lat="57.748562" lon="10.644687">
<ele>-1.014437</ele>
<time>2026-07-17T12:23:08.000Z</time>
</trkpt>
<trkpt lat="57.748562" lon="10.644704">
<ele>-1.012944</ele>
<time>2026-07-17T12:23:09.000Z</time>
</trkpt>
<trkpt lat="57.748566" lon="10.644720">
<ele>-1.011393</ele>
<time>2026-07-17T12:23:10.000Z</time>
</trkpt>
<trkpt lat="57.748566" lon="10.644737">
<ele>-1.009901</ele>
<time>2026-07-17T12:23:11.000Z</time>
</trkpt>
<trkpt lat="57.748566" lon="10.644752">
<ele>-1.008585</ele>
<time>2026-07-17T12:23:12.000Z</time>
</trkpt>
<trkpt lat="57.748569" lon="10.644768">
<ele>-1.007096</ele>
<time>2026-07-17T12:23:13.000Z</time>
</trkpt>
<trkpt lat="57.748569" lon="10.644781">
<ele>-1.005955</ele>
<time>2026-07-17T12:23:14.000Z</time>
</trkpt>
<trkpt lat="57.748569" lon="10.644792">
<ele>-1.004989</ele>
<time>2026-07-17T12:23:15.000Z</time>
</trkpt>
<trkpt lat="57.748570" lon="10.644797">
<ele>-1.004521</ele>
<time>2026-07-17T12:23:17.000Z</time>
</trkpt>
<trkpt lat="57.748573" lon="10.644845">
<ele>-1.000279</ele>
<time>2026-07-17T12:23:18.000Z</time>
</trkpt>
<trkpt lat="57.748573" lon="10.644866">
<ele>-0.998435</ele>
<time>2026-07-17T12:23:19.000Z</time>
</trkpt>
<trkpt lat="57.748573" lon="10.644887">
<ele>-0.996592</ele>
<time>2026-07-17T12:23:20.000Z</time>
</trkpt>
<trkpt lat="57.748573" lon="10.644907">
<ele>-0.994836</ele>
<time>2026-07-17T12:23:21.000Z</time>
</trkpt>
<trkpt lat="57.748574" lon="10.644925">
<ele>-0.993248</ele>
<time>2026-07-17T12:23:22.000Z</time>
</trkpt>
<trkpt lat="57.748578" lon="10.644942">
<ele>-0.991617</ele>
<time>2026-07-17T12:23:23.000Z</time>
</trkpt>
<trkpt lat="57.748581" lon="10.644963">
<ele>-0.989709</ele>
<time>2026-07-17T12:23:24.000Z</time>
</trkpt>
<trkpt lat="57.748581" lon="10.644982">
<ele>-0.988041</ele>
<time>2026-07-17T12:23:25.000Z</time>
</trkpt>
<trkpt lat="57.748581" lon="10.644999">
<ele>-0.986549</ele>
<time>2026-07-17T12:23:26.000Z</time>
</trkpt>
<trkpt lat="57.748585" lon="10.645018">
<ele>-0.984756</ele>
<time>2026-07-17T12:23:27.000Z</time>
</trkpt>
<trkpt lat="57.748585" lon="10.645036">
<ele>-0.983176</ele>
<time>2026-07-17T12:23:28.000Z</time>
</trkpt>
<trkpt lat="57.748589" lon="10.645051">
<ele>-0.981704</ele>
<time>2026-07-17T12:23:29.000Z</time>
</trkpt>
<trkpt lat="57.748589" lon="10.645072">
<ele>-0.979861</ele>
<time>2026-07-17T12:23:30.000Z</time>
</trkpt>
<trkpt lat="57.748589" lon="10.645086">
<ele>-0.978632</ele>
<time>2026-07-17T12:23:31.000Z</time>
</trkpt>
<trkpt lat="57.748589" lon="10.645086">
<ele>-0.978632</ele>
<time>2026-07-17T12:23:34.000Z</time>
</trkpt>
<trkpt lat="57.748590" lon="10.645093">
<ele>-0.977996</ele>
<time>2026-07-17T12:23:36.000Z</time>
</trkpt>
<trkpt lat="57.748600" lon="10.645160">
<ele>-0.971889</ele>
<time>2026-07-17T12:23:37.000Z</time>
</trkpt>
<trkpt lat="57.748600" lon="10.645178">
<ele>-0.970309</ele>
<time>2026-07-17T12:23:38.000Z</time>
</trkpt>
<trkpt lat="57.748604" lon="10.645195">
<ele>-0.968679</ele>
<time>2026-07-17T12:23:39.000Z</time>
</trkpt>
<trkpt lat="57.748604" lon="10.645215">
<ele>-0.966923</ele>
<time>2026-07-17T12:23:40.000Z</time>
</trkpt>
<trkpt lat="57.748608" lon="10.645235">
<ele>-0.965048</ele>
<time>2026-07-17T12:23:41.000Z</time>
</trkpt>
<trkpt lat="57.748611" lon="10.645248">
<ele>-0.963805</ele>
<time>2026-07-17T12:23:42.000Z</time>
</trkpt>
<trkpt lat="57.748615" lon="10.645265">
<ele>-0.962174</ele>
<time>2026-07-17T12:23:43.000Z</time>
</trkpt>
<trkpt lat="57.748620" lon="10.645281">
<ele>-0.960547</ele>
<time>2026-07-17T12:23:44.000Z</time>
</trkpt>
<trkpt lat="57.748627" lon="10.645296">
<ele>-0.958798</ele>
<time>2026-07-17T12:23:45.000Z</time>
</trkpt>
<trkpt lat="57.748631" lon="10.645310">
<ele>-0.957404</ele>
<time>2026-07-17T12:23:46.000Z</time>
</trkpt>
<trkpt lat="57.748634" lon="10.645327">
<ele>-0.955832</ele>
<time>2026-07-17T12:23:47.000Z</time>
</trkpt>
<trkpt lat="57.748638" lon="10.645346">
<ele>-0.954039</ele>
<time>2026-07-17T12:23:48.000Z</time>
</trkpt>
<trkpt lat="57.748642" lon="10.645366">
<ele>-0.952164</ele>
<time>2026-07-17T12:23:49.000Z</time>
</trkpt>
<trkpt lat="57.748646" lon="10.645386">
<ele>-0.950290</ele>
<time>2026-07-17T12:23:50.000Z</time>
</trkpt>
<trkpt lat="57.748650" lon="10.645400">
<ele>-0.948896</ele>
<time>2026-07-17T12:23:51.000Z</time>
</trkpt>
<trkpt lat="57.748654" lon="10.645416">
<ele>-0.947345</ele>
<time>2026-07-17T12:23:52.000Z</time>
</trkpt>
<trkpt lat="57.748661" lon="10.645432">
<ele>-0.945529</ele>
<time>2026-07-17T12:23:53.000Z</time>
</trkpt>
<trkpt lat="57.748665" lon="10.645450">
<ele>-0.943817</ele>
<time>2026-07-17T12:23:54.000Z</time>
</trkpt>
<trkpt lat="57.748669" lon="10.645468">
<ele>-0.942106</ele>
<time>2026-07-17T12:23:55.000Z</time>
</trkpt>
<trkpt lat="57.748673" lon="10.645484">
<ele>-0.940555</ele>
<time>2026-07-17T12:23:56.000Z</time>
</trkpt>
<trkpt lat="57.748676" lon="10.645499">
<ele>-0.939149</ele>
<time>2026-07-17T12:23:57.000Z</time>
</trkpt>
<trkpt lat="57.748680" lon="10.645521">
<ele>-0.937109</ele>
<time>2026-07-17T12:23:58.000Z</time>
</trkpt>
<trkpt lat="57.748684" lon="10.645543">
<ele>-0.935069</ele>
<time>2026-07-17T12:23:59.000Z</time>
</trkpt>
<trkpt lat="57.748688" lon="10.645563">
<ele>-0.933194</ele>
<time>2026-07-17T12:24:00.000Z</time>
</trkpt>
<trkpt lat="57.748692" lon="10.645585">
<ele>-0.931154</ele>
<time>2026-07-17T12:24:01.000Z</time>
</trkpt>
<trkpt lat="57.748695" lon="10.645602">
<ele>-0.929582</ele>
<time>2026-07-17T12:24:02.000Z</time>
</trkpt>
<trkpt lat="57.748703" lon="10.645625">
<ele>-0.927172</ele>
<time>2026-07-17T12:24:03.000Z</time>
</trkpt>
<trkpt lat="57.748707" lon="10.645640">
<ele>-0.925700</ele>
<time>2026-07-17T12:24:04.000Z</time>
</trkpt>
<trkpt lat="57.748711" lon="10.645655">
<ele>-0.924229</ele>
<time>2026-07-17T12:24:05.000Z</time>
</trkpt>
<trkpt lat="57.748718" lon="10.645671">
<ele>-0.922412</ele>
<time>2026-07-17T12:24:06.000Z</time>
</trkpt>
<trkpt lat="57.748718" lon="10.645687">
<ele>-0.921008</ele>
<time>2026-07-17T12:24:07.000Z</time>
</trkpt>
<trkpt lat="57.748722" lon="10.645710">
<ele>-0.918885</ele>
<time>2026-07-17T12:24:08.000Z</time>
</trkpt>
<trkpt lat="57.748726" lon="10.645729">
<ele>-0.917092</ele>
<time>2026-07-17T12:24:09.000Z</time>
</trkpt>
<trkpt lat="57.748730" lon="10.645747">
<ele>-0.915380</ele>
<time>2026-07-17T12:24:10.000Z</time>
</trkpt>
<trkpt lat="57.748733" lon="10.645763">
<ele>-0.913892</ele>
<time>2026-07-17T12:24:11.000Z</time>
</trkpt>
<trkpt lat="57.748733" lon="10.645779">
<ele>-0.912487</ele>
<time>2026-07-17T12:24:12.000Z</time>
</trkpt>
<trkpt lat="57.748737" lon="10.645799">
<ele>-0.910613</ele>
<time>2026-07-17T12:24:13.000Z</time>
</trkpt>
<trkpt lat="57.748738" lon="10.645816">
<ele>-0.909111</ele>
<time>2026-07-17T12:24:14.000Z</time>
</trkpt>
<trkpt lat="57.748741" lon="10.645832">
<ele>-0.907623</ele>
<time>2026-07-17T12:24:15.000Z</time>
</trkpt>
<trkpt lat="57.748741" lon="10.645848">
<ele>-0.906218</ele>
<time>2026-07-17T12:24:16.000Z</time>
</trkpt>
<trkpt lat="57.748745" lon="10.645866">
<ele>-0.904507</ele>
<time>2026-07-17T12:24:17.000Z</time>
</trkpt>
<trkpt lat="57.748745" lon="10.645881">
<ele>-0.903190</ele>
<time>2026-07-17T12:24:18.000Z</time>
</trkpt>
<trkpt lat="57.748749" lon="10.645896">
<ele>-0.901718</ele>
<time>2026-07-17T12:24:19.000Z</time>
</trkpt>
<trkpt lat="57.748753" lon="10.645910">
<ele>-0.900324</ele>
<time>2026-07-17T12:24:20.000Z</time>
</trkpt>
<trkpt lat="57.748760" lon="10.645923">
<ele>-0.898703</ele>
<time>2026-07-17T12:24:21.000Z</time>
</trkpt>
<trkpt lat="57.748760" lon="10.645935">
<ele>-0.897650</ele>
<time>2026-07-17T12:24:22.000Z</time>
</trkpt>
<trkpt lat="57.748764" lon="10.645946">
<ele>-0.896482</ele>
<time>2026-07-17T12:24:23.000Z</time>
</trkpt>
<trkpt lat="57.748768" lon="10.645960">
<ele>-0.895088</ele>
<time>2026-07-17T12:24:24.000Z</time>
</trkpt>
<trkpt lat="57.748768" lon="10.645977">
<ele>-0.893596</ele>
<time>2026-07-17T12:24:25.000Z</time>
</trkpt>
<trkpt lat="57.748768" lon="10.645977">
<ele>-0.893596</ele>
<time>2026-07-17T12:24:33.000Z</time>
</trkpt>
<trkpt lat="57.748770" lon="10.645987">
<ele>-0.892658</ele>
<time>2026-07-17T12:24:34.000Z</time>
</trkpt>
<trkpt lat="57.748787" lon="10.646091">
<ele>-0.883111</ele>
<time>2026-07-17T12:24:35.000Z</time>
</trkpt>
<trkpt lat="57.748791" lon="10.646110">
<ele>-0.881318</ele>
<time>2026-07-17T12:24:36.000Z</time>
</trkpt>
<trkpt lat="57.748798" lon="10.646126">
<ele>-0.879502</ele>
<time>2026-07-17T12:24:37.000Z</time>
</trkpt>
<trkpt lat="57.748799" lon="10.646146">
<ele>-0.877739</ele>
<time>2026-07-17T12:24:38.000Z</time>
</trkpt>
<trkpt lat="57.748802" lon="10.646161">
<ele>-0.876333</ele>
<time>2026-07-17T12:24:39.000Z</time>
</trkpt>
<trkpt lat="57.748806" lon="10.646178">
<ele>-0.874702</ele>
<time>2026-07-17T12:24:40.000Z</time>
</trkpt>
<trkpt lat="57.748810" lon="10.646194">
<ele>-0.873151</ele>
<time>2026-07-17T12:24:41.000Z</time>
</trkpt>
<trkpt lat="57.748814" lon="10.646209">
<ele>-0.871679</ele>
<time>2026-07-17T12:24:42.000Z</time>
</trkpt>
<trkpt lat="57.748818" lon="10.646224">
<ele>-0.870207</ele>
<time>2026-07-17T12:24:43.000Z</time>
</trkpt>
<trkpt lat="57.748822" lon="10.646238">
<ele>-0.868813</ele>
<time>2026-07-17T12:24:44.000Z</time>
</trkpt>
<trkpt lat="57.748825" lon="10.646255">
<ele>-0.867242</ele>
<time>2026-07-17T12:24:45.000Z</time>
</trkpt>
<trkpt lat="57.748829" lon="10.646268">
<ele>-0.865924</ele>
<time>2026-07-17T12:24:46.000Z</time>
</trkpt>
<trkpt lat="57.748833" lon="10.646282">
<ele>-0.864531</ele>
<time>2026-07-17T12:24:47.000Z</time>
</trkpt>
<trkpt lat="57.748837" lon="10.646295">
<ele>-0.863213</ele>
<time>2026-07-17T12:24:48.000Z</time>
</trkpt>
<trkpt lat="57.748841" lon="10.646309">
<ele>-0.861819</ele>
<time>2026-07-17T12:24:49.000Z</time>
</trkpt>
<trkpt lat="57.748844" lon="10.646327">
<ele>-0.860164</ele>
<time>2026-07-17T12:24:50.000Z</time>
</trkpt>
<trkpt lat="57.748844" lon="10.646345">
<ele>-0.858584</ele>
<time>2026-07-17T12:24:51.000Z</time>
</trkpt>
<trkpt lat="57.748844" lon="10.646362">
<ele>-0.857092</ele>
<time>2026-07-17T12:24:52.000Z</time>
</trkpt>
<trkpt lat="57.748848" lon="10.646376">
<ele>-0.855698</ele>
<time>2026-07-17T12:24:53.000Z</time>
</trkpt>
<trkpt lat="57.748852" lon="10.646391">
<ele>-0.854226</ele>
<time>2026-07-17T12:24:54.000Z</time>
</trkpt>
<trkpt lat="57.748852" lon="10.646406">
<ele>-0.852910</ele>
<time>2026-07-17T12:24:55.000Z</time>
</trkpt>
<trkpt lat="57.748856" lon="10.646421">
<ele>-0.851438</ele>
<time>2026-07-17T12:24:56.000Z</time>
</trkpt>
<trkpt lat="57.748860" lon="10.646436">
<ele>-0.849966</ele>
<time>2026-07-17T12:24:57.000Z</time>
</trkpt>
<trkpt lat="57.748863" lon="10.646453">
<ele>-0.848394</ele>
<time>2026-07-17T12:24:58.000Z</time>
</trkpt>
<trkpt lat="57.748867" lon="10.646468">
<ele>-0.846922</ele>
<time>2026-07-17T12:24:59.000Z</time>
</trkpt>
<trkpt lat="57.748871" lon="10.646487">
<ele>-0.845129</ele>
<time>2026-07-17T12:25:00.000Z</time>
</trkpt>
<trkpt lat="57.748879" lon="10.646500">
<ele>-0.843388</ele>
<time>2026-07-17T12:25:01.000Z</time>
</trkpt>
<trkpt lat="57.748883" lon="10.646517">
<ele>-0.841757</ele>
<time>2026-07-17T12:25:02.000Z</time>
</trkpt>
<trkpt lat="57.748886" lon="10.646534">
<ele>-0.840187</ele>
<time>2026-07-17T12:25:03.000Z</time>
</trkpt>
<trkpt lat="57.748886" lon="10.646553">
<ele>-0.841047</ele>
<time>2026-07-17T12:25:04.000Z</time>
</trkpt>
<trkpt lat="57.748890" lon="10.646574">
<ele>-0.842055</ele>
<time>2026-07-17T12:25:05.000Z</time>
</trkpt>
<trkpt lat="57.748891" lon="10.646591">
<ele>-0.842829</ele>
<time>2026-07-17T12:25:06.000Z</time>
</trkpt>
<trkpt lat="57.748898" lon="10.646606">
<ele>-0.843731</ele>
<time>2026-07-17T12:25:07.000Z</time>
</trkpt>
<trkpt lat="57.748901" lon="10.646625">
<ele>-0.844627</ele>
<time>2026-07-17T12:25:08.000Z</time>
</trkpt>
<trkpt lat="57.748905" lon="10.646645">
<ele>-0.845594</ele>
<time>2026-07-17T12:25:09.000Z</time>
</trkpt>
<trkpt lat="57.748910" lon="10.646665">
<ele>-0.846593</ele>
<time>2026-07-17T12:25:10.000Z</time>
</trkpt>
<trkpt lat="57.748917" lon="10.646683">
<ele>-0.847601</ele>
<time>2026-07-17T12:25:11.000Z</time>
</trkpt>
<trkpt lat="57.748917" lon="10.646704">
<ele>-0.848551</ele>
<time>2026-07-17T12:25:12.000Z</time>
</trkpt>
<trkpt lat="57.748920" lon="10.646723">
<ele>-0.849447</ele>
<time>2026-07-17T12:25:13.000Z</time>
</trkpt>
<trkpt lat="57.748920" lon="10.646743">
<ele>-0.850352</ele>
<time>2026-07-17T12:25:14.000Z</time>
</trkpt>
<trkpt lat="57.748921" lon="10.646764">
<ele>-0.851306</ele>
<time>2026-07-17T12:25:15.000Z</time>
</trkpt>
<trkpt lat="57.748925" lon="10.646782">
<ele>-0.852188</ele>
<time>2026-07-17T12:25:16.000Z</time>
</trkpt>
<trkpt lat="57.748928" lon="10.646800">
<ele>-0.853042</ele>
<time>2026-07-17T12:25:17.000Z</time>
</trkpt>
<trkpt lat="57.748932" lon="10.646817">
<ele>-0.853882</ele>
<time>2026-07-17T12:25:18.000Z</time>
</trkpt>
<trkpt lat="57.748932" lon="10.646836">
<ele>-0.854742</ele>
<time>2026-07-17T12:25:19.000Z</time>
</trkpt>
<trkpt lat="57.748932" lon="10.646857">
<ele>-0.855692</ele>
<time>2026-07-17T12:25:20.000Z</time>
</trkpt>
<trkpt lat="57.748932" lon="10.646875">
<ele>-0.856506</ele>
<time>2026-07-17T12:25:21.000Z</time>
</trkpt>
<trkpt lat="57.748936" lon="10.646891">
<ele>-0.857306</ele>
<time>2026-07-17T12:25:22.000Z</time>
</trkpt>
<trkpt lat="57.748936" lon="10.646906">
<ele>-0.857985</ele>
<time>2026-07-17T12:25:23.000Z</time>
</trkpt>
<trkpt lat="57.748936" lon="10.646924">
<ele>-0.858799</ele>
<time>2026-07-17T12:25:24.000Z</time>
</trkpt>
<trkpt lat="57.748940" lon="10.646944">
<ele>-0.859765</ele>
<time>2026-07-17T12:25:25.000Z</time>
</trkpt>
<trkpt lat="57.748940" lon="10.646958">
<ele>-0.860399</ele>
<time>2026-07-17T12:25:26.000Z</time>
</trkpt>
<trkpt lat="57.748940" lon="10.646973">
<ele>-0.861077</ele>
<time>2026-07-17T12:25:27.000Z</time>
</trkpt>
<trkpt lat="57.748943" lon="10.646991">
<ele>-0.861931</ele>
<time>2026-07-17T12:25:28.000Z</time>
</trkpt>
<trkpt lat="57.748943" lon="10.647011">
<ele>-0.862835</ele>
<time>2026-07-17T12:25:29.000Z</time>
</trkpt>
<trkpt lat="57.748944" lon="10.647030">
<ele>-0.863699</ele>
<time>2026-07-17T12:25:30.000Z</time>
</trkpt>
<trkpt lat="57.748947" lon="10.647049">
<ele>-0.864596</ele>
<time>2026-07-17T12:25:31.000Z</time>
</trkpt>
<trkpt lat="57.748947" lon="10.647065">
<ele>-0.865320</ele>
<time>2026-07-17T12:25:32.000Z</time>
</trkpt>
<trkpt lat="57.748951" lon="10.647083">
<ele>-0.866202</ele>
<time>2026-07-17T12:25:33.000Z</time>
</trkpt>
<trkpt lat="57.748951" lon="10.647102">
<ele>-0.867062</ele>
<time>2026-07-17T12:25:34.000Z</time>
</trkpt>
<trkpt lat="57.748951" lon="10.647122">
<ele>-0.867966</ele>
<time>2026-07-17T12:25:35.000Z</time>
</trkpt>
<trkpt lat="57.748947" lon="10.647141">
<ele>-0.868891</ele>
<time>2026-07-17T12:25:36.000Z</time>
</trkpt>
<trkpt lat="57.748947" lon="10.647160">
<ele>-0.869750</ele>
<time>2026-07-17T12:25:37.000Z</time>
</trkpt>
<trkpt lat="57.748947" lon="10.647176">
<ele>-0.870474</ele>
<time>2026-07-17T12:25:38.000Z</time>
</trkpt>
<trkpt lat="57.748947" lon="10.647193">
<ele>-0.871243</ele>
<time>2026-07-17T12:25:39.000Z</time>
</trkpt>
<trkpt lat="57.748947" lon="10.647212">
<ele>-0.872103</ele>
<time>2026-07-17T12:25:40.000Z</time>
</trkpt>
<trkpt lat="57.748947" lon="10.647230">
<ele>-0.872917</ele>
<time>2026-07-17T12:25:41.000Z</time>
</trkpt>
<trkpt lat="57.748951" lon="10.647248">
<ele>-0.873800</ele>
<time>2026-07-17T12:25:42.000Z</time>
</trkpt>
<trkpt lat="57.748947" lon="10.647266">
<ele>-0.874682</ele>
<time>2026-07-17T12:25:43.000Z</time>
</trkpt>
<trkpt lat="57.748947" lon="10.647285">
<ele>-0.875541</ele>
<time>2026-07-17T12:25:44.000Z</time>
</trkpt>
<trkpt lat="57.748951" lon="10.647303">
<ele>-0.876424</ele>
<time>2026-07-17T12:25:45.000Z</time>
</trkpt>
<trkpt lat="57.748951" lon="10.647322">
<ele>-0.877283</ele>
<time>2026-07-17T12:25:46.000Z</time>
</trkpt>
<trkpt lat="57.748951" lon="10.647345">
<ele>-0.878324</ele>
<time>2026-07-17T12:25:47.000Z</time>
</trkpt>
<trkpt lat="57.748955" lon="10.647365">
<ele>-0.879290</ele>
<time>2026-07-17T12:25:48.000Z</time>
</trkpt>
<trkpt lat="57.748955" lon="10.647385">
<ele>-0.880195</ele>
<time>2026-07-17T12:25:49.000Z</time>
</trkpt>
<trkpt lat="57.748955" lon="10.647404">
<ele>-0.881055</ele>
<time>2026-07-17T12:25:50.000Z</time>
</trkpt>
<trkpt lat="57.748959" lon="10.647424">
<ele>-0.882021</ele>
<time>2026-07-17T12:25:51.000Z</time>
</trkpt>
<trkpt lat="57.748958" lon="10.647445">
<ele>-0.882975</ele>
<time>2026-07-17T12:25:52.000Z</time>
</trkpt>
<trkpt lat="57.748955" lon="10.647465">
<ele>-0.883915</ele>
<time>2026-07-17T12:25:53.000Z</time>
</trkpt>
<trkpt lat="57.748955" lon="10.647484">
<ele>-0.884775</ele>
<time>2026-07-17T12:25:54.000Z</time>
</trkpt>
<trkpt lat="57.748955" lon="10.647505">
<ele>-0.885725</ele>
<time>2026-07-17T12:25:55.000Z</time>
</trkpt>
<trkpt lat="57.748955" lon="10.647522">
<ele>-0.886494</ele>
<time>2026-07-17T12:25:56.000Z</time>
</trkpt>
<trkpt lat="57.748954" lon="10.647542">
<ele>-0.887403</ele>
<time>2026-07-17T12:25:57.000Z</time>
</trkpt>
<trkpt lat="57.748951" lon="10.647561">
<ele>-0.888299</ele>
<time>2026-07-17T12:25:58.000Z</time>
</trkpt>
<trkpt lat="57.748951" lon="10.647578">
<ele>-0.889069</ele>
<time>2026-07-17T12:25:59.000Z</time>
</trkpt>
<trkpt lat="57.748951" lon="10.647598">
<ele>-0.889973</ele>
<time>2026-07-17T12:26:00.000Z</time>
</trkpt>
<trkpt lat="57.748947" lon="10.647617">
<ele>-0.890898</ele>
<time>2026-07-17T12:26:01.000Z</time>
</trkpt>
<trkpt lat="57.748943" lon="10.647635">
<ele>-0.891780</ele>
<time>2026-07-17T12:26:02.000Z</time>
</trkpt>
<trkpt lat="57.748943" lon="10.647653">
<ele>-0.892594</ele>
<time>2026-07-17T12:26:03.000Z</time>
</trkpt>
<trkpt lat="57.748943" lon="10.647671">
<ele>-0.893409</ele>
<time>2026-07-17T12:26:04.000Z</time>
</trkpt>
<trkpt lat="57.748940" lon="10.647690">
<ele>-0.894305</ele>
<time>2026-07-17T12:26:05.000Z</time>
</trkpt>
<trkpt lat="57.748939" lon="10.647708">
<ele>-0.895124</ele>
<time>2026-07-17T12:26:06.000Z</time>
</trkpt>
<trkpt lat="57.748936" lon="10.647724">
<ele>-0.895891</ele>
<time>2026-07-17T12:26:07.000Z</time>
</trkpt>
<trkpt lat="57.748935" lon="10.647740">
<ele>-0.896620</ele>
<time>2026-07-17T12:26:08.000Z</time>
</trkpt>
<trkpt lat="57.748932" lon="10.647757">
<ele>-0.897430</ele>
<time>2026-07-17T12:26:09.000Z</time>
</trkpt>
<trkpt lat="57.748932" lon="10.647757">
<ele>-0.897430</ele>
<time>2026-07-17T12:26:10.000Z</time>
</trkpt>
<trkpt lat="57.748932" lon="10.647757">
<ele>-0.897430</ele>
<time>2026-07-17T12:26:13.000Z</time>
</trkpt>
<trkpt lat="57.748920" lon="10.647914">
<ele>-0.904606</ele>
<time>2026-07-17T12:26:19.000Z</time>
</trkpt>
<trkpt lat="57.748920" lon="10.647934">
<ele>-0.905511</ele>
<time>2026-07-17T12:26:20.000Z</time>
</trkpt>
<trkpt lat="57.748917" lon="10.647955">
<ele>-0.906495</ele>
<time>2026-07-17T12:26:21.000Z</time>
</trkpt>
<trkpt lat="57.748917" lon="10.647975">
<ele>-0.907400</ele>
<time>2026-07-17T12:26:22.000Z</time>
</trkpt>
<trkpt lat="57.748917" lon="10.647993">
<ele>-0.908214</ele>
<time>2026-07-17T12:26:23.000Z</time>
</trkpt>
<trkpt lat="57.748916" lon="10.648015">
<ele>-0.909213</ele>
<time>2026-07-17T12:26:24.000Z</time>
</trkpt>
<trkpt lat="57.748913" lon="10.648034">
<ele>-0.910109</ele>
<time>2026-07-17T12:26:25.000Z</time>
</trkpt>
<trkpt lat="57.748912" lon="10.648055">
<ele>-0.911063</ele>
<time>2026-07-17T12:26:26.000Z</time>
</trkpt>
<trkpt lat="57.748909" lon="10.648073">
<ele>-0.911917</ele>
<time>2026-07-17T12:26:27.000Z</time>
</trkpt>
<trkpt lat="57.748905" lon="10.648092">
<ele>-0.912841</ele>
<time>2026-07-17T12:26:28.000Z</time>
</trkpt>
<trkpt lat="57.748901" lon="10.648112">
<ele>-0.913807</ele>
<time>2026-07-17T12:26:29.000Z</time>
</trkpt>
<trkpt lat="57.748897" lon="10.648127">
<ele>-0.914566</ele>
<time>2026-07-17T12:26:30.000Z</time>
</trkpt>
<trkpt lat="57.748894" lon="10.648141">
<ele>-0.915248</ele>
<time>2026-07-17T12:26:31.000Z</time>
</trkpt>
<trkpt lat="57.748893" lon="10.648156">
<ele>-0.915932</ele>
<time>2026-07-17T12:26:32.000Z</time>
</trkpt>
<trkpt lat="57.748890" lon="10.648170">
<ele>-0.916615</ele>
<time>2026-07-17T12:26:33.000Z</time>
</trkpt>
<trkpt lat="57.748889" lon="10.648177">
<ele>-0.916943</ele>
<time>2026-07-17T12:26:37.000Z</time>
</trkpt>
<trkpt lat="57.748878" lon="10.648257">
<ele>-0.920681</ele>
<time>2026-07-17T12:26:38.000Z</time>
</trkpt>
<trkpt lat="57.748874" lon="10.648277">
<ele>-0.921647</ele>
<time>2026-07-17T12:26:39.000Z</time>
</trkpt>
<trkpt lat="57.748871" lon="10.648297">
<ele>-0.922587</ele>
<time>2026-07-17T12:26:40.000Z</time>
</trkpt>
<trkpt lat="57.748867" lon="10.648315">
<ele>-0.923469</ele>
<time>2026-07-17T12:26:41.000Z</time>
</trkpt>
<trkpt lat="57.748867" lon="10.648337">
<ele>-0.924464</ele>
<time>2026-07-17T12:26:42.000Z</time>
</trkpt>
<trkpt lat="57.748867" lon="10.648355">
<ele>-0.925279</ele>
<time>2026-07-17T12:26:43.000Z</time>
</trkpt>
<trkpt lat="57.748863" lon="10.648373">
<ele>-0.926161</ele>
<time>2026-07-17T12:26:44.000Z</time>
</trkpt>
<trkpt lat="57.748863" lon="10.648391">
<ele>-0.926975</ele>
<time>2026-07-17T12:26:45.000Z</time>
</trkpt>
<trkpt lat="57.748863" lon="10.648412">
<ele>-0.927926</ele>
<time>2026-07-17T12:26:46.000Z</time>
</trkpt>
<trkpt lat="57.748863" lon="10.648434">
<ele>-0.928921</ele>
<time>2026-07-17T12:26:47.000Z</time>
</trkpt>
<trkpt lat="57.748863" lon="10.648455">
<ele>-0.929871</ele>
<time>2026-07-17T12:26:48.000Z</time>
</trkpt>
<trkpt lat="57.748863" lon="10.648474">
<ele>-0.930731</ele>
<time>2026-07-17T12:26:49.000Z</time>
</trkpt>
<trkpt lat="57.748859" lon="10.648496">
<ele>-0.931782</ele>
<time>2026-07-17T12:26:50.000Z</time>
</trkpt>
<trkpt lat="57.748856" lon="10.648514">
<ele>-0.932636</ele>
<time>2026-07-17T12:26:51.000Z</time>
</trkpt>
<trkpt lat="57.748856" lon="10.648534">
<ele>-0.933540</ele>
<time>2026-07-17T12:26:52.000Z</time>
</trkpt>
<trkpt lat="57.748856" lon="10.648553">
<ele>-0.934400</ele>
<time>2026-07-17T12:26:53.000Z</time>
</trkpt>
<trkpt lat="57.748856" lon="10.648572">
<ele>-0.935260</ele>
<time>2026-07-17T12:26:54.000Z</time>
</trkpt>
<trkpt lat="57.748852" lon="10.648592">
<ele>-0.936226</ele>
<time>2026-07-17T12:26:55.000Z</time>
</trkpt>
<trkpt lat="57.748852" lon="10.648612">
<ele>-0.937131</ele>
<time>2026-07-17T12:26:56.000Z</time>
</trkpt>
<trkpt lat="57.748852" lon="10.648632">
<ele>-0.938036</ele>
<time>2026-07-17T12:26:57.000Z</time>
</trkpt>
<trkpt lat="57.748852" lon="10.648650">
<ele>-0.938850</ele>
<time>2026-07-17T12:26:58.000Z</time>
</trkpt>
<trkpt lat="57.748852" lon="10.648668">
<ele>-0.939665</ele>
<time>2026-07-17T12:26:59.000Z</time>
</trkpt>
<trkpt lat="57.748848" lon="10.648688">
<ele>-0.940631</ele>
<time>2026-07-17T12:27:00.000Z</time>
</trkpt>
<trkpt lat="57.748848" lon="10.648708">
<ele>-0.941536</ele>
<time>2026-07-17T12:27:01.000Z</time>
</trkpt>
<trkpt lat="57.748848" lon="10.648728">
<ele>-0.942441</ele>
<time>2026-07-17T12:27:02.000Z</time>
</trkpt>
<trkpt lat="57.748852" lon="10.648744">
<ele>-0.943240</ele>
<time>2026-07-17T12:27:03.000Z</time>
</trkpt>
<trkpt lat="57.748852" lon="10.648761">
<ele>-0.944010</ele>
<time>2026-07-17T12:27:04.000Z</time>
</trkpt>
<trkpt lat="57.748852" lon="10.648779">
<ele>-0.944824</ele>
<time>2026-07-17T12:27:05.000Z</time>
</trkpt>
<trkpt lat="57.748848" lon="10.648801">
<ele>-0.945875</ele>
<time>2026-07-17T12:27:06.000Z</time>
</trkpt>
<trkpt lat="57.748848" lon="10.648819">
<ele>-0.946690</ele>
<time>2026-07-17T12:27:07.000Z</time>
</trkpt>
<trkpt lat="57.748848" lon="10.648838">
<ele>-0.947550</ele>
<time>2026-07-17T12:27:08.000Z</time>
</trkpt>
<trkpt lat="57.748848" lon="10.648859">
<ele>-0.948500</ele>
<time>2026-07-17T12:27:09.000Z</time>
</trkpt>
<trkpt lat="57.748844" lon="10.648877">
<ele>-0.949382</ele>
<time>2026-07-17T12:27:10.000Z</time>
</trkpt>
<trkpt lat="57.748844" lon="10.648895">
<ele>-0.950196</ele>
<time>2026-07-17T12:27:11.000Z</time>
</trkpt>
<trkpt lat="57.748844" lon="10.648913">
<ele>-0.951011</ele>
<time>2026-07-17T12:27:12.000Z</time>
</trkpt>
<trkpt lat="57.748844" lon="10.648936">
<ele>-0.952051</ele>
<time>2026-07-17T12:27:13.000Z</time>
</trkpt>
<trkpt lat="57.748841" lon="10.648953">
<ele>-0.952861</ele>
<time>2026-07-17T12:27:14.000Z</time>
</trkpt>
<trkpt lat="57.748844" lon="10.648968">
<ele>-0.953586</ele>
<time>2026-07-17T12:27:15.000Z</time>
</trkpt>
<trkpt lat="57.748848" lon="10.648981">
<ele>-0.954265</ele>
<time>2026-07-17T12:27:16.000Z</time>
</trkpt>
<trkpt lat="57.748852" lon="10.648996">
<ele>-0.955024</ele>
<time>2026-07-17T12:27:17.000Z</time>
</trkpt>
<trkpt lat="57.748852" lon="10.649010">
<ele>-0.955657</ele>
<time>2026-07-17T12:27:18.000Z</time>
</trkpt>
<trkpt lat="57.748852" lon="10.649033">
<ele>-0.956698</ele>
<time>2026-07-17T12:27:19.000Z</time>
</trkpt>
<trkpt lat="57.748848" lon="10.649057">
<ele>-0.957836</ele>
<time>2026-07-17T12:27:20.000Z</time>
</trkpt>
<trkpt lat="57.748844" lon="10.649080">
<ele>-0.958930</ele>
<time>2026-07-17T12:27:21.000Z</time>
</trkpt>
<trkpt lat="57.748844" lon="10.649102">
<ele>-0.959925</ele>
<time>2026-07-17T12:27:22.000Z</time>
</trkpt>
<trkpt lat="57.748840" lon="10.649119">
<ele>-0.960766</ele>
<time>2026-07-17T12:27:23.000Z</time>
</trkpt>
<trkpt lat="57.748840" lon="10.649135">
<ele>-0.961490</ele>
<time>2026-07-17T12:27:24.000Z</time>
</trkpt>
<trkpt lat="57.748837" lon="10.649153">
<ele>-0.962343</ele>
<time>2026-07-17T12:27:25.000Z</time>
</trkpt>
<trkpt lat="57.748837" lon="10.649173">
<ele>-0.963248</ele>
<time>2026-07-17T12:27:26.000Z</time>
</trkpt>
<trkpt lat="57.748836" lon="10.649195">
<ele>-0.964247</ele>
<time>2026-07-17T12:27:27.000Z</time>
</trkpt>
<trkpt lat="57.748833" lon="10.649212">
<ele>-0.965057</ele>
<time>2026-07-17T12:27:28.000Z</time>
</trkpt>
<trkpt lat="57.748832" lon="10.649233">
<ele>-0.966011</ele>
<time>2026-07-17T12:27:29.000Z</time>
</trkpt>
<trkpt lat="57.748829" lon="10.649251">
<ele>-0.966864</ele>
<time>2026-07-17T12:27:30.000Z</time>
</trkpt>
<trkpt lat="57.748825" lon="10.649271">
<ele>-0.967831</ele>
<time>2026-07-17T12:27:31.000Z</time>
</trkpt>
<trkpt lat="57.748821" lon="10.649282">
<ele>-0.968433</ele>
<time>2026-07-17T12:27:32.000Z</time>
</trkpt>
<trkpt lat="57.748817" lon="10.649291">
<ele>-0.968963</ele>
<time>2026-07-17T12:27:33.000Z</time>
</trkpt>
<trkpt lat="57.748814" lon="10.649303">
<ele>-0.969562</ele>
<time>2026-07-17T12:27:34.000Z</time>
</trkpt>
<trkpt lat="57.748813" lon="10.649307">
<ele>-0.969762</ele>
<time>2026-07-17T12:27:35.000Z</time>
</trkpt>
<trkpt lat="57.748810" lon="10.649341">
<ele>-0.971322</ele>
<time>2026-07-17T12:27:36.000Z</time>
</trkpt>
<trkpt lat="57.748806" lon="10.649363">
<ele>-0.972373</ele>
<time>2026-07-17T12:27:37.000Z</time>
</trkpt>
<trkpt lat="57.748802" lon="10.649385">
<ele>-0.973425</ele>
<time>2026-07-17T12:27:38.000Z</time>
</trkpt>
<trkpt lat="57.748802" lon="10.649406">
<ele>-0.974375</ele>
<time>2026-07-17T12:27:39.000Z</time>
</trkpt>
<trkpt lat="57.748802" lon="10.649426">
<ele>-0.975280</ele>
<time>2026-07-17T12:27:40.000Z</time>
</trkpt>
<trkpt lat="57.748802" lon="10.649446">
<ele>-0.976185</ele>
<time>2026-07-17T12:27:41.000Z</time>
</trkpt>
<trkpt lat="57.748806" lon="10.649466">
<ele>-0.977151</ele>
<time>2026-07-17T12:27:42.000Z</time>
</trkpt>
<trkpt lat="57.748806" lon="10.649486">
<ele>-0.978056</ele>
<time>2026-07-17T12:27:43.000Z</time>
</trkpt>
<trkpt lat="57.748802" lon="10.649508">
<ele>-0.979108</ele>
<time>2026-07-17T12:27:44.000Z</time>
</trkpt>
<trkpt lat="57.748802" lon="10.649527">
<ele>-0.979967</ele>
<time>2026-07-17T12:27:45.000Z</time>
</trkpt>
<trkpt lat="57.748802" lon="10.649547">
<ele>-0.980872</ele>
<time>2026-07-17T12:27:46.000Z</time>
</trkpt>
<trkpt lat="57.748802" lon="10.649565">
<ele>-0.981686</ele>
<time>2026-07-17T12:27:47.000Z</time>
</trkpt>
<trkpt lat="57.748802" lon="10.649588">
<ele>-0.982727</ele>
<time>2026-07-17T12:27:48.000Z</time>
</trkpt>
<trkpt lat="57.748802" lon="10.649611">
<ele>-0.983768</ele>
<time>2026-07-17T12:27:49.000Z</time>
</trkpt>
<trkpt lat="57.748798" lon="10.649630">
<ele>-0.984692</ele>
<time>2026-07-17T12:27:50.000Z</time>
</trkpt>
<trkpt lat="57.748798" lon="10.649651">
<ele>-0.985642</ele>
<time>2026-07-17T12:27:51.000Z</time>
</trkpt>
<trkpt lat="57.748794" lon="10.649675">
<ele>-0.986780</ele>
<time>2026-07-17T12:27:52.000Z</time>
</trkpt>
<trkpt lat="57.748791" lon="10.649694">
<ele>-0.987676</ele>
<time>2026-07-17T12:27:53.000Z</time>
</trkpt>
<trkpt lat="57.748790" lon="10.649718">
<ele>-0.988765</ele>
<time>2026-07-17T12:27:54.000Z</time>
</trkpt>
<trkpt lat="57.748787" lon="10.649737">
<ele>-0.989662</ele>
<time>2026-07-17T12:27:55.000Z</time>
</trkpt>
<trkpt lat="57.748787" lon="10.649755">
<ele>-0.990476</ele>
<time>2026-07-17T12:27:56.000Z</time>
</trkpt>
<trkpt lat="57.748783" lon="10.649773">
<ele>-0.991358</ele>
<time>2026-07-17T12:27:57.000Z</time>
</trkpt>
<trkpt lat="57.748783" lon="10.649793">
<ele>-0.992263</ele>
<time>2026-07-17T12:27:58.000Z</time>
</trkpt>
<trkpt lat="57.748783" lon="10.649813">
<ele>-0.994237</ele>
<time>2026-07-17T12:27:59.000Z</time>
</trkpt>
<trkpt lat="57.748783" lon="10.649833">
<ele>-0.997153</ele>
<time>2026-07-17T12:28:00.000Z</time>
</trkpt>
<trkpt lat="57.748783" lon="10.649853">
<ele>-1.000070</ele>
<time>2026-07-17T12:28:01.000Z</time>
</trkpt>
<trkpt lat="57.748783" lon="10.649871">
<ele>-1.002695</ele>
<time>2026-07-17T12:28:02.000Z</time>
</trkpt>
<trkpt lat="57.748783" lon="10.649895">
<ele>-1.006195</ele>
<time>2026-07-17T12:28:03.000Z</time>
</trkpt>
<trkpt lat="57.748783" lon="10.649915">
<ele>-1.009112</ele>
<time>2026-07-17T12:28:04.000Z</time>
</trkpt>
<trkpt lat="57.748787" lon="10.649934">
<ele>-1.012091</ele>
<time>2026-07-17T12:28:05.000Z</time>
</trkpt>
<trkpt lat="57.748787" lon="10.649956">
<ele>-1.015299</ele>
<time>2026-07-17T12:28:06.000Z</time>
</trkpt>
<trkpt lat="57.748787" lon="10.649978">
<ele>-1.018508</ele>
<time>2026-07-17T12:28:07.000Z</time>
</trkpt>
<trkpt lat="57.748787" lon="10.649998">
<ele>-1.021424</ele>
<time>2026-07-17T12:28:08.000Z</time>
</trkpt>
<trkpt lat="57.748787" lon="10.650019">
<ele>-1.024487</ele>
<time>2026-07-17T12:28:09.000Z</time>
</trkpt>
<trkpt lat="57.748787" lon="10.650039">
<ele>-1.027404</ele>
<time>2026-07-17T12:28:10.000Z</time>
</trkpt>
<trkpt lat="57.748787" lon="10.650060">
<ele>-1.030466</ele>
<time>2026-07-17T12:28:11.000Z</time>
</trkpt>
<trkpt lat="57.748783" lon="10.650080">
<ele>-1.033581</ele>
<time>2026-07-17T12:28:12.000Z</time>
</trkpt>
<trkpt lat="57.748783" lon="10.650101">
<ele>-1.036644</ele>
<time>2026-07-17T12:28:13.000Z</time>
</trkpt>
<trkpt lat="57.748779" lon="10.650120">
<ele>-1.039622</ele>
<time>2026-07-17T12:28:14.000Z</time>
</trkpt>
<trkpt lat="57.748775" lon="10.650138">
<ele>-1.042466</ele>
<time>2026-07-17T12:28:15.000Z</time>
</trkpt>
<trkpt lat="57.748771" lon="10.650159">
<ele>-1.045718</ele>
<time>2026-07-17T12:28:16.000Z</time>
</trkpt>
<trkpt lat="57.748768" lon="10.650182">
<ele>-1.049171</ele>
<time>2026-07-17T12:28:17.000Z</time>
</trkpt>
<trkpt lat="57.748768" lon="10.650203">
<ele>-1.052233</ele>
<time>2026-07-17T12:28:18.000Z</time>
</trkpt>
<trkpt lat="57.748764" lon="10.650224">
<ele>-1.055485</ele>
<time>2026-07-17T12:28:19.000Z</time>
</trkpt>
<trkpt lat="57.748760" lon="10.650242">
<ele>-1.058329</ele>
<time>2026-07-17T12:28:20.000Z</time>
</trkpt>
<trkpt lat="57.748760" lon="10.650263">
<ele>-1.061391</ele>
<time>2026-07-17T12:28:21.000Z</time>
</trkpt>
<trkpt lat="57.748756" lon="10.650283">
<ele>-1.064506</ele>
<time>2026-07-17T12:28:22.000Z</time>
</trkpt>
<trkpt lat="57.748749" lon="10.650302">
<ele>-1.067873</ele>
<time>2026-07-17T12:28:23.000Z</time>
</trkpt>
<trkpt lat="57.748745" lon="10.650319">
<ele>-1.070583</ele>
<time>2026-07-17T12:28:24.000Z</time>
</trkpt>
<trkpt lat="57.748745" lon="10.650336">
<ele>-1.073062</ele>
<time>2026-07-17T12:28:25.000Z</time>
</trkpt>
<trkpt lat="57.748745" lon="10.650356">
<ele>-1.075979</ele>
<time>2026-07-17T12:28:26.000Z</time>
</trkpt>
<trkpt lat="57.748745" lon="10.650375">
<ele>-1.078750</ele>
<time>2026-07-17T12:28:27.000Z</time>
</trkpt>
<trkpt lat="57.748741" lon="10.650398">
<ele>-1.082277</ele>
<time>2026-07-17T12:28:28.000Z</time>
</trkpt>
<trkpt lat="57.748737" lon="10.650419">
<ele>-1.085529</ele>
<time>2026-07-17T12:28:29.000Z</time>
</trkpt>
<trkpt lat="57.748733" lon="10.650439">
<ele>-1.088644</ele>
<time>2026-07-17T12:28:30.000Z</time>
</trkpt>
<trkpt lat="57.748733" lon="10.650459">
<ele>-1.091561</ele>
<time>2026-07-17T12:28:31.000Z</time>
</trkpt>
<trkpt lat="57.748726" lon="10.650477">
<ele>-1.094809</ele>
<time>2026-07-17T12:28:32.000Z</time>
</trkpt>
<trkpt lat="57.748722" lon="10.650497">
<ele>-1.097924</ele>
<time>2026-07-17T12:28:33.000Z</time>
</trkpt>
<trkpt lat="57.748722" lon="10.650515">
<ele>-1.100549</ele>
<time>2026-07-17T12:28:34.000Z</time>
</trkpt>
<trkpt lat="57.748722" lon="10.650531">
<ele>-1.102882</ele>
<time>2026-07-17T12:28:35.000Z</time>
</trkpt>
<trkpt lat="57.748722" lon="10.650551">
<ele>-1.105799</ele>
<time>2026-07-17T12:28:36.000Z</time>
</trkpt>
<trkpt lat="57.748718" lon="10.650572">
<ele>-1.109051</ele>
<time>2026-07-17T12:28:37.000Z</time>
</trkpt>
<trkpt lat="57.748718" lon="10.650595">
<ele>-1.112405</ele>
<time>2026-07-17T12:28:38.000Z</time>
</trkpt>
<trkpt lat="57.748718" lon="10.650618">
<ele>-1.115759</ele>
<time>2026-07-17T12:28:39.000Z</time>
</trkpt>
<trkpt lat="57.748714" lon="10.650636">
<ele>-1.118603</ele>
<time>2026-07-17T12:28:40.000Z</time>
</trkpt>
<trkpt lat="57.748710" lon="10.650656">
<ele>-1.121718</ele>
<time>2026-07-17T12:28:41.000Z</time>
</trkpt>
<trkpt lat="57.748707" lon="10.650678">
<ele>-1.125029</ele>
<time>2026-07-17T12:28:42.000Z</time>
</trkpt>
<trkpt lat="57.748707" lon="10.650701">
<ele>-1.128383</ele>
<time>2026-07-17T12:28:43.000Z</time>
</trkpt>
<trkpt lat="57.748707" lon="10.650721">
<ele>-1.131300</ele>
<time>2026-07-17T12:28:44.000Z</time>
</trkpt>
<trkpt lat="57.748707" lon="10.650740">
<ele>-1.134071</ele>
<time>2026-07-17T12:28:45.000Z</time>
</trkpt>
<trkpt lat="57.748707" lon="10.650758">
<ele>-1.136696</ele>
<time>2026-07-17T12:28:46.000Z</time>
</trkpt>
<trkpt lat="57.748703" lon="10.650781">
<ele>-1.140224</ele>
<time>2026-07-17T12:28:47.000Z</time>
</trkpt>
<trkpt lat="57.748699" lon="10.650800">
<ele>-1.143203</ele>
<time>2026-07-17T12:28:48.000Z</time>
</trkpt>
<trkpt lat="57.748695" lon="10.650819">
<ele>-1.146182</ele>
<time>2026-07-17T12:28:49.000Z</time>
</trkpt>
<trkpt lat="57.748692" lon="10.650838">
<ele>-1.149071</ele>
<time>2026-07-17T12:28:50.000Z</time>
</trkpt>
<trkpt lat="57.748691" lon="10.650860">
<ele>-1.152291</ele>
<time>2026-07-17T12:28:51.000Z</time>
</trkpt>
<trkpt lat="57.748687" lon="10.650880">
<ele>-1.155406</ele>
<time>2026-07-17T12:28:52.000Z</time>
</trkpt>
<trkpt lat="57.748684" lon="10.650901">
<ele>-1.158576</ele>
<time>2026-07-17T12:28:53.000Z</time>
</trkpt>
<trkpt lat="57.748684" lon="10.650919">
<ele>-1.161202</ele>
<time>2026-07-17T12:28:54.000Z</time>
</trkpt>
<trkpt lat="57.748680" lon="10.650940">
<ele>-1.164453</ele>
<time>2026-07-17T12:28:55.000Z</time>
</trkpt>
<trkpt lat="57.748680" lon="10.650959">
<ele>-1.167224</ele>
<time>2026-07-17T12:28:56.000Z</time>
</trkpt>
<trkpt lat="57.748680" lon="10.650978">
<ele>-1.169995</ele>
<time>2026-07-17T12:28:57.000Z</time>
</trkpt>
<trkpt lat="57.748680" lon="10.650997">
<ele>-1.172766</ele>
<time>2026-07-17T12:28:58.000Z</time>
</trkpt>
<trkpt lat="57.748680" lon="10.651023">
<ele>-1.176558</ele>
<time>2026-07-17T12:28:59.000Z</time>
</trkpt>
<trkpt lat="57.748676" lon="10.651046">
<ele>-1.180086</ele>
<time>2026-07-17T12:29:00.000Z</time>
</trkpt>
<trkpt lat="57.748668" lon="10.651071">
<ele>-1.184337</ele>
<time>2026-07-17T12:29:01.000Z</time>
</trkpt>
<trkpt lat="57.748665" lon="10.651093">
<ele>-1.187648</ele>
<time>2026-07-17T12:29:02.000Z</time>
</trkpt>
<trkpt lat="57.748665" lon="10.651110">
<ele>-1.190128</ele>
<time>2026-07-17T12:29:03.000Z</time>
</trkpt>
<trkpt lat="57.748661" lon="10.651128">
<ele>-1.192971</ele>
<time>2026-07-17T12:29:04.000Z</time>
</trkpt>
<trkpt lat="57.748661" lon="10.651147">
<ele>-1.195742</ele>
<time>2026-07-17T12:29:05.000Z</time>
</trkpt>
<trkpt lat="57.748657" lon="10.651164">
<ele>-1.198452</ele>
<time>2026-07-17T12:29:06.000Z</time>
</trkpt>
<trkpt lat="57.748653" lon="10.651186">
<ele>-1.201841</ele>
<time>2026-07-17T12:29:07.000Z</time>
</trkpt>
<trkpt lat="57.748653" lon="10.651209">
<ele>-1.205195</ele>
<time>2026-07-17T12:29:08.000Z</time>
</trkpt>
<trkpt lat="57.748649" lon="10.651230">
<ele>-1.208447</ele>
<time>2026-07-17T12:29:09.000Z</time>
</trkpt>
<trkpt lat="57.748646" lon="10.651251">
<ele>-1.211618</ele>
<time>2026-07-17T12:29:10.000Z</time>
</trkpt>
<trkpt lat="57.748642" lon="10.651271">
<ele>-1.214732</ele>
<time>2026-07-17T12:29:11.000Z</time>
</trkpt>
<trkpt lat="57.748638" lon="10.651289">
<ele>-1.217576</ele>
<time>2026-07-17T12:29:12.000Z</time>
</trkpt>
<trkpt lat="57.748638" lon="10.651307">
<ele>-1.220201</ele>
<time>2026-07-17T12:29:13.000Z</time>
</trkpt>
<trkpt lat="57.748638" lon="10.651328">
<ele>-1.223264</ele>
<time>2026-07-17T12:29:14.000Z</time>
</trkpt>
<trkpt lat="57.748634" lon="10.651347">
<ele>-1.226242</ele>
<time>2026-07-17T12:29:15.000Z</time>
</trkpt>
<trkpt lat="57.748634" lon="10.651370">
<ele>-1.229597</ele>
<time>2026-07-17T12:29:16.000Z</time>
</trkpt>
<trkpt lat="57.748627" lon="10.651391">
<ele>-1.233208</ele>
<time>2026-07-17T12:29:17.000Z</time>
</trkpt>
<trkpt lat="57.748627" lon="10.651413">
<ele>-1.236416</ele>
<time>2026-07-17T12:29:18.000Z</time>
</trkpt>
<trkpt lat="57.748623" lon="10.651434">
<ele>-1.239668</ele>
<time>2026-07-17T12:29:19.000Z</time>
</trkpt>
<trkpt lat="57.748619" lon="10.651454">
<ele>-1.242783</ele>
<time>2026-07-17T12:29:20.000Z</time>
</trkpt>
<trkpt lat="57.748615" lon="10.651476">
<ele>-1.246172</ele>
<time>2026-07-17T12:29:21.000Z</time>
</trkpt>
<trkpt lat="57.748611" lon="10.651499">
<ele>-1.249700</ele>
<time>2026-07-17T12:29:22.000Z</time>
</trkpt>
<trkpt lat="57.748611" lon="10.651518">
<ele>-1.252471</ele>
<time>2026-07-17T12:29:23.000Z</time>
</trkpt>
<trkpt lat="57.748608" lon="10.651539">
<ele>-1.255641</ele>
<time>2026-07-17T12:29:24.000Z</time>
</trkpt>
<trkpt lat="57.748608" lon="10.651561">
<ele>-1.258850</ele>
<time>2026-07-17T12:29:25.000Z</time>
</trkpt>
<trkpt lat="57.748607" lon="10.651583">
<ele>-1.262070</ele>
<time>2026-07-17T12:29:26.000Z</time>
</trkpt>
<trkpt lat="57.748604" lon="10.651603">
<ele>-1.265100</ele>
<time>2026-07-17T12:29:27.000Z</time>
</trkpt>
<trkpt lat="57.748600" lon="10.651620">
<ele>-1.267809</ele>
<time>2026-07-17T12:29:28.000Z</time>
</trkpt>
<trkpt lat="57.748600" lon="10.651638">
<ele>-1.270434</ele>
<time>2026-07-17T12:29:29.000Z</time>
</trkpt>
<trkpt lat="57.748600" lon="10.651663">
<ele>-1.274080</ele>
<time>2026-07-17T12:29:30.000Z</time>
</trkpt>
<trkpt lat="57.748600" lon="10.651681">
<ele>-1.276705</ele>
<time>2026-07-17T12:29:31.000Z</time>
</trkpt>
<trkpt lat="57.748596" lon="10.651698">
<ele>-1.279415</ele>
<time>2026-07-17T12:29:32.000Z</time>
</trkpt>
<trkpt lat="57.748592" lon="10.651713">
<ele>-1.281860</ele>
<time>2026-07-17T12:29:33.000Z</time>
</trkpt>
<trkpt lat="57.748592" lon="10.651729">
<ele>-1.284194</ele>
<time>2026-07-17T12:29:34.000Z</time>
</trkpt>
<trkpt lat="57.748588" lon="10.651743">
<ele>-1.286510</ele>
<time>2026-07-17T12:29:35.000Z</time>
</trkpt>
<trkpt lat="57.748585" lon="10.651759">
<ele>-1.288983</ele>
<time>2026-07-17T12:29:36.000Z</time>
</trkpt>
<trkpt lat="57.748581" lon="10.651781">
<ele>-1.292372</ele>
<time>2026-07-17T12:29:37.000Z</time>
</trkpt>
<trkpt lat="57.748577" lon="10.651801">
<ele>-1.295487</ele>
<time>2026-07-17T12:29:38.000Z</time>
</trkpt>
<trkpt lat="57.748577" lon="10.651820">
<ele>-1.298258</ele>
<time>2026-07-17T12:29:39.000Z</time>
</trkpt>
<trkpt lat="57.748573" lon="10.651844">
<ele>-1.301925</ele>
<time>2026-07-17T12:29:40.000Z</time>
</trkpt>
<trkpt lat="57.748573" lon="10.651868">
<ele>-1.305425</ele>
<time>2026-07-17T12:29:41.000Z</time>
</trkpt>
<trkpt lat="57.748569" lon="10.651896">
<ele>-1.309652</ele>
<time>2026-07-17T12:29:42.000Z</time>
</trkpt>
<trkpt lat="57.748565" lon="10.651920">
<ele>-1.313319</ele>
<time>2026-07-17T12:29:43.000Z</time>
</trkpt>
<trkpt lat="57.748562" lon="10.651942">
<ele>-1.316631</ele>
<time>2026-07-17T12:29:44.000Z</time>
</trkpt>
<trkpt lat="57.748562" lon="10.651961">
<ele>-1.319402</ele>
<time>2026-07-17T12:29:45.000Z</time>
</trkpt>
<trkpt lat="57.748562" lon="10.651976">
<ele>-1.321589</ele>
<time>2026-07-17T12:29:46.000Z</time>
</trkpt>
<trkpt lat="57.748562" lon="10.651993">
<ele>-1.324068</ele>
<time>2026-07-17T12:29:47.000Z</time>
</trkpt>
<trkpt lat="57.748562" lon="10.652013">
<ele>-1.326985</ele>
<time>2026-07-17T12:29:48.000Z</time>
</trkpt>
<trkpt lat="57.748562" lon="10.652036">
<ele>-1.330339</ele>
<time>2026-07-17T12:29:49.000Z</time>
</trkpt>
<trkpt lat="57.748562" lon="10.652057">
<ele>-1.333402</ele>
<time>2026-07-17T12:29:50.000Z</time>
</trkpt>
<trkpt lat="57.748562" lon="10.652081">
<ele>-1.336902</ele>
<time>2026-07-17T12:29:51.000Z</time>
</trkpt>
<trkpt lat="57.748561" lon="10.652096">
<ele>-1.339107</ele>
<time>2026-07-17T12:29:52.000Z</time>
</trkpt>
<trkpt lat="57.748558" lon="10.652109">
<ele>-1.341172</ele>
<time>2026-07-17T12:29:53.000Z</time>
</trkpt>
<trkpt lat="57.748558" lon="10.652122">
<ele>-1.343068</ele>
<time>2026-07-17T12:29:54.000Z</time>
</trkpt>
<trkpt lat="57.748558" lon="10.652125">
<ele>-1.343506</ele>
<time>2026-07-17T12:29:56.000Z</time>
</trkpt>
<trkpt lat="57.748554" lon="10.652181">
<ele>-1.351745</ele>
<time>2026-07-17T12:29:57.000Z</time>
</trkpt>
<trkpt lat="57.748550" lon="10.652203">
<ele>-1.355135</ele>
<time>2026-07-17T12:29:58.000Z</time>
</trkpt>
<trkpt lat="57.748550" lon="10.652220">
<ele>-1.357614</ele>
<time>2026-07-17T12:29:59.000Z</time>
</trkpt>
<trkpt lat="57.748546" lon="10.652238">
<ele>-1.360458</ele>
<time>2026-07-17T12:30:00.000Z</time>
</trkpt>
<trkpt lat="57.748543" lon="10.652255">
<ele>-1.363069</ele>
<time>2026-07-17T12:30:01.000Z</time>
</trkpt>
<trkpt lat="57.748539" lon="10.652272">
<ele>-1.365779</ele>
<time>2026-07-17T12:30:02.000Z</time>
</trkpt>
<trkpt lat="57.748535" lon="10.652288">
<ele>-1.368355</ele>
<time>2026-07-17T12:30:03.000Z</time>
</trkpt>
<trkpt lat="57.748535" lon="10.652292">
<ele>-1.368939</ele>
<time>2026-07-17T12:30:04.000Z</time>
</trkpt>
<trkpt lat="57.748535" lon="10.652326">
<ele>-1.373897</ele>
<time>2026-07-17T12:30:05.000Z</time>
</trkpt>
<trkpt lat="57.748535" lon="10.652348">
<ele>-1.377106</ele>
<time>2026-07-17T12:30:06.000Z</time>
</trkpt>
<trkpt lat="57.748531" lon="10.652373">
<ele>-1.380912</ele>
<time>2026-07-17T12:30:07.000Z</time>
</trkpt>
<trkpt lat="57.748527" lon="10.652396">
<ele>-1.384440</ele>
<time>2026-07-17T12:30:08.000Z</time>
</trkpt>
<trkpt lat="57.748524" lon="10.652411">
<ele>-1.386776</ele>
<time>2026-07-17T12:30:09.000Z</time>
</trkpt>
<trkpt lat="57.748523" lon="10.652429">
<ele>-1.389415</ele>
<time>2026-07-17T12:30:10.000Z</time>
</trkpt>
<trkpt lat="57.748520" lon="10.652440">
<ele>-1.391217</ele>
<time>2026-07-17T12:30:11.000Z</time>
</trkpt>
<trkpt lat="57.748519" lon="10.652444">
<ele>-1.391861</ele>
<time>2026-07-17T12:30:13.000Z</time>
</trkpt>
<trkpt lat="57.748512" lon="10.652502">
<ele>-1.400533</ele>
<time>2026-07-17T12:30:14.000Z</time>
</trkpt>
<trkpt lat="57.748508" lon="10.652535">
<ele>-1.405468</ele>
<time>2026-07-17T12:30:15.000Z</time>
</trkpt>
<trkpt lat="57.748508" lon="10.652562">
<ele>-1.409406</ele>
<time>2026-07-17T12:30:16.000Z</time>
</trkpt>
<trkpt lat="57.748505" lon="10.652583">
<ele>-1.412576</ele>
<time>2026-07-17T12:30:17.000Z</time>
</trkpt>
<trkpt lat="57.748504" lon="10.652603">
<ele>-1.415506</ele>
<time>2026-07-17T12:30:18.000Z</time>
</trkpt>
<trkpt lat="57.748501" lon="10.652619">
<ele>-1.417979</ele>
<time>2026-07-17T12:30:19.000Z</time>
</trkpt>
<trkpt lat="57.748497" lon="10.652636">
<ele>-1.420689</ele>
<time>2026-07-17T12:30:20.000Z</time>
</trkpt>
<trkpt lat="57.748493" lon="10.652657">
<ele>-1.423940</ele>
<time>2026-07-17T12:30:21.000Z</time>
</trkpt>
<trkpt lat="57.748493" lon="10.652681">
<ele>-1.427441</ele>
<time>2026-07-17T12:30:22.000Z</time>
</trkpt>
<trkpt lat="57.748489" lon="10.652702">
<ele>-1.430692</ele>
<time>2026-07-17T12:30:23.000Z</time>
</trkpt>
<trkpt lat="57.748485" lon="10.652723">
<ele>-1.433944</ele>
<time>2026-07-17T12:30:24.000Z</time>
</trkpt>
<trkpt lat="57.748482" lon="10.652740">
<ele>-1.436556</ele>
<time>2026-07-17T12:30:25.000Z</time>
</trkpt>
<trkpt lat="57.748482" lon="10.652753">
<ele>-1.438451</ele>
<time>2026-07-17T12:30:26.000Z</time>
</trkpt>
<trkpt lat="57.748482" lon="10.652760">
<ele>-1.439472</ele>
<time>2026-07-17T12:30:27.000Z</time>
</trkpt>
<trkpt lat="57.748481" lon="10.652765">
<ele>-1.440251</ele>
<time>2026-07-17T12:30:30.000Z</time>
</trkpt>
<trkpt lat="57.748469" lon="10.652815">
<ele>-1.448246</ele>
<time>2026-07-17T12:30:31.000Z</time>
</trkpt>
<trkpt lat="57.748458" lon="10.652836">
<ele>-1.452538</ele>
<time>2026-07-17T12:30:32.000Z</time>
</trkpt>
<trkpt lat="57.748451" lon="10.652853">
<ele>-1.455669</ele>
<time>2026-07-17T12:30:33.000Z</time>
</trkpt>
<trkpt lat="57.748451" lon="10.652861">
<ele>-1.456836</ele>
<time>2026-07-17T12:30:34.000Z</time>
</trkpt>
<trkpt lat="57.748447" lon="10.652872">
<ele>-1.458777</ele>
<time>2026-07-17T12:30:35.000Z</time>
</trkpt>
<trkpt lat="57.748446" lon="10.652880">
<ele>-1.459976</ele>
<time>2026-07-17T12:30:38.000Z</time>
</trkpt>
<trkpt lat="57.748428" lon="10.652967">
<ele>-1.473584</ele>
<time>2026-07-17T12:30:39.000Z</time>
</trkpt>
<trkpt lat="57.748421" lon="10.653005">
<ele>-1.479446</ele>
<time>2026-07-17T12:30:40.000Z</time>
</trkpt>
<trkpt lat="57.748417" lon="10.653033">
<ele>-1.483674</ele>
<time>2026-07-17T12:30:41.000Z</time>
</trkpt>
<trkpt lat="57.748413" lon="10.653051">
<ele>-1.484238</ele>
<time>2026-07-17T12:30:42.000Z</time>
</trkpt>
<trkpt lat="57.748409" lon="10.653060">
<ele>-1.484238</ele>
<time>2026-07-17T12:30:43.000Z</time>
</trkpt>
<trkpt lat="57.748409" lon="10.653070">
<ele>-1.484238</ele>
<time>2026-07-17T12:30:44.000Z</time>
</trkpt>
<trkpt lat="57.748409" lon="10.653077">
<ele>-1.484238</ele>
<time>2026-07-17T12:30:46.000Z</time>
</trkpt>
<trkpt lat="57.748409" lon="10.653142">
<ele>-1.484238</ele>
<time>2026-07-17T12:30:47.000Z</time>
</trkpt>
<trkpt lat="57.748409" lon="10.653166">
<ele>-1.484238</ele>
<time>2026-07-17T12:30:48.000Z</time>
</trkpt>
<trkpt lat="57.748409" lon="10.653190">
<ele>-1.484238</ele>
<time>2026-07-17T12:30:49.000Z</time>
</trkpt>
<trkpt lat="57.748409" lon="10.653206">
<ele>-1.484238</ele>
<time>2026-07-17T12:30:50.000Z</time>
</trkpt>
<trkpt lat="57.748409" lon="10.653224">
<ele>-1.484238</ele>
<time>2026-07-17T12:30:51.000Z</time>
</trkpt>
<trkpt lat="57.748409" lon="10.653244">
<ele>-1.484238</ele>
<time>2026-07-17T12:30:52.000Z</time>
</trkpt>
<trkpt lat="57.748409" lon="10.653268">
<ele>-1.484238</ele>
<time>2026-07-17T12:30:53.000Z</time>
</trkpt>
<trkpt lat="57.748409" lon="10.653294">
<ele>-1.484238</ele>
<time>2026-07-17T12:30:54.000Z</time>
</trkpt>
<trkpt lat="57.748405" lon="10.653316">
<ele>-1.484238</ele>
<time>2026-07-17T12:30:55.000Z</time>
</trkpt>
<trkpt lat="57.748401" lon="10.653340">
<ele>-1.484238</ele>
<time>2026-07-17T12:30:56.000Z</time>
</trkpt>
<trkpt lat="57.748398" lon="10.653358">
<ele>-1.484238</ele>
<time>2026-07-17T12:30:57.000Z</time>
</trkpt>
<trkpt lat="57.748398" lon="10.653378">
<ele>-1.484238</ele>
<time>2026-07-17T12:30:58.000Z</time>
</trkpt>
<trkpt lat="57.748394" lon="10.653397">
<ele>-1.484238</ele>
<time>2026-07-17T12:30:59.000Z</time>
</trkpt>
<trkpt lat="57.748394" lon="10.653417">
<ele>-1.484238</ele>
<time>2026-07-17T12:31:00.000Z</time>
</trkpt>
<trkpt lat="57.748398" lon="10.653440">
<ele>-1.484238</ele>
<time>2026-07-17T12:31:01.000Z</time>
</trkpt>
<trkpt lat="57.748401" lon="10.653463">
<ele>-1.484238</ele>
<time>2026-07-17T12:31:02.000Z</time>
</trkpt>
<trkpt lat="57.748397" lon="10.653490">
<ele>-1.484238</ele>
<time>2026-07-17T12:31:03.000Z</time>
</trkpt>
<trkpt lat="57.748390" lon="10.653513">
<ele>-1.484238</ele>
<time>2026-07-17T12:31:04.000Z</time>
</trkpt>
<trkpt lat="57.748386" lon="10.653521">
<ele>-1.484238</ele>
<time>2026-07-17T12:31:05.000Z</time>
</trkpt>
<trkpt lat="57.748386" lon="10.653515">
<ele>-1.484238</ele>
<time>2026-07-17T12:31:06.000Z</time>
</trkpt>
<trkpt lat="57.748379" lon="10.653519">
<ele>-1.484238</ele>
<time>2026-07-17T12:31:07.000Z</time>
</trkpt>
<trkpt lat="57.748377" lon="10.653524">
<ele>-1.484238</ele>
<time>2026-07-17T12:31:09.000Z</time>
</trkpt>
<trkpt lat="57.748359" lon="10.653594">
<ele>-1.484238</ele>
<time>2026-07-17T12:31:10.000Z</time>
</trkpt>
<trkpt lat="57.748348" lon="10.653618">
<ele>-1.484238</ele>
<time>2026-07-17T12:31:11.000Z</time>
</trkpt>
<trkpt lat="57.748344" lon="10.653631">
<ele>-1.484238</ele>
<time>2026-07-17T12:31:12.000Z</time>
</trkpt>
<trkpt lat="57.748344" lon="10.653645">
<ele>-1.484238</ele>
<time>2026-07-17T12:31:13.000Z</time>
</trkpt>
<trkpt lat="57.748341" lon="10.653662">
<ele>-1.484238</ele>
<time>2026-07-17T12:31:14.000Z</time>
</trkpt>
<trkpt lat="57.748340" lon="10.653665">
<ele>-1.484238</ele>
<time>2026-07-17T12:31:15.000Z</time>
</trkpt>
<trkpt lat="57.748333" lon="10.653702">
<ele>-1.484238</ele>
<time>2026-07-17T12:31:16.000Z</time>
</trkpt>
<trkpt lat="57.748329" lon="10.653723">
<ele>-1.484238</ele>
<time>2026-07-17T12:31:17.000Z</time>
</trkpt>
<trkpt lat="57.748325" lon="10.653741">
<ele>-1.484238</ele>
<time>2026-07-17T12:31:18.000Z</time>
</trkpt>
<trkpt lat="57.748322" lon="10.653756">
<ele>-1.484238</ele>
<time>2026-07-17T12:31:19.000Z</time>
</trkpt>
<trkpt lat="57.748321" lon="10.653770">
<ele>-1.484238</ele>
<time>2026-07-17T12:31:20.000Z</time>
</trkpt>
<trkpt lat="57.748314" lon="10.653785">
<ele>-1.484238</ele>
<time>2026-07-17T12:31:21.000Z</time>
</trkpt>
<trkpt lat="57.748310" lon="10.653803">
<ele>-1.484238</ele>
<time>2026-07-17T12:31:22.000Z</time>
</trkpt>
<trkpt lat="57.748306" lon="10.653825">
<ele>-1.484238</ele>
<time>2026-07-17T12:31:23.000Z</time>
</trkpt>
<trkpt lat="57.748302" lon="10.653841">
<ele>-1.484238</ele>
<time>2026-07-17T12:31:24.000Z</time>
</trkpt>
<trkpt lat="57.748295" lon="10.653861">
<ele>-1.484238</ele>
<time>2026-07-17T12:31:25.000Z</time>
</trkpt>
<trkpt lat="57.748291" lon="10.653879">
<ele>-1.484238</ele>
<time>2026-07-17T12:31:26.000Z</time>
</trkpt>
<trkpt lat="57.748287" lon="10.653894">
<ele>-1.484238</ele>
<time>2026-07-17T12:31:27.000Z</time>
</trkpt>
<trkpt lat="57.748283" lon="10.653908">
<ele>-1.484238</ele>
<time>2026-07-17T12:31:28.000Z</time>
</trkpt>
<trkpt lat="57.748283" lon="10.653920">
<ele>-1.484238</ele>
<time>2026-07-17T12:31:29.000Z</time>
</trkpt>
<trkpt lat="57.748283" lon="10.653923">
<ele>-1.484238</ele>
<time>2026-07-17T12:31:30.000Z</time>
</trkpt>
<trkpt lat="57.748276" lon="10.653964">
<ele>-1.484238</ele>
<time>2026-07-17T12:31:31.000Z</time>
</trkpt>
<trkpt lat="57.748272" lon="10.653982">
<ele>-1.484238</ele>
<time>2026-07-17T12:31:32.000Z</time>
</trkpt>
<trkpt lat="57.748268" lon="10.654001">
<ele>-1.484238</ele>
<time>2026-07-17T12:31:33.000Z</time>
</trkpt>
<trkpt lat="57.748268" lon="10.654014">
<ele>-1.484238</ele>
<time>2026-07-17T12:31:34.000Z</time>
</trkpt>
<trkpt lat="57.748268" lon="10.654023">
<ele>-1.484238</ele>
<time>2026-07-17T12:31:35.000Z</time>
</trkpt>
<trkpt lat="57.748264" lon="10.654035">
<ele>-1.484238</ele>
<time>2026-07-17T12:31:36.000Z</time>
</trkpt>
<trkpt lat="57.748264" lon="10.654035">
<ele>-1.484238</ele>
<time>2026-07-17T12:31:39.000Z</time>
</trkpt>
<trkpt lat="57.748264" lon="10.654035">
<ele>-1.484238</ele>
<time>2026-07-17T12:31:45.000Z</time>
</trkpt>
<trkpt lat="57.748264" lon="10.654035">
<ele>-1.484238</ele>
<time>2026-07-17T12:31:47.000Z</time>
</trkpt>
<trkpt lat="57.748265" lon="10.654048">
<ele>-1.484238</ele>
<time>2026-07-17T12:31:48.000Z</time>
</trkpt>
<trkpt lat="57.748272" lon="10.654211">
<ele>-1.484238</ele>
<time>2026-07-17T12:31:49.000Z</time>
</trkpt>
<trkpt lat="57.748276" lon="10.654223">
<ele>-1.484238</ele>
<time>2026-07-17T12:31:50.000Z</time>
</trkpt>
<trkpt lat="57.748280" lon="10.654238">
<ele>-1.484238</ele>
<time>2026-07-17T12:31:51.000Z</time>
</trkpt>
<trkpt lat="57.748283" lon="10.654253">
<ele>-1.484238</ele>
<time>2026-07-17T12:31:52.000Z</time>
</trkpt>
<trkpt lat="57.748284" lon="10.654256">
<ele>-1.484238</ele>
<time>2026-07-17T12:31:53.000Z</time>
</trkpt>
<trkpt lat="57.748287" lon="10.654294">
<ele>-1.484238</ele>
<time>2026-07-17T12:31:54.000Z</time>
</trkpt>
<trkpt lat="57.748291" lon="10.654313">
<ele>-1.484238</ele>
<time>2026-07-17T12:31:55.000Z</time>
</trkpt>
<trkpt lat="57.748295" lon="10.654330">
<ele>-1.484238</ele>
<time>2026-07-17T12:31:56.000Z</time>
</trkpt>
<trkpt lat="57.748299" lon="10.654346">
<ele>-1.484238</ele>
<time>2026-07-17T12:31:57.000Z</time>
</trkpt>
<trkpt lat="57.748303" lon="10.654365">
<ele>-1.484238</ele>
<time>2026-07-17T12:31:58.000Z</time>
</trkpt>
<trkpt lat="57.748307" lon="10.654385">
<ele>-1.484238</ele>
<time>2026-07-17T12:31:59.000Z</time>
</trkpt>
<trkpt lat="57.748310" lon="10.654403">
<ele>-1.484238</ele>
<time>2026-07-17T12:32:00.000Z</time>
</trkpt>
<trkpt lat="57.748310" lon="10.654424">
<ele>-1.484238</ele>
<time>2026-07-17T12:32:01.000Z</time>
</trkpt>
<trkpt lat="57.748310" lon="10.654442">
<ele>-1.484238</ele>
<time>2026-07-17T12:32:02.000Z</time>
</trkpt>
<trkpt lat="57.748314" lon="10.654458">
<ele>-1.484238</ele>
<time>2026-07-17T12:32:03.000Z</time>
</trkpt>
<trkpt lat="57.748314" lon="10.654480">
<ele>-1.484238</ele>
<time>2026-07-17T12:32:04.000Z</time>
</trkpt>
<trkpt lat="57.748314" lon="10.654500">
<ele>-1.484238</ele>
<time>2026-07-17T12:32:05.000Z</time>
</trkpt>
<trkpt lat="57.748318" lon="10.654521">
<ele>-1.484238</ele>
<time>2026-07-17T12:32:06.000Z</time>
</trkpt>
<trkpt lat="57.748318" lon="10.654536">
<ele>-1.484238</ele>
<time>2026-07-17T12:32:07.000Z</time>
</trkpt>
<trkpt lat="57.748322" lon="10.654554">
<ele>-1.484238</ele>
<time>2026-07-17T12:32:08.000Z</time>
</trkpt>
<trkpt lat="57.748322" lon="10.654570">
<ele>-1.484238</ele>
<time>2026-07-17T12:32:09.000Z</time>
</trkpt>
<trkpt lat="57.748326" lon="10.654586">
<ele>-1.484238</ele>
<time>2026-07-17T12:32:10.000Z</time>
</trkpt>
<trkpt lat="57.748329" lon="10.654601">
<ele>-1.484238</ele>
<time>2026-07-17T12:32:11.000Z</time>
</trkpt>
<trkpt lat="57.748329" lon="10.654617">
<ele>-1.484238</ele>
<time>2026-07-17T12:32:12.000Z</time>
</trkpt>
<trkpt lat="57.748333" lon="10.654629">
<ele>-1.484238</ele>
<time>2026-07-17T12:32:13.000Z</time>
</trkpt>
<trkpt lat="57.748337" lon="10.654638">
<ele>-1.484238</ele>
<time>2026-07-17T12:32:14.000Z</time>
</trkpt>
<trkpt lat="57.748337" lon="10.654638">
<ele>-1.484238</ele>
<time>2026-07-17T12:32:21.000Z</time>
</trkpt>
<trkpt lat="57.748337" lon="10.654638">
<ele>-1.484238</ele>
<time>2026-07-17T12:32:25.000Z</time>
</trkpt>
<trkpt lat="57.748337" lon="10.654638">
<ele>-1.484238</ele>
<time>2026-07-17T12:32:30.000Z</time>
</trkpt>
<trkpt lat="57.748337" lon="10.654638">
<ele>-1.484238</ele>
<time>2026-07-17T12:32:34.000Z</time>
</trkpt>
</trkseg>
</trk>
</gpx>